<?xml version='1.0' encoding='UTF-8'?><gpx version="1.1" creator="JPX - https://github.com/jenetics/jpx" xmlns="http://www.topografix.com/GPX/1/1"><trk><trkseg><trkpt lat="44.5252825" lon="10.8668373"><ele>133.0</ele><time>2026-05-03T07:57:22.77Z</time></trkpt><trkpt lat="44.5252226" lon="10.8668666"><ele>133.0</ele><time>2026-05-03T07:57:38.796Z</time></trkpt><trkpt lat="44.5251867" lon="10.8669438"><ele>133.0</ele><time>2026-05-03T07:57:44.588Z</time></trkpt><trkpt lat="44.525119" lon="10.8669023"><ele>133.0</ele><time>2026-05-03T08:00:15.553Z</time></trkpt><trkpt lat="44.5250531" lon="10.8668687"><ele>133.0</ele><time>2026-05-03T08:00:17.551Z</time></trkpt><trkpt lat="44.5249468" lon="10.8668172"><ele>133.0</ele><time>2026-05-03T08:00:19.551Z</time></trkpt><trkpt lat="44.524886" lon="10.8667852"><ele>133.0</ele><time>2026-05-03T08:00:20.557Z</time></trkpt><trkpt lat="44.5247882" lon="10.8667199"><ele>133.0</ele><time>2026-05-03T08:00:22.56Z</time></trkpt><trkpt lat="44.5247113" lon="10.8667186"><ele>133.0</ele><time>2026-05-03T08:00:27.557Z</time></trkpt><trkpt lat="44.5246621" lon="10.8668669"><ele>133.0</ele><time>2026-05-03T08:00:29.558Z</time></trkpt><trkpt lat="44.5246481" lon="10.866976"><ele>133.0</ele><time>2026-05-03T08:00:30.548Z</time></trkpt><trkpt lat="44.5246292" lon="10.8670906"><ele>133.0</ele><time>2026-05-03T08:00:31.548Z</time></trkpt><trkpt lat="44.5246043" lon="10.8672121"><ele>133.0</ele><time>2026-05-03T08:00:32.54Z</time></trkpt><trkpt lat="44.5245789" lon="10.8673529"><ele>133.0</ele><time>2026-05-03T08:00:33.546Z</time></trkpt><trkpt lat="44.5245461" lon="10.8674977"><ele>133.0</ele><time>2026-05-03T08:00:34.536Z</time></trkpt><trkpt lat="44.5245107" lon="10.8676474"><ele>133.0</ele><time>2026-05-03T08:00:35.537Z</time></trkpt><trkpt lat="44.5244733" lon="10.8678098"><ele>134.0</ele><time>2026-05-03T08:00:36.546Z</time></trkpt><trkpt lat="44.5244337" lon="10.8679832"><ele>135.0</ele><time>2026-05-03T08:00:37.538Z</time></trkpt><trkpt lat="44.5243936" lon="10.868183"><ele>136.0</ele><time>2026-05-03T08:00:38.544Z</time></trkpt><trkpt lat="44.5243506" lon="10.8683954"><ele>137.0</ele><time>2026-05-03T08:00:39.543Z</time></trkpt><trkpt lat="44.5243043" lon="10.8685985"><ele>137.0</ele><time>2026-05-03T08:00:40.546Z</time></trkpt><trkpt lat="44.5242552" lon="10.8687903"><ele>137.0</ele><time>2026-05-03T08:00:41.54Z</time></trkpt><trkpt lat="44.524222" lon="10.8689967"><ele>137.0</ele><time>2026-05-03T08:00:42.539Z</time></trkpt><trkpt lat="44.5241827" lon="10.869207"><ele>136.75</ele><time>2026-05-03T08:00:43.535Z</time></trkpt><trkpt lat="44.5241604" lon="10.8694178"><ele>136.5</ele><time>2026-05-03T08:00:44.537Z</time></trkpt><trkpt lat="44.5241581" lon="10.8696289"><ele>136.25</ele><time>2026-05-03T08:00:45.539Z</time></trkpt><trkpt lat="44.5241572" lon="10.8698274"><ele>136.0</ele><time>2026-05-03T08:00:46.539Z</time></trkpt><trkpt lat="44.5241611" lon="10.8700014"><ele>135.25</ele><time>2026-05-03T08:00:47.544Z</time></trkpt><trkpt lat="44.5241594" lon="10.8701602"><ele>134.5</ele><time>2026-05-03T08:00:48.547Z</time></trkpt><trkpt lat="44.5241596" lon="10.8703069"><ele>133.75</ele><time>2026-05-03T08:00:49.547Z</time></trkpt><trkpt lat="44.5241525" lon="10.8704685"><ele>133.0</ele><time>2026-05-03T08:00:50.554Z</time></trkpt><trkpt lat="44.5241436" lon="10.8706416"><ele>133.0</ele><time>2026-05-03T08:00:51.536Z</time></trkpt><trkpt lat="44.5241447" lon="10.8708083"><ele>133.0</ele><time>2026-05-03T08:00:52.555Z</time></trkpt><trkpt lat="44.5241439" lon="10.8709617"><ele>133.0</ele><time>2026-05-03T08:00:53.544Z</time></trkpt><trkpt lat="44.5241418" lon="10.871109"><ele>133.0</ele><time>2026-05-03T08:00:54.547Z</time></trkpt><trkpt lat="44.524142" lon="10.871243"><ele>133.0</ele><time>2026-05-03T08:00:55.544Z</time></trkpt><trkpt lat="44.5241375" lon="10.871366"><ele>133.14285714285714</ele><time>2026-05-03T08:00:56.545Z</time></trkpt><trkpt lat="44.5241341" lon="10.8714764"><ele>133.28571428571428</ele><time>2026-05-03T08:00:57.573Z</time></trkpt><trkpt lat="44.5241317" lon="10.8715754"><ele>133.42857142857144</ele><time>2026-05-03T08:00:58.545Z</time></trkpt><trkpt lat="44.5241177" lon="10.871668"><ele>133.57142857142856</ele><time>2026-05-03T08:00:59.553Z</time></trkpt><trkpt lat="44.5240836" lon="10.8717476"><ele>133.71428571428572</ele><time>2026-05-03T08:01:00.546Z</time></trkpt><trkpt lat="44.5240263" lon="10.8718073"><ele>133.85714285714286</ele><time>2026-05-03T08:01:01.547Z</time></trkpt><trkpt lat="44.523957" lon="10.871834"><ele>134.0</ele><time>2026-05-03T08:01:02.548Z</time></trkpt><trkpt lat="44.5238702" lon="10.8718179"><ele>134.0</ele><time>2026-05-03T08:01:03.549Z</time></trkpt><trkpt lat="44.5237614" lon="10.8717609"><ele>134.0</ele><time>2026-05-03T08:01:04.546Z</time></trkpt><trkpt lat="44.5236357" lon="10.8717025"><ele>134.0</ele><time>2026-05-03T08:01:05.545Z</time></trkpt><trkpt lat="44.523489" lon="10.8716302"><ele>134.0</ele><time>2026-05-03T08:01:06.535Z</time></trkpt><trkpt lat="44.5233414" lon="10.8715597"><ele>136.33333333333331</ele><time>2026-05-03T08:01:07.539Z</time></trkpt><trkpt lat="44.5231911" lon="10.8714868"><ele>138.66666666666666</ele><time>2026-05-03T08:01:08.54Z</time></trkpt><trkpt lat="44.5230333" lon="10.8714121"><ele>141.0</ele><time>2026-05-03T08:01:09.538Z</time></trkpt><trkpt lat="44.5228717" lon="10.8713422"><ele>142.0</ele><time>2026-05-03T08:01:10.54Z</time></trkpt><trkpt lat="44.5227245" lon="10.8712771"><ele>143.0</ele><time>2026-05-03T08:01:11.532Z</time></trkpt><trkpt lat="44.5225857" lon="10.8712227"><ele>144.0</ele><time>2026-05-03T08:01:12.539Z</time></trkpt><trkpt lat="44.5224432" lon="10.8711691"><ele>145.0</ele><time>2026-05-03T08:01:13.537Z</time></trkpt><trkpt lat="44.5222957" lon="10.8710836"><ele>145.0</ele><time>2026-05-03T08:01:14.544Z</time></trkpt><trkpt lat="44.5221541" lon="10.871014"><ele>145.0</ele><time>2026-05-03T08:01:15.54Z</time></trkpt><trkpt lat="44.522021" lon="10.8709426"><ele>145.0</ele><time>2026-05-03T08:01:16.548Z</time></trkpt><trkpt lat="44.5218936" lon="10.8708792"><ele>145.0</ele><time>2026-05-03T08:01:17.548Z</time></trkpt><trkpt lat="44.5217766" lon="10.8708234"><ele>145.66666666666669</ele><time>2026-05-03T08:01:18.544Z</time></trkpt><trkpt lat="44.5216787" lon="10.8707642"><ele>146.33333333333334</ele><time>2026-05-03T08:01:19.546Z</time></trkpt><trkpt lat="44.5215917" lon="10.8707204"><ele>147.0</ele><time>2026-05-03T08:01:20.546Z</time></trkpt><trkpt lat="44.5215075" lon="10.8706879"><ele>147.66666666666666</ele><time>2026-05-03T08:01:21.558Z</time></trkpt><trkpt lat="44.5214374" lon="10.8706482"><ele>148.33333333333331</ele><time>2026-05-03T08:01:22.556Z</time></trkpt><trkpt lat="44.521364" lon="10.8706201"><ele>149.0</ele><time>2026-05-03T08:01:23.552Z</time></trkpt><trkpt lat="44.5213069" lon="10.8705749"><ele>149.0</ele><time>2026-05-03T08:01:24.557Z</time></trkpt><trkpt lat="44.5212624" lon="10.8705003"><ele>149.0</ele><time>2026-05-03T08:01:25.556Z</time></trkpt><trkpt lat="44.5212338" lon="10.8703908"><ele>149.0</ele><time>2026-05-03T08:01:26.547Z</time></trkpt><trkpt lat="44.5211925" lon="10.8702462"><ele>149.0</ele><time>2026-05-03T08:01:27.567Z</time></trkpt><trkpt lat="44.5211388" lon="10.8701077"><ele>149.0</ele><time>2026-05-03T08:01:28.552Z</time></trkpt><trkpt lat="44.5210745" lon="10.869958"><ele>148.0</ele><time>2026-05-03T08:01:29.539Z</time></trkpt><trkpt lat="44.5210122" lon="10.8698143"><ele>147.0</ele><time>2026-05-03T08:01:30.544Z</time></trkpt><trkpt lat="44.5209504" lon="10.869667"><ele>146.0</ele><time>2026-05-03T08:01:31.548Z</time></trkpt><trkpt lat="44.5208829" lon="10.8695144"><ele>145.0</ele><time>2026-05-03T08:01:32.546Z</time></trkpt><trkpt lat="44.5208147" lon="10.869374"><ele>143.75</ele><time>2026-05-03T08:01:33.542Z</time></trkpt><trkpt lat="44.5207391" lon="10.8692392"><ele>142.5</ele><time>2026-05-03T08:01:34.543Z</time></trkpt><trkpt lat="44.5206582" lon="10.8691269"><ele>141.25</ele><time>2026-05-03T08:01:35.537Z</time></trkpt><trkpt lat="44.5205702" lon="10.8690372"><ele>140.0</ele><time>2026-05-03T08:01:36.538Z</time></trkpt><trkpt lat="44.5204714" lon="10.8689667"><ele>140.25</ele><time>2026-05-03T08:01:37.544Z</time></trkpt><trkpt lat="44.5203579" lon="10.8689108"><ele>140.5</ele><time>2026-05-03T08:01:38.543Z</time></trkpt><trkpt lat="44.5202367" lon="10.8688787"><ele>140.75</ele><time>2026-05-03T08:01:39.542Z</time></trkpt><trkpt lat="44.5201067" lon="10.868872"><ele>141.0</ele><time>2026-05-03T08:01:40.532Z</time></trkpt><trkpt lat="44.5199737" lon="10.8688801"><ele>141.0</ele><time>2026-05-03T08:01:41.54Z</time></trkpt><trkpt lat="44.5198441" lon="10.8688829"><ele>141.0</ele><time>2026-05-03T08:01:42.536Z</time></trkpt><trkpt lat="44.5197209" lon="10.8688862"><ele>141.0</ele><time>2026-05-03T08:01:43.539Z</time></trkpt><trkpt lat="44.5196042" lon="10.8688835"><ele>141.0</ele><time>2026-05-03T08:01:44.543Z</time></trkpt><trkpt lat="44.5194888" lon="10.8688707"><ele>142.0</ele><time>2026-05-03T08:01:45.55Z</time></trkpt><trkpt lat="44.5193744" lon="10.8688483"><ele>143.0</ele><time>2026-05-03T08:01:46.548Z</time></trkpt><trkpt lat="44.5192617" lon="10.8688311"><ele>144.0</ele><time>2026-05-03T08:01:47.552Z</time></trkpt><trkpt lat="44.5191569" lon="10.8688147"><ele>145.0</ele><time>2026-05-03T08:01:48.551Z</time></trkpt><trkpt lat="44.519059" lon="10.8688038"><ele>146.0</ele><time>2026-05-03T08:01:49.551Z</time></trkpt><trkpt lat="44.518976" lon="10.8687852"><ele>146.0</ele><time>2026-05-03T08:01:50.549Z</time></trkpt><trkpt lat="44.5189022" lon="10.8687412"><ele>146.0</ele><time>2026-05-03T08:01:51.553Z</time></trkpt><trkpt lat="44.5188439" lon="10.8686603"><ele>146.0</ele><time>2026-05-03T08:01:52.551Z</time></trkpt><trkpt lat="44.5188047" lon="10.8685399"><ele>146.0</ele><time>2026-05-03T08:01:53.546Z</time></trkpt><trkpt lat="44.5187753" lon="10.8684003"><ele>146.0</ele><time>2026-05-03T08:01:54.553Z</time></trkpt><trkpt lat="44.5187507" lon="10.8682806"><ele>146.0</ele><time>2026-05-03T08:01:55.552Z</time></trkpt><trkpt lat="44.5187316" lon="10.8681604"><ele>147.66666666666666</ele><time>2026-05-03T08:01:56.557Z</time></trkpt><trkpt lat="44.5187157" lon="10.8680539"><ele>149.33333333333331</ele><time>2026-05-03T08:01:57.55Z</time></trkpt><trkpt lat="44.5186964" lon="10.8679505"><ele>151.0</ele><time>2026-05-03T08:01:58.573Z</time></trkpt><trkpt lat="44.5186761" lon="10.8678428"><ele>152.66666666666666</ele><time>2026-05-03T08:01:59.551Z</time></trkpt><trkpt lat="44.5186478" lon="10.8677447"><ele>154.33333333333334</ele><time>2026-05-03T08:02:00.554Z</time></trkpt><trkpt lat="44.5186201" lon="10.8676447"><ele>156.0</ele><time>2026-05-03T08:02:01.552Z</time></trkpt><trkpt lat="44.5185885" lon="10.8675406"><ele>156.66666666666666</ele><time>2026-05-03T08:02:02.553Z</time></trkpt><trkpt lat="44.5185576" lon="10.8674341"><ele>157.33333333333334</ele><time>2026-05-03T08:02:03.549Z</time></trkpt><trkpt lat="44.5185281" lon="10.8673301"><ele>158.0</ele><time>2026-05-03T08:02:04.557Z</time></trkpt><trkpt lat="44.5185051" lon="10.8672466"><ele>158.66666666666669</ele><time>2026-05-03T08:02:05.551Z</time></trkpt><trkpt lat="44.5184567" lon="10.8671607"><ele>159.33333333333334</ele><time>2026-05-03T08:02:07.56Z</time></trkpt><trkpt lat="44.5183899" lon="10.8671417"><ele>160.0</ele><time>2026-05-03T08:02:10.559Z</time></trkpt><trkpt lat="44.5183198" lon="10.8671936"><ele>160.0</ele><time>2026-05-03T08:03:22.566Z</time></trkpt><trkpt lat="44.5182617" lon="10.8672355"><ele>160.0</ele><time>2026-05-03T08:03:23.561Z</time></trkpt><trkpt lat="44.5181502" lon="10.8673186"><ele>160.0</ele><time>2026-05-03T08:03:25.573Z</time></trkpt><trkpt lat="44.5180758" lon="10.8673614"><ele>160.0</ele><time>2026-05-03T08:03:26.567Z</time></trkpt><trkpt lat="44.5180069" lon="10.8674057"><ele>160.0</ele><time>2026-05-03T08:03:27.564Z</time></trkpt><trkpt lat="44.517942" lon="10.8674481"><ele>160.0</ele><time>2026-05-03T08:03:28.573Z</time></trkpt><trkpt lat="44.5178686" lon="10.8674938"><ele>160.2</ele><time>2026-05-03T08:03:29.566Z</time></trkpt><trkpt lat="44.5177817" lon="10.8675451"><ele>160.4</ele><time>2026-05-03T08:03:30.565Z</time></trkpt><trkpt lat="44.5176851" lon="10.8675976"><ele>160.60000000000002</ele><time>2026-05-03T08:03:31.577Z</time></trkpt><trkpt lat="44.5175893" lon="10.8676509"><ele>160.8</ele><time>2026-05-03T08:03:32.567Z</time></trkpt><trkpt lat="44.5174916" lon="10.8677058"><ele>161.0</ele><time>2026-05-03T08:03:33.563Z</time></trkpt><trkpt lat="44.5174033" lon="10.8677562"><ele>161.0</ele><time>2026-05-03T08:03:34.566Z</time></trkpt><trkpt lat="44.517323" lon="10.8677904"><ele>161.0</ele><time>2026-05-03T08:03:35.566Z</time></trkpt><trkpt lat="44.5172484" lon="10.8678021"><ele>161.0</ele><time>2026-05-03T08:03:36.563Z</time></trkpt><trkpt lat="44.5171805" lon="10.8677868"><ele>161.0</ele><time>2026-05-03T08:03:37.565Z</time></trkpt><trkpt lat="44.5171088" lon="10.867732"><ele>161.0</ele><time>2026-05-03T08:03:38.568Z</time></trkpt><trkpt lat="44.5170374" lon="10.867694"><ele>161.0</ele><time>2026-05-03T08:03:39.556Z</time></trkpt><trkpt lat="44.5169571" lon="10.8676751"><ele>161.5</ele><time>2026-05-03T08:03:40.568Z</time></trkpt><trkpt lat="44.5168663" lon="10.8676759"><ele>162.0</ele><time>2026-05-03T08:03:41.565Z</time></trkpt><trkpt lat="44.5167789" lon="10.86769"><ele>162.5</ele><time>2026-05-03T08:03:42.563Z</time></trkpt><trkpt lat="44.5167023" lon="10.8677194"><ele>163.0</ele><time>2026-05-03T08:03:43.564Z</time></trkpt><trkpt lat="44.516633" lon="10.8677483"><ele>163.5</ele><time>2026-05-03T08:03:44.562Z</time></trkpt><trkpt lat="44.5165661" lon="10.8677713"><ele>164.0</ele><time>2026-05-03T08:03:45.56Z</time></trkpt><trkpt lat="44.5164522" lon="10.8677568"><ele>164.0</ele><time>2026-05-03T08:03:47.565Z</time></trkpt><trkpt lat="44.5163822" lon="10.8676244"><ele>164.0</ele><time>2026-05-03T08:03:49.559Z</time></trkpt><trkpt lat="44.5163686" lon="10.8675234"><ele>164.0</ele><time>2026-05-03T08:03:50.56Z</time></trkpt><trkpt lat="44.5163622" lon="10.8674072"><ele>164.0</ele><time>2026-05-03T08:03:51.571Z</time></trkpt><trkpt lat="44.5163395" lon="10.8672996"><ele>164.0</ele><time>2026-05-03T08:03:52.565Z</time></trkpt><trkpt lat="44.5163002" lon="10.8672145"><ele>164.0</ele><time>2026-05-03T08:03:53.57Z</time></trkpt><trkpt lat="44.5162352" lon="10.8671684"><ele>165.33333333333331</ele><time>2026-05-03T08:03:54.568Z</time></trkpt><trkpt lat="44.5161552" lon="10.8671614"><ele>166.66666666666666</ele><time>2026-05-03T08:03:55.565Z</time></trkpt><trkpt lat="44.516067" lon="10.8671911"><ele>168.0</ele><time>2026-05-03T08:03:56.567Z</time></trkpt><trkpt lat="44.5159765" lon="10.8672218"><ele>169.33333333333334</ele><time>2026-05-03T08:03:57.562Z</time></trkpt><trkpt lat="44.5158979" lon="10.8672519"><ele>170.66666666666669</ele><time>2026-05-03T08:03:58.569Z</time></trkpt><trkpt lat="44.5158255" lon="10.8672798"><ele>172.0</ele><time>2026-05-03T08:03:59.568Z</time></trkpt><trkpt lat="44.5157583" lon="10.8673096"><ele>172.0</ele><time>2026-05-03T08:04:00.57Z</time></trkpt><trkpt lat="44.5156951" lon="10.8673352"><ele>172.0</ele><time>2026-05-03T08:04:01.571Z</time></trkpt><trkpt lat="44.5155789" lon="10.867371"><ele>172.0</ele><time>2026-05-03T08:04:03.568Z</time></trkpt><trkpt lat="44.5154788" lon="10.8673945"><ele>172.0</ele><time>2026-05-03T08:04:05.562Z</time></trkpt><trkpt lat="44.5153969" lon="10.8674099"><ele>172.0</ele><time>2026-05-03T08:04:07.565Z</time></trkpt><trkpt lat="44.5153316" lon="10.8674285"><ele>172.0</ele><time>2026-05-03T08:04:09.57Z</time></trkpt><trkpt lat="44.5152586" lon="10.867452"><ele>172.0</ele><time>2026-05-03T08:04:11.566Z</time></trkpt><trkpt lat="44.5151762" lon="10.8674845"><ele>172.0</ele><time>2026-05-03T08:04:14.571Z</time></trkpt><trkpt lat="44.5150956" lon="10.8675003"><ele>172.0</ele><time>2026-05-03T08:04:17.566Z</time></trkpt><trkpt lat="44.515011" lon="10.8675155"><ele>172.0</ele><time>2026-05-03T08:04:20.568Z</time></trkpt><trkpt lat="44.5149272" lon="10.8675244"><ele>172.0</ele><time>2026-05-03T08:04:22.571Z</time></trkpt><trkpt lat="44.5148353" lon="10.8675458"><ele>172.0</ele><time>2026-05-03T08:04:24.575Z</time></trkpt><trkpt lat="44.5147354" lon="10.8675724"><ele>172.0</ele><time>2026-05-03T08:04:26.572Z</time></trkpt><trkpt lat="44.5146204" lon="10.8675988"><ele>172.0</ele><time>2026-05-03T08:04:28.572Z</time></trkpt><trkpt lat="44.5145105" lon="10.8676218"><ele>172.0</ele><time>2026-05-03T08:04:30.573Z</time></trkpt><trkpt lat="44.5144408" lon="10.8676311"><ele>172.0</ele><time>2026-05-03T08:04:31.573Z</time></trkpt><trkpt lat="44.5143681" lon="10.867638"><ele>172.0</ele><time>2026-05-03T08:04:32.57Z</time></trkpt><trkpt lat="44.5143008" lon="10.8676512"><ele>172.0</ele><time>2026-05-03T08:04:33.59Z</time></trkpt><trkpt lat="44.5142302" lon="10.8676653"><ele>172.33333333333334</ele><time>2026-05-03T08:04:34.571Z</time></trkpt><trkpt lat="44.5141541" lon="10.8676842"><ele>172.66666666666669</ele><time>2026-05-03T08:04:35.569Z</time></trkpt><trkpt lat="44.5140703" lon="10.8677017"><ele>173.0</ele><time>2026-05-03T08:04:36.574Z</time></trkpt><trkpt lat="44.513986" lon="10.8677167"><ele>173.33333333333334</ele><time>2026-05-03T08:04:37.572Z</time></trkpt><trkpt lat="44.5138982" lon="10.8677189"><ele>173.66666666666666</ele><time>2026-05-03T08:04:38.571Z</time></trkpt><trkpt lat="44.5137998" lon="10.8677196"><ele>174.0</ele><time>2026-05-03T08:04:39.57Z</time></trkpt><trkpt lat="44.5137018" lon="10.8677117"><ele>174.6</ele><time>2026-05-03T08:04:40.575Z</time></trkpt><trkpt lat="44.513607" lon="10.8676783"><ele>175.2</ele><time>2026-05-03T08:04:41.571Z</time></trkpt><trkpt lat="44.5135133" lon="10.8676196"><ele>175.79999999999998</ele><time>2026-05-03T08:04:42.56Z</time></trkpt><trkpt lat="44.5134269" lon="10.867542"><ele>176.39999999999998</ele><time>2026-05-03T08:04:43.559Z</time></trkpt><trkpt lat="44.5133377" lon="10.8674641"><ele>177.0</ele><time>2026-05-03T08:04:44.561Z</time></trkpt><trkpt lat="44.5132516" lon="10.8673931"><ele>177.8</ele><time>2026-05-03T08:04:45.559Z</time></trkpt><trkpt lat="44.5131703" lon="10.8673273"><ele>178.6</ele><time>2026-05-03T08:04:46.562Z</time></trkpt><trkpt lat="44.5130863" lon="10.8672691"><ele>179.4</ele><time>2026-05-03T08:04:47.565Z</time></trkpt><trkpt lat="44.5129982" lon="10.8672094"><ele>180.20000000000002</ele><time>2026-05-03T08:04:48.567Z</time></trkpt><trkpt lat="44.5129049" lon="10.8671454"><ele>181.0</ele><time>2026-05-03T08:04:49.573Z</time></trkpt><trkpt lat="44.51281" lon="10.8670771"><ele>182.20000000000002</ele><time>2026-05-03T08:04:50.567Z</time></trkpt><trkpt lat="44.5127148" lon="10.8670137"><ele>183.4</ele><time>2026-05-03T08:04:51.57Z</time></trkpt><trkpt lat="44.5126233" lon="10.8669458"><ele>184.6</ele><time>2026-05-03T08:04:52.566Z</time></trkpt><trkpt lat="44.5125297" lon="10.8668852"><ele>185.8</ele><time>2026-05-03T08:04:53.562Z</time></trkpt><trkpt lat="44.5124419" lon="10.8668264"><ele>187.0</ele><time>2026-05-03T08:04:54.562Z</time></trkpt><trkpt lat="44.5123654" lon="10.8667673"><ele>187.0</ele><time>2026-05-03T08:04:55.564Z</time></trkpt><trkpt lat="44.512303" lon="10.8667165"><ele>187.0</ele><time>2026-05-03T08:04:56.561Z</time></trkpt><trkpt lat="44.5121887" lon="10.8667172"><ele>187.0</ele><time>2026-05-03T08:04:58.558Z</time></trkpt><trkpt lat="44.5121335" lon="10.8667864"><ele>187.0</ele><time>2026-05-03T08:04:59.556Z</time></trkpt><trkpt lat="44.5120871" lon="10.8668898"><ele>187.0</ele><time>2026-05-03T08:05:00.55Z</time></trkpt><trkpt lat="44.5120266" lon="10.8669912"><ele>187.0</ele><time>2026-05-03T08:05:01.552Z</time></trkpt><trkpt lat="44.5119652" lon="10.8671036"><ele>189.2</ele><time>2026-05-03T08:05:02.552Z</time></trkpt><trkpt lat="44.5119043" lon="10.8672065"><ele>191.39999999999998</ele><time>2026-05-03T08:05:03.556Z</time></trkpt><trkpt lat="44.5118463" lon="10.8672635"><ele>193.60000000000002</ele><time>2026-05-03T08:05:04.577Z</time></trkpt><trkpt lat="44.5117335" lon="10.8672124"><ele>195.8</ele><time>2026-05-03T08:05:06.557Z</time></trkpt><trkpt lat="44.5116688" lon="10.8671297"><ele>198.0</ele><time>2026-05-03T08:05:07.555Z</time></trkpt><trkpt lat="44.5116056" lon="10.8670413"><ele>198.0</ele><time>2026-05-03T08:05:08.555Z</time></trkpt><trkpt lat="44.5115412" lon="10.8669433"><ele>198.0</ele><time>2026-05-03T08:05:09.555Z</time></trkpt><trkpt lat="44.5114801" lon="10.8668515"><ele>198.0</ele><time>2026-05-03T08:05:10.56Z</time></trkpt><trkpt lat="44.5114198" lon="10.8667567"><ele>198.0</ele><time>2026-05-03T08:05:11.557Z</time></trkpt><trkpt lat="44.5113705" lon="10.8666756"><ele>198.0</ele><time>2026-05-03T08:05:12.556Z</time></trkpt><trkpt lat="44.5112854" lon="10.8665858"><ele>199.8</ele><time>2026-05-03T08:05:14.561Z</time></trkpt><trkpt lat="44.5111845" lon="10.8665984"><ele>201.60000000000002</ele><time>2026-05-03T08:05:16.561Z</time></trkpt><trkpt lat="44.5111353" lon="10.866668"><ele>203.39999999999998</ele><time>2026-05-03T08:05:17.556Z</time></trkpt><trkpt lat="44.5110864" lon="10.8667694"><ele>205.2</ele><time>2026-05-03T08:05:18.55Z</time></trkpt><trkpt lat="44.5110315" lon="10.8668752"><ele>207.0</ele><time>2026-05-03T08:05:19.556Z</time></trkpt><trkpt lat="44.5109698" lon="10.8669827"><ele>207.0</ele><time>2026-05-03T08:05:20.559Z</time></trkpt><trkpt lat="44.510905" lon="10.8670847"><ele>207.0</ele><time>2026-05-03T08:05:21.563Z</time></trkpt><trkpt lat="44.5108394" lon="10.8671962"><ele>207.0</ele><time>2026-05-03T08:05:22.558Z</time></trkpt><trkpt lat="44.5107688" lon="10.8673073"><ele>207.0</ele><time>2026-05-03T08:05:23.562Z</time></trkpt><trkpt lat="44.5106943" lon="10.8674217"><ele>207.0</ele><time>2026-05-03T08:05:24.559Z</time></trkpt><trkpt lat="44.5106152" lon="10.8675361"><ele>207.39999999999998</ele><time>2026-05-03T08:05:25.56Z</time></trkpt><trkpt lat="44.5105325" lon="10.8676515"><ele>207.79999999999998</ele><time>2026-05-03T08:05:26.56Z</time></trkpt><trkpt lat="44.5104535" lon="10.8677582"><ele>208.2</ele><time>2026-05-03T08:05:27.559Z</time></trkpt><trkpt lat="44.5103819" lon="10.8678591"><ele>208.6</ele><time>2026-05-03T08:05:28.561Z</time></trkpt><trkpt lat="44.5103057" lon="10.867967"><ele>209.0</ele><time>2026-05-03T08:05:29.556Z</time></trkpt><trkpt lat="44.5102309" lon="10.8680766"><ele>209.0</ele><time>2026-05-03T08:05:30.558Z</time></trkpt><trkpt lat="44.5101552" lon="10.8681911"><ele>209.0</ele><time>2026-05-03T08:05:31.56Z</time></trkpt><trkpt lat="44.5100806" lon="10.8683048"><ele>209.0</ele><time>2026-05-03T08:05:32.557Z</time></trkpt><trkpt lat="44.5100104" lon="10.8684086"><ele>209.0</ele><time>2026-05-03T08:05:33.554Z</time></trkpt><trkpt lat="44.5099505" lon="10.8684981"><ele>209.0</ele><time>2026-05-03T08:05:34.549Z</time></trkpt><trkpt lat="44.5099033" lon="10.8685636"><ele>209.0</ele><time>2026-05-03T08:05:35.576Z</time></trkpt><trkpt lat="44.5098313" lon="10.8686056"><ele>209.0</ele><time>2026-05-03T08:05:38.554Z</time></trkpt><trkpt lat="44.5097896" lon="10.8685072"><ele>209.0</ele><time>2026-05-03T08:05:42.552Z</time></trkpt><trkpt lat="44.5097474" lon="10.8683679"><ele>209.0</ele><time>2026-05-03T08:05:44.554Z</time></trkpt><trkpt lat="44.5097183" lon="10.8682271"><ele>209.0</ele><time>2026-05-03T08:05:46.545Z</time></trkpt><trkpt lat="44.5097444" lon="10.8680763"><ele>209.0</ele><time>2026-05-03T08:05:48.545Z</time></trkpt><trkpt lat="44.5097547" lon="10.8679887"><ele>209.0</ele><time>2026-05-03T08:05:49.555Z</time></trkpt><trkpt lat="44.5097703" lon="10.8678846"><ele>209.0</ele><time>2026-05-03T08:05:50.548Z</time></trkpt><trkpt lat="44.5097912" lon="10.8677829"><ele>209.0</ele><time>2026-05-03T08:05:51.551Z</time></trkpt><trkpt lat="44.5098084" lon="10.8676732"><ele>209.0</ele><time>2026-05-03T08:05:52.552Z</time></trkpt><trkpt lat="44.5098331" lon="10.8675803"><ele>209.0</ele><time>2026-05-03T08:05:53.553Z</time></trkpt><trkpt lat="44.5098633" lon="10.8674845"><ele>209.0</ele><time>2026-05-03T08:05:54.552Z</time></trkpt><trkpt lat="44.5099021" lon="10.8673939"><ele>211.00000000000003</ele><time>2026-05-03T08:05:55.557Z</time></trkpt><trkpt lat="44.5099308" lon="10.8672897"><ele>213.0</ele><time>2026-05-03T08:05:56.561Z</time></trkpt><trkpt lat="44.5099596" lon="10.8671755"><ele>215.0</ele><time>2026-05-03T08:05:57.563Z</time></trkpt><trkpt lat="44.509978" lon="10.8670596"><ele>217.0</ele><time>2026-05-03T08:05:58.559Z</time></trkpt><trkpt lat="44.5099896" lon="10.866944"><ele>219.00000000000003</ele><time>2026-05-03T08:05:59.556Z</time></trkpt><trkpt lat="44.5099909" lon="10.8668255"><ele>221.0</ele><time>2026-05-03T08:06:00.558Z</time></trkpt><trkpt lat="44.5099802" lon="10.8666959"><ele>223.0</ele><time>2026-05-03T08:06:01.562Z</time></trkpt><trkpt lat="44.5099699" lon="10.8665544"><ele>225.00000000000003</ele><time>2026-05-03T08:06:02.561Z</time></trkpt><trkpt lat="44.5099631" lon="10.866417"><ele>227.00000000000003</ele><time>2026-05-03T08:06:03.559Z</time></trkpt><trkpt lat="44.5099586" lon="10.8662984"><ele>229.0</ele><time>2026-05-03T08:06:04.559Z</time></trkpt><trkpt lat="44.5099536" lon="10.8661859"><ele>231.0</ele><time>2026-05-03T08:06:05.56Z</time></trkpt><trkpt lat="44.5099447" lon="10.8660583"><ele>232.8</ele><time>2026-05-03T08:06:06.576Z</time></trkpt><trkpt lat="44.5099409" lon="10.865931"><ele>234.60000000000002</ele><time>2026-05-03T08:06:07.559Z</time></trkpt><trkpt lat="44.5099386" lon="10.8657952"><ele>236.4</ele><time>2026-05-03T08:06:08.562Z</time></trkpt><trkpt lat="44.5099334" lon="10.8656477"><ele>238.2</ele><time>2026-05-03T08:06:09.561Z</time></trkpt><trkpt lat="44.5099248" lon="10.8654993"><ele>240.0</ele><time>2026-05-03T08:06:10.56Z</time></trkpt><trkpt lat="44.5099237" lon="10.8653534"><ele>240.0</ele><time>2026-05-03T08:06:11.565Z</time></trkpt><trkpt lat="44.5099239" lon="10.8652098"><ele>240.0</ele><time>2026-05-03T08:06:12.56Z</time></trkpt><trkpt lat="44.5099115" lon="10.8650676"><ele>240.0</ele><time>2026-05-03T08:06:13.566Z</time></trkpt><trkpt lat="44.5098886" lon="10.8649407"><ele>240.0</ele><time>2026-05-03T08:06:14.558Z</time></trkpt><trkpt lat="44.509852" lon="10.8648273"><ele>240.0</ele><time>2026-05-03T08:06:15.557Z</time></trkpt><trkpt lat="44.5098038" lon="10.8647217"><ele>241.0</ele><time>2026-05-03T08:06:16.554Z</time></trkpt><trkpt lat="44.5097477" lon="10.8646157"><ele>242.0</ele><time>2026-05-03T08:06:17.561Z</time></trkpt><trkpt lat="44.5096809" lon="10.8645173"><ele>243.0</ele><time>2026-05-03T08:06:18.557Z</time></trkpt><trkpt lat="44.5096211" lon="10.8644351"><ele>244.0</ele><time>2026-05-03T08:06:19.554Z</time></trkpt><trkpt lat="44.5095677" lon="10.8643684"><ele>245.0</ele><time>2026-05-03T08:06:20.559Z</time></trkpt><trkpt lat="44.5095135" lon="10.8642865"><ele>246.0</ele><time>2026-05-03T08:06:22.563Z</time></trkpt><trkpt lat="44.5094469" lon="10.8642297"><ele>247.83333333333334</ele><time>2026-05-03T08:07:03.562Z</time></trkpt><trkpt lat="44.5093803" lon="10.8642339"><ele>249.66666666666669</ele><time>2026-05-03T08:07:05.563Z</time></trkpt><trkpt lat="44.5092802" lon="10.8641477"><ele>251.5</ele><time>2026-05-03T08:07:07.562Z</time></trkpt><trkpt lat="44.5092356" lon="10.8640497"><ele>253.33333333333334</ele><time>2026-05-03T08:07:08.579Z</time></trkpt><trkpt lat="44.5091892" lon="10.8639415"><ele>255.16666666666669</ele><time>2026-05-03T08:07:09.553Z</time></trkpt><trkpt lat="44.5091401" lon="10.8638332"><ele>257.0</ele><time>2026-05-03T08:07:10.561Z</time></trkpt><trkpt lat="44.5090826" lon="10.8637061"><ele>257.0</ele><time>2026-05-03T08:07:11.552Z</time></trkpt><trkpt lat="44.5090215" lon="10.8635719"><ele>257.0</ele><time>2026-05-03T08:07:12.552Z</time></trkpt><trkpt lat="44.508957" lon="10.8634306"><ele>257.0</ele><time>2026-05-03T08:07:13.548Z</time></trkpt><trkpt lat="44.5088908" lon="10.8632718"><ele>257.0</ele><time>2026-05-03T08:07:14.55Z</time></trkpt><trkpt lat="44.5088247" lon="10.8631031"><ele>256.5</ele><time>2026-05-03T08:07:15.551Z</time></trkpt><trkpt lat="44.508754" lon="10.862942"><ele>256.0</ele><time>2026-05-03T08:07:16.551Z</time></trkpt><trkpt lat="44.5086842" lon="10.862782"><ele>255.5</ele><time>2026-05-03T08:07:17.543Z</time></trkpt><trkpt lat="44.5086045" lon="10.8626076"><ele>255.0</ele><time>2026-05-03T08:07:18.541Z</time></trkpt><trkpt lat="44.5085187" lon="10.8624243"><ele>257.0</ele><time>2026-05-03T08:07:19.548Z</time></trkpt><trkpt lat="44.5084256" lon="10.8622233"><ele>259.0</ele><time>2026-05-03T08:07:20.547Z</time></trkpt><trkpt lat="44.5083449" lon="10.8620159"><ele>261.0</ele><time>2026-05-03T08:07:21.539Z</time></trkpt><trkpt lat="44.5082857" lon="10.8617856"><ele>263.3333333333333</ele><time>2026-05-03T08:07:22.544Z</time></trkpt><trkpt lat="44.5082349" lon="10.8615705"><ele>265.66666666666663</ele><time>2026-05-03T08:07:23.54Z</time></trkpt><trkpt lat="44.5081469" lon="10.8613855"><ele>268.0</ele><time>2026-05-03T08:07:24.537Z</time></trkpt><trkpt lat="44.5080406" lon="10.8612316"><ele>268.0</ele><time>2026-05-03T08:07:25.538Z</time></trkpt><trkpt lat="44.5079321" lon="10.8611082"><ele>268.0</ele><time>2026-05-03T08:07:26.54Z</time></trkpt><trkpt lat="44.5078133" lon="10.8610102"><ele>268.0</ele><time>2026-05-03T08:07:27.543Z</time></trkpt><trkpt lat="44.5076747" lon="10.8609408"><ele>268.0</ele><time>2026-05-03T08:07:28.546Z</time></trkpt><trkpt lat="44.5075196" lon="10.8609147"><ele>267.5</ele><time>2026-05-03T08:07:29.549Z</time></trkpt><trkpt lat="44.5073653" lon="10.8608909"><ele>267.0</ele><time>2026-05-03T08:07:30.55Z</time></trkpt><trkpt lat="44.5072319" lon="10.8608487"><ele>266.5</ele><time>2026-05-03T08:07:31.557Z</time></trkpt><trkpt lat="44.5071064" lon="10.8608096"><ele>266.0</ele><time>2026-05-03T08:07:32.553Z</time></trkpt><trkpt lat="44.5069831" lon="10.8607712"><ele>263.75</ele><time>2026-05-03T08:07:33.56Z</time></trkpt><trkpt lat="44.5068814" lon="10.8607109"><ele>261.5</ele><time>2026-05-03T08:07:34.551Z</time></trkpt><trkpt lat="44.5067896" lon="10.860623"><ele>259.25</ele><time>2026-05-03T08:07:35.56Z</time></trkpt><trkpt lat="44.5067013" lon="10.8604997"><ele>257.0</ele><time>2026-05-03T08:07:36.554Z</time></trkpt><trkpt lat="44.5066299" lon="10.8603462"><ele>257.0</ele><time>2026-05-03T08:07:37.554Z</time></trkpt><trkpt lat="44.5065672" lon="10.8601861"><ele>257.0</ele><time>2026-05-03T08:07:38.554Z</time></trkpt><trkpt lat="44.5065041" lon="10.8600245"><ele>257.0</ele><time>2026-05-03T08:07:39.575Z</time></trkpt><trkpt lat="44.5064417" lon="10.8598533"><ele>257.0</ele><time>2026-05-03T08:07:40.556Z</time></trkpt><trkpt lat="44.5063849" lon="10.859682"><ele>257.6666666666667</ele><time>2026-05-03T08:07:41.551Z</time></trkpt><trkpt lat="44.506322" lon="10.8594931"><ele>258.3333333333333</ele><time>2026-05-03T08:07:42.545Z</time></trkpt><trkpt lat="44.5062371" lon="10.8593124"><ele>259.0</ele><time>2026-05-03T08:07:43.561Z</time></trkpt><trkpt lat="44.5061171" lon="10.8591659"><ele>259.0</ele><time>2026-05-03T08:07:44.559Z</time></trkpt><trkpt lat="44.5059699" lon="10.8590742"><ele>259.0</ele><time>2026-05-03T08:07:45.558Z</time></trkpt><trkpt lat="44.5058085" lon="10.8589982"><ele>259.0</ele><time>2026-05-03T08:07:46.552Z</time></trkpt><trkpt lat="44.5056423" lon="10.8589427"><ele>259.0</ele><time>2026-05-03T08:07:47.559Z</time></trkpt><trkpt lat="44.5054776" lon="10.8588929"><ele>259.0</ele><time>2026-05-03T08:07:48.562Z</time></trkpt><trkpt lat="44.5053331" lon="10.8588409"><ele>259.0</ele><time>2026-05-03T08:07:49.566Z</time></trkpt><trkpt lat="44.5052036" lon="10.8587969"><ele>259.25</ele><time>2026-05-03T08:07:50.562Z</time></trkpt><trkpt lat="44.5050704" lon="10.8587467"><ele>259.5</ele><time>2026-05-03T08:07:51.561Z</time></trkpt><trkpt lat="44.5049334" lon="10.8587118"><ele>259.75</ele><time>2026-05-03T08:07:52.559Z</time></trkpt><trkpt lat="44.504795" lon="10.858673"><ele>260.0</ele><time>2026-05-03T08:07:53.562Z</time></trkpt><trkpt lat="44.5046714" lon="10.8586366"><ele>260.0</ele><time>2026-05-03T08:07:54.559Z</time></trkpt><trkpt lat="44.5045525" lon="10.8585902"><ele>260.0</ele><time>2026-05-03T08:07:55.558Z</time></trkpt><trkpt lat="44.5044343" lon="10.8585413"><ele>260.0</ele><time>2026-05-03T08:07:56.559Z</time></trkpt><trkpt lat="44.5043054" lon="10.8584834"><ele>260.0</ele><time>2026-05-03T08:07:57.565Z</time></trkpt><trkpt lat="44.5041799" lon="10.8584163"><ele>260.0</ele><time>2026-05-03T08:07:58.565Z</time></trkpt><trkpt lat="44.5040542" lon="10.8583499"><ele>260.0</ele><time>2026-05-03T08:07:59.563Z</time></trkpt><trkpt lat="44.5039327" lon="10.8582812"><ele>260.0</ele><time>2026-05-03T08:08:00.567Z</time></trkpt><trkpt lat="44.5038109" lon="10.8582036"><ele>260.0</ele><time>2026-05-03T08:08:01.565Z</time></trkpt><trkpt lat="44.5036901" lon="10.8581284"><ele>260.0</ele><time>2026-05-03T08:08:02.563Z</time></trkpt><trkpt lat="44.503568" lon="10.8580617"><ele>260.0</ele><time>2026-05-03T08:08:03.563Z</time></trkpt><trkpt lat="44.5034419" lon="10.8579864"><ele>260.0</ele><time>2026-05-03T08:08:04.562Z</time></trkpt><trkpt lat="44.5033083" lon="10.8579155"><ele>260.0</ele><time>2026-05-03T08:08:05.562Z</time></trkpt><trkpt lat="44.5031761" lon="10.8578417"><ele>260.0</ele><time>2026-05-03T08:08:06.563Z</time></trkpt><trkpt lat="44.5030424" lon="10.8577618"><ele>260.0</ele><time>2026-05-03T08:08:07.565Z</time></trkpt><trkpt lat="44.502911" lon="10.8576915"><ele>260.0</ele><time>2026-05-03T08:08:08.563Z</time></trkpt><trkpt lat="44.5027771" lon="10.8576127"><ele>260.0</ele><time>2026-05-03T08:08:09.561Z</time></trkpt><trkpt lat="44.5026456" lon="10.8575031"><ele>260.0</ele><time>2026-05-03T08:08:10.58Z</time></trkpt><trkpt lat="44.5025089" lon="10.8573908"><ele>260.0</ele><time>2026-05-03T08:08:11.563Z</time></trkpt><trkpt lat="44.5023696" lon="10.8572758"><ele>260.0</ele><time>2026-05-03T08:08:12.563Z</time></trkpt><trkpt lat="44.5022317" lon="10.8571625"><ele>260.0</ele><time>2026-05-03T08:08:13.561Z</time></trkpt><trkpt lat="44.5020957" lon="10.8570436"><ele>260.0</ele><time>2026-05-03T08:08:14.562Z</time></trkpt><trkpt lat="44.5019522" lon="10.8569381"><ele>260.0</ele><time>2026-05-03T08:08:15.56Z</time></trkpt><trkpt lat="44.5018028" lon="10.8568671"><ele>258.33333333333337</ele><time>2026-05-03T08:08:16.566Z</time></trkpt><trkpt lat="44.5016524" lon="10.8568259"><ele>256.6666666666667</ele><time>2026-05-03T08:08:17.559Z</time></trkpt><trkpt lat="44.5014993" lon="10.8567955"><ele>255.0</ele><time>2026-05-03T08:08:18.562Z</time></trkpt><trkpt lat="44.5013455" lon="10.8567608"><ele>256.25</ele><time>2026-05-03T08:08:19.565Z</time></trkpt><trkpt lat="44.5011958" lon="10.8567334"><ele>257.5</ele><time>2026-05-03T08:08:20.565Z</time></trkpt><trkpt lat="44.5010507" lon="10.8567016"><ele>258.75</ele><time>2026-05-03T08:08:21.565Z</time></trkpt><trkpt lat="44.5009074" lon="10.8566615"><ele>260.0</ele><time>2026-05-03T08:08:22.565Z</time></trkpt><trkpt lat="44.500776" lon="10.8566254"><ele>260.0</ele><time>2026-05-03T08:08:23.563Z</time></trkpt><trkpt lat="44.500648" lon="10.8565839"><ele>260.0</ele><time>2026-05-03T08:08:24.561Z</time></trkpt><trkpt lat="44.5005155" lon="10.856545"><ele>260.0</ele><time>2026-05-03T08:08:25.563Z</time></trkpt><trkpt lat="44.5003789" lon="10.8564903"><ele>260.0</ele><time>2026-05-03T08:08:26.56Z</time></trkpt><trkpt lat="44.5002464" lon="10.8564341"><ele>262.5</ele><time>2026-05-03T08:08:27.562Z</time></trkpt><trkpt lat="44.5001152" lon="10.856377"><ele>265.0</ele><time>2026-05-03T08:08:28.565Z</time></trkpt><trkpt lat="44.4999829" lon="10.8563211"><ele>267.5</ele><time>2026-05-03T08:08:29.558Z</time></trkpt><trkpt lat="44.499851" lon="10.8562871"><ele>270.0</ele><time>2026-05-03T08:08:30.559Z</time></trkpt><trkpt lat="44.4997185" lon="10.8562776"><ele>272.0</ele><time>2026-05-03T08:08:31.565Z</time></trkpt><trkpt lat="44.4995797" lon="10.8563117"><ele>274.0</ele><time>2026-05-03T08:08:32.558Z</time></trkpt><trkpt lat="44.4994405" lon="10.8563508"><ele>276.0</ele><time>2026-05-03T08:08:33.559Z</time></trkpt><trkpt lat="44.4992958" lon="10.8564007"><ele>278.0</ele><time>2026-05-03T08:08:34.56Z</time></trkpt><trkpt lat="44.499151" lon="10.8564479"><ele>278.0</ele><time>2026-05-03T08:08:35.555Z</time></trkpt><trkpt lat="44.4990089" lon="10.8564796"><ele>278.0</ele><time>2026-05-03T08:08:36.553Z</time></trkpt><trkpt lat="44.4988617" lon="10.8565006"><ele>278.0</ele><time>2026-05-03T08:08:37.549Z</time></trkpt><trkpt lat="44.4987077" lon="10.8565258"><ele>278.0</ele><time>2026-05-03T08:08:38.552Z</time></trkpt><trkpt lat="44.4985526" lon="10.8565334"><ele>279.0</ele><time>2026-05-03T08:08:39.554Z</time></trkpt><trkpt lat="44.4984054" lon="10.8565355"><ele>280.0</ele><time>2026-05-03T08:08:40.551Z</time></trkpt><trkpt lat="44.4982733" lon="10.8565364"><ele>281.0</ele><time>2026-05-03T08:08:41.571Z</time></trkpt><trkpt lat="44.4981476" lon="10.8565245"><ele>282.0</ele><time>2026-05-03T08:08:42.553Z</time></trkpt><trkpt lat="44.4980318" lon="10.8565037"><ele>282.0</ele><time>2026-05-03T08:08:43.557Z</time></trkpt><trkpt lat="44.4979205" lon="10.8564918"><ele>282.0</ele><time>2026-05-03T08:08:44.556Z</time></trkpt><trkpt lat="44.497806" lon="10.8564686"><ele>282.0</ele><time>2026-05-03T08:08:45.556Z</time></trkpt><trkpt lat="44.4976888" lon="10.8564507"><ele>282.0</ele><time>2026-05-03T08:08:46.558Z</time></trkpt><trkpt lat="44.4975824" lon="10.8564264"><ele>282.0</ele><time>2026-05-03T08:08:47.564Z</time></trkpt><trkpt lat="44.497466" lon="10.856402"><ele>282.0</ele><time>2026-05-03T08:08:48.557Z</time></trkpt><trkpt lat="44.4973586" lon="10.8563667"><ele>282.0</ele><time>2026-05-03T08:08:49.557Z</time></trkpt><trkpt lat="44.4972556" lon="10.8563241"><ele>282.0</ele><time>2026-05-03T08:08:50.542Z</time></trkpt><trkpt lat="44.497155" lon="10.8562748"><ele>282.0</ele><time>2026-05-03T08:08:51.543Z</time></trkpt><trkpt lat="44.4970605" lon="10.8562093"><ele>281.0</ele><time>2026-05-03T08:08:52.541Z</time></trkpt><trkpt lat="44.4969733" lon="10.8561046"><ele>280.0</ele><time>2026-05-03T08:08:53.552Z</time></trkpt><trkpt lat="44.4969006" lon="10.8559697"><ele>279.0</ele><time>2026-05-03T08:08:54.547Z</time></trkpt><trkpt lat="44.4968419" lon="10.855826"><ele>278.0</ele><time>2026-05-03T08:08:55.556Z</time></trkpt><trkpt lat="44.4967944" lon="10.8556825"><ele>278.0</ele><time>2026-05-03T08:08:56.557Z</time></trkpt><trkpt lat="44.496752" lon="10.8555464"><ele>278.0</ele><time>2026-05-03T08:08:57.559Z</time></trkpt><trkpt lat="44.4967085" lon="10.855425"><ele>278.0</ele><time>2026-05-03T08:08:58.562Z</time></trkpt><trkpt lat="44.4966614" lon="10.8553057"><ele>278.0</ele><time>2026-05-03T08:08:59.56Z</time></trkpt><trkpt lat="44.4966066" lon="10.8551841"><ele>278.0</ele><time>2026-05-03T08:09:00.56Z</time></trkpt><trkpt lat="44.4965492" lon="10.8550647"><ele>277.4</ele><time>2026-05-03T08:09:01.558Z</time></trkpt><trkpt lat="44.4964871" lon="10.8549404"><ele>276.8</ele><time>2026-05-03T08:09:02.562Z</time></trkpt><trkpt lat="44.4964241" lon="10.8548312"><ele>276.2</ele><time>2026-05-03T08:09:03.56Z</time></trkpt><trkpt lat="44.4963626" lon="10.854739"><ele>275.6</ele><time>2026-05-03T08:09:04.553Z</time></trkpt><trkpt lat="44.4963077" lon="10.854657"><ele>275.0</ele><time>2026-05-03T08:09:05.555Z</time></trkpt><trkpt lat="44.4962584" lon="10.8545792"><ele>275.1666666666667</ele><time>2026-05-03T08:09:06.561Z</time></trkpt><trkpt lat="44.4962118" lon="10.8545182"><ele>275.33333333333337</ele><time>2026-05-03T08:09:07.556Z</time></trkpt><trkpt lat="44.4961669" lon="10.8544536"><ele>275.5</ele><time>2026-05-03T08:09:08.559Z</time></trkpt><trkpt lat="44.4960831" lon="10.8543294"><ele>275.6666666666667</ele><time>2026-05-03T08:09:10.561Z</time></trkpt><trkpt lat="44.4960404" lon="10.8542625"><ele>275.8333333333333</ele><time>2026-05-03T08:09:11.557Z</time></trkpt><trkpt lat="44.4959948" lon="10.8541871"><ele>276.0</ele><time>2026-05-03T08:09:12.573Z</time></trkpt><trkpt lat="44.4959499" lon="10.8541003"><ele>277.0</ele><time>2026-05-03T08:09:13.558Z</time></trkpt><trkpt lat="44.4959061" lon="10.8540087"><ele>278.0</ele><time>2026-05-03T08:09:14.549Z</time></trkpt><trkpt lat="44.4958611" lon="10.8539238"><ele>279.0</ele><time>2026-05-03T08:09:15.561Z</time></trkpt><trkpt lat="44.4958266" lon="10.8538487"><ele>280.0</ele><time>2026-05-03T08:09:16.552Z</time></trkpt><trkpt lat="44.4957901" lon="10.8537674"><ele>281.0</ele><time>2026-05-03T08:09:18.559Z</time></trkpt><trkpt lat="44.4957672" lon="10.8536826"><ele>282.0</ele><time>2026-05-03T08:10:57.555Z</time></trkpt><trkpt lat="44.495791" lon="10.8537979"><ele>283.0</ele><time>2026-05-03T08:11:13.556Z</time></trkpt><trkpt lat="44.4958488" lon="10.8539255"><ele>283.0</ele><time>2026-05-03T08:11:15.579Z</time></trkpt><trkpt lat="44.4959141" lon="10.854052"><ele>283.0</ele><time>2026-05-03T08:11:17.56Z</time></trkpt><trkpt lat="44.4959839" lon="10.8541751"><ele>283.0</ele><time>2026-05-03T08:11:19.564Z</time></trkpt><trkpt lat="44.4960533" lon="10.8542899"><ele>283.0</ele><time>2026-05-03T08:11:21.562Z</time></trkpt><trkpt lat="44.496103" lon="10.8544085"><ele>283.0</ele><time>2026-05-03T08:11:23.562Z</time></trkpt><trkpt lat="44.4961389" lon="10.8545005"><ele>281.8333333333333</ele><time>2026-05-03T08:11:25.563Z</time></trkpt><trkpt lat="44.4961937" lon="10.8545793"><ele>280.66666666666663</ele><time>2026-05-03T08:11:28.564Z</time></trkpt><trkpt lat="44.4962589" lon="10.8546378"><ele>279.5</ele><time>2026-05-03T08:15:46.553Z</time></trkpt><trkpt lat="44.4962432" lon="10.8547346"><ele>278.3333333333333</ele><time>2026-05-03T08:15:49.548Z</time></trkpt><trkpt lat="44.4961546" lon="10.8548018"><ele>277.1666666666667</ele><time>2026-05-03T08:15:52.545Z</time></trkpt><trkpt lat="44.4960811" lon="10.8548481"><ele>276.0</ele><time>2026-05-03T08:15:55.547Z</time></trkpt><trkpt lat="44.4959882" lon="10.8548882"><ele>276.0</ele><time>2026-05-03T08:16:26.55Z</time></trkpt><trkpt lat="44.4959222" lon="10.8548995"><ele>276.0</ele><time>2026-05-03T08:16:27.551Z</time></trkpt><trkpt lat="44.4958385" lon="10.8549081"><ele>276.0</ele><time>2026-05-03T08:16:28.547Z</time></trkpt><trkpt lat="44.4957457" lon="10.8549053"><ele>276.0</ele><time>2026-05-03T08:16:29.541Z</time></trkpt><trkpt lat="44.4956418" lon="10.8548886"><ele>276.0</ele><time>2026-05-03T08:16:30.542Z</time></trkpt><trkpt lat="44.4955288" lon="10.8548648"><ele>273.25</ele><time>2026-05-03T08:16:31.547Z</time></trkpt><trkpt lat="44.4954164" lon="10.8548384"><ele>270.5</ele><time>2026-05-03T08:16:32.542Z</time></trkpt><trkpt lat="44.4952937" lon="10.8548012"><ele>267.75</ele><time>2026-05-03T08:16:33.546Z</time></trkpt><trkpt lat="44.4951724" lon="10.8547682"><ele>265.0</ele><time>2026-05-03T08:16:34.548Z</time></trkpt><trkpt lat="44.4950567" lon="10.8547487"><ele>265.0</ele><time>2026-05-03T08:16:35.549Z</time></trkpt><trkpt lat="44.4949457" lon="10.8547636"><ele>265.0</ele><time>2026-05-03T08:16:36.546Z</time></trkpt><trkpt lat="44.4948366" lon="10.8548159"><ele>265.0</ele><time>2026-05-03T08:16:37.541Z</time></trkpt><trkpt lat="44.4947276" lon="10.8548857"><ele>265.0</ele><time>2026-05-03T08:16:38.545Z</time></trkpt><trkpt lat="44.4946157" lon="10.8549611"><ele>265.75</ele><time>2026-05-03T08:16:39.546Z</time></trkpt><trkpt lat="44.494491" lon="10.8550309"><ele>266.5</ele><time>2026-05-03T08:16:40.546Z</time></trkpt><trkpt lat="44.4943619" lon="10.8550979"><ele>267.25</ele><time>2026-05-03T08:16:41.546Z</time></trkpt><trkpt lat="44.4942469" lon="10.8551714"><ele>268.0</ele><time>2026-05-03T08:16:42.544Z</time></trkpt><trkpt lat="44.4941419" lon="10.8552586"><ele>269.25</ele><time>2026-05-03T08:16:43.55Z</time></trkpt><trkpt lat="44.494037" lon="10.8553648"><ele>270.5</ele><time>2026-05-03T08:16:44.55Z</time></trkpt><trkpt lat="44.4939313" lon="10.8554875"><ele>271.75</ele><time>2026-05-03T08:16:45.554Z</time></trkpt><trkpt lat="44.4938237" lon="10.8556107"><ele>273.0</ele><time>2026-05-03T08:16:46.553Z</time></trkpt><trkpt lat="44.4937212" lon="10.855739"><ele>273.0</ele><time>2026-05-03T08:16:47.555Z</time></trkpt><trkpt lat="44.4936132" lon="10.855857"><ele>273.0</ele><time>2026-05-03T08:16:48.554Z</time></trkpt><trkpt lat="44.4935149" lon="10.8559867"><ele>273.0</ele><time>2026-05-03T08:16:49.552Z</time></trkpt><trkpt lat="44.4934351" lon="10.8560969"><ele>273.0</ele><time>2026-05-03T08:16:50.548Z</time></trkpt><trkpt lat="44.4933761" lon="10.8561955"><ele>271.4</ele><time>2026-05-03T08:16:51.547Z</time></trkpt><trkpt lat="44.493348" lon="10.8562911"><ele>269.8</ele><time>2026-05-03T08:16:52.545Z</time></trkpt><trkpt lat="44.4933543" lon="10.8564012"><ele>268.2</ele><time>2026-05-03T08:16:53.554Z</time></trkpt><trkpt lat="44.493378" lon="10.8565374"><ele>266.6</ele><time>2026-05-03T08:16:54.545Z</time></trkpt><trkpt lat="44.493424" lon="10.8566872"><ele>265.0</ele><time>2026-05-03T08:16:55.556Z</time></trkpt><trkpt lat="44.4934848" lon="10.8568425"><ele>263.0</ele><time>2026-05-03T08:16:56.566Z</time></trkpt><trkpt lat="44.49356" lon="10.8569995"><ele>261.0</ele><time>2026-05-03T08:16:57.551Z</time></trkpt><trkpt lat="44.4936418" lon="10.8571713"><ele>259.0</ele><time>2026-05-03T08:16:58.554Z</time></trkpt><trkpt lat="44.4937241" lon="10.8573564"><ele>257.0</ele><time>2026-05-03T08:16:59.554Z</time></trkpt><trkpt lat="44.4937904" lon="10.8575374"><ele>252.25</ele><time>2026-05-03T08:17:00.553Z</time></trkpt><trkpt lat="44.4938437" lon="10.8577157"><ele>247.5</ele><time>2026-05-03T08:17:01.56Z</time></trkpt><trkpt lat="44.4938865" lon="10.8578897"><ele>242.75</ele><time>2026-05-03T08:17:02.553Z</time></trkpt><trkpt lat="44.4939231" lon="10.8580544"><ele>238.0</ele><time>2026-05-03T08:17:03.553Z</time></trkpt><trkpt lat="44.4939492" lon="10.8582077"><ele>238.0</ele><time>2026-05-03T08:17:04.55Z</time></trkpt><trkpt lat="44.4939575" lon="10.8583426"><ele>238.0</ele><time>2026-05-03T08:17:05.55Z</time></trkpt><trkpt lat="44.4939515" lon="10.8584628"><ele>238.0</ele><time>2026-05-03T08:17:06.555Z</time></trkpt><trkpt lat="44.4939339" lon="10.8585805"><ele>238.0</ele><time>2026-05-03T08:17:07.545Z</time></trkpt><trkpt lat="44.4938991" lon="10.8586915"><ele>238.0</ele><time>2026-05-03T08:17:08.547Z</time></trkpt><trkpt lat="44.4938507" lon="10.8588084"><ele>237.0</ele><time>2026-05-03T08:17:09.551Z</time></trkpt><trkpt lat="44.4937895" lon="10.8589391"><ele>236.0</ele><time>2026-05-03T08:17:10.549Z</time></trkpt><trkpt lat="44.4937225" lon="10.8590833"><ele>235.0</ele><time>2026-05-03T08:17:11.555Z</time></trkpt><trkpt lat="44.4936583" lon="10.859238"><ele>234.0</ele><time>2026-05-03T08:17:12.555Z</time></trkpt><trkpt lat="44.4935998" lon="10.8593952"><ele>233.75</ele><time>2026-05-03T08:17:13.554Z</time></trkpt><trkpt lat="44.4935456" lon="10.8595475"><ele>233.5</ele><time>2026-05-03T08:17:14.558Z</time></trkpt><trkpt lat="44.4934961" lon="10.8596913"><ele>233.25</ele><time>2026-05-03T08:17:15.558Z</time></trkpt><trkpt lat="44.4934471" lon="10.859835"><ele>233.0</ele><time>2026-05-03T08:17:16.557Z</time></trkpt><trkpt lat="44.4934008" lon="10.8599638"><ele>233.0</ele><time>2026-05-03T08:17:17.555Z</time></trkpt><trkpt lat="44.4933579" lon="10.8600854"><ele>233.0</ele><time>2026-05-03T08:17:18.554Z</time></trkpt><trkpt lat="44.4933236" lon="10.8602064"><ele>233.0</ele><time>2026-05-03T08:17:19.562Z</time></trkpt><trkpt lat="44.4932996" lon="10.8603255"><ele>233.0</ele><time>2026-05-03T08:17:20.554Z</time></trkpt><trkpt lat="44.4932843" lon="10.8604506"><ele>233.0</ele><time>2026-05-03T08:17:21.557Z</time></trkpt><trkpt lat="44.4932709" lon="10.8605733"><ele>232.16666666666669</ele><time>2026-05-03T08:17:22.556Z</time></trkpt><trkpt lat="44.4932588" lon="10.8606977"><ele>231.33333333333334</ele><time>2026-05-03T08:17:23.558Z</time></trkpt><trkpt lat="44.4932467" lon="10.8608153"><ele>230.5</ele><time>2026-05-03T08:17:24.553Z</time></trkpt><trkpt lat="44.4932372" lon="10.8609357"><ele>229.66666666666669</ele><time>2026-05-03T08:17:25.556Z</time></trkpt><trkpt lat="44.4932247" lon="10.8610528"><ele>228.83333333333334</ele><time>2026-05-03T08:17:26.56Z</time></trkpt><trkpt lat="44.4932155" lon="10.8611762"><ele>228.0</ele><time>2026-05-03T08:17:27.571Z</time></trkpt><trkpt lat="44.493207" lon="10.8613038"><ele>226.2</ele><time>2026-05-03T08:17:28.561Z</time></trkpt><trkpt lat="44.4931991" lon="10.8614387"><ele>224.4</ele><time>2026-05-03T08:17:29.558Z</time></trkpt><trkpt lat="44.4931896" lon="10.8615807"><ele>222.59999999999997</ele><time>2026-05-03T08:17:30.554Z</time></trkpt><trkpt lat="44.4931761" lon="10.8617226"><ele>220.79999999999998</ele><time>2026-05-03T08:17:31.558Z</time></trkpt><trkpt lat="44.4931633" lon="10.8618617"><ele>219.0</ele><time>2026-05-03T08:17:32.556Z</time></trkpt><trkpt lat="44.4931478" lon="10.861991"><ele>216.39999999999998</ele><time>2026-05-03T08:17:33.554Z</time></trkpt><trkpt lat="44.4931242" lon="10.8621002"><ele>213.79999999999998</ele><time>2026-05-03T08:17:34.552Z</time></trkpt><trkpt lat="44.4930922" lon="10.8621792"><ele>211.2</ele><time>2026-05-03T08:17:35.557Z</time></trkpt><trkpt lat="44.4929665" lon="10.8621744"><ele>208.60000000000002</ele><time>2026-05-03T08:17:37.556Z</time></trkpt><trkpt lat="44.4928808" lon="10.8620905"><ele>206.0</ele><time>2026-05-03T08:17:38.549Z</time></trkpt><trkpt lat="44.4927826" lon="10.8619854"><ele>205.25</ele><time>2026-05-03T08:17:39.547Z</time></trkpt><trkpt lat="44.4926739" lon="10.8618832"><ele>204.5</ele><time>2026-05-03T08:17:40.549Z</time></trkpt><trkpt lat="44.49257" lon="10.8617871"><ele>203.75</ele><time>2026-05-03T08:17:41.553Z</time></trkpt><trkpt lat="44.4924731" lon="10.8617103"><ele>203.0</ele><time>2026-05-03T08:17:42.55Z</time></trkpt><trkpt lat="44.4923784" lon="10.8616598"><ele>202.8</ele><time>2026-05-03T08:17:43.561Z</time></trkpt><trkpt lat="44.4922871" lon="10.8616478"><ele>202.60000000000002</ele><time>2026-05-03T08:17:44.561Z</time></trkpt><trkpt lat="44.4921936" lon="10.8616921"><ele>202.39999999999998</ele><time>2026-05-03T08:17:45.557Z</time></trkpt><trkpt lat="44.4920909" lon="10.8617698"><ele>202.2</ele><time>2026-05-03T08:17:46.556Z</time></trkpt><trkpt lat="44.4919884" lon="10.8618603"><ele>202.0</ele><time>2026-05-03T08:17:47.56Z</time></trkpt><trkpt lat="44.4918738" lon="10.8619452"><ele>202.0</ele><time>2026-05-03T08:17:48.558Z</time></trkpt><trkpt lat="44.4917628" lon="10.862035"><ele>202.0</ele><time>2026-05-03T08:17:49.56Z</time></trkpt><trkpt lat="44.4916673" lon="10.8621237"><ele>202.0</ele><time>2026-05-03T08:17:50.555Z</time></trkpt><trkpt lat="44.4915957" lon="10.8622228"><ele>202.0</ele><time>2026-05-03T08:17:51.557Z</time></trkpt><trkpt lat="44.4915465" lon="10.8623593"><ele>202.0</ele><time>2026-05-03T08:17:52.559Z</time></trkpt><trkpt lat="44.4915139" lon="10.8625219"><ele>202.0</ele><time>2026-05-03T08:17:53.563Z</time></trkpt><trkpt lat="44.4914906" lon="10.8626838"><ele>202.0</ele><time>2026-05-03T08:17:54.565Z</time></trkpt><trkpt lat="44.491471" lon="10.8628315"><ele>202.0</ele><time>2026-05-03T08:17:55.561Z</time></trkpt><trkpt lat="44.4914504" lon="10.8629652"><ele>202.0</ele><time>2026-05-03T08:17:56.56Z</time></trkpt><trkpt lat="44.4914313" lon="10.8630784"><ele>199.99999999999997</ele><time>2026-05-03T08:17:57.56Z</time></trkpt><trkpt lat="44.4914143" lon="10.8631806"><ele>198.0</ele><time>2026-05-03T08:17:58.575Z</time></trkpt><trkpt lat="44.491388" lon="10.863331"><ele>196.0</ele><time>2026-05-03T08:18:00.556Z</time></trkpt><trkpt lat="44.4913531" lon="10.863425"><ele>194.0</ele><time>2026-05-03T08:18:06.555Z</time></trkpt><trkpt lat="44.4912515" lon="10.863429"><ele>192.0</ele><time>2026-05-03T08:18:09.561Z</time></trkpt><trkpt lat="44.4911838" lon="10.8633718"><ele>190.0</ele><time>2026-05-03T08:18:10.56Z</time></trkpt><trkpt lat="44.4910962" lon="10.8633025"><ele>190.0</ele><time>2026-05-03T08:18:11.557Z</time></trkpt><trkpt lat="44.4909963" lon="10.8632226"><ele>190.0</ele><time>2026-05-03T08:18:12.556Z</time></trkpt><trkpt lat="44.4908852" lon="10.8631357"><ele>190.0</ele><time>2026-05-03T08:18:13.557Z</time></trkpt><trkpt lat="44.4907632" lon="10.8630378"><ele>190.0</ele><time>2026-05-03T08:18:14.561Z</time></trkpt><trkpt lat="44.4906255" lon="10.8629273"><ele>190.0</ele><time>2026-05-03T08:18:15.558Z</time></trkpt><trkpt lat="44.4904654" lon="10.8628036"><ele>190.0</ele><time>2026-05-03T08:18:16.562Z</time></trkpt><trkpt lat="44.490309" lon="10.8626759"><ele>190.0</ele><time>2026-05-03T08:18:17.559Z</time></trkpt><trkpt lat="44.4901437" lon="10.8625383"><ele>189.66666666666669</ele><time>2026-05-03T08:18:18.545Z</time></trkpt><trkpt lat="44.4899747" lon="10.8623932"><ele>189.33333333333334</ele><time>2026-05-03T08:18:19.569Z</time></trkpt><trkpt lat="44.4898054" lon="10.8622608"><ele>189.0</ele><time>2026-05-03T08:18:20.566Z</time></trkpt><trkpt lat="44.4896408" lon="10.8621309"><ele>189.0</ele><time>2026-05-03T08:18:21.563Z</time></trkpt><trkpt lat="44.4894697" lon="10.8619971"><ele>189.0</ele><time>2026-05-03T08:18:22.565Z</time></trkpt><trkpt lat="44.4893034" lon="10.8618569"><ele>189.0</ele><time>2026-05-03T08:18:23.562Z</time></trkpt><trkpt lat="44.4891378" lon="10.8617238"><ele>189.0</ele><time>2026-05-03T08:18:24.561Z</time></trkpt><trkpt lat="44.4889706" lon="10.8615752"><ele>189.0</ele><time>2026-05-03T08:18:25.567Z</time></trkpt><trkpt lat="44.488806" lon="10.8614432"><ele>189.0</ele><time>2026-05-03T08:18:26.563Z</time></trkpt><trkpt lat="44.4886477" lon="10.8613157"><ele>189.66666666666666</ele><time>2026-05-03T08:18:27.561Z</time></trkpt><trkpt lat="44.4884931" lon="10.8611879"><ele>190.33333333333331</ele><time>2026-05-03T08:18:28.565Z</time></trkpt><trkpt lat="44.4883353" lon="10.8610556"><ele>191.0</ele><time>2026-05-03T08:18:29.581Z</time></trkpt><trkpt lat="44.4881808" lon="10.8609269"><ele>191.66666666666666</ele><time>2026-05-03T08:18:30.561Z</time></trkpt><trkpt lat="44.4880313" lon="10.8608001"><ele>192.33333333333331</ele><time>2026-05-03T08:18:31.564Z</time></trkpt><trkpt lat="44.4878801" lon="10.860673"><ele>193.0</ele><time>2026-05-03T08:18:32.562Z</time></trkpt><trkpt lat="44.4877334" lon="10.8605517"><ele>193.0</ele><time>2026-05-03T08:18:33.562Z</time></trkpt><trkpt lat="44.4875851" lon="10.8604367"><ele>193.0</ele><time>2026-05-03T08:18:34.562Z</time></trkpt><trkpt lat="44.4874363" lon="10.8603174"><ele>193.0</ele><time>2026-05-03T08:18:35.562Z</time></trkpt><trkpt lat="44.4872927" lon="10.8601986"><ele>193.66666666666666</ele><time>2026-05-03T08:18:36.563Z</time></trkpt><trkpt lat="44.4871438" lon="10.8600844"><ele>194.33333333333331</ele><time>2026-05-03T08:18:37.562Z</time></trkpt><trkpt lat="44.4870007" lon="10.8599627"><ele>195.0</ele><time>2026-05-03T08:18:38.564Z</time></trkpt><trkpt lat="44.4868563" lon="10.8598332"><ele>196.0</ele><time>2026-05-03T08:18:39.558Z</time></trkpt><trkpt lat="44.48671" lon="10.8597021"><ele>197.0</ele><time>2026-05-03T08:18:40.561Z</time></trkpt><trkpt lat="44.4865738" lon="10.8595516"><ele>198.0</ele><time>2026-05-03T08:18:41.559Z</time></trkpt><trkpt lat="44.4864534" lon="10.85939"><ele>198.66666666666669</ele><time>2026-05-03T08:18:42.559Z</time></trkpt><trkpt lat="44.4863423" lon="10.8592105"><ele>199.33333333333334</ele><time>2026-05-03T08:18:43.558Z</time></trkpt><trkpt lat="44.4862311" lon="10.8590179"><ele>200.0</ele><time>2026-05-03T08:18:44.564Z</time></trkpt><trkpt lat="44.4861281" lon="10.85882"><ele>200.0</ele><time>2026-05-03T08:18:45.557Z</time></trkpt><trkpt lat="44.486028" lon="10.8586261"><ele>200.0</ele><time>2026-05-03T08:18:46.555Z</time></trkpt><trkpt lat="44.4859283" lon="10.8584373"><ele>200.0</ele><time>2026-05-03T08:18:47.555Z</time></trkpt><trkpt lat="44.4858268" lon="10.8582529"><ele>201.33333333333334</ele><time>2026-05-03T08:18:48.555Z</time></trkpt><trkpt lat="44.4857303" lon="10.8580705"><ele>202.66666666666669</ele><time>2026-05-03T08:18:49.557Z</time></trkpt><trkpt lat="44.4856402" lon="10.8578999"><ele>204.0</ele><time>2026-05-03T08:18:50.56Z</time></trkpt><trkpt lat="44.4855363" lon="10.8577251"><ele>203.66666666666669</ele><time>2026-05-03T08:18:51.555Z</time></trkpt><trkpt lat="44.4854336" lon="10.8575445"><ele>203.33333333333334</ele><time>2026-05-03T08:18:52.553Z</time></trkpt><trkpt lat="44.4853263" lon="10.857353"><ele>203.0</ele><time>2026-05-03T08:18:53.556Z</time></trkpt><trkpt lat="44.4852257" lon="10.8571677"><ele>203.0</ele><time>2026-05-03T08:18:54.554Z</time></trkpt><trkpt lat="44.4851179" lon="10.8569957"><ele>203.0</ele><time>2026-05-03T08:18:55.556Z</time></trkpt><trkpt lat="44.4849961" lon="10.8568261"><ele>203.0</ele><time>2026-05-03T08:18:56.556Z</time></trkpt><trkpt lat="44.4848613" lon="10.8566829"><ele>203.66666666666669</ele><time>2026-05-03T08:18:57.553Z</time></trkpt><trkpt lat="44.484713" lon="10.8565451"><ele>204.33333333333331</ele><time>2026-05-03T08:18:58.557Z</time></trkpt><trkpt lat="44.4845584" lon="10.8564325"><ele>205.0</ele><time>2026-05-03T08:18:59.554Z</time></trkpt><trkpt lat="44.4844024" lon="10.856332"><ele>205.0</ele><time>2026-05-03T08:19:00.573Z</time></trkpt><trkpt lat="44.4842389" lon="10.8562659"><ele>205.0</ele><time>2026-05-03T08:19:01.558Z</time></trkpt><trkpt lat="44.4840653" lon="10.8562159"><ele>205.0</ele><time>2026-05-03T08:19:02.558Z</time></trkpt><trkpt lat="44.483887" lon="10.8561688"><ele>205.33333333333331</ele><time>2026-05-03T08:19:03.56Z</time></trkpt><trkpt lat="44.4837159" lon="10.856121"><ele>205.66666666666669</ele><time>2026-05-03T08:19:04.558Z</time></trkpt><trkpt lat="44.4835431" lon="10.8560697"><ele>206.0</ele><time>2026-05-03T08:19:05.559Z</time></trkpt><trkpt lat="44.4833777" lon="10.8560197"><ele>206.0</ele><time>2026-05-03T08:19:06.559Z</time></trkpt><trkpt lat="44.4832198" lon="10.8559654"><ele>206.0</ele><time>2026-05-03T08:19:07.56Z</time></trkpt><trkpt lat="44.4830528" lon="10.8559083"><ele>206.0</ele><time>2026-05-03T08:19:08.56Z</time></trkpt><trkpt lat="44.4828927" lon="10.8558589"><ele>206.66666666666669</ele><time>2026-05-03T08:19:09.558Z</time></trkpt><trkpt lat="44.482729" lon="10.8558027"><ele>207.33333333333331</ele><time>2026-05-03T08:19:10.561Z</time></trkpt><trkpt lat="44.4825604" lon="10.8557452"><ele>208.0</ele><time>2026-05-03T08:19:11.555Z</time></trkpt><trkpt lat="44.4823941" lon="10.8556923"><ele>208.0</ele><time>2026-05-03T08:19:12.558Z</time></trkpt><trkpt lat="44.482226" lon="10.8556342"><ele>208.0</ele><time>2026-05-03T08:19:13.555Z</time></trkpt><trkpt lat="44.4820619" lon="10.8555741"><ele>208.0</ele><time>2026-05-03T08:19:14.557Z</time></trkpt><trkpt lat="44.4818998" lon="10.8555063"><ele>208.0</ele><time>2026-05-03T08:19:15.555Z</time></trkpt><trkpt lat="44.4817429" lon="10.8554225"><ele>208.0</ele><time>2026-05-03T08:19:16.556Z</time></trkpt><trkpt lat="44.4815771" lon="10.8553251"><ele>208.0</ele><time>2026-05-03T08:19:17.555Z</time></trkpt><trkpt lat="44.4814244" lon="10.8552108"><ele>209.0</ele><time>2026-05-03T08:19:18.553Z</time></trkpt><trkpt lat="44.4812733" lon="10.8550924"><ele>210.0</ele><time>2026-05-03T08:19:19.554Z</time></trkpt><trkpt lat="44.4811258" lon="10.854969"><ele>211.0</ele><time>2026-05-03T08:19:20.549Z</time></trkpt><trkpt lat="44.4809841" lon="10.8548388"><ele>211.0</ele><time>2026-05-03T08:19:21.554Z</time></trkpt><trkpt lat="44.4808534" lon="10.8546945"><ele>211.0</ele><time>2026-05-03T08:19:22.554Z</time></trkpt><trkpt lat="44.4807234" lon="10.8545395"><ele>211.0</ele><time>2026-05-03T08:19:23.556Z</time></trkpt><trkpt lat="44.4805975" lon="10.85437"><ele>212.33333333333331</ele><time>2026-05-03T08:19:24.557Z</time></trkpt><trkpt lat="44.480479" lon="10.8542037"><ele>213.66666666666669</ele><time>2026-05-03T08:19:25.555Z</time></trkpt><trkpt lat="44.4803642" lon="10.8540426"><ele>215.0</ele><time>2026-05-03T08:19:26.56Z</time></trkpt><trkpt lat="44.4802507" lon="10.8538749"><ele>215.0</ele><time>2026-05-03T08:19:27.554Z</time></trkpt><trkpt lat="44.4801339" lon="10.8537103"><ele>215.0</ele><time>2026-05-03T08:19:28.549Z</time></trkpt><trkpt lat="44.4800242" lon="10.8535456"><ele>215.0</ele><time>2026-05-03T08:19:29.552Z</time></trkpt><trkpt lat="44.4799075" lon="10.8533799"><ele>215.66666666666669</ele><time>2026-05-03T08:19:30.548Z</time></trkpt><trkpt lat="44.4797954" lon="10.8532154"><ele>216.33333333333331</ele><time>2026-05-03T08:19:31.592Z</time></trkpt><trkpt lat="44.4796755" lon="10.8530463"><ele>217.0</ele><time>2026-05-03T08:19:32.551Z</time></trkpt><trkpt lat="44.4795676" lon="10.8528916"><ele>217.0</ele><time>2026-05-03T08:19:33.551Z</time></trkpt><trkpt lat="44.4794542" lon="10.8527318"><ele>217.0</ele><time>2026-05-03T08:19:34.551Z</time></trkpt><trkpt lat="44.4793381" lon="10.8525729"><ele>217.0</ele><time>2026-05-03T08:19:35.547Z</time></trkpt><trkpt lat="44.479224" lon="10.8524137"><ele>218.0</ele><time>2026-05-03T08:19:36.55Z</time></trkpt><trkpt lat="44.4791114" lon="10.852254"><ele>219.0</ele><time>2026-05-03T08:19:37.548Z</time></trkpt><trkpt lat="44.4789919" lon="10.8520935"><ele>220.0</ele><time>2026-05-03T08:19:38.553Z</time></trkpt><trkpt lat="44.4788713" lon="10.8519148"><ele>221.0</ele><time>2026-05-03T08:19:39.551Z</time></trkpt><trkpt lat="44.4787566" lon="10.8517453"><ele>222.0</ele><time>2026-05-03T08:19:40.553Z</time></trkpt><trkpt lat="44.4786328" lon="10.8515821"><ele>223.0</ele><time>2026-05-03T08:19:41.55Z</time></trkpt><trkpt lat="44.4785044" lon="10.8514208"><ele>223.0</ele><time>2026-05-03T08:19:42.544Z</time></trkpt><trkpt lat="44.4783782" lon="10.8512582"><ele>223.0</ele><time>2026-05-03T08:19:43.549Z</time></trkpt><trkpt lat="44.4782482" lon="10.8511129"><ele>223.0</ele><time>2026-05-03T08:19:44.55Z</time></trkpt><trkpt lat="44.47811" lon="10.8509794"><ele>225.0</ele><time>2026-05-03T08:19:45.546Z</time></trkpt><trkpt lat="44.477966" lon="10.8508643"><ele>227.0</ele><time>2026-05-03T08:19:46.544Z</time></trkpt><trkpt lat="44.4778176" lon="10.8507572"><ele>229.0</ele><time>2026-05-03T08:19:47.549Z</time></trkpt><trkpt lat="44.4776585" lon="10.8506514"><ele>229.0</ele><time>2026-05-03T08:19:48.546Z</time></trkpt><trkpt lat="44.4775072" lon="10.8505471"><ele>229.0</ele><time>2026-05-03T08:19:49.552Z</time></trkpt><trkpt lat="44.4773526" lon="10.8504297"><ele>229.0</ele><time>2026-05-03T08:19:50.547Z</time></trkpt><trkpt lat="44.4772052" lon="10.850312"><ele>229.33333333333331</ele><time>2026-05-03T08:19:51.546Z</time></trkpt><trkpt lat="44.4770536" lon="10.8501927"><ele>229.66666666666669</ele><time>2026-05-03T08:19:52.547Z</time></trkpt><trkpt lat="44.4769089" lon="10.8500866"><ele>230.0</ele><time>2026-05-03T08:19:53.549Z</time></trkpt><trkpt lat="44.4767645" lon="10.849977"><ele>230.0</ele><time>2026-05-03T08:19:54.546Z</time></trkpt><trkpt lat="44.4766193" lon="10.8498658"><ele>230.0</ele><time>2026-05-03T08:19:55.549Z</time></trkpt><trkpt lat="44.4764781" lon="10.8497588"><ele>230.0</ele><time>2026-05-03T08:19:56.549Z</time></trkpt><trkpt lat="44.4763287" lon="10.8496467"><ele>230.0</ele><time>2026-05-03T08:19:57.546Z</time></trkpt><trkpt lat="44.4761843" lon="10.8495295"><ele>230.0</ele><time>2026-05-03T08:19:58.547Z</time></trkpt><trkpt lat="44.4760381" lon="10.8494147"><ele>230.0</ele><time>2026-05-03T08:19:59.546Z</time></trkpt><trkpt lat="44.4758955" lon="10.8492992"><ele>232.0</ele><time>2026-05-03T08:20:00.549Z</time></trkpt><trkpt lat="44.4757462" lon="10.8491887"><ele>234.0</ele><time>2026-05-03T08:20:01.569Z</time></trkpt><trkpt lat="44.4756026" lon="10.8490807"><ele>236.0</ele><time>2026-05-03T08:20:02.549Z</time></trkpt><trkpt lat="44.4754518" lon="10.8489673"><ele>234.33333333333334</ele><time>2026-05-03T08:20:03.548Z</time></trkpt><trkpt lat="44.4753074" lon="10.8488598"><ele>232.66666666666669</ele><time>2026-05-03T08:20:04.55Z</time></trkpt><trkpt lat="44.47516" lon="10.8487537"><ele>231.0</ele><time>2026-05-03T08:20:05.55Z</time></trkpt><trkpt lat="44.4750112" lon="10.8486387"><ele>231.0</ele><time>2026-05-03T08:20:06.551Z</time></trkpt><trkpt lat="44.4748672" lon="10.8485248"><ele>231.0</ele><time>2026-05-03T08:20:07.55Z</time></trkpt><trkpt lat="44.4747173" lon="10.8484072"><ele>231.0</ele><time>2026-05-03T08:20:08.551Z</time></trkpt><trkpt lat="44.474568" lon="10.8482903"><ele>230.66666666666669</ele><time>2026-05-03T08:20:09.548Z</time></trkpt><trkpt lat="44.4744118" lon="10.8481722"><ele>230.33333333333334</ele><time>2026-05-03T08:20:10.547Z</time></trkpt><trkpt lat="44.4742562" lon="10.8480593"><ele>230.0</ele><time>2026-05-03T08:20:11.541Z</time></trkpt><trkpt lat="44.4741001" lon="10.8479426"><ele>230.0</ele><time>2026-05-03T08:20:12.543Z</time></trkpt><trkpt lat="44.4739521" lon="10.8478317"><ele>230.0</ele><time>2026-05-03T08:20:13.542Z</time></trkpt><trkpt lat="44.4738063" lon="10.8477154"><ele>230.0</ele><time>2026-05-03T08:20:14.547Z</time></trkpt><trkpt lat="44.4736629" lon="10.8476024"><ele>232.66666666666669</ele><time>2026-05-03T08:20:15.549Z</time></trkpt><trkpt lat="44.4735186" lon="10.8474904"><ele>235.33333333333331</ele><time>2026-05-03T08:20:16.543Z</time></trkpt><trkpt lat="44.4733748" lon="10.8473732"><ele>238.0</ele><time>2026-05-03T08:20:17.548Z</time></trkpt><trkpt lat="44.4732325" lon="10.8472639"><ele>238.0</ele><time>2026-05-03T08:20:18.547Z</time></trkpt><trkpt lat="44.473089" lon="10.847152"><ele>238.0</ele><time>2026-05-03T08:20:19.551Z</time></trkpt><trkpt lat="44.4729475" lon="10.8470296"><ele>238.0</ele><time>2026-05-03T08:20:20.546Z</time></trkpt><trkpt lat="44.4728105" lon="10.8468989"><ele>238.66666666666666</ele><time>2026-05-03T08:20:21.546Z</time></trkpt><trkpt lat="44.4726804" lon="10.8467472"><ele>239.33333333333331</ele><time>2026-05-03T08:20:22.538Z</time></trkpt><trkpt lat="44.472548" lon="10.8465788"><ele>240.0</ele><time>2026-05-03T08:20:23.542Z</time></trkpt><trkpt lat="44.4724263" lon="10.846418"><ele>240.0</ele><time>2026-05-03T08:20:24.541Z</time></trkpt><trkpt lat="44.4723032" lon="10.8462433"><ele>240.0</ele><time>2026-05-03T08:20:25.537Z</time></trkpt><trkpt lat="44.4721706" lon="10.8460884"><ele>240.0</ele><time>2026-05-03T08:20:26.543Z</time></trkpt><trkpt lat="44.472045" lon="10.8459237"><ele>238.33333333333331</ele><time>2026-05-03T08:20:27.541Z</time></trkpt><trkpt lat="44.4719139" lon="10.8457566"><ele>236.66666666666666</ele><time>2026-05-03T08:20:28.546Z</time></trkpt><trkpt lat="44.4717862" lon="10.8455859"><ele>235.0</ele><time>2026-05-03T08:20:29.546Z</time></trkpt><trkpt lat="44.4716618" lon="10.8454174"><ele>235.0</ele><time>2026-05-03T08:20:30.546Z</time></trkpt><trkpt lat="44.471534" lon="10.8452539"><ele>235.0</ele><time>2026-05-03T08:20:31.55Z</time></trkpt><trkpt lat="44.4714137" lon="10.8450884"><ele>235.0</ele><time>2026-05-03T08:20:32.566Z</time></trkpt><trkpt lat="44.4712911" lon="10.8449227"><ele>236.33333333333331</ele><time>2026-05-03T08:20:33.549Z</time></trkpt><trkpt lat="44.4711714" lon="10.8447609"><ele>237.66666666666669</ele><time>2026-05-03T08:20:34.55Z</time></trkpt><trkpt lat="44.4710455" lon="10.8445994"><ele>239.0</ele><time>2026-05-03T08:20:35.545Z</time></trkpt><trkpt lat="44.4709186" lon="10.8444343"><ele>240.33333333333334</ele><time>2026-05-03T08:20:36.545Z</time></trkpt><trkpt lat="44.4707891" lon="10.8442699"><ele>241.66666666666669</ele><time>2026-05-03T08:20:37.545Z</time></trkpt><trkpt lat="44.4706587" lon="10.8441062"><ele>243.0</ele><time>2026-05-03T08:20:38.546Z</time></trkpt><trkpt lat="44.4705312" lon="10.8439403"><ele>242.66666666666669</ele><time>2026-05-03T08:20:39.546Z</time></trkpt><trkpt lat="44.470407" lon="10.8437686"><ele>242.33333333333334</ele><time>2026-05-03T08:20:40.546Z</time></trkpt><trkpt lat="44.470278" lon="10.8435993"><ele>242.0</ele><time>2026-05-03T08:20:41.546Z</time></trkpt><trkpt lat="44.4701557" lon="10.8434245"><ele>243.0</ele><time>2026-05-03T08:20:42.545Z</time></trkpt><trkpt lat="44.4700287" lon="10.8432606"><ele>244.0</ele><time>2026-05-03T08:20:43.545Z</time></trkpt><trkpt lat="44.4698975" lon="10.8431062"><ele>245.0</ele><time>2026-05-03T08:20:44.546Z</time></trkpt><trkpt lat="44.4697702" lon="10.842942"><ele>245.0</ele><time>2026-05-03T08:20:45.547Z</time></trkpt><trkpt lat="44.4696527" lon="10.8427659"><ele>245.0</ele><time>2026-05-03T08:20:46.545Z</time></trkpt><trkpt lat="44.4695188" lon="10.8426064"><ele>245.0</ele><time>2026-05-03T08:20:47.547Z</time></trkpt><trkpt lat="44.4693944" lon="10.8424353"><ele>244.66666666666669</ele><time>2026-05-03T08:20:48.545Z</time></trkpt><trkpt lat="44.4692617" lon="10.8422704"><ele>244.33333333333331</ele><time>2026-05-03T08:20:49.549Z</time></trkpt><trkpt lat="44.469143" lon="10.8421053"><ele>244.0</ele><time>2026-05-03T08:20:50.548Z</time></trkpt><trkpt lat="44.4690184" lon="10.8419333"><ele>244.33333333333331</ele><time>2026-05-03T08:20:51.55Z</time></trkpt><trkpt lat="44.4688946" lon="10.8417609"><ele>244.66666666666669</ele><time>2026-05-03T08:20:52.55Z</time></trkpt><trkpt lat="44.4687717" lon="10.841587"><ele>245.0</ele><time>2026-05-03T08:20:53.549Z</time></trkpt><trkpt lat="44.4686455" lon="10.8414075"><ele>245.0</ele><time>2026-05-03T08:20:54.549Z</time></trkpt><trkpt lat="44.4685215" lon="10.8412297"><ele>245.0</ele><time>2026-05-03T08:20:55.551Z</time></trkpt><trkpt lat="44.4684025" lon="10.8410522"><ele>245.0</ele><time>2026-05-03T08:20:56.55Z</time></trkpt><trkpt lat="44.4682883" lon="10.8408717"><ele>245.66666666666669</ele><time>2026-05-03T08:20:57.553Z</time></trkpt><trkpt lat="44.4681684" lon="10.8407087"><ele>246.33333333333331</ele><time>2026-05-03T08:20:58.553Z</time></trkpt><trkpt lat="44.4680475" lon="10.8405309"><ele>247.0</ele><time>2026-05-03T08:20:59.553Z</time></trkpt><trkpt lat="44.4679254" lon="10.8403576"><ele>247.0</ele><time>2026-05-03T08:21:00.552Z</time></trkpt><trkpt lat="44.4678064" lon="10.8401909"><ele>247.0</ele><time>2026-05-03T08:21:01.554Z</time></trkpt><trkpt lat="44.4676873" lon="10.8400153"><ele>247.0</ele><time>2026-05-03T08:21:02.55Z</time></trkpt><trkpt lat="44.4675672" lon="10.8398295"><ele>247.33333333333331</ele><time>2026-05-03T08:21:03.566Z</time></trkpt><trkpt lat="44.4674442" lon="10.8396537"><ele>247.66666666666669</ele><time>2026-05-03T08:21:04.547Z</time></trkpt><trkpt lat="44.4673213" lon="10.8394709"><ele>248.0</ele><time>2026-05-03T08:21:05.548Z</time></trkpt><trkpt lat="44.4672017" lon="10.839296"><ele>248.0</ele><time>2026-05-03T08:21:06.546Z</time></trkpt><trkpt lat="44.4670725" lon="10.8391394"><ele>248.0</ele><time>2026-05-03T08:21:07.546Z</time></trkpt><trkpt lat="44.4669343" lon="10.8389933"><ele>248.0</ele><time>2026-05-03T08:21:08.545Z</time></trkpt><trkpt lat="44.4667946" lon="10.8388519"><ele>248.0</ele><time>2026-05-03T08:21:09.541Z</time></trkpt><trkpt lat="44.4666435" lon="10.8387254"><ele>248.0</ele><time>2026-05-03T08:21:10.541Z</time></trkpt><trkpt lat="44.4664902" lon="10.8386176"><ele>248.0</ele><time>2026-05-03T08:21:11.541Z</time></trkpt><trkpt lat="44.4663314" lon="10.8385253"><ele>249.0</ele><time>2026-05-03T08:21:12.54Z</time></trkpt><trkpt lat="44.4661599" lon="10.8384397"><ele>250.0</ele><time>2026-05-03T08:21:13.543Z</time></trkpt><trkpt lat="44.4659804" lon="10.8383583"><ele>251.0</ele><time>2026-05-03T08:21:14.541Z</time></trkpt><trkpt lat="44.4658029" lon="10.8382819"><ele>251.0</ele><time>2026-05-03T08:21:15.54Z</time></trkpt><trkpt lat="44.465637" lon="10.8381974"><ele>251.0</ele><time>2026-05-03T08:21:16.539Z</time></trkpt><trkpt lat="44.4654732" lon="10.8381153"><ele>251.0</ele><time>2026-05-03T08:21:17.54Z</time></trkpt><trkpt lat="44.4653131" lon="10.8380294"><ele>251.0</ele><time>2026-05-03T08:21:18.538Z</time></trkpt><trkpt lat="44.4651468" lon="10.8379466"><ele>251.0</ele><time>2026-05-03T08:21:19.542Z</time></trkpt><trkpt lat="44.4649812" lon="10.837871"><ele>251.0</ele><time>2026-05-03T08:21:20.545Z</time></trkpt><trkpt lat="44.4648173" lon="10.8377938"><ele>251.0</ele><time>2026-05-03T08:21:21.541Z</time></trkpt><trkpt lat="44.4646612" lon="10.8376973"><ele>251.0</ele><time>2026-05-03T08:21:22.542Z</time></trkpt><trkpt lat="44.4644924" lon="10.8376136"><ele>251.0</ele><time>2026-05-03T08:21:23.543Z</time></trkpt><trkpt lat="44.4643243" lon="10.8375302"><ele>253.0</ele><time>2026-05-03T08:21:24.54Z</time></trkpt><trkpt lat="44.464163" lon="10.8374453"><ele>255.0</ele><time>2026-05-03T08:21:25.546Z</time></trkpt><trkpt lat="44.4639938" lon="10.8373597"><ele>257.0</ele><time>2026-05-03T08:21:26.545Z</time></trkpt><trkpt lat="44.4638309" lon="10.8372728"><ele>257.33333333333337</ele><time>2026-05-03T08:21:27.543Z</time></trkpt><trkpt lat="44.4636635" lon="10.8371917"><ele>257.6666666666667</ele><time>2026-05-03T08:21:28.545Z</time></trkpt><trkpt lat="44.463492" lon="10.8370981"><ele>258.0</ele><time>2026-05-03T08:21:29.546Z</time></trkpt><trkpt lat="44.4633366" lon="10.8370007"><ele>258.0</ele><time>2026-05-03T08:21:30.543Z</time></trkpt><trkpt lat="44.4631912" lon="10.8368804"><ele>258.0</ele><time>2026-05-03T08:21:31.542Z</time></trkpt><trkpt lat="44.4630556" lon="10.8367425"><ele>258.0</ele><time>2026-05-03T08:21:32.539Z</time></trkpt><trkpt lat="44.4629331" lon="10.8365614"><ele>258.6666666666667</ele><time>2026-05-03T08:21:33.54Z</time></trkpt><trkpt lat="44.4628218" lon="10.8363678"><ele>259.33333333333337</ele><time>2026-05-03T08:21:34.556Z</time></trkpt><trkpt lat="44.4627098" lon="10.8361571"><ele>260.0</ele><time>2026-05-03T08:21:35.546Z</time></trkpt><trkpt lat="44.4625987" lon="10.8359466"><ele>260.6666666666667</ele><time>2026-05-03T08:21:36.547Z</time></trkpt><trkpt lat="44.4624894" lon="10.8357397"><ele>261.3333333333333</ele><time>2026-05-03T08:21:37.538Z</time></trkpt><trkpt lat="44.4623872" lon="10.8355543"><ele>262.0</ele><time>2026-05-03T08:21:38.541Z</time></trkpt><trkpt lat="44.4622786" lon="10.8353579"><ele>262.0</ele><time>2026-05-03T08:21:39.544Z</time></trkpt><trkpt lat="44.4621771" lon="10.8351676"><ele>262.0</ele><time>2026-05-03T08:21:40.548Z</time></trkpt><trkpt lat="44.4620759" lon="10.8349744"><ele>262.0</ele><time>2026-05-03T08:21:41.544Z</time></trkpt><trkpt lat="44.4619678" lon="10.834788"><ele>262.0</ele><time>2026-05-03T08:21:42.551Z</time></trkpt><trkpt lat="44.461867" lon="10.8345933"><ele>262.0</ele><time>2026-05-03T08:21:43.55Z</time></trkpt><trkpt lat="44.461772" lon="10.8344039"><ele>262.0</ele><time>2026-05-03T08:21:44.551Z</time></trkpt><trkpt lat="44.4616671" lon="10.8342157"><ele>262.3333333333333</ele><time>2026-05-03T08:21:45.549Z</time></trkpt><trkpt lat="44.4615668" lon="10.8340303"><ele>262.6666666666667</ele><time>2026-05-03T08:21:46.548Z</time></trkpt><trkpt lat="44.4614619" lon="10.8338424"><ele>263.0</ele><time>2026-05-03T08:21:47.546Z</time></trkpt><trkpt lat="44.4613584" lon="10.8336481"><ele>264.33333333333337</ele><time>2026-05-03T08:21:48.546Z</time></trkpt><trkpt lat="44.4612544" lon="10.8334516"><ele>265.6666666666667</ele><time>2026-05-03T08:21:49.55Z</time></trkpt><trkpt lat="44.4611511" lon="10.8332602"><ele>267.0</ele><time>2026-05-03T08:21:50.546Z</time></trkpt><trkpt lat="44.4610474" lon="10.8330657"><ele>267.0</ele><time>2026-05-03T08:21:51.546Z</time></trkpt><trkpt lat="44.4609342" lon="10.832878"><ele>267.0</ele><time>2026-05-03T08:21:52.547Z</time></trkpt><trkpt lat="44.4608235" lon="10.8327051"><ele>267.0</ele><time>2026-05-03T08:21:53.549Z</time></trkpt><trkpt lat="44.4606986" lon="10.8325472"><ele>267.0</ele><time>2026-05-03T08:21:54.547Z</time></trkpt><trkpt lat="44.4605679" lon="10.8324009"><ele>267.0</ele><time>2026-05-03T08:21:55.549Z</time></trkpt><trkpt lat="44.4604195" lon="10.8322736"><ele>267.0</ele><time>2026-05-03T08:21:56.548Z</time></trkpt><trkpt lat="44.4602697" lon="10.8321619"><ele>267.0</ele><time>2026-05-03T08:21:57.546Z</time></trkpt><trkpt lat="44.4601107" lon="10.8320749"><ele>267.0</ele><time>2026-05-03T08:21:58.55Z</time></trkpt><trkpt lat="44.4599522" lon="10.8320164"><ele>267.0</ele><time>2026-05-03T08:21:59.547Z</time></trkpt><trkpt lat="44.4597867" lon="10.8319762"><ele>268.3333333333333</ele><time>2026-05-03T08:22:00.542Z</time></trkpt><trkpt lat="44.4596122" lon="10.8319495"><ele>269.66666666666663</ele><time>2026-05-03T08:22:01.548Z</time></trkpt><trkpt lat="44.4594383" lon="10.8319499"><ele>271.0</ele><time>2026-05-03T08:22:02.548Z</time></trkpt><trkpt lat="44.4592635" lon="10.8319506"><ele>271.0</ele><time>2026-05-03T08:22:03.552Z</time></trkpt><trkpt lat="44.4590953" lon="10.8319606"><ele>271.0</ele><time>2026-05-03T08:22:04.544Z</time></trkpt><trkpt lat="44.4589229" lon="10.8319662"><ele>271.0</ele><time>2026-05-03T08:22:05.563Z</time></trkpt><trkpt lat="44.4587631" lon="10.8319818"><ele>272.5</ele><time>2026-05-03T08:22:06.55Z</time></trkpt><trkpt lat="44.4586153" lon="10.8320009"><ele>274.0</ele><time>2026-05-03T08:22:07.55Z</time></trkpt><trkpt lat="44.4584761" lon="10.8320225"><ele>275.5</ele><time>2026-05-03T08:22:08.548Z</time></trkpt><trkpt lat="44.4583442" lon="10.832064"><ele>277.0</ele><time>2026-05-03T08:22:09.547Z</time></trkpt><trkpt lat="44.4582125" lon="10.8321164"><ele>277.0</ele><time>2026-05-03T08:22:10.552Z</time></trkpt><trkpt lat="44.4580783" lon="10.8321676"><ele>277.0</ele><time>2026-05-03T08:22:11.543Z</time></trkpt><trkpt lat="44.4579554" lon="10.8322528"><ele>277.0</ele><time>2026-05-03T08:22:12.547Z</time></trkpt><trkpt lat="44.457844" lon="10.8323233"><ele>277.0</ele><time>2026-05-03T08:22:13.544Z</time></trkpt><trkpt lat="44.4577424" lon="10.8323901"><ele>277.5</ele><time>2026-05-03T08:22:14.543Z</time></trkpt><trkpt lat="44.4576433" lon="10.8324402"><ele>278.0</ele><time>2026-05-03T08:22:15.543Z</time></trkpt><trkpt lat="44.4575644" lon="10.8324876"><ele>278.5</ele><time>2026-05-03T08:22:16.546Z</time></trkpt><trkpt lat="44.4574889" lon="10.8325389"><ele>279.0</ele><time>2026-05-03T08:22:17.545Z</time></trkpt><trkpt lat="44.4574227" lon="10.8325746"><ele>279.5</ele><time>2026-05-03T08:22:18.543Z</time></trkpt><trkpt lat="44.457329" lon="10.8325867"><ele>280.0</ele><time>2026-05-03T08:22:20.542Z</time></trkpt><trkpt lat="44.4572328" lon="10.8325137"><ele>280.0</ele><time>2026-05-03T08:22:22.538Z</time></trkpt><trkpt lat="44.4571767" lon="10.8324574"><ele>280.0</ele><time>2026-05-03T08:22:23.544Z</time></trkpt><trkpt lat="44.4571133" lon="10.8324045"><ele>280.0</ele><time>2026-05-03T08:22:24.545Z</time></trkpt><trkpt lat="44.4570454" lon="10.8323664"><ele>280.0</ele><time>2026-05-03T08:22:25.546Z</time></trkpt><trkpt lat="44.4569754" lon="10.8323459"><ele>280.0</ele><time>2026-05-03T08:22:26.543Z</time></trkpt><trkpt lat="44.4568976" lon="10.8323557"><ele>280.0</ele><time>2026-05-03T08:22:27.538Z</time></trkpt><trkpt lat="44.4568197" lon="10.8323842"><ele>280.0</ele><time>2026-05-03T08:22:28.543Z</time></trkpt><trkpt lat="44.4567481" lon="10.8324192"><ele>280.0</ele><time>2026-05-03T08:22:29.539Z</time></trkpt><trkpt lat="44.4566831" lon="10.832459"><ele>280.0</ele><time>2026-05-03T08:22:30.538Z</time></trkpt><trkpt lat="44.4566224" lon="10.8324864"><ele>280.0</ele><time>2026-05-03T08:22:31.543Z</time></trkpt><trkpt lat="44.4565224" lon="10.8325612"><ele>280.0</ele><time>2026-05-03T08:22:33.537Z</time></trkpt><trkpt lat="44.4564405" lon="10.8326534"><ele>280.0</ele><time>2026-05-03T08:22:35.535Z</time></trkpt><trkpt lat="44.4563633" lon="10.8327432"><ele>281.4</ele><time>2026-05-03T08:22:37.539Z</time></trkpt><trkpt lat="44.4562586" lon="10.8328093"><ele>282.8</ele><time>2026-05-03T08:22:39.536Z</time></trkpt><trkpt lat="44.4561341" lon="10.8328299"><ele>284.2</ele><time>2026-05-03T08:22:41.537Z</time></trkpt><trkpt lat="44.4560646" lon="10.8328292"><ele>285.6</ele><time>2026-05-03T08:22:42.532Z</time></trkpt><trkpt lat="44.4559997" lon="10.8328189"><ele>287.0</ele><time>2026-05-03T08:22:43.54Z</time></trkpt><trkpt lat="44.4558952" lon="10.8328029"><ele>287.0</ele><time>2026-05-03T08:22:45.534Z</time></trkpt><trkpt lat="44.4558204" lon="10.8328474"><ele>287.0</ele><time>2026-05-03T08:22:47.537Z</time></trkpt><trkpt lat="44.4557409" lon="10.832945"><ele>287.0</ele><time>2026-05-03T08:22:49.536Z</time></trkpt><trkpt lat="44.4556892" lon="10.8330029"><ele>287.0</ele><time>2026-05-03T08:22:50.541Z</time></trkpt><trkpt lat="44.4556239" lon="10.8330611"><ele>287.0</ele><time>2026-05-03T08:22:51.542Z</time></trkpt><trkpt lat="44.4555475" lon="10.8331208"><ele>287.0</ele><time>2026-05-03T08:22:52.535Z</time></trkpt><trkpt lat="44.455468" lon="10.8331746"><ele>289.0</ele><time>2026-05-03T08:22:53.546Z</time></trkpt><trkpt lat="44.4553936" lon="10.8332274"><ele>291.0</ele><time>2026-05-03T08:22:54.543Z</time></trkpt><trkpt lat="44.4553132" lon="10.8332703"><ele>293.0</ele><time>2026-05-03T08:22:55.548Z</time></trkpt><trkpt lat="44.4552337" lon="10.8333049"><ele>295.0</ele><time>2026-05-03T08:22:56.547Z</time></trkpt><trkpt lat="44.4551584" lon="10.8333256"><ele>297.0</ele><time>2026-05-03T08:22:57.544Z</time></trkpt><trkpt lat="44.4550871" lon="10.8333484"><ele>299.0</ele><time>2026-05-03T08:22:58.546Z</time></trkpt><trkpt lat="44.4550248" lon="10.8333787"><ele>297.25</ele><time>2026-05-03T08:22:59.546Z</time></trkpt><trkpt lat="44.4549202" lon="10.8334801"><ele>295.5</ele><time>2026-05-03T08:23:01.541Z</time></trkpt><trkpt lat="44.4548334" lon="10.8335931"><ele>293.75</ele><time>2026-05-03T08:23:03.536Z</time></trkpt><trkpt lat="44.4547374" lon="10.833643"><ele>292.0</ele><time>2026-05-03T08:23:05.539Z</time></trkpt><trkpt lat="44.4546072" lon="10.8336389"><ele>292.0</ele><time>2026-05-03T08:23:07.554Z</time></trkpt><trkpt lat="44.4545406" lon="10.8336226"><ele>292.0</ele><time>2026-05-03T08:23:08.535Z</time></trkpt><trkpt lat="44.4544807" lon="10.8335942"><ele>292.0</ele><time>2026-05-03T08:23:09.538Z</time></trkpt><trkpt lat="44.4543905" lon="10.8335701"><ele>292.0</ele><time>2026-05-03T08:23:11.535Z</time></trkpt><trkpt lat="44.4542893" lon="10.8335938"><ele>292.0</ele><time>2026-05-03T08:23:13.539Z</time></trkpt><trkpt lat="44.4541739" lon="10.8336012"><ele>292.0</ele><time>2026-05-03T08:23:15.539Z</time></trkpt><trkpt lat="44.4540637" lon="10.8336287"><ele>292.0</ele><time>2026-05-03T08:23:17.542Z</time></trkpt><trkpt lat="44.4539729" lon="10.8336925"><ele>292.0</ele><time>2026-05-03T08:23:19.539Z</time></trkpt><trkpt lat="44.4539158" lon="10.8337322"><ele>292.0</ele><time>2026-05-03T08:23:20.532Z</time></trkpt><trkpt lat="44.4538515" lon="10.8337613"><ele>292.0</ele><time>2026-05-03T08:23:21.542Z</time></trkpt><trkpt lat="44.4537802" lon="10.833772"><ele>292.0</ele><time>2026-05-03T08:23:22.538Z</time></trkpt><trkpt lat="44.453714" lon="10.8337565"><ele>292.0</ele><time>2026-05-03T08:23:23.541Z</time></trkpt><trkpt lat="44.4536368" lon="10.8337325"><ele>293.2</ele><time>2026-05-03T08:23:24.54Z</time></trkpt><trkpt lat="44.4535571" lon="10.8336996"><ele>294.4</ele><time>2026-05-03T08:23:25.544Z</time></trkpt><trkpt lat="44.4534743" lon="10.8336583"><ele>295.6</ele><time>2026-05-03T08:23:26.54Z</time></trkpt><trkpt lat="44.4533875" lon="10.8336262"><ele>296.8</ele><time>2026-05-03T08:23:27.538Z</time></trkpt><trkpt lat="44.4532925" lon="10.8336004"><ele>298.0</ele><time>2026-05-03T08:23:28.538Z</time></trkpt><trkpt lat="44.4531965" lon="10.8335878"><ele>298.0</ele><time>2026-05-03T08:23:29.535Z</time></trkpt><trkpt lat="44.4530995" lon="10.8335888"><ele>298.0</ele><time>2026-05-03T08:23:30.535Z</time></trkpt><trkpt lat="44.4529945" lon="10.8336005"><ele>298.0</ele><time>2026-05-03T08:23:31.539Z</time></trkpt><trkpt lat="44.4528966" lon="10.8336173"><ele>298.0</ele><time>2026-05-03T08:23:32.536Z</time></trkpt><trkpt lat="44.4528112" lon="10.8336252"><ele>298.0</ele><time>2026-05-03T08:23:33.534Z</time></trkpt><trkpt lat="44.4527393" lon="10.8336138"><ele>298.8333333333333</ele><time>2026-05-03T08:23:34.523Z</time></trkpt><trkpt lat="44.4526431" lon="10.8335518"><ele>299.66666666666663</ele><time>2026-05-03T08:23:36.536Z</time></trkpt><trkpt lat="44.4525852" lon="10.8334821"><ele>300.5</ele><time>2026-05-03T08:23:38.558Z</time></trkpt><trkpt lat="44.4525231" lon="10.8335204"><ele>301.3333333333333</ele><time>2026-05-03T08:23:41.543Z</time></trkpt><trkpt lat="44.452452" lon="10.8335671"><ele>302.1666666666667</ele><time>2026-05-03T08:23:45.541Z</time></trkpt><trkpt lat="44.4524244" lon="10.8336735"><ele>303.0</ele><time>2026-05-03T08:23:48.536Z</time></trkpt><trkpt lat="44.4524061" lon="10.8337708"><ele>303.0</ele><time>2026-05-03T08:23:50.532Z</time></trkpt><trkpt lat="44.4523564" lon="10.8338433"><ele>303.0</ele><time>2026-05-03T08:23:52.531Z</time></trkpt><trkpt lat="44.452295" lon="10.8338941"><ele>303.0</ele><time>2026-05-03T08:23:54.531Z</time></trkpt><trkpt lat="44.4522314" lon="10.8339401"><ele>303.0</ele><time>2026-05-03T08:24:04.529Z</time></trkpt><trkpt lat="44.4521356" lon="10.8339777"><ele>303.0</ele><time>2026-05-03T08:24:06.534Z</time></trkpt><trkpt lat="44.4520141" lon="10.8340013"><ele>303.0</ele><time>2026-05-03T08:24:08.537Z</time></trkpt><trkpt lat="44.4519486" lon="10.8339935"><ele>304.6666666666667</ele><time>2026-05-03T08:24:09.556Z</time></trkpt><trkpt lat="44.4518846" lon="10.8339779"><ele>306.3333333333333</ele><time>2026-05-03T08:24:10.538Z</time></trkpt><trkpt lat="44.4517568" lon="10.8339368"><ele>308.0</ele><time>2026-05-03T08:24:12.539Z</time></trkpt><trkpt lat="44.4516856" lon="10.8339167"><ele>309.66666666666663</ele><time>2026-05-03T08:24:13.539Z</time></trkpt><trkpt lat="44.4516062" lon="10.8339041"><ele>311.3333333333333</ele><time>2026-05-03T08:24:14.532Z</time></trkpt><trkpt lat="44.4515358" lon="10.8338844"><ele>313.0</ele><time>2026-05-03T08:24:15.531Z</time></trkpt><trkpt lat="44.4514616" lon="10.8338482"><ele>313.0</ele><time>2026-05-03T08:24:16.531Z</time></trkpt><trkpt lat="44.4513864" lon="10.833807"><ele>313.0</ele><time>2026-05-03T08:24:17.537Z</time></trkpt><trkpt lat="44.4512605" lon="10.8337689"><ele>313.0</ele><time>2026-05-03T08:24:19.544Z</time></trkpt><trkpt lat="44.4511935" lon="10.8337746"><ele>313.0</ele><time>2026-05-03T08:24:20.54Z</time></trkpt><trkpt lat="44.4511224" lon="10.8338008"><ele>313.0</ele><time>2026-05-03T08:24:21.541Z</time></trkpt><trkpt lat="44.4510514" lon="10.8338293"><ele>313.0</ele><time>2026-05-03T08:24:22.541Z</time></trkpt><trkpt lat="44.450982" lon="10.8338599"><ele>313.5</ele><time>2026-05-03T08:24:23.539Z</time></trkpt><trkpt lat="44.4509153" lon="10.8338961"><ele>314.0</ele><time>2026-05-03T08:24:24.538Z</time></trkpt><trkpt lat="44.4508472" lon="10.8339254"><ele>314.5</ele><time>2026-05-03T08:24:25.544Z</time></trkpt><trkpt lat="44.450732" lon="10.833948"><ele>315.0</ele><time>2026-05-03T08:24:27.541Z</time></trkpt><trkpt lat="44.4506474" lon="10.8339818"><ele>315.5</ele><time>2026-05-03T08:24:29.543Z</time></trkpt><trkpt lat="44.4505753" lon="10.8339984"><ele>316.0</ele><time>2026-05-03T08:24:31.543Z</time></trkpt><trkpt lat="44.4504952" lon="10.8339988"><ele>317.3333333333333</ele><time>2026-05-03T08:24:33.54Z</time></trkpt><trkpt lat="44.4503995" lon="10.8340335"><ele>318.66666666666663</ele><time>2026-05-03T08:24:35.54Z</time></trkpt><trkpt lat="44.4503107" lon="10.8340476"><ele>320.0</ele><time>2026-05-03T08:24:37.542Z</time></trkpt><trkpt lat="44.4502313" lon="10.834073"><ele>321.3333333333333</ele><time>2026-05-03T08:24:39.537Z</time></trkpt><trkpt lat="44.4501506" lon="10.8340729"><ele>322.6666666666667</ele><time>2026-05-03T08:24:41.533Z</time></trkpt><trkpt lat="44.4500553" lon="10.8340957"><ele>324.0</ele><time>2026-05-03T08:24:43.536Z</time></trkpt><trkpt lat="44.4499605" lon="10.8341327"><ele>324.0</ele><time>2026-05-03T08:24:45.541Z</time></trkpt><trkpt lat="44.4498688" lon="10.8341048"><ele>324.0</ele><time>2026-05-03T08:24:47.536Z</time></trkpt><trkpt lat="44.449763" lon="10.8340904"><ele>324.0</ele><time>2026-05-03T08:24:49.537Z</time></trkpt><trkpt lat="44.4496549" lon="10.8340387"><ele>324.0</ele><time>2026-05-03T08:24:51.532Z</time></trkpt><trkpt lat="44.4495504" lon="10.8340018"><ele>324.0</ele><time>2026-05-03T08:24:53.536Z</time></trkpt><trkpt lat="44.4494769" lon="10.8340006"><ele>324.8333333333333</ele><time>2026-05-03T08:26:02.548Z</time></trkpt><trkpt lat="44.4494077" lon="10.8340264"><ele>325.6666666666667</ele><time>2026-05-03T08:26:06.545Z</time></trkpt><trkpt lat="44.4493276" lon="10.83406"><ele>326.5</ele><time>2026-05-03T08:26:11.541Z</time></trkpt><trkpt lat="44.4492512" lon="10.8340794"><ele>327.33333333333337</ele><time>2026-05-03T08:26:13.562Z</time></trkpt><trkpt lat="44.4491561" lon="10.8340754"><ele>328.1666666666667</ele><time>2026-05-03T08:26:15.545Z</time></trkpt><trkpt lat="44.4490699" lon="10.834061"><ele>329.0</ele><time>2026-05-03T08:26:17.54Z</time></trkpt><trkpt lat="44.4489854" lon="10.8340238"><ele>329.0</ele><time>2026-05-03T08:26:19.547Z</time></trkpt><trkpt lat="44.4489061" lon="10.8340266"><ele>329.0</ele><time>2026-05-03T08:26:21.542Z</time></trkpt><trkpt lat="44.4488245" lon="10.8340509"><ele>329.0</ele><time>2026-05-03T08:26:23.541Z</time></trkpt><trkpt lat="44.4487284" lon="10.8340878"><ele>329.0</ele><time>2026-05-03T08:26:25.545Z</time></trkpt><trkpt lat="44.4486343" lon="10.8340582"><ele>329.0</ele><time>2026-05-03T08:26:27.545Z</time></trkpt><trkpt lat="44.448546" lon="10.8339584"><ele>329.2</ele><time>2026-05-03T08:26:29.547Z</time></trkpt><trkpt lat="44.4484613" lon="10.8338449"><ele>329.4</ele><time>2026-05-03T08:26:31.548Z</time></trkpt><trkpt lat="44.4483683" lon="10.8337716"><ele>329.6</ele><time>2026-05-03T08:26:33.55Z</time></trkpt><trkpt lat="44.4482414" lon="10.8337357"><ele>329.8</ele><time>2026-05-03T08:26:35.545Z</time></trkpt><trkpt lat="44.4481809" lon="10.8337107"><ele>330.0</ele><time>2026-05-03T08:26:36.545Z</time></trkpt><trkpt lat="44.4480734" lon="10.8336306"><ele>330.0</ele><time>2026-05-03T08:26:38.548Z</time></trkpt><trkpt lat="44.448023" lon="10.8335539"><ele>330.0</ele><time>2026-05-03T08:26:39.545Z</time></trkpt><trkpt lat="44.4479768" lon="10.8334791"><ele>330.0</ele><time>2026-05-03T08:26:40.543Z</time></trkpt><trkpt lat="44.4479001" lon="10.8333672"><ele>330.0</ele><time>2026-05-03T08:26:42.545Z</time></trkpt><trkpt lat="44.4477921" lon="10.8332761"><ele>330.0</ele><time>2026-05-03T08:26:44.562Z</time></trkpt><trkpt lat="44.4476858" lon="10.8332296"><ele>332.0</ele><time>2026-05-03T08:26:46.543Z</time></trkpt><trkpt lat="44.4475559" lon="10.8331932"><ele>334.0</ele><time>2026-05-03T08:26:48.544Z</time></trkpt><trkpt lat="44.4474806" lon="10.8331773"><ele>336.0</ele><time>2026-05-03T08:26:49.55Z</time></trkpt><trkpt lat="44.4474027" lon="10.8331614"><ele>338.0</ele><time>2026-05-03T08:26:50.543Z</time></trkpt><trkpt lat="44.4473237" lon="10.833139"><ele>340.0</ele><time>2026-05-03T08:26:51.548Z</time></trkpt><trkpt lat="44.4472376" lon="10.833121"><ele>340.0</ele><time>2026-05-03T08:26:52.547Z</time></trkpt><trkpt lat="44.4471513" lon="10.8331022"><ele>340.0</ele><time>2026-05-03T08:26:53.546Z</time></trkpt><trkpt lat="44.4470608" lon="10.8330809"><ele>340.0</ele><time>2026-05-03T08:26:54.545Z</time></trkpt><trkpt lat="44.446972" lon="10.8330578"><ele>340.0</ele><time>2026-05-03T08:26:55.545Z</time></trkpt><trkpt lat="44.446886" lon="10.8330265"><ele>340.0</ele><time>2026-05-03T08:26:56.545Z</time></trkpt><trkpt lat="44.4467974" lon="10.8329941"><ele>340.3333333333333</ele><time>2026-05-03T08:26:57.544Z</time></trkpt><trkpt lat="44.4467107" lon="10.8329646"><ele>340.66666666666663</ele><time>2026-05-03T08:26:58.547Z</time></trkpt><trkpt lat="44.4466346" lon="10.8329451"><ele>341.0</ele><time>2026-05-03T08:26:59.541Z</time></trkpt><trkpt lat="44.44656" lon="10.8329305"><ele>341.3333333333333</ele><time>2026-05-03T08:27:00.54Z</time></trkpt><trkpt lat="44.4464853" lon="10.8329438"><ele>341.6666666666667</ele><time>2026-05-03T08:27:01.533Z</time></trkpt><trkpt lat="44.4464174" lon="10.8329737"><ele>342.0</ele><time>2026-05-03T08:27:02.538Z</time></trkpt><trkpt lat="44.44635" lon="10.8330067"><ele>343.5</ele><time>2026-05-03T08:27:03.544Z</time></trkpt><trkpt lat="44.446283" lon="10.8330464"><ele>345.0</ele><time>2026-05-03T08:27:04.543Z</time></trkpt><trkpt lat="44.4462247" lon="10.8330886"><ele>346.5</ele><time>2026-05-03T08:27:05.545Z</time></trkpt><trkpt lat="44.4461173" lon="10.8331538"><ele>348.0</ele><time>2026-05-03T08:27:07.543Z</time></trkpt><trkpt lat="44.446037" lon="10.8331971"><ele>349.5</ele><time>2026-05-03T08:27:09.539Z</time></trkpt><trkpt lat="44.4459671" lon="10.8332452"><ele>351.0</ele><time>2026-05-03T08:27:12.548Z</time></trkpt><trkpt lat="44.445891" lon="10.8332551"><ele>351.0</ele><time>2026-05-03T08:40:22.545Z</time></trkpt><trkpt lat="44.4458141" lon="10.8332856"><ele>351.0</ele><time>2026-05-03T08:40:25.544Z</time></trkpt><trkpt lat="44.4457393" lon="10.8333302"><ele>351.0</ele><time>2026-05-03T08:40:28.538Z</time></trkpt><trkpt lat="44.4456558" lon="10.833369"><ele>351.0</ele><time>2026-05-03T08:40:30.54Z</time></trkpt><trkpt lat="44.4455459" lon="10.833412"><ele>351.0</ele><time>2026-05-03T08:40:32.536Z</time></trkpt><trkpt lat="44.4454823" lon="10.8334424"><ele>351.0</ele><time>2026-05-03T08:40:33.538Z</time></trkpt><trkpt lat="44.4454169" lon="10.8334648"><ele>350.0</ele><time>2026-05-03T08:40:34.538Z</time></trkpt><trkpt lat="44.4453559" lon="10.8334887"><ele>349.0</ele><time>2026-05-03T08:40:35.535Z</time></trkpt><trkpt lat="44.4452432" lon="10.8335221"><ele>348.0</ele><time>2026-05-03T08:40:37.538Z</time></trkpt><trkpt lat="44.4451217" lon="10.8335699"><ele>347.0</ele><time>2026-05-03T08:40:39.556Z</time></trkpt><trkpt lat="44.445047" lon="10.8335977"><ele>346.0</ele><time>2026-05-03T08:40:40.54Z</time></trkpt><trkpt lat="44.4449747" lon="10.8336224"><ele>346.0</ele><time>2026-05-03T08:40:41.539Z</time></trkpt><trkpt lat="44.4449036" lon="10.8336239"><ele>346.0</ele><time>2026-05-03T08:40:42.539Z</time></trkpt><trkpt lat="44.4448251" lon="10.8336258"><ele>346.0</ele><time>2026-05-03T08:40:43.537Z</time></trkpt><trkpt lat="44.4447476" lon="10.8335994"><ele>346.0</ele><time>2026-05-03T08:40:44.54Z</time></trkpt><trkpt lat="44.4446665" lon="10.8335412"><ele>346.0</ele><time>2026-05-03T08:40:45.541Z</time></trkpt><trkpt lat="44.4445922" lon="10.8334578"><ele>346.0</ele><time>2026-05-03T08:40:46.541Z</time></trkpt><trkpt lat="44.4445095" lon="10.8333742"><ele>350.20000000000005</ele><time>2026-05-03T08:40:47.54Z</time></trkpt><trkpt lat="44.4444276" lon="10.8333014"><ele>354.40000000000003</ele><time>2026-05-03T08:40:48.543Z</time></trkpt><trkpt lat="44.4443387" lon="10.833253"><ele>358.6</ele><time>2026-05-03T08:40:49.545Z</time></trkpt><trkpt lat="44.4442465" lon="10.8332332"><ele>362.8</ele><time>2026-05-03T08:40:50.545Z</time></trkpt><trkpt lat="44.4441537" lon="10.8332433"><ele>367.0</ele><time>2026-05-03T08:40:51.538Z</time></trkpt><trkpt lat="44.4440681" lon="10.8332887"><ele>367.0</ele><time>2026-05-03T08:40:52.541Z</time></trkpt><trkpt lat="44.4439885" lon="10.8333754"><ele>367.0</ele><time>2026-05-03T08:40:53.538Z</time></trkpt><trkpt lat="44.4439093" lon="10.8334607"><ele>367.0</ele><time>2026-05-03T08:40:54.538Z</time></trkpt><trkpt lat="44.4438397" lon="10.8335407"><ele>367.0</ele><time>2026-05-03T08:40:55.542Z</time></trkpt><trkpt lat="44.4437673" lon="10.8336311"><ele>367.0</ele><time>2026-05-03T08:40:56.542Z</time></trkpt><trkpt lat="44.4436965" lon="10.8337207"><ele>365.7142857142857</ele><time>2026-05-03T08:40:57.54Z</time></trkpt><trkpt lat="44.4436309" lon="10.8337924"><ele>364.42857142857144</ele><time>2026-05-03T08:40:58.544Z</time></trkpt><trkpt lat="44.443568" lon="10.8338488"><ele>363.14285714285717</ele><time>2026-05-03T08:40:59.545Z</time></trkpt><trkpt lat="44.443503" lon="10.8338837"><ele>361.8571428571429</ele><time>2026-05-03T08:41:00.548Z</time></trkpt><trkpt lat="44.4434349" lon="10.8338763"><ele>360.57142857142856</ele><time>2026-05-03T08:41:01.55Z</time></trkpt><trkpt lat="44.443376" lon="10.8338368"><ele>359.28571428571433</ele><time>2026-05-03T08:41:02.55Z</time></trkpt><trkpt lat="44.4433272" lon="10.8337765"><ele>358.0</ele><time>2026-05-03T08:41:03.546Z</time></trkpt><trkpt lat="44.4432696" lon="10.8336558"><ele>358.00000000000006</ele><time>2026-05-03T08:41:05.55Z</time></trkpt><trkpt lat="44.4432632" lon="10.8335657"><ele>358.0</ele><time>2026-05-03T08:41:06.543Z</time></trkpt><trkpt lat="44.4432608" lon="10.8334705"><ele>358.0</ele><time>2026-05-03T08:41:07.543Z</time></trkpt><trkpt lat="44.443261" lon="10.8333778"><ele>358.0</ele><time>2026-05-03T08:41:08.543Z</time></trkpt><trkpt lat="44.4432653" lon="10.8332735"><ele>358.0</ele><time>2026-05-03T08:41:09.54Z</time></trkpt><trkpt lat="44.4432678" lon="10.8331633"><ele>358.00000000000006</ele><time>2026-05-03T08:41:10.555Z</time></trkpt><trkpt lat="44.4432709" lon="10.8330342"><ele>358.0</ele><time>2026-05-03T08:41:11.528Z</time></trkpt><trkpt lat="44.4432698" lon="10.8328945"><ele>360.2</ele><time>2026-05-03T08:41:12.549Z</time></trkpt><trkpt lat="44.4432615" lon="10.8327502"><ele>362.4</ele><time>2026-05-03T08:41:13.539Z</time></trkpt><trkpt lat="44.443264" lon="10.8326089"><ele>364.59999999999997</ele><time>2026-05-03T08:41:14.538Z</time></trkpt><trkpt lat="44.443279" lon="10.8324766"><ele>366.79999999999995</ele><time>2026-05-03T08:41:15.531Z</time></trkpt><trkpt lat="44.4433025" lon="10.832349"><ele>369.0</ele><time>2026-05-03T08:41:16.535Z</time></trkpt><trkpt lat="44.4433358" lon="10.83223"><ele>371.0</ele><time>2026-05-03T08:41:17.542Z</time></trkpt><trkpt lat="44.4433744" lon="10.8321134"><ele>373.0</ele><time>2026-05-03T08:41:18.542Z</time></trkpt><trkpt lat="44.4434189" lon="10.8320002"><ele>375.0</ele><time>2026-05-03T08:41:19.551Z</time></trkpt><trkpt lat="44.4434543" lon="10.8318905"><ele>377.0</ele><time>2026-05-03T08:41:20.539Z</time></trkpt><trkpt lat="44.4434716" lon="10.8317936"><ele>379.0</ele><time>2026-05-03T08:41:21.547Z</time></trkpt><trkpt lat="44.4434007" lon="10.8316487"><ele>381.0</ele><time>2026-05-03T08:41:23.549Z</time></trkpt><trkpt lat="44.4433201" lon="10.8315965"><ele>383.0</ele><time>2026-05-03T08:41:24.545Z</time></trkpt><trkpt lat="44.4432454" lon="10.8315423"><ele>385.0</ele><time>2026-05-03T08:41:25.537Z</time></trkpt><trkpt lat="44.4432039" lon="10.8314692"><ele>387.0</ele><time>2026-05-03T08:41:26.548Z</time></trkpt><trkpt lat="44.4431996" lon="10.831372"><ele>389.00000000000006</ele><time>2026-05-03T08:41:27.545Z</time></trkpt><trkpt lat="44.4432146" lon="10.8312651"><ele>391.0</ele><time>2026-05-03T08:41:28.545Z</time></trkpt><trkpt lat="44.4432303" lon="10.831143"><ele>391.00000000000006</ele><time>2026-05-03T08:41:29.539Z</time></trkpt><trkpt lat="44.4432298" lon="10.8310092"><ele>391.0</ele><time>2026-05-03T08:41:30.542Z</time></trkpt><trkpt lat="44.4432159" lon="10.8308907"><ele>391.0</ele><time>2026-05-03T08:41:31.543Z</time></trkpt><trkpt lat="44.4431813" lon="10.8308001"><ele>391.0</ele><time>2026-05-03T08:41:32.541Z</time></trkpt><trkpt lat="44.4431312" lon="10.8307359"><ele>391.00000000000006</ele><time>2026-05-03T08:41:33.547Z</time></trkpt><trkpt lat="44.4430572" lon="10.8307222"><ele>391.0</ele><time>2026-05-03T08:41:34.545Z</time></trkpt><trkpt lat="44.44297" lon="10.8307555"><ele>392.50000000000006</ele><time>2026-05-03T08:41:35.539Z</time></trkpt><trkpt lat="44.4428814" lon="10.8307968"><ele>394.0</ele><time>2026-05-03T08:41:36.545Z</time></trkpt><trkpt lat="44.4427896" lon="10.8308335"><ele>395.5</ele><time>2026-05-03T08:41:37.54Z</time></trkpt><trkpt lat="44.4427163" lon="10.8308324"><ele>397.0</ele><time>2026-05-03T08:41:38.545Z</time></trkpt><trkpt lat="44.4426594" lon="10.8306962"><ele>398.50000000000006</ele><time>2026-05-03T08:41:40.539Z</time></trkpt><trkpt lat="44.442662" lon="10.830592"><ele>400.0</ele><time>2026-05-03T08:41:41.556Z</time></trkpt><trkpt lat="44.442681" lon="10.8304711"><ele>400.0</ele><time>2026-05-03T08:41:42.54Z</time></trkpt><trkpt lat="44.4427098" lon="10.8303518"><ele>400.0</ele><time>2026-05-03T08:41:43.545Z</time></trkpt><trkpt lat="44.4427388" lon="10.8302263"><ele>400.0</ele><time>2026-05-03T08:41:44.552Z</time></trkpt><trkpt lat="44.4427757" lon="10.8301053"><ele>400.0</ele><time>2026-05-03T08:41:45.545Z</time></trkpt><trkpt lat="44.4428207" lon="10.8299893"><ele>400.0</ele><time>2026-05-03T08:41:46.54Z</time></trkpt><trkpt lat="44.4428784" lon="10.8298714"><ele>401.6</ele><time>2026-05-03T08:41:47.544Z</time></trkpt><trkpt lat="44.4429451" lon="10.8297544"><ele>403.2</ele><time>2026-05-03T08:41:48.553Z</time></trkpt><trkpt lat="44.4430127" lon="10.829635"><ele>404.79999999999995</ele><time>2026-05-03T08:41:49.543Z</time></trkpt><trkpt lat="44.4430733" lon="10.8295208"><ele>406.4</ele><time>2026-05-03T08:41:50.549Z</time></trkpt><trkpt lat="44.4431312" lon="10.8294264"><ele>408.0</ele><time>2026-05-03T08:41:51.548Z</time></trkpt><trkpt lat="44.4431978" lon="10.8293455"><ele>410.59999999999997</ele><time>2026-05-03T08:41:53.552Z</time></trkpt><trkpt lat="44.4431459" lon="10.8292445"><ele>413.2</ele><time>2026-05-03T08:42:07.543Z</time></trkpt><trkpt lat="44.443068" lon="10.8291683"><ele>415.8</ele><time>2026-05-03T08:42:10.546Z</time></trkpt><trkpt lat="44.4429787" lon="10.8291334"><ele>418.4</ele><time>2026-05-03T08:42:12.56Z</time></trkpt><trkpt lat="44.4428736" lon="10.8291291"><ele>421.0</ele><time>2026-05-03T08:42:14.551Z</time></trkpt><trkpt lat="44.4427864" lon="10.8291027"><ele>421.00000000000006</ele><time>2026-05-03T08:42:16.539Z</time></trkpt><trkpt lat="44.4427096" lon="10.8290577"><ele>421.0</ele><time>2026-05-03T08:42:19.549Z</time></trkpt><trkpt lat="44.442637" lon="10.8290126"><ele>421.0</ele><time>2026-05-03T08:42:22.546Z</time></trkpt><trkpt lat="44.4425771" lon="10.8289759"><ele>421.0</ele><time>2026-05-03T08:42:25.548Z</time></trkpt><trkpt lat="44.4424952" lon="10.8289288"><ele>421.00000000000006</ele><time>2026-05-03T08:42:29.548Z</time></trkpt><trkpt lat="44.4424221" lon="10.828881"><ele>421.0</ele><time>2026-05-03T08:42:32.545Z</time></trkpt><trkpt lat="44.442373" lon="10.8288201"><ele>421.00000000000006</ele><time>2026-05-03T08:42:34.542Z</time></trkpt><trkpt lat="44.4423148" lon="10.8287425"><ele>421.0</ele><time>2026-05-03T08:42:36.541Z</time></trkpt><trkpt lat="44.4422542" lon="10.8287088"><ele>421.0</ele><time>2026-05-03T08:42:43.57Z</time></trkpt><trkpt lat="44.4421809" lon="10.8286769"><ele>421.0</ele><time>2026-05-03T08:42:58.543Z</time></trkpt><trkpt lat="44.4421056" lon="10.828672"><ele>421.0</ele><time>2026-05-03T08:43:02.54Z</time></trkpt><trkpt lat="44.4420375" lon="10.8286665"><ele>421.00000000000006</ele><time>2026-05-03T08:43:08.539Z</time></trkpt><trkpt lat="44.4419864" lon="10.8286132"><ele>421.0</ele><time>2026-05-03T08:43:15.542Z</time></trkpt><trkpt lat="44.4419162" lon="10.8285683"><ele>419.83333333333337</ele><time>2026-05-03T08:43:23.53Z</time></trkpt><trkpt lat="44.441873" lon="10.8284903"><ele>418.6666666666667</ele><time>2026-05-03T08:43:26.544Z</time></trkpt><trkpt lat="44.4418509" lon="10.8283881"><ele>417.5</ele><time>2026-05-03T08:43:28.545Z</time></trkpt><trkpt lat="44.441841" lon="10.8282809"><ele>416.33333333333337</ele><time>2026-05-03T08:43:30.543Z</time></trkpt><trkpt lat="44.4418287" lon="10.828187"><ele>415.1666666666667</ele><time>2026-05-03T08:43:33.543Z</time></trkpt><trkpt lat="44.441808" lon="10.8280577"><ele>414.0</ele><time>2026-05-03T08:43:36.541Z</time></trkpt><trkpt lat="44.4418037" lon="10.827911"><ele>416.8333333333333</ele><time>2026-05-03T08:43:38.544Z</time></trkpt><trkpt lat="44.4418013" lon="10.8277775"><ele>419.66666666666663</ele><time>2026-05-03T08:43:40.541Z</time></trkpt><trkpt lat="44.4418273" lon="10.8276801"><ele>422.5</ele><time>2026-05-03T08:43:42.53Z</time></trkpt><trkpt lat="44.4418873" lon="10.8276404"><ele>425.3333333333333</ele><time>2026-05-03T08:43:45.538Z</time></trkpt><trkpt lat="44.441888" lon="10.8277299"><ele>428.16666666666663</ele><time>2026-05-03T08:45:32.529Z</time></trkpt><trkpt lat="44.4419704" lon="10.8276897"><ele>431.0</ele><time>2026-05-03T08:46:46.541Z</time></trkpt><trkpt lat="44.4420492" lon="10.8276153"><ele>434.4</ele><time>2026-05-03T08:46:48.54Z</time></trkpt><trkpt lat="44.4421121" lon="10.8275121"><ele>437.8</ele><time>2026-05-03T08:46:50.56Z</time></trkpt><trkpt lat="44.4421438" lon="10.8274007"><ele>441.19999999999993</ele><time>2026-05-03T08:46:52.54Z</time></trkpt><trkpt lat="44.4421305" lon="10.827309"><ele>444.59999999999997</ele><time>2026-05-03T08:47:09.534Z</time></trkpt><trkpt lat="44.4420938" lon="10.8271002"><ele>448.0</ele><time>2026-05-03T08:47:13.523Z</time></trkpt><trkpt lat="44.4421914" lon="10.8269274"><ele>452.6666666666667</ele><time>2026-05-03T08:47:14.518Z</time></trkpt><trkpt lat="44.4421921" lon="10.8267494"><ele>457.33333333333337</ele><time>2026-05-03T08:47:15.513Z</time></trkpt><trkpt lat="44.442138" lon="10.8265028"><ele>462.0</ele><time>2026-05-03T08:47:16.517Z</time></trkpt><trkpt lat="44.4421208" lon="10.826157"><ele>472.0</ele><time>2026-05-03T08:47:17.51Z</time></trkpt><trkpt lat="44.4422715" lon="10.8255913"><ele>482.0</ele><time>2026-05-03T08:47:18.505Z</time></trkpt><trkpt lat="44.4423262" lon="10.8252929"><ele>482.0</ele><time>2026-05-03T08:47:19.513Z</time></trkpt><trkpt lat="44.4423841" lon="10.8253405"><ele>482.0</ele><time>2026-05-03T08:47:20.526Z</time></trkpt><trkpt lat="44.4422745" lon="10.8255316"><ele>482.0</ele><time>2026-05-03T08:47:21.539Z</time></trkpt><trkpt lat="44.4421895" lon="10.8257669"><ele>482.0</ele><time>2026-05-03T08:47:22.529Z</time></trkpt><trkpt lat="44.4422302" lon="10.8258345"><ele>478.0</ele><time>2026-05-03T08:47:23.525Z</time></trkpt><trkpt lat="44.4422185" lon="10.8260132"><ele>474.0</ele><time>2026-05-03T08:47:24.532Z</time></trkpt><trkpt lat="44.4421429" lon="10.8261316"><ele>470.0</ele><time>2026-05-03T08:47:25.535Z</time></trkpt><trkpt lat="44.442072" lon="10.8262593"><ele>466.0</ele><time>2026-05-03T08:47:26.531Z</time></trkpt><trkpt lat="44.4419842" lon="10.8263125"><ele>465.20000000000005</ele><time>2026-05-03T08:47:27.533Z</time></trkpt><trkpt lat="44.4418715" lon="10.8263405"><ele>464.40000000000003</ele><time>2026-05-03T08:47:29.52Z</time></trkpt><trkpt lat="44.4417838" lon="10.8263215"><ele>463.6</ele><time>2026-05-03T08:47:31.523Z</time></trkpt><trkpt lat="44.441692" lon="10.8262893"><ele>462.8</ele><time>2026-05-03T08:47:33.526Z</time></trkpt><trkpt lat="44.4416184" lon="10.8262484"><ele>462.0</ele><time>2026-05-03T08:47:35.532Z</time></trkpt><trkpt lat="44.4415451" lon="10.8261553"><ele>462.0</ele><time>2026-05-03T08:47:37.53Z</time></trkpt><trkpt lat="44.4414896" lon="10.826029"><ele>462.00000000000006</ele><time>2026-05-03T08:47:39.525Z</time></trkpt><trkpt lat="44.4414532" lon="10.8259535"><ele>462.00000000000006</ele><time>2026-05-03T08:47:40.529Z</time></trkpt><trkpt lat="44.4413999" lon="10.8258364"><ele>462.0</ele><time>2026-05-03T08:47:42.532Z</time></trkpt><trkpt lat="44.4413676" lon="10.8256905"><ele>462.0</ele><time>2026-05-03T08:47:44.529Z</time></trkpt><trkpt lat="44.4413246" lon="10.8255413"><ele>463.40000000000003</ele><time>2026-05-03T08:47:46.53Z</time></trkpt><trkpt lat="44.4412839" lon="10.8254038"><ele>464.80000000000007</ele><time>2026-05-03T08:47:48.529Z</time></trkpt><trkpt lat="44.4412766" lon="10.8252523"><ele>466.2</ele><time>2026-05-03T08:47:50.536Z</time></trkpt><trkpt lat="44.4412909" lon="10.8251197"><ele>467.6</ele><time>2026-05-03T08:47:52.552Z</time></trkpt><trkpt lat="44.4413583" lon="10.8250024"><ele>469.0</ele><time>2026-05-03T08:47:54.542Z</time></trkpt><trkpt lat="44.4414382" lon="10.8248702"><ele>472.79999999999995</ele><time>2026-05-03T08:47:56.529Z</time></trkpt><trkpt lat="44.441501" lon="10.824756"><ele>476.59999999999997</ele><time>2026-05-03T08:47:58.541Z</time></trkpt><trkpt lat="44.4415687" lon="10.8246294"><ele>480.4</ele><time>2026-05-03T08:48:00.542Z</time></trkpt><trkpt lat="44.4416126" lon="10.8245021"><ele>484.2</ele><time>2026-05-03T08:48:02.537Z</time></trkpt><trkpt lat="44.4416474" lon="10.8243718"><ele>488.0</ele><time>2026-05-03T08:48:05.538Z</time></trkpt><trkpt lat="44.4416594" lon="10.8242224"><ele>489.16666666666663</ele><time>2026-05-03T08:48:07.542Z</time></trkpt><trkpt lat="44.4416517" lon="10.8240697"><ele>490.3333333333333</ele><time>2026-05-03T08:48:09.541Z</time></trkpt><trkpt lat="44.441637" lon="10.8239256"><ele>491.5</ele><time>2026-05-03T08:48:11.538Z</time></trkpt><trkpt lat="44.4416158" lon="10.8238314"><ele>492.66666666666663</ele><time>2026-05-03T08:48:12.539Z</time></trkpt><trkpt lat="44.4415931" lon="10.8237401"><ele>493.8333333333333</ele><time>2026-05-03T08:48:13.54Z</time></trkpt><trkpt lat="44.4415694" lon="10.8236419"><ele>495.0</ele><time>2026-05-03T08:48:14.541Z</time></trkpt><trkpt lat="44.4415455" lon="10.82354"><ele>496.5</ele><time>2026-05-03T08:48:15.538Z</time></trkpt><trkpt lat="44.4415242" lon="10.823437"><ele>498.0</ele><time>2026-05-03T08:48:16.537Z</time></trkpt><trkpt lat="44.4415038" lon="10.8233275"><ele>499.5</ele><time>2026-05-03T08:48:17.544Z</time></trkpt><trkpt lat="44.4414892" lon="10.8232009"><ele>501.0</ele><time>2026-05-03T08:48:18.539Z</time></trkpt><trkpt lat="44.4414685" lon="10.8230795"><ele>502.5</ele><time>2026-05-03T08:48:19.55Z</time></trkpt><trkpt lat="44.4414463" lon="10.8229737"><ele>504.0</ele><time>2026-05-03T08:48:20.538Z</time></trkpt><trkpt lat="44.4414248" lon="10.8228679"><ele>504.0</ele><time>2026-05-03T08:48:21.547Z</time></trkpt><trkpt lat="44.4414081" lon="10.8227666"><ele>504.0</ele><time>2026-05-03T08:48:22.551Z</time></trkpt><trkpt lat="44.4413772" lon="10.822656"><ele>504.0</ele><time>2026-05-03T08:48:24.558Z</time></trkpt><trkpt lat="44.4413617" lon="10.8225679"><ele>504.0</ele><time>2026-05-03T08:48:27.558Z</time></trkpt><trkpt lat="44.4414299" lon="10.8226997"><ele>504.0</ele><time>2026-05-03T08:48:38.551Z</time></trkpt><trkpt lat="44.4415004" lon="10.8227628"><ele>504.0</ele><time>2026-05-03T08:48:39.546Z</time></trkpt><trkpt lat="44.4415764" lon="10.8228295"><ele>504.0</ele><time>2026-05-03T08:48:40.544Z</time></trkpt><trkpt lat="44.4416627" lon="10.8228867"><ele>504.0</ele><time>2026-05-03T08:48:41.543Z</time></trkpt><trkpt lat="44.4417572" lon="10.8229334"><ele>504.0</ele><time>2026-05-03T08:48:42.549Z</time></trkpt><trkpt lat="44.4418551" lon="10.8229807"><ele>504.0</ele><time>2026-05-03T08:48:43.549Z</time></trkpt><trkpt lat="44.4419576" lon="10.823036"><ele>504.0</ele><time>2026-05-03T08:48:44.541Z</time></trkpt><trkpt lat="44.442072" lon="10.8231037"><ele>505.75</ele><time>2026-05-03T08:48:45.545Z</time></trkpt><trkpt lat="44.4421794" lon="10.8231747"><ele>507.5</ele><time>2026-05-03T08:48:46.544Z</time></trkpt><trkpt lat="44.4422887" lon="10.8232616"><ele>509.25</ele><time>2026-05-03T08:48:47.547Z</time></trkpt><trkpt lat="44.4423932" lon="10.8233557"><ele>511.0</ele><time>2026-05-03T08:48:48.548Z</time></trkpt><trkpt lat="44.4424971" lon="10.8234507"><ele>509.8</ele><time>2026-05-03T08:48:49.551Z</time></trkpt><trkpt lat="44.4425902" lon="10.8235359"><ele>508.6</ele><time>2026-05-03T08:48:50.548Z</time></trkpt><trkpt lat="44.442675" lon="10.8236013"><ele>507.4</ele><time>2026-05-03T08:48:51.549Z</time></trkpt><trkpt lat="44.4427552" lon="10.8236727"><ele>506.2</ele><time>2026-05-03T08:48:52.545Z</time></trkpt><trkpt lat="44.4428459" lon="10.8237421"><ele>505.0</ele><time>2026-05-03T08:48:53.546Z</time></trkpt><trkpt lat="44.4429473" lon="10.8238003"><ele>505.75</ele><time>2026-05-03T08:48:54.568Z</time></trkpt><trkpt lat="44.4430659" lon="10.82386"><ele>506.5</ele><time>2026-05-03T08:48:55.552Z</time></trkpt><trkpt lat="44.4431909" lon="10.8239494"><ele>507.25</ele><time>2026-05-03T08:48:56.544Z</time></trkpt><trkpt lat="44.4433184" lon="10.8240277"><ele>508.0</ele><time>2026-05-03T08:48:57.541Z</time></trkpt><trkpt lat="44.4434575" lon="10.8241105"><ele>508.0</ele><time>2026-05-03T08:48:58.546Z</time></trkpt><trkpt lat="44.4435858" lon="10.824188"><ele>508.0</ele><time>2026-05-03T08:48:59.545Z</time></trkpt><trkpt lat="44.4437211" lon="10.8242722"><ele>508.0</ele><time>2026-05-03T08:49:00.542Z</time></trkpt><trkpt lat="44.4438531" lon="10.8243445"><ele>508.0</ele><time>2026-05-03T08:49:01.551Z</time></trkpt><trkpt lat="44.4439765" lon="10.8244155"><ele>505.25</ele><time>2026-05-03T08:49:02.544Z</time></trkpt><trkpt lat="44.4440995" lon="10.8244618"><ele>502.5</ele><time>2026-05-03T08:49:03.546Z</time></trkpt><trkpt lat="44.4442327" lon="10.8244843"><ele>499.75</ele><time>2026-05-03T08:49:04.547Z</time></trkpt><trkpt lat="44.4443659" lon="10.8244942"><ele>497.0</ele><time>2026-05-03T08:49:05.551Z</time></trkpt><trkpt lat="44.4444961" lon="10.8244794"><ele>497.0</ele><time>2026-05-03T08:49:06.548Z</time></trkpt><trkpt lat="44.4446192" lon="10.8244445"><ele>497.0</ele><time>2026-05-03T08:49:07.546Z</time></trkpt><trkpt lat="44.4447313" lon="10.8244035"><ele>497.0</ele><time>2026-05-03T08:49:08.541Z</time></trkpt><trkpt lat="44.4448392" lon="10.8243722"><ele>497.0</ele><time>2026-05-03T08:49:09.543Z</time></trkpt><trkpt lat="44.4449429" lon="10.8243649"><ele>496.75</ele><time>2026-05-03T08:49:10.546Z</time></trkpt><trkpt lat="44.4450502" lon="10.8243806"><ele>496.5</ele><time>2026-05-03T08:49:11.548Z</time></trkpt><trkpt lat="44.445152" lon="10.8244266"><ele>496.25</ele><time>2026-05-03T08:49:12.547Z</time></trkpt><trkpt lat="44.44525" lon="10.8244928"><ele>496.0</ele><time>2026-05-03T08:49:13.546Z</time></trkpt><trkpt lat="44.4453622" lon="10.8245755"><ele>495.75</ele><time>2026-05-03T08:49:14.545Z</time></trkpt><trkpt lat="44.44547" lon="10.8246575"><ele>495.5</ele><time>2026-05-03T08:49:15.55Z</time></trkpt><trkpt lat="44.445593" lon="10.824733"><ele>495.25</ele><time>2026-05-03T08:49:16.543Z</time></trkpt><trkpt lat="44.445731" lon="10.8248119"><ele>495.0</ele><time>2026-05-03T08:49:17.543Z</time></trkpt><trkpt lat="44.4458671" lon="10.8248716"><ele>495.0</ele><time>2026-05-03T08:49:18.547Z</time></trkpt><trkpt lat="44.4460082" lon="10.8249211"><ele>495.0</ele><time>2026-05-03T08:49:19.552Z</time></trkpt><trkpt lat="44.4461408" lon="10.8249296"><ele>495.0</ele><time>2026-05-03T08:49:20.542Z</time></trkpt><trkpt lat="44.4462833" lon="10.8249011"><ele>495.0</ele><time>2026-05-03T08:49:21.555Z</time></trkpt><trkpt lat="44.4464352" lon="10.8248469"><ele>493.75</ele><time>2026-05-03T08:49:22.544Z</time></trkpt><trkpt lat="44.4465622" lon="10.8248014"><ele>492.5</ele><time>2026-05-03T08:49:23.544Z</time></trkpt><trkpt lat="44.4466847" lon="10.8247687"><ele>491.25</ele><time>2026-05-03T08:49:24.55Z</time></trkpt><trkpt lat="44.4467948" lon="10.8247614"><ele>490.0</ele><time>2026-05-03T08:49:25.562Z</time></trkpt><trkpt lat="44.4469036" lon="10.8247589"><ele>490.0</ele><time>2026-05-03T08:49:26.552Z</time></trkpt><trkpt lat="44.4469987" lon="10.8247985"><ele>490.0</ele><time>2026-05-03T08:49:27.554Z</time></trkpt><trkpt lat="44.4470888" lon="10.8248686"><ele>490.0</ele><time>2026-05-03T08:49:28.545Z</time></trkpt><trkpt lat="44.4471648" lon="10.8249579"><ele>490.0</ele><time>2026-05-03T08:49:29.55Z</time></trkpt><trkpt lat="44.4472246" lon="10.8250468"><ele>490.0</ele><time>2026-05-03T08:49:30.55Z</time></trkpt><trkpt lat="44.4472633" lon="10.8251991"><ele>487.75</ele><time>2026-05-03T08:49:32.541Z</time></trkpt><trkpt lat="44.4473542" lon="10.8253097"><ele>485.5</ele><time>2026-05-03T08:49:34.55Z</time></trkpt><trkpt lat="44.4474494" lon="10.8253392"><ele>483.25</ele><time>2026-05-03T08:49:35.549Z</time></trkpt><trkpt lat="44.4475676" lon="10.8253471"><ele>481.0</ele><time>2026-05-03T08:49:36.534Z</time></trkpt><trkpt lat="44.4476839" lon="10.8253632"><ele>481.0</ele><time>2026-05-03T08:49:37.545Z</time></trkpt><trkpt lat="44.4477906" lon="10.8253745"><ele>481.0</ele><time>2026-05-03T08:49:38.546Z</time></trkpt><trkpt lat="44.4478919" lon="10.8253825"><ele>481.0</ele><time>2026-05-03T08:49:39.54Z</time></trkpt><trkpt lat="44.4479839" lon="10.8253849"><ele>481.0</ele><time>2026-05-03T08:49:40.546Z</time></trkpt><trkpt lat="44.4480666" lon="10.8253994"><ele>481.0</ele><time>2026-05-03T08:49:41.543Z</time></trkpt><trkpt lat="44.4481646" lon="10.8254195"><ele>480.0</ele><time>2026-05-03T08:49:42.537Z</time></trkpt><trkpt lat="44.4482695" lon="10.8254399"><ele>479.0</ele><time>2026-05-03T08:49:43.54Z</time></trkpt><trkpt lat="44.448397" lon="10.8254611"><ele>478.0</ele><time>2026-05-03T08:49:44.543Z</time></trkpt><trkpt lat="44.4485265" lon="10.8255027"><ele>477.0</ele><time>2026-05-03T08:49:45.546Z</time></trkpt><trkpt lat="44.448656" lon="10.8255535"><ele>477.0</ele><time>2026-05-03T08:49:46.54Z</time></trkpt><trkpt lat="44.448783" lon="10.8256064"><ele>477.0</ele><time>2026-05-03T08:49:47.542Z</time></trkpt><trkpt lat="44.4489101" lon="10.8256551"><ele>477.0</ele><time>2026-05-03T08:49:48.541Z</time></trkpt><trkpt lat="44.4490306" lon="10.8256948"><ele>477.0</ele><time>2026-05-03T08:49:49.551Z</time></trkpt><trkpt lat="44.449148" lon="10.8257303"><ele>475.25</ele><time>2026-05-03T08:49:50.545Z</time></trkpt><trkpt lat="44.449268" lon="10.8257611"><ele>473.5</ele><time>2026-05-03T08:49:51.539Z</time></trkpt><trkpt lat="44.4493877" lon="10.8257784"><ele>471.75</ele><time>2026-05-03T08:49:52.544Z</time></trkpt><trkpt lat="44.4494996" lon="10.8257865"><ele>470.0</ele><time>2026-05-03T08:49:53.537Z</time></trkpt><trkpt lat="44.4496114" lon="10.8257862"><ele>468.16666666666663</ele><time>2026-05-03T08:49:54.54Z</time></trkpt><trkpt lat="44.4497053" lon="10.8258036"><ele>466.3333333333333</ele><time>2026-05-03T08:49:55.549Z</time></trkpt><trkpt lat="44.4497774" lon="10.8258466"><ele>464.5</ele><time>2026-05-03T08:49:56.565Z</time></trkpt><trkpt lat="44.4498155" lon="10.8259278"><ele>462.66666666666663</ele><time>2026-05-03T08:49:57.547Z</time></trkpt><trkpt lat="44.4498518" lon="10.8260527"><ele>460.8333333333333</ele><time>2026-05-03T08:49:58.541Z</time></trkpt><trkpt lat="44.4498921" lon="10.8261828"><ele>459.0</ele><time>2026-05-03T08:49:59.55Z</time></trkpt><trkpt lat="44.4499289" lon="10.8262889"><ele>458.4</ele><time>2026-05-03T08:50:00.546Z</time></trkpt><trkpt lat="44.4500047" lon="10.8263597"><ele>457.79999999999995</ele><time>2026-05-03T08:50:01.55Z</time></trkpt><trkpt lat="44.4500827" lon="10.8264173"><ele>457.20000000000005</ele><time>2026-05-03T08:50:02.533Z</time></trkpt><trkpt lat="44.4501605" lon="10.826474"><ele>456.6</ele><time>2026-05-03T08:50:03.539Z</time></trkpt><trkpt lat="44.4502415" lon="10.8265471"><ele>456.0</ele><time>2026-05-03T08:50:04.539Z</time></trkpt><trkpt lat="44.4503236" lon="10.8266166"><ele>456.0</ele><time>2026-05-03T08:50:05.543Z</time></trkpt><trkpt lat="44.4504145" lon="10.8266826"><ele>456.0</ele><time>2026-05-03T08:50:06.545Z</time></trkpt><trkpt lat="44.4505049" lon="10.8267509"><ele>456.0</ele><time>2026-05-03T08:50:07.533Z</time></trkpt><trkpt lat="44.4506002" lon="10.8268196"><ele>456.0</ele><time>2026-05-03T08:50:08.545Z</time></trkpt><trkpt lat="44.4506953" lon="10.8268696"><ele>456.0</ele><time>2026-05-03T08:50:09.547Z</time></trkpt><trkpt lat="44.4507801" lon="10.8268927"><ele>455.1666666666667</ele><time>2026-05-03T08:50:10.539Z</time></trkpt><trkpt lat="44.4508457" lon="10.8269113"><ele>454.33333333333337</ele><time>2026-05-03T08:50:11.537Z</time></trkpt><trkpt lat="44.4509432" lon="10.8268663"><ele>453.5</ele><time>2026-05-03T08:50:13.541Z</time></trkpt><trkpt lat="44.4509799" lon="10.8267695"><ele>452.6666666666667</ele><time>2026-05-03T08:50:14.543Z</time></trkpt><trkpt lat="44.4509999" lon="10.826658"><ele>451.83333333333337</ele><time>2026-05-03T08:50:15.536Z</time></trkpt><trkpt lat="44.4510197" lon="10.8265467"><ele>451.0</ele><time>2026-05-03T08:50:16.539Z</time></trkpt><trkpt lat="44.451034" lon="10.8264462"><ele>451.00000000000006</ele><time>2026-05-03T08:50:17.538Z</time></trkpt><trkpt lat="44.4510263" lon="10.8263473"><ele>451.0</ele><time>2026-05-03T08:50:18.538Z</time></trkpt><trkpt lat="44.4509922" lon="10.8262506"><ele>451.0</ele><time>2026-05-03T08:50:19.542Z</time></trkpt><trkpt lat="44.4509247" lon="10.8261739"><ele>451.0</ele><time>2026-05-03T08:50:20.533Z</time></trkpt><trkpt lat="44.4508426" lon="10.826108"><ele>451.00000000000006</ele><time>2026-05-03T08:50:21.537Z</time></trkpt><trkpt lat="44.4507811" lon="10.8260557"><ele>451.0</ele><time>2026-05-03T08:50:22.539Z</time></trkpt><trkpt lat="44.450711" lon="10.8260106"><ele>451.00000000000006</ele><time>2026-05-03T08:50:24.536Z</time></trkpt><trkpt lat="44.4506333" lon="10.8260198"><ele>451.0</ele><time>2026-05-03T08:50:27.557Z</time></trkpt><trkpt lat="44.4505286" lon="10.8260269"><ele>451.0</ele><time>2026-05-03T08:50:29.534Z</time></trkpt><trkpt lat="44.4504549" lon="10.8260335"><ele>451.0</ele><time>2026-05-03T08:50:30.533Z</time></trkpt><trkpt lat="44.4503777" lon="10.826031"><ele>451.00000000000006</ele><time>2026-05-03T08:50:31.532Z</time></trkpt><trkpt lat="44.4503119" lon="10.8259884"><ele>451.0</ele><time>2026-05-03T08:50:32.526Z</time></trkpt><trkpt lat="44.4502413" lon="10.8259186"><ele>452.6</ele><time>2026-05-03T08:50:33.534Z</time></trkpt><trkpt lat="44.450167" lon="10.825841"><ele>454.20000000000005</ele><time>2026-05-03T08:50:34.527Z</time></trkpt><trkpt lat="44.4501005" lon="10.8257454"><ele>455.79999999999995</ele><time>2026-05-03T08:50:35.525Z</time></trkpt><trkpt lat="44.4500395" lon="10.8256267"><ele>457.4</ele><time>2026-05-03T08:50:36.527Z</time></trkpt><trkpt lat="44.4499879" lon="10.8254931"><ele>459.0</ele><time>2026-05-03T08:50:37.527Z</time></trkpt><trkpt lat="44.4499541" lon="10.8253441"><ele>459.0</ele><time>2026-05-03T08:50:38.532Z</time></trkpt><trkpt lat="44.4499224" lon="10.8251901"><ele>459.0</ele><time>2026-05-03T08:50:39.534Z</time></trkpt><trkpt lat="44.4498921" lon="10.8250443"><ele>459.0</ele><time>2026-05-03T08:50:40.541Z</time></trkpt><trkpt lat="44.449861" lon="10.8249181"><ele>459.0</ele><time>2026-05-03T08:50:41.538Z</time></trkpt><trkpt lat="44.4498398" lon="10.8248043"><ele>459.0</ele><time>2026-05-03T08:50:42.539Z</time></trkpt><trkpt lat="44.4498211" lon="10.8247027"><ele>460.5</ele><time>2026-05-03T08:50:43.547Z</time></trkpt><trkpt lat="44.4497774" lon="10.8245535"><ele>462.0</ele><time>2026-05-03T08:50:45.547Z</time></trkpt><trkpt lat="44.4497323" lon="10.8244825"><ele>463.5</ele><time>2026-05-03T08:50:46.536Z</time></trkpt><trkpt lat="44.449677" lon="10.824418"><ele>465.0</ele><time>2026-05-03T08:50:47.541Z</time></trkpt><trkpt lat="44.4496069" lon="10.8243653"><ele>466.5</ele><time>2026-05-03T08:50:48.538Z</time></trkpt><trkpt lat="44.449531" lon="10.8243109"><ele>468.0</ele><time>2026-05-03T08:50:49.544Z</time></trkpt><trkpt lat="44.4494553" lon="10.824246"><ele>464.6666666666667</ele><time>2026-05-03T08:50:50.54Z</time></trkpt><trkpt lat="44.4493844" lon="10.8241756"><ele>461.33333333333337</ele><time>2026-05-03T08:50:51.541Z</time></trkpt><trkpt lat="44.4493243" lon="10.8240968"><ele>458.0</ele><time>2026-05-03T08:50:52.541Z</time></trkpt><trkpt lat="44.4492627" lon="10.8240093"><ele>454.6666666666667</ele><time>2026-05-03T08:50:53.535Z</time></trkpt><trkpt lat="44.4492094" lon="10.8239326"><ele>451.33333333333337</ele><time>2026-05-03T08:50:54.53Z</time></trkpt><trkpt lat="44.4491558" lon="10.8238568"><ele>448.0</ele><time>2026-05-03T08:50:55.536Z</time></trkpt><trkpt lat="44.4491046" lon="10.8237751"><ele>448.0</ele><time>2026-05-03T08:50:56.539Z</time></trkpt><trkpt lat="44.4490625" lon="10.8236808"><ele>448.0</ele><time>2026-05-03T08:50:57.537Z</time></trkpt><trkpt lat="44.4490478" lon="10.8235844"><ele>448.0</ele><time>2026-05-03T08:50:58.553Z</time></trkpt><trkpt lat="44.4490562" lon="10.8234941"><ele>448.0</ele><time>2026-05-03T08:51:01.542Z</time></trkpt><trkpt lat="44.4490757" lon="10.823395"><ele>448.0</ele><time>2026-05-03T08:51:10.547Z</time></trkpt><trkpt lat="44.4490703" lon="10.8233069"><ele>448.0</ele><time>2026-05-03T08:51:11.541Z</time></trkpt><trkpt lat="44.4490656" lon="10.8232161"><ele>448.0</ele><time>2026-05-03T08:51:12.542Z</time></trkpt><trkpt lat="44.4490557" lon="10.8231252"><ele>446.14285714285717</ele><time>2026-05-03T08:51:13.542Z</time></trkpt><trkpt lat="44.4490476" lon="10.8230372"><ele>444.2857142857143</ele><time>2026-05-03T08:51:14.541Z</time></trkpt><trkpt lat="44.4490307" lon="10.8229519"><ele>442.42857142857144</ele><time>2026-05-03T08:51:15.533Z</time></trkpt><trkpt lat="44.4490231" lon="10.8228578"><ele>440.57142857142856</ele><time>2026-05-03T08:51:16.541Z</time></trkpt><trkpt lat="44.4490317" lon="10.822764"><ele>438.7142857142857</ele><time>2026-05-03T08:51:17.535Z</time></trkpt><trkpt lat="44.4490561" lon="10.8226751"><ele>436.8571428571429</ele><time>2026-05-03T08:51:18.541Z</time></trkpt><trkpt lat="44.4490669" lon="10.8225877"><ele>435.0</ele><time>2026-05-03T08:51:19.538Z</time></trkpt><trkpt lat="44.449019" lon="10.822448"><ele>434.8333333333333</ele><time>2026-05-03T08:51:21.537Z</time></trkpt><trkpt lat="44.4489653" lon="10.8223969"><ele>434.66666666666663</ele><time>2026-05-03T08:51:22.54Z</time></trkpt><trkpt lat="44.4489024" lon="10.8223412"><ele>434.5</ele><time>2026-05-03T08:51:23.544Z</time></trkpt><trkpt lat="44.4488398" lon="10.8222784"><ele>434.3333333333333</ele><time>2026-05-03T08:51:24.543Z</time></trkpt><trkpt lat="44.4487738" lon="10.8222166"><ele>434.16666666666663</ele><time>2026-05-03T08:51:25.547Z</time></trkpt><trkpt lat="44.4487072" lon="10.8221502"><ele>434.0</ele><time>2026-05-03T08:51:26.546Z</time></trkpt><trkpt lat="44.448641" lon="10.822078"><ele>437.49999999999994</ele><time>2026-05-03T08:51:27.549Z</time></trkpt><trkpt lat="44.4485813" lon="10.8220019"><ele>441.0</ele><time>2026-05-03T08:51:28.545Z</time></trkpt><trkpt lat="44.448519" lon="10.8219224"><ele>444.5</ele><time>2026-05-03T08:51:29.56Z</time></trkpt><trkpt lat="44.4484579" lon="10.8218429"><ele>448.0</ele><time>2026-05-03T08:51:30.542Z</time></trkpt><trkpt lat="44.4484" lon="10.8217607"><ele>451.49999999999994</ele><time>2026-05-03T08:51:31.544Z</time></trkpt><trkpt lat="44.4483432" lon="10.821685"><ele>455.0</ele><time>2026-05-03T08:51:32.542Z</time></trkpt><trkpt lat="44.4482995" lon="10.8216215"><ele>456.0</ele><time>2026-05-03T08:51:33.544Z</time></trkpt><trkpt lat="44.4482768" lon="10.8214892"><ele>457.0</ele><time>2026-05-03T08:51:35.535Z</time></trkpt><trkpt lat="44.4483387" lon="10.8213157"><ele>458.0</ele><time>2026-05-03T08:51:37.541Z</time></trkpt><trkpt lat="44.4483948" lon="10.8212329"><ele>459.0</ele><time>2026-05-03T08:51:38.54Z</time></trkpt><trkpt lat="44.4484445" lon="10.8211735"><ele>460.0</ele><time>2026-05-03T08:51:39.54Z</time></trkpt><trkpt lat="44.4485045" lon="10.8211302"><ele>460.0</ele><time>2026-05-03T08:51:41.544Z</time></trkpt><trkpt lat="44.4484529" lon="10.8210186"><ele>460.0</ele><time>2026-05-03T08:57:15.553Z</time></trkpt><trkpt lat="44.4483762" lon="10.8209061"><ele>460.0</ele><time>2026-05-03T08:57:17.551Z</time></trkpt><trkpt lat="44.4482665" lon="10.8208245"><ele>460.0</ele><time>2026-05-03T08:57:19.556Z</time></trkpt><trkpt lat="44.4481795" lon="10.8207627"><ele>460.0</ele><time>2026-05-03T08:57:21.543Z</time></trkpt><trkpt lat="44.4481601" lon="10.8206684"><ele>461.50000000000006</ele><time>2026-05-03T08:57:27.557Z</time></trkpt><trkpt lat="44.4482121" lon="10.820599"><ele>463.0</ele><time>2026-05-03T08:57:31.553Z</time></trkpt><trkpt lat="44.4482754" lon="10.8205568"><ele>464.5</ele><time>2026-05-03T08:57:34.562Z</time></trkpt><trkpt lat="44.4483299" lon="10.8204874"><ele>466.0</ele><time>2026-05-03T08:57:37.556Z</time></trkpt><trkpt lat="44.4483868" lon="10.8203944"><ele>467.50000000000006</ele><time>2026-05-03T08:57:40.555Z</time></trkpt><trkpt lat="44.4484309" lon="10.8202894"><ele>469.0</ele><time>2026-05-03T08:57:43.555Z</time></trkpt><trkpt lat="44.4484763" lon="10.8201848"><ele>467.33333333333337</ele><time>2026-05-03T08:57:46.547Z</time></trkpt><trkpt lat="44.4485249" lon="10.8200917"><ele>465.6666666666667</ele><time>2026-05-03T08:57:50.551Z</time></trkpt><trkpt lat="44.4485695" lon="10.820015"><ele>464.0</ele><time>2026-05-03T08:57:52.563Z</time></trkpt><trkpt lat="44.4486135" lon="10.8199387"><ele>462.33333333333337</ele><time>2026-05-03T08:57:54.555Z</time></trkpt><trkpt lat="44.4486578" lon="10.8198285"><ele>460.6666666666667</ele><time>2026-05-03T08:57:57.555Z</time></trkpt><trkpt lat="44.4486589" lon="10.8197306"><ele>459.0</ele><time>2026-05-03T08:58:00.548Z</time></trkpt><trkpt lat="44.4486085" lon="10.819628"><ele>459.0</ele><time>2026-05-03T08:58:03.547Z</time></trkpt><trkpt lat="44.4485575" lon="10.8195563"><ele>459.0</ele><time>2026-05-03T08:58:05.547Z</time></trkpt><trkpt lat="44.4485517" lon="10.8194435"><ele>459.0</ele><time>2026-05-03T08:58:08.546Z</time></trkpt><trkpt lat="44.4485679" lon="10.8193533"><ele>459.0</ele><time>2026-05-03T08:58:10.575Z</time></trkpt><trkpt lat="44.4485994" lon="10.8192406"><ele>459.0</ele><time>2026-05-03T08:58:12.549Z</time></trkpt><trkpt lat="44.4486324" lon="10.8191198"><ele>459.0</ele><time>2026-05-03T08:58:14.545Z</time></trkpt><trkpt lat="44.448661" lon="10.8190361"><ele>455.6666666666667</ele><time>2026-05-03T08:58:16.547Z</time></trkpt><trkpt lat="44.44868" lon="10.8189444"><ele>452.33333333333337</ele><time>2026-05-03T08:58:18.549Z</time></trkpt><trkpt lat="44.4486889" lon="10.8188487"><ele>449.0</ele><time>2026-05-03T08:58:20.546Z</time></trkpt><trkpt lat="44.4486985" lon="10.8187402"><ele>445.6666666666667</ele><time>2026-05-03T08:58:22.546Z</time></trkpt><trkpt lat="44.4486906" lon="10.8186235"><ele>442.33333333333337</ele><time>2026-05-03T08:58:24.541Z</time></trkpt><trkpt lat="44.4486271" lon="10.8185248"><ele>439.0</ele><time>2026-05-03T08:58:27.546Z</time></trkpt><trkpt lat="44.4485153" lon="10.8184762"><ele>435.57142857142856</ele><time>2026-05-03T08:58:29.532Z</time></trkpt><trkpt lat="44.4484479" lon="10.818461"><ele>432.1428571428571</ele><time>2026-05-03T08:58:30.535Z</time></trkpt><trkpt lat="44.4483765" lon="10.8184472"><ele>428.7142857142857</ele><time>2026-05-03T08:58:31.544Z</time></trkpt><trkpt lat="44.4483056" lon="10.8184378"><ele>425.2857142857143</ele><time>2026-05-03T08:58:32.548Z</time></trkpt><trkpt lat="44.4482303" lon="10.8184434"><ele>421.8571428571429</ele><time>2026-05-03T08:58:33.548Z</time></trkpt><trkpt lat="44.4481627" lon="10.8184444"><ele>418.42857142857144</ele><time>2026-05-03T08:58:34.544Z</time></trkpt><trkpt lat="44.4480926" lon="10.8184536"><ele>415.0</ele><time>2026-05-03T08:58:35.542Z</time></trkpt><trkpt lat="44.4480225" lon="10.8184604"><ele>416.50000000000006</ele><time>2026-05-03T08:58:36.536Z</time></trkpt><trkpt lat="44.4479555" lon="10.8184714"><ele>418.0</ele><time>2026-05-03T08:58:37.544Z</time></trkpt><trkpt lat="44.4478857" lon="10.8184834"><ele>419.5</ele><time>2026-05-03T08:58:38.542Z</time></trkpt><trkpt lat="44.4478043" lon="10.8184892"><ele>421.0</ele><time>2026-05-03T08:58:39.539Z</time></trkpt><trkpt lat="44.4477156" lon="10.8184652"><ele>422.50000000000006</ele><time>2026-05-03T08:58:40.535Z</time></trkpt><trkpt lat="44.4476367" lon="10.8184371"><ele>424.0</ele><time>2026-05-03T08:58:41.561Z</time></trkpt><trkpt lat="44.4475621" lon="10.8184164"><ele>424.00000000000006</ele><time>2026-05-03T08:58:42.545Z</time></trkpt><trkpt lat="44.447496" lon="10.8183976"><ele>424.0</ele><time>2026-05-03T08:58:43.551Z</time></trkpt><trkpt lat="44.4474178" lon="10.8183748"><ele>424.0</ele><time>2026-05-03T08:58:45.556Z</time></trkpt><trkpt lat="44.4474153" lon="10.8182806"><ele>424.0</ele><time>2026-05-03T08:58:48.548Z</time></trkpt><trkpt lat="44.4474355" lon="10.8181844"><ele>424.00000000000006</ele><time>2026-05-03T08:58:51.545Z</time></trkpt><trkpt lat="44.4474615" lon="10.8180794"><ele>424.0</ele><time>2026-05-03T08:58:55.564Z</time></trkpt><trkpt lat="44.4475128" lon="10.8179704"><ele>424.0</ele><time>2026-05-03T08:58:57.562Z</time></trkpt><trkpt lat="44.4475646" lon="10.8178498"><ele>424.0</ele><time>2026-05-03T08:58:59.553Z</time></trkpt><trkpt lat="44.4476009" lon="10.817764"><ele>424.0</ele><time>2026-05-03T08:59:01.562Z</time></trkpt><trkpt lat="44.4476088" lon="10.8176413"><ele>424.0</ele><time>2026-05-03T08:59:04.566Z</time></trkpt><trkpt lat="44.4475146" lon="10.8175715"><ele>424.0</ele><time>2026-05-03T08:59:07.565Z</time></trkpt><trkpt lat="44.4473947" lon="10.8175335"><ele>422.1666666666667</ele><time>2026-05-03T08:59:09.568Z</time></trkpt><trkpt lat="44.4473286" lon="10.8175046"><ele>420.33333333333337</ele><time>2026-05-03T08:59:10.568Z</time></trkpt><trkpt lat="44.4472625" lon="10.8174703"><ele>418.5</ele><time>2026-05-03T08:59:11.562Z</time></trkpt><trkpt lat="44.4471622" lon="10.8174125"><ele>416.66666666666663</ele><time>2026-05-03T08:59:13.561Z</time></trkpt><trkpt lat="44.4470872" lon="10.8173807"><ele>414.8333333333333</ele><time>2026-05-03T08:59:15.568Z</time></trkpt><trkpt lat="44.4470085" lon="10.8173712"><ele>413.0</ele><time>2026-05-03T08:59:17.568Z</time></trkpt><trkpt lat="44.4469124" lon="10.8173925"><ele>412.99999999999994</ele><time>2026-05-03T08:59:19.569Z</time></trkpt><trkpt lat="44.4467945" lon="10.8174405"><ele>413.0</ele><time>2026-05-03T08:59:21.555Z</time></trkpt><trkpt lat="44.4467327" lon="10.8174776"><ele>413.0</ele><time>2026-05-03T08:59:22.562Z</time></trkpt><trkpt lat="44.4466674" lon="10.8175166"><ele>413.0</ele><time>2026-05-03T08:59:23.555Z</time></trkpt><trkpt lat="44.4466073" lon="10.8175607"><ele>412.99999999999994</ele><time>2026-05-03T08:59:24.552Z</time></trkpt><trkpt lat="44.4465451" lon="10.8175949"><ele>413.0</ele><time>2026-05-03T08:59:25.552Z</time></trkpt><trkpt lat="44.4464806" lon="10.8176272"><ele>412.99999999999994</ele><time>2026-05-03T08:59:26.544Z</time></trkpt><trkpt lat="44.4464158" lon="10.817649"><ele>413.0</ele><time>2026-05-03T08:59:27.551Z</time></trkpt><trkpt lat="44.446352" lon="10.817655"><ele>413.0</ele><time>2026-05-03T08:59:28.546Z</time></trkpt><trkpt lat="44.4462463" lon="10.8176019"><ele>413.0</ele><time>2026-05-03T08:59:30.55Z</time></trkpt><trkpt lat="44.4461588" lon="10.8175231"><ele>412.99999999999994</ele><time>2026-05-03T08:59:32.552Z</time></trkpt><trkpt lat="44.4460806" lon="10.8174505"><ele>413.0</ele><time>2026-05-03T08:59:34.56Z</time></trkpt><trkpt lat="44.4459909" lon="10.8173979"><ele>413.0</ele><time>2026-05-03T08:59:36.553Z</time></trkpt><trkpt lat="44.4458831" lon="10.8173321"><ele>413.0</ele><time>2026-05-03T08:59:38.564Z</time></trkpt><trkpt lat="44.4458189" lon="10.8173037"><ele>413.0</ele><time>2026-05-03T08:59:39.56Z</time></trkpt><trkpt lat="44.4457098" lon="10.8172524"><ele>413.0</ele><time>2026-05-03T08:59:41.559Z</time></trkpt><trkpt lat="44.4455944" lon="10.8172049"><ele>413.0</ele><time>2026-05-03T08:59:43.565Z</time></trkpt><trkpt lat="44.4454687" lon="10.8171875"><ele>413.85714285714283</ele><time>2026-05-03T08:59:45.552Z</time></trkpt><trkpt lat="44.4454007" lon="10.8171715"><ele>414.7142857142857</ele><time>2026-05-03T08:59:46.557Z</time></trkpt><trkpt lat="44.4453298" lon="10.8171451"><ele>415.57142857142856</ele><time>2026-05-03T08:59:47.549Z</time></trkpt><trkpt lat="44.4452592" lon="10.817123"><ele>416.42857142857144</ele><time>2026-05-03T08:59:48.553Z</time></trkpt><trkpt lat="44.4451885" lon="10.8171086"><ele>417.2857142857143</ele><time>2026-05-03T08:59:49.55Z</time></trkpt><trkpt lat="44.4451181" lon="10.8170938"><ele>418.1428571428571</ele><time>2026-05-03T08:59:50.549Z</time></trkpt><trkpt lat="44.4450506" lon="10.8170845"><ele>419.0</ele><time>2026-05-03T08:59:51.555Z</time></trkpt><trkpt lat="44.4449858" lon="10.8170791"><ele>419.0</ele><time>2026-05-03T08:59:52.554Z</time></trkpt><trkpt lat="44.4448782" lon="10.8170615"><ele>419.0</ele><time>2026-05-03T08:59:54.537Z</time></trkpt><trkpt lat="44.4447987" lon="10.8170005"><ele>419.0</ele><time>2026-05-03T08:59:56.519Z</time></trkpt><trkpt lat="44.4447386" lon="10.8168505"><ele>419.0</ele><time>2026-05-03T08:59:58.533Z</time></trkpt><trkpt lat="44.4446946" lon="10.8167592"><ele>419.0</ele><time>2026-05-03T08:59:59.53Z</time></trkpt><trkpt lat="44.4446463" lon="10.8166681"><ele>418.8333333333333</ele><time>2026-05-03T09:00:00.526Z</time></trkpt><trkpt lat="44.4445881" lon="10.8165836"><ele>418.66666666666663</ele><time>2026-05-03T09:00:01.534Z</time></trkpt><trkpt lat="44.444524" lon="10.8165073"><ele>418.5</ele><time>2026-05-03T09:00:02.535Z</time></trkpt><trkpt lat="44.4444567" lon="10.8164264"><ele>418.33333333333337</ele><time>2026-05-03T09:00:03.535Z</time></trkpt><trkpt lat="44.4443871" lon="10.8163515"><ele>418.1666666666667</ele><time>2026-05-03T09:00:04.535Z</time></trkpt><trkpt lat="44.4443133" lon="10.8162815"><ele>418.0</ele><time>2026-05-03T09:00:05.53Z</time></trkpt><trkpt lat="44.4442393" lon="10.8162179"><ele>418.00000000000006</ele><time>2026-05-03T09:00:06.536Z</time></trkpt><trkpt lat="44.4441627" lon="10.8161532"><ele>418.0</ele><time>2026-05-03T09:00:07.533Z</time></trkpt><trkpt lat="44.4440893" lon="10.8160874"><ele>418.0</ele><time>2026-05-03T09:00:08.534Z</time></trkpt><trkpt lat="44.4440168" lon="10.8160178"><ele>418.0</ele><time>2026-05-03T09:00:09.544Z</time></trkpt><trkpt lat="44.4439502" lon="10.815947"><ele>418.00000000000006</ele><time>2026-05-03T09:00:10.531Z</time></trkpt><trkpt lat="44.4438892" lon="10.8158699"><ele>418.0</ele><time>2026-05-03T09:00:11.537Z</time></trkpt><trkpt lat="44.4438358" lon="10.8157883"><ele>418.1666666666667</ele><time>2026-05-03T09:00:12.541Z</time></trkpt><trkpt lat="44.4437758" lon="10.815714"><ele>418.33333333333337</ele><time>2026-05-03T09:00:13.538Z</time></trkpt><trkpt lat="44.4437096" lon="10.8156607"><ele>418.5</ele><time>2026-05-03T09:00:14.547Z</time></trkpt><trkpt lat="44.4436365" lon="10.8156186"><ele>418.66666666666663</ele><time>2026-05-03T09:00:15.543Z</time></trkpt><trkpt lat="44.4435599" lon="10.8156051"><ele>418.8333333333333</ele><time>2026-05-03T09:00:16.548Z</time></trkpt><trkpt lat="44.4434798" lon="10.815618"><ele>419.0</ele><time>2026-05-03T09:00:17.537Z</time></trkpt><trkpt lat="44.443384" lon="10.8156344"><ele>418.99999999999994</ele><time>2026-05-03T09:00:18.531Z</time></trkpt><trkpt lat="44.4432908" lon="10.8156278"><ele>419.0</ele><time>2026-05-03T09:00:19.537Z</time></trkpt><trkpt lat="44.4432096" lon="10.815615"><ele>419.0</ele><time>2026-05-03T09:00:20.535Z</time></trkpt><trkpt lat="44.4431284" lon="10.8155928"><ele>419.0</ele><time>2026-05-03T09:00:21.54Z</time></trkpt><trkpt lat="44.4430478" lon="10.8155905"><ele>418.99999999999994</ele><time>2026-05-03T09:00:22.54Z</time></trkpt><trkpt lat="44.4429719" lon="10.8156225"><ele>419.0</ele><time>2026-05-03T09:00:23.54Z</time></trkpt><trkpt lat="44.4428984" lon="10.8156901"><ele>420.0</ele><time>2026-05-03T09:00:24.535Z</time></trkpt><trkpt lat="44.4428216" lon="10.8157658"><ele>421.0</ele><time>2026-05-03T09:00:25.539Z</time></trkpt><trkpt lat="44.4427473" lon="10.8158455"><ele>422.0</ele><time>2026-05-03T09:00:26.536Z</time></trkpt><trkpt lat="44.4426741" lon="10.8159289"><ele>423.0</ele><time>2026-05-03T09:00:27.534Z</time></trkpt><trkpt lat="44.4426102" lon="10.8160137"><ele>424.0</ele><time>2026-05-03T09:00:28.541Z</time></trkpt><trkpt lat="44.4425604" lon="10.8161028"><ele>427.1666666666667</ele><time>2026-05-03T09:00:29.539Z</time></trkpt><trkpt lat="44.4425212" lon="10.8161975"><ele>430.33333333333337</ele><time>2026-05-03T09:00:30.534Z</time></trkpt><trkpt lat="44.4424924" lon="10.8162973"><ele>433.5</ele><time>2026-05-03T09:00:31.538Z</time></trkpt><trkpt lat="44.4424602" lon="10.8163902"><ele>436.66666666666663</ele><time>2026-05-03T09:00:32.535Z</time></trkpt><trkpt lat="44.4423728" lon="10.816505"><ele>439.8333333333333</ele><time>2026-05-03T09:00:34.536Z</time></trkpt><trkpt lat="44.4422987" lon="10.816517"><ele>443.0</ele><time>2026-05-03T09:00:35.531Z</time></trkpt><trkpt lat="44.4422137" lon="10.8165004"><ele>442.99999999999994</ele><time>2026-05-03T09:00:36.524Z</time></trkpt><trkpt lat="44.4421323" lon="10.8164688"><ele>443.0</ele><time>2026-05-03T09:00:37.522Z</time></trkpt><trkpt lat="44.4420535" lon="10.8164018"><ele>443.0</ele><time>2026-05-03T09:00:38.517Z</time></trkpt><trkpt lat="44.4419835" lon="10.8163227"><ele>443.0</ele><time>2026-05-03T09:00:39.531Z</time></trkpt><trkpt lat="44.4419181" lon="10.8162721"><ele>442.99999999999994</ele><time>2026-05-03T09:00:40.526Z</time></trkpt><trkpt lat="44.4418532" lon="10.8162334"><ele>443.0</ele><time>2026-05-03T09:00:41.525Z</time></trkpt><trkpt lat="44.4417853" lon="10.8162096"><ele>443.49999999999994</ele><time>2026-05-03T09:00:42.523Z</time></trkpt><trkpt lat="44.4417146" lon="10.8161944"><ele>444.0</ele><time>2026-05-03T09:00:43.532Z</time></trkpt><trkpt lat="44.4416092" lon="10.8161758"><ele>444.5</ele><time>2026-05-03T09:00:45.534Z</time></trkpt><trkpt lat="44.4415396" lon="10.8161394"><ele>445.0</ele><time>2026-05-03T09:00:47.513Z</time></trkpt><trkpt lat="44.4414834" lon="10.8160468"><ele>445.49999999999994</ele><time>2026-05-03T09:00:50.523Z</time></trkpt><trkpt lat="44.4414469" lon="10.8159709"><ele>446.0</ele><time>2026-05-03T09:00:52.521Z</time></trkpt><trkpt lat="44.4413821" lon="10.8159015"><ele>442.4</ele><time>2026-05-03T09:00:54.527Z</time></trkpt><trkpt lat="44.4413151" lon="10.81581"><ele>438.8</ele><time>2026-05-03T09:00:56.53Z</time></trkpt><trkpt lat="44.4412046" lon="10.8157654"><ele>435.19999999999993</ele><time>2026-05-03T09:00:58.528Z</time></trkpt><trkpt lat="44.4411335" lon="10.8157903"><ele>431.59999999999997</ele><time>2026-05-03T09:00:59.517Z</time></trkpt><trkpt lat="44.4410512" lon="10.8158247"><ele>428.0</ele><time>2026-05-03T09:01:00.524Z</time></trkpt><trkpt lat="44.4409714" lon="10.8158534"><ele>426.79999999999995</ele><time>2026-05-03T09:01:01.528Z</time></trkpt><trkpt lat="44.4408819" lon="10.8158659"><ele>425.59999999999997</ele><time>2026-05-03T09:01:02.525Z</time></trkpt><trkpt lat="44.4407898" lon="10.8158585"><ele>424.4</ele><time>2026-05-03T09:01:03.526Z</time></trkpt><trkpt lat="44.4406963" lon="10.8158411"><ele>423.20000000000005</ele><time>2026-05-03T09:01:04.528Z</time></trkpt><trkpt lat="44.4406045" lon="10.8158185"><ele>422.0</ele><time>2026-05-03T09:01:05.523Z</time></trkpt><trkpt lat="44.4405182" lon="10.8157762"><ele>421.49999999999994</ele><time>2026-05-03T09:01:06.524Z</time></trkpt><trkpt lat="44.4404463" lon="10.815706"><ele>421.0</ele><time>2026-05-03T09:01:07.522Z</time></trkpt><trkpt lat="44.4403886" lon="10.8156126"><ele>420.5</ele><time>2026-05-03T09:01:08.523Z</time></trkpt><trkpt lat="44.4403468" lon="10.8155073"><ele>420.0</ele><time>2026-05-03T09:01:09.53Z</time></trkpt><trkpt lat="44.4403337" lon="10.8153893"><ele>419.49999999999994</ele><time>2026-05-03T09:01:10.526Z</time></trkpt><trkpt lat="44.4403361" lon="10.8152643"><ele>419.0</ele><time>2026-05-03T09:01:11.516Z</time></trkpt><trkpt lat="44.4403603" lon="10.8151347"><ele>418.99999999999994</ele><time>2026-05-03T09:01:12.52Z</time></trkpt><trkpt lat="44.4403901" lon="10.8149994"><ele>419.0</ele><time>2026-05-03T09:01:13.523Z</time></trkpt><trkpt lat="44.4404207" lon="10.8148849"><ele>419.0</ele><time>2026-05-03T09:01:14.519Z</time></trkpt><trkpt lat="44.4404488" lon="10.8147924"><ele>419.0</ele><time>2026-05-03T09:01:15.522Z</time></trkpt><trkpt lat="44.4404853" lon="10.8146959"><ele>418.99999999999994</ele><time>2026-05-03T09:01:17.524Z</time></trkpt><trkpt lat="44.4405253" lon="10.8146044"><ele>419.0</ele><time>2026-05-03T09:02:29.53Z</time></trkpt><trkpt lat="44.4405558" lon="10.8145154"><ele>417.66666666666663</ele><time>2026-05-03T09:02:30.517Z</time></trkpt><trkpt lat="44.440607" lon="10.8144417"><ele>416.3333333333333</ele><time>2026-05-03T09:02:31.53Z</time></trkpt><trkpt lat="44.4406698" lon="10.8143781"><ele>415.0</ele><time>2026-05-03T09:02:32.529Z</time></trkpt><trkpt lat="44.4407137" lon="10.8142965"><ele>413.66666666666663</ele><time>2026-05-03T09:02:33.529Z</time></trkpt><trkpt lat="44.4407702" lon="10.8141742"><ele>412.3333333333333</ele><time>2026-05-03T09:02:34.523Z</time></trkpt><trkpt lat="44.4408085" lon="10.8140518"><ele>411.0</ele><time>2026-05-03T09:02:35.526Z</time></trkpt><trkpt lat="44.4408618" lon="10.813905"><ele>408.75</ele><time>2026-05-03T09:02:36.531Z</time></trkpt><trkpt lat="44.4409229" lon="10.8137506"><ele>406.5</ele><time>2026-05-03T09:02:37.531Z</time></trkpt><trkpt lat="44.4409954" lon="10.8136006"><ele>404.25</ele><time>2026-05-03T09:02:38.526Z</time></trkpt><trkpt lat="44.441071" lon="10.8134504"><ele>402.0</ele><time>2026-05-03T09:02:39.542Z</time></trkpt><trkpt lat="44.4411436" lon="10.813306"><ele>400.6</ele><time>2026-05-03T09:02:40.513Z</time></trkpt><trkpt lat="44.4412133" lon="10.8131696"><ele>399.20000000000005</ele><time>2026-05-03T09:02:41.527Z</time></trkpt><trkpt lat="44.4412757" lon="10.8130675"><ele>397.8</ele><time>2026-05-03T09:02:42.534Z</time></trkpt><trkpt lat="44.4413481" lon="10.8130029"><ele>396.4</ele><time>2026-05-03T09:02:43.521Z</time></trkpt><trkpt lat="44.4414435" lon="10.8129861"><ele>395.0</ele><time>2026-05-03T09:02:44.534Z</time></trkpt><trkpt lat="44.4415696" lon="10.8129915"><ele>395.0</ele><time>2026-05-03T09:02:45.524Z</time></trkpt><trkpt lat="44.4417048" lon="10.8130039"><ele>395.0</ele><time>2026-05-03T09:02:46.523Z</time></trkpt><trkpt lat="44.4418465" lon="10.8130073"><ele>395.0</ele><time>2026-05-03T09:02:47.521Z</time></trkpt><trkpt lat="44.4419922" lon="10.8130098"><ele>395.0</ele><time>2026-05-03T09:02:48.521Z</time></trkpt><trkpt lat="44.44213" lon="10.8130293"><ele>393.0</ele><time>2026-05-03T09:02:49.54Z</time></trkpt><trkpt lat="44.4422647" lon="10.8130885"><ele>391.0</ele><time>2026-05-03T09:02:50.531Z</time></trkpt><trkpt lat="44.4423939" lon="10.8131731"><ele>389.0</ele><time>2026-05-03T09:02:51.535Z</time></trkpt><trkpt lat="44.4425049" lon="10.8132469"><ele>387.0</ele><time>2026-05-03T09:02:52.527Z</time></trkpt><trkpt lat="44.4426182" lon="10.8133221"><ele>387.0</ele><time>2026-05-03T09:02:53.53Z</time></trkpt><trkpt lat="44.4427329" lon="10.8134171"><ele>387.0</ele><time>2026-05-03T09:02:54.534Z</time></trkpt><trkpt lat="44.4428384" lon="10.813538"><ele>387.0</ele><time>2026-05-03T09:02:55.526Z</time></trkpt><trkpt lat="44.4429472" lon="10.8136465"><ele>387.0</ele><time>2026-05-03T09:02:56.535Z</time></trkpt><trkpt lat="44.4430645" lon="10.8137209"><ele>388.0</ele><time>2026-05-03T09:02:57.54Z</time></trkpt><trkpt lat="44.4431953" lon="10.8137486"><ele>389.0</ele><time>2026-05-03T09:02:58.536Z</time></trkpt><trkpt lat="44.4433163" lon="10.8137686"><ele>390.0</ele><time>2026-05-03T09:02:59.54Z</time></trkpt><trkpt lat="44.443419" lon="10.8138381"><ele>391.0</ele><time>2026-05-03T09:03:00.533Z</time></trkpt><trkpt lat="44.443504" lon="10.8139312"><ele>391.0</ele><time>2026-05-03T09:03:01.531Z</time></trkpt><trkpt lat="44.4436038" lon="10.8139589"><ele>391.0</ele><time>2026-05-03T09:03:02.532Z</time></trkpt><trkpt lat="44.4437419" lon="10.8139373"><ele>391.0</ele><time>2026-05-03T09:03:03.526Z</time></trkpt><trkpt lat="44.4438837" lon="10.8139293"><ele>391.0</ele><time>2026-05-03T09:03:04.525Z</time></trkpt><trkpt lat="44.4440393" lon="10.8139505"><ele>390.75</ele><time>2026-05-03T09:03:05.526Z</time></trkpt><trkpt lat="44.4441805" lon="10.8139332"><ele>390.5</ele><time>2026-05-03T09:03:06.525Z</time></trkpt><trkpt lat="44.4443051" lon="10.8138862"><ele>390.25</ele><time>2026-05-03T09:03:07.523Z</time></trkpt><trkpt lat="44.444405" lon="10.8138452"><ele>390.0</ele><time>2026-05-03T09:03:08.526Z</time></trkpt><trkpt lat="44.4444899" lon="10.8137828"><ele>390.0</ele><time>2026-05-03T09:03:09.528Z</time></trkpt><trkpt lat="44.4445665" lon="10.8136966"><ele>390.0</ele><time>2026-05-03T09:03:10.531Z</time></trkpt><trkpt lat="44.444639" lon="10.813627"><ele>390.0</ele><time>2026-05-03T09:03:11.523Z</time></trkpt><trkpt lat="44.4447026" lon="10.813571"><ele>390.0</ele><time>2026-05-03T09:03:12.53Z</time></trkpt><trkpt lat="44.444762" lon="10.813529"><ele>390.0</ele><time>2026-05-03T09:03:13.537Z</time></trkpt><trkpt lat="44.4448231" lon="10.8135002"><ele>390.0</ele><time>2026-05-03T09:03:14.545Z</time></trkpt><trkpt lat="44.4449083" lon="10.8134987"><ele>387.0</ele><time>2026-05-03T09:03:16.539Z</time></trkpt><trkpt lat="44.4449169" lon="10.8133588"><ele>384.0</ele><time>2026-05-03T09:03:20.537Z</time></trkpt><trkpt lat="44.444852" lon="10.8132398"><ele>381.0</ele><time>2026-05-03T09:03:22.539Z</time></trkpt><trkpt lat="44.4447898" lon="10.8131823"><ele>378.0</ele><time>2026-05-03T09:03:23.529Z</time></trkpt><trkpt lat="44.44471" lon="10.8131268"><ele>375.0</ele><time>2026-05-03T09:03:24.53Z</time></trkpt><trkpt lat="44.444636" lon="10.8130845"><ele>374.8</ele><time>2026-05-03T09:03:25.523Z</time></trkpt><trkpt lat="44.4445535" lon="10.8130464"><ele>374.6</ele><time>2026-05-03T09:03:26.528Z</time></trkpt><trkpt lat="44.4444789" lon="10.8130023"><ele>374.4</ele><time>2026-05-03T09:03:27.524Z</time></trkpt><trkpt lat="44.4443976" lon="10.812948"><ele>374.2</ele><time>2026-05-03T09:03:28.526Z</time></trkpt><trkpt lat="44.4442992" lon="10.812902"><ele>374.0</ele><time>2026-05-03T09:03:29.526Z</time></trkpt><trkpt lat="44.4441985" lon="10.8128336"><ele>374.0</ele><time>2026-05-03T09:03:30.533Z</time></trkpt><trkpt lat="44.444098" lon="10.8127878"><ele>374.0</ele><time>2026-05-03T09:03:31.536Z</time></trkpt><trkpt lat="44.4440072" lon="10.8127576"><ele>374.0</ele><time>2026-05-03T09:03:32.534Z</time></trkpt><trkpt lat="44.4439502" lon="10.8127187"><ele>374.0</ele><time>2026-05-03T09:03:33.532Z</time></trkpt><trkpt lat="44.443891" lon="10.8126051"><ele>374.0</ele><time>2026-05-03T09:03:35.526Z</time></trkpt><trkpt lat="44.4438733" lon="10.812504"><ele>374.0</ele><time>2026-05-03T09:03:37.528Z</time></trkpt><trkpt lat="44.4437962" lon="10.8124079"><ele>374.0</ele><time>2026-05-03T09:03:40.537Z</time></trkpt><trkpt lat="44.4436668" lon="10.8123946"><ele>374.0</ele><time>2026-05-03T09:03:42.532Z</time></trkpt><trkpt lat="44.4435998" lon="10.8124025"><ele>374.0</ele><time>2026-05-03T09:03:43.534Z</time></trkpt><trkpt lat="44.4435361" lon="10.8124079"><ele>374.0</ele><time>2026-05-03T09:03:44.538Z</time></trkpt><trkpt lat="44.4434702" lon="10.8124105"><ele>374.0</ele><time>2026-05-03T09:03:45.529Z</time></trkpt><trkpt lat="44.4434047" lon="10.8124179"><ele>374.0</ele><time>2026-05-03T09:03:46.527Z</time></trkpt><trkpt lat="44.4433344" lon="10.8124276"><ele>374.0</ele><time>2026-05-03T09:03:47.526Z</time></trkpt><trkpt lat="44.4432652" lon="10.8124063"><ele>374.0</ele><time>2026-05-03T09:03:48.527Z</time></trkpt><trkpt lat="44.4431704" lon="10.8123566"><ele>374.0</ele><time>2026-05-03T09:03:50.527Z</time></trkpt><trkpt lat="44.4430871" lon="10.8122583"><ele>374.0</ele><time>2026-05-03T09:03:52.536Z</time></trkpt><trkpt lat="44.4430739" lon="10.8121525"><ele>374.0</ele><time>2026-05-03T09:03:53.53Z</time></trkpt><trkpt lat="44.4430956" lon="10.812063"><ele>374.0</ele><time>2026-05-03T09:03:54.53Z</time></trkpt><trkpt lat="44.4431189" lon="10.8119786"><ele>375.33333333333337</ele><time>2026-05-03T09:03:55.535Z</time></trkpt><trkpt lat="44.4431493" lon="10.8118189"><ele>376.6666666666667</ele><time>2026-05-03T09:03:57.526Z</time></trkpt><trkpt lat="44.4431547" lon="10.8117263"><ele>378.0</ele><time>2026-05-03T09:03:58.535Z</time></trkpt><trkpt lat="44.4431525" lon="10.8116359"><ele>379.3333333333333</ele><time>2026-05-03T09:03:59.527Z</time></trkpt><trkpt lat="44.4431476" lon="10.8115456"><ele>380.66666666666663</ele><time>2026-05-03T09:04:00.529Z</time></trkpt><trkpt lat="44.4431204" lon="10.8114637"><ele>382.0</ele><time>2026-05-03T09:04:01.534Z</time></trkpt><trkpt lat="44.4430718" lon="10.8113137"><ele>382.0</ele><time>2026-05-03T09:04:03.55Z</time></trkpt><trkpt lat="44.4430342" lon="10.8112158"><ele>382.0</ele><time>2026-05-03T09:04:05.535Z</time></trkpt><trkpt lat="44.4429797" lon="10.8111664"><ele>382.0</ele><time>2026-05-03T09:04:06.531Z</time></trkpt><trkpt lat="44.4428699" lon="10.8110974"><ele>382.0</ele><time>2026-05-03T09:04:08.527Z</time></trkpt><trkpt lat="44.4428049" lon="10.8110482"><ele>382.0</ele><time>2026-05-03T09:04:10.531Z</time></trkpt><trkpt lat="44.4427327" lon="10.8110854"><ele>382.0</ele><time>2026-05-03T09:04:12.518Z</time></trkpt><trkpt lat="44.4426708" lon="10.8110533"><ele>384.8</ele><time>2026-05-03T09:04:13.51Z</time></trkpt><trkpt lat="44.4425691" lon="10.8109682"><ele>387.6</ele><time>2026-05-03T09:04:16.518Z</time></trkpt><trkpt lat="44.4424914" lon="10.8108854"><ele>390.40000000000003</ele><time>2026-05-03T09:04:19.532Z</time></trkpt><trkpt lat="44.442451" lon="10.8108176"><ele>393.20000000000005</ele><time>2026-05-03T09:04:21.524Z</time></trkpt><trkpt lat="44.442409" lon="10.8107021"><ele>396.0</ele><time>2026-05-03T09:04:23.518Z</time></trkpt><trkpt lat="44.4423426" lon="10.810639"><ele>396.0</ele><time>2026-05-03T09:04:26.516Z</time></trkpt><trkpt lat="44.4422567" lon="10.8105962"><ele>396.0</ele><time>2026-05-03T09:04:28.535Z</time></trkpt><trkpt lat="44.4421578" lon="10.8105668"><ele>396.0</ele><time>2026-05-03T09:04:30.521Z</time></trkpt><trkpt lat="44.4420494" lon="10.8105538"><ele>396.0</ele><time>2026-05-03T09:04:32.529Z</time></trkpt><trkpt lat="44.4419466" lon="10.8105176"><ele>396.0</ele><time>2026-05-03T09:04:34.535Z</time></trkpt><trkpt lat="44.4418494" lon="10.810441"><ele>396.5</ele><time>2026-05-03T09:04:36.538Z</time></trkpt><trkpt lat="44.4417626" lon="10.8104055"><ele>397.0</ele><time>2026-05-03T09:04:38.528Z</time></trkpt><trkpt lat="44.4416786" lon="10.810415"><ele>397.5</ele><time>2026-05-03T09:04:40.527Z</time></trkpt><trkpt lat="44.4415977" lon="10.8104336"><ele>398.0</ele><time>2026-05-03T09:04:42.534Z</time></trkpt><trkpt lat="44.4415017" lon="10.8104072"><ele>398.5</ele><time>2026-05-03T09:04:44.532Z</time></trkpt><trkpt lat="44.4414258" lon="10.8103514"><ele>399.0</ele><time>2026-05-03T09:04:46.528Z</time></trkpt><trkpt lat="44.4413007" lon="10.8103342"><ele>400.0</ele><time>2026-05-03T09:04:59.523Z</time></trkpt><trkpt lat="44.4412446" lon="10.810286"><ele>401.0</ele><time>2026-05-03T09:05:00.531Z</time></trkpt><trkpt lat="44.4411939" lon="10.8102106"><ele>402.0</ele><time>2026-05-03T09:05:01.533Z</time></trkpt><trkpt lat="44.4411164" lon="10.8101319"><ele>403.0</ele><time>2026-05-03T09:05:02.523Z</time></trkpt><trkpt lat="44.4410304" lon="10.8100603"><ele>404.0</ele><time>2026-05-03T09:05:03.53Z</time></trkpt><trkpt lat="44.4409399" lon="10.8099727"><ele>405.0</ele><time>2026-05-03T09:05:04.528Z</time></trkpt><trkpt lat="44.4408325" lon="10.8098756"><ele>407.2</ele><time>2026-05-03T09:05:05.523Z</time></trkpt><trkpt lat="44.4407277" lon="10.8098082"><ele>409.4</ele><time>2026-05-03T09:05:06.52Z</time></trkpt><trkpt lat="44.4406328" lon="10.8097227"><ele>411.6</ele><time>2026-05-03T09:05:07.521Z</time></trkpt><trkpt lat="44.4405548" lon="10.8096513"><ele>413.8</ele><time>2026-05-03T09:05:08.527Z</time></trkpt><trkpt lat="44.4405095" lon="10.8095895"><ele>416.0</ele><time>2026-05-03T09:05:09.527Z</time></trkpt><trkpt lat="44.440443" lon="10.8095543"><ele>418.25</ele><time>2026-05-03T09:05:12.521Z</time></trkpt><trkpt lat="44.4404442" lon="10.8094384"><ele>420.5</ele><time>2026-05-03T09:05:14.534Z</time></trkpt><trkpt lat="44.4404911" lon="10.8092612"><ele>422.75</ele><time>2026-05-03T09:05:16.524Z</time></trkpt><trkpt lat="44.4405907" lon="10.809151"><ele>425.0</ele><time>2026-05-03T09:05:17.531Z</time></trkpt><trkpt lat="44.4407024" lon="10.8090702"><ele>425.0</ele><time>2026-05-03T09:05:18.523Z</time></trkpt><trkpt lat="44.4407915" lon="10.8090242"><ele>425.0</ele><time>2026-05-03T09:05:19.529Z</time></trkpt><trkpt lat="44.4408981" lon="10.8089683"><ele>425.0</ele><time>2026-05-03T09:05:21.527Z</time></trkpt><trkpt lat="44.4409638" lon="10.8089809"><ele>425.0</ele><time>2026-05-03T09:05:23.517Z</time></trkpt><trkpt lat="44.44101" lon="10.8091046"><ele>425.0</ele><time>2026-05-03T09:05:25.527Z</time></trkpt><trkpt lat="44.4410549" lon="10.809214"><ele>425.0</ele><time>2026-05-03T09:05:26.525Z</time></trkpt><trkpt lat="44.4411118" lon="10.8092977"><ele>425.0</ele><time>2026-05-03T09:05:27.534Z</time></trkpt><trkpt lat="44.4411929" lon="10.8093821"><ele>425.0</ele><time>2026-05-03T09:05:28.529Z</time></trkpt><trkpt lat="44.4412782" lon="10.8094865"><ele>425.0</ele><time>2026-05-03T09:05:29.527Z</time></trkpt><trkpt lat="44.441348" lon="10.8095425"><ele>425.0</ele><time>2026-05-03T09:05:30.531Z</time></trkpt><trkpt lat="44.4414305" lon="10.8095901"><ele>422.99999999999994</ele><time>2026-05-03T09:05:31.538Z</time></trkpt><trkpt lat="44.4415153" lon="10.8096006"><ele>421.0</ele><time>2026-05-03T09:05:32.526Z</time></trkpt><trkpt lat="44.4415958" lon="10.8095985"><ele>419.0</ele><time>2026-05-03T09:05:33.527Z</time></trkpt><trkpt lat="44.4416845" lon="10.8096074"><ele>417.0</ele><time>2026-05-03T09:05:34.528Z</time></trkpt><trkpt lat="44.4417736" lon="10.8096397"><ele>414.99999999999994</ele><time>2026-05-03T09:05:35.514Z</time></trkpt><trkpt lat="44.4418645" lon="10.8096667"><ele>413.0</ele><time>2026-05-03T09:05:36.523Z</time></trkpt><trkpt lat="44.4419414" lon="10.809681"><ele>413.0</ele><time>2026-05-03T09:05:37.531Z</time></trkpt><trkpt lat="44.4420363" lon="10.8096696"><ele>413.0</ele><time>2026-05-03T09:05:38.52Z</time></trkpt><trkpt lat="44.4421382" lon="10.8096626"><ele>413.0</ele><time>2026-05-03T09:05:39.53Z</time></trkpt><trkpt lat="44.4422398" lon="10.8096535"><ele>413.0</ele><time>2026-05-03T09:05:40.53Z</time></trkpt><trkpt lat="44.4423509" lon="10.8096641"><ele>413.0</ele><time>2026-05-03T09:05:41.523Z</time></trkpt><trkpt lat="44.4424592" lon="10.8096763"><ele>413.4</ele><time>2026-05-03T09:05:42.53Z</time></trkpt><trkpt lat="44.4425618" lon="10.8096969"><ele>413.79999999999995</ele><time>2026-05-03T09:05:43.522Z</time></trkpt><trkpt lat="44.4426552" lon="10.8096875"><ele>414.2</ele><time>2026-05-03T09:05:44.529Z</time></trkpt><trkpt lat="44.4427519" lon="10.8096865"><ele>414.6</ele><time>2026-05-03T09:05:45.528Z</time></trkpt><trkpt lat="44.4428526" lon="10.8096831"><ele>415.0</ele><time>2026-05-03T09:05:46.529Z</time></trkpt><trkpt lat="44.44295" lon="10.80965"><ele>414.8</ele><time>2026-05-03T09:05:47.537Z</time></trkpt><trkpt lat="44.4430439" lon="10.8095932"><ele>414.6</ele><time>2026-05-03T09:05:48.524Z</time></trkpt><trkpt lat="44.443133" lon="10.8095365"><ele>414.4</ele><time>2026-05-03T09:05:49.539Z</time></trkpt><trkpt lat="44.4432308" lon="10.8094686"><ele>414.2</ele><time>2026-05-03T09:05:50.538Z</time></trkpt><trkpt lat="44.4433062" lon="10.8093996"><ele>414.0</ele><time>2026-05-03T09:05:51.523Z</time></trkpt><trkpt lat="44.4433619" lon="10.8093436"><ele>419.0</ele><time>2026-05-03T09:05:52.529Z</time></trkpt><trkpt lat="44.4434263" lon="10.8092258"><ele>424.0</ele><time>2026-05-03T09:05:54.531Z</time></trkpt><trkpt lat="44.4434814" lon="10.8091215"><ele>429.0</ele><time>2026-05-03T09:05:56.527Z</time></trkpt><trkpt lat="44.4435572" lon="10.8090088"><ele>434.0</ele><time>2026-05-03T09:05:58.523Z</time></trkpt><trkpt lat="44.443668" lon="10.8088847"><ele>433.99999999999994</ele><time>2026-05-03T09:06:00.521Z</time></trkpt><trkpt lat="44.4437384" lon="10.8088101"><ele>434.0</ele><time>2026-05-03T09:06:01.527Z</time></trkpt><trkpt lat="44.4437925" lon="10.8087536"><ele>434.0</ele><time>2026-05-03T09:06:02.524Z</time></trkpt><trkpt lat="44.4438423" lon="10.8086728"><ele>434.0</ele><time>2026-05-03T09:06:03.519Z</time></trkpt><trkpt lat="44.4438898" lon="10.8085713"><ele>433.99999999999994</ele><time>2026-05-03T09:06:04.536Z</time></trkpt><trkpt lat="44.4439607" lon="10.808472"><ele>434.0</ele><time>2026-05-03T09:06:05.518Z</time></trkpt><trkpt lat="44.4440047" lon="10.8083752"><ele>437.4</ele><time>2026-05-03T09:06:06.52Z</time></trkpt><trkpt lat="44.4440616" lon="10.8082823"><ele>440.79999999999995</ele><time>2026-05-03T09:06:07.518Z</time></trkpt><trkpt lat="44.4441385" lon="10.8082019"><ele>444.20000000000005</ele><time>2026-05-03T09:06:08.522Z</time></trkpt><trkpt lat="44.4442215" lon="10.8081427"><ele>447.6</ele><time>2026-05-03T09:06:09.522Z</time></trkpt><trkpt lat="44.4443072" lon="10.8080764"><ele>451.0</ele><time>2026-05-03T09:06:10.523Z</time></trkpt><trkpt lat="44.4443862" lon="10.8080319"><ele>451.0</ele><time>2026-05-03T09:06:11.514Z</time></trkpt><trkpt lat="44.4444621" lon="10.8079818"><ele>451.0</ele><time>2026-05-03T09:06:12.518Z</time></trkpt><trkpt lat="44.444508" lon="10.807917"><ele>451.0</ele><time>2026-05-03T09:06:13.519Z</time></trkpt><trkpt lat="44.4445341" lon="10.8078367"><ele>451.0</ele><time>2026-05-03T09:06:14.514Z</time></trkpt><trkpt lat="44.4445585" lon="10.8077548"><ele>451.0</ele><time>2026-05-03T09:06:15.526Z</time></trkpt><trkpt lat="44.4445705" lon="10.8076574"><ele>451.0</ele><time>2026-05-03T09:06:16.526Z</time></trkpt><trkpt lat="44.4445858" lon="10.8075495"><ele>451.0</ele><time>2026-05-03T09:06:17.529Z</time></trkpt><trkpt lat="44.4446791" lon="10.8073935"><ele>450.0</ele><time>2026-05-03T09:06:19.521Z</time></trkpt><trkpt lat="44.4447423" lon="10.8073117"><ele>449.0</ele><time>2026-05-03T09:06:20.533Z</time></trkpt><trkpt lat="44.4448171" lon="10.8072283"><ele>448.0</ele><time>2026-05-03T09:06:21.523Z</time></trkpt><trkpt lat="44.4448922" lon="10.8071379"><ele>447.0</ele><time>2026-05-03T09:06:22.522Z</time></trkpt><trkpt lat="44.4449559" lon="10.8070525"><ele>446.0</ele><time>2026-05-03T09:06:23.527Z</time></trkpt><trkpt lat="44.4450114" lon="10.8069517"><ele>445.99999999999994</ele><time>2026-05-03T09:06:24.526Z</time></trkpt><trkpt lat="44.4450656" lon="10.8068454"><ele>446.0</ele><time>2026-05-03T09:06:25.527Z</time></trkpt><trkpt lat="44.4451278" lon="10.8067547"><ele>446.0</ele><time>2026-05-03T09:06:26.525Z</time></trkpt><trkpt lat="44.4451939" lon="10.8066793"><ele>446.0</ele><time>2026-05-03T09:06:27.529Z</time></trkpt><trkpt lat="44.4452677" lon="10.806612"><ele>445.99999999999994</ele><time>2026-05-03T09:06:28.528Z</time></trkpt><trkpt lat="44.4453439" lon="10.8065628"><ele>446.0</ele><time>2026-05-03T09:06:29.533Z</time></trkpt><trkpt lat="44.4454301" lon="10.8065448"><ele>447.66666666666663</ele><time>2026-05-03T09:06:30.524Z</time></trkpt><trkpt lat="44.4455135" lon="10.8065135"><ele>449.3333333333333</ele><time>2026-05-03T09:06:31.521Z</time></trkpt><trkpt lat="44.4455893" lon="10.8064809"><ele>451.0</ele><time>2026-05-03T09:06:32.523Z</time></trkpt><trkpt lat="44.4456747" lon="10.8064447"><ele>452.66666666666663</ele><time>2026-05-03T09:06:33.531Z</time></trkpt><trkpt lat="44.445764" lon="10.8064341"><ele>454.3333333333333</ele><time>2026-05-03T09:06:34.528Z</time></trkpt><trkpt lat="44.4458534" lon="10.806431"><ele>456.0</ele><time>2026-05-03T09:06:35.522Z</time></trkpt><trkpt lat="44.4459395" lon="10.806461"><ele>456.0</ele><time>2026-05-03T09:06:36.524Z</time></trkpt><trkpt lat="44.4460267" lon="10.8065006"><ele>456.0</ele><time>2026-05-03T09:06:37.531Z</time></trkpt><trkpt lat="44.4461144" lon="10.806529"><ele>456.0</ele><time>2026-05-03T09:06:38.521Z</time></trkpt><trkpt lat="44.4462" lon="10.8065685"><ele>456.0</ele><time>2026-05-03T09:06:39.531Z</time></trkpt><trkpt lat="44.4462814" lon="10.8066249"><ele>456.0</ele><time>2026-05-03T09:06:40.53Z</time></trkpt><trkpt lat="44.44635" lon="10.8066909"><ele>456.0</ele><time>2026-05-03T09:06:41.521Z</time></trkpt><trkpt lat="44.4464116" lon="10.80676"><ele>454.6666666666667</ele><time>2026-05-03T09:06:42.522Z</time></trkpt><trkpt lat="44.4464768" lon="10.8068301"><ele>453.33333333333337</ele><time>2026-05-03T09:06:43.528Z</time></trkpt><trkpt lat="44.4465511" lon="10.8068784"><ele>452.0</ele><time>2026-05-03T09:06:44.523Z</time></trkpt><trkpt lat="44.4466341" lon="10.8069167"><ele>450.6666666666667</ele><time>2026-05-03T09:06:45.534Z</time></trkpt><trkpt lat="44.4467292" lon="10.8069558"><ele>449.33333333333337</ele><time>2026-05-03T09:06:46.529Z</time></trkpt><trkpt lat="44.446814" lon="10.8069986"><ele>448.0</ele><time>2026-05-03T09:06:47.527Z</time></trkpt><trkpt lat="44.4468768" lon="10.807034"><ele>448.00000000000006</ele><time>2026-05-03T09:06:48.523Z</time></trkpt><trkpt lat="44.4469502" lon="10.8070363"><ele>448.0</ele><time>2026-05-03T09:06:50.523Z</time></trkpt><trkpt lat="44.4470132" lon="10.8069851"><ele>448.0</ele><time>2026-05-03T09:06:53.528Z</time></trkpt><trkpt lat="44.4469914" lon="10.8068515"><ele>448.0</ele><time>2026-05-03T09:06:58.535Z</time></trkpt><trkpt lat="44.4469482" lon="10.8067513"><ele>448.00000000000006</ele><time>2026-05-03T09:06:59.526Z</time></trkpt><trkpt lat="44.4469078" lon="10.8066665"><ele>448.0</ele><time>2026-05-03T09:07:00.524Z</time></trkpt><trkpt lat="44.4468741" lon="10.8065703"><ele>450.33333333333337</ele><time>2026-05-03T09:07:01.51Z</time></trkpt><trkpt lat="44.4468214" lon="10.8064727"><ele>452.6666666666667</ele><time>2026-05-03T09:07:02.532Z</time></trkpt><trkpt lat="44.4467829" lon="10.8063925"><ele>455.0</ele><time>2026-05-03T09:07:03.522Z</time></trkpt><trkpt lat="44.4467262" lon="10.806306"><ele>457.33333333333337</ele><time>2026-05-03T09:07:04.527Z</time></trkpt><trkpt lat="44.446662" lon="10.8062384"><ele>459.6666666666667</ele><time>2026-05-03T09:07:05.529Z</time></trkpt><trkpt lat="44.4465872" lon="10.8061737"><ele>462.0</ele><time>2026-05-03T09:07:06.526Z</time></trkpt><trkpt lat="44.4465195" lon="10.8061188"><ele>462.0</ele><time>2026-05-03T09:07:07.534Z</time></trkpt><trkpt lat="44.4464598" lon="10.8060645"><ele>462.0</ele><time>2026-05-03T09:07:08.528Z</time></trkpt><trkpt lat="44.4464007" lon="10.8060122"><ele>462.0</ele><time>2026-05-03T09:07:09.528Z</time></trkpt><trkpt lat="44.4463475" lon="10.8059505"><ele>462.0</ele><time>2026-05-03T09:07:10.538Z</time></trkpt><trkpt lat="44.4462967" lon="10.8058907"><ele>462.0</ele><time>2026-05-03T09:07:11.532Z</time></trkpt><trkpt lat="44.4462463" lon="10.8058287"><ele>462.0</ele><time>2026-05-03T09:07:12.536Z</time></trkpt><trkpt lat="44.4461674" lon="10.8057319"><ele>462.0</ele><time>2026-05-03T09:07:14.528Z</time></trkpt><trkpt lat="44.4461082" lon="10.8056569"><ele>464.20000000000005</ele><time>2026-05-03T09:07:16.527Z</time></trkpt><trkpt lat="44.4460255" lon="10.8055434"><ele>466.40000000000003</ele><time>2026-05-03T09:07:48.537Z</time></trkpt><trkpt lat="44.4459604" lon="10.8054775"><ele>468.59999999999997</ele><time>2026-05-03T09:07:49.538Z</time></trkpt><trkpt lat="44.4458898" lon="10.8054016"><ele>470.79999999999995</ele><time>2026-05-03T09:07:50.529Z</time></trkpt><trkpt lat="44.4458115" lon="10.8053241"><ele>473.0</ele><time>2026-05-03T09:07:51.54Z</time></trkpt><trkpt lat="44.4457372" lon="10.8052473"><ele>473.0</ele><time>2026-05-03T09:07:52.53Z</time></trkpt><trkpt lat="44.445658" lon="10.8051692"><ele>472.99999999999994</ele><time>2026-05-03T09:07:53.528Z</time></trkpt><trkpt lat="44.4455784" lon="10.8051046"><ele>472.99999999999994</ele><time>2026-05-03T09:07:54.529Z</time></trkpt><trkpt lat="44.445494" lon="10.8050446"><ele>473.0</ele><time>2026-05-03T09:07:55.529Z</time></trkpt><trkpt lat="44.4454131" lon="10.8049978"><ele>473.0</ele><time>2026-05-03T09:07:56.532Z</time></trkpt><trkpt lat="44.4453265" lon="10.804951"><ele>477.3333333333333</ele><time>2026-05-03T09:07:57.539Z</time></trkpt><trkpt lat="44.4452421" lon="10.804917"><ele>481.66666666666663</ele><time>2026-05-03T09:07:58.522Z</time></trkpt><trkpt lat="44.44516" lon="10.8048835"><ele>486.0</ele><time>2026-05-03T09:07:59.524Z</time></trkpt><trkpt lat="44.4450959" lon="10.8048392"><ele>490.33333333333337</ele><time>2026-05-03T09:08:00.527Z</time></trkpt><trkpt lat="44.4450313" lon="10.8047824"><ele>494.6666666666667</ele><time>2026-05-03T09:08:01.528Z</time></trkpt><trkpt lat="44.4449629" lon="10.8047286"><ele>499.0</ele><time>2026-05-03T09:08:02.526Z</time></trkpt><trkpt lat="44.444894" lon="10.8046714"><ele>499.00000000000006</ele><time>2026-05-03T09:08:03.529Z</time></trkpt><trkpt lat="44.444821" lon="10.8046204"><ele>499.0</ele><time>2026-05-03T09:08:04.521Z</time></trkpt><trkpt lat="44.4447492" lon="10.8045822"><ele>499.0</ele><time>2026-05-03T09:08:05.528Z</time></trkpt><trkpt lat="44.4446869" lon="10.8045416"><ele>499.0</ele><time>2026-05-03T09:08:06.527Z</time></trkpt><trkpt lat="44.4446322" lon="10.8044924"><ele>499.00000000000006</ele><time>2026-05-03T09:08:07.517Z</time></trkpt><trkpt lat="44.4445728" lon="10.8044535"><ele>499.0</ele><time>2026-05-03T09:08:08.521Z</time></trkpt><trkpt lat="44.4444665" lon="10.8043899"><ele>505.25</ele><time>2026-05-03T09:08:10.526Z</time></trkpt><trkpt lat="44.4443756" lon="10.8043124"><ele>511.5</ele><time>2026-05-03T09:08:12.531Z</time></trkpt><trkpt lat="44.4442748" lon="10.80424"><ele>517.75</ele><time>2026-05-03T09:08:14.53Z</time></trkpt><trkpt lat="44.4441777" lon="10.804144"><ele>524.0</ele><time>2026-05-03T09:08:16.531Z</time></trkpt><trkpt lat="44.4440907" lon="10.8039993"><ele>524.0</ele><time>2026-05-03T09:08:18.528Z</time></trkpt><trkpt lat="44.444045" lon="10.8039244"><ele>524.0</ele><time>2026-05-03T09:08:19.529Z</time></trkpt><trkpt lat="44.4439864" lon="10.8038391"><ele>524.0</ele><time>2026-05-03T09:08:20.527Z</time></trkpt><trkpt lat="44.4439296" lon="10.8037595"><ele>524.0</ele><time>2026-05-03T09:08:21.527Z</time></trkpt><trkpt lat="44.4438759" lon="10.803685"><ele>524.0</ele><time>2026-05-03T09:08:22.529Z</time></trkpt><trkpt lat="44.4438253" lon="10.8036129"><ele>524.0</ele><time>2026-05-03T09:08:23.529Z</time></trkpt><trkpt lat="44.4437294" lon="10.8035291"><ele>527.1428571428571</ele><time>2026-05-03T09:08:25.526Z</time></trkpt><trkpt lat="44.4436606" lon="10.8034868"><ele>530.2857142857143</ele><time>2026-05-03T09:08:26.53Z</time></trkpt><trkpt lat="44.4436064" lon="10.8034341"><ele>533.4285714285714</ele><time>2026-05-03T09:08:27.528Z</time></trkpt><trkpt lat="44.4435332" lon="10.8033425"><ele>536.5714285714286</ele><time>2026-05-03T09:08:29.536Z</time></trkpt><trkpt lat="44.4435458" lon="10.8032507"><ele>539.7142857142858</ele><time>2026-05-03T09:08:34.526Z</time></trkpt><trkpt lat="44.4435285" lon="10.8031624"><ele>542.8571428571429</ele><time>2026-05-03T09:09:32.534Z</time></trkpt><trkpt lat="44.4435948" lon="10.8031897"><ele>546.0</ele><time>2026-05-03T09:10:49.524Z</time></trkpt><trkpt lat="44.4435457" lon="10.8030735"><ele>546.0</ele><time>2026-05-03T09:10:55.545Z</time></trkpt><trkpt lat="44.4435159" lon="10.8029877"><ele>546.0</ele><time>2026-05-03T09:10:56.541Z</time></trkpt><trkpt lat="44.4435" lon="10.8028952"><ele>546.0</ele><time>2026-05-03T09:10:57.537Z</time></trkpt><trkpt lat="44.4434909" lon="10.8027885"><ele>546.0</ele><time>2026-05-03T09:10:58.529Z</time></trkpt><trkpt lat="44.4434707" lon="10.8026592"><ele>546.0</ele><time>2026-05-03T09:10:59.546Z</time></trkpt><trkpt lat="44.4434491" lon="10.8025103"><ele>546.0</ele><time>2026-05-03T09:11:00.536Z</time></trkpt><trkpt lat="44.4434268" lon="10.8023594"><ele>546.75</ele><time>2026-05-03T09:11:01.546Z</time></trkpt><trkpt lat="44.4434005" lon="10.8021995"><ele>547.5</ele><time>2026-05-03T09:11:02.543Z</time></trkpt><trkpt lat="44.4433704" lon="10.8020403"><ele>548.25</ele><time>2026-05-03T09:11:03.547Z</time></trkpt><trkpt lat="44.4433325" lon="10.801884"><ele>549.0</ele><time>2026-05-03T09:11:04.543Z</time></trkpt><trkpt lat="44.4432855" lon="10.8017607"><ele>549.0</ele><time>2026-05-03T09:11:05.546Z</time></trkpt><trkpt lat="44.4432398" lon="10.8016665"><ele>549.0</ele><time>2026-05-03T09:11:06.545Z</time></trkpt><trkpt lat="44.4431845" lon="10.8016068"><ele>549.0</ele><time>2026-05-03T09:11:07.545Z</time></trkpt><trkpt lat="44.4431199" lon="10.8015862"><ele>549.0</ele><time>2026-05-03T09:11:08.545Z</time></trkpt><trkpt lat="44.4430416" lon="10.8016124"><ele>549.0</ele><time>2026-05-03T09:11:09.544Z</time></trkpt><trkpt lat="44.442984" lon="10.8016986"><ele>549.0</ele><time>2026-05-03T09:11:10.545Z</time></trkpt><trkpt lat="44.4429488" lon="10.8018349"><ele>549.8</ele><time>2026-05-03T09:11:11.544Z</time></trkpt><trkpt lat="44.4429543" lon="10.8019917"><ele>550.5999999999999</ele><time>2026-05-03T09:11:12.537Z</time></trkpt><trkpt lat="44.4429586" lon="10.8021391"><ele>551.4</ele><time>2026-05-03T09:11:13.537Z</time></trkpt><trkpt lat="44.4429463" lon="10.8022701"><ele>552.1999999999999</ele><time>2026-05-03T09:11:14.544Z</time></trkpt><trkpt lat="44.4429205" lon="10.8023785"><ele>553.0</ele><time>2026-05-03T09:11:15.547Z</time></trkpt><trkpt lat="44.4428698" lon="10.8024501"><ele>553.0</ele><time>2026-05-03T09:11:16.548Z</time></trkpt><trkpt lat="44.442752" lon="10.8024294"><ele>553.0</ele><time>2026-05-03T09:11:18.545Z</time></trkpt><trkpt lat="44.4427064" lon="10.8023377"><ele>553.0</ele><time>2026-05-03T09:11:19.544Z</time></trkpt><trkpt lat="44.4426746" lon="10.8021766"><ele>553.0</ele><time>2026-05-03T09:11:20.538Z</time></trkpt><trkpt lat="44.44265" lon="10.8020281"><ele>553.0</ele><time>2026-05-03T09:11:21.538Z</time></trkpt><trkpt lat="44.4426201" lon="10.8018805"><ele>555.25</ele><time>2026-05-03T09:11:22.537Z</time></trkpt><trkpt lat="44.4425761" lon="10.8017297"><ele>557.5</ele><time>2026-05-03T09:11:23.541Z</time></trkpt><trkpt lat="44.4425213" lon="10.8015626"><ele>559.75</ele><time>2026-05-03T09:11:24.53Z</time></trkpt><trkpt lat="44.4424592" lon="10.8013986"><ele>562.0</ele><time>2026-05-03T09:11:25.543Z</time></trkpt><trkpt lat="44.4424007" lon="10.8012577"><ele>562.0</ele><time>2026-05-03T09:11:26.546Z</time></trkpt><trkpt lat="44.4423364" lon="10.8011286"><ele>562.0</ele><time>2026-05-03T09:11:27.546Z</time></trkpt><trkpt lat="44.4422697" lon="10.801049"><ele>562.0</ele><time>2026-05-03T09:11:28.538Z</time></trkpt><trkpt lat="44.4422006" lon="10.8009769"><ele>562.0</ele><time>2026-05-03T09:11:29.548Z</time></trkpt><trkpt lat="44.4421312" lon="10.8009625"><ele>562.0</ele><time>2026-05-03T09:11:30.543Z</time></trkpt><trkpt lat="44.4420568" lon="10.801024"><ele>562.0</ele><time>2026-05-03T09:11:31.543Z</time></trkpt><trkpt lat="44.4419655" lon="10.8011503"><ele>563.8000000000001</ele><time>2026-05-03T09:11:32.538Z</time></trkpt><trkpt lat="44.4418937" lon="10.8012476"><ele>565.6</ele><time>2026-05-03T09:11:33.531Z</time></trkpt><trkpt lat="44.4418218" lon="10.8013205"><ele>567.4000000000001</ele><time>2026-05-03T09:11:34.548Z</time></trkpt><trkpt lat="44.4417519" lon="10.8013411"><ele>569.2</ele><time>2026-05-03T09:11:35.539Z</time></trkpt><trkpt lat="44.4416539" lon="10.8012856"><ele>571.0</ele><time>2026-05-03T09:11:37.543Z</time></trkpt><trkpt lat="44.4415954" lon="10.8011714"><ele>571.0</ele><time>2026-05-03T09:11:38.533Z</time></trkpt><trkpt lat="44.4415463" lon="10.8010463"><ele>571.0</ele><time>2026-05-03T09:11:39.539Z</time></trkpt><trkpt lat="44.4414898" lon="10.8009039"><ele>571.0</ele><time>2026-05-03T09:11:40.539Z</time></trkpt><trkpt lat="44.4414166" lon="10.8007636"><ele>571.0</ele><time>2026-05-03T09:11:41.547Z</time></trkpt><trkpt lat="44.44134" lon="10.8006188"><ele>575.0</ele><time>2026-05-03T09:11:42.541Z</time></trkpt><trkpt lat="44.4412647" lon="10.8004594"><ele>579.0</ele><time>2026-05-03T09:11:43.547Z</time></trkpt><trkpt lat="44.4412011" lon="10.8002888"><ele>583.0</ele><time>2026-05-03T09:11:44.54Z</time></trkpt><trkpt lat="44.4411452" lon="10.8001256"><ele>587.0</ele><time>2026-05-03T09:11:45.538Z</time></trkpt><trkpt lat="44.4411009" lon="10.799967"><ele>588.4</ele><time>2026-05-03T09:11:46.538Z</time></trkpt><trkpt lat="44.4410713" lon="10.7998139"><ele>589.8000000000001</ele><time>2026-05-03T09:11:47.544Z</time></trkpt><trkpt lat="44.441071" lon="10.7996605"><ele>591.2</ele><time>2026-05-03T09:11:48.543Z</time></trkpt><trkpt lat="44.4411035" lon="10.7995238"><ele>592.6</ele><time>2026-05-03T09:11:49.547Z</time></trkpt><trkpt lat="44.4411615" lon="10.7994043"><ele>594.0</ele><time>2026-05-03T09:11:50.537Z</time></trkpt><trkpt lat="44.4412195" lon="10.7993189"><ele>594.0</ele><time>2026-05-03T09:11:51.545Z</time></trkpt><trkpt lat="44.4412676" lon="10.7992357"><ele>594.0</ele><time>2026-05-03T09:11:52.541Z</time></trkpt><trkpt lat="44.441325" lon="10.799124"><ele>594.0</ele><time>2026-05-03T09:11:54.533Z</time></trkpt><trkpt lat="44.4412345" lon="10.7992263"><ele>594.0</ele><time>2026-05-03T09:11:59.538Z</time></trkpt><trkpt lat="44.4411875" lon="10.7993341"><ele>594.0</ele><time>2026-05-03T09:12:00.534Z</time></trkpt><trkpt lat="44.4411255" lon="10.7994465"><ele>594.0</ele><time>2026-05-03T09:12:01.54Z</time></trkpt><trkpt lat="44.4410543" lon="10.7995678"><ele>594.0</ele><time>2026-05-03T09:12:02.538Z</time></trkpt><trkpt lat="44.4409914" lon="10.7996838"><ele>594.0</ele><time>2026-05-03T09:12:03.542Z</time></trkpt><trkpt lat="44.4409282" lon="10.7998076"><ele>594.0</ele><time>2026-05-03T09:12:04.537Z</time></trkpt><trkpt lat="44.4408571" lon="10.7999418"><ele>594.0</ele><time>2026-05-03T09:12:05.546Z</time></trkpt><trkpt lat="44.4407949" lon="10.8000942"><ele>592.6</ele><time>2026-05-03T09:12:06.54Z</time></trkpt><trkpt lat="44.440731" lon="10.8002233"><ele>591.2</ele><time>2026-05-03T09:12:07.537Z</time></trkpt><trkpt lat="44.4406636" lon="10.8003395"><ele>589.8000000000001</ele><time>2026-05-03T09:12:08.541Z</time></trkpt><trkpt lat="44.4405971" lon="10.800434"><ele>588.4</ele><time>2026-05-03T09:12:09.539Z</time></trkpt><trkpt lat="44.4405387" lon="10.8005535"><ele>587.0</ele><time>2026-05-03T09:12:10.537Z</time></trkpt><trkpt lat="44.4404661" lon="10.8006793"><ele>588.0</ele><time>2026-05-03T09:12:11.539Z</time></trkpt><trkpt lat="44.4403765" lon="10.8007978"><ele>589.0</ele><time>2026-05-03T09:12:12.537Z</time></trkpt><trkpt lat="44.4402916" lon="10.8009187"><ele>590.0</ele><time>2026-05-03T09:12:13.535Z</time></trkpt><trkpt lat="44.4402055" lon="10.8010257"><ele>591.0</ele><time>2026-05-03T09:12:14.545Z</time></trkpt><trkpt lat="44.4401074" lon="10.8011273"><ele>591.0</ele><time>2026-05-03T09:12:15.54Z</time></trkpt><trkpt lat="44.4400027" lon="10.8012269"><ele>591.0</ele><time>2026-05-03T09:12:16.542Z</time></trkpt><trkpt lat="44.4399053" lon="10.8013133"><ele>591.0</ele><time>2026-05-03T09:12:17.543Z</time></trkpt><trkpt lat="44.4398243" lon="10.8013886"><ele>591.0</ele><time>2026-05-03T09:12:18.538Z</time></trkpt><trkpt lat="44.4397334" lon="10.8014557"><ele>591.0</ele><time>2026-05-03T09:12:19.542Z</time></trkpt><trkpt lat="44.4396336" lon="10.8015151"><ele>592.8</ele><time>2026-05-03T09:12:20.543Z</time></trkpt><trkpt lat="44.4395374" lon="10.801568"><ele>594.6</ele><time>2026-05-03T09:12:21.546Z</time></trkpt><trkpt lat="44.4394341" lon="10.801611"><ele>596.4</ele><time>2026-05-03T09:12:22.54Z</time></trkpt><trkpt lat="44.4393207" lon="10.8016478"><ele>598.2</ele><time>2026-05-03T09:12:23.541Z</time></trkpt><trkpt lat="44.4392085" lon="10.8016732"><ele>600.0</ele><time>2026-05-03T09:12:24.543Z</time></trkpt><trkpt lat="44.4391143" lon="10.801693"><ele>600.0</ele><time>2026-05-03T09:12:25.534Z</time></trkpt><trkpt lat="44.4390205" lon="10.8017099"><ele>600.0</ele><time>2026-05-03T09:12:26.535Z</time></trkpt><trkpt lat="44.43894" lon="10.8017299"><ele>600.0</ele><time>2026-05-03T09:12:27.534Z</time></trkpt><trkpt lat="44.4388456" lon="10.8017339"><ele>600.0</ele><time>2026-05-03T09:12:28.531Z</time></trkpt><trkpt lat="44.4387588" lon="10.8017224"><ele>600.0</ele><time>2026-05-03T09:12:29.543Z</time></trkpt><trkpt lat="44.438673" lon="10.8016793"><ele>600.0</ele><time>2026-05-03T09:12:30.542Z</time></trkpt><trkpt lat="44.4385904" lon="10.8016077"><ele>603.1666666666666</ele><time>2026-05-03T09:12:31.542Z</time></trkpt><trkpt lat="44.4385161" lon="10.8015384"><ele>606.3333333333334</ele><time>2026-05-03T09:12:32.534Z</time></trkpt><trkpt lat="44.4384315" lon="10.8014858"><ele>609.5</ele><time>2026-05-03T09:12:33.542Z</time></trkpt><trkpt lat="44.4383514" lon="10.8014843"><ele>612.6666666666667</ele><time>2026-05-03T09:12:34.542Z</time></trkpt><trkpt lat="44.4382739" lon="10.8015358"><ele>615.8333333333334</ele><time>2026-05-03T09:12:35.533Z</time></trkpt><trkpt lat="44.4382001" lon="10.8015983"><ele>619.0</ele><time>2026-05-03T09:12:36.537Z</time></trkpt><trkpt lat="44.4381328" lon="10.8016589"><ele>619.0</ele><time>2026-05-03T09:12:37.528Z</time></trkpt><trkpt lat="44.4380623" lon="10.8017199"><ele>619.0</ele><time>2026-05-03T09:12:38.528Z</time></trkpt><trkpt lat="44.4379827" lon="10.801777"><ele>619.0</ele><time>2026-05-03T09:12:39.525Z</time></trkpt><trkpt lat="44.4378969" lon="10.8018415"><ele>619.0</ele><time>2026-05-03T09:12:40.528Z</time></trkpt><trkpt lat="44.4378062" lon="10.8019078"><ele>619.0</ele><time>2026-05-03T09:12:41.53Z</time></trkpt><trkpt lat="44.437711" lon="10.8019817"><ele>618.8</ele><time>2026-05-03T09:12:42.529Z</time></trkpt><trkpt lat="44.437613" lon="10.8020453"><ele>618.5999999999999</ele><time>2026-05-03T09:12:43.534Z</time></trkpt><trkpt lat="44.4375114" lon="10.8021"><ele>618.4</ele><time>2026-05-03T09:12:44.536Z</time></trkpt><trkpt lat="44.4374275" lon="10.802127"><ele>618.1999999999999</ele><time>2026-05-03T09:12:45.527Z</time></trkpt><trkpt lat="44.4373502" lon="10.8021534"><ele>618.0</ele><time>2026-05-03T09:12:46.542Z</time></trkpt><trkpt lat="44.4372799" lon="10.8021754"><ele>618.0</ele><time>2026-05-03T09:12:47.544Z</time></trkpt><trkpt lat="44.4371691" lon="10.8021975"><ele>618.0</ele><time>2026-05-03T09:12:49.534Z</time></trkpt><trkpt lat="44.4371038" lon="10.8021925"><ele>618.0</ele><time>2026-05-03T09:12:50.533Z</time></trkpt><trkpt lat="44.43704" lon="10.8021732"><ele>618.0</ele><time>2026-05-03T09:12:51.542Z</time></trkpt><trkpt lat="44.4369672" lon="10.8021275"><ele>618.0</ele><time>2026-05-03T09:12:52.548Z</time></trkpt><trkpt lat="44.4368677" lon="10.8020412"><ele>618.0</ele><time>2026-05-03T09:12:53.537Z</time></trkpt><trkpt lat="44.4367702" lon="10.8019497"><ele>617.1999999999999</ele><time>2026-05-03T09:12:54.533Z</time></trkpt><trkpt lat="44.4366841" lon="10.8018577"><ele>616.4</ele><time>2026-05-03T09:12:55.534Z</time></trkpt><trkpt lat="44.4366088" lon="10.8017659"><ele>615.5999999999999</ele><time>2026-05-03T09:12:56.535Z</time></trkpt><trkpt lat="44.4365444" lon="10.8016883"><ele>614.8</ele><time>2026-05-03T09:12:57.531Z</time></trkpt><trkpt lat="44.4364863" lon="10.8016146"><ele>614.0</ele><time>2026-05-03T09:12:58.535Z</time></trkpt><trkpt lat="44.4364061" lon="10.8015141"><ele>612.2</ele><time>2026-05-03T09:12:59.542Z</time></trkpt><trkpt lat="44.4363312" lon="10.8014328"><ele>610.4</ele><time>2026-05-03T09:13:00.533Z</time></trkpt><trkpt lat="44.4362541" lon="10.8013412"><ele>608.6</ele><time>2026-05-03T09:13:01.523Z</time></trkpt><trkpt lat="44.4361802" lon="10.801271"><ele>606.8</ele><time>2026-05-03T09:13:02.536Z</time></trkpt><trkpt lat="44.4360931" lon="10.8012064"><ele>605.0</ele><time>2026-05-03T09:13:03.533Z</time></trkpt><trkpt lat="44.43601" lon="10.8011577"><ele>605.0</ele><time>2026-05-03T09:13:04.531Z</time></trkpt><trkpt lat="44.4359223" lon="10.8011329"><ele>605.0</ele><time>2026-05-03T09:13:05.526Z</time></trkpt><trkpt lat="44.4358386" lon="10.8010999"><ele>605.0</ele><time>2026-05-03T09:13:06.533Z</time></trkpt><trkpt lat="44.4357616" lon="10.8010422"><ele>605.0</ele><time>2026-05-03T09:13:07.544Z</time></trkpt><trkpt lat="44.4356986" lon="10.8009386"><ele>605.0</ele><time>2026-05-03T09:13:08.531Z</time></trkpt><trkpt lat="44.4356426" lon="10.8008173"><ele>606.6</ele><time>2026-05-03T09:13:09.537Z</time></trkpt><trkpt lat="44.4355882" lon="10.8006799"><ele>608.2</ele><time>2026-05-03T09:13:10.531Z</time></trkpt><trkpt lat="44.4355369" lon="10.800544"><ele>609.8</ele><time>2026-05-03T09:13:11.53Z</time></trkpt><trkpt lat="44.4354893" lon="10.8004057"><ele>611.4</ele><time>2026-05-03T09:13:12.534Z</time></trkpt><trkpt lat="44.4354481" lon="10.8002925"><ele>613.0</ele><time>2026-05-03T09:13:13.53Z</time></trkpt><trkpt lat="44.4354172" lon="10.8001828"><ele>614.1666666666667</ele><time>2026-05-03T09:13:14.537Z</time></trkpt><trkpt lat="44.4353905" lon="10.8000732"><ele>615.3333333333334</ele><time>2026-05-03T09:13:15.53Z</time></trkpt><trkpt lat="44.4353587" lon="10.7999756"><ele>616.5</ele><time>2026-05-03T09:13:16.538Z</time></trkpt><trkpt lat="44.4353145" lon="10.7999"><ele>617.6666666666666</ele><time>2026-05-03T09:13:17.538Z</time></trkpt><trkpt lat="44.4352398" lon="10.7998455"><ele>618.8333333333333</ele><time>2026-05-03T09:13:18.531Z</time></trkpt><trkpt lat="44.4351536" lon="10.7997948"><ele>620.0</ele><time>2026-05-03T09:13:19.534Z</time></trkpt><trkpt lat="44.4350527" lon="10.7997384"><ele>620.0</ele><time>2026-05-03T09:13:20.533Z</time></trkpt><trkpt lat="44.4349499" lon="10.799684"><ele>620.0</ele><time>2026-05-03T09:13:21.537Z</time></trkpt><trkpt lat="44.4348403" lon="10.7996109"><ele>620.0</ele><time>2026-05-03T09:13:22.532Z</time></trkpt><trkpt lat="44.4347286" lon="10.7995351"><ele>620.0</ele><time>2026-05-03T09:13:23.534Z</time></trkpt><trkpt lat="44.4346196" lon="10.7994515"><ele>619.75</ele><time>2026-05-03T09:13:24.539Z</time></trkpt><trkpt lat="44.4345129" lon="10.799358"><ele>619.5</ele><time>2026-05-03T09:13:25.54Z</time></trkpt><trkpt lat="44.4344108" lon="10.7992575"><ele>619.25</ele><time>2026-05-03T09:13:26.546Z</time></trkpt><trkpt lat="44.4343251" lon="10.7991442"><ele>619.0</ele><time>2026-05-03T09:13:27.542Z</time></trkpt><trkpt lat="44.4342499" lon="10.7990154"><ele>619.4</ele><time>2026-05-03T09:13:28.542Z</time></trkpt><trkpt lat="44.4341799" lon="10.7988825"><ele>619.8</ele><time>2026-05-03T09:13:29.545Z</time></trkpt><trkpt lat="44.4341106" lon="10.7987579"><ele>620.2</ele><time>2026-05-03T09:13:30.54Z</time></trkpt><trkpt lat="44.4340412" lon="10.7986458"><ele>620.6</ele><time>2026-05-03T09:13:31.541Z</time></trkpt><trkpt lat="44.4339747" lon="10.7985372"><ele>621.0</ele><time>2026-05-03T09:13:32.542Z</time></trkpt><trkpt lat="44.4339106" lon="10.7984289"><ele>621.2</ele><time>2026-05-03T09:13:33.546Z</time></trkpt><trkpt lat="44.4338473" lon="10.7983293"><ele>621.4000000000001</ele><time>2026-05-03T09:13:34.541Z</time></trkpt><trkpt lat="44.4337857" lon="10.7982249"><ele>621.6</ele><time>2026-05-03T09:13:35.542Z</time></trkpt><trkpt lat="44.4337163" lon="10.7981244"><ele>621.8000000000001</ele><time>2026-05-03T09:13:36.543Z</time></trkpt><trkpt lat="44.4336419" lon="10.7980188"><ele>622.0</ele><time>2026-05-03T09:13:37.543Z</time></trkpt><trkpt lat="44.4335686" lon="10.7979123"><ele>622.0</ele><time>2026-05-03T09:13:38.552Z</time></trkpt><trkpt lat="44.4335036" lon="10.7978052"><ele>622.0</ele><time>2026-05-03T09:13:39.548Z</time></trkpt><trkpt lat="44.4334407" lon="10.7976953"><ele>622.0</ele><time>2026-05-03T09:13:40.546Z</time></trkpt><trkpt lat="44.4333808" lon="10.7975688"><ele>622.0</ele><time>2026-05-03T09:13:41.541Z</time></trkpt><trkpt lat="44.4333268" lon="10.7974294"><ele>622.0</ele><time>2026-05-03T09:13:42.542Z</time></trkpt><trkpt lat="44.4332793" lon="10.7972891"><ele>623.0</ele><time>2026-05-03T09:13:43.543Z</time></trkpt><trkpt lat="44.4332283" lon="10.797156"><ele>624.0</ele><time>2026-05-03T09:13:44.547Z</time></trkpt><trkpt lat="44.4331804" lon="10.7970272"><ele>625.0</ele><time>2026-05-03T09:13:45.544Z</time></trkpt><trkpt lat="44.4331199" lon="10.7969037"><ele>626.0</ele><time>2026-05-03T09:13:46.54Z</time></trkpt><trkpt lat="44.433051" lon="10.7967966"><ele>627.0</ele><time>2026-05-03T09:13:47.537Z</time></trkpt><trkpt lat="44.4329643" lon="10.7966974"><ele>628.4</ele><time>2026-05-03T09:13:48.54Z</time></trkpt><trkpt lat="44.432874" lon="10.7966054"><ele>629.8000000000001</ele><time>2026-05-03T09:13:49.542Z</time></trkpt><trkpt lat="44.4327868" lon="10.7965123"><ele>631.2</ele><time>2026-05-03T09:13:50.545Z</time></trkpt><trkpt lat="44.4327027" lon="10.7964248"><ele>632.6</ele><time>2026-05-03T09:13:51.549Z</time></trkpt><trkpt lat="44.4326154" lon="10.7963411"><ele>634.0</ele><time>2026-05-03T09:13:52.545Z</time></trkpt><trkpt lat="44.4325303" lon="10.7962728"><ele>634.0</ele><time>2026-05-03T09:13:53.545Z</time></trkpt><trkpt lat="44.4324382" lon="10.7962065"><ele>634.0</ele><time>2026-05-03T09:13:54.542Z</time></trkpt><trkpt lat="44.4323473" lon="10.796134"><ele>634.0</ele><time>2026-05-03T09:13:55.542Z</time></trkpt><trkpt lat="44.4322621" lon="10.7960631"><ele>634.0</ele><time>2026-05-03T09:13:56.535Z</time></trkpt><trkpt lat="44.432186" lon="10.7959974"><ele>634.0</ele><time>2026-05-03T09:13:57.543Z</time></trkpt><trkpt lat="44.4321202" lon="10.7959341"><ele>636.3333333333334</ele><time>2026-05-03T09:13:58.542Z</time></trkpt><trkpt lat="44.432058" lon="10.7958832"><ele>638.6666666666667</ele><time>2026-05-03T09:13:59.549Z</time></trkpt><trkpt lat="44.431994" lon="10.7958529"><ele>641.0</ele><time>2026-05-03T09:14:01.546Z</time></trkpt><trkpt lat="44.4319098" lon="10.7958131"><ele>643.3333333333334</ele><time>2026-05-03T09:14:03.544Z</time></trkpt><trkpt lat="44.4318237" lon="10.7957786"><ele>645.6666666666666</ele><time>2026-05-03T09:14:04.538Z</time></trkpt><trkpt lat="44.431728" lon="10.7957308"><ele>648.0</ele><time>2026-05-03T09:14:05.533Z</time></trkpt><trkpt lat="44.4316313" lon="10.7956655"><ele>648.0</ele><time>2026-05-03T09:14:06.538Z</time></trkpt><trkpt lat="44.4315404" lon="10.7955658"><ele>648.0</ele><time>2026-05-03T09:14:07.532Z</time></trkpt><trkpt lat="44.4314512" lon="10.7954533"><ele>648.0</ele><time>2026-05-03T09:14:08.534Z</time></trkpt><trkpt lat="44.4313585" lon="10.7953307"><ele>648.0</ele><time>2026-05-03T09:14:09.542Z</time></trkpt><trkpt lat="44.4312601" lon="10.7952182"><ele>649.5999999999999</ele><time>2026-05-03T09:14:10.53Z</time></trkpt><trkpt lat="44.4311696" lon="10.7951217"><ele>651.1999999999999</ele><time>2026-05-03T09:14:11.535Z</time></trkpt><trkpt lat="44.4310912" lon="10.7950503"><ele>652.8</ele><time>2026-05-03T09:14:12.535Z</time></trkpt><trkpt lat="44.4310081" lon="10.7949857"><ele>654.4</ele><time>2026-05-03T09:14:13.536Z</time></trkpt><trkpt lat="44.4309294" lon="10.7949317"><ele>656.0</ele><time>2026-05-03T09:14:14.536Z</time></trkpt><trkpt lat="44.430846" lon="10.7948708"><ele>656.0</ele><time>2026-05-03T09:14:15.53Z</time></trkpt><trkpt lat="44.4307572" lon="10.7948074"><ele>656.0</ele><time>2026-05-03T09:14:16.535Z</time></trkpt><trkpt lat="44.4306785" lon="10.7947447"><ele>656.0</ele><time>2026-05-03T09:14:17.536Z</time></trkpt><trkpt lat="44.4306218" lon="10.7946733"><ele>656.0</ele><time>2026-05-03T09:14:18.533Z</time></trkpt><trkpt lat="44.4305801" lon="10.7946016"><ele>656.0</ele><time>2026-05-03T09:14:19.536Z</time></trkpt><trkpt lat="44.4305284" lon="10.7945279"><ele>656.0</ele><time>2026-05-03T09:14:20.537Z</time></trkpt><trkpt lat="44.4304732" lon="10.7944541"><ele>654.4</ele><time>2026-05-03T09:14:21.54Z</time></trkpt><trkpt lat="44.4304171" lon="10.7943702"><ele>652.8</ele><time>2026-05-03T09:14:22.536Z</time></trkpt><trkpt lat="44.4303625" lon="10.7942782"><ele>651.1999999999999</ele><time>2026-05-03T09:14:23.538Z</time></trkpt><trkpt lat="44.4303044" lon="10.7941669"><ele>649.5999999999999</ele><time>2026-05-03T09:14:24.538Z</time></trkpt><trkpt lat="44.4302512" lon="10.7940563"><ele>648.0</ele><time>2026-05-03T09:14:25.542Z</time></trkpt><trkpt lat="44.4302001" lon="10.7939517"><ele>650.2857142857143</ele><time>2026-05-03T09:14:26.539Z</time></trkpt><trkpt lat="44.4301574" lon="10.7938491"><ele>652.5714285714286</ele><time>2026-05-03T09:14:27.536Z</time></trkpt><trkpt lat="44.4301155" lon="10.7937573"><ele>654.8571428571429</ele><time>2026-05-03T09:14:28.541Z</time></trkpt><trkpt lat="44.4300902" lon="10.7936703"><ele>657.1428571428571</ele><time>2026-05-03T09:14:29.546Z</time></trkpt><trkpt lat="44.4300786" lon="10.7935774"><ele>659.4285714285714</ele><time>2026-05-03T09:14:30.543Z</time></trkpt><trkpt lat="44.4300722" lon="10.7934792"><ele>661.7142857142857</ele><time>2026-05-03T09:14:31.548Z</time></trkpt><trkpt lat="44.430081" lon="10.7933802"><ele>664.0</ele><time>2026-05-03T09:14:32.543Z</time></trkpt><trkpt lat="44.4300843" lon="10.7932394"><ele>668.4000000000001</ele><time>2026-05-03T09:14:34.538Z</time></trkpt><trkpt lat="44.4300252" lon="10.7931446"><ele>672.8</ele><time>2026-05-03T09:14:36.54Z</time></trkpt><trkpt lat="44.4299543" lon="10.7931322"><ele>677.2</ele><time>2026-05-03T09:14:37.528Z</time></trkpt><trkpt lat="44.4298673" lon="10.7931255"><ele>681.5999999999999</ele><time>2026-05-03T09:14:38.531Z</time></trkpt><trkpt lat="44.4297611" lon="10.7931105"><ele>686.0</ele><time>2026-05-03T09:14:39.535Z</time></trkpt><trkpt lat="44.4296478" lon="10.7930859"><ele>684.75</ele><time>2026-05-03T09:14:40.551Z</time></trkpt><trkpt lat="44.429518" lon="10.7930763"><ele>683.5</ele><time>2026-05-03T09:14:41.538Z</time></trkpt><trkpt lat="44.4293916" lon="10.7930656"><ele>682.25</ele><time>2026-05-03T09:14:42.538Z</time></trkpt><trkpt lat="44.4292655" lon="10.7930393"><ele>681.0</ele><time>2026-05-03T09:14:43.539Z</time></trkpt><trkpt lat="44.4291449" lon="10.793016"><ele>681.0</ele><time>2026-05-03T09:14:44.538Z</time></trkpt><trkpt lat="44.4290413" lon="10.7929916"><ele>681.0</ele><time>2026-05-03T09:14:45.537Z</time></trkpt><trkpt lat="44.4289439" lon="10.7929586"><ele>681.0</ele><time>2026-05-03T09:14:46.541Z</time></trkpt><trkpt lat="44.4288533" lon="10.7929179"><ele>681.0</ele><time>2026-05-03T09:14:47.541Z</time></trkpt><trkpt lat="44.4287653" lon="10.7928668"><ele>681.0</ele><time>2026-05-03T09:14:48.54Z</time></trkpt><trkpt lat="44.4286817" lon="10.7928147"><ele>680.1999999999999</ele><time>2026-05-03T09:14:49.542Z</time></trkpt><trkpt lat="44.4286032" lon="10.7927648"><ele>679.4</ele><time>2026-05-03T09:14:50.541Z</time></trkpt><trkpt lat="44.42851" lon="10.7927409"><ele>678.6</ele><time>2026-05-03T09:14:51.547Z</time></trkpt><trkpt lat="44.4284208" lon="10.792748"><ele>677.8</ele><time>2026-05-03T09:14:52.543Z</time></trkpt><trkpt lat="44.4283294" lon="10.7927928"><ele>677.0</ele><time>2026-05-03T09:14:53.54Z</time></trkpt><trkpt lat="44.4282347" lon="10.7928451"><ele>677.0</ele><time>2026-05-03T09:14:54.538Z</time></trkpt><trkpt lat="44.4281316" lon="10.7928939"><ele>677.0</ele><time>2026-05-03T09:14:55.542Z</time></trkpt><trkpt lat="44.4280139" lon="10.7929283"><ele>677.0</ele><time>2026-05-03T09:14:56.54Z</time></trkpt><trkpt lat="44.4278879" lon="10.7929479"><ele>677.0</ele><time>2026-05-03T09:14:57.541Z</time></trkpt><trkpt lat="44.427764" lon="10.7929485"><ele>678.6</ele><time>2026-05-03T09:14:58.537Z</time></trkpt><trkpt lat="44.427643" lon="10.7929362"><ele>680.2</ele><time>2026-05-03T09:14:59.542Z</time></trkpt><trkpt lat="44.4275343" lon="10.7929347"><ele>681.8</ele><time>2026-05-03T09:15:00.532Z</time></trkpt><trkpt lat="44.4274405" lon="10.7929422"><ele>683.4</ele><time>2026-05-03T09:15:01.529Z</time></trkpt><trkpt lat="44.427355" lon="10.7929703"><ele>685.0</ele><time>2026-05-03T09:15:02.536Z</time></trkpt><trkpt lat="44.4272959" lon="10.793031"><ele>685.0</ele><time>2026-05-03T09:15:03.53Z</time></trkpt><trkpt lat="44.427245" lon="10.7931358"><ele>685.0</ele><time>2026-05-03T09:15:04.53Z</time></trkpt><trkpt lat="44.4271982" lon="10.7932569"><ele>685.0</ele><time>2026-05-03T09:15:05.53Z</time></trkpt><trkpt lat="44.4271439" lon="10.7933628"><ele>685.0</ele><time>2026-05-03T09:15:06.533Z</time></trkpt><trkpt lat="44.4270875" lon="10.7934202"><ele>685.0</ele><time>2026-05-03T09:15:07.534Z</time></trkpt><trkpt lat="44.4270227" lon="10.7934354"><ele>685.0</ele><time>2026-05-03T09:15:08.527Z</time></trkpt><trkpt lat="44.4269315" lon="10.7934355"><ele>687.2</ele><time>2026-05-03T09:15:09.527Z</time></trkpt><trkpt lat="44.4268403" lon="10.7934304"><ele>689.4</ele><time>2026-05-03T09:15:10.541Z</time></trkpt><trkpt lat="44.4267368" lon="10.7934234"><ele>691.5999999999999</ele><time>2026-05-03T09:15:11.53Z</time></trkpt><trkpt lat="44.426624" lon="10.7934181"><ele>693.8</ele><time>2026-05-03T09:15:12.531Z</time></trkpt><trkpt lat="44.4265148" lon="10.7934088"><ele>696.0</ele><time>2026-05-03T09:15:13.532Z</time></trkpt><trkpt lat="44.4264033" lon="10.793385"><ele>696.25</ele><time>2026-05-03T09:15:14.532Z</time></trkpt><trkpt lat="44.4262878" lon="10.793352"><ele>696.5</ele><time>2026-05-03T09:15:15.54Z</time></trkpt><trkpt lat="44.4261662" lon="10.7932989"><ele>696.75</ele><time>2026-05-03T09:15:16.534Z</time></trkpt><trkpt lat="44.42605" lon="10.793241"><ele>697.0</ele><time>2026-05-03T09:15:17.534Z</time></trkpt><trkpt lat="44.4259514" lon="10.793183"><ele>697.0</ele><time>2026-05-03T09:15:18.536Z</time></trkpt><trkpt lat="44.4258584" lon="10.7931251"><ele>697.0</ele><time>2026-05-03T09:15:19.535Z</time></trkpt><trkpt lat="44.4257643" lon="10.7930569"><ele>697.0</ele><time>2026-05-03T09:15:20.534Z</time></trkpt><trkpt lat="44.4256746" lon="10.7929873"><ele>697.0</ele><time>2026-05-03T09:15:21.538Z</time></trkpt><trkpt lat="44.4255935" lon="10.7929105"><ele>697.0</ele><time>2026-05-03T09:15:22.532Z</time></trkpt><trkpt lat="44.4255128" lon="10.7928316"><ele>700.6</ele><time>2026-05-03T09:15:23.534Z</time></trkpt><trkpt lat="44.4254371" lon="10.7927537"><ele>704.2</ele><time>2026-05-03T09:15:24.532Z</time></trkpt><trkpt lat="44.4253563" lon="10.7926748"><ele>707.8</ele><time>2026-05-03T09:15:25.534Z</time></trkpt><trkpt lat="44.425276" lon="10.7925842"><ele>711.4</ele><time>2026-05-03T09:15:26.533Z</time></trkpt><trkpt lat="44.4252042" lon="10.7924942"><ele>715.0</ele><time>2026-05-03T09:15:27.534Z</time></trkpt><trkpt lat="44.4251195" lon="10.792414"><ele>717.6</ele><time>2026-05-03T09:15:28.536Z</time></trkpt><trkpt lat="44.4250297" lon="10.7923401"><ele>720.2</ele><time>2026-05-03T09:15:29.531Z</time></trkpt><trkpt lat="44.4249377" lon="10.7922683"><ele>722.8</ele><time>2026-05-03T09:15:30.531Z</time></trkpt><trkpt lat="44.4248394" lon="10.7921947"><ele>725.4</ele><time>2026-05-03T09:15:31.523Z</time></trkpt><trkpt lat="44.4247532" lon="10.7921131"><ele>728.0</ele><time>2026-05-03T09:15:32.522Z</time></trkpt><trkpt lat="44.4246812" lon="10.792054"><ele>730.4</ele><time>2026-05-03T09:15:33.533Z</time></trkpt><trkpt lat="44.4246087" lon="10.79202"><ele>732.8</ele><time>2026-05-03T09:15:34.527Z</time></trkpt><trkpt lat="44.4245294" lon="10.7920268"><ele>735.2</ele><time>2026-05-03T09:15:35.528Z</time></trkpt><trkpt lat="44.4244395" lon="10.7920431"><ele>737.6</ele><time>2026-05-03T09:15:36.525Z</time></trkpt><trkpt lat="44.4243317" lon="10.7920785"><ele>740.0</ele><time>2026-05-03T09:15:37.529Z</time></trkpt><trkpt lat="44.4242252" lon="10.7921163"><ele>740.0</ele><time>2026-05-03T09:15:38.525Z</time></trkpt><trkpt lat="44.4241166" lon="10.7921732"><ele>740.0</ele><time>2026-05-03T09:15:39.528Z</time></trkpt><trkpt lat="44.4240135" lon="10.7922381"><ele>740.0</ele><time>2026-05-03T09:15:40.533Z</time></trkpt><trkpt lat="44.4239223" lon="10.792335"><ele>740.0</ele><time>2026-05-03T09:15:41.529Z</time></trkpt><trkpt lat="44.4238498" lon="10.792426"><ele>740.0</ele><time>2026-05-03T09:15:42.529Z</time></trkpt><trkpt lat="44.423775" lon="10.7924799"><ele>742.4</ele><time>2026-05-03T09:15:43.532Z</time></trkpt><trkpt lat="44.4236952" lon="10.7925058"><ele>744.8</ele><time>2026-05-03T09:15:44.532Z</time></trkpt><trkpt lat="44.4235997" lon="10.7924977"><ele>747.2</ele><time>2026-05-03T09:15:45.529Z</time></trkpt><trkpt lat="44.4235067" lon="10.7924765"><ele>749.6</ele><time>2026-05-03T09:15:46.529Z</time></trkpt><trkpt lat="44.423412" lon="10.7924485"><ele>752.0</ele><time>2026-05-03T09:15:47.528Z</time></trkpt><trkpt lat="44.4233191" lon="10.7924119"><ele>752.0</ele><time>2026-05-03T09:15:48.527Z</time></trkpt><trkpt lat="44.4232245" lon="10.792389"><ele>752.0</ele><time>2026-05-03T09:15:49.531Z</time></trkpt><trkpt lat="44.4231183" lon="10.7923724"><ele>752.0</ele><time>2026-05-03T09:15:50.523Z</time></trkpt><trkpt lat="44.4230021" lon="10.7923632"><ele>752.0</ele><time>2026-05-03T09:15:51.526Z</time></trkpt><trkpt lat="44.4228914" lon="10.7923582"><ele>752.0</ele><time>2026-05-03T09:15:52.527Z</time></trkpt><trkpt lat="44.4227914" lon="10.7923575"><ele>755.0</ele><time>2026-05-03T09:15:53.524Z</time></trkpt><trkpt lat="44.4226853" lon="10.7923708"><ele>758.0</ele><time>2026-05-03T09:15:54.525Z</time></trkpt><trkpt lat="44.4225838" lon="10.7923831"><ele>761.0</ele><time>2026-05-03T09:15:55.526Z</time></trkpt><trkpt lat="44.422498" lon="10.7923836"><ele>764.0</ele><time>2026-05-03T09:15:56.528Z</time></trkpt><trkpt lat="44.4224219" lon="10.7923837"><ele>767.0</ele><time>2026-05-03T09:15:57.523Z</time></trkpt><trkpt lat="44.4223248" lon="10.7923801"><ele>767.0</ele><time>2026-05-03T09:15:59.52Z</time></trkpt><trkpt lat="44.4222592" lon="10.7923933"><ele>767.0</ele><time>2026-05-03T09:16:01.523Z</time></trkpt><trkpt lat="44.4221835" lon="10.7924679"><ele>767.0</ele><time>2026-05-03T09:16:03.52Z</time></trkpt><trkpt lat="44.4221527" lon="10.7925877"><ele>767.0</ele><time>2026-05-03T09:16:05.522Z</time></trkpt><trkpt lat="44.4221205" lon="10.7927149"><ele>767.0</ele><time>2026-05-03T09:16:07.525Z</time></trkpt><trkpt lat="44.4220987" lon="10.7928735"><ele>769.8</ele><time>2026-05-03T09:16:09.525Z</time></trkpt><trkpt lat="44.422096" lon="10.7930634"><ele>772.6</ele><time>2026-05-03T09:16:11.522Z</time></trkpt><trkpt lat="44.4220965" lon="10.7931604"><ele>775.4</ele><time>2026-05-03T09:16:12.531Z</time></trkpt><trkpt lat="44.4221108" lon="10.7933147"><ele>778.1999999999999</ele><time>2026-05-03T09:16:14.53Z</time></trkpt><trkpt lat="44.4220403" lon="10.793322"><ele>781.0</ele><time>2026-05-03T09:16:17.528Z</time></trkpt><trkpt lat="44.4219578" lon="10.7931807"><ele>781.0</ele><time>2026-05-03T09:16:19.521Z</time></trkpt><trkpt lat="44.4219431" lon="10.7930085"><ele>781.0</ele><time>2026-05-03T09:16:21.529Z</time></trkpt><trkpt lat="44.4219853" lon="10.7928279"><ele>781.0</ele><time>2026-05-03T09:16:23.524Z</time></trkpt><trkpt lat="44.4220172" lon="10.7927084"><ele>781.0</ele><time>2026-05-03T09:16:24.525Z</time></trkpt><trkpt lat="44.4220413" lon="10.7925767"><ele>781.0</ele><time>2026-05-03T09:16:25.526Z</time></trkpt><trkpt lat="44.4220803" lon="10.7924188"><ele>779.5999999999999</ele><time>2026-05-03T09:16:26.521Z</time></trkpt><trkpt lat="44.4221009" lon="10.7922721"><ele>778.2</ele><time>2026-05-03T09:16:27.523Z</time></trkpt><trkpt lat="44.4221072" lon="10.7921259"><ele>776.8</ele><time>2026-05-03T09:16:28.526Z</time></trkpt><trkpt lat="44.4221039" lon="10.7919805"><ele>775.4000000000001</ele><time>2026-05-03T09:16:29.527Z</time></trkpt><trkpt lat="44.4221205" lon="10.7918163"><ele>774.0</ele><time>2026-05-03T09:16:30.523Z</time></trkpt><trkpt lat="44.4221487" lon="10.7916795"><ele>774.0</ele><time>2026-05-03T09:16:31.525Z</time></trkpt><trkpt lat="44.4221806" lon="10.7915229"><ele>774.0</ele><time>2026-05-03T09:16:32.524Z</time></trkpt><trkpt lat="44.4222081" lon="10.7913449"><ele>774.0</ele><time>2026-05-03T09:16:33.528Z</time></trkpt><trkpt lat="44.4222341" lon="10.7911766"><ele>774.0</ele><time>2026-05-03T09:16:34.522Z</time></trkpt><trkpt lat="44.4222524" lon="10.7910163"><ele>776.0</ele><time>2026-05-03T09:16:35.532Z</time></trkpt><trkpt lat="44.4222773" lon="10.7908606"><ele>778.0</ele><time>2026-05-03T09:16:36.526Z</time></trkpt><trkpt lat="44.4223059" lon="10.7907128"><ele>780.0</ele><time>2026-05-03T09:16:37.523Z</time></trkpt><trkpt lat="44.4223431" lon="10.7905752"><ele>782.0</ele><time>2026-05-03T09:16:38.528Z</time></trkpt><trkpt lat="44.4223782" lon="10.790458"><ele>784.0</ele><time>2026-05-03T09:16:39.527Z</time></trkpt><trkpt lat="44.4224251" lon="10.7903508"><ele>783.9999999999999</ele><time>2026-05-03T09:16:40.526Z</time></trkpt><trkpt lat="44.4224708" lon="10.7902545"><ele>784.0</ele><time>2026-05-03T09:16:41.527Z</time></trkpt><trkpt lat="44.4225224" lon="10.7901508"><ele>784.0</ele><time>2026-05-03T09:16:42.528Z</time></trkpt><trkpt lat="44.4225642" lon="10.7900456"><ele>784.0</ele><time>2026-05-03T09:16:43.537Z</time></trkpt><trkpt lat="44.4226122" lon="10.7899435"><ele>783.9999999999999</ele><time>2026-05-03T09:16:44.53Z</time></trkpt><trkpt lat="44.4226526" lon="10.7898589"><ele>784.0</ele><time>2026-05-03T09:16:45.531Z</time></trkpt><trkpt lat="44.4226816" lon="10.7897483"><ele>785.4999999999999</ele><time>2026-05-03T09:16:47.529Z</time></trkpt><trkpt lat="44.4227098" lon="10.7896439"><ele>787.0</ele><time>2026-05-03T09:17:00.515Z</time></trkpt><trkpt lat="44.4227101" lon="10.789541"><ele>788.5</ele><time>2026-05-03T09:17:02.52Z</time></trkpt><trkpt lat="44.4226461" lon="10.7894995"><ele>790.0</ele><time>2026-05-03T09:17:03.523Z</time></trkpt><trkpt lat="44.4225543" lon="10.7894407"><ele>791.4999999999999</ele><time>2026-05-03T09:17:04.515Z</time></trkpt><trkpt lat="44.4224481" lon="10.7893948"><ele>793.0</ele><time>2026-05-03T09:17:05.523Z</time></trkpt><trkpt lat="44.4223467" lon="10.7893269"><ele>793.0</ele><time>2026-05-03T09:17:06.515Z</time></trkpt><trkpt lat="44.422242" lon="10.7892605"><ele>793.0</ele><time>2026-05-03T09:17:07.516Z</time></trkpt><trkpt lat="44.422145" lon="10.7891966"><ele>793.0</ele><time>2026-05-03T09:17:08.514Z</time></trkpt><trkpt lat="44.4220632" lon="10.7891441"><ele>793.0</ele><time>2026-05-03T09:17:09.518Z</time></trkpt><trkpt lat="44.4219849" lon="10.7890921"><ele>793.0</ele><time>2026-05-03T09:17:10.513Z</time></trkpt><trkpt lat="44.4219127" lon="10.7890423"><ele>793.0</ele><time>2026-05-03T09:17:12.529Z</time></trkpt><trkpt lat="44.4219508" lon="10.7889446"><ele>793.0</ele><time>2026-05-03T09:17:14.531Z</time></trkpt><trkpt lat="44.4220386" lon="10.7888904"><ele>793.0</ele><time>2026-05-03T09:17:16.515Z</time></trkpt><trkpt lat="44.4221536" lon="10.7888189"><ele>793.0</ele><time>2026-05-03T09:17:18.506Z</time></trkpt><trkpt lat="44.4222577" lon="10.7887717"><ele>793.0</ele><time>2026-05-03T09:17:20.504Z</time></trkpt><trkpt lat="44.4223698" lon="10.7887161"><ele>793.0000000000001</ele><time>2026-05-03T09:17:22.504Z</time></trkpt><trkpt lat="44.4224244" lon="10.7886588"><ele>793.0</ele><time>2026-05-03T09:17:23.505Z</time></trkpt><trkpt lat="44.4224816" lon="10.7886056"><ele>793.0</ele><time>2026-05-03T09:17:24.509Z</time></trkpt><trkpt lat="44.4225403" lon="10.7885592"><ele>793.0</ele><time>2026-05-03T09:17:25.505Z</time></trkpt><trkpt lat="44.4226027" lon="10.7885148"><ele>793.0</ele><time>2026-05-03T09:17:26.507Z</time></trkpt><trkpt lat="44.4226588" lon="10.7884685"><ele>793.0000000000001</ele><time>2026-05-03T09:17:27.505Z</time></trkpt><trkpt lat="44.4227214" lon="10.788417"><ele>793.0</ele><time>2026-05-03T09:17:28.507Z</time></trkpt><trkpt lat="44.4227926" lon="10.788365"><ele>793.1666666666666</ele><time>2026-05-03T09:17:29.51Z</time></trkpt><trkpt lat="44.4228489" lon="10.7883014"><ele>793.3333333333333</ele><time>2026-05-03T09:17:30.505Z</time></trkpt><trkpt lat="44.4229192" lon="10.7882398"><ele>793.5</ele><time>2026-05-03T09:17:31.512Z</time></trkpt><trkpt lat="44.4229775" lon="10.7881688"><ele>793.6666666666667</ele><time>2026-05-03T09:17:32.509Z</time></trkpt><trkpt lat="44.4230135" lon="10.7880753"><ele>793.8333333333334</ele><time>2026-05-03T09:17:33.515Z</time></trkpt><trkpt lat="44.4230278" lon="10.7879845"><ele>794.0</ele><time>2026-05-03T09:17:34.52Z</time></trkpt><trkpt lat="44.4230114" lon="10.7878743"><ele>792.0</ele><time>2026-05-03T09:17:35.517Z</time></trkpt><trkpt lat="44.4229706" lon="10.7877553"><ele>790.0</ele><time>2026-05-03T09:17:36.517Z</time></trkpt><trkpt lat="44.4229261" lon="10.7876259"><ele>788.0</ele><time>2026-05-03T09:17:37.513Z</time></trkpt><trkpt lat="44.4228918" lon="10.7875087"><ele>786.0</ele><time>2026-05-03T09:17:38.515Z</time></trkpt><trkpt lat="44.4228372" lon="10.7873943"><ele>784.0</ele><time>2026-05-03T09:17:39.516Z</time></trkpt><trkpt lat="44.4227785" lon="10.787291"><ele>781.6</ele><time>2026-05-03T09:17:40.516Z</time></trkpt><trkpt lat="44.4227305" lon="10.7871748"><ele>779.2</ele><time>2026-05-03T09:17:41.519Z</time></trkpt><trkpt lat="44.4226925" lon="10.7870556"><ele>776.8000000000001</ele><time>2026-05-03T09:17:42.516Z</time></trkpt><trkpt lat="44.4226702" lon="10.7869187"><ele>774.4000000000001</ele><time>2026-05-03T09:17:43.52Z</time></trkpt><trkpt lat="44.4226545" lon="10.7867655"><ele>772.0</ele><time>2026-05-03T09:17:44.521Z</time></trkpt><trkpt lat="44.4226522" lon="10.7866212"><ele>770.0</ele><time>2026-05-03T09:17:45.529Z</time></trkpt><trkpt lat="44.4226633" lon="10.7864681"><ele>768.0</ele><time>2026-05-03T09:17:46.521Z</time></trkpt><trkpt lat="44.4226903" lon="10.7863127"><ele>766.0</ele><time>2026-05-03T09:17:47.523Z</time></trkpt><trkpt lat="44.4227363" lon="10.7861765"><ele>764.0</ele><time>2026-05-03T09:17:48.518Z</time></trkpt><trkpt lat="44.422794" lon="10.7860391"><ele>762.0</ele><time>2026-05-03T09:17:49.522Z</time></trkpt><trkpt lat="44.4228472" lon="10.7859304"><ele>759.4000000000001</ele><time>2026-05-03T09:17:50.516Z</time></trkpt><trkpt lat="44.4228985" lon="10.7858076"><ele>756.8000000000001</ele><time>2026-05-03T09:17:51.517Z</time></trkpt><trkpt lat="44.422956" lon="10.7857065"><ele>754.2</ele><time>2026-05-03T09:17:52.515Z</time></trkpt><trkpt lat="44.4229676" lon="10.7855881"><ele>751.6</ele><time>2026-05-03T09:17:53.524Z</time></trkpt><trkpt lat="44.4229407" lon="10.7854805"><ele>749.0</ele><time>2026-05-03T09:17:54.523Z</time></trkpt><trkpt lat="44.4228742" lon="10.7853759"><ele>749.0</ele><time>2026-05-03T09:17:55.52Z</time></trkpt><trkpt lat="44.422805" lon="10.7852871"><ele>749.0</ele><time>2026-05-03T09:17:56.52Z</time></trkpt><trkpt lat="44.4227406" lon="10.7851994"><ele>749.0</ele><time>2026-05-03T09:17:57.518Z</time></trkpt><trkpt lat="44.4226731" lon="10.7851112"><ele>749.0</ele><time>2026-05-03T09:17:58.525Z</time></trkpt><trkpt lat="44.4225993" lon="10.7850101"><ele>749.0</ele><time>2026-05-03T09:17:59.525Z</time></trkpt><trkpt lat="44.4225262" lon="10.7848977"><ele>748.5</ele><time>2026-05-03T09:18:00.522Z</time></trkpt><trkpt lat="44.4224587" lon="10.7847868"><ele>748.0</ele><time>2026-05-03T09:18:01.527Z</time></trkpt><trkpt lat="44.4223886" lon="10.7846729"><ele>747.5</ele><time>2026-05-03T09:18:02.514Z</time></trkpt><trkpt lat="44.4223121" lon="10.784547"><ele>747.0</ele><time>2026-05-03T09:18:03.515Z</time></trkpt><trkpt lat="44.4222132" lon="10.7844332"><ele>741.5</ele><time>2026-05-03T09:18:04.533Z</time></trkpt><trkpt lat="44.4220982" lon="10.7843375"><ele>736.0</ele><time>2026-05-03T09:18:05.531Z</time></trkpt><trkpt lat="44.421981" lon="10.7842381"><ele>730.5</ele><time>2026-05-03T09:18:06.528Z</time></trkpt><trkpt lat="44.4218511" lon="10.7841631"><ele>725.0</ele><time>2026-05-03T09:18:07.531Z</time></trkpt><trkpt lat="44.4217302" lon="10.7841024"><ele>725.0</ele><time>2026-05-03T09:18:08.528Z</time></trkpt><trkpt lat="44.4216209" lon="10.7840286"><ele>725.0</ele><time>2026-05-03T09:18:09.527Z</time></trkpt><trkpt lat="44.4215305" lon="10.783954"><ele>725.0</ele><time>2026-05-03T09:18:10.525Z</time></trkpt><trkpt lat="44.4214597" lon="10.7838978"><ele>725.0</ele><time>2026-05-03T09:18:11.523Z</time></trkpt><trkpt lat="44.4213988" lon="10.7838482"><ele>725.0</ele><time>2026-05-03T09:18:12.525Z</time></trkpt><trkpt lat="44.4213332" lon="10.7837908"><ele>725.0</ele><time>2026-05-03T09:18:14.524Z</time></trkpt><trkpt lat="44.4213846" lon="10.7838749"><ele>725.0</ele><time>2026-05-03T09:18:26.52Z</time></trkpt><trkpt lat="44.4212983" lon="10.7837888"><ele>725.0</ele><time>2026-05-03T09:23:18.529Z</time></trkpt><trkpt lat="44.4212285" lon="10.7837451"><ele>725.0</ele><time>2026-05-03T09:23:23.523Z</time></trkpt><trkpt lat="44.4211568" lon="10.7837197"><ele>725.0</ele><time>2026-05-03T09:23:29.533Z</time></trkpt><trkpt lat="44.4211043" lon="10.783651"><ele>725.0</ele><time>2026-05-03T09:23:43.533Z</time></trkpt><trkpt lat="44.4211675" lon="10.7836879"><ele>723.0</ele><time>2026-05-03T09:23:57.529Z</time></trkpt><trkpt lat="44.421074" lon="10.783682"><ele>721.0</ele><time>2026-05-03T09:25:23.536Z</time></trkpt><trkpt lat="44.4209759" lon="10.7836976"><ele>719.0</ele><time>2026-05-03T09:25:25.54Z</time></trkpt><trkpt lat="44.4208752" lon="10.7837274"><ele>717.0</ele><time>2026-05-03T09:25:27.538Z</time></trkpt><trkpt lat="44.4207421" lon="10.783715"><ele>715.0</ele><time>2026-05-03T09:25:29.526Z</time></trkpt><trkpt lat="44.4206753" lon="10.7836898"><ele>715.0</ele><time>2026-05-03T09:25:30.538Z</time></trkpt><trkpt lat="44.4206136" lon="10.7836453"><ele>715.0</ele><time>2026-05-03T09:25:31.535Z</time></trkpt><trkpt lat="44.4205449" lon="10.7836016"><ele>715.0</ele><time>2026-05-03T09:25:32.528Z</time></trkpt><trkpt lat="44.4204693" lon="10.7835517"><ele>715.0</ele><time>2026-05-03T09:25:33.525Z</time></trkpt><trkpt lat="44.4203891" lon="10.7835053"><ele>715.0</ele><time>2026-05-03T09:25:34.526Z</time></trkpt><trkpt lat="44.4203014" lon="10.7834553"><ele>715.0</ele><time>2026-05-03T09:25:35.526Z</time></trkpt><trkpt lat="44.4202142" lon="10.7834187"><ele>712.5</ele><time>2026-05-03T09:25:36.522Z</time></trkpt><trkpt lat="44.420125" lon="10.783378"><ele>710.0</ele><time>2026-05-03T09:25:37.532Z</time></trkpt><trkpt lat="44.4200509" lon="10.783353"><ele>707.5</ele><time>2026-05-03T09:25:38.528Z</time></trkpt><trkpt lat="44.4199851" lon="10.7833289"><ele>705.0</ele><time>2026-05-03T09:25:39.533Z</time></trkpt><trkpt lat="44.4199117" lon="10.7833153"><ele>702.5</ele><time>2026-05-03T09:25:41.53Z</time></trkpt><trkpt lat="44.4199698" lon="10.7832526"><ele>700.0</ele><time>2026-05-03T09:25:49.534Z</time></trkpt><trkpt lat="44.4200382" lon="10.7832632"><ele>700.0</ele><time>2026-05-03T09:25:50.526Z</time></trkpt><trkpt lat="44.4201067" lon="10.7832589"><ele>700.0</ele><time>2026-05-03T09:25:51.525Z</time></trkpt><trkpt lat="44.4201878" lon="10.7832482"><ele>700.0</ele><time>2026-05-03T09:25:52.521Z</time></trkpt><trkpt lat="44.4202729" lon="10.7832374"><ele>700.0</ele><time>2026-05-03T09:25:53.515Z</time></trkpt><trkpt lat="44.4203443" lon="10.7832185"><ele>700.0</ele><time>2026-05-03T09:25:54.517Z</time></trkpt><trkpt lat="44.4204607" lon="10.7832024"><ele>700.0</ele><time>2026-05-03T09:25:56.518Z</time></trkpt><trkpt lat="44.4205386" lon="10.7832006"><ele>701.5</ele><time>2026-05-03T09:25:57.518Z</time></trkpt><trkpt lat="44.4206137" lon="10.7831652"><ele>703.0</ele><time>2026-05-03T09:25:58.518Z</time></trkpt><trkpt lat="44.4206826" lon="10.7831396"><ele>704.5</ele><time>2026-05-03T09:25:59.519Z</time></trkpt><trkpt lat="44.4207644" lon="10.7830989"><ele>706.0</ele><time>2026-05-03T09:26:00.518Z</time></trkpt><trkpt lat="44.420842" lon="10.7830603"><ele>707.5</ele><time>2026-05-03T09:26:01.53Z</time></trkpt><trkpt lat="44.4209233" lon="10.783032"><ele>709.0</ele><time>2026-05-03T09:26:02.523Z</time></trkpt><trkpt lat="44.4209982" lon="10.7830027"><ele>709.0</ele><time>2026-05-03T09:26:03.52Z</time></trkpt><trkpt lat="44.4210648" lon="10.7829718"><ele>709.0</ele><time>2026-05-03T09:26:04.52Z</time></trkpt><trkpt lat="44.4211907" lon="10.7829522"><ele>709.0</ele><time>2026-05-03T09:26:06.526Z</time></trkpt><trkpt lat="44.4212572" lon="10.7829528"><ele>709.0</ele><time>2026-05-03T09:26:07.526Z</time></trkpt><trkpt lat="44.4213683" lon="10.7829531"><ele>709.0</ele><time>2026-05-03T09:26:09.525Z</time></trkpt><trkpt lat="44.4214393" lon="10.7829421"><ele>709.0</ele><time>2026-05-03T09:26:11.516Z</time></trkpt><trkpt lat="44.421528" lon="10.7828588"><ele>707.4000000000001</ele><time>2026-05-03T09:26:14.518Z</time></trkpt><trkpt lat="44.4216175" lon="10.7827569"><ele>705.8</ele><time>2026-05-03T09:26:16.515Z</time></trkpt><trkpt lat="44.4217038" lon="10.7826314"><ele>704.2</ele><time>2026-05-03T09:26:18.512Z</time></trkpt><trkpt lat="44.4217704" lon="10.7825744"><ele>702.5999999999999</ele><time>2026-05-03T09:26:19.508Z</time></trkpt><trkpt lat="44.4218347" lon="10.7825379"><ele>701.0</ele><time>2026-05-03T09:26:20.503Z</time></trkpt><trkpt lat="44.4219055" lon="10.7825012"><ele>701.0</ele><time>2026-05-03T09:26:21.51Z</time></trkpt><trkpt lat="44.4220028" lon="10.7824201"><ele>701.0</ele><time>2026-05-03T09:26:23.507Z</time></trkpt><trkpt lat="44.4220533" lon="10.7823264"><ele>701.0</ele><time>2026-05-03T09:26:25.508Z</time></trkpt><trkpt lat="44.4220377" lon="10.7822321"><ele>701.0</ele><time>2026-05-03T09:26:33.515Z</time></trkpt><trkpt lat="44.4220125" lon="10.7821128"><ele>701.0</ele><time>2026-05-03T09:26:35.515Z</time></trkpt><trkpt lat="44.421939" lon="10.7820297"><ele>701.0</ele><time>2026-05-03T09:26:37.513Z</time></trkpt><trkpt lat="44.4218761" lon="10.7819937"><ele>701.0</ele><time>2026-05-03T09:26:38.514Z</time></trkpt><trkpt lat="44.4218118" lon="10.7819679"><ele>701.0</ele><time>2026-05-03T09:26:39.511Z</time></trkpt><trkpt lat="44.4217317" lon="10.7819492"><ele>701.0</ele><time>2026-05-03T09:26:40.515Z</time></trkpt><trkpt lat="44.4216584" lon="10.7819407"><ele>701.0</ele><time>2026-05-03T09:26:41.513Z</time></trkpt><trkpt lat="44.4215894" lon="10.7819305"><ele>701.0</ele><time>2026-05-03T09:26:42.517Z</time></trkpt><trkpt lat="44.4212154" lon="10.78171"><ele>701.1428571428572</ele><time>2026-05-03T09:26:47.993Z</time></trkpt><trkpt lat="44.4212094" lon="10.7816023"><ele>701.2857142857142</ele><time>2026-05-03T09:26:49.029Z</time></trkpt><trkpt lat="44.4212151" lon="10.7815075"><ele>701.4285714285714</ele><time>2026-05-03T09:26:50.041Z</time></trkpt><trkpt lat="44.4212147" lon="10.7814168"><ele>701.5714285714287</ele><time>2026-05-03T09:26:51.054Z</time></trkpt><trkpt lat="44.4212063" lon="10.781327"><ele>701.7142857142858</ele><time>2026-05-03T09:26:52.06Z</time></trkpt><trkpt lat="44.4211969" lon="10.7812353"><ele>701.8571428571429</ele><time>2026-05-03T09:26:53.062Z</time></trkpt><trkpt lat="44.4211832" lon="10.7811454"><ele>702.0</ele><time>2026-05-03T09:26:54.062Z</time></trkpt><trkpt lat="44.4211648" lon="10.7810546"><ele>702.8333333333334</ele><time>2026-05-03T09:26:55.073Z</time></trkpt><trkpt lat="44.4211413" lon="10.7809631"><ele>703.6666666666666</ele><time>2026-05-03T09:26:56.054Z</time></trkpt><trkpt lat="44.4211104" lon="10.7808729"><ele>704.5</ele><time>2026-05-03T09:26:57.06Z</time></trkpt><trkpt lat="44.4210723" lon="10.7807326"><ele>705.3333333333333</ele><time>2026-05-03T09:26:59.046Z</time></trkpt><trkpt lat="44.4211027" lon="10.7806482"><ele>706.1666666666666</ele><time>2026-05-03T09:27:01.055Z</time></trkpt><trkpt lat="44.4211964" lon="10.7805729"><ele>707.0</ele><time>2026-05-03T09:28:13.558Z</time></trkpt><trkpt lat="44.4212436" lon="10.7805139"><ele>707.0</ele><time>2026-05-03T09:28:14.56Z</time></trkpt><trkpt lat="44.4213048" lon="10.7804488"><ele>707.0</ele><time>2026-05-03T09:28:15.558Z</time></trkpt><trkpt lat="44.4213759" lon="10.7803857"><ele>707.0</ele><time>2026-05-03T09:28:16.568Z</time></trkpt><trkpt lat="44.4214557" lon="10.7803119"><ele>707.0</ele><time>2026-05-03T09:28:17.556Z</time></trkpt><trkpt lat="44.4215439" lon="10.7802161"><ele>707.0</ele><time>2026-05-03T09:28:18.578Z</time></trkpt><trkpt lat="44.4216312" lon="10.7801086"><ele>710.0</ele><time>2026-05-03T09:28:19.565Z</time></trkpt><trkpt lat="44.4217156" lon="10.7800057"><ele>713.0</ele><time>2026-05-03T09:28:20.561Z</time></trkpt><trkpt lat="44.4217978" lon="10.7799037"><ele>716.0</ele><time>2026-05-03T09:28:21.557Z</time></trkpt><trkpt lat="44.421885" lon="10.7798053"><ele>719.0</ele><time>2026-05-03T09:28:22.561Z</time></trkpt><trkpt lat="44.421978" lon="10.7797242"><ele>722.0</ele><time>2026-05-03T09:28:23.562Z</time></trkpt><trkpt lat="44.4220668" lon="10.7796744"><ele>722.8</ele><time>2026-05-03T09:28:24.565Z</time></trkpt><trkpt lat="44.422149" lon="10.7796595"><ele>723.6</ele><time>2026-05-03T09:28:25.559Z</time></trkpt><trkpt lat="44.4222381" lon="10.7796863"><ele>724.4</ele><time>2026-05-03T09:28:26.562Z</time></trkpt><trkpt lat="44.4223218" lon="10.7797297"><ele>725.1999999999999</ele><time>2026-05-03T09:28:27.55Z</time></trkpt><trkpt lat="44.4224099" lon="10.7797736"><ele>726.0</ele><time>2026-05-03T09:28:28.556Z</time></trkpt><trkpt lat="44.4225076" lon="10.7798011"><ele>726.0</ele><time>2026-05-03T09:28:29.558Z</time></trkpt><trkpt lat="44.4226012" lon="10.779832"><ele>726.0</ele><time>2026-05-03T09:28:30.555Z</time></trkpt><trkpt lat="44.4226921" lon="10.7798726"><ele>726.0</ele><time>2026-05-03T09:28:31.557Z</time></trkpt><trkpt lat="44.4227861" lon="10.7799231"><ele>726.0</ele><time>2026-05-03T09:28:32.556Z</time></trkpt><trkpt lat="44.4228788" lon="10.779991"><ele>726.0</ele><time>2026-05-03T09:28:33.556Z</time></trkpt><trkpt lat="44.4229694" lon="10.7800603"><ele>727.0</ele><time>2026-05-03T09:28:34.55Z</time></trkpt><trkpt lat="44.4230639" lon="10.78013"><ele>728.0</ele><time>2026-05-03T09:28:35.547Z</time></trkpt><trkpt lat="44.4231578" lon="10.7802033"><ele>729.0</ele><time>2026-05-03T09:28:36.55Z</time></trkpt><trkpt lat="44.4232436" lon="10.7802617"><ele>730.0</ele><time>2026-05-03T09:28:37.553Z</time></trkpt><trkpt lat="44.4233202" lon="10.7803096"><ele>731.0</ele><time>2026-05-03T09:28:38.556Z</time></trkpt><trkpt lat="44.423401" lon="10.7803556"><ele>731.3333333333333</ele><time>2026-05-03T09:28:39.555Z</time></trkpt><trkpt lat="44.4234777" lon="10.7803867"><ele>731.6666666666666</ele><time>2026-05-03T09:28:40.558Z</time></trkpt><trkpt lat="44.4235471" lon="10.7804032"><ele>732.0</ele><time>2026-05-03T09:28:41.558Z</time></trkpt><trkpt lat="44.4236147" lon="10.7803966"><ele>732.3333333333334</ele><time>2026-05-03T09:28:42.557Z</time></trkpt><trkpt lat="44.4236833" lon="10.7803596"><ele>732.6666666666667</ele><time>2026-05-03T09:28:43.553Z</time></trkpt><trkpt lat="44.4237635" lon="10.7803098"><ele>733.0</ele><time>2026-05-03T09:28:44.547Z</time></trkpt><trkpt lat="44.4238479" lon="10.7802687"><ele>733.0</ele><time>2026-05-03T09:28:45.553Z</time></trkpt><trkpt lat="44.4239382" lon="10.7802255"><ele>733.0</ele><time>2026-05-03T09:28:46.558Z</time></trkpt><trkpt lat="44.4240346" lon="10.7801641"><ele>733.0</ele><time>2026-05-03T09:28:47.55Z</time></trkpt><trkpt lat="44.4241334" lon="10.7800926"><ele>733.0</ele><time>2026-05-03T09:28:48.553Z</time></trkpt><trkpt lat="44.4242296" lon="10.7800156"><ele>733.0</ele><time>2026-05-03T09:28:49.563Z</time></trkpt><trkpt lat="44.4243198" lon="10.779926"><ele>733.5999999999999</ele><time>2026-05-03T09:28:50.548Z</time></trkpt><trkpt lat="44.4244019" lon="10.7798262"><ele>734.1999999999999</ele><time>2026-05-03T09:28:51.554Z</time></trkpt><trkpt lat="44.4244794" lon="10.7797303"><ele>734.8</ele><time>2026-05-03T09:28:52.551Z</time></trkpt><trkpt lat="44.4245641" lon="10.7796536"><ele>735.4</ele><time>2026-05-03T09:28:53.554Z</time></trkpt><trkpt lat="44.4246682" lon="10.7796005"><ele>736.0</ele><time>2026-05-03T09:28:54.553Z</time></trkpt><trkpt lat="44.4247695" lon="10.7795453"><ele>736.0</ele><time>2026-05-03T09:28:55.55Z</time></trkpt><trkpt lat="44.424852" lon="10.7794708"><ele>736.0</ele><time>2026-05-03T09:28:56.554Z</time></trkpt><trkpt lat="44.4249288" lon="10.7793868"><ele>736.0</ele><time>2026-05-03T09:28:57.548Z</time></trkpt><trkpt lat="44.4250018" lon="10.779295"><ele>736.0</ele><time>2026-05-03T09:28:58.553Z</time></trkpt><trkpt lat="44.4250751" lon="10.7792156"><ele>736.0</ele><time>2026-05-03T09:28:59.554Z</time></trkpt><trkpt lat="44.4251487" lon="10.779145"><ele>736.8333333333334</ele><time>2026-05-03T09:29:00.554Z</time></trkpt><trkpt lat="44.4252221" lon="10.7790884"><ele>737.6666666666667</ele><time>2026-05-03T09:29:01.554Z</time></trkpt><trkpt lat="44.4252996" lon="10.7790545"><ele>738.5</ele><time>2026-05-03T09:29:02.553Z</time></trkpt><trkpt lat="44.4253784" lon="10.7790338"><ele>739.3333333333334</ele><time>2026-05-03T09:29:03.55Z</time></trkpt><trkpt lat="44.4254528" lon="10.7790109"><ele>740.1666666666666</ele><time>2026-05-03T09:29:04.549Z</time></trkpt><trkpt lat="44.4255207" lon="10.7789665"><ele>741.0</ele><time>2026-05-03T09:29:05.553Z</time></trkpt><trkpt lat="44.4255836" lon="10.7788974"><ele>741.6666666666666</ele><time>2026-05-03T09:29:06.554Z</time></trkpt><trkpt lat="44.4256441" lon="10.7788397"><ele>742.3333333333334</ele><time>2026-05-03T09:29:07.55Z</time></trkpt><trkpt lat="44.4257121" lon="10.7788061"><ele>743.0</ele><time>2026-05-03T09:29:08.555Z</time></trkpt><trkpt lat="44.4257975" lon="10.7788027"><ele>743.6666666666667</ele><time>2026-05-03T09:29:09.553Z</time></trkpt><trkpt lat="44.4258902" lon="10.7788095"><ele>744.3333333333334</ele><time>2026-05-03T09:29:10.555Z</time></trkpt><trkpt lat="44.4259754" lon="10.7788298"><ele>745.0</ele><time>2026-05-03T09:29:11.554Z</time></trkpt><trkpt lat="44.426054" lon="10.7788433"><ele>745.0</ele><time>2026-05-03T09:29:12.556Z</time></trkpt><trkpt lat="44.4261252" lon="10.7788351"><ele>745.0</ele><time>2026-05-03T09:29:13.556Z</time></trkpt><trkpt lat="44.4261911" lon="10.7788052"><ele>745.0</ele><time>2026-05-03T09:29:14.55Z</time></trkpt><trkpt lat="44.4262529" lon="10.7787574"><ele>745.0</ele><time>2026-05-03T09:29:15.558Z</time></trkpt><trkpt lat="44.4263077" lon="10.7786773"><ele>745.0</ele><time>2026-05-03T09:29:16.563Z</time></trkpt><trkpt lat="44.4263595" lon="10.7785787"><ele>745.0</ele><time>2026-05-03T09:29:17.555Z</time></trkpt><trkpt lat="44.4264082" lon="10.7784633"><ele>746.0</ele><time>2026-05-03T09:29:18.558Z</time></trkpt><trkpt lat="44.4264534" lon="10.7783511"><ele>747.0</ele><time>2026-05-03T09:29:19.556Z</time></trkpt><trkpt lat="44.4265036" lon="10.7782653"><ele>748.0</ele><time>2026-05-03T09:29:20.575Z</time></trkpt><trkpt lat="44.4266015" lon="10.778245"><ele>749.0</ele><time>2026-05-03T09:29:22.559Z</time></trkpt><trkpt lat="44.42663" lon="10.7781339"><ele>750.0</ele><time>2026-05-03T09:29:36.569Z</time></trkpt><trkpt lat="44.4266218" lon="10.7779643"><ele>750.0</ele><time>2026-05-03T09:29:38.574Z</time></trkpt><trkpt lat="44.4266172" lon="10.777844"><ele>750.0</ele><time>2026-05-03T09:29:39.565Z</time></trkpt><trkpt lat="44.4266259" lon="10.7777197"><ele>750.0</ele><time>2026-05-03T09:29:40.559Z</time></trkpt><trkpt lat="44.4266501" lon="10.7775944"><ele>750.0</ele><time>2026-05-03T09:29:41.569Z</time></trkpt><trkpt lat="44.4267049" lon="10.7774788"><ele>750.0</ele><time>2026-05-03T09:29:42.565Z</time></trkpt><trkpt lat="44.4267993" lon="10.7773968"><ele>751.8</ele><time>2026-05-03T09:29:43.569Z</time></trkpt><trkpt lat="44.4269126" lon="10.7773483"><ele>753.6</ele><time>2026-05-03T09:29:44.562Z</time></trkpt><trkpt lat="44.4270132" lon="10.7772979"><ele>755.4000000000001</ele><time>2026-05-03T09:29:45.569Z</time></trkpt><trkpt lat="44.4270828" lon="10.7772281"><ele>757.2</ele><time>2026-05-03T09:29:46.58Z</time></trkpt><trkpt lat="44.4271132" lon="10.7771164"><ele>759.0</ele><time>2026-05-03T09:29:47.57Z</time></trkpt><trkpt lat="44.4271169" lon="10.7769774"><ele>760.4000000000001</ele><time>2026-05-03T09:29:48.563Z</time></trkpt><trkpt lat="44.4271101" lon="10.776831"><ele>761.8</ele><time>2026-05-03T09:29:49.571Z</time></trkpt><trkpt lat="44.4271011" lon="10.7766896"><ele>763.2</ele><time>2026-05-03T09:29:50.573Z</time></trkpt><trkpt lat="44.4270959" lon="10.7765673"><ele>764.5999999999999</ele><time>2026-05-03T09:29:51.582Z</time></trkpt><trkpt lat="44.4270988" lon="10.7764548"><ele>766.0</ele><time>2026-05-03T09:29:52.567Z</time></trkpt><trkpt lat="44.4271185" lon="10.7763485"><ele>764.5999999999999</ele><time>2026-05-03T09:29:53.579Z</time></trkpt><trkpt lat="44.4271632" lon="10.7762567"><ele>763.2</ele><time>2026-05-03T09:29:54.568Z</time></trkpt><trkpt lat="44.4272427" lon="10.7761922"><ele>761.8</ele><time>2026-05-03T09:29:55.573Z</time></trkpt><trkpt lat="44.4273462" lon="10.7761471"><ele>760.4000000000001</ele><time>2026-05-03T09:29:56.571Z</time></trkpt><trkpt lat="44.42745" lon="10.7761125"><ele>759.0</ele><time>2026-05-03T09:29:57.57Z</time></trkpt><trkpt lat="44.4275473" lon="10.7760775"><ele>759.0</ele><time>2026-05-03T09:29:58.57Z</time></trkpt><trkpt lat="44.4276383" lon="10.7760367"><ele>759.0</ele><time>2026-05-03T09:29:59.571Z</time></trkpt><trkpt lat="44.4277223" lon="10.7759982"><ele>759.0</ele><time>2026-05-03T09:30:00.573Z</time></trkpt><trkpt lat="44.4277931" lon="10.7759576"><ele>759.0</ele><time>2026-05-03T09:30:01.574Z</time></trkpt><trkpt lat="44.4278566" lon="10.7759099"><ele>759.0</ele><time>2026-05-03T09:30:02.573Z</time></trkpt><trkpt lat="44.4279296" lon="10.7757968"><ele>759.0</ele><time>2026-05-03T09:30:04.576Z</time></trkpt><trkpt lat="44.4278919" lon="10.775655"><ele>761.2</ele><time>2026-05-03T09:30:06.581Z</time></trkpt><trkpt lat="44.4278244" lon="10.7756114"><ele>763.4000000000001</ele><time>2026-05-03T09:30:07.575Z</time></trkpt><trkpt lat="44.4277338" lon="10.775604"><ele>765.6</ele><time>2026-05-03T09:30:08.57Z</time></trkpt><trkpt lat="44.4276295" lon="10.775631"><ele>767.8</ele><time>2026-05-03T09:30:09.587Z</time></trkpt><trkpt lat="44.4275202" lon="10.7756821"><ele>770.0</ele><time>2026-05-03T09:30:10.564Z</time></trkpt><trkpt lat="44.4274011" lon="10.7757348"><ele>770.0</ele><time>2026-05-03T09:30:11.57Z</time></trkpt><trkpt lat="44.4272834" lon="10.7757662"><ele>770.0</ele><time>2026-05-03T09:30:12.574Z</time></trkpt><trkpt lat="44.4271764" lon="10.7757679"><ele>770.0</ele><time>2026-05-03T09:30:13.574Z</time></trkpt><trkpt lat="44.4270784" lon="10.7757568"><ele>770.0</ele><time>2026-05-03T09:30:14.571Z</time></trkpt><trkpt lat="44.4269883" lon="10.7757569"><ele>770.0</ele><time>2026-05-03T09:30:15.57Z</time></trkpt><trkpt lat="44.4269016" lon="10.7757753"><ele>769.3333333333334</ele><time>2026-05-03T09:30:16.583Z</time></trkpt><trkpt lat="44.4268275" lon="10.7758233"><ele>768.6666666666667</ele><time>2026-05-03T09:30:17.576Z</time></trkpt><trkpt lat="44.4267725" lon="10.7758818"><ele>768.0</ele><time>2026-05-03T09:30:18.574Z</time></trkpt><trkpt lat="44.4266741" lon="10.7759859"><ele>767.3333333333334</ele><time>2026-05-03T09:30:20.566Z</time></trkpt><trkpt lat="44.4266062" lon="10.7760249"><ele>766.6666666666667</ele><time>2026-05-03T09:30:21.566Z</time></trkpt><trkpt lat="44.4265226" lon="10.7760452"><ele>766.0</ele><time>2026-05-03T09:30:22.582Z</time></trkpt><trkpt lat="44.4264299" lon="10.7760616"><ele>766.0</ele><time>2026-05-03T09:30:23.57Z</time></trkpt><trkpt lat="44.4263289" lon="10.7760773"><ele>766.0</ele><time>2026-05-03T09:30:24.573Z</time></trkpt><trkpt lat="44.4262203" lon="10.7761026"><ele>766.0</ele><time>2026-05-03T09:30:25.573Z</time></trkpt><trkpt lat="44.4261096" lon="10.7761415"><ele>766.0</ele><time>2026-05-03T09:30:26.571Z</time></trkpt><trkpt lat="44.4260089" lon="10.7761866"><ele>766.0</ele><time>2026-05-03T09:30:27.568Z</time></trkpt><trkpt lat="44.4259192" lon="10.7762302"><ele>767.1999999999999</ele><time>2026-05-03T09:30:28.569Z</time></trkpt><trkpt lat="44.4258288" lon="10.7762807"><ele>768.4</ele><time>2026-05-03T09:30:29.565Z</time></trkpt><trkpt lat="44.4257437" lon="10.7763388"><ele>769.6</ele><time>2026-05-03T09:30:30.567Z</time></trkpt><trkpt lat="44.4256544" lon="10.7763962"><ele>770.8</ele><time>2026-05-03T09:30:31.565Z</time></trkpt><trkpt lat="44.4255602" lon="10.7764341"><ele>772.0</ele><time>2026-05-03T09:30:32.564Z</time></trkpt><trkpt lat="44.425446" lon="10.7764518"><ele>773.25</ele><time>2026-05-03T09:30:33.565Z</time></trkpt><trkpt lat="44.4253147" lon="10.7764637"><ele>774.5</ele><time>2026-05-03T09:30:34.574Z</time></trkpt><trkpt lat="44.425178" lon="10.7764697"><ele>775.75</ele><time>2026-05-03T09:30:35.568Z</time></trkpt><trkpt lat="44.4250423" lon="10.7764687"><ele>777.0</ele><time>2026-05-03T09:30:36.566Z</time></trkpt><trkpt lat="44.4249042" lon="10.7764729"><ele>777.0</ele><time>2026-05-03T09:30:37.569Z</time></trkpt><trkpt lat="44.4247657" lon="10.7764763"><ele>777.0</ele><time>2026-05-03T09:30:38.565Z</time></trkpt><trkpt lat="44.4246341" lon="10.7764807"><ele>777.0</ele><time>2026-05-03T09:30:39.576Z</time></trkpt><trkpt lat="44.4245142" lon="10.7764837"><ele>777.0</ele><time>2026-05-03T09:30:40.565Z</time></trkpt><trkpt lat="44.4243932" lon="10.7764821"><ele>778.6</ele><time>2026-05-03T09:30:41.57Z</time></trkpt><trkpt lat="44.4242775" lon="10.7764794"><ele>780.2</ele><time>2026-05-03T09:30:42.575Z</time></trkpt><trkpt lat="44.424165" lon="10.7764676"><ele>781.8</ele><time>2026-05-03T09:30:43.572Z</time></trkpt><trkpt lat="44.4240603" lon="10.7764468"><ele>783.4</ele><time>2026-05-03T09:30:44.575Z</time></trkpt><trkpt lat="44.4239529" lon="10.7764445"><ele>785.0</ele><time>2026-05-03T09:30:45.574Z</time></trkpt><trkpt lat="44.4238451" lon="10.7764572"><ele>787.75</ele><time>2026-05-03T09:30:46.581Z</time></trkpt><trkpt lat="44.423729" lon="10.7764867"><ele>790.5</ele><time>2026-05-03T09:30:47.574Z</time></trkpt><trkpt lat="44.4236157" lon="10.776532"><ele>793.25</ele><time>2026-05-03T09:30:48.58Z</time></trkpt><trkpt lat="44.4235034" lon="10.7765731"><ele>796.0</ele><time>2026-05-03T09:30:49.574Z</time></trkpt><trkpt lat="44.4233962" lon="10.7765899"><ele>796.0</ele><time>2026-05-03T09:30:50.575Z</time></trkpt><trkpt lat="44.4232839" lon="10.7765821"><ele>796.0</ele><time>2026-05-03T09:30:51.582Z</time></trkpt><trkpt lat="44.4231702" lon="10.7765344"><ele>796.0</ele><time>2026-05-03T09:30:52.575Z</time></trkpt><trkpt lat="44.4230618" lon="10.7764567"><ele>796.0</ele><time>2026-05-03T09:30:53.598Z</time></trkpt><trkpt lat="44.4229607" lon="10.7763711"><ele>796.5</ele><time>2026-05-03T09:30:54.575Z</time></trkpt><trkpt lat="44.4228578" lon="10.7763087"><ele>797.0</ele><time>2026-05-03T09:30:55.582Z</time></trkpt><trkpt lat="44.4227528" lon="10.7762556"><ele>797.5</ele><time>2026-05-03T09:30:56.574Z</time></trkpt><trkpt lat="44.4226438" lon="10.7762088"><ele>798.0</ele><time>2026-05-03T09:30:57.573Z</time></trkpt><trkpt lat="44.4225351" lon="10.7761689"><ele>798.0</ele><time>2026-05-03T09:30:58.574Z</time></trkpt><trkpt lat="44.4224342" lon="10.7761335"><ele>798.0</ele><time>2026-05-03T09:30:59.57Z</time></trkpt><trkpt lat="44.422342" lon="10.7761035"><ele>798.0</ele><time>2026-05-03T09:31:00.57Z</time></trkpt><trkpt lat="44.4222619" lon="10.7760789"><ele>798.0</ele><time>2026-05-03T09:31:01.58Z</time></trkpt><trkpt lat="44.4221905" lon="10.7760631"><ele>798.0</ele><time>2026-05-03T09:31:02.575Z</time></trkpt><trkpt lat="44.4221219" lon="10.7760416"><ele>798.0</ele><time>2026-05-03T09:31:03.578Z</time></trkpt><trkpt lat="44.4220574" lon="10.7760167"><ele>800.5999999999999</ele><time>2026-05-03T09:31:04.576Z</time></trkpt><trkpt lat="44.4219607" lon="10.7759091"><ele>803.1999999999999</ele><time>2026-05-03T09:31:06.579Z</time></trkpt><trkpt lat="44.4219867" lon="10.7757322"><ele>805.8</ele><time>2026-05-03T09:31:08.575Z</time></trkpt><trkpt lat="44.4220518" lon="10.7756556"><ele>808.4</ele><time>2026-05-03T09:31:09.576Z</time></trkpt><trkpt lat="44.422144" lon="10.7755968"><ele>811.0</ele><time>2026-05-03T09:31:10.571Z</time></trkpt><trkpt lat="44.4222421" lon="10.7755408"><ele>811.0</ele><time>2026-05-03T09:31:11.575Z</time></trkpt><trkpt lat="44.4223417" lon="10.7754863"><ele>811.0</ele><time>2026-05-03T09:31:12.568Z</time></trkpt><trkpt lat="44.4224364" lon="10.7754202"><ele>811.0</ele><time>2026-05-03T09:31:13.575Z</time></trkpt><trkpt lat="44.4225284" lon="10.7753521"><ele>811.0</ele><time>2026-05-03T09:31:14.571Z</time></trkpt><trkpt lat="44.4226128" lon="10.7752819"><ele>811.0</ele><time>2026-05-03T09:31:15.575Z</time></trkpt><trkpt lat="44.422694" lon="10.7752076"><ele>810.8</ele><time>2026-05-03T09:31:16.581Z</time></trkpt><trkpt lat="44.4227707" lon="10.7751327"><ele>810.5999999999999</ele><time>2026-05-03T09:31:17.58Z</time></trkpt><trkpt lat="44.4228445" lon="10.7750614"><ele>810.4</ele><time>2026-05-03T09:31:18.586Z</time></trkpt><trkpt lat="44.4229207" lon="10.7749862"><ele>810.2</ele><time>2026-05-03T09:31:19.581Z</time></trkpt><trkpt lat="44.4229997" lon="10.7749063"><ele>810.0</ele><time>2026-05-03T09:31:20.581Z</time></trkpt><trkpt lat="44.4230733" lon="10.7748327"><ele>810.0</ele><time>2026-05-03T09:31:21.58Z</time></trkpt><trkpt lat="44.4231428" lon="10.7747663"><ele>810.0</ele><time>2026-05-03T09:31:22.582Z</time></trkpt><trkpt lat="44.4232026" lon="10.7747063"><ele>810.0</ele><time>2026-05-03T09:31:23.585Z</time></trkpt><trkpt lat="44.423257" lon="10.7746443"><ele>810.0</ele><time>2026-05-03T09:31:24.602Z</time></trkpt><trkpt lat="44.4232982" lon="10.7745701"><ele>810.0</ele><time>2026-05-03T09:31:25.584Z</time></trkpt><trkpt lat="44.4233194" lon="10.7744817"><ele>810.0</ele><time>2026-05-03T09:31:26.585Z</time></trkpt><trkpt lat="44.4233299" lon="10.7743228"><ele>812.0</ele><time>2026-05-03T09:31:28.572Z</time></trkpt><trkpt lat="44.4233705" lon="10.7741693"><ele>814.0</ele><time>2026-05-03T09:31:30.574Z</time></trkpt><trkpt lat="44.423391" lon="10.774077"><ele>816.0</ele><time>2026-05-03T09:31:31.569Z</time></trkpt><trkpt lat="44.4234114" lon="10.7739731"><ele>818.0</ele><time>2026-05-03T09:31:32.564Z</time></trkpt><trkpt lat="44.4234331" lon="10.7738717"><ele>820.0</ele><time>2026-05-03T09:31:33.573Z</time></trkpt><trkpt lat="44.4234576" lon="10.7737623"><ele>822.0</ele><time>2026-05-03T09:31:34.568Z</time></trkpt><trkpt lat="44.4234932" lon="10.7736604"><ele>822.0</ele><time>2026-05-03T09:31:35.571Z</time></trkpt><trkpt lat="44.4235288" lon="10.7735669"><ele>822.0</ele><time>2026-05-03T09:31:36.577Z</time></trkpt><trkpt lat="44.4235716" lon="10.7734869"><ele>822.0</ele><time>2026-05-03T09:31:37.577Z</time></trkpt><trkpt lat="44.4236121" lon="10.7734023"><ele>822.0</ele><time>2026-05-03T09:31:38.58Z</time></trkpt><trkpt lat="44.4236582" lon="10.7733097"><ele>822.0</ele><time>2026-05-03T09:31:39.578Z</time></trkpt><trkpt lat="44.4237036" lon="10.7732197"><ele>822.0</ele><time>2026-05-03T09:31:40.576Z</time></trkpt><trkpt lat="44.4237611" lon="10.7730964"><ele>823.8333333333334</ele><time>2026-05-03T09:31:42.568Z</time></trkpt><trkpt lat="44.4237726" lon="10.7729694"><ele>825.6666666666667</ele><time>2026-05-03T09:31:44.575Z</time></trkpt><trkpt lat="44.4237827" lon="10.7728763"><ele>827.5</ele><time>2026-05-03T09:31:45.575Z</time></trkpt><trkpt lat="44.4238049" lon="10.7727542"><ele>829.3333333333334</ele><time>2026-05-03T09:31:46.582Z</time></trkpt><trkpt lat="44.4238411" lon="10.7726354"><ele>831.1666666666667</ele><time>2026-05-03T09:31:47.572Z</time></trkpt><trkpt lat="44.4238756" lon="10.7725284"><ele>833.0</ele><time>2026-05-03T09:31:48.575Z</time></trkpt><trkpt lat="44.4239144" lon="10.7724216"><ele>836.1666666666667</ele><time>2026-05-03T09:31:49.571Z</time></trkpt><trkpt lat="44.4239571" lon="10.7723092"><ele>839.3333333333334</ele><time>2026-05-03T09:31:50.566Z</time></trkpt><trkpt lat="44.4240049" lon="10.7721943"><ele>842.5</ele><time>2026-05-03T09:31:51.564Z</time></trkpt><trkpt lat="44.4240537" lon="10.7720921"><ele>845.6666666666667</ele><time>2026-05-03T09:31:52.566Z</time></trkpt><trkpt lat="44.4240973" lon="10.7719977"><ele>848.8333333333334</ele><time>2026-05-03T09:31:53.563Z</time></trkpt><trkpt lat="44.4241534" lon="10.7719176"><ele>852.0</ele><time>2026-05-03T09:31:54.571Z</time></trkpt><trkpt lat="44.4242282" lon="10.7718448"><ele>852.0</ele><time>2026-05-03T09:31:55.576Z</time></trkpt><trkpt lat="44.4243084" lon="10.7717715"><ele>852.0</ele><time>2026-05-03T09:31:56.564Z</time></trkpt><trkpt lat="44.4243894" lon="10.7716887"><ele>852.0</ele><time>2026-05-03T09:31:57.571Z</time></trkpt><trkpt lat="44.42446" lon="10.7715757"><ele>852.0</ele><time>2026-05-03T09:31:58.566Z</time></trkpt><trkpt lat="44.4245336" lon="10.771444"><ele>852.0</ele><time>2026-05-03T09:31:59.571Z</time></trkpt><trkpt lat="44.4246107" lon="10.7713347"><ele>851.4000000000001</ele><time>2026-05-03T09:32:00.567Z</time></trkpt><trkpt lat="44.4246905" lon="10.7712371"><ele>850.8000000000001</ele><time>2026-05-03T09:32:01.575Z</time></trkpt><trkpt lat="44.4247569" lon="10.7711439"><ele>850.2</ele><time>2026-05-03T09:32:02.573Z</time></trkpt><trkpt lat="44.4248125" lon="10.7710294"><ele>849.6</ele><time>2026-05-03T09:32:03.569Z</time></trkpt><trkpt lat="44.4248608" lon="10.7709237"><ele>849.0</ele><time>2026-05-03T09:32:04.579Z</time></trkpt><trkpt lat="44.4249222" lon="10.7708508"><ele>849.0</ele><time>2026-05-03T09:32:05.58Z</time></trkpt><trkpt lat="44.424991" lon="10.7708091"><ele>849.0</ele><time>2026-05-03T09:32:06.575Z</time></trkpt><trkpt lat="44.4250727" lon="10.7707684"><ele>849.0</ele><time>2026-05-03T09:32:08.569Z</time></trkpt><trkpt lat="44.4251315" lon="10.7706883"><ele>849.0</ele><time>2026-05-03T09:32:12.58Z</time></trkpt><trkpt lat="44.4252199" lon="10.7706158"><ele>849.0</ele><time>2026-05-03T09:32:14.578Z</time></trkpt><trkpt lat="44.4252909" lon="10.770551"><ele>849.0</ele><time>2026-05-03T09:32:15.578Z</time></trkpt><trkpt lat="44.4253629" lon="10.770473"><ele>849.0</ele><time>2026-05-03T09:32:16.583Z</time></trkpt><trkpt lat="44.4254225" lon="10.7703637"><ele>849.0</ele><time>2026-05-03T09:32:17.575Z</time></trkpt><trkpt lat="44.4254745" lon="10.7702301"><ele>849.0</ele><time>2026-05-03T09:32:18.58Z</time></trkpt><trkpt lat="44.4255145" lon="10.770079"><ele>849.0</ele><time>2026-05-03T09:32:19.576Z</time></trkpt><trkpt lat="44.4255304" lon="10.7699128"><ele>849.0</ele><time>2026-05-03T09:32:20.575Z</time></trkpt><trkpt lat="44.4255275" lon="10.7697276"><ele>849.75</ele><time>2026-05-03T09:32:21.566Z</time></trkpt><trkpt lat="44.4255015" lon="10.7695309"><ele>850.5</ele><time>2026-05-03T09:32:22.572Z</time></trkpt><trkpt lat="44.4254629" lon="10.7693328"><ele>851.25</ele><time>2026-05-03T09:32:23.576Z</time></trkpt><trkpt lat="44.4254208" lon="10.769124"><ele>852.0</ele><time>2026-05-03T09:32:24.575Z</time></trkpt><trkpt lat="44.4253799" lon="10.76891"><ele>852.0</ele><time>2026-05-03T09:32:25.574Z</time></trkpt><trkpt lat="44.4253436" lon="10.7686888"><ele>852.0</ele><time>2026-05-03T09:32:26.605Z</time></trkpt><trkpt lat="44.4253259" lon="10.7684906"><ele>852.0</ele><time>2026-05-03T09:32:27.575Z</time></trkpt><trkpt lat="44.4252842" lon="10.768311"><ele>852.0</ele><time>2026-05-03T09:32:28.575Z</time></trkpt><trkpt lat="44.4252539" lon="10.7681396"><ele>853.25</ele><time>2026-05-03T09:32:29.571Z</time></trkpt><trkpt lat="44.425221" lon="10.7679837"><ele>854.5</ele><time>2026-05-03T09:32:30.569Z</time></trkpt><trkpt lat="44.4251959" lon="10.7678274"><ele>855.75</ele><time>2026-05-03T09:32:31.574Z</time></trkpt><trkpt lat="44.4251697" lon="10.7676714"><ele>857.0</ele><time>2026-05-03T09:32:32.576Z</time></trkpt><trkpt lat="44.4251405" lon="10.7675158"><ele>857.8</ele><time>2026-05-03T09:32:33.571Z</time></trkpt><trkpt lat="44.425117" lon="10.7673555"><ele>858.6</ele><time>2026-05-03T09:32:34.572Z</time></trkpt><trkpt lat="44.4250897" lon="10.7671991"><ele>859.3999999999999</ele><time>2026-05-03T09:32:35.572Z</time></trkpt><trkpt lat="44.4250736" lon="10.7670576"><ele>860.1999999999999</ele><time>2026-05-03T09:32:36.573Z</time></trkpt><trkpt lat="44.4250779" lon="10.766938"><ele>861.0</ele><time>2026-05-03T09:32:37.571Z</time></trkpt><trkpt lat="44.4251158" lon="10.7668261"><ele>861.5</ele><time>2026-05-03T09:32:38.57Z</time></trkpt><trkpt lat="44.4251705" lon="10.7667258"><ele>862.0</ele><time>2026-05-03T09:32:39.566Z</time></trkpt><trkpt lat="44.425227" lon="10.7666465"><ele>862.5</ele><time>2026-05-03T09:32:40.57Z</time></trkpt><trkpt lat="44.4252917" lon="10.7666136"><ele>863.0</ele><time>2026-05-03T09:32:41.566Z</time></trkpt><trkpt lat="44.4253598" lon="10.7666402"><ele>863.5</ele><time>2026-05-03T09:32:42.562Z</time></trkpt><trkpt lat="44.4254346" lon="10.7667036"><ele>864.0</ele><time>2026-05-03T09:32:43.553Z</time></trkpt><trkpt lat="44.4255114" lon="10.7667841"><ele>865.0</ele><time>2026-05-03T09:32:44.553Z</time></trkpt><trkpt lat="44.4255895" lon="10.7668662"><ele>866.0000000000001</ele><time>2026-05-03T09:32:45.555Z</time></trkpt><trkpt lat="44.4256755" lon="10.7669448"><ele>867.0000000000001</ele><time>2026-05-03T09:32:46.566Z</time></trkpt><trkpt lat="44.4257676" lon="10.7670141"><ele>868.0</ele><time>2026-05-03T09:32:47.559Z</time></trkpt><trkpt lat="44.4258625" lon="10.7670663"><ele>869.0</ele><time>2026-05-03T09:32:48.56Z</time></trkpt><trkpt lat="44.4259746" lon="10.767074"><ele>869.0</ele><time>2026-05-03T09:32:49.563Z</time></trkpt><trkpt lat="44.4260843" lon="10.7670382"><ele>869.0000000000001</ele><time>2026-05-03T09:32:50.557Z</time></trkpt><trkpt lat="44.4261877" lon="10.7670011"><ele>869.0000000000001</ele><time>2026-05-03T09:32:51.561Z</time></trkpt><trkpt lat="44.4262795" lon="10.766974"><ele>869.0</ele><time>2026-05-03T09:32:52.56Z</time></trkpt><trkpt lat="44.4263588" lon="10.7669249"><ele>869.0</ele><time>2026-05-03T09:32:53.562Z</time></trkpt><trkpt lat="44.4264303" lon="10.7668472"><ele>869.0</ele><time>2026-05-03T09:32:54.564Z</time></trkpt><trkpt lat="44.4264928" lon="10.7667464"><ele>869.0000000000001</ele><time>2026-05-03T09:32:55.568Z</time></trkpt><trkpt lat="44.4265509" lon="10.7666343"><ele>869.0000000000001</ele><time>2026-05-03T09:32:56.578Z</time></trkpt><trkpt lat="44.4265903" lon="10.7665173"><ele>869.0</ele><time>2026-05-03T09:32:57.575Z</time></trkpt><trkpt lat="44.4266016" lon="10.7663701"><ele>869.0</ele><time>2026-05-03T09:32:58.572Z</time></trkpt><trkpt lat="44.4265902" lon="10.7661989"><ele>869.5</ele><time>2026-05-03T09:32:59.58Z</time></trkpt><trkpt lat="44.4265809" lon="10.7660214"><ele>870.0</ele><time>2026-05-03T09:33:00.57Z</time></trkpt><trkpt lat="44.4265741" lon="10.7658399"><ele>870.5</ele><time>2026-05-03T09:33:01.573Z</time></trkpt><trkpt lat="44.4265656" lon="10.7656574"><ele>871.0</ele><time>2026-05-03T09:33:02.564Z</time></trkpt><trkpt lat="44.4265503" lon="10.7654884"><ele>871.0</ele><time>2026-05-03T09:33:03.561Z</time></trkpt><trkpt lat="44.426531" lon="10.7653248"><ele>871.0</ele><time>2026-05-03T09:33:04.569Z</time></trkpt><trkpt lat="44.4264877" lon="10.7651631"><ele>871.0</ele><time>2026-05-03T09:33:05.559Z</time></trkpt><trkpt lat="44.426438" lon="10.765018"><ele>871.0</ele><time>2026-05-03T09:33:06.569Z</time></trkpt><trkpt lat="44.4263917" lon="10.7648686"><ele>871.75</ele><time>2026-05-03T09:33:07.558Z</time></trkpt><trkpt lat="44.4263449" lon="10.7647158"><ele>872.5</ele><time>2026-05-03T09:33:08.562Z</time></trkpt><trkpt lat="44.4262997" lon="10.764564"><ele>873.25</ele><time>2026-05-03T09:33:09.572Z</time></trkpt><trkpt lat="44.4262547" lon="10.76441"><ele>874.0</ele><time>2026-05-03T09:33:10.57Z</time></trkpt><trkpt lat="44.4262267" lon="10.7642623"><ele>875.2</ele><time>2026-05-03T09:33:11.572Z</time></trkpt><trkpt lat="44.4261784" lon="10.7641335"><ele>876.4000000000001</ele><time>2026-05-03T09:33:12.558Z</time></trkpt><trkpt lat="44.4261414" lon="10.7639931"><ele>877.6</ele><time>2026-05-03T09:33:13.56Z</time></trkpt><trkpt lat="44.4261023" lon="10.7638691"><ele>878.8</ele><time>2026-05-03T09:33:14.56Z</time></trkpt><trkpt lat="44.4260463" lon="10.7637395"><ele>880.0</ele><time>2026-05-03T09:33:15.562Z</time></trkpt><trkpt lat="44.4259754" lon="10.7636063"><ele>879.6</ele><time>2026-05-03T09:33:16.572Z</time></trkpt><trkpt lat="44.4259016" lon="10.7634792"><ele>879.2</ele><time>2026-05-03T09:33:17.562Z</time></trkpt><trkpt lat="44.4258324" lon="10.7633596"><ele>878.8</ele><time>2026-05-03T09:33:18.567Z</time></trkpt><trkpt lat="44.425775" lon="10.7632633"><ele>878.4</ele><time>2026-05-03T09:33:19.559Z</time></trkpt><trkpt lat="44.4257301" lon="10.763186"><ele>878.0</ele><time>2026-05-03T09:33:20.56Z</time></trkpt><trkpt lat="44.4256585" lon="10.7630552"><ele>878.0</ele><time>2026-05-03T09:33:22.558Z</time></trkpt><trkpt lat="44.4255871" lon="10.7628993"><ele>878.0</ele><time>2026-05-03T09:33:24.557Z</time></trkpt><trkpt lat="44.425553" lon="10.7628165"><ele>878.0</ele><time>2026-05-03T09:33:25.555Z</time></trkpt><trkpt lat="44.4254803" lon="10.762674"><ele>878.0</ele><time>2026-05-03T09:33:27.565Z</time></trkpt><trkpt lat="44.4254256" lon="10.7625638"><ele>878.0</ele><time>2026-05-03T09:33:29.556Z</time></trkpt><trkpt lat="44.4253851" lon="10.7624504"><ele>875.8</ele><time>2026-05-03T09:33:31.558Z</time></trkpt><trkpt lat="44.4253348" lon="10.7622864"><ele>873.5999999999999</ele><time>2026-05-03T09:33:33.554Z</time></trkpt><trkpt lat="44.4253022" lon="10.7621535"><ele>871.4000000000001</ele><time>2026-05-03T09:33:35.556Z</time></trkpt><trkpt lat="44.4252668" lon="10.7619983"><ele>869.2</ele><time>2026-05-03T09:33:37.554Z</time></trkpt><trkpt lat="44.4252656" lon="10.7619076"><ele>867.0</ele><time>2026-05-03T09:33:38.556Z</time></trkpt><trkpt lat="44.4252778" lon="10.7617961"><ele>865.8333333333334</ele><time>2026-05-03T09:33:39.553Z</time></trkpt><trkpt lat="44.4252955" lon="10.7616787"><ele>864.6666666666667</ele><time>2026-05-03T09:33:40.554Z</time></trkpt><trkpt lat="44.4253178" lon="10.7615678"><ele>863.5</ele><time>2026-05-03T09:33:41.552Z</time></trkpt><trkpt lat="44.4253538" lon="10.7614674"><ele>862.3333333333334</ele><time>2026-05-03T09:33:42.563Z</time></trkpt><trkpt lat="44.4254052" lon="10.761384"><ele>861.1666666666667</ele><time>2026-05-03T09:33:43.557Z</time></trkpt><trkpt lat="44.4254664" lon="10.7613058"><ele>860.0</ele><time>2026-05-03T09:33:44.558Z</time></trkpt><trkpt lat="44.425537" lon="10.7612309"><ele>862.4</ele><time>2026-05-03T09:33:45.563Z</time></trkpt><trkpt lat="44.4256082" lon="10.7611628"><ele>864.8</ele><time>2026-05-03T09:33:46.569Z</time></trkpt><trkpt lat="44.4256744" lon="10.7610859"><ele>867.2</ele><time>2026-05-03T09:33:47.559Z</time></trkpt><trkpt lat="44.4257224" lon="10.7609845"><ele>869.6</ele><time>2026-05-03T09:33:48.565Z</time></trkpt><trkpt lat="44.4257512" lon="10.760856"><ele>872.0</ele><time>2026-05-03T09:33:49.559Z</time></trkpt><trkpt lat="44.4257644" lon="10.7607035"><ele>872.0</ele><time>2026-05-03T09:33:50.553Z</time></trkpt><trkpt lat="44.4257594" lon="10.7605403"><ele>872.0</ele><time>2026-05-03T09:33:51.557Z</time></trkpt><trkpt lat="44.4257345" lon="10.7603681"><ele>872.0</ele><time>2026-05-03T09:33:52.564Z</time></trkpt><trkpt lat="44.4257049" lon="10.7602039"><ele>872.0</ele><time>2026-05-03T09:33:53.559Z</time></trkpt><trkpt lat="44.4256873" lon="10.7600333"><ele>871.8333333333334</ele><time>2026-05-03T09:33:54.561Z</time></trkpt><trkpt lat="44.4256747" lon="10.7598814"><ele>871.6666666666667</ele><time>2026-05-03T09:33:55.561Z</time></trkpt><trkpt lat="44.4256792" lon="10.7597482"><ele>871.5</ele><time>2026-05-03T09:33:56.558Z</time></trkpt><trkpt lat="44.4256789" lon="10.759633"><ele>871.3333333333333</ele><time>2026-05-03T09:33:57.572Z</time></trkpt><trkpt lat="44.4256828" lon="10.7595433"><ele>871.1666666666666</ele><time>2026-05-03T09:33:58.579Z</time></trkpt><trkpt lat="44.4256694" lon="10.7594512"><ele>871.0</ele><time>2026-05-03T09:33:59.569Z</time></trkpt><trkpt lat="44.4256611" lon="10.759353"><ele>870.6666666666666</ele><time>2026-05-03T09:34:00.57Z</time></trkpt><trkpt lat="44.4256688" lon="10.7592555"><ele>870.3333333333333</ele><time>2026-05-03T09:34:01.566Z</time></trkpt><trkpt lat="44.4257282" lon="10.7590949"><ele>870.0</ele><time>2026-05-03T09:34:03.57Z</time></trkpt><trkpt lat="44.4257671" lon="10.7590093"><ele>869.6666666666667</ele><time>2026-05-03T09:34:04.567Z</time></trkpt><trkpt lat="44.4257951" lon="10.7589149"><ele>869.3333333333334</ele><time>2026-05-03T09:34:05.563Z</time></trkpt><trkpt lat="44.4257996" lon="10.7588042"><ele>869.0</ele><time>2026-05-03T09:34:06.561Z</time></trkpt><trkpt lat="44.4257956" lon="10.758696"><ele>869.0</ele><time>2026-05-03T09:34:07.556Z</time></trkpt><trkpt lat="44.4257654" lon="10.7585781"><ele>869.0000000000001</ele><time>2026-05-03T09:34:08.559Z</time></trkpt><trkpt lat="44.4257173" lon="10.7584551"><ele>869.0000000000001</ele><time>2026-05-03T09:34:09.561Z</time></trkpt><trkpt lat="44.4256712" lon="10.758321"><ele>869.0</ele><time>2026-05-03T09:34:10.563Z</time></trkpt><trkpt lat="44.4256304" lon="10.7581678"><ele>869.0</ele><time>2026-05-03T09:34:11.56Z</time></trkpt><trkpt lat="44.425602" lon="10.7580155"><ele>868.8000000000001</ele><time>2026-05-03T09:34:12.563Z</time></trkpt><trkpt lat="44.425585" lon="10.7578564"><ele>868.6000000000001</ele><time>2026-05-03T09:34:13.565Z</time></trkpt><trkpt lat="44.4255857" lon="10.7577085"><ele>868.4</ele><time>2026-05-03T09:34:14.558Z</time></trkpt><trkpt lat="44.4256007" lon="10.7575597"><ele>868.2</ele><time>2026-05-03T09:34:15.563Z</time></trkpt><trkpt lat="44.4256366" lon="10.7574209"><ele>868.0</ele><time>2026-05-03T09:34:16.568Z</time></trkpt><trkpt lat="44.4256848" lon="10.7572929"><ele>869.0</ele><time>2026-05-03T09:34:17.558Z</time></trkpt><trkpt lat="44.4257449" lon="10.7571592"><ele>870.0</ele><time>2026-05-03T09:34:18.567Z</time></trkpt><trkpt lat="44.4258071" lon="10.7570272"><ele>871.0</ele><time>2026-05-03T09:34:19.566Z</time></trkpt><trkpt lat="44.4258667" lon="10.7568869"><ele>872.0</ele><time>2026-05-03T09:34:20.563Z</time></trkpt><trkpt lat="44.4259324" lon="10.7567481"><ele>872.0</ele><time>2026-05-03T09:34:21.558Z</time></trkpt><trkpt lat="44.4259945" lon="10.7566234"><ele>872.0</ele><time>2026-05-03T09:34:22.565Z</time></trkpt><trkpt lat="44.4260562" lon="10.7564837"><ele>872.0</ele><time>2026-05-03T09:34:23.563Z</time></trkpt><trkpt lat="44.4261259" lon="10.7563313"><ele>872.0</ele><time>2026-05-03T09:34:24.567Z</time></trkpt><trkpt lat="44.426182" lon="10.7561681"><ele>872.25</ele><time>2026-05-03T09:34:25.571Z</time></trkpt><trkpt lat="44.4262312" lon="10.7559999"><ele>872.5</ele><time>2026-05-03T09:34:26.572Z</time></trkpt><trkpt lat="44.4262813" lon="10.755833"><ele>872.75</ele><time>2026-05-03T09:34:27.575Z</time></trkpt><trkpt lat="44.4263152" lon="10.7556711"><ele>873.0</ele><time>2026-05-03T09:34:28.576Z</time></trkpt><trkpt lat="44.4263427" lon="10.7555347"><ele>873.0</ele><time>2026-05-03T09:34:29.579Z</time></trkpt><trkpt lat="44.4263669" lon="10.755428"><ele>873.0</ele><time>2026-05-03T09:34:30.578Z</time></trkpt><trkpt lat="44.4263947" lon="10.7553026"><ele>873.0</ele><time>2026-05-03T09:34:32.577Z</time></trkpt><trkpt lat="44.4264223" lon="10.7551781"><ele>873.0</ele><time>2026-05-03T09:34:34.576Z</time></trkpt><trkpt lat="44.4264553" lon="10.7550452"><ele>873.0</ele><time>2026-05-03T09:34:36.574Z</time></trkpt><trkpt lat="44.426508" lon="10.7548831"><ele>871.8333333333334</ele><time>2026-05-03T09:34:38.575Z</time></trkpt><trkpt lat="44.4265331" lon="10.7547996"><ele>870.6666666666667</ele><time>2026-05-03T09:34:39.577Z</time></trkpt><trkpt lat="44.42655" lon="10.7546878"><ele>869.5</ele><time>2026-05-03T09:34:40.577Z</time></trkpt><trkpt lat="44.4265805" lon="10.7545744"><ele>868.3333333333334</ele><time>2026-05-03T09:34:41.579Z</time></trkpt><trkpt lat="44.4266154" lon="10.7544544"><ele>867.1666666666667</ele><time>2026-05-03T09:34:42.575Z</time></trkpt><trkpt lat="44.4266529" lon="10.7543387"><ele>866.0</ele><time>2026-05-03T09:34:43.574Z</time></trkpt><trkpt lat="44.4266821" lon="10.7542352"><ele>864.6666666666667</ele><time>2026-05-03T09:34:44.576Z</time></trkpt><trkpt lat="44.4267147" lon="10.754124"><ele>863.3333333333334</ele><time>2026-05-03T09:34:45.576Z</time></trkpt><trkpt lat="44.4267376" lon="10.7540017"><ele>862.0</ele><time>2026-05-03T09:34:46.583Z</time></trkpt><trkpt lat="44.4267559" lon="10.7538782"><ele>860.6666666666667</ele><time>2026-05-03T09:34:47.578Z</time></trkpt><trkpt lat="44.4267667" lon="10.7537743"><ele>859.3333333333334</ele><time>2026-05-03T09:34:48.576Z</time></trkpt><trkpt lat="44.4267912" lon="10.7536325"><ele>858.0</ele><time>2026-05-03T09:34:50.571Z</time></trkpt><trkpt lat="44.4268237" lon="10.7535207"><ele>856.5</ele><time>2026-05-03T09:34:52.571Z</time></trkpt><trkpt lat="44.4268307" lon="10.7534296"><ele>855.0</ele><time>2026-05-03T09:34:55.564Z</time></trkpt><trkpt lat="44.4268574" lon="10.7533004"><ele>853.5</ele><time>2026-05-03T09:35:53.572Z</time></trkpt><trkpt lat="44.4268871" lon="10.7532118"><ele>852.0</ele><time>2026-05-03T09:35:54.57Z</time></trkpt><trkpt lat="44.4269361" lon="10.7530801"><ele>850.5</ele><time>2026-05-03T09:35:56.575Z</time></trkpt><trkpt lat="44.4269761" lon="10.7529733"><ele>849.0</ele><time>2026-05-03T09:35:58.575Z</time></trkpt><trkpt lat="44.4269935" lon="10.7528738"><ele>849.0</ele><time>2026-05-03T09:36:00.578Z</time></trkpt><trkpt lat="44.4270129" lon="10.7527633"><ele>849.0</ele><time>2026-05-03T09:36:02.583Z</time></trkpt><trkpt lat="44.427031" lon="10.7526593"><ele>849.0</ele><time>2026-05-03T09:36:04.576Z</time></trkpt><trkpt lat="44.4270321" lon="10.7525637"><ele>849.0</ele><time>2026-05-03T09:36:06.571Z</time></trkpt><trkpt lat="44.4270402" lon="10.7524576"><ele>849.0</ele><time>2026-05-03T09:36:09.568Z</time></trkpt><trkpt lat="44.427071" lon="10.7523466"><ele>849.0</ele><time>2026-05-03T09:36:12.558Z</time></trkpt><trkpt lat="44.4270927" lon="10.7522275"><ele>848.0</ele><time>2026-05-03T09:36:16.569Z</time></trkpt><trkpt lat="44.4271428" lon="10.7521304"><ele>847.0</ele><time>2026-05-03T09:36:20.56Z</time></trkpt><trkpt lat="44.4271994" lon="10.7520522"><ele>846.0</ele><time>2026-05-03T09:36:22.565Z</time></trkpt><trkpt lat="44.4272797" lon="10.7519124"><ele>845.0</ele><time>2026-05-03T09:36:24.555Z</time></trkpt><trkpt lat="44.427342" lon="10.7518156"><ele>844.0</ele><time>2026-05-03T09:36:25.561Z</time></trkpt><trkpt lat="44.4273945" lon="10.7517259"><ele>843.8333333333333</ele><time>2026-05-03T09:36:26.554Z</time></trkpt><trkpt lat="44.42744" lon="10.7516288"><ele>843.6666666666666</ele><time>2026-05-03T09:36:27.552Z</time></trkpt><trkpt lat="44.4274845" lon="10.7515265"><ele>843.5</ele><time>2026-05-03T09:36:28.558Z</time></trkpt><trkpt lat="44.4275243" lon="10.7514317"><ele>843.3333333333333</ele><time>2026-05-03T09:36:29.561Z</time></trkpt><trkpt lat="44.4275572" lon="10.7513377"><ele>843.1666666666666</ele><time>2026-05-03T09:36:30.559Z</time></trkpt><trkpt lat="44.4275813" lon="10.7512477"><ele>843.0</ele><time>2026-05-03T09:36:31.561Z</time></trkpt><trkpt lat="44.4276129" lon="10.7510985"><ele>839.0</ele><time>2026-05-03T09:36:33.576Z</time></trkpt><trkpt lat="44.4276707" lon="10.7509853"><ele>835.0</ele><time>2026-05-03T09:36:35.569Z</time></trkpt><trkpt lat="44.4277697" lon="10.7508727"><ele>831.0</ele><time>2026-05-03T09:36:37.557Z</time></trkpt><trkpt lat="44.4278178" lon="10.7508034"><ele>827.0</ele><time>2026-05-03T09:36:38.556Z</time></trkpt><trkpt lat="44.427875" lon="10.7507264"><ele>823.0</ele><time>2026-05-03T09:36:39.555Z</time></trkpt><trkpt lat="44.4279264" lon="10.7506405"><ele>824.2857142857143</ele><time>2026-05-03T09:36:40.558Z</time></trkpt><trkpt lat="44.4279826" lon="10.7505613"><ele>825.5714285714287</ele><time>2026-05-03T09:36:41.555Z</time></trkpt><trkpt lat="44.4280325" lon="10.7504918"><ele>826.8571428571429</ele><time>2026-05-03T09:36:42.557Z</time></trkpt><trkpt lat="44.4280841" lon="10.7504367"><ele>828.1428571428571</ele><time>2026-05-03T09:36:43.558Z</time></trkpt><trkpt lat="44.4281327" lon="10.7503719"><ele>829.4285714285714</ele><time>2026-05-03T09:36:44.556Z</time></trkpt><trkpt lat="44.4281791" lon="10.7503106"><ele>830.7142857142857</ele><time>2026-05-03T09:36:45.556Z</time></trkpt><trkpt lat="44.428231" lon="10.7502548"><ele>832.0</ele><time>2026-05-03T09:36:46.563Z</time></trkpt><trkpt lat="44.4282847" lon="10.7501978"><ele>829.1428571428571</ele><time>2026-05-03T09:36:47.557Z</time></trkpt><trkpt lat="44.428338" lon="10.7501446"><ele>826.2857142857143</ele><time>2026-05-03T09:36:48.555Z</time></trkpt><trkpt lat="44.4284005" lon="10.7500993"><ele>823.4285714285714</ele><time>2026-05-03T09:36:49.553Z</time></trkpt><trkpt lat="44.4284629" lon="10.7500568"><ele>820.5714285714286</ele><time>2026-05-03T09:36:50.551Z</time></trkpt><trkpt lat="44.428526" lon="10.7500216"><ele>817.7142857142858</ele><time>2026-05-03T09:36:51.55Z</time></trkpt><trkpt lat="44.4285915" lon="10.7499897"><ele>814.8571428571429</ele><time>2026-05-03T09:36:52.551Z</time></trkpt><trkpt lat="44.4286617" lon="10.7499493"><ele>812.0</ele><time>2026-05-03T09:36:53.554Z</time></trkpt><trkpt lat="44.4287273" lon="10.7499006"><ele>812.0</ele><time>2026-05-03T09:36:54.552Z</time></trkpt><trkpt lat="44.4287906" lon="10.7498476"><ele>812.0</ele><time>2026-05-03T09:36:55.554Z</time></trkpt><trkpt lat="44.4288585" lon="10.7497955"><ele>812.0</ele><time>2026-05-03T09:36:56.563Z</time></trkpt><trkpt lat="44.4289283" lon="10.7497431"><ele>812.0</ele><time>2026-05-03T09:36:57.561Z</time></trkpt><trkpt lat="44.4289952" lon="10.749698"><ele>812.0</ele><time>2026-05-03T09:36:58.562Z</time></trkpt><trkpt lat="44.4290624" lon="10.7496681"><ele>812.0</ele><time>2026-05-03T09:36:59.562Z</time></trkpt><trkpt lat="44.4291289" lon="10.7496464"><ele>812.0</ele><time>2026-05-03T09:37:00.565Z</time></trkpt><trkpt lat="44.4291918" lon="10.7496232"><ele>812.4000000000001</ele><time>2026-05-03T09:37:01.569Z</time></trkpt><trkpt lat="44.4293033" lon="10.749591"><ele>812.8000000000001</ele><time>2026-05-03T09:37:03.567Z</time></trkpt><trkpt lat="44.4293792" lon="10.7496978"><ele>813.2</ele><time>2026-05-03T09:37:05.571Z</time></trkpt><trkpt lat="44.4294003" lon="10.7497977"><ele>813.6</ele><time>2026-05-03T09:37:06.57Z</time></trkpt><trkpt lat="44.429415" lon="10.7498847"><ele>814.0</ele><time>2026-05-03T09:37:07.555Z</time></trkpt><trkpt lat="44.4294342" lon="10.7500122"><ele>814.0</ele><time>2026-05-03T09:37:09.556Z</time></trkpt><trkpt lat="44.4294572" lon="10.750098"><ele>814.0</ele><time>2026-05-03T09:37:11.552Z</time></trkpt><trkpt lat="44.4295222" lon="10.749985"><ele>814.0</ele><time>2026-05-03T09:37:17.547Z</time></trkpt><trkpt lat="44.4295198" lon="10.749886"><ele>814.0</ele><time>2026-05-03T09:37:24.547Z</time></trkpt><trkpt lat="44.42955" lon="10.7497419"><ele>814.0</ele><time>2026-05-03T09:37:26.541Z</time></trkpt><trkpt lat="44.4295752" lon="10.749585"><ele>814.0</ele><time>2026-05-03T09:37:28.546Z</time></trkpt><trkpt lat="44.4295953" lon="10.7494434"><ele>814.0</ele><time>2026-05-03T09:37:30.551Z</time></trkpt><trkpt lat="44.4295831" lon="10.7492866"><ele>814.0</ele><time>2026-05-03T09:37:32.552Z</time></trkpt><trkpt lat="44.4295105" lon="10.7491455"><ele>814.0</ele><time>2026-05-03T09:37:34.551Z</time></trkpt><trkpt lat="44.4294575" lon="10.7490964"><ele>814.0</ele><time>2026-05-03T09:37:35.567Z</time></trkpt><trkpt lat="44.4293575" lon="10.7490223"><ele>809.4000000000001</ele><time>2026-05-03T09:37:37.555Z</time></trkpt><trkpt lat="44.4292922" lon="10.7489726"><ele>804.8</ele><time>2026-05-03T09:37:39.556Z</time></trkpt><trkpt lat="44.4292068" lon="10.7489087"><ele>800.2</ele><time>2026-05-03T09:37:41.55Z</time></trkpt><trkpt lat="44.4290995" lon="10.7488529"><ele>795.5999999999999</ele><time>2026-05-03T09:37:43.549Z</time></trkpt><trkpt lat="44.4289867" lon="10.7488108"><ele>791.0</ele><time>2026-05-03T09:37:45.545Z</time></trkpt><trkpt lat="44.4288737" lon="10.7487537"><ele>790.0</ele><time>2026-05-03T09:37:47.542Z</time></trkpt><trkpt lat="44.4287654" lon="10.7487226"><ele>789.0</ele><time>2026-05-03T09:37:49.544Z</time></trkpt><trkpt lat="44.4286634" lon="10.7486906"><ele>788.0</ele><time>2026-05-03T09:37:51.543Z</time></trkpt><trkpt lat="44.4285643" lon="10.748648"><ele>787.0</ele><time>2026-05-03T09:37:53.536Z</time></trkpt><trkpt lat="44.4285114" lon="10.748574"><ele>786.0</ele><time>2026-05-03T09:37:55.546Z</time></trkpt><trkpt lat="44.4285238" lon="10.7484695"><ele>781.8</ele><time>2026-05-03T09:37:57.541Z</time></trkpt><trkpt lat="44.4285648" lon="10.7483676"><ele>777.5999999999999</ele><time>2026-05-03T09:37:59.54Z</time></trkpt><trkpt lat="44.4286337" lon="10.7482768"><ele>773.4</ele><time>2026-05-03T09:38:01.547Z</time></trkpt><trkpt lat="44.4287298" lon="10.7481776"><ele>769.2</ele><time>2026-05-03T09:38:03.538Z</time></trkpt><trkpt lat="44.4288099" lon="10.7480704"><ele>765.0</ele><time>2026-05-03T09:38:05.54Z</time></trkpt><trkpt lat="44.4288851" lon="10.7479539"><ele>765.0</ele><time>2026-05-03T09:38:07.544Z</time></trkpt><trkpt lat="44.4289327" lon="10.7478228"><ele>765.0</ele><time>2026-05-03T09:38:09.548Z</time></trkpt><trkpt lat="44.4289512" lon="10.7476733"><ele>765.0</ele><time>2026-05-03T09:38:11.545Z</time></trkpt><trkpt lat="44.4289543" lon="10.7475311"><ele>765.0</ele><time>2026-05-03T09:38:13.539Z</time></trkpt><trkpt lat="44.4289" lon="10.7473849"><ele>765.0</ele><time>2026-05-03T09:38:15.547Z</time></trkpt><trkpt lat="44.4288697" lon="10.7472863"><ele>760.8333333333334</ele><time>2026-05-03T09:38:16.561Z</time></trkpt><trkpt lat="44.4288412" lon="10.7471894"><ele>756.6666666666666</ele><time>2026-05-03T09:38:17.551Z</time></trkpt><trkpt lat="44.4288238" lon="10.7470975"><ele>752.5</ele><time>2026-05-03T09:38:18.555Z</time></trkpt><trkpt lat="44.4288147" lon="10.7469406"><ele>748.3333333333333</ele><time>2026-05-03T09:38:20.561Z</time></trkpt><trkpt lat="44.4288223" lon="10.7467662"><ele>744.1666666666666</ele><time>2026-05-03T09:38:22.558Z</time></trkpt><trkpt lat="44.4288169" lon="10.7466755"><ele>740.0</ele><time>2026-05-03T09:38:23.561Z</time></trkpt><trkpt lat="44.4287591" lon="10.7465595"><ele>738.3333333333333</ele><time>2026-05-03T09:38:25.558Z</time></trkpt><trkpt lat="44.4286539" lon="10.7465401"><ele>736.6666666666666</ele><time>2026-05-03T09:38:27.556Z</time></trkpt><trkpt lat="44.4285827" lon="10.7465543"><ele>735.0</ele><time>2026-05-03T09:38:28.559Z</time></trkpt><trkpt lat="44.4285109" lon="10.7465875"><ele>733.3333333333334</ele><time>2026-05-03T09:38:29.561Z</time></trkpt><trkpt lat="44.4284482" lon="10.7466329"><ele>731.6666666666667</ele><time>2026-05-03T09:38:30.555Z</time></trkpt><trkpt lat="44.4283693" lon="10.7466906"><ele>730.0</ele><time>2026-05-03T09:38:32.551Z</time></trkpt><trkpt lat="44.428315" lon="10.7466155"><ele>730.0</ele><time>2026-05-03T09:38:35.55Z</time></trkpt><trkpt lat="44.4283444" lon="10.7465309"><ele>730.0</ele><time>2026-05-03T09:38:37.563Z</time></trkpt><trkpt lat="44.4283923" lon="10.746459"><ele>730.0</ele><time>2026-05-03T09:38:40.557Z</time></trkpt><trkpt lat="44.428429" lon="10.7463801"><ele>730.0</ele><time>2026-05-03T09:38:42.557Z</time></trkpt><trkpt lat="44.4284855" lon="10.7463043"><ele>730.0</ele><time>2026-05-03T09:38:44.549Z</time></trkpt><trkpt lat="44.4285723" lon="10.7462142"><ele>730.0</ele><time>2026-05-03T09:38:46.55Z</time></trkpt><trkpt lat="44.4286258" lon="10.7461593"><ele>730.0</ele><time>2026-05-03T09:38:47.544Z</time></trkpt><trkpt lat="44.4286852" lon="10.7460859"><ele>730.0</ele><time>2026-05-03T09:38:48.545Z</time></trkpt><trkpt lat="44.4287525" lon="10.7460043"><ele>730.0</ele><time>2026-05-03T09:38:49.542Z</time></trkpt><trkpt lat="44.4288182" lon="10.7459142"><ele>730.0</ele><time>2026-05-03T09:38:50.536Z</time></trkpt><trkpt lat="44.4288852" lon="10.7458243"><ele>730.0</ele><time>2026-05-03T09:38:51.544Z</time></trkpt><trkpt lat="44.4289479" lon="10.745726"><ele>730.0</ele><time>2026-05-03T09:38:52.545Z</time></trkpt><trkpt lat="44.4290055" lon="10.7456333"><ele>727.0</ele><time>2026-05-03T09:38:53.548Z</time></trkpt><trkpt lat="44.4290564" lon="10.7455492"><ele>724.0</ele><time>2026-05-03T09:38:54.548Z</time></trkpt><trkpt lat="44.429103" lon="10.745484"><ele>721.0</ele><time>2026-05-03T09:38:55.551Z</time></trkpt><trkpt lat="44.4291894" lon="10.7454022"><ele>718.0</ele><time>2026-05-03T09:38:57.562Z</time></trkpt><trkpt lat="44.42926" lon="10.7453443"><ele>715.0</ele><time>2026-05-03T09:39:11.552Z</time></trkpt><trkpt lat="44.4292713" lon="10.7452436"><ele>712.0</ele><time>2026-05-03T09:39:12.55Z</time></trkpt><trkpt lat="44.4292708" lon="10.7451384"><ele>711.3333333333334</ele><time>2026-05-03T09:39:13.552Z</time></trkpt><trkpt lat="44.4292777" lon="10.7449941"><ele>710.6666666666667</ele><time>2026-05-03T09:39:14.552Z</time></trkpt><trkpt lat="44.4292867" lon="10.7448857"><ele>710.0</ele><time>2026-05-03T09:39:15.547Z</time></trkpt><trkpt lat="44.4292968" lon="10.7447239"><ele>709.3333333333334</ele><time>2026-05-03T09:39:17.551Z</time></trkpt><trkpt lat="44.4292924" lon="10.7446235"><ele>708.6666666666666</ele><time>2026-05-03T09:39:24.555Z</time></trkpt><trkpt lat="44.4292531" lon="10.7447058"><ele>708.0</ele><time>2026-05-03T09:39:40.559Z</time></trkpt><trkpt lat="44.4292127" lon="10.7448451"><ele>708.0</ele><time>2026-05-03T09:39:42.561Z</time></trkpt><trkpt lat="44.42915" lon="10.7449718"><ele>708.0</ele><time>2026-05-03T09:39:44.557Z</time></trkpt><trkpt lat="44.4290504" lon="10.745012"><ele>708.0</ele><time>2026-05-03T09:39:46.556Z</time></trkpt><trkpt lat="44.4289825" lon="10.7450054"><ele>708.0</ele><time>2026-05-03T09:39:47.551Z</time></trkpt><trkpt lat="44.4289123" lon="10.7450023"><ele>708.0</ele><time>2026-05-03T09:39:48.552Z</time></trkpt><trkpt lat="44.4288411" lon="10.7450002"><ele>708.0</ele><time>2026-05-03T09:39:49.551Z</time></trkpt><trkpt lat="44.4287673" lon="10.7449999"><ele>706.3333333333334</ele><time>2026-05-03T09:39:50.548Z</time></trkpt><trkpt lat="44.4286899" lon="10.7450007"><ele>704.6666666666666</ele><time>2026-05-03T09:39:51.547Z</time></trkpt><trkpt lat="44.4286018" lon="10.7450141"><ele>703.0</ele><time>2026-05-03T09:39:52.548Z</time></trkpt><trkpt lat="44.4285142" lon="10.7450419"><ele>701.3333333333333</ele><time>2026-05-03T09:39:53.554Z</time></trkpt><trkpt lat="44.4284271" lon="10.7450769"><ele>699.6666666666666</ele><time>2026-05-03T09:39:54.549Z</time></trkpt><trkpt lat="44.4283462" lon="10.7451176"><ele>698.0</ele><time>2026-05-03T09:39:55.557Z</time></trkpt><trkpt lat="44.4282726" lon="10.745197"><ele>698.4</ele><time>2026-05-03T09:39:56.548Z</time></trkpt><trkpt lat="44.4282066" lon="10.7453036"><ele>698.8</ele><time>2026-05-03T09:39:57.545Z</time></trkpt><trkpt lat="44.4281186" lon="10.745405"><ele>699.2</ele><time>2026-05-03T09:39:58.548Z</time></trkpt><trkpt lat="44.4280224" lon="10.745489"><ele>699.6</ele><time>2026-05-03T09:39:59.552Z</time></trkpt><trkpt lat="44.4279114" lon="10.7455281"><ele>700.0</ele><time>2026-05-03T09:40:00.543Z</time></trkpt><trkpt lat="44.4277973" lon="10.7455279"><ele>700.0</ele><time>2026-05-03T09:40:01.542Z</time></trkpt><trkpt lat="44.4276812" lon="10.7455045"><ele>700.0</ele><time>2026-05-03T09:40:02.546Z</time></trkpt><trkpt lat="44.4275764" lon="10.745412"><ele>700.0</ele><time>2026-05-03T09:40:03.543Z</time></trkpt><trkpt lat="44.4274713" lon="10.74531"><ele>700.0</ele><time>2026-05-03T09:40:04.537Z</time></trkpt><trkpt lat="44.4273658" lon="10.7452327"><ele>697.0</ele><time>2026-05-03T09:40:05.545Z</time></trkpt><trkpt lat="44.4272523" lon="10.7451889"><ele>694.0</ele><time>2026-05-03T09:40:06.553Z</time></trkpt><trkpt lat="44.4271505" lon="10.7451962"><ele>691.0</ele><time>2026-05-03T09:40:07.556Z</time></trkpt><trkpt lat="44.4270424" lon="10.745258"><ele>688.0</ele><time>2026-05-03T09:40:08.55Z</time></trkpt><trkpt lat="44.4269274" lon="10.7453441"><ele>688.0</ele><time>2026-05-03T09:40:09.546Z</time></trkpt><trkpt lat="44.4268067" lon="10.7454168"><ele>688.0</ele><time>2026-05-03T09:40:10.565Z</time></trkpt><trkpt lat="44.4266801" lon="10.7454792"><ele>688.0</ele><time>2026-05-03T09:40:11.55Z</time></trkpt><trkpt lat="44.4265538" lon="10.7455141"><ele>688.0</ele><time>2026-05-03T09:40:12.547Z</time></trkpt><trkpt lat="44.4264299" lon="10.7455232"><ele>686.25</ele><time>2026-05-03T09:40:13.54Z</time></trkpt><trkpt lat="44.4263092" lon="10.7455173"><ele>684.5</ele><time>2026-05-03T09:40:14.543Z</time></trkpt><trkpt lat="44.4261914" lon="10.7454852"><ele>682.75</ele><time>2026-05-03T09:40:15.548Z</time></trkpt><trkpt lat="44.426103" lon="10.7453868"><ele>681.0</ele><time>2026-05-03T09:40:16.549Z</time></trkpt><trkpt lat="44.4260329" lon="10.745275"><ele>679.0</ele><time>2026-05-03T09:40:17.539Z</time></trkpt><trkpt lat="44.4259643" lon="10.7451851"><ele>677.0</ele><time>2026-05-03T09:40:18.547Z</time></trkpt><trkpt lat="44.4259006" lon="10.745115"><ele>675.0</ele><time>2026-05-03T09:40:19.547Z</time></trkpt><trkpt lat="44.4258329" lon="10.7450857"><ele>673.0</ele><time>2026-05-03T09:40:20.555Z</time></trkpt><trkpt lat="44.4257557" lon="10.7450874"><ele>671.0</ele><time>2026-05-03T09:40:21.56Z</time></trkpt><trkpt lat="44.4256634" lon="10.7451321"><ele>669.0</ele><time>2026-05-03T09:40:22.551Z</time></trkpt><trkpt lat="44.425572" lon="10.7451922"><ele>668.2</ele><time>2026-05-03T09:40:23.554Z</time></trkpt><trkpt lat="44.4254852" lon="10.7452576"><ele>667.4000000000001</ele><time>2026-05-03T09:40:24.553Z</time></trkpt><trkpt lat="44.4253928" lon="10.7453123"><ele>666.6</ele><time>2026-05-03T09:40:25.551Z</time></trkpt><trkpt lat="44.425312" lon="10.745373"><ele>665.8</ele><time>2026-05-03T09:40:26.546Z</time></trkpt><trkpt lat="44.4252347" lon="10.7454561"><ele>665.0</ele><time>2026-05-03T09:40:27.562Z</time></trkpt><trkpt lat="44.4251798" lon="10.7455595"><ele>665.0</ele><time>2026-05-03T09:40:28.558Z</time></trkpt><trkpt lat="44.4251443" lon="10.7456819"><ele>665.0</ele><time>2026-05-03T09:40:29.561Z</time></trkpt><trkpt lat="44.4251118" lon="10.7458126"><ele>665.0</ele><time>2026-05-03T09:40:30.558Z</time></trkpt><trkpt lat="44.4250782" lon="10.7459513"><ele>665.0</ele><time>2026-05-03T09:40:31.56Z</time></trkpt><trkpt lat="44.4250433" lon="10.7461024"><ele>665.0</ele><time>2026-05-03T09:40:32.555Z</time></trkpt><trkpt lat="44.4250077" lon="10.7462505"><ele>665.25</ele><time>2026-05-03T09:40:33.559Z</time></trkpt><trkpt lat="44.4249698" lon="10.746395"><ele>665.5</ele><time>2026-05-03T09:40:34.555Z</time></trkpt><trkpt lat="44.424926" lon="10.7465489"><ele>665.75</ele><time>2026-05-03T09:40:35.554Z</time></trkpt><trkpt lat="44.4248826" lon="10.7467024"><ele>666.0</ele><time>2026-05-03T09:40:36.551Z</time></trkpt><trkpt lat="44.4248374" lon="10.7468563"><ele>664.5999999999999</ele><time>2026-05-03T09:40:37.561Z</time></trkpt><trkpt lat="44.4247835" lon="10.7470033"><ele>663.2</ele><time>2026-05-03T09:40:38.545Z</time></trkpt><trkpt lat="44.4247227" lon="10.7471246"><ele>661.8</ele><time>2026-05-03T09:40:39.548Z</time></trkpt><trkpt lat="44.4246448" lon="10.7472154"><ele>660.4000000000001</ele><time>2026-05-03T09:40:40.555Z</time></trkpt><trkpt lat="44.424546" lon="10.7472872"><ele>659.0</ele><time>2026-05-03T09:40:41.559Z</time></trkpt><trkpt lat="44.4244548" lon="10.7473447"><ele>659.0</ele><time>2026-05-03T09:40:42.54Z</time></trkpt><trkpt lat="44.4243658" lon="10.7474051"><ele>659.0</ele><time>2026-05-03T09:40:43.543Z</time></trkpt><trkpt lat="44.4242875" lon="10.74748"><ele>659.0</ele><time>2026-05-03T09:40:44.533Z</time></trkpt><trkpt lat="44.4242356" lon="10.7475671"><ele>659.0</ele><time>2026-05-03T09:40:45.543Z</time></trkpt><trkpt lat="44.4241964" lon="10.7476839"><ele>659.0</ele><time>2026-05-03T09:40:46.544Z</time></trkpt><trkpt lat="44.4241431" lon="10.7478377"><ele>661.6</ele><time>2026-05-03T09:40:47.538Z</time></trkpt><trkpt lat="44.4241018" lon="10.7479901"><ele>664.2</ele><time>2026-05-03T09:40:48.538Z</time></trkpt><trkpt lat="44.4240513" lon="10.7481154"><ele>666.8000000000001</ele><time>2026-05-03T09:40:49.538Z</time></trkpt><trkpt lat="44.4240067" lon="10.7482469"><ele>669.4000000000001</ele><time>2026-05-03T09:40:50.54Z</time></trkpt><trkpt lat="44.4239604" lon="10.7483871"><ele>672.0</ele><time>2026-05-03T09:40:51.536Z</time></trkpt><trkpt lat="44.4239138" lon="10.7485327"><ele>670.25</ele><time>2026-05-03T09:40:52.539Z</time></trkpt><trkpt lat="44.4238548" lon="10.7486786"><ele>668.5</ele><time>2026-05-03T09:40:53.529Z</time></trkpt><trkpt lat="44.4237899" lon="10.7488183"><ele>666.75</ele><time>2026-05-03T09:40:54.536Z</time></trkpt><trkpt lat="44.42374" lon="10.7489535"><ele>665.0</ele><time>2026-05-03T09:40:55.536Z</time></trkpt><trkpt lat="44.4236898" lon="10.7490838"><ele>665.0</ele><time>2026-05-03T09:40:56.54Z</time></trkpt><trkpt lat="44.4236211" lon="10.7492069"><ele>665.0</ele><time>2026-05-03T09:40:57.539Z</time></trkpt><trkpt lat="44.4235418" lon="10.7493144"><ele>665.0</ele><time>2026-05-03T09:40:58.537Z</time></trkpt><trkpt lat="44.4234458" lon="10.7493852"><ele>665.0</ele><time>2026-05-03T09:40:59.537Z</time></trkpt><trkpt lat="44.423343" lon="10.749415"><ele>665.0</ele><time>2026-05-03T09:41:00.536Z</time></trkpt><trkpt lat="44.4232307" lon="10.74942"><ele>665.0</ele><time>2026-05-03T09:41:01.54Z</time></trkpt><trkpt lat="44.4231076" lon="10.7494023"><ele>665.0</ele><time>2026-05-03T09:41:02.539Z</time></trkpt><trkpt lat="44.4229848" lon="10.7493608"><ele>665.0</ele><time>2026-05-03T09:41:03.539Z</time></trkpt><trkpt lat="44.4228721" lon="10.7492994"><ele>665.0</ele><time>2026-05-03T09:41:04.542Z</time></trkpt><trkpt lat="44.4227679" lon="10.7492472"><ele>664.5</ele><time>2026-05-03T09:41:05.541Z</time></trkpt><trkpt lat="44.4226646" lon="10.7492103"><ele>664.0</ele><time>2026-05-03T09:41:06.541Z</time></trkpt><trkpt lat="44.4225509" lon="10.7491915"><ele>663.5</ele><time>2026-05-03T09:41:07.543Z</time></trkpt><trkpt lat="44.4224305" lon="10.7491756"><ele>663.0</ele><time>2026-05-03T09:41:08.543Z</time></trkpt><trkpt lat="44.4222989" lon="10.7491863"><ele>663.0</ele><time>2026-05-03T09:41:09.534Z</time></trkpt><trkpt lat="44.4221761" lon="10.7492106"><ele>663.0</ele><time>2026-05-03T09:41:10.543Z</time></trkpt><trkpt lat="44.4220578" lon="10.7492379"><ele>663.0</ele><time>2026-05-03T09:41:11.541Z</time></trkpt><trkpt lat="44.4219485" lon="10.7492704"><ele>663.0</ele><time>2026-05-03T09:41:12.561Z</time></trkpt><trkpt lat="44.4218489" lon="10.7492905"><ele>662.3333333333334</ele><time>2026-05-03T09:41:13.542Z</time></trkpt><trkpt lat="44.4217587" lon="10.7493019"><ele>661.6666666666666</ele><time>2026-05-03T09:41:14.548Z</time></trkpt><trkpt lat="44.4216786" lon="10.7492932"><ele>661.0</ele><time>2026-05-03T09:41:15.544Z</time></trkpt><trkpt lat="44.4216123" lon="10.7492536"><ele>660.3333333333333</ele><time>2026-05-03T09:41:16.547Z</time></trkpt><trkpt lat="44.4215541" lon="10.7492015"><ele>659.6666666666666</ele><time>2026-05-03T09:41:17.545Z</time></trkpt><trkpt lat="44.4214937" lon="10.7491471"><ele>659.0</ele><time>2026-05-03T09:41:18.546Z</time></trkpt><trkpt lat="44.4214278" lon="10.7491114"><ele>659.0</ele><time>2026-05-03T09:41:19.546Z</time></trkpt><trkpt lat="44.4213581" lon="10.7490861"><ele>659.0</ele><time>2026-05-03T09:41:20.545Z</time></trkpt><trkpt lat="44.421288" lon="10.7490668"><ele>659.0</ele><time>2026-05-03T09:41:21.552Z</time></trkpt><trkpt lat="44.4212218" lon="10.7490453"><ele>659.0</ele><time>2026-05-03T09:41:22.548Z</time></trkpt><trkpt lat="44.421112" lon="10.7490316"><ele>659.0</ele><time>2026-05-03T09:41:24.553Z</time></trkpt><trkpt lat="44.4210295" lon="10.7490725"><ele>659.0</ele><time>2026-05-03T09:41:26.563Z</time></trkpt><trkpt lat="44.4209704" lon="10.749181"><ele>657.8333333333333</ele><time>2026-05-03T09:41:28.564Z</time></trkpt><trkpt lat="44.420944" lon="10.7492723"><ele>656.6666666666666</ele><time>2026-05-03T09:41:29.556Z</time></trkpt><trkpt lat="44.420916" lon="10.749368"><ele>655.5</ele><time>2026-05-03T09:41:30.556Z</time></trkpt><trkpt lat="44.4208871" lon="10.7494753"><ele>654.3333333333334</ele><time>2026-05-03T09:41:31.562Z</time></trkpt><trkpt lat="44.4208666" lon="10.749594"><ele>653.1666666666667</ele><time>2026-05-03T09:41:32.549Z</time></trkpt><trkpt lat="44.4208411" lon="10.7497224"><ele>652.0</ele><time>2026-05-03T09:41:33.552Z</time></trkpt><trkpt lat="44.4208132" lon="10.7498697"><ele>651.4000000000001</ele><time>2026-05-03T09:41:34.549Z</time></trkpt><trkpt lat="44.4207948" lon="10.7500192"><ele>650.8000000000001</ele><time>2026-05-03T09:41:35.55Z</time></trkpt><trkpt lat="44.4207881" lon="10.7501606"><ele>650.2</ele><time>2026-05-03T09:41:36.553Z</time></trkpt><trkpt lat="44.4207891" lon="10.7502979"><ele>649.6</ele><time>2026-05-03T09:41:37.552Z</time></trkpt><trkpt lat="44.4207871" lon="10.7504339"><ele>649.0</ele><time>2026-05-03T09:41:38.55Z</time></trkpt><trkpt lat="44.4207839" lon="10.7505639"><ele>648.8333333333334</ele><time>2026-05-03T09:41:39.543Z</time></trkpt><trkpt lat="44.4207956" lon="10.7506885"><ele>648.6666666666667</ele><time>2026-05-03T09:41:40.546Z</time></trkpt><trkpt lat="44.4207975" lon="10.7508052"><ele>648.5</ele><time>2026-05-03T09:41:41.543Z</time></trkpt><trkpt lat="44.420786" lon="10.7509198"><ele>648.3333333333334</ele><time>2026-05-03T09:41:42.551Z</time></trkpt><trkpt lat="44.4207631" lon="10.7510254"><ele>648.1666666666666</ele><time>2026-05-03T09:41:43.578Z</time></trkpt><trkpt lat="44.4207429" lon="10.7511198"><ele>648.0</ele><time>2026-05-03T09:41:44.559Z</time></trkpt><trkpt lat="44.4206809" lon="10.7512129"><ele>648.0</ele><time>2026-05-03T09:41:46.563Z</time></trkpt><trkpt lat="44.4206113" lon="10.7512444"><ele>648.0</ele><time>2026-05-03T09:41:47.556Z</time></trkpt><trkpt lat="44.4205337" lon="10.751294"><ele>648.0</ele><time>2026-05-03T09:41:48.554Z</time></trkpt><trkpt lat="44.4204421" lon="10.751363"><ele>648.0</ele><time>2026-05-03T09:41:49.557Z</time></trkpt><trkpt lat="44.4203377" lon="10.7514403"><ele>648.0</ele><time>2026-05-03T09:41:50.552Z</time></trkpt><trkpt lat="44.4202397" lon="10.7515244"><ele>642.75</ele><time>2026-05-03T09:41:51.553Z</time></trkpt><trkpt lat="44.4201467" lon="10.7516122"><ele>637.5</ele><time>2026-05-03T09:41:52.549Z</time></trkpt><trkpt lat="44.4200471" lon="10.7517028"><ele>632.25</ele><time>2026-05-03T09:41:53.554Z</time></trkpt><trkpt lat="44.4199453" lon="10.7517895"><ele>627.0</ele><time>2026-05-03T09:41:54.553Z</time></trkpt><trkpt lat="44.4198494" lon="10.7518684"><ele>626.4</ele><time>2026-05-03T09:41:55.55Z</time></trkpt><trkpt lat="44.4197471" lon="10.7519388"><ele>625.8000000000001</ele><time>2026-05-03T09:41:56.55Z</time></trkpt><trkpt lat="44.4196506" lon="10.7520113"><ele>625.2</ele><time>2026-05-03T09:41:57.551Z</time></trkpt><trkpt lat="44.4195887" lon="10.7520986"><ele>624.6</ele><time>2026-05-03T09:41:58.55Z</time></trkpt><trkpt lat="44.4195492" lon="10.7521897"><ele>624.0</ele><time>2026-05-03T09:41:59.546Z</time></trkpt><trkpt lat="44.4195203" lon="10.7522981"><ele>621.5</ele><time>2026-05-03T09:42:00.551Z</time></trkpt><trkpt lat="44.4194984" lon="10.7523902"><ele>619.0</ele><time>2026-05-03T09:42:01.553Z</time></trkpt><trkpt lat="44.4194818" lon="10.7525054"><ele>616.5</ele><time>2026-05-03T09:42:03.547Z</time></trkpt><trkpt lat="44.4195063" lon="10.7526294"><ele>614.0</ele><time>2026-05-03T09:46:30.555Z</time></trkpt><trkpt lat="44.4195569" lon="10.7527864"><ele>611.5</ele><time>2026-05-03T09:46:32.557Z</time></trkpt><trkpt lat="44.419593" lon="10.752871"><ele>609.0</ele><time>2026-05-03T09:46:33.557Z</time></trkpt><trkpt lat="44.4196335" lon="10.7529665"><ele>609.6666666666666</ele><time>2026-05-03T09:46:34.555Z</time></trkpt><trkpt lat="44.4196739" lon="10.753073"><ele>610.3333333333334</ele><time>2026-05-03T09:46:35.557Z</time></trkpt><trkpt lat="44.419711" lon="10.7531874"><ele>611.0</ele><time>2026-05-03T09:46:36.556Z</time></trkpt><trkpt lat="44.4197449" lon="10.7533036"><ele>611.6666666666667</ele><time>2026-05-03T09:46:37.557Z</time></trkpt><trkpt lat="44.4197753" lon="10.7534192"><ele>612.3333333333334</ele><time>2026-05-03T09:46:38.555Z</time></trkpt><trkpt lat="44.4198081" lon="10.7535253"><ele>613.0</ele><time>2026-05-03T09:46:39.554Z</time></trkpt><trkpt lat="44.4198451" lon="10.7536211"><ele>610.6</ele><time>2026-05-03T09:46:40.55Z</time></trkpt><trkpt lat="44.4198887" lon="10.7537071"><ele>608.1999999999999</ele><time>2026-05-03T09:46:41.549Z</time></trkpt><trkpt lat="44.4199476" lon="10.7538003"><ele>605.8</ele><time>2026-05-03T09:46:42.547Z</time></trkpt><trkpt lat="44.4200124" lon="10.7539017"><ele>603.4</ele><time>2026-05-03T09:46:43.547Z</time></trkpt><trkpt lat="44.4200799" lon="10.75401"><ele>601.0</ele><time>2026-05-03T09:46:44.545Z</time></trkpt><trkpt lat="44.4201417" lon="10.7541169"><ele>601.0</ele><time>2026-05-03T09:46:45.55Z</time></trkpt><trkpt lat="44.420198" lon="10.7542207"><ele>601.0</ele><time>2026-05-03T09:46:46.548Z</time></trkpt><trkpt lat="44.4202334" lon="10.754313"><ele>601.0</ele><time>2026-05-03T09:46:47.543Z</time></trkpt><trkpt lat="44.4202257" lon="10.7544078"><ele>601.0</ele><time>2026-05-03T09:46:48.55Z</time></trkpt><trkpt lat="44.4201826" lon="10.7545273"><ele>601.0</ele><time>2026-05-03T09:46:49.541Z</time></trkpt><trkpt lat="44.420133" lon="10.7546534"><ele>601.0</ele><time>2026-05-03T09:46:50.538Z</time></trkpt><trkpt lat="44.4200787" lon="10.7548084"><ele>601.6</ele><time>2026-05-03T09:46:51.542Z</time></trkpt><trkpt lat="44.4200221" lon="10.7549479"><ele>602.2</ele><time>2026-05-03T09:46:52.56Z</time></trkpt><trkpt lat="44.4199676" lon="10.7550624"><ele>602.8</ele><time>2026-05-03T09:46:53.544Z</time></trkpt><trkpt lat="44.419904" lon="10.7551766"><ele>603.4</ele><time>2026-05-03T09:46:54.546Z</time></trkpt><trkpt lat="44.4198235" lon="10.7552969"><ele>604.0</ele><time>2026-05-03T09:46:55.544Z</time></trkpt><trkpt lat="44.4197388" lon="10.7553977"><ele>606.1666666666667</ele><time>2026-05-03T09:46:56.548Z</time></trkpt><trkpt lat="44.419653" lon="10.7554704"><ele>608.3333333333334</ele><time>2026-05-03T09:46:57.542Z</time></trkpt><trkpt lat="44.4195866" lon="10.7555296"><ele>610.5</ele><time>2026-05-03T09:46:58.55Z</time></trkpt><trkpt lat="44.4195428" lon="10.7555965"><ele>612.6666666666666</ele><time>2026-05-03T09:46:59.54Z</time></trkpt><trkpt lat="44.4194983" lon="10.7556771"><ele>614.8333333333333</ele><time>2026-05-03T09:47:00.551Z</time></trkpt><trkpt lat="44.4194601" lon="10.7557567"><ele>617.0</ele><time>2026-05-03T09:47:01.548Z</time></trkpt><trkpt lat="44.4193904" lon="10.7559448"><ele>613.1666666666666</ele><time>2026-05-03T09:47:03.547Z</time></trkpt><trkpt lat="44.4193252" lon="10.7560659"><ele>609.3333333333333</ele><time>2026-05-03T09:47:04.54Z</time></trkpt><trkpt lat="44.4192974" lon="10.7561586"><ele>605.5</ele><time>2026-05-03T09:47:05.538Z</time></trkpt><trkpt lat="44.4192605" lon="10.7562312"><ele>601.6666666666666</ele><time>2026-05-03T09:47:06.532Z</time></trkpt><trkpt lat="44.4191841" lon="10.7562778"><ele>597.8333333333334</ele><time>2026-05-03T09:47:07.534Z</time></trkpt><trkpt lat="44.4191072" lon="10.7563313"><ele>594.0</ele><time>2026-05-03T09:47:08.542Z</time></trkpt><trkpt lat="44.4190069" lon="10.7563939"><ele>594.0</ele><time>2026-05-03T09:47:09.541Z</time></trkpt><trkpt lat="44.4189066" lon="10.7564725"><ele>594.0</ele><time>2026-05-03T09:47:10.543Z</time></trkpt><trkpt lat="44.4188021" lon="10.756544"><ele>594.0</ele><time>2026-05-03T09:47:11.551Z</time></trkpt><trkpt lat="44.4187012" lon="10.7566052"><ele>594.0</ele><time>2026-05-03T09:47:12.551Z</time></trkpt><trkpt lat="44.4186127" lon="10.7566509"><ele>594.0</ele><time>2026-05-03T09:47:13.555Z</time></trkpt><trkpt lat="44.4185405" lon="10.7566546"><ele>591.5</ele><time>2026-05-03T09:47:14.555Z</time></trkpt><trkpt lat="44.4184706" lon="10.756648"><ele>589.0</ele><time>2026-05-03T09:47:15.556Z</time></trkpt><trkpt lat="44.4184029" lon="10.756667"><ele>586.5</ele><time>2026-05-03T09:47:16.56Z</time></trkpt><trkpt lat="44.4183393" lon="10.7567139"><ele>584.0</ele><time>2026-05-03T09:47:17.56Z</time></trkpt><trkpt lat="44.4182825" lon="10.7568023"><ele>581.5</ele><time>2026-05-03T09:47:18.566Z</time></trkpt><trkpt lat="44.4182274" lon="10.7569201"><ele>579.0</ele><time>2026-05-03T09:47:19.548Z</time></trkpt><trkpt lat="44.41817" lon="10.7570639"><ele>579.0</ele><time>2026-05-03T09:47:20.546Z</time></trkpt><trkpt lat="44.4181195" lon="10.7571997"><ele>579.0</ele><time>2026-05-03T09:47:21.55Z</time></trkpt><trkpt lat="44.4180735" lon="10.7573356"><ele>579.0</ele><time>2026-05-03T09:47:22.545Z</time></trkpt><trkpt lat="44.4180228" lon="10.7574675"><ele>579.0</ele><time>2026-05-03T09:47:23.558Z</time></trkpt><trkpt lat="44.417966" lon="10.7576054"><ele>579.0</ele><time>2026-05-03T09:47:24.548Z</time></trkpt><trkpt lat="44.4179167" lon="10.7577424"><ele>574.2</ele><time>2026-05-03T09:47:25.547Z</time></trkpt><trkpt lat="44.4178814" lon="10.7578832"><ele>569.4</ele><time>2026-05-03T09:47:26.55Z</time></trkpt><trkpt lat="44.4178512" lon="10.7580054"><ele>564.6</ele><time>2026-05-03T09:47:27.549Z</time></trkpt><trkpt lat="44.417816" lon="10.7581163"><ele>559.8</ele><time>2026-05-03T09:47:28.548Z</time></trkpt><trkpt lat="44.4177822" lon="10.7581991"><ele>555.0</ele><time>2026-05-03T09:47:29.552Z</time></trkpt><trkpt lat="44.4177336" lon="10.7583233"><ele>555.0</ele><time>2026-05-03T09:47:31.553Z</time></trkpt><trkpt lat="44.4176991" lon="10.7584158"><ele>555.0</ele><time>2026-05-03T09:47:33.553Z</time></trkpt><trkpt lat="44.4176283" lon="10.7585328"><ele>555.0</ele><time>2026-05-03T09:48:11.551Z</time></trkpt><trkpt lat="44.4175752" lon="10.7585984"><ele>555.0</ele><time>2026-05-03T09:48:12.55Z</time></trkpt><trkpt lat="44.4175118" lon="10.7586564"><ele>555.0</ele><time>2026-05-03T09:48:13.552Z</time></trkpt><trkpt lat="44.4174345" lon="10.7587184"><ele>555.0</ele><time>2026-05-03T09:48:14.552Z</time></trkpt><trkpt lat="44.4173565" lon="10.7587844"><ele>553.1666666666666</ele><time>2026-05-03T09:48:15.553Z</time></trkpt><trkpt lat="44.417284" lon="10.7588556"><ele>551.3333333333334</ele><time>2026-05-03T09:48:16.567Z</time></trkpt><trkpt lat="44.4172179" lon="10.7589318"><ele>549.5</ele><time>2026-05-03T09:48:17.551Z</time></trkpt><trkpt lat="44.4171606" lon="10.7590115"><ele>547.6666666666667</ele><time>2026-05-03T09:48:18.56Z</time></trkpt><trkpt lat="44.4171216" lon="10.7590878"><ele>545.8333333333334</ele><time>2026-05-03T09:48:19.554Z</time></trkpt><trkpt lat="44.4170809" lon="10.7592327"><ele>544.0</ele><time>2026-05-03T09:48:21.553Z</time></trkpt><trkpt lat="44.4170508" lon="10.7593129"><ele>544.6666666666667</ele><time>2026-05-03T09:48:22.551Z</time></trkpt><trkpt lat="44.4170142" lon="10.7593922"><ele>545.3333333333334</ele><time>2026-05-03T09:48:23.554Z</time></trkpt><trkpt lat="44.4169731" lon="10.7594819"><ele>546.0</ele><time>2026-05-03T09:48:24.554Z</time></trkpt><trkpt lat="44.416928" lon="10.7595748"><ele>546.6666666666666</ele><time>2026-05-03T09:48:25.567Z</time></trkpt><trkpt lat="44.4168875" lon="10.7596743"><ele>547.3333333333333</ele><time>2026-05-03T09:48:26.552Z</time></trkpt><trkpt lat="44.4168475" lon="10.759786"><ele>548.0</ele><time>2026-05-03T09:48:27.554Z</time></trkpt><trkpt lat="44.4168248" lon="10.7599098"><ele>548.0</ele><time>2026-05-03T09:48:28.546Z</time></trkpt><trkpt lat="44.4168045" lon="10.7600578"><ele>548.0</ele><time>2026-05-03T09:48:29.551Z</time></trkpt><trkpt lat="44.4167858" lon="10.7602177"><ele>548.0</ele><time>2026-05-03T09:48:30.549Z</time></trkpt><trkpt lat="44.4167629" lon="10.7603635"><ele>548.0</ele><time>2026-05-03T09:48:31.552Z</time></trkpt><trkpt lat="44.4167287" lon="10.7604874"><ele>548.0</ele><time>2026-05-03T09:48:32.548Z</time></trkpt><trkpt lat="44.4166911" lon="10.7605924"><ele>549.5</ele><time>2026-05-03T09:48:33.55Z</time></trkpt><trkpt lat="44.4166512" lon="10.7606815"><ele>551.0</ele><time>2026-05-03T09:48:34.551Z</time></trkpt><trkpt lat="44.4166128" lon="10.760758"><ele>552.5</ele><time>2026-05-03T09:48:35.55Z</time></trkpt><trkpt lat="44.4165467" lon="10.7608457"><ele>554.0</ele><time>2026-05-03T09:48:37.554Z</time></trkpt><trkpt lat="44.416459" lon="10.7609192"><ele>555.5</ele><time>2026-05-03T09:48:44.558Z</time></trkpt><trkpt lat="44.4164051" lon="10.7610054"><ele>557.0</ele><time>2026-05-03T09:48:45.553Z</time></trkpt><trkpt lat="44.4163542" lon="10.7611025"><ele>552.6666666666666</ele><time>2026-05-03T09:48:46.559Z</time></trkpt><trkpt lat="44.4163021" lon="10.7612007"><ele>548.3333333333333</ele><time>2026-05-03T09:48:47.554Z</time></trkpt><trkpt lat="44.4162461" lon="10.7613014"><ele>544.0</ele><time>2026-05-03T09:48:48.558Z</time></trkpt><trkpt lat="44.4161896" lon="10.761402"><ele>539.6666666666666</ele><time>2026-05-03T09:48:49.553Z</time></trkpt><trkpt lat="44.4161387" lon="10.7614979"><ele>535.3333333333334</ele><time>2026-05-03T09:48:50.55Z</time></trkpt><trkpt lat="44.4160927" lon="10.7615977"><ele>531.0</ele><time>2026-05-03T09:48:51.555Z</time></trkpt><trkpt lat="44.4160538" lon="10.7616993"><ele>531.0</ele><time>2026-05-03T09:48:52.551Z</time></trkpt><trkpt lat="44.4160271" lon="10.7617929"><ele>531.0</ele><time>2026-05-03T09:48:53.552Z</time></trkpt><trkpt lat="44.415987" lon="10.7619303"><ele>531.0</ele><time>2026-05-03T09:48:55.549Z</time></trkpt><trkpt lat="44.4159555" lon="10.7620139"><ele>531.0</ele><time>2026-05-03T09:48:58.55Z</time></trkpt><trkpt lat="44.4159252" lon="10.7621191"><ele>531.0</ele><time>2026-05-03T09:52:47.557Z</time></trkpt><trkpt lat="44.4158957" lon="10.7622851"><ele>531.0</ele><time>2026-05-03T09:52:49.552Z</time></trkpt><trkpt lat="44.41588" lon="10.7624042"><ele>531.3333333333334</ele><time>2026-05-03T09:52:50.551Z</time></trkpt><trkpt lat="44.4158638" lon="10.762516"><ele>531.6666666666666</ele><time>2026-05-03T09:52:51.548Z</time></trkpt><trkpt lat="44.4158421" lon="10.7626207"><ele>532.0</ele><time>2026-05-03T09:52:52.544Z</time></trkpt><trkpt lat="44.4158093" lon="10.7627199"><ele>532.3333333333333</ele><time>2026-05-03T09:52:53.544Z</time></trkpt><trkpt lat="44.4157582" lon="10.7628164"><ele>532.6666666666666</ele><time>2026-05-03T09:52:54.545Z</time></trkpt><trkpt lat="44.4157039" lon="10.7629147"><ele>533.0</ele><time>2026-05-03T09:52:55.545Z</time></trkpt><trkpt lat="44.4156507" lon="10.7630167"><ele>533.3333333333333</ele><time>2026-05-03T09:52:56.546Z</time></trkpt><trkpt lat="44.4156003" lon="10.763108"><ele>533.6666666666666</ele><time>2026-05-03T09:52:57.546Z</time></trkpt><trkpt lat="44.4155432" lon="10.7631884"><ele>534.0</ele><time>2026-05-03T09:52:58.545Z</time></trkpt><trkpt lat="44.4154807" lon="10.7632667"><ele>534.3333333333334</ele><time>2026-05-03T09:52:59.548Z</time></trkpt><trkpt lat="44.4154088" lon="10.7633373"><ele>534.6666666666667</ele><time>2026-05-03T09:53:00.543Z</time></trkpt><trkpt lat="44.4153252" lon="10.7633965"><ele>535.0</ele><time>2026-05-03T09:53:01.553Z</time></trkpt><trkpt lat="44.4152247" lon="10.7634232"><ele>532.2</ele><time>2026-05-03T09:53:02.542Z</time></trkpt><trkpt lat="44.4151305" lon="10.76345"><ele>529.4</ele><time>2026-05-03T09:53:03.559Z</time></trkpt><trkpt lat="44.4150491" lon="10.763503"><ele>526.6</ele><time>2026-05-03T09:53:04.549Z</time></trkpt><trkpt lat="44.4149792" lon="10.7635984"><ele>523.8</ele><time>2026-05-03T09:53:05.546Z</time></trkpt><trkpt lat="44.4149099" lon="10.7637072"><ele>521.0</ele><time>2026-05-03T09:53:06.546Z</time></trkpt><trkpt lat="44.4148318" lon="10.7638188"><ele>521.0</ele><time>2026-05-03T09:53:07.547Z</time></trkpt><trkpt lat="44.4147572" lon="10.7639237"><ele>521.0</ele><time>2026-05-03T09:53:08.544Z</time></trkpt><trkpt lat="44.4146855" lon="10.764016"><ele>521.0</ele><time>2026-05-03T09:53:09.543Z</time></trkpt><trkpt lat="44.4146117" lon="10.7640906"><ele>521.0</ele><time>2026-05-03T09:53:10.548Z</time></trkpt><trkpt lat="44.414523" lon="10.7641526"><ele>521.0</ele><time>2026-05-03T09:53:11.54Z</time></trkpt><trkpt lat="44.4144186" lon="10.7642"><ele>522.6</ele><time>2026-05-03T09:53:12.547Z</time></trkpt><trkpt lat="44.4143172" lon="10.7642556"><ele>524.2</ele><time>2026-05-03T09:53:13.55Z</time></trkpt><trkpt lat="44.414217" lon="10.7643176"><ele>525.8</ele><time>2026-05-03T09:53:14.549Z</time></trkpt><trkpt lat="44.4141144" lon="10.7643878"><ele>527.4</ele><time>2026-05-03T09:53:15.545Z</time></trkpt><trkpt lat="44.4140164" lon="10.764465"><ele>529.0</ele><time>2026-05-03T09:53:16.555Z</time></trkpt><trkpt lat="44.4139264" lon="10.7645611"><ele>529.6</ele><time>2026-05-03T09:53:17.547Z</time></trkpt><trkpt lat="44.4138388" lon="10.7646507"><ele>530.2</ele><time>2026-05-03T09:53:18.555Z</time></trkpt><trkpt lat="44.4137507" lon="10.7647274"><ele>530.8000000000001</ele><time>2026-05-03T09:53:19.553Z</time></trkpt><trkpt lat="44.413667" lon="10.7647633"><ele>531.4</ele><time>2026-05-03T09:53:20.552Z</time></trkpt><trkpt lat="44.4135831" lon="10.7647607"><ele>532.0</ele><time>2026-05-03T09:53:21.552Z</time></trkpt><trkpt lat="44.4134938" lon="10.7647406"><ele>534.2</ele><time>2026-05-03T09:53:22.548Z</time></trkpt><trkpt lat="44.4134024" lon="10.7647447"><ele>536.4000000000001</ele><time>2026-05-03T09:53:23.55Z</time></trkpt><trkpt lat="44.4133123" lon="10.7647865"><ele>538.5999999999999</ele><time>2026-05-03T09:53:24.545Z</time></trkpt><trkpt lat="44.4132257" lon="10.7648471"><ele>540.8</ele><time>2026-05-03T09:53:25.548Z</time></trkpt><trkpt lat="44.4131421" lon="10.7649017"><ele>543.0</ele><time>2026-05-03T09:53:26.547Z</time></trkpt><trkpt lat="44.4130627" lon="10.7649268"><ele>543.0</ele><time>2026-05-03T09:53:27.555Z</time></trkpt><trkpt lat="44.4130064" lon="10.7648649"><ele>543.0</ele><time>2026-05-03T09:53:29.563Z</time></trkpt><trkpt lat="44.4130432" lon="10.7647005"><ele>543.0</ele><time>2026-05-03T09:53:31.562Z</time></trkpt><trkpt lat="44.4130899" lon="10.7645726"><ele>543.0</ele><time>2026-05-03T09:53:32.554Z</time></trkpt><trkpt lat="44.4131448" lon="10.7644219"><ele>543.0</ele><time>2026-05-03T09:53:33.556Z</time></trkpt><trkpt lat="44.4132082" lon="10.7642635"><ele>544.4</ele><time>2026-05-03T09:53:34.573Z</time></trkpt><trkpt lat="44.4132538" lon="10.7641234"><ele>545.8</ele><time>2026-05-03T09:53:35.567Z</time></trkpt><trkpt lat="44.4132691" lon="10.7640128"><ele>547.2</ele><time>2026-05-03T09:53:36.574Z</time></trkpt><trkpt lat="44.4132675" lon="10.7639002"><ele>548.6</ele><time>2026-05-03T09:53:37.571Z</time></trkpt><trkpt lat="44.4132503" lon="10.7637603"><ele>550.0</ele><time>2026-05-03T09:53:38.562Z</time></trkpt><trkpt lat="44.4132068" lon="10.7636276"><ele>551.2</ele><time>2026-05-03T09:53:39.571Z</time></trkpt><trkpt lat="44.4131521" lon="10.7635121"><ele>552.4</ele><time>2026-05-03T09:53:40.563Z</time></trkpt><trkpt lat="44.4130839" lon="10.7633989"><ele>553.6</ele><time>2026-05-03T09:53:41.561Z</time></trkpt><trkpt lat="44.4130172" lon="10.7632924"><ele>554.8</ele><time>2026-05-03T09:53:42.572Z</time></trkpt><trkpt lat="44.4129523" lon="10.7632177"><ele>556.0</ele><time>2026-05-03T09:53:43.571Z</time></trkpt><trkpt lat="44.4128421" lon="10.7632271"><ele>558.2</ele><time>2026-05-03T09:53:45.566Z</time></trkpt><trkpt lat="44.4127155" lon="10.7633331"><ele>560.4000000000001</ele><time>2026-05-03T09:53:47.561Z</time></trkpt><trkpt lat="44.4126484" lon="10.7634125"><ele>562.6</ele><time>2026-05-03T09:53:48.563Z</time></trkpt><trkpt lat="44.4125785" lon="10.7635068"><ele>564.8000000000001</ele><time>2026-05-03T09:53:49.562Z</time></trkpt><trkpt lat="44.4125186" lon="10.7635526"><ele>567.0</ele><time>2026-05-03T09:53:50.567Z</time></trkpt><trkpt lat="44.4123931" lon="10.7634953"><ele>567.4</ele><time>2026-05-03T09:53:52.566Z</time></trkpt><trkpt lat="44.4123131" lon="10.7634333"><ele>567.8000000000001</ele><time>2026-05-03T09:53:53.572Z</time></trkpt><trkpt lat="44.4122265" lon="10.7633797"><ele>568.2</ele><time>2026-05-03T09:53:54.573Z</time></trkpt><trkpt lat="44.4121341" lon="10.7633408"><ele>568.6</ele><time>2026-05-03T09:53:55.573Z</time></trkpt><trkpt lat="44.4120493" lon="10.7633224"><ele>569.0</ele><time>2026-05-03T09:53:56.579Z</time></trkpt><trkpt lat="44.4119597" lon="10.7633209"><ele>572.6</ele><time>2026-05-03T09:53:57.576Z</time></trkpt><trkpt lat="44.411871" lon="10.7633349"><ele>576.2</ele><time>2026-05-03T09:53:58.571Z</time></trkpt><trkpt lat="44.4117846" lon="10.763327"><ele>579.8000000000001</ele><time>2026-05-03T09:53:59.57Z</time></trkpt><trkpt lat="44.4116931" lon="10.7632981"><ele>583.4</ele><time>2026-05-03T09:54:00.577Z</time></trkpt><trkpt lat="44.4115979" lon="10.7632361"><ele>587.0</ele><time>2026-05-03T09:54:01.572Z</time></trkpt><trkpt lat="44.4115028" lon="10.7631707"><ele>587.0</ele><time>2026-05-03T09:54:02.571Z</time></trkpt><trkpt lat="44.4114272" lon="10.7631274"><ele>587.0</ele><time>2026-05-03T09:54:03.577Z</time></trkpt><trkpt lat="44.4113658" lon="10.7630913"><ele>587.0</ele><time>2026-05-03T09:54:04.584Z</time></trkpt><trkpt lat="44.4113021" lon="10.7630757"><ele>587.0</ele><time>2026-05-03T09:54:06.574Z</time></trkpt><trkpt lat="44.4112463" lon="10.7631261"><ele>587.0</ele><time>2026-05-03T09:54:08.578Z</time></trkpt><trkpt lat="44.4111427" lon="10.7632051"><ele>587.0</ele><time>2026-05-03T09:54:10.565Z</time></trkpt><trkpt lat="44.4110797" lon="10.7632266"><ele>589.2</ele><time>2026-05-03T09:54:11.57Z</time></trkpt><trkpt lat="44.4110119" lon="10.7632352"><ele>591.4000000000001</ele><time>2026-05-03T09:54:12.562Z</time></trkpt><trkpt lat="44.4108925" lon="10.7632349"><ele>593.5999999999999</ele><time>2026-05-03T09:54:14.57Z</time></trkpt><trkpt lat="44.4107805" lon="10.7633407"><ele>595.8</ele><time>2026-05-03T09:54:16.58Z</time></trkpt><trkpt lat="44.4107233" lon="10.7634133"><ele>598.0</ele><time>2026-05-03T09:54:17.575Z</time></trkpt><trkpt lat="44.4106639" lon="10.7634734"><ele>598.0</ele><time>2026-05-03T09:54:18.584Z</time></trkpt><trkpt lat="44.4105882" lon="10.763529"><ele>598.0</ele><time>2026-05-03T09:54:19.579Z</time></trkpt><trkpt lat="44.4104996" lon="10.7636019"><ele>598.0</ele><time>2026-05-03T09:54:20.58Z</time></trkpt><trkpt lat="44.4104081" lon="10.7636776"><ele>598.0</ele><time>2026-05-03T09:54:21.579Z</time></trkpt><trkpt lat="44.410313" lon="10.7637435"><ele>598.0</ele><time>2026-05-03T09:54:22.582Z</time></trkpt><trkpt lat="44.4102235" lon="10.7637846"><ele>599.1999999999999</ele><time>2026-05-03T09:54:23.579Z</time></trkpt><trkpt lat="44.4101312" lon="10.7637879"><ele>600.4</ele><time>2026-05-03T09:54:24.582Z</time></trkpt><trkpt lat="44.4100276" lon="10.7637608"><ele>601.5999999999999</ele><time>2026-05-03T09:54:25.588Z</time></trkpt><trkpt lat="44.4099088" lon="10.7637163"><ele>602.8</ele><time>2026-05-03T09:54:26.565Z</time></trkpt><trkpt lat="44.4097888" lon="10.7636776"><ele>604.0</ele><time>2026-05-03T09:54:27.582Z</time></trkpt><trkpt lat="44.409669" lon="10.7636398"><ele>606.25</ele><time>2026-05-03T09:54:28.575Z</time></trkpt><trkpt lat="44.4095507" lon="10.7636029"><ele>608.5</ele><time>2026-05-03T09:54:29.581Z</time></trkpt><trkpt lat="44.4094306" lon="10.7635681"><ele>610.75</ele><time>2026-05-03T09:54:30.576Z</time></trkpt><trkpt lat="44.4093065" lon="10.7635393"><ele>613.0</ele><time>2026-05-03T09:54:31.58Z</time></trkpt><trkpt lat="44.4091828" lon="10.763507"><ele>613.0</ele><time>2026-05-03T09:54:32.574Z</time></trkpt><trkpt lat="44.4090588" lon="10.7634799"><ele>613.0</ele><time>2026-05-03T09:54:33.578Z</time></trkpt><trkpt lat="44.4089386" lon="10.763444"><ele>613.0</ele><time>2026-05-03T09:54:34.568Z</time></trkpt><trkpt lat="44.4088361" lon="10.7634156"><ele>613.0</ele><time>2026-05-03T09:54:35.57Z</time></trkpt><trkpt lat="44.408749" lon="10.7634073"><ele>613.0</ele><time>2026-05-03T09:54:36.591Z</time></trkpt><trkpt lat="44.408683" lon="10.7634352"><ele>614.8333333333334</ele><time>2026-05-03T09:54:37.563Z</time></trkpt><trkpt lat="44.4086256" lon="10.7634862"><ele>616.6666666666667</ele><time>2026-05-03T09:54:38.573Z</time></trkpt><trkpt lat="44.4085591" lon="10.7635581"><ele>618.5</ele><time>2026-05-03T09:54:39.57Z</time></trkpt><trkpt lat="44.4084761" lon="10.7636153"><ele>620.3333333333334</ele><time>2026-05-03T09:54:40.575Z</time></trkpt><trkpt lat="44.4083859" lon="10.7636563"><ele>622.1666666666666</ele><time>2026-05-03T09:54:41.574Z</time></trkpt><trkpt lat="44.4082924" lon="10.7637012"><ele>624.0</ele><time>2026-05-03T09:54:42.572Z</time></trkpt><trkpt lat="44.4081969" lon="10.76375"><ele>624.3333333333334</ele><time>2026-05-03T09:54:43.572Z</time></trkpt><trkpt lat="44.4081112" lon="10.7637986"><ele>624.6666666666666</ele><time>2026-05-03T09:54:44.572Z</time></trkpt><trkpt lat="44.4080376" lon="10.763844"><ele>625.0</ele><time>2026-05-03T09:54:45.572Z</time></trkpt><trkpt lat="44.4079803" lon="10.7639027"><ele>625.3333333333333</ele><time>2026-05-03T09:54:46.597Z</time></trkpt><trkpt lat="44.4079468" lon="10.7640352"><ele>625.6666666666666</ele><time>2026-05-03T09:54:48.59Z</time></trkpt><trkpt lat="44.4079896" lon="10.7641406"><ele>626.0</ele><time>2026-05-03T09:55:03.588Z</time></trkpt><trkpt lat="44.4080715" lon="10.7642096"><ele>626.0</ele><time>2026-05-03T09:55:05.59Z</time></trkpt><trkpt lat="44.408144" lon="10.7642428"><ele>626.0</ele><time>2026-05-03T09:55:06.591Z</time></trkpt><trkpt lat="44.4082143" lon="10.7643111"><ele>626.0</ele><time>2026-05-03T09:55:07.602Z</time></trkpt><trkpt lat="44.408281" lon="10.7644085"><ele>626.0</ele><time>2026-05-03T09:55:08.592Z</time></trkpt><trkpt lat="44.4083375" lon="10.7645191"><ele>626.0</ele><time>2026-05-03T09:55:09.59Z</time></trkpt><trkpt lat="44.4083857" lon="10.7646459"><ele>625.8</ele><time>2026-05-03T09:55:10.585Z</time></trkpt><trkpt lat="44.4084248" lon="10.7647726"><ele>625.6</ele><time>2026-05-03T09:55:11.588Z</time></trkpt><trkpt lat="44.4084549" lon="10.7649064"><ele>625.4</ele><time>2026-05-03T09:55:12.586Z</time></trkpt><trkpt lat="44.4084637" lon="10.7650436"><ele>625.2</ele><time>2026-05-03T09:55:13.589Z</time></trkpt><trkpt lat="44.4084425" lon="10.7651835"><ele>625.0</ele><time>2026-05-03T09:55:14.575Z</time></trkpt><trkpt lat="44.4084045" lon="10.7653239"><ele>624.4</ele><time>2026-05-03T09:55:15.591Z</time></trkpt><trkpt lat="44.4083602" lon="10.7654691"><ele>623.8</ele><time>2026-05-03T09:55:16.591Z</time></trkpt><trkpt lat="44.4083223" lon="10.7656172"><ele>623.2</ele><time>2026-05-03T09:55:17.584Z</time></trkpt><trkpt lat="44.4082937" lon="10.7657596"><ele>622.6</ele><time>2026-05-03T09:55:18.598Z</time></trkpt><trkpt lat="44.4082807" lon="10.7659032"><ele>622.0</ele><time>2026-05-03T09:55:19.595Z</time></trkpt><trkpt lat="44.4082843" lon="10.7660442"><ele>620.8000000000001</ele><time>2026-05-03T09:55:20.582Z</time></trkpt><trkpt lat="44.4082998" lon="10.7661862"><ele>619.6</ele><time>2026-05-03T09:55:21.588Z</time></trkpt><trkpt lat="44.4083206" lon="10.7663364"><ele>618.4000000000001</ele><time>2026-05-03T09:55:22.592Z</time></trkpt><trkpt lat="44.4083517" lon="10.7664833"><ele>617.2</ele><time>2026-05-03T09:55:23.585Z</time></trkpt><trkpt lat="44.4083917" lon="10.7666197"><ele>616.0</ele><time>2026-05-03T09:55:24.582Z</time></trkpt><trkpt lat="44.4084368" lon="10.7667447"><ele>616.0</ele><time>2026-05-03T09:55:25.58Z</time></trkpt><trkpt lat="44.4085031" lon="10.7668525"><ele>616.0</ele><time>2026-05-03T09:55:26.579Z</time></trkpt><trkpt lat="44.4085829" lon="10.766952"><ele>616.0</ele><time>2026-05-03T09:55:27.586Z</time></trkpt><trkpt lat="44.4086784" lon="10.7670574"><ele>616.0</ele><time>2026-05-03T09:55:28.579Z</time></trkpt><trkpt lat="44.4087847" lon="10.767167"><ele>616.0</ele><time>2026-05-03T09:55:29.584Z</time></trkpt><trkpt lat="44.4088924" lon="10.7672924"><ele>616.0</ele><time>2026-05-03T09:55:30.582Z</time></trkpt><trkpt lat="44.4089955" lon="10.7674294"><ele>616.0</ele><time>2026-05-03T09:55:31.581Z</time></trkpt><trkpt lat="44.4090955" lon="10.7675717"><ele>616.0</ele><time>2026-05-03T09:55:32.583Z</time></trkpt><trkpt lat="44.409199" lon="10.7677069"><ele>616.0</ele><time>2026-05-03T09:55:33.57Z</time></trkpt><trkpt lat="44.4093089" lon="10.7678242"><ele>616.0</ele><time>2026-05-03T09:55:34.569Z</time></trkpt><trkpt lat="44.4094241" lon="10.7679168"><ele>616.0</ele><time>2026-05-03T09:55:35.569Z</time></trkpt><trkpt lat="44.4095334" lon="10.7679905"><ele>616.0</ele><time>2026-05-03T09:55:36.575Z</time></trkpt><trkpt lat="44.4096485" lon="10.7680825"><ele>615.5</ele><time>2026-05-03T09:55:37.573Z</time></trkpt><trkpt lat="44.4097722" lon="10.7681844"><ele>615.0</ele><time>2026-05-03T09:55:38.589Z</time></trkpt><trkpt lat="44.4099003" lon="10.7682781"><ele>614.5</ele><time>2026-05-03T09:55:39.578Z</time></trkpt><trkpt lat="44.4100146" lon="10.7683812"><ele>614.0</ele><time>2026-05-03T09:55:40.576Z</time></trkpt><trkpt lat="44.41014" lon="10.7684841"><ele>615.5</ele><time>2026-05-03T09:55:41.573Z</time></trkpt><trkpt lat="44.4102594" lon="10.7686035"><ele>617.0</ele><time>2026-05-03T09:55:42.577Z</time></trkpt><trkpt lat="44.4103819" lon="10.7687132"><ele>618.5</ele><time>2026-05-03T09:55:43.581Z</time></trkpt><trkpt lat="44.4104836" lon="10.7688227"><ele>620.0</ele><time>2026-05-03T09:55:44.582Z</time></trkpt><trkpt lat="44.410573" lon="10.7689143"><ele>620.0</ele><time>2026-05-03T09:55:45.577Z</time></trkpt><trkpt lat="44.4106547" lon="10.7690141"><ele>620.0</ele><time>2026-05-03T09:55:46.589Z</time></trkpt><trkpt lat="44.4107291" lon="10.7691302"><ele>620.0</ele><time>2026-05-03T09:55:47.583Z</time></trkpt><trkpt lat="44.4107898" lon="10.7692645"><ele>620.0</ele><time>2026-05-03T09:55:48.589Z</time></trkpt><trkpt lat="44.4108443" lon="10.7694058"><ele>620.0</ele><time>2026-05-03T09:55:49.586Z</time></trkpt><trkpt lat="44.4108997" lon="10.769558"><ele>623.25</ele><time>2026-05-03T09:55:50.582Z</time></trkpt><trkpt lat="44.4109611" lon="10.7697071"><ele>626.5</ele><time>2026-05-03T09:55:51.583Z</time></trkpt><trkpt lat="44.4110233" lon="10.7698565"><ele>629.75</ele><time>2026-05-03T09:55:52.586Z</time></trkpt><trkpt lat="44.4110783" lon="10.7700138"><ele>633.0</ele><time>2026-05-03T09:55:53.582Z</time></trkpt><trkpt lat="44.4111263" lon="10.7701835"><ele>632.5</ele><time>2026-05-03T09:55:54.591Z</time></trkpt><trkpt lat="44.4111742" lon="10.7703509"><ele>632.0</ele><time>2026-05-03T09:55:55.581Z</time></trkpt><trkpt lat="44.4112308" lon="10.7705108"><ele>631.5</ele><time>2026-05-03T09:55:56.58Z</time></trkpt><trkpt lat="44.4113002" lon="10.7706631"><ele>631.0</ele><time>2026-05-03T09:55:57.582Z</time></trkpt><trkpt lat="44.4113786" lon="10.7708086"><ele>631.0</ele><time>2026-05-03T09:55:58.582Z</time></trkpt><trkpt lat="44.4114592" lon="10.7709409"><ele>631.0</ele><time>2026-05-03T09:55:59.586Z</time></trkpt><trkpt lat="44.4115443" lon="10.7710611"><ele>631.0</ele><time>2026-05-03T09:56:00.58Z</time></trkpt><trkpt lat="44.4116362" lon="10.7711758"><ele>631.0</ele><time>2026-05-03T09:56:01.579Z</time></trkpt><trkpt lat="44.4117251" lon="10.7713047"><ele>634.5</ele><time>2026-05-03T09:56:02.578Z</time></trkpt><trkpt lat="44.4117998" lon="10.7714545"><ele>638.0</ele><time>2026-05-03T09:56:03.581Z</time></trkpt><trkpt lat="44.4118667" lon="10.7716227"><ele>641.5</ele><time>2026-05-03T09:56:04.582Z</time></trkpt><trkpt lat="44.4119343" lon="10.771789"><ele>645.0</ele><time>2026-05-03T09:56:05.584Z</time></trkpt><trkpt lat="44.4120034" lon="10.7719543"><ele>646.0</ele><time>2026-05-03T09:56:06.581Z</time></trkpt><trkpt lat="44.4120722" lon="10.7721095"><ele>647.0</ele><time>2026-05-03T09:56:07.579Z</time></trkpt><trkpt lat="44.4121336" lon="10.772252"><ele>648.0</ele><time>2026-05-03T09:56:08.587Z</time></trkpt><trkpt lat="44.4122013" lon="10.7723929"><ele>649.0</ele><time>2026-05-03T09:56:09.596Z</time></trkpt><trkpt lat="44.4122653" lon="10.772535"><ele>649.0</ele><time>2026-05-03T09:56:10.586Z</time></trkpt><trkpt lat="44.4123183" lon="10.7726833"><ele>649.0</ele><time>2026-05-03T09:56:11.599Z</time></trkpt><trkpt lat="44.4123464" lon="10.7728448"><ele>649.0</ele><time>2026-05-03T09:56:12.584Z</time></trkpt><trkpt lat="44.4123712" lon="10.7730165"><ele>649.0</ele><time>2026-05-03T09:56:13.586Z</time></trkpt><trkpt lat="44.4124064" lon="10.7731898"><ele>650.75</ele><time>2026-05-03T09:56:14.587Z</time></trkpt><trkpt lat="44.4124462" lon="10.7733618"><ele>652.5</ele><time>2026-05-03T09:56:15.589Z</time></trkpt><trkpt lat="44.41249" lon="10.773523"><ele>654.25</ele><time>2026-05-03T09:56:16.598Z</time></trkpt><trkpt lat="44.4125312" lon="10.7736611"><ele>656.0</ele><time>2026-05-03T09:56:17.588Z</time></trkpt><trkpt lat="44.4125586" lon="10.7737931"><ele>657.8</ele><time>2026-05-03T09:56:18.585Z</time></trkpt><trkpt lat="44.4125713" lon="10.7739184"><ele>659.5999999999999</ele><time>2026-05-03T09:56:19.592Z</time></trkpt><trkpt lat="44.4125672" lon="10.7740258"><ele>661.4</ele><time>2026-05-03T09:56:20.584Z</time></trkpt><trkpt lat="44.4126501" lon="10.7741536"><ele>663.2</ele><time>2026-05-03T09:56:22.591Z</time></trkpt><trkpt lat="44.4127431" lon="10.7741561"><ele>665.0</ele><time>2026-05-03T09:56:23.59Z</time></trkpt><trkpt lat="44.4128562" lon="10.774168"><ele>665.0</ele><time>2026-05-03T09:56:24.587Z</time></trkpt><trkpt lat="44.4129607" lon="10.7742112"><ele>665.0</ele><time>2026-05-03T09:56:25.587Z</time></trkpt><trkpt lat="44.413056" lon="10.7742899"><ele>665.0</ele><time>2026-05-03T09:56:26.581Z</time></trkpt><trkpt lat="44.4131334" lon="10.7743705"><ele>665.0</ele><time>2026-05-03T09:56:27.59Z</time></trkpt><trkpt lat="44.4131848" lon="10.7744339"><ele>665.0</ele><time>2026-05-03T09:56:28.589Z</time></trkpt><trkpt lat="44.4132484" lon="10.7745496"><ele>664.5</ele><time>2026-05-03T09:56:38.593Z</time></trkpt><trkpt lat="44.4132727" lon="10.7746375"><ele>664.0</ele><time>2026-05-03T09:56:39.584Z</time></trkpt><trkpt lat="44.4132843" lon="10.774745"><ele>663.5</ele><time>2026-05-03T09:56:40.598Z</time></trkpt><trkpt lat="44.4132872" lon="10.7748613"><ele>663.0</ele><time>2026-05-03T09:56:41.588Z</time></trkpt><trkpt lat="44.4132813" lon="10.774978"><ele>662.5</ele><time>2026-05-03T09:56:42.587Z</time></trkpt><trkpt lat="44.4132713" lon="10.7751006"><ele>662.0</ele><time>2026-05-03T09:56:43.581Z</time></trkpt><trkpt lat="44.4132593" lon="10.7752343"><ele>662.0</ele><time>2026-05-03T09:56:44.587Z</time></trkpt><trkpt lat="44.4132459" lon="10.7753788"><ele>662.0</ele><time>2026-05-03T09:56:45.588Z</time></trkpt><trkpt lat="44.413236" lon="10.7755269"><ele>662.0</ele><time>2026-05-03T09:56:46.594Z</time></trkpt><trkpt lat="44.4132275" lon="10.7756812"><ele>662.0</ele><time>2026-05-03T09:56:47.588Z</time></trkpt><trkpt lat="44.4132179" lon="10.7758426"><ele>662.0</ele><time>2026-05-03T09:56:48.588Z</time></trkpt><trkpt lat="44.4132079" lon="10.7760204"><ele>662.75</ele><time>2026-05-03T09:56:49.583Z</time></trkpt><trkpt lat="44.4131994" lon="10.776196"><ele>663.5</ele><time>2026-05-03T09:56:50.583Z</time></trkpt><trkpt lat="44.4131915" lon="10.7763758"><ele>664.25</ele><time>2026-05-03T09:56:51.589Z</time></trkpt><trkpt lat="44.4131884" lon="10.7765579"><ele>665.0</ele><time>2026-05-03T09:56:52.59Z</time></trkpt><trkpt lat="44.4131818" lon="10.7767231"><ele>663.8</ele><time>2026-05-03T09:56:53.585Z</time></trkpt><trkpt lat="44.4131674" lon="10.7768719"><ele>662.6</ele><time>2026-05-03T09:56:54.585Z</time></trkpt><trkpt lat="44.413137" lon="10.7770084"><ele>661.4000000000001</ele><time>2026-05-03T09:56:55.591Z</time></trkpt><trkpt lat="44.4130842" lon="10.7771225"><ele>660.2</ele><time>2026-05-03T09:56:56.588Z</time></trkpt><trkpt lat="44.4129986" lon="10.7772173"><ele>659.0</ele><time>2026-05-03T09:56:57.582Z</time></trkpt><trkpt lat="44.4128926" lon="10.7773078"><ele>663.0</ele><time>2026-05-03T09:56:58.576Z</time></trkpt><trkpt lat="44.412776" lon="10.7773985"><ele>667.0</ele><time>2026-05-03T09:56:59.58Z</time></trkpt><trkpt lat="44.4126646" lon="10.7774843"><ele>671.0</ele><time>2026-05-03T09:57:00.579Z</time></trkpt><trkpt lat="44.4125583" lon="10.7775522"><ele>675.0</ele><time>2026-05-03T09:57:01.592Z</time></trkpt><trkpt lat="44.4124498" lon="10.7775895"><ele>675.0</ele><time>2026-05-03T09:57:02.585Z</time></trkpt><trkpt lat="44.4123455" lon="10.7775937"><ele>675.0</ele><time>2026-05-03T09:57:03.589Z</time></trkpt><trkpt lat="44.4122377" lon="10.7775604"><ele>675.0</ele><time>2026-05-03T09:57:04.582Z</time></trkpt><trkpt lat="44.412132" lon="10.7775045"><ele>675.0</ele><time>2026-05-03T09:57:05.585Z</time></trkpt><trkpt lat="44.4120309" lon="10.7774601"><ele>675.0</ele><time>2026-05-03T09:57:06.584Z</time></trkpt><trkpt lat="44.4119328" lon="10.7774594"><ele>675.4</ele><time>2026-05-03T09:57:07.592Z</time></trkpt><trkpt lat="44.4118446" lon="10.7775199"><ele>675.8</ele><time>2026-05-03T09:57:08.591Z</time></trkpt><trkpt lat="44.4117685" lon="10.7776249"><ele>676.2</ele><time>2026-05-03T09:57:09.59Z</time></trkpt><trkpt lat="44.4116976" lon="10.7777489"><ele>676.6</ele><time>2026-05-03T09:57:10.586Z</time></trkpt><trkpt lat="44.4116184" lon="10.7778907"><ele>677.0</ele><time>2026-05-03T09:57:11.595Z</time></trkpt><trkpt lat="44.4115556" lon="10.7780493"><ele>677.0</ele><time>2026-05-03T09:57:12.588Z</time></trkpt><trkpt lat="44.4114901" lon="10.778207"><ele>677.0</ele><time>2026-05-03T09:57:13.588Z</time></trkpt><trkpt lat="44.4114272" lon="10.7783417"><ele>677.0</ele><time>2026-05-03T09:57:14.591Z</time></trkpt><trkpt lat="44.411354" lon="10.7784386"><ele>677.0</ele><time>2026-05-03T09:57:15.586Z</time></trkpt><trkpt lat="44.4112661" lon="10.7785188"><ele>678.4000000000001</ele><time>2026-05-03T09:57:16.595Z</time></trkpt><trkpt lat="44.4111728" lon="10.7785928"><ele>679.8000000000001</ele><time>2026-05-03T09:57:17.588Z</time></trkpt><trkpt lat="44.4110833" lon="10.7786715"><ele>681.2</ele><time>2026-05-03T09:57:18.598Z</time></trkpt><trkpt lat="44.4110095" lon="10.7787755"><ele>682.6</ele><time>2026-05-03T09:57:19.595Z</time></trkpt><trkpt lat="44.4109607" lon="10.7789076"><ele>684.0</ele><time>2026-05-03T09:57:20.593Z</time></trkpt><trkpt lat="44.410907" lon="10.7790289"><ele>684.0</ele><time>2026-05-03T09:57:21.59Z</time></trkpt><trkpt lat="44.4108413" lon="10.7791222"><ele>684.0</ele><time>2026-05-03T09:57:22.6Z</time></trkpt><trkpt lat="44.4107547" lon="10.7791822"><ele>684.0</ele><time>2026-05-03T09:57:23.597Z</time></trkpt><trkpt lat="44.4106451" lon="10.7792133"><ele>684.0</ele><time>2026-05-03T09:57:24.591Z</time></trkpt><trkpt lat="44.4105333" lon="10.7792564"><ele>684.0</ele><time>2026-05-03T09:57:25.596Z</time></trkpt><trkpt lat="44.4104398" lon="10.7793251"><ele>687.0</ele><time>2026-05-03T09:57:26.596Z</time></trkpt><trkpt lat="44.4103735" lon="10.7794168"><ele>690.0</ele><time>2026-05-03T09:57:27.596Z</time></trkpt><trkpt lat="44.4103318" lon="10.7795468"><ele>693.0</ele><time>2026-05-03T09:57:28.603Z</time></trkpt><trkpt lat="44.4103014" lon="10.7796964"><ele>696.0</ele><time>2026-05-03T09:57:29.588Z</time></trkpt><trkpt lat="44.4102747" lon="10.7798607"><ele>699.0</ele><time>2026-05-03T09:57:30.597Z</time></trkpt><trkpt lat="44.4102478" lon="10.7800424"><ele>698.5</ele><time>2026-05-03T09:57:31.592Z</time></trkpt><trkpt lat="44.4102156" lon="10.7802313"><ele>698.0</ele><time>2026-05-03T09:57:32.59Z</time></trkpt><trkpt lat="44.4101873" lon="10.7804175"><ele>697.5</ele><time>2026-05-03T09:57:33.588Z</time></trkpt><trkpt lat="44.4101549" lon="10.7805927"><ele>697.0</ele><time>2026-05-03T09:57:34.592Z</time></trkpt><trkpt lat="44.4101185" lon="10.7807468"><ele>697.0</ele><time>2026-05-03T09:57:35.589Z</time></trkpt><trkpt lat="44.4100719" lon="10.7808749"><ele>697.0</ele><time>2026-05-03T09:57:36.595Z</time></trkpt><trkpt lat="44.41" lon="10.7809755"><ele>697.0</ele><time>2026-05-03T09:57:37.585Z</time></trkpt><trkpt lat="44.4099035" lon="10.7810335"><ele>697.0</ele><time>2026-05-03T09:57:38.579Z</time></trkpt><trkpt lat="44.4098043" lon="10.7810865"><ele>697.0</ele><time>2026-05-03T09:57:39.585Z</time></trkpt><trkpt lat="44.4097359" lon="10.7811705"><ele>696.4000000000001</ele><time>2026-05-03T09:57:40.584Z</time></trkpt><trkpt lat="44.4097013" lon="10.7812836"><ele>695.8000000000001</ele><time>2026-05-03T09:57:41.583Z</time></trkpt><trkpt lat="44.4096943" lon="10.7814127"><ele>695.2</ele><time>2026-05-03T09:57:42.581Z</time></trkpt><trkpt lat="44.4097068" lon="10.7815624"><ele>694.6</ele><time>2026-05-03T09:57:43.574Z</time></trkpt><trkpt lat="44.4097333" lon="10.7817139"><ele>694.0</ele><time>2026-05-03T09:57:44.561Z</time></trkpt><trkpt lat="44.4097666" lon="10.7818674"><ele>695.5</ele><time>2026-05-03T09:57:45.577Z</time></trkpt><trkpt lat="44.4098251" lon="10.7820209"><ele>697.0</ele><time>2026-05-03T09:57:46.583Z</time></trkpt><trkpt lat="44.4099039" lon="10.782173"><ele>698.5</ele><time>2026-05-03T09:57:47.576Z</time></trkpt><trkpt lat="44.4099933" lon="10.7823239"><ele>700.0</ele><time>2026-05-03T09:57:48.583Z</time></trkpt><trkpt lat="44.4100843" lon="10.7824736"><ele>700.0</ele><time>2026-05-03T09:57:49.577Z</time></trkpt><trkpt lat="44.4101679" lon="10.7826151"><ele>700.0</ele><time>2026-05-03T09:57:50.582Z</time></trkpt><trkpt lat="44.4102446" lon="10.7827469"><ele>700.0</ele><time>2026-05-03T09:57:51.587Z</time></trkpt><trkpt lat="44.4103152" lon="10.7828583"><ele>700.0</ele><time>2026-05-03T09:57:52.578Z</time></trkpt><trkpt lat="44.4103858" lon="10.7829413"><ele>702.6</ele><time>2026-05-03T09:57:53.585Z</time></trkpt><trkpt lat="44.4104753" lon="10.7829673"><ele>705.2</ele><time>2026-05-03T09:57:54.582Z</time></trkpt><trkpt lat="44.4105806" lon="10.7829308"><ele>707.8</ele><time>2026-05-03T09:57:55.579Z</time></trkpt><trkpt lat="44.4106788" lon="10.7829209"><ele>710.4</ele><time>2026-05-03T09:57:56.568Z</time></trkpt><trkpt lat="44.4107673" lon="10.7829453"><ele>713.0</ele><time>2026-05-03T09:57:57.57Z</time></trkpt><trkpt lat="44.4108533" lon="10.7829965"><ele>713.2</ele><time>2026-05-03T09:57:58.576Z</time></trkpt><trkpt lat="44.4109388" lon="10.7830622"><ele>713.4</ele><time>2026-05-03T09:57:59.569Z</time></trkpt><trkpt lat="44.4110253" lon="10.7831285"><ele>713.6</ele><time>2026-05-03T09:58:00.575Z</time></trkpt><trkpt lat="44.4111212" lon="10.7831769"><ele>713.8000000000001</ele><time>2026-05-03T09:58:01.578Z</time></trkpt><trkpt lat="44.4112183" lon="10.7832036"><ele>714.0</ele><time>2026-05-03T09:58:02.576Z</time></trkpt><trkpt lat="44.4112879" lon="10.7832369"><ele>713.1666666666666</ele><time>2026-05-03T09:58:03.587Z</time></trkpt><trkpt lat="44.4113315" lon="10.783315"><ele>712.3333333333334</ele><time>2026-05-03T09:58:04.58Z</time></trkpt><trkpt lat="44.41134" lon="10.7834177"><ele>711.5</ele><time>2026-05-03T09:58:05.581Z</time></trkpt><trkpt lat="44.4113036" lon="10.7835331"><ele>710.6666666666667</ele><time>2026-05-03T09:58:06.57Z</time></trkpt><trkpt lat="44.4112671" lon="10.7836559"><ele>709.8333333333334</ele><time>2026-05-03T09:58:07.568Z</time></trkpt><trkpt lat="44.4112554" lon="10.7837938"><ele>709.0</ele><time>2026-05-03T09:58:08.569Z</time></trkpt><trkpt lat="44.4112634" lon="10.7839198"><ele>711.8000000000001</ele><time>2026-05-03T09:58:09.583Z</time></trkpt><trkpt lat="44.4112912" lon="10.7840322"><ele>714.6</ele><time>2026-05-03T09:58:10.588Z</time></trkpt><trkpt lat="44.4113498" lon="10.7841255"><ele>717.4</ele><time>2026-05-03T09:58:11.592Z</time></trkpt><trkpt lat="44.4114535" lon="10.78416"><ele>720.2</ele><time>2026-05-03T09:58:12.579Z</time></trkpt><trkpt lat="44.4115734" lon="10.7841448"><ele>723.0</ele><time>2026-05-03T09:58:13.588Z</time></trkpt><trkpt lat="44.4116747" lon="10.7841414"><ele>723.0</ele><time>2026-05-03T09:58:14.586Z</time></trkpt><trkpt lat="44.4117262" lon="10.7842392"><ele>723.0</ele><time>2026-05-03T09:58:16.593Z</time></trkpt><trkpt lat="44.4116715" lon="10.7843148"><ele>723.0</ele><time>2026-05-03T09:58:17.586Z</time></trkpt><trkpt lat="44.4115929" lon="10.7843874"><ele>723.0</ele><time>2026-05-03T09:58:18.587Z</time></trkpt><trkpt lat="44.4115055" lon="10.7844687"><ele>723.0</ele><time>2026-05-03T09:58:19.582Z</time></trkpt><trkpt lat="44.4114382" lon="10.7845849"><ele>724.5</ele><time>2026-05-03T09:58:20.587Z</time></trkpt><trkpt lat="44.4113867" lon="10.7847476"><ele>726.0</ele><time>2026-05-03T09:58:21.57Z</time></trkpt><trkpt lat="44.4113367" lon="10.7849131"><ele>727.5</ele><time>2026-05-03T09:58:22.572Z</time></trkpt><trkpt lat="44.4112887" lon="10.7850737"><ele>729.0</ele><time>2026-05-03T09:58:23.576Z</time></trkpt><trkpt lat="44.4112363" lon="10.7852351"><ele>731.25</ele><time>2026-05-03T09:58:24.58Z</time></trkpt><trkpt lat="44.411174" lon="10.7853913"><ele>733.5</ele><time>2026-05-03T09:58:25.575Z</time></trkpt><trkpt lat="44.4110989" lon="10.7855502"><ele>735.75</ele><time>2026-05-03T09:58:26.583Z</time></trkpt><trkpt lat="44.4110159" lon="10.7857074"><ele>738.0</ele><time>2026-05-03T09:58:27.574Z</time></trkpt><trkpt lat="44.4109371" lon="10.7858661"><ele>738.25</ele><time>2026-05-03T09:58:28.572Z</time></trkpt><trkpt lat="44.4108642" lon="10.7860244"><ele>738.5</ele><time>2026-05-03T09:58:29.576Z</time></trkpt><trkpt lat="44.4108164" lon="10.7861929"><ele>738.75</ele><time>2026-05-03T09:58:30.572Z</time></trkpt><trkpt lat="44.4107819" lon="10.786368"><ele>739.0</ele><time>2026-05-03T09:58:31.578Z</time></trkpt><trkpt lat="44.4107481" lon="10.7865332"><ele>739.0</ele><time>2026-05-03T09:58:32.591Z</time></trkpt><trkpt lat="44.4107012" lon="10.7866701"><ele>739.0</ele><time>2026-05-03T09:58:33.586Z</time></trkpt><trkpt lat="44.4106399" lon="10.7867569"><ele>739.0</ele><time>2026-05-03T09:58:34.59Z</time></trkpt><trkpt lat="44.4105695" lon="10.7867962"><ele>739.0</ele><time>2026-05-03T09:58:35.579Z</time></trkpt><trkpt lat="44.4104988" lon="10.786805"><ele>739.0</ele><time>2026-05-03T09:58:36.587Z</time></trkpt><trkpt lat="44.410424" lon="10.7868046"><ele>739.0</ele><time>2026-05-03T09:58:38.579Z</time></trkpt><trkpt lat="44.4103442" lon="10.7866808"><ele>741.0</ele><time>2026-05-03T09:58:41.594Z</time></trkpt><trkpt lat="44.4103139" lon="10.7865918"><ele>743.0</ele><time>2026-05-03T09:58:42.59Z</time></trkpt><trkpt lat="44.4102774" lon="10.786488"><ele>745.0</ele><time>2026-05-03T09:58:43.585Z</time></trkpt><trkpt lat="44.4102248" lon="10.7863851"><ele>747.0</ele><time>2026-05-03T09:58:44.603Z</time></trkpt><trkpt lat="44.4101609" lon="10.7862869"><ele>749.0</ele><time>2026-05-03T09:58:45.587Z</time></trkpt><trkpt lat="44.4100824" lon="10.7862014"><ele>751.0</ele><time>2026-05-03T09:58:46.59Z</time></trkpt><trkpt lat="44.4099869" lon="10.7861414"><ele>751.0</ele><time>2026-05-03T09:58:47.585Z</time></trkpt><trkpt lat="44.4098817" lon="10.786105"><ele>751.0</ele><time>2026-05-03T09:58:48.588Z</time></trkpt><trkpt lat="44.4097656" lon="10.7861021"><ele>751.0</ele><time>2026-05-03T09:58:49.584Z</time></trkpt><trkpt lat="44.4096348" lon="10.7860911"><ele>751.0</ele><time>2026-05-03T09:58:50.587Z</time></trkpt><trkpt lat="44.4094986" lon="10.7860695"><ele>753.5</ele><time>2026-05-03T09:58:51.573Z</time></trkpt><trkpt lat="44.4093709" lon="10.7860424"><ele>756.0</ele><time>2026-05-03T09:58:52.58Z</time></trkpt><trkpt lat="44.4092438" lon="10.7860297"><ele>758.5</ele><time>2026-05-03T09:58:53.577Z</time></trkpt><trkpt lat="44.4091196" lon="10.7860529"><ele>761.0</ele><time>2026-05-03T09:58:54.589Z</time></trkpt><trkpt lat="44.4089941" lon="10.786139"><ele>761.0</ele><time>2026-05-03T09:58:55.575Z</time></trkpt><trkpt lat="44.4088647" lon="10.7862383"><ele>761.0</ele><time>2026-05-03T09:58:56.577Z</time></trkpt><trkpt lat="44.4087252" lon="10.7863033"><ele>761.0</ele><time>2026-05-03T09:58:57.584Z</time></trkpt><trkpt lat="44.4085871" lon="10.7863475"><ele>761.0</ele><time>2026-05-03T09:58:58.57Z</time></trkpt><trkpt lat="44.4084477" lon="10.7863837"><ele>762.3333333333333</ele><time>2026-05-03T09:58:59.573Z</time></trkpt><trkpt lat="44.408299" lon="10.786403"><ele>763.6666666666666</ele><time>2026-05-03T09:59:00.572Z</time></trkpt><trkpt lat="44.4081265" lon="10.7863999"><ele>765.0</ele><time>2026-05-03T09:59:01.566Z</time></trkpt><trkpt lat="44.407964" lon="10.7863968"><ele>766.0</ele><time>2026-05-03T09:59:02.556Z</time></trkpt><trkpt lat="44.4077914" lon="10.7863912"><ele>767.0</ele><time>2026-05-03T09:59:03.562Z</time></trkpt><trkpt lat="44.4076224" lon="10.7863782"><ele>768.0</ele><time>2026-05-03T09:59:04.572Z</time></trkpt><trkpt lat="44.4074601" lon="10.7863341"><ele>768.0</ele><time>2026-05-03T09:59:05.57Z</time></trkpt><trkpt lat="44.407313" lon="10.7862761"><ele>768.0</ele><time>2026-05-03T09:59:06.57Z</time></trkpt><trkpt lat="44.4071819" lon="10.786217"><ele>768.0</ele><time>2026-05-03T09:59:07.576Z</time></trkpt><trkpt lat="44.4070576" lon="10.7861572"><ele>768.0</ele><time>2026-05-03T09:59:08.572Z</time></trkpt><trkpt lat="44.4069427" lon="10.7861209"><ele>768.5</ele><time>2026-05-03T09:59:09.573Z</time></trkpt><trkpt lat="44.4068251" lon="10.7861121"><ele>769.0</ele><time>2026-05-03T09:59:10.589Z</time></trkpt><trkpt lat="44.4066951" lon="10.7861436"><ele>769.5</ele><time>2026-05-03T09:59:11.586Z</time></trkpt><trkpt lat="44.4065709" lon="10.7862068"><ele>770.0</ele><time>2026-05-03T09:59:12.579Z</time></trkpt><trkpt lat="44.4064588" lon="10.786282"><ele>770.0</ele><time>2026-05-03T09:59:13.593Z</time></trkpt><trkpt lat="44.4063517" lon="10.7863283"><ele>770.0</ele><time>2026-05-03T09:59:14.598Z</time></trkpt><trkpt lat="44.4062413" lon="10.7863226"><ele>770.0</ele><time>2026-05-03T09:59:15.606Z</time></trkpt><trkpt lat="44.4061289" lon="10.7862795"><ele>770.0</ele><time>2026-05-03T09:59:16.61Z</time></trkpt><trkpt lat="44.4060213" lon="10.7862017"><ele>769.25</ele><time>2026-05-03T09:59:17.599Z</time></trkpt><trkpt lat="44.4059239" lon="10.7860877"><ele>768.5</ele><time>2026-05-03T09:59:18.603Z</time></trkpt><trkpt lat="44.4058394" lon="10.7859295"><ele>767.75</ele><time>2026-05-03T09:59:19.588Z</time></trkpt><trkpt lat="44.4057475" lon="10.7857638"><ele>767.0</ele><time>2026-05-03T09:59:20.588Z</time></trkpt><trkpt lat="44.4056522" lon="10.7855911"><ele>767.0</ele><time>2026-05-03T09:59:21.589Z</time></trkpt><trkpt lat="44.405558" lon="10.7854194"><ele>767.0</ele><time>2026-05-03T09:59:22.591Z</time></trkpt><trkpt lat="44.4054935" lon="10.7852602"><ele>767.0</ele><time>2026-05-03T09:59:23.585Z</time></trkpt><trkpt lat="44.4054611" lon="10.7850984"><ele>767.0</ele><time>2026-05-03T09:59:24.595Z</time></trkpt><trkpt lat="44.405425" lon="10.7849538"><ele>770.0</ele><time>2026-05-03T09:59:25.592Z</time></trkpt><trkpt lat="44.4053459" lon="10.7848345"><ele>773.0</ele><time>2026-05-03T09:59:26.591Z</time></trkpt><trkpt lat="44.4052533" lon="10.7847282"><ele>776.0</ele><time>2026-05-03T09:59:27.597Z</time></trkpt><trkpt lat="44.4051436" lon="10.7846219"><ele>779.0</ele><time>2026-05-03T09:59:28.586Z</time></trkpt><trkpt lat="44.4050385" lon="10.7845272"><ele>779.0</ele><time>2026-05-03T09:59:29.602Z</time></trkpt><trkpt lat="44.4049509" lon="10.7844282"><ele>779.0</ele><time>2026-05-03T09:59:30.589Z</time></trkpt><trkpt lat="44.4048813" lon="10.7843087"><ele>779.0</ele><time>2026-05-03T09:59:31.596Z</time></trkpt><trkpt lat="44.4048376" lon="10.7841478"><ele>779.0</ele><time>2026-05-03T09:59:32.595Z</time></trkpt><trkpt lat="44.4048093" lon="10.7839619"><ele>778.5</ele><time>2026-05-03T09:59:33.596Z</time></trkpt><trkpt lat="44.4047829" lon="10.7837677"><ele>778.0</ele><time>2026-05-03T09:59:34.587Z</time></trkpt><trkpt lat="44.40477" lon="10.7835647"><ele>777.5</ele><time>2026-05-03T09:59:35.598Z</time></trkpt><trkpt lat="44.4047696" lon="10.7833524"><ele>777.0</ele><time>2026-05-03T09:59:36.596Z</time></trkpt><trkpt lat="44.4047727" lon="10.7831398"><ele>777.0</ele><time>2026-05-03T09:59:37.596Z</time></trkpt><trkpt lat="44.4047793" lon="10.7829444"><ele>777.0</ele><time>2026-05-03T09:59:38.6Z</time></trkpt><trkpt lat="44.4047805" lon="10.7827364"><ele>777.0</ele><time>2026-05-03T09:59:39.594Z</time></trkpt><trkpt lat="44.4047754" lon="10.7825362"><ele>777.0</ele><time>2026-05-03T09:59:40.592Z</time></trkpt><trkpt lat="44.4047391" lon="10.7823288"><ele>778.25</ele><time>2026-05-03T09:59:41.601Z</time></trkpt><trkpt lat="44.4047035" lon="10.7821294"><ele>779.5</ele><time>2026-05-03T09:59:42.593Z</time></trkpt><trkpt lat="44.4046808" lon="10.7819296"><ele>780.75</ele><time>2026-05-03T09:59:43.589Z</time></trkpt><trkpt lat="44.4046936" lon="10.7817337"><ele>782.0</ele><time>2026-05-03T09:59:44.598Z</time></trkpt><trkpt lat="44.4047391" lon="10.7815394"><ele>782.75</ele><time>2026-05-03T09:59:45.6Z</time></trkpt><trkpt lat="44.4047852" lon="10.7813628"><ele>783.5</ele><time>2026-05-03T09:59:46.612Z</time></trkpt><trkpt lat="44.4048349" lon="10.7811898"><ele>784.25</ele><time>2026-05-03T09:59:47.604Z</time></trkpt><trkpt lat="44.4048645" lon="10.7810427"><ele>785.0</ele><time>2026-05-03T09:59:48.605Z</time></trkpt><trkpt lat="44.4048755" lon="10.7808922"><ele>786.0</ele><time>2026-05-03T09:59:49.587Z</time></trkpt><trkpt lat="44.4048595" lon="10.7807244"><ele>787.0</ele><time>2026-05-03T09:59:50.593Z</time></trkpt><trkpt lat="44.404828" lon="10.7805207"><ele>788.0</ele><time>2026-05-03T09:59:51.587Z</time></trkpt><trkpt lat="44.4048187" lon="10.7803427"><ele>789.0</ele><time>2026-05-03T09:59:52.59Z</time></trkpt><trkpt lat="44.4048396" lon="10.7801739"><ele>790.0</ele><time>2026-05-03T09:59:53.591Z</time></trkpt><trkpt lat="44.4048739" lon="10.7800138"><ele>791.0</ele><time>2026-05-03T09:59:54.583Z</time></trkpt><trkpt lat="44.4049132" lon="10.7798516"><ele>792.0</ele><time>2026-05-03T09:59:55.583Z</time></trkpt><trkpt lat="44.4049607" lon="10.7796887"><ele>793.0</ele><time>2026-05-03T09:59:56.581Z</time></trkpt><trkpt lat="44.4050144" lon="10.7795434"><ele>793.0</ele><time>2026-05-03T09:59:57.578Z</time></trkpt><trkpt lat="44.4050553" lon="10.7794018"><ele>793.0</ele><time>2026-05-03T09:59:58.582Z</time></trkpt><trkpt lat="44.4050773" lon="10.7792508"><ele>793.0</ele><time>2026-05-03T09:59:59.586Z</time></trkpt><trkpt lat="44.4050612" lon="10.7791023"><ele>793.0</ele><time>2026-05-03T10:00:00.588Z</time></trkpt><trkpt lat="44.4050003" lon="10.7789626"><ele>793.0</ele><time>2026-05-03T10:00:01.591Z</time></trkpt><trkpt lat="44.404897" lon="10.7788374"><ele>793.5</ele><time>2026-05-03T10:00:02.582Z</time></trkpt><trkpt lat="44.40477" lon="10.778727"><ele>794.0</ele><time>2026-05-03T10:00:03.582Z</time></trkpt><trkpt lat="44.4046452" lon="10.778613"><ele>794.5</ele><time>2026-05-03T10:00:04.577Z</time></trkpt><trkpt lat="44.4045399" lon="10.7785018"><ele>795.0</ele><time>2026-05-03T10:00:05.584Z</time></trkpt><trkpt lat="44.4044833" lon="10.7784079"><ele>795.2</ele><time>2026-05-03T10:00:06.584Z</time></trkpt><trkpt lat="44.4044656" lon="10.7782543"><ele>795.4</ele><time>2026-05-03T10:00:08.58Z</time></trkpt><trkpt lat="44.4045728" lon="10.7781444"><ele>795.5999999999999</ele><time>2026-05-03T10:00:10.575Z</time></trkpt><trkpt lat="44.4046569" lon="10.7781043"><ele>795.8</ele><time>2026-05-03T10:00:11.578Z</time></trkpt><trkpt lat="44.4047301" lon="10.7780408"><ele>796.0</ele><time>2026-05-03T10:00:12.581Z</time></trkpt><trkpt lat="44.4048052" lon="10.7779745"><ele>796.0</ele><time>2026-05-03T10:00:13.581Z</time></trkpt><trkpt lat="44.4048818" lon="10.7779052"><ele>796.0</ele><time>2026-05-03T10:00:14.585Z</time></trkpt><trkpt lat="44.4049587" lon="10.777829"><ele>796.0</ele><time>2026-05-03T10:00:15.583Z</time></trkpt><trkpt lat="44.4050309" lon="10.7777361"><ele>796.0</ele><time>2026-05-03T10:00:16.586Z</time></trkpt><trkpt lat="44.4050953" lon="10.7776208"><ele>796.0</ele><time>2026-05-03T10:00:17.602Z</time></trkpt><trkpt lat="44.4051479" lon="10.777489"><ele>795.8</ele><time>2026-05-03T10:00:18.598Z</time></trkpt><trkpt lat="44.4052005" lon="10.7773525"><ele>795.5999999999999</ele><time>2026-05-03T10:00:19.586Z</time></trkpt><trkpt lat="44.4052545" lon="10.7772174"><ele>795.4</ele><time>2026-05-03T10:00:20.595Z</time></trkpt><trkpt lat="44.4053062" lon="10.7770829"><ele>795.2</ele><time>2026-05-03T10:00:21.584Z</time></trkpt><trkpt lat="44.4053578" lon="10.7769472"><ele>795.0</ele><time>2026-05-03T10:00:22.59Z</time></trkpt><trkpt lat="44.4054081" lon="10.7768163"><ele>794.0</ele><time>2026-05-03T10:00:23.591Z</time></trkpt><trkpt lat="44.405457" lon="10.7766786"><ele>793.0</ele><time>2026-05-03T10:00:24.591Z</time></trkpt><trkpt lat="44.40551" lon="10.7765459"><ele>792.0</ele><time>2026-05-03T10:00:25.596Z</time></trkpt><trkpt lat="44.4055675" lon="10.7764308"><ele>791.0</ele><time>2026-05-03T10:00:26.592Z</time></trkpt><trkpt lat="44.4056285" lon="10.7763354"><ele>790.0</ele><time>2026-05-03T10:00:27.592Z</time></trkpt><trkpt lat="44.4056834" lon="10.7762569"><ele>789.9999999999999</ele><time>2026-05-03T10:00:28.591Z</time></trkpt><trkpt lat="44.4057548" lon="10.7761505"><ele>790.0</ele><time>2026-05-03T10:00:30.591Z</time></trkpt><trkpt lat="44.4058319" lon="10.7761387"><ele>790.0</ele><time>2026-05-03T10:00:32.581Z</time></trkpt><trkpt lat="44.4059459" lon="10.7761594"><ele>790.0</ele><time>2026-05-03T10:00:34.59Z</time></trkpt><trkpt lat="44.406004" lon="10.7761985"><ele>789.9999999999999</ele><time>2026-05-03T10:00:35.585Z</time></trkpt><trkpt lat="44.4060639" lon="10.7762636"><ele>790.0</ele><time>2026-05-03T10:00:36.586Z</time></trkpt><trkpt lat="44.4061409" lon="10.7763191"><ele>789.9999999999999</ele><time>2026-05-03T10:00:37.588Z</time></trkpt><trkpt lat="44.4062208" lon="10.7763596"><ele>790.0</ele><time>2026-05-03T10:00:38.588Z</time></trkpt><trkpt lat="44.4062965" lon="10.7763888"><ele>790.0</ele><time>2026-05-03T10:00:39.599Z</time></trkpt><trkpt lat="44.4063741" lon="10.7764143"><ele>790.0</ele><time>2026-05-03T10:00:40.595Z</time></trkpt><trkpt lat="44.4064467" lon="10.7764346"><ele>789.9999999999999</ele><time>2026-05-03T10:00:41.593Z</time></trkpt><trkpt lat="44.4065111" lon="10.7764558"><ele>790.0</ele><time>2026-05-03T10:00:42.589Z</time></trkpt><trkpt lat="44.4066098" lon="10.7765342"><ele>789.1666666666666</ele><time>2026-05-03T10:00:44.593Z</time></trkpt><trkpt lat="44.4066652" lon="10.7766955"><ele>788.3333333333333</ele><time>2026-05-03T10:00:46.588Z</time></trkpt><trkpt lat="44.4066933" lon="10.7767871"><ele>787.5</ele><time>2026-05-03T10:00:47.599Z</time></trkpt><trkpt lat="44.4067238" lon="10.7768809"><ele>786.6666666666667</ele><time>2026-05-03T10:00:48.588Z</time></trkpt><trkpt lat="44.4067571" lon="10.7769797"><ele>785.8333333333334</ele><time>2026-05-03T10:00:49.596Z</time></trkpt><trkpt lat="44.4067863" lon="10.7770761"><ele>785.0</ele><time>2026-05-03T10:00:50.593Z</time></trkpt><trkpt lat="44.4068097" lon="10.7771625"><ele>784.2</ele><time>2026-05-03T10:00:51.586Z</time></trkpt><trkpt lat="44.406862" lon="10.7772894"><ele>783.4</ele><time>2026-05-03T10:00:53.589Z</time></trkpt><trkpt lat="44.4069908" lon="10.7773262"><ele>782.5999999999999</ele><time>2026-05-03T10:00:55.577Z</time></trkpt><trkpt lat="44.4070768" lon="10.777333"><ele>781.8</ele><time>2026-05-03T10:00:56.58Z</time></trkpt><trkpt lat="44.4071663" lon="10.7773312"><ele>781.0</ele><time>2026-05-03T10:00:57.579Z</time></trkpt><trkpt lat="44.4072631" lon="10.7773345"><ele>779.8</ele><time>2026-05-03T10:00:58.586Z</time></trkpt><trkpt lat="44.4073601" lon="10.7773228"><ele>778.5999999999999</ele><time>2026-05-03T10:00:59.576Z</time></trkpt><trkpt lat="44.407457" lon="10.7773058"><ele>777.4</ele><time>2026-05-03T10:01:00.573Z</time></trkpt><trkpt lat="44.4075526" lon="10.7772795"><ele>776.2</ele><time>2026-05-03T10:01:01.578Z</time></trkpt><trkpt lat="44.4076386" lon="10.7772634"><ele>775.0</ele><time>2026-05-03T10:01:02.566Z</time></trkpt><trkpt lat="44.4077125" lon="10.7772455"><ele>774.9999999999999</ele><time>2026-05-03T10:01:03.575Z</time></trkpt><trkpt lat="44.4078293" lon="10.7772008"><ele>775.0</ele><time>2026-05-03T10:01:05.574Z</time></trkpt><trkpt lat="44.4078902" lon="10.7771742"><ele>775.0</ele><time>2026-05-03T10:01:06.583Z</time></trkpt><trkpt lat="44.4079564" lon="10.7771481"><ele>775.0</ele><time>2026-05-03T10:01:07.582Z</time></trkpt><trkpt lat="44.4080195" lon="10.7771229"><ele>774.9999999999999</ele><time>2026-05-03T10:01:08.582Z</time></trkpt><trkpt lat="44.4081056" lon="10.7770763"><ele>775.0</ele><time>2026-05-03T10:01:10.573Z</time></trkpt><trkpt lat="44.4081718" lon="10.7770049"><ele>774.6666666666666</ele><time>2026-05-03T10:01:12.585Z</time></trkpt><trkpt lat="44.408246" lon="10.7768783"><ele>774.3333333333333</ele><time>2026-05-03T10:01:14.579Z</time></trkpt><trkpt lat="44.4082942" lon="10.776802"><ele>774.0</ele><time>2026-05-03T10:01:15.58Z</time></trkpt><trkpt lat="44.4083274" lon="10.7767121"><ele>773.6666666666667</ele><time>2026-05-03T10:01:16.575Z</time></trkpt><trkpt lat="44.4083581" lon="10.7766148"><ele>773.3333333333334</ele><time>2026-05-03T10:01:17.579Z</time></trkpt><trkpt lat="44.4083803" lon="10.7765192"><ele>773.0</ele><time>2026-05-03T10:01:18.596Z</time></trkpt><trkpt lat="44.408391" lon="10.7764088"><ele>773.0000000000001</ele><time>2026-05-03T10:01:19.597Z</time></trkpt><trkpt lat="44.4083902" lon="10.7763084"><ele>773.0</ele><time>2026-05-03T10:01:20.585Z</time></trkpt><trkpt lat="44.4083977" lon="10.7762032"><ele>773.0</ele><time>2026-05-03T10:01:21.578Z</time></trkpt><trkpt lat="44.4084059" lon="10.7760933"><ele>773.0</ele><time>2026-05-03T10:01:22.586Z</time></trkpt><trkpt lat="44.4084191" lon="10.7759894"><ele>773.0000000000001</ele><time>2026-05-03T10:01:23.583Z</time></trkpt><trkpt lat="44.4084285" lon="10.7758944"><ele>773.0</ele><time>2026-05-03T10:01:24.581Z</time></trkpt><trkpt lat="44.4084292" lon="10.7757413"><ele>771.8</ele><time>2026-05-03T10:01:26.59Z</time></trkpt><trkpt lat="44.4084025" lon="10.7756125"><ele>770.5999999999999</ele><time>2026-05-03T10:01:28.58Z</time></trkpt><trkpt lat="44.4084289" lon="10.7754873"><ele>769.4000000000001</ele><time>2026-05-03T10:01:30.569Z</time></trkpt><trkpt lat="44.4085077" lon="10.7753994"><ele>768.2</ele><time>2026-05-03T10:01:32.578Z</time></trkpt><trkpt lat="44.4086218" lon="10.7753857"><ele>767.0</ele><time>2026-05-03T10:01:34.585Z</time></trkpt><trkpt lat="44.4086971" lon="10.775454"><ele>767.0</ele><time>2026-05-03T10:01:36.581Z</time></trkpt><trkpt lat="44.4087698" lon="10.775548"><ele>767.0</ele><time>2026-05-03T10:01:38.578Z</time></trkpt><trkpt lat="44.4088403" lon="10.7756334"><ele>767.0</ele><time>2026-05-03T10:01:40.584Z</time></trkpt><trkpt lat="44.4089289" lon="10.7756012"><ele>767.0</ele><time>2026-05-03T10:01:42.578Z</time></trkpt><trkpt lat="44.4089751" lon="10.7755408"><ele>767.0</ele><time>2026-05-03T10:01:43.581Z</time></trkpt><trkpt lat="44.4090179" lon="10.775471"><ele>767.0</ele><time>2026-05-03T10:01:44.586Z</time></trkpt><trkpt lat="44.4090672" lon="10.7754092"><ele>762.6</ele><time>2026-05-03T10:01:45.584Z</time></trkpt><trkpt lat="44.4091274" lon="10.7753658"><ele>758.2</ele><time>2026-05-03T10:01:46.595Z</time></trkpt><trkpt lat="44.4091933" lon="10.775338"><ele>753.8</ele><time>2026-05-03T10:01:47.589Z</time></trkpt><trkpt lat="44.4092873" lon="10.7752522"><ele>749.4</ele><time>2026-05-03T10:01:49.601Z</time></trkpt><trkpt lat="44.4093051" lon="10.7751108"><ele>745.0</ele><time>2026-05-03T10:01:51.591Z</time></trkpt><trkpt lat="44.4093042" lon="10.7749302"><ele>743.4</ele><time>2026-05-03T10:01:53.584Z</time></trkpt><trkpt lat="44.4092977" lon="10.7748307"><ele>741.8</ele><time>2026-05-03T10:01:54.584Z</time></trkpt><trkpt lat="44.4092845" lon="10.7746549"><ele>740.2</ele><time>2026-05-03T10:01:56.582Z</time></trkpt><trkpt lat="44.4092689" lon="10.7745603"><ele>738.6</ele><time>2026-05-03T10:01:57.587Z</time></trkpt><trkpt lat="44.4092392" lon="10.7743962"><ele>737.0</ele><time>2026-05-03T10:01:59.579Z</time></trkpt><trkpt lat="44.4092378" lon="10.7742498"><ele>735.0</ele><time>2026-05-03T10:02:01.588Z</time></trkpt><trkpt lat="44.4092945" lon="10.7741661"><ele>733.0</ele><time>2026-05-03T10:02:03.583Z</time></trkpt><trkpt lat="44.409328" lon="10.7740684"><ele>731.0</ele><time>2026-05-03T10:02:05.577Z</time></trkpt><trkpt lat="44.4093094" lon="10.7739422"><ele>729.0</ele><time>2026-05-03T10:02:07.59Z</time></trkpt><trkpt lat="44.4092777" lon="10.7737809"><ele>727.0</ele><time>2026-05-03T10:02:09.588Z</time></trkpt><trkpt lat="44.40927" lon="10.7736023"><ele>723.5</ele><time>2026-05-03T10:02:11.587Z</time></trkpt><trkpt lat="44.4092932" lon="10.7734414"><ele>720.0</ele><time>2026-05-03T10:02:13.592Z</time></trkpt><trkpt lat="44.4092756" lon="10.7732771"><ele>716.5</ele><time>2026-05-03T10:02:15.589Z</time></trkpt><trkpt lat="44.4092558" lon="10.7731091"><ele>713.0</ele><time>2026-05-03T10:02:17.587Z</time></trkpt><trkpt lat="44.4092587" lon="10.7729397"><ele>713.0</ele><time>2026-05-03T10:02:19.591Z</time></trkpt><trkpt lat="44.4092392" lon="10.7727999"><ele>713.0</ele><time>2026-05-03T10:02:21.585Z</time></trkpt><trkpt lat="44.4091772" lon="10.7726846"><ele>713.0</ele><time>2026-05-03T10:02:23.59Z</time></trkpt><trkpt lat="44.4091046" lon="10.7725887"><ele>713.0</ele><time>2026-05-03T10:02:25.584Z</time></trkpt><trkpt lat="44.4090501" lon="10.7724693"><ele>713.0</ele><time>2026-05-03T10:02:27.583Z</time></trkpt><trkpt lat="44.4090019" lon="10.7723153"><ele>711.2857142857142</ele><time>2026-05-03T10:02:29.582Z</time></trkpt><trkpt lat="44.4089645" lon="10.7722434"><ele>709.5714285714287</ele><time>2026-05-03T10:02:30.577Z</time></trkpt><trkpt lat="44.4089184" lon="10.772177"><ele>707.8571428571429</ele><time>2026-05-03T10:02:31.582Z</time></trkpt><trkpt lat="44.4088683" lon="10.7721161"><ele>706.1428571428571</ele><time>2026-05-03T10:02:32.587Z</time></trkpt><trkpt lat="44.4088181" lon="10.7720577"><ele>704.4285714285713</ele><time>2026-05-03T10:02:33.574Z</time></trkpt><trkpt lat="44.4087496" lon="10.7719743"><ele>702.7142857142858</ele><time>2026-05-03T10:02:35.579Z</time></trkpt><trkpt lat="44.4086843" lon="10.7719638"><ele>701.0</ele><time>2026-05-03T10:02:37.573Z</time></trkpt><trkpt lat="44.4086141" lon="10.7720141"><ele>699.4</ele><time>2026-05-03T10:02:39.577Z</time></trkpt><trkpt lat="44.4085032" lon="10.7720533"><ele>697.8</ele><time>2026-05-03T10:02:41.57Z</time></trkpt><trkpt lat="44.4084399" lon="10.7720643"><ele>696.1999999999999</ele><time>2026-05-03T10:02:42.576Z</time></trkpt><trkpt lat="44.4083295" lon="10.7720854"><ele>694.5999999999999</ele><time>2026-05-03T10:02:44.572Z</time></trkpt><trkpt lat="44.4082256" lon="10.7721361"><ele>693.0</ele><time>2026-05-03T10:02:46.572Z</time></trkpt><trkpt lat="44.4081243" lon="10.7721815"><ele>693.0</ele><time>2026-05-03T10:02:48.575Z</time></trkpt><trkpt lat="44.408035" lon="10.7721726"><ele>693.0</ele><time>2026-05-03T10:02:50.572Z</time></trkpt><trkpt lat="44.4079717" lon="10.7720924"><ele>693.0</ele><time>2026-05-03T10:02:52.579Z</time></trkpt><trkpt lat="44.4079427" lon="10.7719402"><ele>693.0</ele><time>2026-05-03T10:02:54.578Z</time></trkpt><trkpt lat="44.4079193" lon="10.7717788"><ele>693.0</ele><time>2026-05-03T10:02:56.577Z</time></trkpt><trkpt lat="44.4078974" lon="10.7716895"><ele>691.8571428571429</ele><time>2026-05-03T10:02:57.579Z</time></trkpt><trkpt lat="44.4078799" lon="10.7715948"><ele>690.7142857142858</ele><time>2026-05-03T10:02:58.583Z</time></trkpt><trkpt lat="44.4078592" lon="10.7714994"><ele>689.5714285714286</ele><time>2026-05-03T10:02:59.572Z</time></trkpt><trkpt lat="44.4078367" lon="10.7714079"><ele>688.4285714285714</ele><time>2026-05-03T10:03:00.585Z</time></trkpt><trkpt lat="44.4078162" lon="10.7713069"><ele>687.2857142857143</ele><time>2026-05-03T10:03:01.584Z</time></trkpt><trkpt lat="44.4077951" lon="10.7712085"><ele>686.1428571428571</ele><time>2026-05-03T10:03:02.584Z</time></trkpt><trkpt lat="44.4077611" lon="10.771094"><ele>685.0</ele><time>2026-05-03T10:03:04.578Z</time></trkpt><trkpt lat="44.4076941" lon="10.7709868"><ele>683.4</ele><time>2026-05-03T10:03:07.578Z</time></trkpt><trkpt lat="44.4076396" lon="10.7708158"><ele>681.8</ele><time>2026-05-03T10:03:09.575Z</time></trkpt><trkpt lat="44.4076152" lon="10.7706974"><ele>680.2</ele><time>2026-05-03T10:03:10.574Z</time></trkpt><trkpt lat="44.4075827" lon="10.7705816"><ele>678.6</ele><time>2026-05-03T10:03:11.573Z</time></trkpt><trkpt lat="44.40754" lon="10.7704633"><ele>677.0</ele><time>2026-05-03T10:03:12.575Z</time></trkpt><trkpt lat="44.4074922" lon="10.7703474"><ele>676.9999999999999</ele><time>2026-05-03T10:03:13.571Z</time></trkpt><trkpt lat="44.4074434" lon="10.7702394"><ele>677.0</ele><time>2026-05-03T10:03:14.576Z</time></trkpt><trkpt lat="44.4073844" lon="10.7701544"><ele>677.0</ele><time>2026-05-03T10:03:15.578Z</time></trkpt><trkpt lat="44.4073311" lon="10.7700847"><ele>677.0</ele><time>2026-05-03T10:03:16.581Z</time></trkpt><trkpt lat="44.4072834" lon="10.7700207"><ele>677.0</ele><time>2026-05-03T10:03:17.584Z</time></trkpt><trkpt lat="44.4072391" lon="10.7699519"><ele>676.9999999999999</ele><time>2026-05-03T10:03:18.583Z</time></trkpt><trkpt lat="44.4071929" lon="10.7698836"><ele>677.0</ele><time>2026-05-03T10:03:19.589Z</time></trkpt><trkpt lat="44.40715" lon="10.7698132"><ele>678.5</ele><time>2026-05-03T10:03:20.583Z</time></trkpt><trkpt lat="44.4071009" lon="10.7697452"><ele>680.0</ele><time>2026-05-03T10:03:21.591Z</time></trkpt><trkpt lat="44.4070414" lon="10.7696809"><ele>681.5</ele><time>2026-05-03T10:03:22.595Z</time></trkpt><trkpt lat="44.4069743" lon="10.7696232"><ele>683.0</ele><time>2026-05-03T10:03:23.583Z</time></trkpt><trkpt lat="44.4069053" lon="10.769574"><ele>684.5</ele><time>2026-05-03T10:03:24.585Z</time></trkpt><trkpt lat="44.4068261" lon="10.7695245"><ele>686.0</ele><time>2026-05-03T10:03:26.59Z</time></trkpt><trkpt lat="44.4067589" lon="10.7695454"><ele>686.0</ele><time>2026-05-03T10:04:55.595Z</time></trkpt><trkpt lat="44.4066328" lon="10.7695989"><ele>686.0</ele><time>2026-05-03T10:04:57.579Z</time></trkpt><trkpt lat="44.4065571" lon="10.7696269"><ele>686.0</ele><time>2026-05-03T10:04:58.574Z</time></trkpt><trkpt lat="44.4064796" lon="10.7696469"><ele>686.0</ele><time>2026-05-03T10:04:59.574Z</time></trkpt><trkpt lat="44.4064051" lon="10.7696708"><ele>686.0</ele><time>2026-05-03T10:05:00.567Z</time></trkpt><trkpt lat="44.4063306" lon="10.7697073"><ele>686.0</ele><time>2026-05-03T10:05:01.566Z</time></trkpt><trkpt lat="44.4062544" lon="10.7697323"><ele>685.8333333333333</ele><time>2026-05-03T10:05:02.565Z</time></trkpt><trkpt lat="44.4061754" lon="10.7697561"><ele>685.6666666666666</ele><time>2026-05-03T10:05:03.56Z</time></trkpt><trkpt lat="44.4060956" lon="10.7697805"><ele>685.5</ele><time>2026-05-03T10:05:04.55Z</time></trkpt><trkpt lat="44.4060131" lon="10.7698065"><ele>685.3333333333334</ele><time>2026-05-03T10:05:05.567Z</time></trkpt><trkpt lat="44.4059464" lon="10.7698215"><ele>685.1666666666667</ele><time>2026-05-03T10:05:06.569Z</time></trkpt><trkpt lat="44.4058412" lon="10.7698536"><ele>685.0</ele><time>2026-05-03T10:05:08.565Z</time></trkpt><trkpt lat="44.4057611" lon="10.7699041"><ele>685.0</ele><time>2026-05-03T10:05:10.552Z</time></trkpt><trkpt lat="44.4056769" lon="10.7698628"><ele>685.0</ele><time>2026-05-03T10:05:13.559Z</time></trkpt><trkpt lat="44.4056125" lon="10.7697802"><ele>685.0</ele><time>2026-05-03T10:05:15.562Z</time></trkpt><trkpt lat="44.4055486" lon="10.76973"><ele>685.0</ele><time>2026-05-03T10:05:16.566Z</time></trkpt><trkpt lat="44.4054605" lon="10.7696929"><ele>685.0</ele><time>2026-05-03T10:05:17.557Z</time></trkpt><trkpt lat="44.4053802" lon="10.7696694"><ele>685.0</ele><time>2026-05-03T10:05:18.557Z</time></trkpt><trkpt lat="44.4052977" lon="10.7696584"><ele>684.0</ele><time>2026-05-03T10:05:19.556Z</time></trkpt><trkpt lat="44.4052204" lon="10.7696484"><ele>683.0</ele><time>2026-05-03T10:05:20.563Z</time></trkpt><trkpt lat="44.4051004" lon="10.7696496"><ele>682.0</ele><time>2026-05-03T10:05:22.562Z</time></trkpt><trkpt lat="44.4049973" lon="10.7695895"><ele>681.0</ele><time>2026-05-03T10:05:24.553Z</time></trkpt><trkpt lat="44.4049506" lon="10.7695274"><ele>680.0</ele><time>2026-05-03T10:05:25.555Z</time></trkpt><trkpt lat="44.4049052" lon="10.7694564"><ele>679.0</ele><time>2026-05-03T10:05:26.572Z</time></trkpt><trkpt lat="44.4048204" lon="10.769335"><ele>679.0</ele><time>2026-05-03T10:05:28.573Z</time></trkpt><trkpt lat="44.404768" lon="10.7692724"><ele>679.0</ele><time>2026-05-03T10:05:29.562Z</time></trkpt><trkpt lat="44.4047131" lon="10.7692199"><ele>679.0</ele><time>2026-05-03T10:05:30.568Z</time></trkpt><trkpt lat="44.4046596" lon="10.7691656"><ele>679.0</ele><time>2026-05-03T10:05:31.566Z</time></trkpt><trkpt lat="44.404611" lon="10.7691003"><ele>679.0</ele><time>2026-05-03T10:05:32.563Z</time></trkpt><trkpt lat="44.4045685" lon="10.7690097"><ele>679.0</ele><time>2026-05-03T10:05:33.569Z</time></trkpt><trkpt lat="44.4045242" lon="10.7689187"><ele>679.0</ele><time>2026-05-03T10:05:34.57Z</time></trkpt><trkpt lat="44.4044777" lon="10.7688502"><ele>681.6</ele><time>2026-05-03T10:05:35.572Z</time></trkpt><trkpt lat="44.4044288" lon="10.7687947"><ele>684.2</ele><time>2026-05-03T10:05:36.576Z</time></trkpt><trkpt lat="44.4043153" lon="10.7687249"><ele>686.8000000000001</ele><time>2026-05-03T10:05:38.571Z</time></trkpt><trkpt lat="44.4042376" lon="10.7686763"><ele>689.4000000000001</ele><time>2026-05-03T10:05:39.57Z</time></trkpt><trkpt lat="44.4041505" lon="10.7686213"><ele>692.0</ele><time>2026-05-03T10:05:40.571Z</time></trkpt><trkpt lat="44.4040629" lon="10.7685648"><ele>690.1666666666666</ele><time>2026-05-03T10:05:41.568Z</time></trkpt><trkpt lat="44.4039792" lon="10.7684962"><ele>688.3333333333333</ele><time>2026-05-03T10:05:42.57Z</time></trkpt><trkpt lat="44.4039064" lon="10.7684216"><ele>686.5</ele><time>2026-05-03T10:05:43.567Z</time></trkpt><trkpt lat="44.4038502" lon="10.768364"><ele>684.6666666666666</ele><time>2026-05-03T10:05:44.568Z</time></trkpt><trkpt lat="44.4037678" lon="10.7683165"><ele>682.8333333333334</ele><time>2026-05-03T10:05:46.578Z</time></trkpt><trkpt lat="44.4036855" lon="10.768331"><ele>681.0</ele><time>2026-05-03T10:05:48.578Z</time></trkpt><trkpt lat="44.4035651" lon="10.768342"><ele>681.0</ele><time>2026-05-03T10:05:50.572Z</time></trkpt><trkpt lat="44.4034915" lon="10.7683388"><ele>681.0</ele><time>2026-05-03T10:05:51.57Z</time></trkpt><trkpt lat="44.4034197" lon="10.7683341"><ele>681.0</ele><time>2026-05-03T10:05:52.568Z</time></trkpt><trkpt lat="44.4033504" lon="10.7683287"><ele>681.0</ele><time>2026-05-03T10:05:53.567Z</time></trkpt><trkpt lat="44.4032841" lon="10.7683197"><ele>681.0</ele><time>2026-05-03T10:05:54.568Z</time></trkpt><trkpt lat="44.4031722" lon="10.7682968"><ele>681.0</ele><time>2026-05-03T10:05:56.567Z</time></trkpt><trkpt lat="44.4030711" lon="10.7682895"><ele>681.0</ele><time>2026-05-03T10:05:58.564Z</time></trkpt><trkpt lat="44.403005" lon="10.7682902"><ele>681.0</ele><time>2026-05-03T10:06:00.562Z</time></trkpt></trkseg><trkseg><trkpt lat="44.4029814" lon="10.7681836"><ele>692.0</ele><time>2026-05-03T10:28:00.572Z</time></trkpt><trkpt lat="44.4030157" lon="10.7681092"><ele>692.0</ele><time>2026-05-03T10:28:03.563Z</time></trkpt><trkpt lat="44.4030127" lon="10.7679791"><ele>692.0</ele><time>2026-05-03T10:28:05.548Z</time></trkpt><trkpt lat="44.4029661" lon="10.7678882"><ele>692.0</ele><time>2026-05-03T10:28:07.557Z</time></trkpt><trkpt lat="44.402892" lon="10.7679254"><ele>692.0</ele><time>2026-05-03T10:29:45.55Z</time></trkpt><trkpt lat="44.4028233" lon="10.7679292"><ele>692.0</ele><time>2026-05-03T10:29:48.552Z</time></trkpt><trkpt lat="44.4027452" lon="10.7679038"><ele>692.0</ele><time>2026-05-03T10:31:17.545Z</time></trkpt><trkpt lat="44.4026643" lon="10.7679235"><ele>692.0</ele><time>2026-05-03T10:32:19.544Z</time></trkpt><trkpt lat="44.4025947" lon="10.7679579"><ele>692.0</ele><time>2026-05-03T10:32:21.542Z</time></trkpt><trkpt lat="44.4024972" lon="10.7679942"><ele>692.0</ele><time>2026-05-03T10:32:23.542Z</time></trkpt><trkpt lat="44.4024029" lon="10.7680042"><ele>692.0</ele><time>2026-05-03T10:32:25.55Z</time></trkpt><trkpt lat="44.4023234" lon="10.7679898"><ele>692.0</ele><time>2026-05-03T10:32:27.549Z</time></trkpt><trkpt lat="44.402248" lon="10.7679231"><ele>692.0</ele><time>2026-05-03T10:32:29.548Z</time></trkpt><trkpt lat="44.4021716" lon="10.7678335"><ele>692.0</ele><time>2026-05-03T10:32:31.557Z</time></trkpt><trkpt lat="44.4021095" lon="10.767752"><ele>692.0</ele><time>2026-05-03T10:32:33.55Z</time></trkpt><trkpt lat="44.4020592" lon="10.7676518"><ele>692.0</ele><time>2026-05-03T10:32:35.547Z</time></trkpt><trkpt lat="44.402012" lon="10.7675228"><ele>692.0</ele><time>2026-05-03T10:32:37.548Z</time></trkpt><trkpt lat="44.4019697" lon="10.7673857"><ele>695.25</ele><time>2026-05-03T10:32:39.548Z</time></trkpt><trkpt lat="44.4019425" lon="10.7672334"><ele>698.5</ele><time>2026-05-03T10:32:41.548Z</time></trkpt><trkpt lat="44.4019458" lon="10.7670776"><ele>701.75</ele><time>2026-05-03T10:32:43.554Z</time></trkpt><trkpt lat="44.401959" lon="10.7669017"><ele>705.0</ele><time>2026-05-03T10:32:45.565Z</time></trkpt><trkpt lat="44.4019511" lon="10.7667262"><ele>707.2</ele><time>2026-05-03T10:32:47.562Z</time></trkpt><trkpt lat="44.401941" lon="10.7666353"><ele>709.4</ele><time>2026-05-03T10:32:48.553Z</time></trkpt><trkpt lat="44.4019266" lon="10.7664633"><ele>711.5999999999999</ele><time>2026-05-03T10:32:50.55Z</time></trkpt><trkpt lat="44.4019506" lon="10.7662836"><ele>713.8</ele><time>2026-05-03T10:32:52.552Z</time></trkpt><trkpt lat="44.4019704" lon="10.7661904"><ele>716.0</ele><time>2026-05-03T10:32:53.557Z</time></trkpt><trkpt lat="44.4019817" lon="10.7660331"><ele>717.3333333333333</ele><time>2026-05-03T10:32:55.555Z</time></trkpt><trkpt lat="44.4019325" lon="10.7658765"><ele>718.6666666666666</ele><time>2026-05-03T10:32:57.562Z</time></trkpt><trkpt lat="44.4018942" lon="10.7657552"><ele>720.0</ele><time>2026-05-03T10:32:59.557Z</time></trkpt><trkpt lat="44.4018152" lon="10.7657445"><ele>721.3333333333334</ele><time>2026-05-03T10:36:32.563Z</time></trkpt><trkpt lat="44.401744" lon="10.765761"><ele>722.6666666666667</ele><time>2026-05-03T10:36:38.562Z</time></trkpt><trkpt lat="44.4017171" lon="10.7656714"><ele>724.0</ele><time>2026-05-03T10:36:41.563Z</time></trkpt><trkpt lat="44.4017273" lon="10.765558"><ele>724.0</ele><time>2026-05-03T10:36:43.564Z</time></trkpt><trkpt lat="44.4017208" lon="10.7654181"><ele>724.0</ele><time>2026-05-03T10:36:45.564Z</time></trkpt><trkpt lat="44.4016936" lon="10.7652594"><ele>724.0</ele><time>2026-05-03T10:36:47.565Z</time></trkpt><trkpt lat="44.4016764" lon="10.7651702"><ele>724.0</ele><time>2026-05-03T10:36:48.564Z</time></trkpt><trkpt lat="44.4016584" lon="10.7650755"><ele>724.0</ele><time>2026-05-03T10:36:49.564Z</time></trkpt><trkpt lat="44.4016366" lon="10.7649804"><ele>724.0</ele><time>2026-05-03T10:36:50.56Z</time></trkpt><trkpt lat="44.40161" lon="10.764881"><ele>722.5714285714286</ele><time>2026-05-03T10:36:51.562Z</time></trkpt><trkpt lat="44.4015814" lon="10.764782"><ele>721.1428571428571</ele><time>2026-05-03T10:36:52.56Z</time></trkpt><trkpt lat="44.4015522" lon="10.7646897"><ele>719.7142857142858</ele><time>2026-05-03T10:36:53.572Z</time></trkpt><trkpt lat="44.4015256" lon="10.764607"><ele>718.2857142857142</ele><time>2026-05-03T10:36:54.551Z</time></trkpt><trkpt lat="44.4015011" lon="10.7645208"><ele>716.8571428571429</ele><time>2026-05-03T10:36:55.561Z</time></trkpt><trkpt lat="44.4014803" lon="10.7644268"><ele>715.4285714285714</ele><time>2026-05-03T10:36:56.555Z</time></trkpt><trkpt lat="44.4014646" lon="10.7643201"><ele>714.0</ele><time>2026-05-03T10:36:57.551Z</time></trkpt><trkpt lat="44.4014589" lon="10.7642043"><ele>712.1666666666666</ele><time>2026-05-03T10:36:58.555Z</time></trkpt><trkpt lat="44.4014587" lon="10.7640882"><ele>710.3333333333334</ele><time>2026-05-03T10:36:59.557Z</time></trkpt><trkpt lat="44.4014575" lon="10.7639703"><ele>708.5</ele><time>2026-05-03T10:37:00.555Z</time></trkpt><trkpt lat="44.4014475" lon="10.7638517"><ele>706.6666666666667</ele><time>2026-05-03T10:37:01.56Z</time></trkpt><trkpt lat="44.4014315" lon="10.7637306"><ele>704.8333333333334</ele><time>2026-05-03T10:37:02.554Z</time></trkpt><trkpt lat="44.401416" lon="10.7636089"><ele>703.0</ele><time>2026-05-03T10:37:03.554Z</time></trkpt><trkpt lat="44.4014008" lon="10.7634882"><ele>701.8333333333334</ele><time>2026-05-03T10:37:04.551Z</time></trkpt><trkpt lat="44.4013823" lon="10.7633714"><ele>700.6666666666667</ele><time>2026-05-03T10:37:05.554Z</time></trkpt><trkpt lat="44.4013558" lon="10.7632613"><ele>699.5</ele><time>2026-05-03T10:37:06.546Z</time></trkpt><trkpt lat="44.4013226" lon="10.7631668"><ele>698.3333333333334</ele><time>2026-05-03T10:37:07.547Z</time></trkpt><trkpt lat="44.4012692" lon="10.7630769"><ele>697.1666666666666</ele><time>2026-05-03T10:37:08.552Z</time></trkpt><trkpt lat="44.4012176" lon="10.7629962"><ele>696.0</ele><time>2026-05-03T10:37:09.552Z</time></trkpt><trkpt lat="44.4011735" lon="10.7629144"><ele>694.5</ele><time>2026-05-03T10:37:10.551Z</time></trkpt><trkpt lat="44.401136" lon="10.7628133"><ele>693.0</ele><time>2026-05-03T10:37:11.552Z</time></trkpt><trkpt lat="44.4011151" lon="10.7627015"><ele>691.5</ele><time>2026-05-03T10:37:12.551Z</time></trkpt><trkpt lat="44.4011073" lon="10.7625764"><ele>690.0</ele><time>2026-05-03T10:37:13.553Z</time></trkpt><trkpt lat="44.4010943" lon="10.7624462"><ele>688.5</ele><time>2026-05-03T10:37:14.555Z</time></trkpt><trkpt lat="44.401078" lon="10.7623136"><ele>687.0</ele><time>2026-05-03T10:37:15.554Z</time></trkpt><trkpt lat="44.4010605" lon="10.7621748"><ele>685.25</ele><time>2026-05-03T10:37:16.557Z</time></trkpt><trkpt lat="44.401042" lon="10.7620355"><ele>683.5</ele><time>2026-05-03T10:37:17.689Z</time></trkpt><trkpt lat="44.401008" lon="10.7617577"><ele>681.75</ele><time>2026-05-03T10:37:19.558Z</time></trkpt><trkpt lat="44.4009868" lon="10.7616215"><ele>680.0</ele><time>2026-05-03T10:37:20.557Z</time></trkpt><trkpt lat="44.4009628" lon="10.7614775"><ele>678.4</ele><time>2026-05-03T10:37:21.559Z</time></trkpt><trkpt lat="44.4009368" lon="10.7613376"><ele>676.8</ele><time>2026-05-03T10:37:22.564Z</time></trkpt><trkpt lat="44.4009133" lon="10.7611932"><ele>675.2</ele><time>2026-05-03T10:37:23.554Z</time></trkpt><trkpt lat="44.4008938" lon="10.7610511"><ele>673.6</ele><time>2026-05-03T10:37:24.569Z</time></trkpt><trkpt lat="44.4008844" lon="10.7609203"><ele>672.0</ele><time>2026-05-03T10:37:25.557Z</time></trkpt><trkpt lat="44.4008858" lon="10.7608113"><ele>670.8571428571429</ele><time>2026-05-03T10:37:26.549Z</time></trkpt><trkpt lat="44.4008889" lon="10.7607201"><ele>669.7142857142858</ele><time>2026-05-03T10:37:27.552Z</time></trkpt><trkpt lat="44.4008716" lon="10.7605987"><ele>668.5714285714286</ele><time>2026-05-03T10:37:29.55Z</time></trkpt><trkpt lat="44.4007969" lon="10.7605182"><ele>667.4285714285714</ele><time>2026-05-03T10:37:31.554Z</time></trkpt><trkpt lat="44.4007333" lon="10.7604811"><ele>666.2857142857143</ele><time>2026-05-03T10:37:32.552Z</time></trkpt><trkpt lat="44.4006698" lon="10.7604537"><ele>665.1428571428571</ele><time>2026-05-03T10:37:33.553Z</time></trkpt><trkpt lat="44.4006117" lon="10.760419"><ele>664.0</ele><time>2026-05-03T10:37:34.552Z</time></trkpt><trkpt lat="44.4005447" lon="10.7603039"><ele>662.2</ele><time>2026-05-03T10:37:36.553Z</time></trkpt><trkpt lat="44.4004909" lon="10.760188"><ele>660.4000000000001</ele><time>2026-05-03T10:37:38.542Z</time></trkpt><trkpt lat="44.4004272" lon="10.7601389"><ele>658.6</ele><time>2026-05-03T10:37:40.546Z</time></trkpt><trkpt lat="44.400324" lon="10.7601249"><ele>656.8</ele><time>2026-05-03T10:37:42.549Z</time></trkpt><trkpt lat="44.40024" lon="10.760111"><ele>655.0</ele><time>2026-05-03T10:37:43.55Z</time></trkpt><trkpt lat="44.4001373" lon="10.76009"><ele>655.0</ele><time>2026-05-03T10:37:44.549Z</time></trkpt><trkpt lat="44.4000284" lon="10.7600681"><ele>655.0</ele><time>2026-05-03T10:37:45.551Z</time></trkpt><trkpt lat="44.3999253" lon="10.7600475"><ele>655.0</ele><time>2026-05-03T10:37:46.55Z</time></trkpt><trkpt lat="44.3998393" lon="10.7600175"><ele>655.0</ele><time>2026-05-03T10:37:47.55Z</time></trkpt><trkpt lat="44.3997805" lon="10.7599856"><ele>655.0</ele><time>2026-05-03T10:37:48.551Z</time></trkpt><trkpt lat="44.3997454" lon="10.7598926"><ele>655.0</ele><time>2026-05-03T10:37:50.551Z</time></trkpt><trkpt lat="44.3997448" lon="10.7598003"><ele>655.0</ele><time>2026-05-03T10:37:51.544Z</time></trkpt><trkpt lat="44.3997425" lon="10.7597024"><ele>655.0</ele><time>2026-05-03T10:37:52.554Z</time></trkpt><trkpt lat="44.3997096" lon="10.7595527"><ele>655.0</ele><time>2026-05-03T10:37:54.554Z</time></trkpt><trkpt lat="44.3996456" lon="10.7594989"><ele>655.0</ele><time>2026-05-03T10:37:56.554Z</time></trkpt><trkpt lat="44.3995775" lon="10.7595067"><ele>655.0</ele><time>2026-05-03T10:40:38.566Z</time></trkpt><trkpt lat="44.399531" lon="10.7594399"><ele>655.0</ele><time>2026-05-03T10:40:47.565Z</time></trkpt><trkpt lat="44.3994739" lon="10.759372"><ele>653.0</ele><time>2026-05-03T10:40:53.57Z</time></trkpt></trkseg><trkseg><trkpt lat="44.3996063" lon="10.7595448"><ele>653.0</ele><time>2026-05-03T11:30:46.561Z</time></trkpt><trkpt lat="44.3996217" lon="10.75967"><ele>653.0</ele><time>2026-05-03T11:30:49.552Z</time></trkpt><trkpt lat="44.3996282" lon="10.7597848"><ele>653.0</ele><time>2026-05-03T11:30:51.545Z</time></trkpt><trkpt lat="44.3996924" lon="10.7598555"><ele>653.0</ele><time>2026-05-03T11:30:54.538Z</time></trkpt><trkpt lat="44.3997541" lon="10.7599263"><ele>653.0</ele><time>2026-05-03T11:30:56.544Z</time></trkpt><trkpt lat="44.3997428" lon="10.760039"><ele>653.0</ele><time>2026-05-03T11:30:58.54Z</time></trkpt><trkpt lat="44.3996852" lon="10.7601562"><ele>654.5999999999999</ele><time>2026-05-03T11:31:00.531Z</time></trkpt><trkpt lat="44.3996352" lon="10.7602173"><ele>656.1999999999999</ele><time>2026-05-03T11:31:01.542Z</time></trkpt><trkpt lat="44.3995678" lon="10.7602827"><ele>657.8</ele><time>2026-05-03T11:31:02.528Z</time></trkpt><trkpt lat="44.3994829" lon="10.7603413"><ele>659.4</ele><time>2026-05-03T11:31:03.538Z</time></trkpt><trkpt lat="44.3993735" lon="10.7603928"><ele>661.0</ele><time>2026-05-03T11:31:04.533Z</time></trkpt><trkpt lat="44.3992649" lon="10.7604442"><ele>661.0</ele><time>2026-05-03T11:31:05.533Z</time></trkpt><trkpt lat="44.3991476" lon="10.7604977"><ele>661.0</ele><time>2026-05-03T11:31:06.545Z</time></trkpt><trkpt lat="44.399032" lon="10.7605535"><ele>661.0</ele><time>2026-05-03T11:31:07.54Z</time></trkpt><trkpt lat="44.3989126" lon="10.76061"><ele>661.0</ele><time>2026-05-03T11:31:08.533Z</time></trkpt><trkpt lat="44.3987892" lon="10.7606545"><ele>660.75</ele><time>2026-05-03T11:31:09.544Z</time></trkpt><trkpt lat="44.3986588" lon="10.7606641"><ele>660.5</ele><time>2026-05-03T11:31:10.544Z</time></trkpt><trkpt lat="44.3985291" lon="10.7606334"><ele>660.25</ele><time>2026-05-03T11:31:11.529Z</time></trkpt><trkpt lat="44.3984033" lon="10.7605932"><ele>660.0</ele><time>2026-05-03T11:31:12.533Z</time></trkpt><trkpt lat="44.398275" lon="10.7605509"><ele>660.0</ele><time>2026-05-03T11:31:13.536Z</time></trkpt><trkpt lat="44.3981474" lon="10.760533"><ele>660.0</ele><time>2026-05-03T11:31:14.543Z</time></trkpt><trkpt lat="44.3980187" lon="10.7605483"><ele>660.0</ele><time>2026-05-03T11:31:15.539Z</time></trkpt><trkpt lat="44.3978902" lon="10.7606048"><ele>660.0</ele><time>2026-05-03T11:31:16.532Z</time></trkpt><trkpt lat="44.3977714" lon="10.7606847"><ele>660.75</ele><time>2026-05-03T11:31:17.537Z</time></trkpt><trkpt lat="44.3976654" lon="10.7607533"><ele>661.5</ele><time>2026-05-03T11:31:18.526Z</time></trkpt><trkpt lat="44.3975526" lon="10.7607831"><ele>662.25</ele><time>2026-05-03T11:31:19.539Z</time></trkpt><trkpt lat="44.3974295" lon="10.7607688"><ele>663.0</ele><time>2026-05-03T11:31:20.527Z</time></trkpt><trkpt lat="44.3973065" lon="10.7607152"><ele>663.0</ele><time>2026-05-03T11:31:21.525Z</time></trkpt><trkpt lat="44.3971836" lon="10.7606582"><ele>663.0</ele><time>2026-05-03T11:31:22.523Z</time></trkpt><trkpt lat="44.3970633" lon="10.7605719"><ele>663.0</ele><time>2026-05-03T11:31:23.521Z</time></trkpt><trkpt lat="44.3969482" lon="10.7604509"><ele>663.0</ele><time>2026-05-03T11:31:24.523Z</time></trkpt><trkpt lat="44.3968432" lon="10.7602975"><ele>663.75</ele><time>2026-05-03T11:31:25.527Z</time></trkpt><trkpt lat="44.3967316" lon="10.7601667"><ele>664.5</ele><time>2026-05-03T11:31:26.521Z</time></trkpt><trkpt lat="44.3966125" lon="10.7600554"><ele>665.25</ele><time>2026-05-03T11:31:27.525Z</time></trkpt><trkpt lat="44.3964867" lon="10.7599704"><ele>666.0</ele><time>2026-05-03T11:31:28.526Z</time></trkpt><trkpt lat="44.3963509" lon="10.7599208"><ele>668.25</ele><time>2026-05-03T11:31:29.532Z</time></trkpt><trkpt lat="44.3962076" lon="10.7599178"><ele>670.5</ele><time>2026-05-03T11:31:30.528Z</time></trkpt><trkpt lat="44.3960704" lon="10.7599059"><ele>672.75</ele><time>2026-05-03T11:31:31.524Z</time></trkpt><trkpt lat="44.3959303" lon="10.7599054"><ele>675.0</ele><time>2026-05-03T11:31:32.54Z</time></trkpt><trkpt lat="44.3958069" lon="10.7599033"><ele>675.0</ele><time>2026-05-03T11:31:33.539Z</time></trkpt><trkpt lat="44.3957025" lon="10.759895"><ele>675.0</ele><time>2026-05-03T11:31:34.54Z</time></trkpt><trkpt lat="44.3955993" lon="10.7598795"><ele>675.0</ele><time>2026-05-03T11:31:35.539Z</time></trkpt><trkpt lat="44.3955172" lon="10.759861"><ele>675.0</ele><time>2026-05-03T11:31:36.543Z</time></trkpt><trkpt lat="44.3954301" lon="10.759843"><ele>675.0</ele><time>2026-05-03T11:31:38.541Z</time></trkpt><trkpt lat="44.3953694" lon="10.7598951"><ele>675.8333333333334</ele><time>2026-05-03T11:32:25.543Z</time></trkpt><trkpt lat="44.3953565" lon="10.7600366"><ele>676.6666666666666</ele><time>2026-05-03T11:32:27.54Z</time></trkpt><trkpt lat="44.3953779" lon="10.7601278"><ele>677.5</ele><time>2026-05-03T11:32:28.54Z</time></trkpt><trkpt lat="44.3954289" lon="10.7601903"><ele>678.3333333333333</ele><time>2026-05-03T11:32:29.542Z</time></trkpt><trkpt lat="44.3955038" lon="10.7602297"><ele>679.1666666666666</ele><time>2026-05-03T11:32:30.536Z</time></trkpt><trkpt lat="44.3955955" lon="10.7602752"><ele>680.0</ele><time>2026-05-03T11:32:31.547Z</time></trkpt><trkpt lat="44.3957099" lon="10.760329"><ele>681.75</ele><time>2026-05-03T11:32:32.533Z</time></trkpt><trkpt lat="44.3958248" lon="10.7603956"><ele>683.5</ele><time>2026-05-03T11:32:33.535Z</time></trkpt><trkpt lat="44.3959315" lon="10.7604745"><ele>685.25</ele><time>2026-05-03T11:32:34.537Z</time></trkpt><trkpt lat="44.3960317" lon="10.7605781"><ele>687.0</ele><time>2026-05-03T11:32:35.535Z</time></trkpt><trkpt lat="44.3961331" lon="10.7606912"><ele>687.0</ele><time>2026-05-03T11:32:36.536Z</time></trkpt><trkpt lat="44.3962441" lon="10.7607913"><ele>687.0</ele><time>2026-05-03T11:32:37.533Z</time></trkpt><trkpt lat="44.3963573" lon="10.7608792"><ele>687.0</ele><time>2026-05-03T11:32:38.536Z</time></trkpt><trkpt lat="44.3964659" lon="10.7609574"><ele>687.0</ele><time>2026-05-03T11:32:39.547Z</time></trkpt><trkpt lat="44.3965583" lon="10.7610396"><ele>687.0</ele><time>2026-05-03T11:32:40.542Z</time></trkpt><trkpt lat="44.3966052" lon="10.7611351"><ele>687.0</ele><time>2026-05-03T11:32:41.544Z</time></trkpt><trkpt lat="44.3965969" lon="10.7612495"><ele>687.0</ele><time>2026-05-03T11:32:42.542Z</time></trkpt><trkpt lat="44.3965426" lon="10.7613645"><ele>687.0</ele><time>2026-05-03T11:32:43.542Z</time></trkpt><trkpt lat="44.3964763" lon="10.7614733"><ele>687.0</ele><time>2026-05-03T11:32:44.544Z</time></trkpt><trkpt lat="44.3963914" lon="10.7615596"><ele>690.0</ele><time>2026-05-03T11:32:45.538Z</time></trkpt><trkpt lat="44.3962967" lon="10.7615851"><ele>693.0</ele><time>2026-05-03T11:32:46.538Z</time></trkpt><trkpt lat="44.3961864" lon="10.7615485"><ele>696.0</ele><time>2026-05-03T11:32:47.539Z</time></trkpt><trkpt lat="44.3960642" lon="10.7614676"><ele>699.0</ele><time>2026-05-03T11:32:48.529Z</time></trkpt><trkpt lat="44.395935" lon="10.7613906"><ele>699.0</ele><time>2026-05-03T11:32:49.538Z</time></trkpt><trkpt lat="44.3957955" lon="10.7613384"><ele>699.0</ele><time>2026-05-03T11:32:50.545Z</time></trkpt><trkpt lat="44.3956561" lon="10.7613473"><ele>699.0</ele><time>2026-05-03T11:32:51.536Z</time></trkpt><trkpt lat="44.395515" lon="10.7614146"><ele>699.0</ele><time>2026-05-03T11:32:52.538Z</time></trkpt><trkpt lat="44.3953716" lon="10.761511"><ele>701.0</ele><time>2026-05-03T11:32:53.53Z</time></trkpt><trkpt lat="44.3952261" lon="10.7615981"><ele>703.0</ele><time>2026-05-03T11:32:54.535Z</time></trkpt><trkpt lat="44.3950734" lon="10.7616486"><ele>705.0</ele><time>2026-05-03T11:32:55.536Z</time></trkpt><trkpt lat="44.3949282" lon="10.7616255"><ele>705.0</ele><time>2026-05-03T11:32:56.537Z</time></trkpt><trkpt lat="44.3948047" lon="10.7616234"><ele>705.0</ele><time>2026-05-03T11:32:57.528Z</time></trkpt><trkpt lat="44.3946975" lon="10.7616732"><ele>705.0</ele><time>2026-05-03T11:32:58.535Z</time></trkpt><trkpt lat="44.394639" lon="10.7618176"><ele>705.0</ele><time>2026-05-03T11:32:59.537Z</time></trkpt><trkpt lat="44.3945592" lon="10.7619793"><ele>708.0</ele><time>2026-05-03T11:33:00.524Z</time></trkpt><trkpt lat="44.3944848" lon="10.7621189"><ele>711.0</ele><time>2026-05-03T11:33:01.522Z</time></trkpt><trkpt lat="44.3943971" lon="10.7622366"><ele>714.0</ele><time>2026-05-03T11:33:02.523Z</time></trkpt><trkpt lat="44.3943115" lon="10.7622936"><ele>717.0</ele><time>2026-05-03T11:33:03.52Z</time></trkpt><trkpt lat="44.3942159" lon="10.7622851"><ele>720.0</ele><time>2026-05-03T11:33:04.514Z</time></trkpt><trkpt lat="44.394097" lon="10.7622246"><ele>720.0</ele><time>2026-05-03T11:33:05.513Z</time></trkpt><trkpt lat="44.3939685" lon="10.7621418"><ele>720.0</ele><time>2026-05-03T11:33:06.515Z</time></trkpt><trkpt lat="44.3938286" lon="10.7620512"><ele>720.0</ele><time>2026-05-03T11:33:07.518Z</time></trkpt><trkpt lat="44.3936691" lon="10.7619455"><ele>719.0</ele><time>2026-05-03T11:33:08.521Z</time></trkpt><trkpt lat="44.3934987" lon="10.7618335"><ele>718.0</ele><time>2026-05-03T11:33:09.521Z</time></trkpt><trkpt lat="44.3933354" lon="10.7617095"><ele>717.0</ele><time>2026-05-03T11:33:10.528Z</time></trkpt><trkpt lat="44.3932031" lon="10.7615586"><ele>717.0</ele><time>2026-05-03T11:33:11.519Z</time></trkpt><trkpt lat="44.393123" lon="10.7613947"><ele>717.0</ele><time>2026-05-03T11:33:12.511Z</time></trkpt><trkpt lat="44.3930592" lon="10.7612447"><ele>717.0</ele><time>2026-05-03T11:33:13.511Z</time></trkpt><trkpt lat="44.3929998" lon="10.7611275"><ele>717.0</ele><time>2026-05-03T11:33:14.515Z</time></trkpt><trkpt lat="44.3929307" lon="10.7610301"><ele>717.8</ele><time>2026-05-03T11:33:15.525Z</time></trkpt><trkpt lat="44.3928405" lon="10.7609603"><ele>718.6</ele><time>2026-05-03T11:33:16.522Z</time></trkpt><trkpt lat="44.3927325" lon="10.7608954"><ele>719.4</ele><time>2026-05-03T11:33:17.528Z</time></trkpt><trkpt lat="44.3926203" lon="10.760847"><ele>720.1999999999999</ele><time>2026-05-03T11:33:18.537Z</time></trkpt><trkpt lat="44.3925152" lon="10.7608268"><ele>721.0</ele><time>2026-05-03T11:33:19.539Z</time></trkpt><trkpt lat="44.3924184" lon="10.7608545"><ele>721.0</ele><time>2026-05-03T11:33:20.538Z</time></trkpt><trkpt lat="44.3923155" lon="10.7609315"><ele>721.0</ele><time>2026-05-03T11:33:21.543Z</time></trkpt><trkpt lat="44.3921984" lon="10.7610509"><ele>721.0</ele><time>2026-05-03T11:33:22.532Z</time></trkpt><trkpt lat="44.3920656" lon="10.7611699"><ele>721.0</ele><time>2026-05-03T11:33:23.53Z</time></trkpt><trkpt lat="44.3919274" lon="10.7612931"><ele>723.6666666666667</ele><time>2026-05-03T11:33:24.528Z</time></trkpt><trkpt lat="44.3917935" lon="10.7613985"><ele>726.3333333333334</ele><time>2026-05-03T11:33:25.53Z</time></trkpt><trkpt lat="44.3916487" lon="10.7614833"><ele>729.0</ele><time>2026-05-03T11:33:26.535Z</time></trkpt><trkpt lat="44.3914849" lon="10.7615445"><ele>730.3333333333334</ele><time>2026-05-03T11:33:27.53Z</time></trkpt><trkpt lat="44.3913137" lon="10.7616127"><ele>731.6666666666667</ele><time>2026-05-03T11:33:28.536Z</time></trkpt><trkpt lat="44.3911658" lon="10.7617023"><ele>733.0</ele><time>2026-05-03T11:33:29.534Z</time></trkpt><trkpt lat="44.391041" lon="10.7617864"><ele>733.0</ele><time>2026-05-03T11:33:30.535Z</time></trkpt><trkpt lat="44.3909483" lon="10.7618097"><ele>733.0</ele><time>2026-05-03T11:33:31.539Z</time></trkpt><trkpt lat="44.3908686" lon="10.7617947"><ele>733.0</ele><time>2026-05-03T11:33:32.533Z</time></trkpt><trkpt lat="44.3908099" lon="10.7616905"><ele>733.0</ele><time>2026-05-03T11:33:33.534Z</time></trkpt><trkpt lat="44.3907507" lon="10.7615509"><ele>733.0</ele><time>2026-05-03T11:33:34.534Z</time></trkpt><trkpt lat="44.390694" lon="10.7613984"><ele>733.0</ele><time>2026-05-03T11:33:35.527Z</time></trkpt><trkpt lat="44.3906259" lon="10.7612398"><ele>733.0</ele><time>2026-05-03T11:33:36.531Z</time></trkpt><trkpt lat="44.3905587" lon="10.7610829"><ele>733.0</ele><time>2026-05-03T11:33:37.534Z</time></trkpt><trkpt lat="44.3904947" lon="10.7609381"><ele>733.0</ele><time>2026-05-03T11:33:38.536Z</time></trkpt><trkpt lat="44.3904312" lon="10.7608321"><ele>735.0</ele><time>2026-05-03T11:33:39.535Z</time></trkpt><trkpt lat="44.3903574" lon="10.7607867"><ele>737.0</ele><time>2026-05-03T11:33:40.537Z</time></trkpt><trkpt lat="44.3902805" lon="10.7608077"><ele>739.0</ele><time>2026-05-03T11:33:41.549Z</time></trkpt><trkpt lat="44.390212" lon="10.7608755"><ele>741.0</ele><time>2026-05-03T11:33:42.535Z</time></trkpt><trkpt lat="44.3901411" lon="10.7609607"><ele>743.0</ele><time>2026-05-03T11:33:43.527Z</time></trkpt><trkpt lat="44.3900793" lon="10.7610266"><ele>745.0</ele><time>2026-05-03T11:33:44.535Z</time></trkpt><trkpt lat="44.3900169" lon="10.7610911"><ele>745.0</ele><time>2026-05-03T11:33:45.529Z</time></trkpt><trkpt lat="44.3899484" lon="10.7611548"><ele>745.0</ele><time>2026-05-03T11:33:46.54Z</time></trkpt><trkpt lat="44.3898824" lon="10.7612282"><ele>745.0</ele><time>2026-05-03T11:33:47.537Z</time></trkpt><trkpt lat="44.3898058" lon="10.7613072"><ele>745.0</ele><time>2026-05-03T11:33:48.536Z</time></trkpt><trkpt lat="44.3897201" lon="10.7613891"><ele>745.0</ele><time>2026-05-03T11:33:49.548Z</time></trkpt><trkpt lat="44.3896303" lon="10.7614705"><ele>746.8</ele><time>2026-05-03T11:33:50.546Z</time></trkpt><trkpt lat="44.3895432" lon="10.7615549"><ele>748.6</ele><time>2026-05-03T11:33:51.545Z</time></trkpt><trkpt lat="44.3894584" lon="10.7616494"><ele>750.4000000000001</ele><time>2026-05-03T11:33:52.545Z</time></trkpt><trkpt lat="44.3893712" lon="10.7617436"><ele>752.2</ele><time>2026-05-03T11:33:53.537Z</time></trkpt><trkpt lat="44.3892795" lon="10.7618346"><ele>754.0</ele><time>2026-05-03T11:33:54.539Z</time></trkpt><trkpt lat="44.3891818" lon="10.7619092"><ele>755.4000000000001</ele><time>2026-05-03T11:33:55.54Z</time></trkpt><trkpt lat="44.3890838" lon="10.7619797"><ele>756.8</ele><time>2026-05-03T11:33:56.537Z</time></trkpt><trkpt lat="44.3890046" lon="10.7620599"><ele>758.2</ele><time>2026-05-03T11:33:57.543Z</time></trkpt><trkpt lat="44.3889515" lon="10.7621621"><ele>759.5999999999999</ele><time>2026-05-03T11:33:58.541Z</time></trkpt><trkpt lat="44.3889067" lon="10.7622896"><ele>761.0</ele><time>2026-05-03T11:33:59.539Z</time></trkpt><trkpt lat="44.3888564" lon="10.7624012"><ele>763.1999999999999</ele><time>2026-05-03T11:34:00.54Z</time></trkpt><trkpt lat="44.3887811" lon="10.7624753"><ele>765.4</ele><time>2026-05-03T11:34:01.54Z</time></trkpt><trkpt lat="44.3886915" lon="10.7625428"><ele>767.6</ele><time>2026-05-03T11:34:02.542Z</time></trkpt><trkpt lat="44.3886212" lon="10.7626444"><ele>769.8</ele><time>2026-05-03T11:34:03.529Z</time></trkpt><trkpt lat="44.3885617" lon="10.7627679"><ele>772.0</ele><time>2026-05-03T11:34:04.534Z</time></trkpt><trkpt lat="44.3884993" lon="10.7628915"><ele>772.75</ele><time>2026-05-03T11:34:05.534Z</time></trkpt><trkpt lat="44.3884226" lon="10.7629899"><ele>773.5</ele><time>2026-05-03T11:34:06.538Z</time></trkpt><trkpt lat="44.3883196" lon="10.7630614"><ele>774.25</ele><time>2026-05-03T11:34:07.534Z</time></trkpt><trkpt lat="44.3882079" lon="10.7631192"><ele>775.0</ele><time>2026-05-03T11:34:08.543Z</time></trkpt><trkpt lat="44.3880859" lon="10.7631647"><ele>776.75</ele><time>2026-05-03T11:34:09.542Z</time></trkpt><trkpt lat="44.3879663" lon="10.7632091"><ele>778.5</ele><time>2026-05-03T11:34:10.539Z</time></trkpt><trkpt lat="44.3878508" lon="10.7632585"><ele>780.25</ele><time>2026-05-03T11:34:11.54Z</time></trkpt><trkpt lat="44.3877384" lon="10.7633116"><ele>782.0</ele><time>2026-05-03T11:34:12.552Z</time></trkpt><trkpt lat="44.3876304" lon="10.7633561"><ele>782.0</ele><time>2026-05-03T11:34:13.541Z</time></trkpt><trkpt lat="44.3875179" lon="10.7633894"><ele>782.0</ele><time>2026-05-03T11:34:14.548Z</time></trkpt><trkpt lat="44.3873989" lon="10.7633956"><ele>782.0</ele><time>2026-05-03T11:34:15.543Z</time></trkpt><trkpt lat="44.3872714" lon="10.7633927"><ele>782.0</ele><time>2026-05-03T11:34:16.54Z</time></trkpt><trkpt lat="44.3871378" lon="10.7633914"><ele>783.25</ele><time>2026-05-03T11:34:17.544Z</time></trkpt><trkpt lat="44.3870057" lon="10.7633894"><ele>784.5</ele><time>2026-05-03T11:34:18.545Z</time></trkpt><trkpt lat="44.3868838" lon="10.7633918"><ele>785.75</ele><time>2026-05-03T11:34:19.538Z</time></trkpt><trkpt lat="44.386773" lon="10.7633912"><ele>787.0</ele><time>2026-05-03T11:34:20.537Z</time></trkpt><trkpt lat="44.3866715" lon="10.7633876"><ele>786.9999999999999</ele><time>2026-05-03T11:34:21.536Z</time></trkpt><trkpt lat="44.3865855" lon="10.7633926"><ele>787.0</ele><time>2026-05-03T11:34:22.543Z</time></trkpt><trkpt lat="44.3865217" lon="10.7634048"><ele>787.0</ele><time>2026-05-03T11:34:23.546Z</time></trkpt><trkpt lat="44.3864587" lon="10.7634238"><ele>787.0</ele><time>2026-05-03T11:34:25.541Z</time></trkpt><trkpt lat="44.3864019" lon="10.7635078"><ele>786.9999999999999</ele><time>2026-05-03T11:34:47.547Z</time></trkpt><trkpt lat="44.3862973" lon="10.7635818"><ele>787.0</ele><time>2026-05-03T11:34:49.549Z</time></trkpt><trkpt lat="44.3862192" lon="10.7636374"><ele>786.3333333333333</ele><time>2026-05-03T11:34:51.54Z</time></trkpt><trkpt lat="44.3861521" lon="10.7637013"><ele>785.6666666666666</ele><time>2026-05-03T11:34:54.543Z</time></trkpt><trkpt lat="44.3861867" lon="10.7638052"><ele>785.0</ele><time>2026-05-03T11:34:56.537Z</time></trkpt><trkpt lat="44.3862926" lon="10.7638791"><ele>784.3333333333333</ele><time>2026-05-03T11:34:58.54Z</time></trkpt><trkpt lat="44.3863648" lon="10.7639084"><ele>783.6666666666666</ele><time>2026-05-03T11:34:59.545Z</time></trkpt><trkpt lat="44.3864394" lon="10.763945"><ele>783.0</ele><time>2026-05-03T11:35:00.538Z</time></trkpt><trkpt lat="44.3865168" lon="10.7639849"><ele>783.0</ele><time>2026-05-03T11:35:01.545Z</time></trkpt><trkpt lat="44.3865895" lon="10.764039"><ele>783.0</ele><time>2026-05-03T11:35:02.535Z</time></trkpt><trkpt lat="44.3866543" lon="10.7641037"><ele>783.0</ele><time>2026-05-03T11:35:03.543Z</time></trkpt><trkpt lat="44.3867169" lon="10.7641719"><ele>783.0</ele><time>2026-05-03T11:35:04.536Z</time></trkpt><trkpt lat="44.3867678" lon="10.7642393"><ele>783.0</ele><time>2026-05-03T11:35:05.544Z</time></trkpt><trkpt lat="44.3868481" lon="10.7643431"><ele>783.0</ele><time>2026-05-03T11:35:07.542Z</time></trkpt><trkpt lat="44.3869146" lon="10.7644443"><ele>782.0</ele><time>2026-05-03T11:35:09.537Z</time></trkpt><trkpt lat="44.3869941" lon="10.7645621"><ele>781.0</ele><time>2026-05-03T11:35:11.538Z</time></trkpt><trkpt lat="44.3870396" lon="10.7646235"><ele>780.0</ele><time>2026-05-03T11:35:12.537Z</time></trkpt><trkpt lat="44.3871293" lon="10.7647301"><ele>779.0</ele><time>2026-05-03T11:35:14.542Z</time></trkpt><trkpt lat="44.3872096" lon="10.7648665"><ele>778.0</ele><time>2026-05-03T11:35:16.543Z</time></trkpt><trkpt lat="44.3872316" lon="10.764953"><ele>777.9999999999999</ele><time>2026-05-03T11:35:17.544Z</time></trkpt><trkpt lat="44.3872235" lon="10.7650516"><ele>778.0</ele><time>2026-05-03T11:35:18.543Z</time></trkpt><trkpt lat="44.3872034" lon="10.7651557"><ele>778.0</ele><time>2026-05-03T11:35:19.534Z</time></trkpt><trkpt lat="44.3871775" lon="10.7652645"><ele>778.0</ele><time>2026-05-03T11:35:20.542Z</time></trkpt><trkpt lat="44.3871421" lon="10.765373"><ele>777.9999999999999</ele><time>2026-05-03T11:35:21.54Z</time></trkpt><trkpt lat="44.387104" lon="10.7654801"><ele>778.0</ele><time>2026-05-03T11:35:22.54Z</time></trkpt><trkpt lat="44.3870704" lon="10.7655894"><ele>775.8</ele><time>2026-05-03T11:35:23.539Z</time></trkpt><trkpt lat="44.3870468" lon="10.7657066"><ele>773.5999999999999</ele><time>2026-05-03T11:35:24.536Z</time></trkpt><trkpt lat="44.3870351" lon="10.7658346"><ele>771.4000000000001</ele><time>2026-05-03T11:35:25.539Z</time></trkpt><trkpt lat="44.3870334" lon="10.7659614"><ele>769.2</ele><time>2026-05-03T11:35:26.54Z</time></trkpt><trkpt lat="44.3870325" lon="10.766091"><ele>767.0</ele><time>2026-05-03T11:35:27.539Z</time></trkpt><trkpt lat="44.3870312" lon="10.7662221"><ele>766.0</ele><time>2026-05-03T11:35:28.539Z</time></trkpt><trkpt lat="44.3870326" lon="10.7663564"><ele>765.0</ele><time>2026-05-03T11:35:29.542Z</time></trkpt><trkpt lat="44.3870318" lon="10.7665033"><ele>764.0</ele><time>2026-05-03T11:35:30.541Z</time></trkpt><trkpt lat="44.387031" lon="10.7666334"><ele>763.0</ele><time>2026-05-03T11:35:31.542Z</time></trkpt><trkpt lat="44.3870209" lon="10.7667609"><ele>762.0</ele><time>2026-05-03T11:35:32.536Z</time></trkpt><trkpt lat="44.3869986" lon="10.7668795"><ele>761.1666666666666</ele><time>2026-05-03T11:35:33.538Z</time></trkpt><trkpt lat="44.3869768" lon="10.7669984"><ele>760.3333333333334</ele><time>2026-05-03T11:35:34.539Z</time></trkpt><trkpt lat="44.3869614" lon="10.7671165"><ele>759.5</ele><time>2026-05-03T11:35:35.539Z</time></trkpt><trkpt lat="44.3869458" lon="10.7672352"><ele>758.6666666666667</ele><time>2026-05-03T11:35:36.537Z</time></trkpt><trkpt lat="44.3869343" lon="10.7673415"><ele>757.8333333333334</ele><time>2026-05-03T11:35:37.531Z</time></trkpt><trkpt lat="44.3869354" lon="10.767443"><ele>757.0</ele><time>2026-05-03T11:35:38.539Z</time></trkpt><trkpt lat="44.3869569" lon="10.7675292"><ele>757.0</ele><time>2026-05-03T11:35:39.54Z</time></trkpt><trkpt lat="44.3869967" lon="10.7676729"><ele>757.0</ele><time>2026-05-03T11:35:41.534Z</time></trkpt><trkpt lat="44.3869636" lon="10.7677721"><ele>757.0</ele><time>2026-05-03T11:35:43.538Z</time></trkpt><trkpt lat="44.3869053" lon="10.7678349"><ele>757.0</ele><time>2026-05-03T11:35:44.556Z</time></trkpt><trkpt lat="44.3868345" lon="10.7679161"><ele>757.0</ele><time>2026-05-03T11:35:45.537Z</time></trkpt><trkpt lat="44.3867713" lon="10.7679956"><ele>757.0</ele><time>2026-05-03T11:35:46.537Z</time></trkpt><trkpt lat="44.386716" lon="10.7680814"><ele>758.5</ele><time>2026-05-03T11:35:47.536Z</time></trkpt><trkpt lat="44.3866667" lon="10.7681729"><ele>760.0</ele><time>2026-05-03T11:35:48.54Z</time></trkpt><trkpt lat="44.3866161" lon="10.768267"><ele>761.5</ele><time>2026-05-03T11:35:49.541Z</time></trkpt><trkpt lat="44.3865711" lon="10.7683648"><ele>763.0</ele><time>2026-05-03T11:35:50.544Z</time></trkpt><trkpt lat="44.3865331" lon="10.7684635"><ele>764.5</ele><time>2026-05-03T11:35:51.535Z</time></trkpt><trkpt lat="44.3865031" lon="10.7685749"><ele>766.0</ele><time>2026-05-03T11:35:52.544Z</time></trkpt><trkpt lat="44.3864738" lon="10.7686884"><ele>767.3333333333334</ele><time>2026-05-03T11:35:53.543Z</time></trkpt><trkpt lat="44.3864401" lon="10.7687925"><ele>768.6666666666667</ele><time>2026-05-03T11:35:54.542Z</time></trkpt><trkpt lat="44.3863926" lon="10.7688705"><ele>770.0</ele><time>2026-05-03T11:35:55.544Z</time></trkpt><trkpt lat="44.386317" lon="10.7688921"><ele>771.3333333333334</ele><time>2026-05-03T11:35:56.554Z</time></trkpt><trkpt lat="44.3862227" lon="10.7688954"><ele>772.6666666666666</ele><time>2026-05-03T11:35:57.538Z</time></trkpt><trkpt lat="44.3861225" lon="10.7689063"><ele>774.0</ele><time>2026-05-03T11:35:58.538Z</time></trkpt><trkpt lat="44.3860342" lon="10.7689357"><ele>774.0</ele><time>2026-05-03T11:35:59.539Z</time></trkpt><trkpt lat="44.3859679" lon="10.768978"><ele>774.0</ele><time>2026-05-03T11:36:00.527Z</time></trkpt><trkpt lat="44.3858968" lon="10.769127"><ele>774.0</ele><time>2026-05-03T11:36:02.535Z</time></trkpt><trkpt lat="44.3859071" lon="10.7692718"><ele>774.0</ele><time>2026-05-03T11:36:04.535Z</time></trkpt><trkpt lat="44.3859916" lon="10.7693796"><ele>774.0</ele><time>2026-05-03T11:36:06.531Z</time></trkpt><trkpt lat="44.3860613" lon="10.7694309"><ele>773.2</ele><time>2026-05-03T11:36:07.534Z</time></trkpt><trkpt lat="44.386149" lon="10.7694857"><ele>772.4000000000001</ele><time>2026-05-03T11:36:08.533Z</time></trkpt><trkpt lat="44.3862439" lon="10.7695429"><ele>771.6</ele><time>2026-05-03T11:36:09.536Z</time></trkpt><trkpt lat="44.3863387" lon="10.7696046"><ele>770.8</ele><time>2026-05-03T11:36:10.538Z</time></trkpt><trkpt lat="44.3864304" lon="10.7696626"><ele>770.0</ele><time>2026-05-03T11:36:11.536Z</time></trkpt><trkpt lat="44.3865255" lon="10.769714"><ele>772.75</ele><time>2026-05-03T11:36:12.537Z</time></trkpt><trkpt lat="44.386628" lon="10.7697644"><ele>775.5</ele><time>2026-05-03T11:36:13.536Z</time></trkpt><trkpt lat="44.3867327" lon="10.7698094"><ele>778.25</ele><time>2026-05-03T11:36:14.543Z</time></trkpt><trkpt lat="44.386846" lon="10.7698554"><ele>781.0</ele><time>2026-05-03T11:36:15.544Z</time></trkpt><trkpt lat="44.3869645" lon="10.7699105"><ele>781.0</ele><time>2026-05-03T11:36:16.54Z</time></trkpt><trkpt lat="44.3870889" lon="10.7699763"><ele>781.0</ele><time>2026-05-03T11:36:17.532Z</time></trkpt><trkpt lat="44.3872191" lon="10.7700442"><ele>781.0</ele><time>2026-05-03T11:36:18.538Z</time></trkpt><trkpt lat="44.3873557" lon="10.7701195"><ele>781.0</ele><time>2026-05-03T11:36:19.539Z</time></trkpt><trkpt lat="44.3874826" lon="10.7701903"><ele>781.0</ele><time>2026-05-03T11:36:20.534Z</time></trkpt><trkpt lat="44.3876027" lon="10.7702515"><ele>781.0</ele><time>2026-05-03T11:36:21.532Z</time></trkpt><trkpt lat="44.3877273" lon="10.7703064"><ele>781.0</ele><time>2026-05-03T11:36:22.538Z</time></trkpt><trkpt lat="44.3878572" lon="10.7703405"><ele>781.0</ele><time>2026-05-03T11:36:23.534Z</time></trkpt><trkpt lat="44.3879995" lon="10.7703494"><ele>779.0</ele><time>2026-05-03T11:36:24.536Z</time></trkpt><trkpt lat="44.3881491" lon="10.7703619"><ele>777.0</ele><time>2026-05-03T11:36:25.538Z</time></trkpt><trkpt lat="44.3883152" lon="10.7703737"><ele>775.0</ele><time>2026-05-03T11:36:26.536Z</time></trkpt><trkpt lat="44.3884804" lon="10.7704069"><ele>775.0</ele><time>2026-05-03T11:36:27.542Z</time></trkpt><trkpt lat="44.3886388" lon="10.7704631"><ele>775.0</ele><time>2026-05-03T11:36:28.532Z</time></trkpt><trkpt lat="44.3887964" lon="10.7705318"><ele>775.0</ele><time>2026-05-03T11:36:29.534Z</time></trkpt><trkpt lat="44.3889438" lon="10.7706354"><ele>774.0</ele><time>2026-05-03T11:36:30.54Z</time></trkpt><trkpt lat="44.3890985" lon="10.7707536"><ele>773.0</ele><time>2026-05-03T11:36:31.547Z</time></trkpt><trkpt lat="44.3892542" lon="10.770879"><ele>772.0</ele><time>2026-05-03T11:36:32.534Z</time></trkpt><trkpt lat="44.3894139" lon="10.7710053"><ele>772.0</ele><time>2026-05-03T11:36:33.536Z</time></trkpt><trkpt lat="44.389585" lon="10.7711407"><ele>772.0</ele><time>2026-05-03T11:36:34.536Z</time></trkpt><trkpt lat="44.3897464" lon="10.7712801"><ele>772.0</ele><time>2026-05-03T11:36:35.535Z</time></trkpt><trkpt lat="44.3899053" lon="10.7714216"><ele>769.3333333333333</ele><time>2026-05-03T11:36:36.538Z</time></trkpt><trkpt lat="44.3900638" lon="10.7715693"><ele>766.6666666666666</ele><time>2026-05-03T11:36:37.54Z</time></trkpt><trkpt lat="44.3902265" lon="10.7717228"><ele>764.0</ele><time>2026-05-03T11:36:38.538Z</time></trkpt><trkpt lat="44.3903809" lon="10.771876"><ele>764.6666666666666</ele><time>2026-05-03T11:36:39.536Z</time></trkpt><trkpt lat="44.3905279" lon="10.7720449"><ele>765.3333333333334</ele><time>2026-05-03T11:36:40.537Z</time></trkpt><trkpt lat="44.3906571" lon="10.7722245"><ele>766.0</ele><time>2026-05-03T11:36:41.538Z</time></trkpt><trkpt lat="44.3907804" lon="10.7724152"><ele>766.0</ele><time>2026-05-03T11:36:42.539Z</time></trkpt><trkpt lat="44.3908969" lon="10.7725996"><ele>766.0</ele><time>2026-05-03T11:36:43.535Z</time></trkpt><trkpt lat="44.3909991" lon="10.772762"><ele>766.0</ele><time>2026-05-03T11:36:44.543Z</time></trkpt><trkpt lat="44.3911043" lon="10.7729273"><ele>766.0</ele><time>2026-05-03T11:36:45.537Z</time></trkpt><trkpt lat="44.3912124" lon="10.7730912"><ele>766.0</ele><time>2026-05-03T11:36:46.549Z</time></trkpt><trkpt lat="44.3913177" lon="10.7732507"><ele>766.0</ele><time>2026-05-03T11:36:47.531Z</time></trkpt><trkpt lat="44.3914355" lon="10.7734076"><ele>767.0</ele><time>2026-05-03T11:36:48.534Z</time></trkpt><trkpt lat="44.3915535" lon="10.7735527"><ele>768.0</ele><time>2026-05-03T11:36:49.532Z</time></trkpt><trkpt lat="44.3916577" lon="10.7736762"><ele>769.0</ele><time>2026-05-03T11:36:50.537Z</time></trkpt><trkpt lat="44.3917215" lon="10.7737894"><ele>770.0</ele><time>2026-05-03T11:36:51.535Z</time></trkpt><trkpt lat="44.3917248" lon="10.7738819"><ele>770.0</ele><time>2026-05-03T11:36:52.536Z</time></trkpt><trkpt lat="44.391686" lon="10.7739984"><ele>770.0</ele><time>2026-05-03T11:36:53.532Z</time></trkpt><trkpt lat="44.3916266" lon="10.7741291"><ele>770.0</ele><time>2026-05-03T11:36:54.531Z</time></trkpt><trkpt lat="44.3915494" lon="10.7742618"><ele>770.0</ele><time>2026-05-03T11:36:55.533Z</time></trkpt><trkpt lat="44.3914755" lon="10.7744198"><ele>770.0</ele><time>2026-05-03T11:36:56.538Z</time></trkpt><trkpt lat="44.3914006" lon="10.7745852"><ele>770.0</ele><time>2026-05-03T11:36:57.531Z</time></trkpt><trkpt lat="44.3913321" lon="10.774741"><ele>770.0</ele><time>2026-05-03T11:36:58.541Z</time></trkpt><trkpt lat="44.3912602" lon="10.774893"><ele>770.0</ele><time>2026-05-03T11:36:59.538Z</time></trkpt><trkpt lat="44.3911867" lon="10.7750441"><ele>769.25</ele><time>2026-05-03T11:37:00.536Z</time></trkpt><trkpt lat="44.3911189" lon="10.7751912"><ele>768.5</ele><time>2026-05-03T11:37:01.537Z</time></trkpt><trkpt lat="44.3910635" lon="10.7753363"><ele>767.75</ele><time>2026-05-03T11:37:02.537Z</time></trkpt><trkpt lat="44.391022" lon="10.7755023"><ele>767.0</ele><time>2026-05-03T11:37:03.537Z</time></trkpt><trkpt lat="44.3909933" lon="10.7756816"><ele>767.0</ele><time>2026-05-03T11:37:04.534Z</time></trkpt><trkpt lat="44.3909604" lon="10.7758549"><ele>767.0</ele><time>2026-05-03T11:37:05.531Z</time></trkpt><trkpt lat="44.3909226" lon="10.7760236"><ele>767.0</ele><time>2026-05-03T11:37:06.533Z</time></trkpt><trkpt lat="44.3908744" lon="10.7761955"><ele>767.0</ele><time>2026-05-03T11:37:07.535Z</time></trkpt><trkpt lat="44.3908195" lon="10.7763679"><ele>765.5</ele><time>2026-05-03T11:37:08.534Z</time></trkpt><trkpt lat="44.3907516" lon="10.7765396"><ele>764.0</ele><time>2026-05-03T11:37:09.538Z</time></trkpt><trkpt lat="44.3906645" lon="10.776712"><ele>762.5</ele><time>2026-05-03T11:37:10.537Z</time></trkpt><trkpt lat="44.3905761" lon="10.7768895"><ele>761.0</ele><time>2026-05-03T11:37:11.536Z</time></trkpt><trkpt lat="44.3905049" lon="10.7770514"><ele>757.75</ele><time>2026-05-03T11:37:12.539Z</time></trkpt><trkpt lat="44.3904359" lon="10.777207"><ele>754.5</ele><time>2026-05-03T11:37:13.538Z</time></trkpt><trkpt lat="44.390369" lon="10.7773616"><ele>751.25</ele><time>2026-05-03T11:37:14.539Z</time></trkpt><trkpt lat="44.3903068" lon="10.7775145"><ele>748.0</ele><time>2026-05-03T11:37:15.535Z</time></trkpt><trkpt lat="44.390263" lon="10.7776803"><ele>746.5</ele><time>2026-05-03T11:37:16.541Z</time></trkpt><trkpt lat="44.3902475" lon="10.7778419"><ele>745.0</ele><time>2026-05-03T11:37:17.554Z</time></trkpt><trkpt lat="44.39025" lon="10.7780116"><ele>743.5</ele><time>2026-05-03T11:37:18.537Z</time></trkpt><trkpt lat="44.3902628" lon="10.7781956"><ele>742.0</ele><time>2026-05-03T11:37:19.534Z</time></trkpt><trkpt lat="44.3902983" lon="10.778376"><ele>741.0</ele><time>2026-05-03T11:37:20.534Z</time></trkpt><trkpt lat="44.3903352" lon="10.7785537"><ele>740.0</ele><time>2026-05-03T11:37:21.534Z</time></trkpt><trkpt lat="44.3903777" lon="10.7787115"><ele>739.0</ele><time>2026-05-03T11:37:22.537Z</time></trkpt><trkpt lat="44.3904322" lon="10.7788456"><ele>738.0</ele><time>2026-05-03T11:37:23.537Z</time></trkpt><trkpt lat="44.3905106" lon="10.7789563"><ele>738.0</ele><time>2026-05-03T11:37:24.535Z</time></trkpt><trkpt lat="44.3906285" lon="10.7790497"><ele>738.0</ele><time>2026-05-03T11:37:25.536Z</time></trkpt><trkpt lat="44.3907571" lon="10.7791543"><ele>738.0</ele><time>2026-05-03T11:37:26.532Z</time></trkpt><trkpt lat="44.3908797" lon="10.7792768"><ele>738.0</ele><time>2026-05-03T11:37:27.535Z</time></trkpt><trkpt lat="44.3909672" lon="10.7794077"><ele>735.5999999999999</ele><time>2026-05-03T11:37:28.529Z</time></trkpt><trkpt lat="44.3910477" lon="10.7795249"><ele>733.1999999999999</ele><time>2026-05-03T11:37:29.544Z</time></trkpt><trkpt lat="44.3911235" lon="10.7796353"><ele>730.8</ele><time>2026-05-03T11:37:30.532Z</time></trkpt><trkpt lat="44.3911785" lon="10.7797372"><ele>728.4</ele><time>2026-05-03T11:37:31.535Z</time></trkpt><trkpt lat="44.3912296" lon="10.7798239"><ele>726.0</ele><time>2026-05-03T11:37:32.536Z</time></trkpt><trkpt lat="44.3912872" lon="10.7799659"><ele>726.0</ele><time>2026-05-03T11:37:34.534Z</time></trkpt><trkpt lat="44.3912461" lon="10.7800873"><ele>726.0</ele><time>2026-05-03T11:37:36.534Z</time></trkpt><trkpt lat="44.3911663" lon="10.7801539"><ele>726.0</ele><time>2026-05-03T11:37:37.53Z</time></trkpt><trkpt lat="44.3910739" lon="10.7802266"><ele>726.0</ele><time>2026-05-03T11:37:38.528Z</time></trkpt><trkpt lat="44.3909771" lon="10.780304"><ele>726.0</ele><time>2026-05-03T11:37:39.53Z</time></trkpt><trkpt lat="44.3908744" lon="10.7803795"><ele>724.5</ele><time>2026-05-03T11:37:40.529Z</time></trkpt><trkpt lat="44.3907757" lon="10.7804321"><ele>723.0</ele><time>2026-05-03T11:37:41.534Z</time></trkpt><trkpt lat="44.3906713" lon="10.7804343"><ele>721.5</ele><time>2026-05-03T11:37:42.534Z</time></trkpt><trkpt lat="44.3905481" lon="10.7804092"><ele>720.0</ele><time>2026-05-03T11:37:43.536Z</time></trkpt><trkpt lat="44.3904158" lon="10.7803725"><ele>719.0</ele><time>2026-05-03T11:37:44.529Z</time></trkpt><trkpt lat="44.39029" lon="10.7803309"><ele>718.0</ele><time>2026-05-03T11:37:45.529Z</time></trkpt><trkpt lat="44.3901641" lon="10.7802821"><ele>717.0</ele><time>2026-05-03T11:37:46.527Z</time></trkpt><trkpt lat="44.3900417" lon="10.780235"><ele>716.0</ele><time>2026-05-03T11:37:47.527Z</time></trkpt><trkpt lat="44.3899335" lon="10.7801854"><ele>718.0</ele><time>2026-05-03T11:37:48.547Z</time></trkpt><trkpt lat="44.3898371" lon="10.7801256"><ele>720.0</ele><time>2026-05-03T11:37:49.531Z</time></trkpt><trkpt lat="44.3897565" lon="10.780062"><ele>722.0</ele><time>2026-05-03T11:37:50.532Z</time></trkpt><trkpt lat="44.3896756" lon="10.7799944"><ele>724.0</ele><time>2026-05-03T11:37:51.537Z</time></trkpt><trkpt lat="44.3896197" lon="10.7799288"><ele>726.0</ele><time>2026-05-03T11:37:52.537Z</time></trkpt><trkpt lat="44.3895295" lon="10.7799227"><ele>726.8</ele><time>2026-05-03T11:37:54.534Z</time></trkpt><trkpt lat="44.3894892" lon="10.7800052"><ele>727.5999999999999</ele><time>2026-05-03T11:37:55.53Z</time></trkpt><trkpt lat="44.3894475" lon="10.7801321"><ele>728.4</ele><time>2026-05-03T11:37:56.523Z</time></trkpt><trkpt lat="44.3893918" lon="10.7802459"><ele>729.2</ele><time>2026-05-03T11:37:57.516Z</time></trkpt><trkpt lat="44.3893194" lon="10.7803439"><ele>730.0</ele><time>2026-05-03T11:37:58.525Z</time></trkpt><trkpt lat="44.389221" lon="10.7804306"><ele>727.2</ele><time>2026-05-03T11:37:59.522Z</time></trkpt><trkpt lat="44.3891186" lon="10.7804908"><ele>724.4</ele><time>2026-05-03T11:38:00.538Z</time></trkpt><trkpt lat="44.3890264" lon="10.7805303"><ele>721.5999999999999</ele><time>2026-05-03T11:38:01.536Z</time></trkpt><trkpt lat="44.3889383" lon="10.7805559"><ele>718.8</ele><time>2026-05-03T11:38:02.535Z</time></trkpt><trkpt lat="44.3888431" lon="10.7805471"><ele>716.0</ele><time>2026-05-03T11:38:03.539Z</time></trkpt><trkpt lat="44.3887286" lon="10.780499"><ele>716.0</ele><time>2026-05-03T11:38:04.531Z</time></trkpt><trkpt lat="44.3886006" lon="10.780435"><ele>716.0</ele><time>2026-05-03T11:38:05.537Z</time></trkpt><trkpt lat="44.388462" lon="10.7803973"><ele>716.0</ele><time>2026-05-03T11:38:06.534Z</time></trkpt><trkpt lat="44.3883208" lon="10.780363"><ele>716.0</ele><time>2026-05-03T11:38:07.532Z</time></trkpt><trkpt lat="44.3881832" lon="10.7803"><ele>716.0</ele><time>2026-05-03T11:38:08.533Z</time></trkpt><trkpt lat="44.388034" lon="10.7802446"><ele>716.0</ele><time>2026-05-03T11:38:09.532Z</time></trkpt><trkpt lat="44.387889" lon="10.7802055"><ele>716.0</ele><time>2026-05-03T11:38:10.534Z</time></trkpt><trkpt lat="44.3877424" lon="10.7801572"><ele>719.0</ele><time>2026-05-03T11:38:11.532Z</time></trkpt><trkpt lat="44.3876026" lon="10.7801001"><ele>722.0</ele><time>2026-05-03T11:38:12.531Z</time></trkpt><trkpt lat="44.3874699" lon="10.7800592"><ele>725.0</ele><time>2026-05-03T11:38:13.533Z</time></trkpt><trkpt lat="44.3873542" lon="10.7800131"><ele>728.0</ele><time>2026-05-03T11:38:14.537Z</time></trkpt><trkpt lat="44.3872517" lon="10.7799579"><ele>726.4</ele><time>2026-05-03T11:38:15.535Z</time></trkpt><trkpt lat="44.3871658" lon="10.7799025"><ele>724.8</ele><time>2026-05-03T11:38:16.538Z</time></trkpt><trkpt lat="44.3871017" lon="10.779812"><ele>723.2</ele><time>2026-05-03T11:38:17.537Z</time></trkpt><trkpt lat="44.3870499" lon="10.7796835"><ele>721.6</ele><time>2026-05-03T11:38:18.537Z</time></trkpt><trkpt lat="44.3870034" lon="10.7795653"><ele>720.0</ele><time>2026-05-03T11:38:19.549Z</time></trkpt><trkpt lat="44.3869476" lon="10.7794666"><ele>720.0</ele><time>2026-05-03T11:38:20.535Z</time></trkpt><trkpt lat="44.386879" lon="10.7794537"><ele>720.0</ele><time>2026-05-03T11:38:21.538Z</time></trkpt><trkpt lat="44.3867924" lon="10.7794998"><ele>720.0</ele><time>2026-05-03T11:38:22.534Z</time></trkpt><trkpt lat="44.3866929" lon="10.7795398"><ele>720.0</ele><time>2026-05-03T11:38:23.526Z</time></trkpt><trkpt lat="44.3865877" lon="10.7795647"><ele>720.0</ele><time>2026-05-03T11:38:24.534Z</time></trkpt><trkpt lat="44.3864797" lon="10.77957"><ele>720.0</ele><time>2026-05-03T11:38:25.531Z</time></trkpt><trkpt lat="44.3863747" lon="10.7795711"><ele>720.0</ele><time>2026-05-03T11:38:26.537Z</time></trkpt><trkpt lat="44.3862697" lon="10.7795738"><ele>720.0</ele><time>2026-05-03T11:38:27.533Z</time></trkpt><trkpt lat="44.3861558" lon="10.7795757"><ele>720.0</ele><time>2026-05-03T11:38:28.538Z</time></trkpt><trkpt lat="44.3860344" lon="10.7795695"><ele>720.0</ele><time>2026-05-03T11:38:29.534Z</time></trkpt><trkpt lat="44.3859078" lon="10.7795573"><ele>720.2</ele><time>2026-05-03T11:38:30.54Z</time></trkpt><trkpt lat="44.3857844" lon="10.7795439"><ele>720.4</ele><time>2026-05-03T11:38:31.543Z</time></trkpt><trkpt lat="44.3856667" lon="10.7795365"><ele>720.5999999999999</ele><time>2026-05-03T11:38:32.532Z</time></trkpt><trkpt lat="44.3855624" lon="10.7795284"><ele>720.8</ele><time>2026-05-03T11:38:33.536Z</time></trkpt><trkpt lat="44.3854711" lon="10.7795201"><ele>721.0</ele><time>2026-05-03T11:38:34.538Z</time></trkpt><trkpt lat="44.3853815" lon="10.7795068"><ele>721.0</ele><time>2026-05-03T11:38:35.537Z</time></trkpt><trkpt lat="44.38529" lon="10.7794852"><ele>721.0</ele><time>2026-05-03T11:38:36.535Z</time></trkpt><trkpt lat="44.3851952" lon="10.7794503"><ele>721.0</ele><time>2026-05-03T11:38:37.534Z</time></trkpt><trkpt lat="44.3851056" lon="10.7794116"><ele>721.0</ele><time>2026-05-03T11:38:38.537Z</time></trkpt><trkpt lat="44.3850248" lon="10.7793704"><ele>721.0</ele><time>2026-05-03T11:38:39.533Z</time></trkpt><trkpt lat="44.3849402" lon="10.7793238"><ele>721.4</ele><time>2026-05-03T11:38:40.534Z</time></trkpt><trkpt lat="44.3848569" lon="10.7792773"><ele>721.8</ele><time>2026-05-03T11:38:41.535Z</time></trkpt><trkpt lat="44.3847778" lon="10.7792147"><ele>722.1999999999999</ele><time>2026-05-03T11:38:42.539Z</time></trkpt><trkpt lat="44.3847006" lon="10.7791207"><ele>722.5999999999999</ele><time>2026-05-03T11:38:43.539Z</time></trkpt><trkpt lat="44.3846272" lon="10.7790246"><ele>723.0</ele><time>2026-05-03T11:38:44.541Z</time></trkpt><trkpt lat="44.3845535" lon="10.7789363"><ele>723.0</ele><time>2026-05-03T11:38:45.538Z</time></trkpt><trkpt lat="44.3844823" lon="10.7788537"><ele>723.0</ele><time>2026-05-03T11:38:46.534Z</time></trkpt><trkpt lat="44.3844148" lon="10.7787795"><ele>723.0</ele><time>2026-05-03T11:38:47.532Z</time></trkpt><trkpt lat="44.3843515" lon="10.7787016"><ele>723.0</ele><time>2026-05-03T11:38:48.535Z</time></trkpt><trkpt lat="44.384288" lon="10.7786205"><ele>723.0</ele><time>2026-05-03T11:38:49.537Z</time></trkpt><trkpt lat="44.3842188" lon="10.7785466"><ele>723.0</ele><time>2026-05-03T11:38:50.546Z</time></trkpt><trkpt lat="44.3841365" lon="10.7784785"><ele>723.2</ele><time>2026-05-03T11:38:51.539Z</time></trkpt><trkpt lat="44.3840454" lon="10.7784193"><ele>723.4</ele><time>2026-05-03T11:38:52.542Z</time></trkpt><trkpt lat="44.3839569" lon="10.7783524"><ele>723.6</ele><time>2026-05-03T11:38:53.539Z</time></trkpt><trkpt lat="44.3838663" lon="10.7782798"><ele>723.8000000000001</ele><time>2026-05-03T11:38:54.537Z</time></trkpt><trkpt lat="44.3837796" lon="10.7782031"><ele>724.0</ele><time>2026-05-03T11:38:55.537Z</time></trkpt><trkpt lat="44.3837133" lon="10.7781495"><ele>722.25</ele><time>2026-05-03T11:38:56.543Z</time></trkpt><trkpt lat="44.3835794" lon="10.7781706"><ele>720.5</ele><time>2026-05-03T11:38:58.539Z</time></trkpt><trkpt lat="44.3834822" lon="10.7782119"><ele>718.75</ele><time>2026-05-03T11:38:59.533Z</time></trkpt><trkpt lat="44.3833762" lon="10.7782468"><ele>717.0</ele><time>2026-05-03T11:39:00.531Z</time></trkpt><trkpt lat="44.38327" lon="10.7782781"><ele>717.0</ele><time>2026-05-03T11:39:01.546Z</time></trkpt><trkpt lat="44.383167" lon="10.7783025"><ele>717.0</ele><time>2026-05-03T11:39:02.535Z</time></trkpt><trkpt lat="44.3830711" lon="10.7783159"><ele>717.0</ele><time>2026-05-03T11:39:03.536Z</time></trkpt><trkpt lat="44.3829828" lon="10.7783394"><ele>717.0</ele><time>2026-05-03T11:39:04.536Z</time></trkpt><trkpt lat="44.3828973" lon="10.7783755"><ele>717.0</ele><time>2026-05-03T11:39:05.541Z</time></trkpt><trkpt lat="44.3828119" lon="10.7784521"><ele>714.6</ele><time>2026-05-03T11:39:06.54Z</time></trkpt><trkpt lat="44.3827301" lon="10.7785646"><ele>712.2</ele><time>2026-05-03T11:39:07.537Z</time></trkpt><trkpt lat="44.3826546" lon="10.7786571"><ele>709.8</ele><time>2026-05-03T11:39:08.531Z</time></trkpt><trkpt lat="44.3825718" lon="10.7787369"><ele>707.4</ele><time>2026-05-03T11:39:09.534Z</time></trkpt><trkpt lat="44.3824884" lon="10.7788"><ele>705.0</ele><time>2026-05-03T11:39:10.535Z</time></trkpt><trkpt lat="44.3824129" lon="10.7788647"><ele>705.0</ele><time>2026-05-03T11:39:11.54Z</time></trkpt><trkpt lat="44.3823509" lon="10.7789418"><ele>705.0</ele><time>2026-05-03T11:39:12.528Z</time></trkpt><trkpt lat="44.3822977" lon="10.7790382"><ele>705.0</ele><time>2026-05-03T11:39:13.544Z</time></trkpt><trkpt lat="44.3822627" lon="10.7791547"><ele>705.0</ele><time>2026-05-03T11:39:14.534Z</time></trkpt><trkpt lat="44.3822312" lon="10.7792834"><ele>705.0</ele><time>2026-05-03T11:39:15.533Z</time></trkpt><trkpt lat="44.3822008" lon="10.7794231"><ele>702.8</ele><time>2026-05-03T11:39:16.531Z</time></trkpt><trkpt lat="44.3821604" lon="10.7795573"><ele>700.6</ele><time>2026-05-03T11:39:17.53Z</time></trkpt><trkpt lat="44.382118" lon="10.7796804"><ele>698.4000000000001</ele><time>2026-05-03T11:39:18.533Z</time></trkpt><trkpt lat="44.3820768" lon="10.7798015"><ele>696.2</ele><time>2026-05-03T11:39:19.531Z</time></trkpt><trkpt lat="44.3820321" lon="10.7799288"><ele>694.0</ele><time>2026-05-03T11:39:20.543Z</time></trkpt><trkpt lat="44.3819916" lon="10.7800501"><ele>694.0</ele><time>2026-05-03T11:39:21.552Z</time></trkpt><trkpt lat="44.381956" lon="10.7801737"><ele>694.0</ele><time>2026-05-03T11:39:22.541Z</time></trkpt><trkpt lat="44.3819255" lon="10.7803002"><ele>694.0</ele><time>2026-05-03T11:39:23.541Z</time></trkpt><trkpt lat="44.3818847" lon="10.7804273"><ele>694.0</ele><time>2026-05-03T11:39:24.541Z</time></trkpt><trkpt lat="44.3818428" lon="10.7805532"><ele>694.0</ele><time>2026-05-03T11:39:25.541Z</time></trkpt><trkpt lat="44.3817889" lon="10.780677"><ele>693.0</ele><time>2026-05-03T11:39:26.542Z</time></trkpt><trkpt lat="44.38173" lon="10.7808025"><ele>692.0</ele><time>2026-05-03T11:39:27.542Z</time></trkpt><trkpt lat="44.3816621" lon="10.7809236"><ele>691.0</ele><time>2026-05-03T11:39:28.541Z</time></trkpt><trkpt lat="44.3815816" lon="10.7810301"><ele>690.0</ele><time>2026-05-03T11:39:29.546Z</time></trkpt><trkpt lat="44.3814814" lon="10.7811106"><ele>689.0</ele><time>2026-05-03T11:39:30.549Z</time></trkpt><trkpt lat="44.3813698" lon="10.7811585"><ele>686.4000000000001</ele><time>2026-05-03T11:39:31.535Z</time></trkpt><trkpt lat="44.3812616" lon="10.7811952"><ele>683.8</ele><time>2026-05-03T11:39:32.548Z</time></trkpt><trkpt lat="44.3811799" lon="10.781216"><ele>681.2</ele><time>2026-05-03T11:39:33.535Z</time></trkpt><trkpt lat="44.3810827" lon="10.7812394"><ele>678.5999999999999</ele><time>2026-05-03T11:39:35.544Z</time></trkpt><trkpt lat="44.3809794" lon="10.7813058"><ele>676.0</ele><time>2026-05-03T11:40:13.533Z</time></trkpt><trkpt lat="44.3808711" lon="10.7813244"><ele>676.0</ele><time>2026-05-03T11:40:15.535Z</time></trkpt><trkpt lat="44.3807775" lon="10.7813305"><ele>676.0</ele><time>2026-05-03T11:40:17.536Z</time></trkpt><trkpt lat="44.3807096" lon="10.7813279"><ele>676.0</ele><time>2026-05-03T11:40:19.542Z</time></trkpt><trkpt lat="44.3806178" lon="10.7813313"><ele>676.0</ele><time>2026-05-03T11:40:21.535Z</time></trkpt><trkpt lat="44.3805033" lon="10.7813504"><ele>676.0</ele><time>2026-05-03T11:40:23.544Z</time></trkpt><trkpt lat="44.3803947" lon="10.7813809"><ele>674.1999999999999</ele><time>2026-05-03T11:40:25.532Z</time></trkpt><trkpt lat="44.380296" lon="10.7813942"><ele>672.4</ele><time>2026-05-03T11:40:27.537Z</time></trkpt><trkpt lat="44.3802378" lon="10.7812555"><ele>670.6</ele><time>2026-05-03T11:40:29.54Z</time></trkpt><trkpt lat="44.380241" lon="10.7811377"><ele>668.8</ele><time>2026-05-03T11:40:30.529Z</time></trkpt><trkpt lat="44.3802551" lon="10.7810287"><ele>667.0</ele><time>2026-05-03T11:40:31.539Z</time></trkpt><trkpt lat="44.3802692" lon="10.7809166"><ele>667.0</ele><time>2026-05-03T11:40:32.534Z</time></trkpt><trkpt lat="44.3802756" lon="10.7808095"><ele>667.0</ele><time>2026-05-03T11:40:33.54Z</time></trkpt><trkpt lat="44.3802723" lon="10.780709"><ele>667.0</ele><time>2026-05-03T11:40:34.536Z</time></trkpt><trkpt lat="44.3802495" lon="10.780626"><ele>667.0</ele><time>2026-05-03T11:40:35.535Z</time></trkpt><trkpt lat="44.3801341" lon="10.7805579"><ele>667.0</ele><time>2026-05-03T11:40:37.54Z</time></trkpt><trkpt lat="44.3800424" lon="10.7805698"><ele>667.0</ele><time>2026-05-03T11:40:38.539Z</time></trkpt><trkpt lat="44.3799372" lon="10.7805887"><ele>667.0</ele><time>2026-05-03T11:40:39.536Z</time></trkpt><trkpt lat="44.3798329" lon="10.7806056"><ele>667.0</ele><time>2026-05-03T11:40:40.539Z</time></trkpt><trkpt lat="44.3797328" lon="10.7806158"><ele>667.0</ele><time>2026-05-03T11:40:41.537Z</time></trkpt><trkpt lat="44.3796413" lon="10.780638"><ele>667.0</ele><time>2026-05-03T11:40:42.538Z</time></trkpt><trkpt lat="44.3795585" lon="10.7806799"><ele>667.0</ele><time>2026-05-03T11:40:43.534Z</time></trkpt><trkpt lat="44.3794709" lon="10.7807419"><ele>665.3333333333334</ele><time>2026-05-03T11:40:44.533Z</time></trkpt><trkpt lat="44.3793928" lon="10.7807899"><ele>663.6666666666667</ele><time>2026-05-03T11:40:45.542Z</time></trkpt><trkpt lat="44.379323" lon="10.7807976"><ele>662.0</ele><time>2026-05-03T11:40:46.54Z</time></trkpt><trkpt lat="44.3792638" lon="10.780765"><ele>660.3333333333334</ele><time>2026-05-03T11:40:47.543Z</time></trkpt><trkpt lat="44.3792257" lon="10.780676"><ele>658.6666666666666</ele><time>2026-05-03T11:40:48.539Z</time></trkpt><trkpt lat="44.3791906" lon="10.7805552"><ele>657.0</ele><time>2026-05-03T11:40:49.534Z</time></trkpt><trkpt lat="44.379153" lon="10.7804784"><ele>657.0</ele><time>2026-05-03T11:40:50.535Z</time></trkpt><trkpt lat="44.3790466" lon="10.7804756"><ele>657.0</ele><time>2026-05-03T11:40:52.538Z</time></trkpt><trkpt lat="44.3789725" lon="10.7805136"><ele>657.0</ele><time>2026-05-03T11:40:53.533Z</time></trkpt><trkpt lat="44.3788987" lon="10.7805672"><ele>657.0</ele><time>2026-05-03T11:40:54.541Z</time></trkpt><trkpt lat="44.378826" lon="10.7806322"><ele>657.0</ele><time>2026-05-03T11:40:55.54Z</time></trkpt><trkpt lat="44.3787559" lon="10.7807326"><ele>654.8333333333334</ele><time>2026-05-03T11:40:56.539Z</time></trkpt><trkpt lat="44.3786922" lon="10.7808275"><ele>652.6666666666666</ele><time>2026-05-03T11:40:57.53Z</time></trkpt><trkpt lat="44.3786265" lon="10.7809058"><ele>650.5</ele><time>2026-05-03T11:40:58.534Z</time></trkpt><trkpt lat="44.3785673" lon="10.780982"><ele>648.3333333333333</ele><time>2026-05-03T11:40:59.537Z</time></trkpt><trkpt lat="44.3785141" lon="10.7810481"><ele>646.1666666666666</ele><time>2026-05-03T11:41:00.537Z</time></trkpt><trkpt lat="44.3784541" lon="10.7810995"><ele>644.0</ele><time>2026-05-03T11:41:01.543Z</time></trkpt><trkpt lat="44.3783877" lon="10.7811235"><ele>642.3333333333333</ele><time>2026-05-03T11:41:02.544Z</time></trkpt><trkpt lat="44.3783023" lon="10.7811286"><ele>640.6666666666666</ele><time>2026-05-03T11:41:03.536Z</time></trkpt><trkpt lat="44.3782084" lon="10.7811424"><ele>639.0</ele><time>2026-05-03T11:41:04.537Z</time></trkpt><trkpt lat="44.3781134" lon="10.7811504"><ele>637.3333333333334</ele><time>2026-05-03T11:41:05.545Z</time></trkpt><trkpt lat="44.3780275" lon="10.781167"><ele>635.6666666666667</ele><time>2026-05-03T11:41:06.539Z</time></trkpt><trkpt lat="44.3779414" lon="10.781186"><ele>634.0</ele><time>2026-05-03T11:41:07.532Z</time></trkpt><trkpt lat="44.3778458" lon="10.7812076"><ele>632.0</ele><time>2026-05-03T11:41:08.538Z</time></trkpt><trkpt lat="44.3777533" lon="10.7812263"><ele>630.0</ele><time>2026-05-03T11:41:09.54Z</time></trkpt><trkpt lat="44.3776639" lon="10.7812476"><ele>628.0</ele><time>2026-05-03T11:41:10.533Z</time></trkpt><trkpt lat="44.3775797" lon="10.7812737"><ele>626.0</ele><time>2026-05-03T11:41:11.535Z</time></trkpt><trkpt lat="44.3775092" lon="10.7812934"><ele>624.0</ele><time>2026-05-03T11:41:12.536Z</time></trkpt><trkpt lat="44.3774437" lon="10.7813123"><ele>622.0</ele><time>2026-05-03T11:41:13.538Z</time></trkpt><trkpt lat="44.3773761" lon="10.7813314"><ele>622.0</ele><time>2026-05-03T11:41:14.542Z</time></trkpt><trkpt lat="44.377316" lon="10.7813619"><ele>622.0</ele><time>2026-05-03T11:41:15.535Z</time></trkpt><trkpt lat="44.3772506" lon="10.78141"><ele>622.0</ele><time>2026-05-03T11:41:16.535Z</time></trkpt><trkpt lat="44.3771852" lon="10.7814771"><ele>622.0</ele><time>2026-05-03T11:41:17.538Z</time></trkpt><trkpt lat="44.3771196" lon="10.7815507"><ele>622.0</ele><time>2026-05-03T11:41:18.537Z</time></trkpt><trkpt lat="44.3770537" lon="10.7816231"><ele>622.0</ele><time>2026-05-03T11:41:19.542Z</time></trkpt><trkpt lat="44.3769813" lon="10.7816608"><ele>618.2</ele><time>2026-05-03T11:41:20.543Z</time></trkpt><trkpt lat="44.3768891" lon="10.7816582"><ele>614.4000000000001</ele><time>2026-05-03T11:41:21.545Z</time></trkpt><trkpt lat="44.3768033" lon="10.78163"><ele>610.5999999999999</ele><time>2026-05-03T11:41:22.541Z</time></trkpt><trkpt lat="44.3767213" lon="10.7816038"><ele>606.8</ele><time>2026-05-03T11:41:23.545Z</time></trkpt><trkpt lat="44.3766552" lon="10.7815934"><ele>603.0</ele><time>2026-05-03T11:41:24.54Z</time></trkpt><trkpt lat="44.3765443" lon="10.7816992"><ele>603.0</ele><time>2026-05-03T11:41:26.537Z</time></trkpt><trkpt lat="44.3764798" lon="10.7817891"><ele>603.0</ele><time>2026-05-03T11:41:27.535Z</time></trkpt><trkpt lat="44.3764003" lon="10.7818829"><ele>603.0</ele><time>2026-05-03T11:41:28.534Z</time></trkpt><trkpt lat="44.3763188" lon="10.7819823"><ele>603.0</ele><time>2026-05-03T11:41:29.537Z</time></trkpt><trkpt lat="44.3762377" lon="10.782101"><ele>603.0</ele><time>2026-05-03T11:41:30.536Z</time></trkpt><trkpt lat="44.3761553" lon="10.7822204"><ele>598.8</ele><time>2026-05-03T11:41:31.545Z</time></trkpt><trkpt lat="44.3760803" lon="10.7823367"><ele>594.5999999999999</ele><time>2026-05-03T11:41:32.531Z</time></trkpt><trkpt lat="44.3760099" lon="10.7824465"><ele>590.4000000000001</ele><time>2026-05-03T11:41:33.53Z</time></trkpt><trkpt lat="44.375941" lon="10.7825552"><ele>586.2</ele><time>2026-05-03T11:41:34.531Z</time></trkpt><trkpt lat="44.3758766" lon="10.7826648"><ele>582.0</ele><time>2026-05-03T11:41:35.536Z</time></trkpt><trkpt lat="44.3758196" lon="10.7827653"><ele>579.6666666666666</ele><time>2026-05-03T11:41:36.534Z</time></trkpt><trkpt lat="44.3757675" lon="10.782857"><ele>577.3333333333334</ele><time>2026-05-03T11:41:37.53Z</time></trkpt><trkpt lat="44.3757193" lon="10.7829355"><ele>575.0</ele><time>2026-05-03T11:41:38.537Z</time></trkpt><trkpt lat="44.37567" lon="10.7830055"><ele>572.6666666666667</ele><time>2026-05-03T11:41:39.538Z</time></trkpt><trkpt lat="44.3756209" lon="10.7830646"><ele>570.3333333333334</ele><time>2026-05-03T11:41:40.532Z</time></trkpt><trkpt lat="44.3755727" lon="10.7831224"><ele>568.0</ele><time>2026-05-03T11:41:41.533Z</time></trkpt><trkpt lat="44.3754934" lon="10.7832358"><ele>568.0</ele><time>2026-05-03T11:41:43.528Z</time></trkpt><trkpt lat="44.375463" lon="10.7833466"><ele>568.0</ele><time>2026-05-03T11:41:45.528Z</time></trkpt><trkpt lat="44.3755251" lon="10.783447"><ele>568.0</ele><time>2026-05-03T11:41:47.523Z</time></trkpt><trkpt lat="44.3755906" lon="10.7835017"><ele>568.0</ele><time>2026-05-03T11:41:48.519Z</time></trkpt><trkpt lat="44.3756658" lon="10.7835599"><ele>568.0</ele><time>2026-05-03T11:41:49.526Z</time></trkpt><trkpt lat="44.375757" lon="10.7836137"><ele>568.0</ele><time>2026-05-03T11:41:50.526Z</time></trkpt><trkpt lat="44.3758483" lon="10.7836731"><ele>566.6</ele><time>2026-05-03T11:41:51.533Z</time></trkpt><trkpt lat="44.3759286" lon="10.7837421"><ele>565.1999999999999</ele><time>2026-05-03T11:41:52.531Z</time></trkpt><trkpt lat="44.3759994" lon="10.7838185"><ele>563.8</ele><time>2026-05-03T11:41:53.533Z</time></trkpt><trkpt lat="44.3760616" lon="10.7839063"><ele>562.4</ele><time>2026-05-03T11:41:54.532Z</time></trkpt><trkpt lat="44.376125" lon="10.7840014"><ele>561.0</ele><time>2026-05-03T11:41:55.53Z</time></trkpt><trkpt lat="44.3761834" lon="10.7841015"><ele>561.0</ele><time>2026-05-03T11:41:56.533Z</time></trkpt><trkpt lat="44.3762266" lon="10.7841956"><ele>561.0</ele><time>2026-05-03T11:41:57.535Z</time></trkpt><trkpt lat="44.3762417" lon="10.7843026"><ele>561.0</ele><time>2026-05-03T11:41:58.528Z</time></trkpt><trkpt lat="44.3762476" lon="10.7844245"><ele>561.0</ele><time>2026-05-03T11:41:59.53Z</time></trkpt><trkpt lat="44.3762537" lon="10.784563"><ele>561.0</ele><time>2026-05-03T11:42:00.533Z</time></trkpt><trkpt lat="44.3762581" lon="10.7847004"><ele>561.0</ele><time>2026-05-03T11:42:01.541Z</time></trkpt><trkpt lat="44.3762655" lon="10.7848399"><ele>561.0</ele><time>2026-05-03T11:42:02.53Z</time></trkpt><trkpt lat="44.3762815" lon="10.7849805"><ele>561.0</ele><time>2026-05-03T11:42:03.535Z</time></trkpt><trkpt lat="44.3762901" lon="10.7851223"><ele>561.0</ele><time>2026-05-03T11:42:04.529Z</time></trkpt><trkpt lat="44.3762891" lon="10.7852571"><ele>561.0</ele><time>2026-05-03T11:42:05.532Z</time></trkpt><trkpt lat="44.3762858" lon="10.7853777"><ele>561.0</ele><time>2026-05-03T11:42:06.532Z</time></trkpt><trkpt lat="44.3762879" lon="10.7854909"><ele>562.0</ele><time>2026-05-03T11:42:07.535Z</time></trkpt><trkpt lat="44.376303" lon="10.7856019"><ele>563.0</ele><time>2026-05-03T11:42:08.529Z</time></trkpt><trkpt lat="44.3763336" lon="10.7856992"><ele>564.0</ele><time>2026-05-03T11:42:09.523Z</time></trkpt><trkpt lat="44.3763782" lon="10.7857899"><ele>565.0</ele><time>2026-05-03T11:42:10.527Z</time></trkpt><trkpt lat="44.3764384" lon="10.7858812"><ele>566.0</ele><time>2026-05-03T11:42:11.527Z</time></trkpt><trkpt lat="44.3765071" lon="10.7859546"><ele>567.0</ele><time>2026-05-03T11:42:12.521Z</time></trkpt><trkpt lat="44.3765797" lon="10.7860161"><ele>567.1666666666666</ele><time>2026-05-03T11:42:13.524Z</time></trkpt><trkpt lat="44.3766465" lon="10.7860895"><ele>567.3333333333334</ele><time>2026-05-03T11:42:14.525Z</time></trkpt><trkpt lat="44.3767121" lon="10.7861651"><ele>567.5</ele><time>2026-05-03T11:42:15.521Z</time></trkpt><trkpt lat="44.3767634" lon="10.7862347"><ele>567.6666666666667</ele><time>2026-05-03T11:42:16.532Z</time></trkpt><trkpt lat="44.3768304" lon="10.7862985"><ele>567.8333333333334</ele><time>2026-05-03T11:42:18.524Z</time></trkpt><trkpt lat="44.3768735" lon="10.7863675"><ele>568.0</ele><time>2026-05-03T11:42:21.528Z</time></trkpt><trkpt lat="44.3769118" lon="10.7864398"><ele>568.0</ele><time>2026-05-03T11:42:24.523Z</time></trkpt><trkpt lat="44.3769491" lon="10.7865137"><ele>568.0</ele><time>2026-05-03T11:42:54.537Z</time></trkpt><trkpt lat="44.3770058" lon="10.7866369"><ele>568.0</ele><time>2026-05-03T11:42:56.525Z</time></trkpt><trkpt lat="44.3770643" lon="10.7867191"><ele>568.0</ele><time>2026-05-03T11:42:57.522Z</time></trkpt><trkpt lat="44.3771216" lon="10.7868062"><ele>568.0</ele><time>2026-05-03T11:42:58.533Z</time></trkpt><trkpt lat="44.3771816" lon="10.7868865"><ele>568.0</ele><time>2026-05-03T11:42:59.524Z</time></trkpt><trkpt lat="44.3772373" lon="10.7869515"><ele>569.2857142857142</ele><time>2026-05-03T11:43:00.522Z</time></trkpt><trkpt lat="44.3772914" lon="10.7870201"><ele>570.5714285714286</ele><time>2026-05-03T11:43:01.52Z</time></trkpt><trkpt lat="44.3773397" lon="10.787088"><ele>571.8571428571429</ele><time>2026-05-03T11:43:02.523Z</time></trkpt><trkpt lat="44.377382" lon="10.7871626"><ele>573.1428571428571</ele><time>2026-05-03T11:43:03.52Z</time></trkpt><trkpt lat="44.3774169" lon="10.7872497"><ele>574.4285714285714</ele><time>2026-05-03T11:43:04.518Z</time></trkpt><trkpt lat="44.3774449" lon="10.7873335"><ele>575.7142857142857</ele><time>2026-05-03T11:43:05.526Z</time></trkpt><trkpt lat="44.3774575" lon="10.787428"><ele>577.0</ele><time>2026-05-03T11:43:06.522Z</time></trkpt><trkpt lat="44.3774555" lon="10.7875268"><ele>577.0</ele><time>2026-05-03T11:43:07.522Z</time></trkpt><trkpt lat="44.3774428" lon="10.787623"><ele>577.0</ele><time>2026-05-03T11:43:08.526Z</time></trkpt><trkpt lat="44.3774211" lon="10.7877165"><ele>577.0</ele><time>2026-05-03T11:43:09.522Z</time></trkpt><trkpt lat="44.3773927" lon="10.7878133"><ele>577.0</ele><time>2026-05-03T11:43:10.532Z</time></trkpt><trkpt lat="44.3773631" lon="10.7879062"><ele>577.0</ele><time>2026-05-03T11:43:11.533Z</time></trkpt><trkpt lat="44.377332" lon="10.7879981"><ele>577.0</ele><time>2026-05-03T11:43:12.536Z</time></trkpt><trkpt lat="44.3773069" lon="10.7880922"><ele>577.0</ele><time>2026-05-03T11:43:13.537Z</time></trkpt><trkpt lat="44.3772866" lon="10.7881781"><ele>580.3333333333334</ele><time>2026-05-03T11:43:14.536Z</time></trkpt><trkpt lat="44.3772519" lon="10.7883431"><ele>583.6666666666667</ele><time>2026-05-03T11:43:16.531Z</time></trkpt><trkpt lat="44.3772354" lon="10.7884912"><ele>587.0</ele><time>2026-05-03T11:43:18.525Z</time></trkpt><trkpt lat="44.3771995" lon="10.7885636"><ele>590.3333333333334</ele><time>2026-05-03T11:43:20.538Z</time></trkpt><trkpt lat="44.37714" lon="10.7885129"><ele>593.6666666666666</ele><time>2026-05-03T11:43:23.534Z</time></trkpt><trkpt lat="44.377082" lon="10.7884695"><ele>597.0</ele><time>2026-05-03T11:43:41.524Z</time></trkpt><trkpt lat="44.3770165" lon="10.7884525"><ele>598.0</ele><time>2026-05-03T11:43:42.526Z</time></trkpt><trkpt lat="44.3769339" lon="10.7884536"><ele>599.0</ele><time>2026-05-03T11:43:43.534Z</time></trkpt><trkpt lat="44.3768471" lon="10.7884561"><ele>600.0</ele><time>2026-05-03T11:43:44.539Z</time></trkpt><trkpt lat="44.3767667" lon="10.7884626"><ele>601.0</ele><time>2026-05-03T11:43:45.536Z</time></trkpt><trkpt lat="44.3766929" lon="10.7884901"><ele>602.0</ele><time>2026-05-03T11:43:46.538Z</time></trkpt><trkpt lat="44.3766463" lon="10.7885515"><ele>603.0</ele><time>2026-05-03T11:43:47.54Z</time></trkpt><trkpt lat="44.3766194" lon="10.7886312"><ele>605.8</ele><time>2026-05-03T11:43:48.548Z</time></trkpt><trkpt lat="44.3766361" lon="10.7888077"><ele>608.5999999999999</ele><time>2026-05-03T11:43:50.547Z</time></trkpt><trkpt lat="44.3766638" lon="10.7889132"><ele>611.4000000000001</ele><time>2026-05-03T11:43:51.539Z</time></trkpt><trkpt lat="44.3766968" lon="10.789026"><ele>614.2</ele><time>2026-05-03T11:43:52.54Z</time></trkpt><trkpt lat="44.3767307" lon="10.7891383"><ele>617.0</ele><time>2026-05-03T11:43:53.54Z</time></trkpt><trkpt lat="44.3767653" lon="10.7892584"><ele>619.3333333333333</ele><time>2026-05-03T11:43:54.535Z</time></trkpt><trkpt lat="44.376796" lon="10.789387"><ele>621.6666666666666</ele><time>2026-05-03T11:43:55.535Z</time></trkpt><trkpt lat="44.376822" lon="10.7895174"><ele>624.0</ele><time>2026-05-03T11:43:56.534Z</time></trkpt><trkpt lat="44.3768414" lon="10.789644"><ele>626.3333333333334</ele><time>2026-05-03T11:43:57.529Z</time></trkpt><trkpt lat="44.376856" lon="10.7897551"><ele>628.6666666666667</ele><time>2026-05-03T11:43:58.528Z</time></trkpt><trkpt lat="44.3768637" lon="10.7898522"><ele>631.0</ele><time>2026-05-03T11:43:59.535Z</time></trkpt><trkpt lat="44.376866" lon="10.7899481"><ele>631.0</ele><time>2026-05-03T11:44:00.553Z</time></trkpt><trkpt lat="44.3768832" lon="10.7901058"><ele>631.0</ele><time>2026-05-03T11:44:02.531Z</time></trkpt><trkpt lat="44.3769515" lon="10.7902392"><ele>631.0</ele><time>2026-05-03T11:44:04.534Z</time></trkpt><trkpt lat="44.3770095" lon="10.7902987"><ele>631.0</ele><time>2026-05-03T11:44:08.527Z</time></trkpt><trkpt lat="44.3769523" lon="10.7903729"><ele>631.0</ele><time>2026-05-03T11:44:39.517Z</time></trkpt><trkpt lat="44.3769328" lon="10.7905188"><ele>633.6</ele><time>2026-05-03T11:44:41.539Z</time></trkpt><trkpt lat="44.3769793" lon="10.7906837"><ele>636.2</ele><time>2026-05-03T11:44:43.53Z</time></trkpt><trkpt lat="44.3769772" lon="10.7908293"><ele>638.8000000000001</ele><time>2026-05-03T11:44:45.524Z</time></trkpt><trkpt lat="44.3769043" lon="10.7909924"><ele>641.4000000000001</ele><time>2026-05-03T11:44:47.523Z</time></trkpt><trkpt lat="44.3768577" lon="10.7910847"><ele>644.0</ele><time>2026-05-03T11:44:48.528Z</time></trkpt><trkpt lat="44.3768057" lon="10.7911888"><ele>645.6</ele><time>2026-05-03T11:44:49.529Z</time></trkpt><trkpt lat="44.3767687" lon="10.7913032"><ele>647.2</ele><time>2026-05-03T11:44:50.525Z</time></trkpt><trkpt lat="44.376741" lon="10.7914246"><ele>648.8000000000001</ele><time>2026-05-03T11:44:51.528Z</time></trkpt><trkpt lat="44.3767269" lon="10.7915635"><ele>650.4000000000001</ele><time>2026-05-03T11:44:52.528Z</time></trkpt><trkpt lat="44.376721" lon="10.7917102"><ele>652.0</ele><time>2026-05-03T11:44:53.536Z</time></trkpt><trkpt lat="44.3767121" lon="10.791864"><ele>653.4000000000001</ele><time>2026-05-03T11:44:54.538Z</time></trkpt><trkpt lat="44.3767004" lon="10.7920126"><ele>654.8000000000001</ele><time>2026-05-03T11:44:55.538Z</time></trkpt><trkpt lat="44.3766838" lon="10.7921505"><ele>656.2</ele><time>2026-05-03T11:44:56.543Z</time></trkpt><trkpt lat="44.3766579" lon="10.7922776"><ele>657.6</ele><time>2026-05-03T11:44:57.539Z</time></trkpt><trkpt lat="44.3766133" lon="10.7923883"><ele>659.0</ele><time>2026-05-03T11:44:58.538Z</time></trkpt><trkpt lat="44.3765455" lon="10.7924813"><ele>659.0</ele><time>2026-05-03T11:44:59.539Z</time></trkpt><trkpt lat="44.3764573" lon="10.7925431"><ele>659.0</ele><time>2026-05-03T11:45:00.536Z</time></trkpt><trkpt lat="44.376358" lon="10.7925763"><ele>659.0</ele><time>2026-05-03T11:45:01.553Z</time></trkpt><trkpt lat="44.3762509" lon="10.7925858"><ele>659.0</ele><time>2026-05-03T11:45:02.533Z</time></trkpt><trkpt lat="44.3761467" lon="10.7925644"><ele>659.0</ele><time>2026-05-03T11:45:03.528Z</time></trkpt><trkpt lat="44.3760451" lon="10.7925269"><ele>659.1666666666666</ele><time>2026-05-03T11:45:04.528Z</time></trkpt><trkpt lat="44.3759622" lon="10.7924865"><ele>659.3333333333333</ele><time>2026-05-03T11:45:05.536Z</time></trkpt><trkpt lat="44.3758917" lon="10.7924631"><ele>659.5</ele><time>2026-05-03T11:45:06.536Z</time></trkpt><trkpt lat="44.3758268" lon="10.7924697"><ele>659.6666666666666</ele><time>2026-05-03T11:45:07.537Z</time></trkpt><trkpt lat="44.3757564" lon="10.7925074"><ele>659.8333333333334</ele><time>2026-05-03T11:45:08.533Z</time></trkpt><trkpt lat="44.3756875" lon="10.7925668"><ele>660.0</ele><time>2026-05-03T11:45:09.533Z</time></trkpt><trkpt lat="44.375622" lon="10.7926518"><ele>663.0</ele><time>2026-05-03T11:45:10.535Z</time></trkpt><trkpt lat="44.3755521" lon="10.7927541"><ele>666.0</ele><time>2026-05-03T11:45:11.53Z</time></trkpt><trkpt lat="44.3754793" lon="10.7928676"><ele>669.0</ele><time>2026-05-03T11:45:12.54Z</time></trkpt><trkpt lat="44.375406" lon="10.7929824"><ele>672.0</ele><time>2026-05-03T11:45:13.534Z</time></trkpt><trkpt lat="44.3753278" lon="10.7930953"><ele>675.0</ele><time>2026-05-03T11:45:14.541Z</time></trkpt><trkpt lat="44.3752479" lon="10.7931995"><ele>675.0</ele><time>2026-05-03T11:45:15.527Z</time></trkpt><trkpt lat="44.3751582" lon="10.7932853"><ele>675.0</ele><time>2026-05-03T11:45:16.534Z</time></trkpt><trkpt lat="44.3750497" lon="10.7933335"><ele>675.0</ele><time>2026-05-03T11:45:17.534Z</time></trkpt><trkpt lat="44.3749226" lon="10.7933467"><ele>675.0</ele><time>2026-05-03T11:45:18.526Z</time></trkpt><trkpt lat="44.3747864" lon="10.7933487"><ele>674.4</ele><time>2026-05-03T11:45:19.527Z</time></trkpt><trkpt lat="44.3746488" lon="10.7933438"><ele>673.8</ele><time>2026-05-03T11:45:20.529Z</time></trkpt><trkpt lat="44.374529" lon="10.7933354"><ele>673.2</ele><time>2026-05-03T11:45:21.535Z</time></trkpt><trkpt lat="44.3744424" lon="10.793345"><ele>672.6</ele><time>2026-05-03T11:45:22.538Z</time></trkpt><trkpt lat="44.3743792" lon="10.7933734"><ele>672.0</ele><time>2026-05-03T11:45:23.537Z</time></trkpt><trkpt lat="44.374332" lon="10.793432"><ele>672.6</ele><time>2026-05-03T11:45:24.536Z</time></trkpt><trkpt lat="44.3743033" lon="10.7935394"><ele>673.2</ele><time>2026-05-03T11:45:25.535Z</time></trkpt><trkpt lat="44.3743001" lon="10.7936796"><ele>673.8</ele><time>2026-05-03T11:45:26.537Z</time></trkpt><trkpt lat="44.3742982" lon="10.793844"><ele>674.4</ele><time>2026-05-03T11:45:27.531Z</time></trkpt><trkpt lat="44.3742931" lon="10.7940202"><ele>675.0</ele><time>2026-05-03T11:45:28.532Z</time></trkpt><trkpt lat="44.3742847" lon="10.7941986"><ele>676.5</ele><time>2026-05-03T11:45:29.529Z</time></trkpt><trkpt lat="44.3742802" lon="10.7943908"><ele>678.0</ele><time>2026-05-03T11:45:30.527Z</time></trkpt><trkpt lat="44.3742602" lon="10.794585"><ele>679.5</ele><time>2026-05-03T11:45:31.541Z</time></trkpt><trkpt lat="44.3742152" lon="10.7947919"><ele>681.0</ele><time>2026-05-03T11:45:32.543Z</time></trkpt><trkpt lat="44.37415" lon="10.7949831"><ele>681.0</ele><time>2026-05-03T11:45:33.537Z</time></trkpt><trkpt lat="44.3740644" lon="10.7951142"><ele>681.0</ele><time>2026-05-03T11:45:34.533Z</time></trkpt><trkpt lat="44.3739489" lon="10.7951888"><ele>681.0</ele><time>2026-05-03T11:45:35.533Z</time></trkpt><trkpt lat="44.373827" lon="10.7952308"><ele>681.0</ele><time>2026-05-03T11:45:36.533Z</time></trkpt><trkpt lat="44.3737185" lon="10.7952906"><ele>680.0</ele><time>2026-05-03T11:45:37.53Z</time></trkpt><trkpt lat="44.3736118" lon="10.7953644"><ele>679.0</ele><time>2026-05-03T11:45:38.538Z</time></trkpt><trkpt lat="44.3735176" lon="10.7954725"><ele>678.0</ele><time>2026-05-03T11:45:39.534Z</time></trkpt><trkpt lat="44.3734236" lon="10.7955968"><ele>677.0</ele><time>2026-05-03T11:45:40.53Z</time></trkpt><trkpt lat="44.3733471" lon="10.7957311"><ele>677.0</ele><time>2026-05-03T11:45:41.529Z</time></trkpt><trkpt lat="44.3732835" lon="10.7958807"><ele>677.0</ele><time>2026-05-03T11:45:42.533Z</time></trkpt><trkpt lat="44.3732312" lon="10.7960594"><ele>677.0</ele><time>2026-05-03T11:45:43.535Z</time></trkpt><trkpt lat="44.3731784" lon="10.796251"><ele>677.0</ele><time>2026-05-03T11:45:44.532Z</time></trkpt><trkpt lat="44.3731081" lon="10.7964411"><ele>676.6666666666666</ele><time>2026-05-03T11:45:45.528Z</time></trkpt><trkpt lat="44.3730171" lon="10.7966075"><ele>676.3333333333334</ele><time>2026-05-03T11:45:46.529Z</time></trkpt><trkpt lat="44.3729137" lon="10.7967571"><ele>676.0</ele><time>2026-05-03T11:45:47.529Z</time></trkpt><trkpt lat="44.3728053" lon="10.7969101"><ele>679.0</ele><time>2026-05-03T11:45:48.529Z</time></trkpt><trkpt lat="44.3726866" lon="10.7970803"><ele>682.0</ele><time>2026-05-03T11:45:49.528Z</time></trkpt><trkpt lat="44.3725763" lon="10.797255"><ele>685.0</ele><time>2026-05-03T11:45:50.532Z</time></trkpt><trkpt lat="44.3724529" lon="10.797416"><ele>685.0</ele><time>2026-05-03T11:45:51.524Z</time></trkpt><trkpt lat="44.3723181" lon="10.797576"><ele>685.0</ele><time>2026-05-03T11:45:52.523Z</time></trkpt><trkpt lat="44.3721828" lon="10.7977073"><ele>685.0</ele><time>2026-05-03T11:45:53.52Z</time></trkpt><trkpt lat="44.372054" lon="10.7978239"><ele>687.0</ele><time>2026-05-03T11:45:54.52Z</time></trkpt><trkpt lat="44.3719333" lon="10.7979418"><ele>689.0</ele><time>2026-05-03T11:45:55.525Z</time></trkpt><trkpt lat="44.3718204" lon="10.7980631"><ele>691.0</ele><time>2026-05-03T11:45:56.528Z</time></trkpt><trkpt lat="44.3717172" lon="10.7981952"><ele>693.0</ele><time>2026-05-03T11:45:57.521Z</time></trkpt><trkpt lat="44.3716368" lon="10.798333"><ele>693.0</ele><time>2026-05-03T11:45:58.525Z</time></trkpt><trkpt lat="44.3715874" lon="10.7984863"><ele>693.0</ele><time>2026-05-03T11:45:59.529Z</time></trkpt><trkpt lat="44.371565" lon="10.7986685"><ele>693.0</ele><time>2026-05-03T11:46:00.519Z</time></trkpt><trkpt lat="44.3715343" lon="10.7988599"><ele>693.0</ele><time>2026-05-03T11:46:01.53Z</time></trkpt><trkpt lat="44.3715111" lon="10.7990641"><ele>695.0</ele><time>2026-05-03T11:46:02.522Z</time></trkpt><trkpt lat="44.3714726" lon="10.7992514"><ele>697.0</ele><time>2026-05-03T11:46:03.53Z</time></trkpt><trkpt lat="44.3714241" lon="10.7994422"><ele>699.0</ele><time>2026-05-03T11:46:04.527Z</time></trkpt><trkpt lat="44.3713649" lon="10.7996113"><ele>701.0</ele><time>2026-05-03T11:46:05.528Z</time></trkpt><trkpt lat="44.3713046" lon="10.7997557"><ele>701.8</ele><time>2026-05-03T11:46:06.529Z</time></trkpt><trkpt lat="44.3712516" lon="10.79988"><ele>702.5999999999999</ele><time>2026-05-03T11:46:07.534Z</time></trkpt><trkpt lat="44.3712095" lon="10.8000123"><ele>703.4</ele><time>2026-05-03T11:46:08.528Z</time></trkpt><trkpt lat="44.3711978" lon="10.8001445"><ele>704.2</ele><time>2026-05-03T11:46:09.534Z</time></trkpt><trkpt lat="44.3712431" lon="10.800288"><ele>705.0</ele><time>2026-05-03T11:46:10.533Z</time></trkpt><trkpt lat="44.3712929" lon="10.8004592"><ele>705.5</ele><time>2026-05-03T11:46:11.534Z</time></trkpt><trkpt lat="44.3713441" lon="10.8006257"><ele>706.0</ele><time>2026-05-03T11:46:12.533Z</time></trkpt><trkpt lat="44.3713969" lon="10.8007954"><ele>706.5</ele><time>2026-05-03T11:46:13.536Z</time></trkpt><trkpt lat="44.3714482" lon="10.8009483"><ele>707.0</ele><time>2026-05-03T11:46:14.54Z</time></trkpt><trkpt lat="44.371517" lon="10.8010675"><ele>709.25</ele><time>2026-05-03T11:46:15.534Z</time></trkpt><trkpt lat="44.3716069" lon="10.8011487"><ele>711.5</ele><time>2026-05-03T11:46:16.533Z</time></trkpt><trkpt lat="44.3717211" lon="10.8012047"><ele>713.75</ele><time>2026-05-03T11:46:17.533Z</time></trkpt><trkpt lat="44.3718478" lon="10.8012596"><ele>716.0</ele><time>2026-05-03T11:46:18.538Z</time></trkpt><trkpt lat="44.3719769" lon="10.8013333"><ele>716.0</ele><time>2026-05-03T11:46:19.526Z</time></trkpt><trkpt lat="44.3721136" lon="10.8014156"><ele>716.0</ele><time>2026-05-03T11:46:20.527Z</time></trkpt><trkpt lat="44.3722604" lon="10.8015068"><ele>716.0</ele><time>2026-05-03T11:46:21.525Z</time></trkpt><trkpt lat="44.3724036" lon="10.8016046"><ele>716.5</ele><time>2026-05-03T11:46:22.525Z</time></trkpt><trkpt lat="44.3725462" lon="10.8016916"><ele>717.0</ele><time>2026-05-03T11:46:23.523Z</time></trkpt><trkpt lat="44.3726723" lon="10.801777"><ele>717.5</ele><time>2026-05-03T11:46:24.529Z</time></trkpt><trkpt lat="44.3728045" lon="10.8018473"><ele>718.0</ele><time>2026-05-03T11:46:25.533Z</time></trkpt><trkpt lat="44.372947" lon="10.8018885"><ele>719.0</ele><time>2026-05-03T11:46:26.529Z</time></trkpt><trkpt lat="44.3731112" lon="10.8018727"><ele>720.0</ele><time>2026-05-03T11:46:27.533Z</time></trkpt><trkpt lat="44.3732747" lon="10.8018237"><ele>721.0</ele><time>2026-05-03T11:46:28.531Z</time></trkpt><trkpt lat="44.3734372" lon="10.8017798"><ele>721.0</ele><time>2026-05-03T11:46:29.531Z</time></trkpt><trkpt lat="44.3735849" lon="10.801734"><ele>721.0</ele><time>2026-05-03T11:46:30.53Z</time></trkpt><trkpt lat="44.3737134" lon="10.8016989"><ele>721.0</ele><time>2026-05-03T11:46:31.537Z</time></trkpt><trkpt lat="44.3738301" lon="10.8016622"><ele>721.0</ele><time>2026-05-03T11:46:32.531Z</time></trkpt><trkpt lat="44.3739373" lon="10.801634"><ele>721.5999999999999</ele><time>2026-05-03T11:46:33.529Z</time></trkpt><trkpt lat="44.3740141" lon="10.8016241"><ele>722.2</ele><time>2026-05-03T11:46:34.535Z</time></trkpt><trkpt lat="44.3741048" lon="10.8016491"><ele>722.8</ele><time>2026-05-03T11:46:36.53Z</time></trkpt><trkpt lat="44.3741431" lon="10.8017992"><ele>723.4000000000001</ele><time>2026-05-03T11:46:38.538Z</time></trkpt><trkpt lat="44.3741368" lon="10.8019438"><ele>724.0</ele><time>2026-05-03T11:46:39.535Z</time></trkpt><trkpt lat="44.3741217" lon="10.8021078"><ele>725.25</ele><time>2026-05-03T11:46:40.533Z</time></trkpt><trkpt lat="44.3740926" lon="10.8022833"><ele>726.5</ele><time>2026-05-03T11:46:41.538Z</time></trkpt><trkpt lat="44.374047" lon="10.8024559"><ele>727.75</ele><time>2026-05-03T11:46:42.535Z</time></trkpt><trkpt lat="44.373957" lon="10.8026031"><ele>729.0</ele><time>2026-05-03T11:46:43.538Z</time></trkpt><trkpt lat="44.373827" lon="10.8027033"><ele>729.75</ele><time>2026-05-03T11:46:44.539Z</time></trkpt><trkpt lat="44.373672" lon="10.8027756"><ele>730.5</ele><time>2026-05-03T11:46:45.542Z</time></trkpt><trkpt lat="44.3735311" lon="10.8028491"><ele>731.25</ele><time>2026-05-03T11:46:46.535Z</time></trkpt><trkpt lat="44.3734112" lon="10.8029276"><ele>732.0</ele><time>2026-05-03T11:46:47.525Z</time></trkpt><trkpt lat="44.3733241" lon="10.8030126"><ele>732.0</ele><time>2026-05-03T11:46:48.526Z</time></trkpt><trkpt lat="44.3732695" lon="10.8031146"><ele>732.0</ele><time>2026-05-03T11:46:49.538Z</time></trkpt><trkpt lat="44.373269" lon="10.8032675"><ele>732.0</ele><time>2026-05-03T11:46:50.537Z</time></trkpt><trkpt lat="44.3733086" lon="10.8034146"><ele>732.0</ele><time>2026-05-03T11:46:51.537Z</time></trkpt><trkpt lat="44.3733709" lon="10.8035514"><ele>732.0</ele><time>2026-05-03T11:46:52.528Z</time></trkpt><trkpt lat="44.373451" lon="10.8036979"><ele>732.2</ele><time>2026-05-03T11:46:53.531Z</time></trkpt><trkpt lat="44.3735112" lon="10.8038244"><ele>732.4000000000001</ele><time>2026-05-03T11:46:54.529Z</time></trkpt><trkpt lat="44.3735511" lon="10.8039383"><ele>732.5999999999999</ele><time>2026-05-03T11:46:55.538Z</time></trkpt><trkpt lat="44.373501" lon="10.8040392"><ele>732.8</ele><time>2026-05-03T11:46:57.533Z</time></trkpt><trkpt lat="44.3734269" lon="10.8040465"><ele>733.0</ele><time>2026-05-03T11:46:58.538Z</time></trkpt><trkpt lat="44.3733229" lon="10.804032"><ele>733.0</ele><time>2026-05-03T11:46:59.534Z</time></trkpt><trkpt lat="44.3731968" lon="10.8040013"><ele>733.0</ele><time>2026-05-03T11:47:00.526Z</time></trkpt><trkpt lat="44.3730759" lon="10.8039695"><ele>733.0</ele><time>2026-05-03T11:47:01.528Z</time></trkpt><trkpt lat="44.3729444" lon="10.8039301"><ele>733.0</ele><time>2026-05-03T11:47:02.525Z</time></trkpt><trkpt lat="44.3727966" lon="10.8038853"><ele>732.0</ele><time>2026-05-03T11:47:03.533Z</time></trkpt><trkpt lat="44.3726452" lon="10.8038405"><ele>731.0</ele><time>2026-05-03T11:47:04.534Z</time></trkpt><trkpt lat="44.3724897" lon="10.8037962"><ele>730.0</ele><time>2026-05-03T11:47:05.551Z</time></trkpt><trkpt lat="44.3723289" lon="10.8037506"><ele>729.0</ele><time>2026-05-03T11:47:06.54Z</time></trkpt><trkpt lat="44.3721667" lon="10.8037026"><ele>728.0</ele><time>2026-05-03T11:47:07.539Z</time></trkpt><trkpt lat="44.3720043" lon="10.8036382"><ele>727.0</ele><time>2026-05-03T11:47:08.536Z</time></trkpt><trkpt lat="44.3718438" lon="10.8035536"><ele>728.6666666666667</ele><time>2026-05-03T11:47:09.534Z</time></trkpt><trkpt lat="44.3716923" lon="10.8034759"><ele>730.3333333333334</ele><time>2026-05-03T11:47:10.54Z</time></trkpt><trkpt lat="44.3715486" lon="10.8033911"><ele>732.0</ele><time>2026-05-03T11:47:11.54Z</time></trkpt><trkpt lat="44.3714058" lon="10.8033104"><ele>731.0</ele><time>2026-05-03T11:47:12.538Z</time></trkpt><trkpt lat="44.3712639" lon="10.8032332"><ele>730.0</ele><time>2026-05-03T11:47:13.538Z</time></trkpt><trkpt lat="44.3711117" lon="10.8031601"><ele>729.0</ele><time>2026-05-03T11:47:14.537Z</time></trkpt><trkpt lat="44.3709534" lon="10.8030728"><ele>729.0</ele><time>2026-05-03T11:47:15.539Z</time></trkpt><trkpt lat="44.3707907" lon="10.8029877"><ele>729.0</ele><time>2026-05-03T11:47:16.553Z</time></trkpt><trkpt lat="44.3706337" lon="10.8029021"><ele>729.0</ele><time>2026-05-03T11:47:17.539Z</time></trkpt><trkpt lat="44.3704735" lon="10.802816"><ele>729.0</ele><time>2026-05-03T11:47:18.538Z</time></trkpt><trkpt lat="44.3703318" lon="10.802731"><ele>729.0</ele><time>2026-05-03T11:47:19.539Z</time></trkpt><trkpt lat="44.3701872" lon="10.8026337"><ele>729.0</ele><time>2026-05-03T11:47:20.542Z</time></trkpt><trkpt lat="44.3700515" lon="10.8025372"><ele>729.0</ele><time>2026-05-03T11:47:21.539Z</time></trkpt><trkpt lat="44.3699099" lon="10.8024451"><ele>729.0</ele><time>2026-05-03T11:47:22.536Z</time></trkpt><trkpt lat="44.3697665" lon="10.8023683"><ele>729.0</ele><time>2026-05-03T11:47:23.536Z</time></trkpt><trkpt lat="44.3696248" lon="10.8022982"><ele>729.0</ele><time>2026-05-03T11:47:24.539Z</time></trkpt><trkpt lat="44.3694681" lon="10.8022338"><ele>729.0</ele><time>2026-05-03T11:47:25.535Z</time></trkpt><trkpt lat="44.3693123" lon="10.8021815"><ele>729.0</ele><time>2026-05-03T11:47:26.542Z</time></trkpt><trkpt lat="44.3691617" lon="10.8021321"><ele>729.0</ele><time>2026-05-03T11:47:27.539Z</time></trkpt><trkpt lat="44.3690154" lon="10.8020833"><ele>729.0</ele><time>2026-05-03T11:47:28.534Z</time></trkpt><trkpt lat="44.3688558" lon="10.8020568"><ele>729.0</ele><time>2026-05-03T11:47:29.54Z</time></trkpt><trkpt lat="44.368695" lon="10.8020692"><ele>727.6666666666666</ele><time>2026-05-03T11:47:30.534Z</time></trkpt><trkpt lat="44.3685365" lon="10.8020763"><ele>726.3333333333333</ele><time>2026-05-03T11:47:31.546Z</time></trkpt><trkpt lat="44.3683663" lon="10.8020753"><ele>725.0</ele><time>2026-05-03T11:47:32.541Z</time></trkpt><trkpt lat="44.368194" lon="10.8020669"><ele>725.3333333333333</ele><time>2026-05-03T11:47:33.539Z</time></trkpt><trkpt lat="44.3680242" lon="10.802056"><ele>725.6666666666666</ele><time>2026-05-03T11:47:34.539Z</time></trkpt><trkpt lat="44.3678591" lon="10.8020438"><ele>726.0</ele><time>2026-05-03T11:47:35.54Z</time></trkpt><trkpt lat="44.3676964" lon="10.8020355"><ele>726.0</ele><time>2026-05-03T11:47:36.55Z</time></trkpt><trkpt lat="44.3675352" lon="10.802011"><ele>726.0</ele><time>2026-05-03T11:47:37.534Z</time></trkpt><trkpt lat="44.3673738" lon="10.8019468"><ele>726.0</ele><time>2026-05-03T11:47:38.541Z</time></trkpt><trkpt lat="44.3672223" lon="10.8018555"><ele>728.3333333333334</ele><time>2026-05-03T11:47:39.533Z</time></trkpt><trkpt lat="44.3670632" lon="10.8017612"><ele>730.6666666666667</ele><time>2026-05-03T11:47:40.535Z</time></trkpt><trkpt lat="44.3669009" lon="10.801656"><ele>733.0</ele><time>2026-05-03T11:47:41.54Z</time></trkpt><trkpt lat="44.3667427" lon="10.8015399"><ele>733.0</ele><time>2026-05-03T11:47:42.538Z</time></trkpt><trkpt lat="44.3665881" lon="10.8014344"><ele>733.0</ele><time>2026-05-03T11:47:43.537Z</time></trkpt><trkpt lat="44.3664439" lon="10.8013483"><ele>733.0</ele><time>2026-05-03T11:47:44.541Z</time></trkpt><trkpt lat="44.3663077" lon="10.8012918"><ele>733.3333333333334</ele><time>2026-05-03T11:47:45.536Z</time></trkpt><trkpt lat="44.3661545" lon="10.8012507"><ele>733.6666666666666</ele><time>2026-05-03T11:47:46.539Z</time></trkpt><trkpt lat="44.365997" lon="10.8012034"><ele>734.0</ele><time>2026-05-03T11:47:47.528Z</time></trkpt><trkpt lat="44.3658381" lon="10.8011261"><ele>734.0</ele><time>2026-05-03T11:47:48.536Z</time></trkpt><trkpt lat="44.3656824" lon="10.8010218"><ele>734.0</ele><time>2026-05-03T11:47:49.533Z</time></trkpt><trkpt lat="44.3655416" lon="10.8008845"><ele>734.0</ele><time>2026-05-03T11:47:50.538Z</time></trkpt><trkpt lat="44.3654046" lon="10.8007588"><ele>735.6666666666666</ele><time>2026-05-03T11:47:51.535Z</time></trkpt><trkpt lat="44.3652661" lon="10.8006196"><ele>737.3333333333334</ele><time>2026-05-03T11:47:52.539Z</time></trkpt><trkpt lat="44.3651236" lon="10.8004873"><ele>739.0</ele><time>2026-05-03T11:47:53.544Z</time></trkpt><trkpt lat="44.3649869" lon="10.8003556"><ele>739.0</ele><time>2026-05-03T11:47:54.541Z</time></trkpt><trkpt lat="44.3648495" lon="10.8002226"><ele>739.0</ele><time>2026-05-03T11:47:55.546Z</time></trkpt><trkpt lat="44.3647141" lon="10.8000905"><ele>739.0</ele><time>2026-05-03T11:47:56.543Z</time></trkpt><trkpt lat="44.3645889" lon="10.7999533"><ele>740.6666666666667</ele><time>2026-05-03T11:47:57.54Z</time></trkpt><trkpt lat="44.3644672" lon="10.7998066"><ele>742.3333333333334</ele><time>2026-05-03T11:47:58.539Z</time></trkpt><trkpt lat="44.3643534" lon="10.7996681"><ele>744.0</ele><time>2026-05-03T11:47:59.544Z</time></trkpt><trkpt lat="44.3642371" lon="10.7995339"><ele>744.0</ele><time>2026-05-03T11:48:00.543Z</time></trkpt><trkpt lat="44.3641119" lon="10.7993997"><ele>744.0</ele><time>2026-05-03T11:48:01.544Z</time></trkpt><trkpt lat="44.3639942" lon="10.7992658"><ele>744.0</ele><time>2026-05-03T11:48:02.536Z</time></trkpt><trkpt lat="44.3638814" lon="10.7991642"><ele>744.0</ele><time>2026-05-03T11:48:03.541Z</time></trkpt><trkpt lat="44.3637881" lon="10.7990801"><ele>745.1666666666666</ele><time>2026-05-03T11:48:04.532Z</time></trkpt><trkpt lat="44.3637036" lon="10.7990193"><ele>746.3333333333334</ele><time>2026-05-03T11:48:05.539Z</time></trkpt><trkpt lat="44.3636251" lon="10.7989501"><ele>747.5</ele><time>2026-05-03T11:48:06.537Z</time></trkpt><trkpt lat="44.3635582" lon="10.798867"><ele>748.6666666666667</ele><time>2026-05-03T11:48:07.545Z</time></trkpt><trkpt lat="44.3635077" lon="10.7988018"><ele>749.8333333333334</ele><time>2026-05-03T11:48:08.53Z</time></trkpt><trkpt lat="44.363456" lon="10.7986975"><ele>751.0</ele><time>2026-05-03T11:48:09.532Z</time></trkpt><trkpt lat="44.3633923" lon="10.7986128"><ele>751.0</ele><time>2026-05-03T11:48:10.526Z</time></trkpt><trkpt lat="44.3633174" lon="10.7985494"><ele>751.0</ele><time>2026-05-03T11:48:11.538Z</time></trkpt><trkpt lat="44.3632207" lon="10.798506"><ele>751.0</ele><time>2026-05-03T11:48:12.537Z</time></trkpt><trkpt lat="44.36311" lon="10.7984547"><ele>751.0</ele><time>2026-05-03T11:48:13.544Z</time></trkpt><trkpt lat="44.3630056" lon="10.7983922"><ele>751.0</ele><time>2026-05-03T11:48:14.53Z</time></trkpt><trkpt lat="44.3629131" lon="10.7983111"><ele>751.0</ele><time>2026-05-03T11:48:15.538Z</time></trkpt><trkpt lat="44.3628301" lon="10.7982083"><ele>751.0</ele><time>2026-05-03T11:48:16.533Z</time></trkpt><trkpt lat="44.3627554" lon="10.7980892"><ele>751.0</ele><time>2026-05-03T11:48:17.543Z</time></trkpt><trkpt lat="44.3626901" lon="10.7979729"><ele>751.0</ele><time>2026-05-03T11:48:18.528Z</time></trkpt><trkpt lat="44.3626363" lon="10.7978549"><ele>751.0</ele><time>2026-05-03T11:48:19.539Z</time></trkpt><trkpt lat="44.362615" lon="10.7977277"><ele>751.5</ele><time>2026-05-03T11:48:20.541Z</time></trkpt><trkpt lat="44.3625952" lon="10.7975734"><ele>752.0</ele><time>2026-05-03T11:48:21.533Z</time></trkpt><trkpt lat="44.3625631" lon="10.7974102"><ele>752.5</ele><time>2026-05-03T11:48:22.531Z</time></trkpt><trkpt lat="44.3625225" lon="10.7972463"><ele>753.0</ele><time>2026-05-03T11:48:23.536Z</time></trkpt><trkpt lat="44.3624703" lon="10.7970722"><ele>753.0</ele><time>2026-05-03T11:48:24.535Z</time></trkpt><trkpt lat="44.3624187" lon="10.7968825"><ele>753.0</ele><time>2026-05-03T11:48:25.534Z</time></trkpt><trkpt lat="44.3623659" lon="10.7966981"><ele>753.0</ele><time>2026-05-03T11:48:26.541Z</time></trkpt><trkpt lat="44.3623166" lon="10.796507"><ele>753.0</ele><time>2026-05-03T11:48:27.533Z</time></trkpt><trkpt lat="44.3622649" lon="10.7963171"><ele>753.25</ele><time>2026-05-03T11:48:28.536Z</time></trkpt><trkpt lat="44.3622082" lon="10.7961353"><ele>753.5</ele><time>2026-05-03T11:48:29.539Z</time></trkpt><trkpt lat="44.362155" lon="10.7959559"><ele>753.75</ele><time>2026-05-03T11:48:30.536Z</time></trkpt><trkpt lat="44.3621064" lon="10.7957744"><ele>754.0</ele><time>2026-05-03T11:48:31.546Z</time></trkpt><trkpt lat="44.3620718" lon="10.7955916"><ele>752.5</ele><time>2026-05-03T11:48:32.538Z</time></trkpt><trkpt lat="44.3620271" lon="10.7954014"><ele>751.0</ele><time>2026-05-03T11:48:33.538Z</time></trkpt><trkpt lat="44.3619687" lon="10.7952123"><ele>749.5</ele><time>2026-05-03T11:48:34.532Z</time></trkpt><trkpt lat="44.3618989" lon="10.7950372"><ele>748.0</ele><time>2026-05-03T11:48:35.535Z</time></trkpt><trkpt lat="44.3618202" lon="10.7948773"><ele>748.0</ele><time>2026-05-03T11:48:36.536Z</time></trkpt><trkpt lat="44.3617409" lon="10.7947314"><ele>748.0</ele><time>2026-05-03T11:48:37.536Z</time></trkpt><trkpt lat="44.3616676" lon="10.7945961"><ele>748.0</ele><time>2026-05-03T11:48:38.557Z</time></trkpt><trkpt lat="44.3615964" lon="10.7944534"><ele>748.0</ele><time>2026-05-03T11:48:39.538Z</time></trkpt><trkpt lat="44.3615304" lon="10.7943141"><ele>748.5999999999999</ele><time>2026-05-03T11:48:40.544Z</time></trkpt><trkpt lat="44.3614666" lon="10.7941884"><ele>749.1999999999999</ele><time>2026-05-03T11:48:41.533Z</time></trkpt><trkpt lat="44.361409" lon="10.7940645"><ele>749.8</ele><time>2026-05-03T11:48:42.531Z</time></trkpt><trkpt lat="44.3613544" lon="10.7939474"><ele>750.4</ele><time>2026-05-03T11:48:43.535Z</time></trkpt><trkpt lat="44.361307" lon="10.7938389"><ele>751.0</ele><time>2026-05-03T11:48:44.539Z</time></trkpt><trkpt lat="44.3612591" lon="10.7937401"><ele>751.0</ele><time>2026-05-03T11:48:45.54Z</time></trkpt><trkpt lat="44.3612008" lon="10.7936443"><ele>751.0</ele><time>2026-05-03T11:48:46.534Z</time></trkpt><trkpt lat="44.3611257" lon="10.7935454"><ele>751.0</ele><time>2026-05-03T11:48:47.533Z</time></trkpt><trkpt lat="44.3610401" lon="10.7934476"><ele>751.0</ele><time>2026-05-03T11:48:48.546Z</time></trkpt><trkpt lat="44.3609381" lon="10.7933674"><ele>751.0</ele><time>2026-05-03T11:48:49.541Z</time></trkpt><trkpt lat="44.360829" lon="10.7933126"><ele>750.5</ele><time>2026-05-03T11:48:50.545Z</time></trkpt><trkpt lat="44.3606943" lon="10.7932689"><ele>750.0</ele><time>2026-05-03T11:48:51.538Z</time></trkpt><trkpt lat="44.3605485" lon="10.793217"><ele>749.5</ele><time>2026-05-03T11:48:52.533Z</time></trkpt><trkpt lat="44.3604101" lon="10.7931577"><ele>749.0</ele><time>2026-05-03T11:48:53.536Z</time></trkpt><trkpt lat="44.3602791" lon="10.7931023"><ele>747.8000000000001</ele><time>2026-05-03T11:48:54.535Z</time></trkpt><trkpt lat="44.3601554" lon="10.7930453"><ele>746.6</ele><time>2026-05-03T11:48:55.54Z</time></trkpt><trkpt lat="44.3600413" lon="10.7929848"><ele>745.4</ele><time>2026-05-03T11:48:56.54Z</time></trkpt><trkpt lat="44.3599555" lon="10.7929323"><ele>744.2</ele><time>2026-05-03T11:48:57.533Z</time></trkpt><trkpt lat="44.359901" lon="10.7928487"><ele>743.0</ele><time>2026-05-03T11:48:58.54Z</time></trkpt><trkpt lat="44.3598852" lon="10.7927469"><ele>742.2</ele><time>2026-05-03T11:48:59.539Z</time></trkpt><trkpt lat="44.3598944" lon="10.7926306"><ele>741.4</ele><time>2026-05-03T11:49:00.541Z</time></trkpt><trkpt lat="44.3598862" lon="10.7925073"><ele>740.6</ele><time>2026-05-03T11:49:01.545Z</time></trkpt><trkpt lat="44.3598599" lon="10.7923809"><ele>739.8000000000001</ele><time>2026-05-03T11:49:02.532Z</time></trkpt><trkpt lat="44.3598142" lon="10.7922587"><ele>739.0</ele><time>2026-05-03T11:49:03.537Z</time></trkpt><trkpt lat="44.3597463" lon="10.7921475"><ele>737.0</ele><time>2026-05-03T11:49:04.535Z</time></trkpt><trkpt lat="44.3596601" lon="10.7920433"><ele>735.0</ele><time>2026-05-03T11:49:05.529Z</time></trkpt><trkpt lat="44.3595711" lon="10.7919345"><ele>733.0</ele><time>2026-05-03T11:49:06.54Z</time></trkpt><trkpt lat="44.3594869" lon="10.7918264"><ele>731.0</ele><time>2026-05-03T11:49:07.538Z</time></trkpt><trkpt lat="44.3594129" lon="10.791728"><ele>729.0</ele><time>2026-05-03T11:49:08.545Z</time></trkpt><trkpt lat="44.3593446" lon="10.7916403"><ele>728.0</ele><time>2026-05-03T11:49:09.54Z</time></trkpt><trkpt lat="44.3592716" lon="10.7915604"><ele>727.0</ele><time>2026-05-03T11:49:10.535Z</time></trkpt><trkpt lat="44.3591933" lon="10.791491"><ele>726.0</ele><time>2026-05-03T11:49:11.543Z</time></trkpt><trkpt lat="44.359106" lon="10.7914321"><ele>725.0</ele><time>2026-05-03T11:49:12.538Z</time></trkpt><trkpt lat="44.3590156" lon="10.7913806"><ele>724.0</ele><time>2026-05-03T11:49:13.539Z</time></trkpt><trkpt lat="44.3589113" lon="10.7913456"><ele>722.2</ele><time>2026-05-03T11:49:14.542Z</time></trkpt><trkpt lat="44.3588022" lon="10.7913333"><ele>720.4000000000001</ele><time>2026-05-03T11:49:15.532Z</time></trkpt><trkpt lat="44.3586875" lon="10.791341"><ele>718.6</ele><time>2026-05-03T11:49:16.539Z</time></trkpt><trkpt lat="44.3585799" lon="10.7913444"><ele>716.8</ele><time>2026-05-03T11:49:17.539Z</time></trkpt><trkpt lat="44.3584906" lon="10.7913114"><ele>715.0</ele><time>2026-05-03T11:49:18.537Z</time></trkpt><trkpt lat="44.3584139" lon="10.7912275"><ele>715.0</ele><time>2026-05-03T11:49:19.543Z</time></trkpt><trkpt lat="44.358326" lon="10.7911096"><ele>715.0</ele><time>2026-05-03T11:49:20.537Z</time></trkpt><trkpt lat="44.3582221" lon="10.7909973"><ele>715.0</ele><time>2026-05-03T11:49:21.537Z</time></trkpt><trkpt lat="44.3581022" lon="10.7909044"><ele>715.0</ele><time>2026-05-03T11:49:22.526Z</time></trkpt><trkpt lat="44.3579967" lon="10.7908311"><ele>710.8</ele><time>2026-05-03T11:49:23.535Z</time></trkpt><trkpt lat="44.3578924" lon="10.7907726"><ele>706.6</ele><time>2026-05-03T11:49:24.535Z</time></trkpt><trkpt lat="44.3577892" lon="10.7907172"><ele>702.4000000000001</ele><time>2026-05-03T11:49:25.527Z</time></trkpt><trkpt lat="44.3576929" lon="10.7906427"><ele>698.2</ele><time>2026-05-03T11:49:26.539Z</time></trkpt><trkpt lat="44.3576002" lon="10.790545"><ele>694.0</ele><time>2026-05-03T11:49:27.533Z</time></trkpt><trkpt lat="44.357501" lon="10.7904486"><ele>694.0</ele><time>2026-05-03T11:49:28.537Z</time></trkpt><trkpt lat="44.3573952" lon="10.7903583"><ele>694.0</ele><time>2026-05-03T11:49:29.538Z</time></trkpt><trkpt lat="44.3572985" lon="10.7902573"><ele>694.0</ele><time>2026-05-03T11:49:30.534Z</time></trkpt><trkpt lat="44.3572038" lon="10.790139"><ele>694.0</ele><time>2026-05-03T11:49:31.544Z</time></trkpt><trkpt lat="44.3571238" lon="10.789997"><ele>689.2</ele><time>2026-05-03T11:49:32.534Z</time></trkpt><trkpt lat="44.3570587" lon="10.7898548"><ele>684.4000000000001</ele><time>2026-05-03T11:49:33.541Z</time></trkpt><trkpt lat="44.3570004" lon="10.7897272"><ele>679.6</ele><time>2026-05-03T11:49:34.537Z</time></trkpt><trkpt lat="44.3569482" lon="10.7896153"><ele>674.8</ele><time>2026-05-03T11:49:35.541Z</time></trkpt><trkpt lat="44.3568923" lon="10.7895034"><ele>670.0</ele><time>2026-05-03T11:49:36.538Z</time></trkpt><trkpt lat="44.3568442" lon="10.7893967"><ele>668.6666666666667</ele><time>2026-05-03T11:49:37.538Z</time></trkpt><trkpt lat="44.3567998" lon="10.78929"><ele>667.3333333333334</ele><time>2026-05-03T11:49:38.538Z</time></trkpt><trkpt lat="44.3567573" lon="10.7891944"><ele>666.0</ele><time>2026-05-03T11:49:39.552Z</time></trkpt><trkpt lat="44.3567235" lon="10.7891198"><ele>664.6666666666666</ele><time>2026-05-03T11:49:40.541Z</time></trkpt><trkpt lat="44.3566865" lon="10.7890306"><ele>663.3333333333333</ele><time>2026-05-03T11:49:42.539Z</time></trkpt><trkpt lat="44.3566422" lon="10.7889455"><ele>662.0</ele><time>2026-05-03T11:51:55.535Z</time></trkpt><trkpt lat="44.3565748" lon="10.7888819"><ele>662.0</ele><time>2026-05-03T11:51:58.541Z</time></trkpt><trkpt lat="44.3564992" lon="10.788823"><ele>662.0</ele><time>2026-05-03T11:52:01.539Z</time></trkpt><trkpt lat="44.3564307" lon="10.788774"><ele>662.0</ele><time>2026-05-03T11:52:04.538Z</time></trkpt><trkpt lat="44.3563594" lon="10.7887195"><ele>662.0</ele><time>2026-05-03T11:52:33.542Z</time></trkpt><trkpt lat="44.3562768" lon="10.7886909"><ele>662.0</ele><time>2026-05-03T11:52:36.538Z</time></trkpt><trkpt lat="44.3562093" lon="10.7886682"><ele>662.0</ele><time>2026-05-03T11:52:38.531Z</time></trkpt><trkpt lat="44.3561416" lon="10.7886103"><ele>659.8333333333333</ele><time>2026-05-03T11:52:40.539Z</time></trkpt><trkpt lat="44.3560902" lon="10.7885309"><ele>657.6666666666666</ele><time>2026-05-03T11:52:42.542Z</time></trkpt><trkpt lat="44.3560622" lon="10.7884475"><ele>655.5</ele><time>2026-05-03T11:53:03.544Z</time></trkpt><trkpt lat="44.3560248" lon="10.7883434"><ele>653.3333333333334</ele><time>2026-05-03T11:53:07.537Z</time></trkpt><trkpt lat="44.356013" lon="10.7882292"><ele>651.1666666666667</ele><time>2026-05-03T11:53:09.533Z</time></trkpt><trkpt lat="44.355996" lon="10.7880638"><ele>649.0</ele><time>2026-05-03T11:53:11.536Z</time></trkpt><trkpt lat="44.3559833" lon="10.7879746"><ele>648.5</ele><time>2026-05-03T11:53:12.529Z</time></trkpt><trkpt lat="44.3559621" lon="10.787888"><ele>648.0</ele><time>2026-05-03T11:53:13.54Z</time></trkpt><trkpt lat="44.3559235" lon="10.7878003"><ele>647.5</ele><time>2026-05-03T11:53:14.543Z</time></trkpt><trkpt lat="44.3558698" lon="10.7877124"><ele>647.0</ele><time>2026-05-03T11:53:15.54Z</time></trkpt><trkpt lat="44.3558126" lon="10.787622"><ele>646.5</ele><time>2026-05-03T11:53:16.562Z</time></trkpt><trkpt lat="44.3557555" lon="10.7875247"><ele>646.0</ele><time>2026-05-03T11:53:17.537Z</time></trkpt><trkpt lat="44.3556908" lon="10.7874236"><ele>643.5999999999999</ele><time>2026-05-03T11:53:18.534Z</time></trkpt><trkpt lat="44.3556298" lon="10.7873222"><ele>641.1999999999999</ele><time>2026-05-03T11:53:19.538Z</time></trkpt><trkpt lat="44.35556" lon="10.7872299"><ele>638.8</ele><time>2026-05-03T11:53:20.536Z</time></trkpt><trkpt lat="44.3554857" lon="10.7871397"><ele>636.4</ele><time>2026-05-03T11:53:21.539Z</time></trkpt><trkpt lat="44.3554132" lon="10.7870508"><ele>634.0</ele><time>2026-05-03T11:53:22.541Z</time></trkpt><trkpt lat="44.3553426" lon="10.786955"><ele>632.0</ele><time>2026-05-03T11:53:23.534Z</time></trkpt><trkpt lat="44.3552758" lon="10.7868501"><ele>630.0</ele><time>2026-05-03T11:53:24.543Z</time></trkpt><trkpt lat="44.3552204" lon="10.7867305"><ele>628.0</ele><time>2026-05-03T11:53:25.537Z</time></trkpt><trkpt lat="44.3551646" lon="10.7866028"><ele>626.0</ele><time>2026-05-03T11:53:26.548Z</time></trkpt><trkpt lat="44.3551098" lon="10.7864779"><ele>624.0</ele><time>2026-05-03T11:53:27.54Z</time></trkpt><trkpt lat="44.3550606" lon="10.7863675"><ele>622.6666666666666</ele><time>2026-05-03T11:53:28.542Z</time></trkpt><trkpt lat="44.3550181" lon="10.7862681"><ele>621.3333333333334</ele><time>2026-05-03T11:53:29.542Z</time></trkpt><trkpt lat="44.3549768" lon="10.7861744"><ele>620.0</ele><time>2026-05-03T11:53:30.542Z</time></trkpt><trkpt lat="44.3549422" lon="10.7860899"><ele>618.6666666666667</ele><time>2026-05-03T11:53:31.546Z</time></trkpt><trkpt lat="44.3548991" lon="10.7859502"><ele>617.3333333333334</ele><time>2026-05-03T11:53:33.542Z</time></trkpt><trkpt lat="44.3549618" lon="10.7858785"><ele>616.0</ele><time>2026-05-03T11:53:36.537Z</time></trkpt><trkpt lat="44.3550514" lon="10.7859116"><ele>614.8</ele><time>2026-05-03T11:53:38.539Z</time></trkpt><trkpt lat="44.3551423" lon="10.7859307"><ele>613.6</ele><time>2026-05-03T11:53:40.535Z</time></trkpt><trkpt lat="44.3552593" lon="10.7859524"><ele>612.4</ele><time>2026-05-03T11:53:42.538Z</time></trkpt><trkpt lat="44.3553369" lon="10.7859606"><ele>611.2</ele><time>2026-05-03T11:53:43.538Z</time></trkpt><trkpt lat="44.3554238" lon="10.7859691"><ele>610.0</ele><time>2026-05-03T11:53:44.54Z</time></trkpt><trkpt lat="44.3555091" lon="10.7859733"><ele>608.6666666666667</ele><time>2026-05-03T11:53:45.535Z</time></trkpt><trkpt lat="44.3555812" lon="10.7859716"><ele>607.3333333333334</ele><time>2026-05-03T11:53:46.538Z</time></trkpt><trkpt lat="44.3556471" lon="10.785965"><ele>606.0</ele><time>2026-05-03T11:53:47.525Z</time></trkpt><trkpt lat="44.3557403" lon="10.7859413"><ele>604.6666666666666</ele><time>2026-05-03T11:53:49.528Z</time></trkpt><trkpt lat="44.3557877" lon="10.7858368"><ele>603.3333333333333</ele><time>2026-05-03T11:53:52.528Z</time></trkpt><trkpt lat="44.3557854" lon="10.785709"><ele>602.0</ele><time>2026-05-03T11:53:54.526Z</time></trkpt><trkpt lat="44.3557513" lon="10.7855375"><ele>602.0</ele><time>2026-05-03T11:53:56.523Z</time></trkpt><trkpt lat="44.3557174" lon="10.7854529"><ele>602.0</ele><time>2026-05-03T11:53:57.529Z</time></trkpt><trkpt lat="44.3556774" lon="10.785378"><ele>602.0</ele><time>2026-05-03T11:53:58.519Z</time></trkpt><trkpt lat="44.3555911" lon="10.7852514"><ele>602.0</ele><time>2026-05-03T11:54:00.524Z</time></trkpt><trkpt lat="44.35554" lon="10.7851832"><ele>602.0</ele><time>2026-05-03T11:54:01.528Z</time></trkpt><trkpt lat="44.3554832" lon="10.7851174"><ele>602.0</ele><time>2026-05-03T11:54:02.52Z</time></trkpt><trkpt lat="44.3554272" lon="10.7850432"><ele>602.0</ele><time>2026-05-03T11:54:03.519Z</time></trkpt><trkpt lat="44.3553773" lon="10.7849601"><ele>602.0</ele><time>2026-05-03T11:54:04.524Z</time></trkpt><trkpt lat="44.3553327" lon="10.7848899"><ele>602.0</ele><time>2026-05-03T11:54:05.525Z</time></trkpt><trkpt lat="44.3552575" lon="10.784805"><ele>602.0</ele><time>2026-05-03T11:54:07.523Z</time></trkpt><trkpt lat="44.3551713" lon="10.7847064"><ele>602.0</ele><time>2026-05-03T11:54:09.521Z</time></trkpt><trkpt lat="44.3551193" lon="10.7846417"><ele>602.0</ele><time>2026-05-03T11:54:10.521Z</time></trkpt><trkpt lat="44.355058" lon="10.7845837"><ele>602.0</ele><time>2026-05-03T11:54:11.522Z</time></trkpt><trkpt lat="44.3549967" lon="10.7845202"><ele>602.0</ele><time>2026-05-03T11:54:12.523Z</time></trkpt><trkpt lat="44.3549393" lon="10.7844395"><ele>602.0</ele><time>2026-05-03T11:54:13.516Z</time></trkpt><trkpt lat="44.3548911" lon="10.7843425"><ele>602.0</ele><time>2026-05-03T11:54:14.518Z</time></trkpt><trkpt lat="44.3548435" lon="10.7842529"><ele>602.0</ele><time>2026-05-03T11:54:15.517Z</time></trkpt><trkpt lat="44.3548015" lon="10.7841772"><ele>602.0</ele><time>2026-05-03T11:54:16.517Z</time></trkpt><trkpt lat="44.3547449" lon="10.7841321"><ele>597.0</ele><time>2026-05-03T11:54:17.532Z</time></trkpt><trkpt lat="44.3546884" lon="10.7840914"><ele>592.0</ele><time>2026-05-03T11:54:18.526Z</time></trkpt><trkpt lat="44.3545913" lon="10.7840241"><ele>587.0</ele><time>2026-05-03T11:54:20.523Z</time></trkpt><trkpt lat="44.3545117" lon="10.7839544"><ele>582.0</ele><time>2026-05-03T11:54:22.526Z</time></trkpt><trkpt lat="44.3544212" lon="10.783912"><ele>577.0</ele><time>2026-05-03T11:54:24.522Z</time></trkpt><trkpt lat="44.3543588" lon="10.7839647"><ele>572.0</ele><time>2026-05-03T11:54:26.518Z</time></trkpt><trkpt lat="44.3542922" lon="10.7841143"><ele>572.0</ele><time>2026-05-03T11:54:28.524Z</time></trkpt><trkpt lat="44.3542453" lon="10.7842087"><ele>572.0</ele><time>2026-05-03T11:54:29.52Z</time></trkpt><trkpt lat="44.354185" lon="10.7843076"><ele>572.0</ele><time>2026-05-03T11:54:30.516Z</time></trkpt><trkpt lat="44.3541168" lon="10.7844121"><ele>572.0</ele><time>2026-05-03T11:54:31.516Z</time></trkpt><trkpt lat="44.3540389" lon="10.7845098"><ele>572.0</ele><time>2026-05-03T11:54:32.499Z</time></trkpt><trkpt lat="44.3539513" lon="10.7846177"><ele>569.0</ele><time>2026-05-03T11:54:33.512Z</time></trkpt><trkpt lat="44.3538664" lon="10.7847271"><ele>566.0</ele><time>2026-05-03T11:54:34.507Z</time></trkpt><trkpt lat="44.3537813" lon="10.7848232"><ele>563.0</ele><time>2026-05-03T11:54:35.511Z</time></trkpt><trkpt lat="44.3536911" lon="10.7849007"><ele>560.0</ele><time>2026-05-03T11:54:36.507Z</time></trkpt><trkpt lat="44.3536075" lon="10.7849747"><ele>557.0</ele><time>2026-05-03T11:54:37.52Z</time></trkpt><trkpt lat="44.353536" lon="10.7850529"><ele>557.0</ele><time>2026-05-03T11:54:38.52Z</time></trkpt><trkpt lat="44.3534681" lon="10.7851297"><ele>557.0</ele><time>2026-05-03T11:54:39.522Z</time></trkpt><trkpt lat="44.3534074" lon="10.7852088"><ele>557.0</ele><time>2026-05-03T11:54:40.519Z</time></trkpt><trkpt lat="44.3533442" lon="10.7852927"><ele>557.0</ele><time>2026-05-03T11:54:41.519Z</time></trkpt><trkpt lat="44.3532835" lon="10.7853836"><ele>557.0</ele><time>2026-05-03T11:54:42.525Z</time></trkpt><trkpt lat="44.3532198" lon="10.7854838"><ele>557.0</ele><time>2026-05-03T11:54:43.526Z</time></trkpt><trkpt lat="44.3531641" lon="10.7855879"><ele>558.8333333333333</ele><time>2026-05-03T11:54:44.521Z</time></trkpt><trkpt lat="44.3531218" lon="10.7856986"><ele>560.6666666666666</ele><time>2026-05-03T11:54:45.526Z</time></trkpt><trkpt lat="44.3530869" lon="10.7858089"><ele>562.5</ele><time>2026-05-03T11:54:46.521Z</time></trkpt><trkpt lat="44.3530714" lon="10.7859236"><ele>564.3333333333334</ele><time>2026-05-03T11:54:47.534Z</time></trkpt><trkpt lat="44.3530716" lon="10.786043"><ele>566.1666666666667</ele><time>2026-05-03T11:54:48.54Z</time></trkpt><trkpt lat="44.3530693" lon="10.7861702"><ele>568.0</ele><time>2026-05-03T11:54:49.531Z</time></trkpt><trkpt lat="44.3530707" lon="10.7863085"><ele>569.0</ele><time>2026-05-03T11:54:50.53Z</time></trkpt><trkpt lat="44.3530658" lon="10.7864322"><ele>570.0</ele><time>2026-05-03T11:54:51.527Z</time></trkpt><trkpt lat="44.3530618" lon="10.7865405"><ele>571.0</ele><time>2026-05-03T11:54:52.524Z</time></trkpt><trkpt lat="44.3530281" lon="10.7866442"><ele>572.0</ele><time>2026-05-03T11:54:53.521Z</time></trkpt><trkpt lat="44.3529868" lon="10.7867394"><ele>573.0</ele><time>2026-05-03T11:54:54.53Z</time></trkpt><trkpt lat="44.3529255" lon="10.7868309"><ele>574.0</ele><time>2026-05-03T11:54:55.527Z</time></trkpt><trkpt lat="44.3528524" lon="10.7869199"><ele>571.0</ele><time>2026-05-03T11:54:56.534Z</time></trkpt><trkpt lat="44.3527744" lon="10.7870106"><ele>568.0</ele><time>2026-05-03T11:54:57.531Z</time></trkpt><trkpt lat="44.3527" lon="10.7870981"><ele>565.0</ele><time>2026-05-03T11:54:58.531Z</time></trkpt><trkpt lat="44.3526236" lon="10.7871921"><ele>562.0</ele><time>2026-05-03T11:54:59.54Z</time></trkpt><trkpt lat="44.3525549" lon="10.787281"><ele>559.0</ele><time>2026-05-03T11:55:00.536Z</time></trkpt><trkpt lat="44.3524797" lon="10.7873694"><ele>559.0</ele><time>2026-05-03T11:55:01.54Z</time></trkpt><trkpt lat="44.3524069" lon="10.7874621"><ele>559.0</ele><time>2026-05-03T11:55:02.534Z</time></trkpt><trkpt lat="44.3523375" lon="10.7875561"><ele>559.0</ele><time>2026-05-03T11:55:03.538Z</time></trkpt><trkpt lat="44.3522683" lon="10.7876435"><ele>559.0</ele><time>2026-05-03T11:55:04.531Z</time></trkpt><trkpt lat="44.352204" lon="10.7877325"><ele>559.0</ele><time>2026-05-03T11:55:05.53Z</time></trkpt><trkpt lat="44.3521394" lon="10.7878226"><ele>556.6</ele><time>2026-05-03T11:55:06.522Z</time></trkpt><trkpt lat="44.3520958" lon="10.7879144"><ele>554.2</ele><time>2026-05-03T11:55:07.521Z</time></trkpt><trkpt lat="44.3520624" lon="10.7880132"><ele>551.8000000000001</ele><time>2026-05-03T11:55:08.531Z</time></trkpt><trkpt lat="44.3520405" lon="10.7881362"><ele>549.4</ele><time>2026-05-03T11:55:09.53Z</time></trkpt><trkpt lat="44.3520249" lon="10.7882686"><ele>547.0</ele><time>2026-05-03T11:55:10.529Z</time></trkpt><trkpt lat="44.3520054" lon="10.7884175"><ele>548.4</ele><time>2026-05-03T11:55:11.527Z</time></trkpt><trkpt lat="44.3519792" lon="10.7885664"><ele>549.8000000000001</ele><time>2026-05-03T11:55:12.532Z</time></trkpt><trkpt lat="44.3519499" lon="10.7887104"><ele>551.2</ele><time>2026-05-03T11:55:13.534Z</time></trkpt><trkpt lat="44.3519205" lon="10.7888495"><ele>552.6</ele><time>2026-05-03T11:55:14.535Z</time></trkpt><trkpt lat="44.351892" lon="10.7889791"><ele>554.0</ele><time>2026-05-03T11:55:15.528Z</time></trkpt><trkpt lat="44.3518705" lon="10.789093"><ele>554.0</ele><time>2026-05-03T11:55:16.531Z</time></trkpt><trkpt lat="44.3518575" lon="10.7892056"><ele>554.0</ele><time>2026-05-03T11:55:17.526Z</time></trkpt><trkpt lat="44.3518473" lon="10.7893259"><ele>554.0</ele><time>2026-05-03T11:55:18.519Z</time></trkpt><trkpt lat="44.3518311" lon="10.7894346"><ele>554.0</ele><time>2026-05-03T11:55:19.53Z</time></trkpt><trkpt lat="44.3518037" lon="10.7895206"><ele>554.0</ele><time>2026-05-03T11:55:20.525Z</time></trkpt><trkpt lat="44.3517246" lon="10.7895642"><ele>554.0</ele><time>2026-05-03T11:55:22.522Z</time></trkpt><trkpt lat="44.3516283" lon="10.7894851"><ele>554.0</ele><time>2026-05-03T11:55:24.519Z</time></trkpt><trkpt lat="44.3515642" lon="10.7894148"><ele>554.0</ele><time>2026-05-03T11:55:25.511Z</time></trkpt><trkpt lat="44.3514845" lon="10.789353"><ele>554.0</ele><time>2026-05-03T11:55:26.52Z</time></trkpt><trkpt lat="44.3513956" lon="10.7893167"><ele>554.0</ele><time>2026-05-03T11:55:27.518Z</time></trkpt><trkpt lat="44.3512995" lon="10.7892977"><ele>554.0</ele><time>2026-05-03T11:55:28.519Z</time></trkpt><trkpt lat="44.3512094" lon="10.7892665"><ele>554.3333333333333</ele><time>2026-05-03T11:55:29.519Z</time></trkpt><trkpt lat="44.3511452" lon="10.789239"><ele>554.6666666666666</ele><time>2026-05-03T11:55:30.536Z</time></trkpt><trkpt lat="44.3510617" lon="10.7891981"><ele>555.0</ele><time>2026-05-03T11:55:32.528Z</time></trkpt><trkpt lat="44.3510356" lon="10.7890892"><ele>555.3333333333334</ele><time>2026-05-03T11:55:37.524Z</time></trkpt><trkpt lat="44.3510808" lon="10.788993"><ele>555.6666666666667</ele><time>2026-05-03T11:55:39.53Z</time></trkpt><trkpt lat="44.351099" lon="10.7888557"><ele>556.0</ele><time>2026-05-03T11:55:41.527Z</time></trkpt><trkpt lat="44.3510819" lon="10.788681"><ele>556.0</ele><time>2026-05-03T11:55:43.535Z</time></trkpt><trkpt lat="44.3510508" lon="10.7885771"><ele>556.0</ele><time>2026-05-03T11:55:44.54Z</time></trkpt><trkpt lat="44.3510196" lon="10.7884766"><ele>556.0</ele><time>2026-05-03T11:55:45.539Z</time></trkpt><trkpt lat="44.3509917" lon="10.7883827"><ele>556.0</ele><time>2026-05-03T11:55:46.538Z</time></trkpt><trkpt lat="44.3509673" lon="10.7882103"><ele>556.0</ele><time>2026-05-03T11:55:48.532Z</time></trkpt><trkpt lat="44.3509663" lon="10.7881147"><ele>556.0</ele><time>2026-05-03T11:55:49.527Z</time></trkpt><trkpt lat="44.3509699" lon="10.7880264"><ele>553.8</ele><time>2026-05-03T11:55:50.542Z</time></trkpt><trkpt lat="44.3509323" lon="10.7878996"><ele>551.6</ele><time>2026-05-03T11:55:52.531Z</time></trkpt><trkpt lat="44.3508182" lon="10.787828"><ele>549.4</ele><time>2026-05-03T11:55:54.523Z</time></trkpt><trkpt lat="44.3507496" lon="10.7877858"><ele>547.2</ele><time>2026-05-03T11:55:55.528Z</time></trkpt><trkpt lat="44.3506747" lon="10.7877397"><ele>545.0</ele><time>2026-05-03T11:55:56.526Z</time></trkpt><trkpt lat="44.3506" lon="10.7876966"><ele>543.0</ele><time>2026-05-03T11:55:57.539Z</time></trkpt><trkpt lat="44.3505188" lon="10.7876506"><ele>541.0</ele><time>2026-05-03T11:55:58.521Z</time></trkpt><trkpt lat="44.3504308" lon="10.7876161"><ele>539.0</ele><time>2026-05-03T11:55:59.526Z</time></trkpt><trkpt lat="44.3503411" lon="10.7875853"><ele>537.0</ele><time>2026-05-03T11:56:00.526Z</time></trkpt><trkpt lat="44.3502564" lon="10.787562"><ele>535.0</ele><time>2026-05-03T11:56:01.527Z</time></trkpt><trkpt lat="44.3501811" lon="10.7875309"><ele>533.0</ele><time>2026-05-03T11:56:02.515Z</time></trkpt><trkpt lat="44.3501159" lon="10.7874984"><ele>533.0</ele><time>2026-05-03T11:56:03.518Z</time></trkpt><trkpt lat="44.3500458" lon="10.7874584"><ele>533.0</ele><time>2026-05-03T11:56:04.518Z</time></trkpt><trkpt lat="44.3499757" lon="10.7874115"><ele>533.0</ele><time>2026-05-03T11:56:05.519Z</time></trkpt><trkpt lat="44.3499058" lon="10.7873662"><ele>533.0</ele><time>2026-05-03T11:56:06.518Z</time></trkpt><trkpt lat="44.3498334" lon="10.7873239"><ele>533.0</ele><time>2026-05-03T11:56:07.521Z</time></trkpt><trkpt lat="44.3497633" lon="10.7872924"><ele>533.0</ele><time>2026-05-03T11:56:08.522Z</time></trkpt><trkpt lat="44.3496921" lon="10.7872538"><ele>531.1999999999999</ele><time>2026-05-03T11:56:09.526Z</time></trkpt><trkpt lat="44.3496186" lon="10.7872111"><ele>529.4</ele><time>2026-05-03T11:56:10.531Z</time></trkpt><trkpt lat="44.3495543" lon="10.7871723"><ele>527.5999999999999</ele><time>2026-05-03T11:56:11.527Z</time></trkpt><trkpt lat="44.3494498" lon="10.7870907"><ele>525.8</ele><time>2026-05-03T11:56:13.531Z</time></trkpt><trkpt lat="44.3493771" lon="10.7870041"><ele>524.0</ele><time>2026-05-03T11:56:15.535Z</time></trkpt><trkpt lat="44.3493444" lon="10.786855"><ele>523.6666666666666</ele><time>2026-05-03T11:56:17.529Z</time></trkpt><trkpt lat="44.3493497" lon="10.786751"><ele>523.3333333333333</ele><time>2026-05-03T11:56:18.523Z</time></trkpt><trkpt lat="44.349373" lon="10.7866383"><ele>523.0</ele><time>2026-05-03T11:56:19.523Z</time></trkpt><trkpt lat="44.3494096" lon="10.7865241"><ele>522.6666666666666</ele><time>2026-05-03T11:56:20.522Z</time></trkpt><trkpt lat="44.3494602" lon="10.7864111"><ele>522.3333333333334</ele><time>2026-05-03T11:56:21.534Z</time></trkpt><trkpt lat="44.3495128" lon="10.786315"><ele>522.0</ele><time>2026-05-03T11:56:22.521Z</time></trkpt><trkpt lat="44.3495685" lon="10.786236"><ele>522.0</ele><time>2026-05-03T11:56:23.52Z</time></trkpt><trkpt lat="44.3496327" lon="10.7861806"><ele>522.0</ele><time>2026-05-03T11:56:24.52Z</time></trkpt><trkpt lat="44.349698" lon="10.7861339"><ele>522.0</ele><time>2026-05-03T11:56:25.519Z</time></trkpt><trkpt lat="44.3497667" lon="10.7860927"><ele>522.0</ele><time>2026-05-03T11:56:26.52Z</time></trkpt><trkpt lat="44.3498408" lon="10.7860639"><ele>522.0</ele><time>2026-05-03T11:56:27.517Z</time></trkpt><trkpt lat="44.3499166" lon="10.7860353"><ele>522.0</ele><time>2026-05-03T11:56:28.52Z</time></trkpt><trkpt lat="44.3499977" lon="10.7859973"><ele>521.3333333333334</ele><time>2026-05-03T11:56:29.519Z</time></trkpt><trkpt lat="44.3500795" lon="10.7859659"><ele>520.6666666666666</ele><time>2026-05-03T11:56:30.525Z</time></trkpt><trkpt lat="44.3501663" lon="10.7859258"><ele>520.0</ele><time>2026-05-03T11:56:31.524Z</time></trkpt><trkpt lat="44.350236" lon="10.7858662"><ele>519.3333333333333</ele><time>2026-05-03T11:56:32.542Z</time></trkpt><trkpt lat="44.3503055" lon="10.7858004"><ele>518.6666666666666</ele><time>2026-05-03T11:56:33.53Z</time></trkpt><trkpt lat="44.3503651" lon="10.7857188"><ele>518.0</ele><time>2026-05-03T11:56:34.527Z</time></trkpt><trkpt lat="44.3504261" lon="10.7856337"><ele>518.0</ele><time>2026-05-03T11:56:35.528Z</time></trkpt><trkpt lat="44.3504904" lon="10.7855621"><ele>518.0</ele><time>2026-05-03T11:56:36.528Z</time></trkpt><trkpt lat="44.3505563" lon="10.7855115"><ele>518.0</ele><time>2026-05-03T11:56:37.527Z</time></trkpt><trkpt lat="44.3506176" lon="10.7854613"><ele>518.0</ele><time>2026-05-03T11:56:38.532Z</time></trkpt><trkpt lat="44.350667" lon="10.7854033"><ele>518.0</ele><time>2026-05-03T11:56:39.53Z</time></trkpt><trkpt lat="44.3507508" lon="10.7852881"><ele>518.0</ele><time>2026-05-03T11:56:41.531Z</time></trkpt><trkpt lat="44.3508524" lon="10.7851926"><ele>518.0</ele><time>2026-05-03T11:56:43.522Z</time></trkpt><trkpt lat="44.3509417" lon="10.7851697"><ele>518.0</ele><time>2026-05-03T11:56:45.528Z</time></trkpt><trkpt lat="44.3510353" lon="10.7852756"><ele>518.0</ele><time>2026-05-03T11:56:47.516Z</time></trkpt><trkpt lat="44.3510712" lon="10.7853507"><ele>518.0</ele><time>2026-05-03T11:56:48.528Z</time></trkpt><trkpt lat="44.3510966" lon="10.7854338"><ele>518.0</ele><time>2026-05-03T11:56:49.527Z</time></trkpt><trkpt lat="44.3511531" lon="10.78548"><ele>518.0</ele><time>2026-05-03T11:56:51.525Z</time></trkpt><trkpt lat="44.3512245" lon="10.7854229"><ele>518.0</ele><time>2026-05-03T11:56:53.523Z</time></trkpt><trkpt lat="44.351253" lon="10.7853231"><ele>518.0</ele><time>2026-05-03T11:56:55.532Z</time></trkpt><trkpt lat="44.3512627" lon="10.7852328"><ele>518.0</ele><time>2026-05-03T11:56:56.531Z</time></trkpt><trkpt lat="44.3512724" lon="10.785117"><ele>518.0</ele><time>2026-05-03T11:56:57.525Z</time></trkpt><trkpt lat="44.3512909" lon="10.7850163"><ele>518.0</ele><time>2026-05-03T11:56:58.521Z</time></trkpt><trkpt lat="44.3513266" lon="10.7849264"><ele>518.0</ele><time>2026-05-03T11:56:59.517Z</time></trkpt><trkpt lat="44.3513953" lon="10.7848067"><ele>518.1428571428571</ele><time>2026-05-03T11:57:01.519Z</time></trkpt><trkpt lat="44.3514606" lon="10.7848261"><ele>518.2857142857142</ele><time>2026-05-03T11:58:05.514Z</time></trkpt><trkpt lat="44.3515146" lon="10.7847629"><ele>518.4285714285714</ele><time>2026-05-03T11:59:20.536Z</time></trkpt><trkpt lat="44.3515383" lon="10.7846624"><ele>518.5714285714286</ele><time>2026-05-03T11:59:23.54Z</time></trkpt><trkpt lat="44.3515751" lon="10.784562"><ele>518.7142857142857</ele><time>2026-05-03T11:59:25.532Z</time></trkpt><trkpt lat="44.3516422" lon="10.7845158"><ele>518.8571428571429</ele><time>2026-05-03T11:59:44.536Z</time></trkpt><trkpt lat="44.3517089" lon="10.7844952"><ele>519.0</ele><time>2026-05-03T11:59:46.528Z</time></trkpt><trkpt lat="44.3518163" lon="10.784433"><ele>519.0</ele><time>2026-05-03T11:59:48.528Z</time></trkpt><trkpt lat="44.351883" lon="10.7844"><ele>519.0</ele><time>2026-05-03T11:59:49.528Z</time></trkpt><trkpt lat="44.3519585" lon="10.78436"><ele>519.0</ele><time>2026-05-03T11:59:50.535Z</time></trkpt><trkpt lat="44.3520278" lon="10.7843216"><ele>519.0</ele><time>2026-05-03T11:59:51.525Z</time></trkpt><trkpt lat="44.3520918" lon="10.7842726"><ele>519.0</ele><time>2026-05-03T11:59:52.523Z</time></trkpt><trkpt lat="44.3521468" lon="10.7841975"><ele>519.0</ele><time>2026-05-03T11:59:53.529Z</time></trkpt><trkpt lat="44.3521941" lon="10.7841142"><ele>519.5</ele><time>2026-05-03T11:59:54.525Z</time></trkpt><trkpt lat="44.3522294" lon="10.7840056"><ele>520.0</ele><time>2026-05-03T11:59:55.515Z</time></trkpt><trkpt lat="44.3522505" lon="10.7838814"><ele>520.5</ele><time>2026-05-03T11:59:56.513Z</time></trkpt><trkpt lat="44.3522645" lon="10.7837684"><ele>521.0</ele><time>2026-05-03T11:59:57.518Z</time></trkpt><trkpt lat="44.3522749" lon="10.7836693"><ele>521.5</ele><time>2026-05-03T11:59:58.508Z</time></trkpt><trkpt lat="44.3522817" lon="10.7835661"><ele>522.0</ele><time>2026-05-03T11:59:59.507Z</time></trkpt><trkpt lat="44.3522861" lon="10.7834586"><ele>521.1428571428571</ele><time>2026-05-03T12:00:00.51Z</time></trkpt><trkpt lat="44.3522847" lon="10.7833471"><ele>520.2857142857142</ele><time>2026-05-03T12:00:01.516Z</time></trkpt><trkpt lat="44.3522797" lon="10.783241"><ele>519.4285714285713</ele><time>2026-05-03T12:00:02.515Z</time></trkpt><trkpt lat="44.3522722" lon="10.7831376"><ele>518.5714285714286</ele><time>2026-05-03T12:00:03.507Z</time></trkpt><trkpt lat="44.3522781" lon="10.7830439"><ele>517.7142857142857</ele><time>2026-05-03T12:00:04.509Z</time></trkpt><trkpt lat="44.3522946" lon="10.7829557"><ele>516.8571428571428</ele><time>2026-05-03T12:00:05.511Z</time></trkpt><trkpt lat="44.3523202" lon="10.7828737"><ele>516.0</ele><time>2026-05-03T12:00:06.51Z</time></trkpt><trkpt lat="44.3523552" lon="10.7827637"><ele>515.3333333333334</ele><time>2026-05-03T12:00:07.5Z</time></trkpt><trkpt lat="44.3523987" lon="10.7826535"><ele>514.6666666666666</ele><time>2026-05-03T12:00:08.52Z</time></trkpt><trkpt lat="44.3524416" lon="10.7825534"><ele>514.0</ele><time>2026-05-03T12:00:09.513Z</time></trkpt><trkpt lat="44.3524818" lon="10.7824694"><ele>513.3333333333333</ele><time>2026-05-03T12:00:10.51Z</time></trkpt><trkpt lat="44.3525251" lon="10.7823272"><ele>512.6666666666666</ele><time>2026-05-03T12:00:12.513Z</time></trkpt><trkpt lat="44.3525255" lon="10.7822208"><ele>512.0</ele><time>2026-05-03T12:00:14.511Z</time></trkpt><trkpt lat="44.3525034" lon="10.7820967"><ele>512.0</ele><time>2026-05-03T12:00:16.514Z</time></trkpt><trkpt lat="44.3524648" lon="10.7819434"><ele>512.0</ele><time>2026-05-03T12:00:18.519Z</time></trkpt><trkpt lat="44.3523934" lon="10.7818484"><ele>512.0</ele><time>2026-05-03T12:00:20.517Z</time></trkpt><trkpt lat="44.3523172" lon="10.781834"><ele>512.0</ele><time>2026-05-03T12:00:22.522Z</time></trkpt><trkpt lat="44.352224" lon="10.7819187"><ele>512.0</ele><time>2026-05-03T12:00:24.515Z</time></trkpt><trkpt lat="44.3521716" lon="10.7819929"><ele>513.0</ele><time>2026-05-03T12:00:25.515Z</time></trkpt><trkpt lat="44.3521094" lon="10.7820671"><ele>514.0</ele><time>2026-05-03T12:00:26.518Z</time></trkpt><trkpt lat="44.3520403" lon="10.7821392"><ele>515.0</ele><time>2026-05-03T12:00:27.518Z</time></trkpt><trkpt lat="44.3519557" lon="10.78221"><ele>516.0</ele><time>2026-05-03T12:00:28.528Z</time></trkpt><trkpt lat="44.3518631" lon="10.7822832"><ele>517.0</ele><time>2026-05-03T12:00:29.518Z</time></trkpt><trkpt lat="44.3517642" lon="10.7823615"><ele>517.0</ele><time>2026-05-03T12:00:30.519Z</time></trkpt><trkpt lat="44.3516552" lon="10.7824342"><ele>517.0</ele><time>2026-05-03T12:00:31.526Z</time></trkpt><trkpt lat="44.3515467" lon="10.7825007"><ele>517.0</ele><time>2026-05-03T12:00:32.513Z</time></trkpt><trkpt lat="44.3514273" lon="10.7825594"><ele>517.0</ele><time>2026-05-03T12:00:33.528Z</time></trkpt><trkpt lat="44.3513084" lon="10.7826304"><ele>520.25</ele><time>2026-05-03T12:00:34.522Z</time></trkpt><trkpt lat="44.3511882" lon="10.7827084"><ele>523.5</ele><time>2026-05-03T12:00:35.522Z</time></trkpt><trkpt lat="44.3510733" lon="10.7827885"><ele>526.75</ele><time>2026-05-03T12:00:36.525Z</time></trkpt><trkpt lat="44.3509639" lon="10.7828573"><ele>530.0</ele><time>2026-05-03T12:00:37.524Z</time></trkpt><trkpt lat="44.3508646" lon="10.7829014"><ele>530.0</ele><time>2026-05-03T12:00:38.534Z</time></trkpt><trkpt lat="44.3507628" lon="10.7828926"><ele>530.0</ele><time>2026-05-03T12:00:39.531Z</time></trkpt><trkpt lat="44.3506501" lon="10.7828481"><ele>530.0</ele><time>2026-05-03T12:00:40.521Z</time></trkpt><trkpt lat="44.3505354" lon="10.7827937"><ele>530.0</ele><time>2026-05-03T12:00:41.514Z</time></trkpt><trkpt lat="44.35043" lon="10.7827261"><ele>532.0</ele><time>2026-05-03T12:00:42.531Z</time></trkpt><trkpt lat="44.3503475" lon="10.782636"><ele>534.0</ele><time>2026-05-03T12:00:43.534Z</time></trkpt><trkpt lat="44.350288" lon="10.7825221"><ele>536.0</ele><time>2026-05-03T12:00:44.529Z</time></trkpt><trkpt lat="44.3502498" lon="10.7824022"><ele>538.0</ele><time>2026-05-03T12:00:45.539Z</time></trkpt><trkpt lat="44.3502497" lon="10.7822829"><ele>540.0</ele><time>2026-05-03T12:00:46.539Z</time></trkpt><trkpt lat="44.3502949" lon="10.7821722"><ele>540.0</ele><time>2026-05-03T12:00:47.537Z</time></trkpt><trkpt lat="44.3503713" lon="10.7820853"><ele>540.0</ele><time>2026-05-03T12:00:48.533Z</time></trkpt><trkpt lat="44.3504427" lon="10.7819795"><ele>540.0</ele><time>2026-05-03T12:00:49.529Z</time></trkpt><trkpt lat="44.3504982" lon="10.7818692"><ele>540.0</ele><time>2026-05-03T12:00:50.534Z</time></trkpt><trkpt lat="44.3505236" lon="10.7817361"><ele>540.0</ele><time>2026-05-03T12:00:51.536Z</time></trkpt><trkpt lat="44.3505038" lon="10.7815925"><ele>541.5</ele><time>2026-05-03T12:00:52.532Z</time></trkpt><trkpt lat="44.350447" lon="10.7814514"><ele>543.0</ele><time>2026-05-03T12:00:53.538Z</time></trkpt><trkpt lat="44.3503801" lon="10.7813092"><ele>544.5</ele><time>2026-05-03T12:00:54.529Z</time></trkpt><trkpt lat="44.3503196" lon="10.7811618"><ele>546.0</ele><time>2026-05-03T12:00:55.533Z</time></trkpt><trkpt lat="44.350272" lon="10.7810059"><ele>547.75</ele><time>2026-05-03T12:00:56.543Z</time></trkpt><trkpt lat="44.3502358" lon="10.780833"><ele>549.5</ele><time>2026-05-03T12:00:57.533Z</time></trkpt><trkpt lat="44.3501974" lon="10.7806536"><ele>551.25</ele><time>2026-05-03T12:00:58.538Z</time></trkpt><trkpt lat="44.350161" lon="10.780469"><ele>553.0</ele><time>2026-05-03T12:00:59.534Z</time></trkpt><trkpt lat="44.3501397" lon="10.780282"><ele>554.75</ele><time>2026-05-03T12:01:00.536Z</time></trkpt><trkpt lat="44.350148" lon="10.7800946"><ele>556.5</ele><time>2026-05-03T12:01:01.536Z</time></trkpt><trkpt lat="44.3501714" lon="10.7799247"><ele>558.25</ele><time>2026-05-03T12:01:02.534Z</time></trkpt><trkpt lat="44.3501819" lon="10.7797459"><ele>560.0</ele><time>2026-05-03T12:01:03.534Z</time></trkpt><trkpt lat="44.3501736" lon="10.7795671"><ele>560.0</ele><time>2026-05-03T12:01:04.531Z</time></trkpt><trkpt lat="44.3501404" lon="10.779388"><ele>560.0</ele><time>2026-05-03T12:01:05.532Z</time></trkpt><trkpt lat="44.3501081" lon="10.7792015"><ele>560.0</ele><time>2026-05-03T12:01:06.533Z</time></trkpt><trkpt lat="44.3501" lon="10.7790224"><ele>560.0</ele><time>2026-05-03T12:01:07.525Z</time></trkpt><trkpt lat="44.3501029" lon="10.7788494"><ele>563.25</ele><time>2026-05-03T12:01:08.526Z</time></trkpt><trkpt lat="44.3501325" lon="10.7786785"><ele>566.5</ele><time>2026-05-03T12:01:09.53Z</time></trkpt><trkpt lat="44.3501782" lon="10.7785185"><ele>569.75</ele><time>2026-05-03T12:01:10.532Z</time></trkpt><trkpt lat="44.3502137" lon="10.7783623"><ele>573.0</ele><time>2026-05-03T12:01:11.529Z</time></trkpt><trkpt lat="44.3502272" lon="10.7782052"><ele>575.1999999999999</ele><time>2026-05-03T12:01:12.534Z</time></trkpt><trkpt lat="44.3502188" lon="10.7780355"><ele>577.4</ele><time>2026-05-03T12:01:13.527Z</time></trkpt><trkpt lat="44.3502158" lon="10.7778631"><ele>579.5999999999999</ele><time>2026-05-03T12:01:14.527Z</time></trkpt><trkpt lat="44.3502173" lon="10.777701"><ele>581.8</ele><time>2026-05-03T12:01:15.537Z</time></trkpt><trkpt lat="44.3502158" lon="10.7775791"><ele>584.0</ele><time>2026-05-03T12:01:16.533Z</time></trkpt><trkpt lat="44.3501444" lon="10.7774486"><ele>585.4</ele><time>2026-05-03T12:01:18.541Z</time></trkpt><trkpt lat="44.3500597" lon="10.7774218"><ele>586.8</ele><time>2026-05-03T12:01:19.536Z</time></trkpt><trkpt lat="44.3499619" lon="10.77743"><ele>588.2</ele><time>2026-05-03T12:01:20.53Z</time></trkpt><trkpt lat="44.3498456" lon="10.777483"><ele>589.6</ele><time>2026-05-03T12:01:21.526Z</time></trkpt><trkpt lat="44.3497231" lon="10.7775378"><ele>591.0</ele><time>2026-05-03T12:01:22.534Z</time></trkpt><trkpt lat="44.3496019" lon="10.7775883"><ele>593.75</ele><time>2026-05-03T12:01:23.541Z</time></trkpt><trkpt lat="44.3494764" lon="10.7776417"><ele>596.5</ele><time>2026-05-03T12:01:24.524Z</time></trkpt><trkpt lat="44.3493584" lon="10.7776903"><ele>599.25</ele><time>2026-05-03T12:01:25.529Z</time></trkpt><trkpt lat="44.3492352" lon="10.7777412"><ele>602.0</ele><time>2026-05-03T12:01:26.527Z</time></trkpt><trkpt lat="44.34911" lon="10.7777874"><ele>602.0</ele><time>2026-05-03T12:01:27.531Z</time></trkpt><trkpt lat="44.348985" lon="10.7778162"><ele>602.0</ele><time>2026-05-03T12:01:28.528Z</time></trkpt><trkpt lat="44.3488662" lon="10.7778459"><ele>602.0</ele><time>2026-05-03T12:01:29.522Z</time></trkpt><trkpt lat="44.3487644" lon="10.7778651"><ele>602.0</ele><time>2026-05-03T12:01:30.54Z</time></trkpt><trkpt lat="44.348686" lon="10.7778658"><ele>602.0</ele><time>2026-05-03T12:01:31.535Z</time></trkpt><trkpt lat="44.3486166" lon="10.7778099"><ele>606.4</ele><time>2026-05-03T12:01:32.537Z</time></trkpt><trkpt lat="44.3485502" lon="10.7777237"><ele>610.8000000000001</ele><time>2026-05-03T12:01:33.514Z</time></trkpt><trkpt lat="44.3484595" lon="10.7776471"><ele>615.2</ele><time>2026-05-03T12:01:34.513Z</time></trkpt><trkpt lat="44.3483627" lon="10.7775635"><ele>619.6</ele><time>2026-05-03T12:01:35.519Z</time></trkpt><trkpt lat="44.3482577" lon="10.7774922"><ele>624.0</ele><time>2026-05-03T12:01:36.521Z</time></trkpt><trkpt lat="44.3481521" lon="10.7774357"><ele>624.0</ele><time>2026-05-03T12:01:37.523Z</time></trkpt><trkpt lat="44.3480544" lon="10.7774001"><ele>624.0</ele><time>2026-05-03T12:01:38.512Z</time></trkpt><trkpt lat="44.3479749" lon="10.7773633"><ele>624.0</ele><time>2026-05-03T12:01:39.513Z</time></trkpt><trkpt lat="44.3479134" lon="10.7773211"><ele>624.0</ele><time>2026-05-03T12:01:40.514Z</time></trkpt><trkpt lat="44.3478293" lon="10.7772387"><ele>624.0</ele><time>2026-05-03T12:01:42.515Z</time></trkpt><trkpt lat="44.3477834" lon="10.7771489"><ele>624.0</ele><time>2026-05-03T12:01:45.541Z</time></trkpt><trkpt lat="44.3477763" lon="10.7769879"><ele>626.8</ele><time>2026-05-03T12:01:47.523Z</time></trkpt><trkpt lat="44.3477726" lon="10.7768277"><ele>629.5999999999999</ele><time>2026-05-03T12:01:49.52Z</time></trkpt><trkpt lat="44.3477457" lon="10.7767264"><ele>632.4</ele><time>2026-05-03T12:01:50.531Z</time></trkpt><trkpt lat="44.3476959" lon="10.776627"><ele>635.1999999999999</ele><time>2026-05-03T12:01:51.522Z</time></trkpt><trkpt lat="44.3476323" lon="10.7764938"><ele>638.0</ele><time>2026-05-03T12:01:52.523Z</time></trkpt><trkpt lat="44.3475706" lon="10.7763454"><ele>638.0</ele><time>2026-05-03T12:01:53.527Z</time></trkpt><trkpt lat="44.3475143" lon="10.7761912"><ele>638.0</ele><time>2026-05-03T12:01:54.53Z</time></trkpt><trkpt lat="44.3474792" lon="10.7760346"><ele>638.0</ele><time>2026-05-03T12:01:55.523Z</time></trkpt><trkpt lat="44.3474723" lon="10.7758809"><ele>638.0</ele><time>2026-05-03T12:01:56.535Z</time></trkpt><trkpt lat="44.3474797" lon="10.7757366"><ele>638.75</ele><time>2026-05-03T12:01:57.532Z</time></trkpt><trkpt lat="44.3475263" lon="10.7756085"><ele>639.5</ele><time>2026-05-03T12:01:58.539Z</time></trkpt><trkpt lat="44.3475877" lon="10.7754743"><ele>640.25</ele><time>2026-05-03T12:01:59.538Z</time></trkpt><trkpt lat="44.3476374" lon="10.7753211"><ele>641.0</ele><time>2026-05-03T12:02:00.535Z</time></trkpt><trkpt lat="44.3476783" lon="10.7751635"><ele>642.5</ele><time>2026-05-03T12:02:01.542Z</time></trkpt><trkpt lat="44.3477126" lon="10.7749951"><ele>644.0</ele><time>2026-05-03T12:02:02.53Z</time></trkpt><trkpt lat="44.3477351" lon="10.7748156"><ele>645.5</ele><time>2026-05-03T12:02:03.528Z</time></trkpt><trkpt lat="44.3477412" lon="10.7746326"><ele>647.0</ele><time>2026-05-03T12:02:04.542Z</time></trkpt><trkpt lat="44.347708" lon="10.7744482"><ele>649.25</ele><time>2026-05-03T12:02:05.527Z</time></trkpt><trkpt lat="44.347669" lon="10.7742626"><ele>651.5</ele><time>2026-05-03T12:02:06.518Z</time></trkpt><trkpt lat="44.3476322" lon="10.7740698"><ele>653.75</ele><time>2026-05-03T12:02:07.531Z</time></trkpt><trkpt lat="44.3476005" lon="10.7738968"><ele>656.0</ele><time>2026-05-03T12:02:08.541Z</time></trkpt><trkpt lat="44.3476007" lon="10.773728"><ele>656.0</ele><time>2026-05-03T12:02:09.529Z</time></trkpt><trkpt lat="44.347625" lon="10.7735788"><ele>656.0</ele><time>2026-05-03T12:02:10.537Z</time></trkpt><trkpt lat="44.3476604" lon="10.7734179"><ele>656.0</ele><time>2026-05-03T12:02:11.524Z</time></trkpt><trkpt lat="44.3477201" lon="10.7732636"><ele>656.0</ele><time>2026-05-03T12:02:12.541Z</time></trkpt><trkpt lat="44.3477874" lon="10.7731518"><ele>657.1666666666666</ele><time>2026-05-03T12:02:13.531Z</time></trkpt><trkpt lat="44.3478515" lon="10.7730456"><ele>658.3333333333333</ele><time>2026-05-03T12:02:14.535Z</time></trkpt><trkpt lat="44.3479134" lon="10.7729398"><ele>659.5</ele><time>2026-05-03T12:02:15.532Z</time></trkpt><trkpt lat="44.3479542" lon="10.7728385"><ele>660.6666666666666</ele><time>2026-05-03T12:02:16.531Z</time></trkpt><trkpt lat="44.3479675" lon="10.7727465"><ele>661.8333333333334</ele><time>2026-05-03T12:02:17.535Z</time></trkpt><trkpt lat="44.3479453" lon="10.7726583"><ele>663.0</ele><time>2026-05-03T12:02:18.535Z</time></trkpt><trkpt lat="44.3478863" lon="10.7725923"><ele>664.5</ele><time>2026-05-03T12:02:19.534Z</time></trkpt><trkpt lat="44.3477921" lon="10.7725611"><ele>666.0</ele><time>2026-05-03T12:02:20.535Z</time></trkpt><trkpt lat="44.3476669" lon="10.7725404"><ele>667.5</ele><time>2026-05-03T12:02:21.524Z</time></trkpt><trkpt lat="44.3475473" lon="10.7725081"><ele>669.0</ele><time>2026-05-03T12:02:22.519Z</time></trkpt><trkpt lat="44.3474324" lon="10.7724637"><ele>669.0</ele><time>2026-05-03T12:02:23.536Z</time></trkpt><trkpt lat="44.3473188" lon="10.7724014"><ele>669.0</ele><time>2026-05-03T12:02:24.536Z</time></trkpt><trkpt lat="44.3472091" lon="10.7723295"><ele>669.0</ele><time>2026-05-03T12:02:25.534Z</time></trkpt><trkpt lat="44.3471153" lon="10.7722601"><ele>669.0</ele><time>2026-05-03T12:02:26.538Z</time></trkpt><trkpt lat="44.3470612" lon="10.7721894"><ele>669.0</ele><time>2026-05-03T12:02:27.539Z</time></trkpt><trkpt lat="44.3470508" lon="10.7720964"><ele>669.8000000000001</ele><time>2026-05-03T12:02:28.546Z</time></trkpt><trkpt lat="44.3470864" lon="10.7719783"><ele>670.6</ele><time>2026-05-03T12:02:29.534Z</time></trkpt><trkpt lat="44.3471428" lon="10.7718453"><ele>671.4</ele><time>2026-05-03T12:02:30.534Z</time></trkpt><trkpt lat="44.3471987" lon="10.7717109"><ele>672.2</ele><time>2026-05-03T12:02:31.537Z</time></trkpt><trkpt lat="44.3472709" lon="10.7715638"><ele>673.0</ele><time>2026-05-03T12:02:32.545Z</time></trkpt><trkpt lat="44.3473178" lon="10.7714106"><ele>673.0</ele><time>2026-05-03T12:02:33.528Z</time></trkpt><trkpt lat="44.347344" lon="10.7712637"><ele>673.0</ele><time>2026-05-03T12:02:34.528Z</time></trkpt><trkpt lat="44.3473491" lon="10.7711196"><ele>673.0</ele><time>2026-05-03T12:02:35.535Z</time></trkpt><trkpt lat="44.3473183" lon="10.7709765"><ele>673.0</ele><time>2026-05-03T12:02:36.529Z</time></trkpt><trkpt lat="44.3472576" lon="10.7708305"><ele>673.0</ele><time>2026-05-03T12:02:37.543Z</time></trkpt><trkpt lat="44.3471668" lon="10.7706921"><ele>679.0</ele><time>2026-05-03T12:02:38.528Z</time></trkpt><trkpt lat="44.3470824" lon="10.7705465"><ele>685.0</ele><time>2026-05-03T12:02:39.528Z</time></trkpt><trkpt lat="44.3469997" lon="10.7703941"><ele>691.0</ele><time>2026-05-03T12:02:40.524Z</time></trkpt><trkpt lat="44.3469185" lon="10.7702315"><ele>697.0</ele><time>2026-05-03T12:02:41.535Z</time></trkpt><trkpt lat="44.3468389" lon="10.770054"><ele>698.75</ele><time>2026-05-03T12:02:42.531Z</time></trkpt><trkpt lat="44.346759" lon="10.7698613"><ele>700.5</ele><time>2026-05-03T12:02:43.531Z</time></trkpt><trkpt lat="44.3466991" lon="10.7696706"><ele>702.25</ele><time>2026-05-03T12:02:44.532Z</time></trkpt><trkpt lat="44.3466391" lon="10.7695092"><ele>704.0</ele><time>2026-05-03T12:02:45.537Z</time></trkpt><trkpt lat="44.3465865" lon="10.7693843"><ele>705.4000000000001</ele><time>2026-05-03T12:02:46.523Z</time></trkpt><trkpt lat="44.3465422" lon="10.7692852"><ele>706.8</ele><time>2026-05-03T12:02:47.529Z</time></trkpt><trkpt lat="44.3464895" lon="10.7692334"><ele>708.2</ele><time>2026-05-03T12:02:48.529Z</time></trkpt><trkpt lat="44.3463403" lon="10.7692391"><ele>709.5999999999999</ele><time>2026-05-03T12:02:50.533Z</time></trkpt><trkpt lat="44.3462418" lon="10.7692382"><ele>711.0</ele><time>2026-05-03T12:02:51.533Z</time></trkpt><trkpt lat="44.3461542" lon="10.7692244"><ele>712.6666666666666</ele><time>2026-05-03T12:02:52.52Z</time></trkpt><trkpt lat="44.3460833" lon="10.7691762"><ele>714.3333333333334</ele><time>2026-05-03T12:02:53.535Z</time></trkpt><trkpt lat="44.3460474" lon="10.7690859"><ele>716.0</ele><time>2026-05-03T12:02:54.522Z</time></trkpt><trkpt lat="44.3460532" lon="10.768961"><ele>717.6666666666667</ele><time>2026-05-03T12:02:55.519Z</time></trkpt><trkpt lat="44.3460656" lon="10.7688331"><ele>719.3333333333334</ele><time>2026-05-03T12:02:56.524Z</time></trkpt><trkpt lat="44.3460711" lon="10.768692"><ele>721.0</ele><time>2026-05-03T12:02:57.518Z</time></trkpt><trkpt lat="44.3460744" lon="10.7685336"><ele>723.0</ele><time>2026-05-03T12:02:58.537Z</time></trkpt><trkpt lat="44.3460715" lon="10.7683744"><ele>725.0</ele><time>2026-05-03T12:02:59.54Z</time></trkpt><trkpt lat="44.3460555" lon="10.76823"><ele>727.0</ele><time>2026-05-03T12:03:00.531Z</time></trkpt><trkpt lat="44.3460496" lon="10.7681335"><ele>729.0</ele><time>2026-05-03T12:03:01.53Z</time></trkpt><trkpt lat="44.3460485" lon="10.7679929"><ele>731.0</ele><time>2026-05-03T12:03:55.531Z</time></trkpt><trkpt lat="44.34605" lon="10.7678648"><ele>731.0</ele><time>2026-05-03T12:03:57.53Z</time></trkpt><trkpt lat="44.3460582" lon="10.7677762"><ele>731.0</ele><time>2026-05-03T12:03:59.53Z</time></trkpt><trkpt lat="44.346056" lon="10.7676759"><ele>731.0</ele><time>2026-05-03T12:04:02.525Z</time></trkpt><trkpt lat="44.3460815" lon="10.767555"><ele>731.0</ele><time>2026-05-03T12:04:05.53Z</time></trkpt><trkpt lat="44.3461172" lon="10.7674049"><ele>731.0</ele><time>2026-05-03T12:04:07.528Z</time></trkpt><trkpt lat="44.3461348" lon="10.7672855"><ele>731.0</ele><time>2026-05-03T12:04:09.534Z</time></trkpt><trkpt lat="44.3461106" lon="10.7671816"><ele>731.1666666666666</ele><time>2026-05-03T12:04:11.538Z</time></trkpt><trkpt lat="44.3460127" lon="10.7671008"><ele>731.3333333333333</ele><time>2026-05-03T12:04:13.54Z</time></trkpt><trkpt lat="44.3459429" lon="10.7670726"><ele>731.5</ele><time>2026-05-03T12:04:14.538Z</time></trkpt><trkpt lat="44.3458564" lon="10.7670536"><ele>731.6666666666666</ele><time>2026-05-03T12:04:15.528Z</time></trkpt><trkpt lat="44.3457682" lon="10.7670321"><ele>731.8333333333334</ele><time>2026-05-03T12:04:16.532Z</time></trkpt><trkpt lat="44.3456908" lon="10.7670021"><ele>732.0</ele><time>2026-05-03T12:04:17.526Z</time></trkpt><trkpt lat="44.3456113" lon="10.7669666"><ele>732.4000000000001</ele><time>2026-05-03T12:04:18.52Z</time></trkpt><trkpt lat="44.34553" lon="10.7669217"><ele>732.8000000000001</ele><time>2026-05-03T12:04:19.517Z</time></trkpt><trkpt lat="44.345449" lon="10.7668736"><ele>733.2</ele><time>2026-05-03T12:04:20.528Z</time></trkpt><trkpt lat="44.3453666" lon="10.7668133"><ele>733.6</ele><time>2026-05-03T12:04:21.524Z</time></trkpt><trkpt lat="44.3452847" lon="10.7667394"><ele>734.0</ele><time>2026-05-03T12:04:22.521Z</time></trkpt><trkpt lat="44.3452029" lon="10.7666607"><ele>731.4000000000001</ele><time>2026-05-03T12:04:23.519Z</time></trkpt><trkpt lat="44.345118" lon="10.7665808"><ele>728.8</ele><time>2026-05-03T12:04:24.522Z</time></trkpt><trkpt lat="44.3450313" lon="10.7665105"><ele>726.2</ele><time>2026-05-03T12:04:25.518Z</time></trkpt><trkpt lat="44.344945" lon="10.7664409"><ele>723.5999999999999</ele><time>2026-05-03T12:04:26.523Z</time></trkpt><trkpt lat="44.3448614" lon="10.7663679"><ele>721.0</ele><time>2026-05-03T12:04:27.528Z</time></trkpt><trkpt lat="44.3447812" lon="10.7663052"><ele>720.0</ele><time>2026-05-03T12:04:28.534Z</time></trkpt><trkpt lat="44.344705" lon="10.7662537"><ele>719.0</ele><time>2026-05-03T12:04:29.526Z</time></trkpt><trkpt lat="44.3446283" lon="10.7662201"><ele>718.0</ele><time>2026-05-03T12:04:30.526Z</time></trkpt><trkpt lat="44.3445399" lon="10.766195"><ele>717.0</ele><time>2026-05-03T12:04:31.525Z</time></trkpt><trkpt lat="44.3444447" lon="10.7661775"><ele>716.0</ele><time>2026-05-03T12:04:32.524Z</time></trkpt><trkpt lat="44.3443401" lon="10.7661588"><ele>716.0</ele><time>2026-05-03T12:04:33.52Z</time></trkpt><trkpt lat="44.3442249" lon="10.7661437"><ele>716.0</ele><time>2026-05-03T12:04:34.522Z</time></trkpt><trkpt lat="44.3441046" lon="10.766132"><ele>716.0</ele><time>2026-05-03T12:04:35.533Z</time></trkpt><trkpt lat="44.3439874" lon="10.7661043"><ele>716.0</ele><time>2026-05-03T12:04:36.516Z</time></trkpt><trkpt lat="44.3438749" lon="10.7660672"><ele>714.1999999999999</ele><time>2026-05-03T12:04:37.522Z</time></trkpt><trkpt lat="44.3437766" lon="10.7660197"><ele>712.4</ele><time>2026-05-03T12:04:38.517Z</time></trkpt><trkpt lat="44.343683" lon="10.7659519"><ele>710.6</ele><time>2026-05-03T12:04:39.523Z</time></trkpt><trkpt lat="44.3436157" lon="10.7658582"><ele>708.8</ele><time>2026-05-03T12:04:40.517Z</time></trkpt><trkpt lat="44.3435643" lon="10.7657537"><ele>707.0</ele><time>2026-05-03T12:04:41.518Z</time></trkpt><trkpt lat="44.3435281" lon="10.7656335"><ele>707.0</ele><time>2026-05-03T12:04:42.514Z</time></trkpt><trkpt lat="44.3434884" lon="10.7655232"><ele>707.0</ele><time>2026-05-03T12:04:43.511Z</time></trkpt><trkpt lat="44.3434389" lon="10.7654272"><ele>707.0</ele><time>2026-05-03T12:04:44.516Z</time></trkpt><trkpt lat="44.3433835" lon="10.7653429"><ele>707.0</ele><time>2026-05-03T12:04:45.511Z</time></trkpt><trkpt lat="44.3433304" lon="10.7652463"><ele>707.0</ele><time>2026-05-03T12:04:46.521Z</time></trkpt><trkpt lat="44.3432884" lon="10.7651332"><ele>707.0</ele><time>2026-05-03T12:04:47.513Z</time></trkpt><trkpt lat="44.3432614" lon="10.7650097"><ele>706.5</ele><time>2026-05-03T12:04:48.509Z</time></trkpt><trkpt lat="44.3432308" lon="10.7648869"><ele>706.0</ele><time>2026-05-03T12:04:49.509Z</time></trkpt><trkpt lat="44.343181" lon="10.7647881"><ele>705.5</ele><time>2026-05-03T12:04:50.512Z</time></trkpt><trkpt lat="44.3431332" lon="10.764691"><ele>705.0</ele><time>2026-05-03T12:04:51.513Z</time></trkpt><trkpt lat="44.3430693" lon="10.7645985"><ele>704.5</ele><time>2026-05-03T12:04:52.508Z</time></trkpt><trkpt lat="44.3429971" lon="10.7645292"><ele>704.0</ele><time>2026-05-03T12:04:53.509Z</time></trkpt><trkpt lat="44.3429131" lon="10.7644665"><ele>704.0</ele><time>2026-05-03T12:04:54.507Z</time></trkpt><trkpt lat="44.3428283" lon="10.7644108"><ele>704.0</ele><time>2026-05-03T12:04:55.511Z</time></trkpt><trkpt lat="44.3427355" lon="10.7643641"><ele>704.0</ele><time>2026-05-03T12:04:56.514Z</time></trkpt><trkpt lat="44.3426381" lon="10.7643259"><ele>704.0</ele><time>2026-05-03T12:04:57.507Z</time></trkpt><trkpt lat="44.3425332" lon="10.7642868"><ele>704.0</ele><time>2026-05-03T12:04:58.506Z</time></trkpt><trkpt lat="44.3424277" lon="10.7642391"><ele>701.6</ele><time>2026-05-03T12:04:59.509Z</time></trkpt><trkpt lat="44.3423308" lon="10.7641756"><ele>699.2</ele><time>2026-05-03T12:05:00.514Z</time></trkpt><trkpt lat="44.3422421" lon="10.7641029"><ele>696.8000000000001</ele><time>2026-05-03T12:05:01.506Z</time></trkpt><trkpt lat="44.3421728" lon="10.7640161"><ele>694.4000000000001</ele><time>2026-05-03T12:05:02.506Z</time></trkpt><trkpt lat="44.3421261" lon="10.763913"><ele>692.0</ele><time>2026-05-03T12:05:03.499Z</time></trkpt><trkpt lat="44.3420852" lon="10.7638077"><ele>692.0</ele><time>2026-05-03T12:05:04.507Z</time></trkpt><trkpt lat="44.3420248" lon="10.7637254"><ele>692.0</ele><time>2026-05-03T12:05:05.503Z</time></trkpt><trkpt lat="44.3419607" lon="10.7636626"><ele>692.0</ele><time>2026-05-03T12:05:06.514Z</time></trkpt><trkpt lat="44.3418827" lon="10.7636171"><ele>692.0</ele><time>2026-05-03T12:05:07.503Z</time></trkpt><trkpt lat="44.3417901" lon="10.7635769"><ele>692.0</ele><time>2026-05-03T12:05:08.507Z</time></trkpt><trkpt lat="44.3416842" lon="10.7635354"><ele>691.25</ele><time>2026-05-03T12:05:09.514Z</time></trkpt><trkpt lat="44.3415693" lon="10.7634832"><ele>690.5</ele><time>2026-05-03T12:05:10.511Z</time></trkpt><trkpt lat="44.3414544" lon="10.763429"><ele>689.75</ele><time>2026-05-03T12:05:11.508Z</time></trkpt><trkpt lat="44.3413425" lon="10.7633529"><ele>689.0</ele><time>2026-05-03T12:05:12.515Z</time></trkpt><trkpt lat="44.3412557" lon="10.7632365"><ele>689.0</ele><time>2026-05-03T12:05:13.514Z</time></trkpt><trkpt lat="44.3411875" lon="10.7630822"><ele>689.0</ele><time>2026-05-03T12:05:14.511Z</time></trkpt><trkpt lat="44.3411349" lon="10.7629139"><ele>689.0</ele><time>2026-05-03T12:05:15.499Z</time></trkpt><trkpt lat="44.3410934" lon="10.7627427"><ele>689.0</ele><time>2026-05-03T12:05:16.504Z</time></trkpt><trkpt lat="44.3410594" lon="10.7625826"><ele>690.8000000000001</ele><time>2026-05-03T12:05:17.508Z</time></trkpt><trkpt lat="44.3410371" lon="10.7624268"><ele>692.6</ele><time>2026-05-03T12:05:18.512Z</time></trkpt><trkpt lat="44.3410286" lon="10.7622899"><ele>694.4</ele><time>2026-05-03T12:05:19.509Z</time></trkpt><trkpt lat="44.3410244" lon="10.7621384"><ele>696.2</ele><time>2026-05-03T12:05:20.512Z</time></trkpt><trkpt lat="44.341026" lon="10.7619746"><ele>698.0</ele><time>2026-05-03T12:05:21.51Z</time></trkpt><trkpt lat="44.3410343" lon="10.7618147"><ele>698.25</ele><time>2026-05-03T12:05:22.507Z</time></trkpt><trkpt lat="44.3410876" lon="10.7616637"><ele>698.5</ele><time>2026-05-03T12:05:23.511Z</time></trkpt><trkpt lat="44.3411614" lon="10.7615131"><ele>698.75</ele><time>2026-05-03T12:05:24.504Z</time></trkpt><trkpt lat="44.3412371" lon="10.7613317"><ele>699.0</ele><time>2026-05-03T12:05:25.509Z</time></trkpt><trkpt lat="44.3413265" lon="10.7611655"><ele>694.25</ele><time>2026-05-03T12:05:26.508Z</time></trkpt><trkpt lat="44.3414136" lon="10.7610247"><ele>689.5</ele><time>2026-05-03T12:05:27.515Z</time></trkpt><trkpt lat="44.3414929" lon="10.7609069"><ele>684.75</ele><time>2026-05-03T12:05:28.514Z</time></trkpt><trkpt lat="44.3415553" lon="10.7607769"><ele>680.0</ele><time>2026-05-03T12:05:29.51Z</time></trkpt><trkpt lat="44.3415971" lon="10.7606303"><ele>680.0</ele><time>2026-05-03T12:05:30.523Z</time></trkpt><trkpt lat="44.3416136" lon="10.7604616"><ele>680.0</ele><time>2026-05-03T12:05:31.511Z</time></trkpt><trkpt lat="44.3416193" lon="10.7602877"><ele>680.0</ele><time>2026-05-03T12:05:32.518Z</time></trkpt><trkpt lat="44.3416269" lon="10.7601222"><ele>680.0</ele><time>2026-05-03T12:05:33.513Z</time></trkpt><trkpt lat="44.3416434" lon="10.7599525"><ele>681.75</ele><time>2026-05-03T12:05:34.511Z</time></trkpt><trkpt lat="44.3416718" lon="10.7597789"><ele>683.5</ele><time>2026-05-03T12:05:35.507Z</time></trkpt><trkpt lat="44.3417129" lon="10.75961"><ele>685.25</ele><time>2026-05-03T12:05:36.514Z</time></trkpt><trkpt lat="44.3417651" lon="10.759444"><ele>687.0</ele><time>2026-05-03T12:05:37.519Z</time></trkpt><trkpt lat="44.3418258" lon="10.7592846"><ele>690.75</ele><time>2026-05-03T12:05:38.51Z</time></trkpt><trkpt lat="44.3418935" lon="10.7591318"><ele>694.5</ele><time>2026-05-03T12:05:39.514Z</time></trkpt><trkpt lat="44.3419776" lon="10.7589984"><ele>698.25</ele><time>2026-05-03T12:05:40.513Z</time></trkpt><trkpt lat="44.3420658" lon="10.7588799"><ele>702.0</ele><time>2026-05-03T12:05:41.517Z</time></trkpt><trkpt lat="44.3421491" lon="10.7587578"><ele>702.0</ele><time>2026-05-03T12:05:42.518Z</time></trkpt><trkpt lat="44.3422123" lon="10.7586305"><ele>702.0</ele><time>2026-05-03T12:05:43.516Z</time></trkpt><trkpt lat="44.3422536" lon="10.7585087"><ele>702.0</ele><time>2026-05-03T12:05:44.517Z</time></trkpt><trkpt lat="44.3422767" lon="10.7584141"><ele>702.0</ele><time>2026-05-03T12:05:45.528Z</time></trkpt><trkpt lat="44.3422942" lon="10.7582608"><ele>702.0</ele><time>2026-05-03T12:05:47.52Z</time></trkpt><trkpt lat="44.3422931" lon="10.7581582"><ele>702.6666666666666</ele><time>2026-05-03T12:05:48.529Z</time></trkpt><trkpt lat="44.3422864" lon="10.758053"><ele>703.3333333333334</ele><time>2026-05-03T12:05:49.547Z</time></trkpt><trkpt lat="44.3422606" lon="10.7579579"><ele>704.0</ele><time>2026-05-03T12:05:50.521Z</time></trkpt><trkpt lat="44.342218" lon="10.7578651"><ele>704.6666666666667</ele><time>2026-05-03T12:05:51.524Z</time></trkpt><trkpt lat="44.3421638" lon="10.7577458"><ele>705.3333333333334</ele><time>2026-05-03T12:05:52.526Z</time></trkpt><trkpt lat="44.3421087" lon="10.7576085"><ele>706.0</ele><time>2026-05-03T12:05:53.523Z</time></trkpt><trkpt lat="44.3420611" lon="10.75748"><ele>702.5</ele><time>2026-05-03T12:05:54.521Z</time></trkpt><trkpt lat="44.3420144" lon="10.7573502"><ele>699.0</ele><time>2026-05-03T12:05:55.526Z</time></trkpt><trkpt lat="44.3419614" lon="10.7572263"><ele>695.5</ele><time>2026-05-03T12:05:56.52Z</time></trkpt><trkpt lat="44.3418966" lon="10.7570958"><ele>692.0</ele><time>2026-05-03T12:05:57.525Z</time></trkpt><trkpt lat="44.3418122" lon="10.7569573"><ele>688.25</ele><time>2026-05-03T12:05:58.519Z</time></trkpt><trkpt lat="44.3417299" lon="10.7568203"><ele>684.5</ele><time>2026-05-03T12:05:59.52Z</time></trkpt><trkpt lat="44.3416505" lon="10.7566828"><ele>680.75</ele><time>2026-05-03T12:06:00.518Z</time></trkpt><trkpt lat="44.3415848" lon="10.7565474"><ele>677.0</ele><time>2026-05-03T12:06:01.515Z</time></trkpt><trkpt lat="44.3415322" lon="10.7564203"><ele>677.0</ele><time>2026-05-03T12:06:02.514Z</time></trkpt><trkpt lat="44.3414933" lon="10.7562802"><ele>677.0</ele><time>2026-05-03T12:06:03.523Z</time></trkpt><trkpt lat="44.3414917" lon="10.7561266"><ele>677.0</ele><time>2026-05-03T12:06:04.52Z</time></trkpt><trkpt lat="44.3415235" lon="10.7559686"><ele>677.0</ele><time>2026-05-03T12:06:05.51Z</time></trkpt><trkpt lat="44.3415482" lon="10.7558217"><ele>677.0</ele><time>2026-05-03T12:06:06.509Z</time></trkpt><trkpt lat="44.3415605" lon="10.7556794"><ele>674.25</ele><time>2026-05-03T12:06:07.515Z</time></trkpt><trkpt lat="44.3415568" lon="10.7555311"><ele>671.5</ele><time>2026-05-03T12:06:08.53Z</time></trkpt><trkpt lat="44.3415433" lon="10.7553759"><ele>668.75</ele><time>2026-05-03T12:06:09.511Z</time></trkpt><trkpt lat="44.3415312" lon="10.7552088"><ele>666.0</ele><time>2026-05-03T12:06:10.522Z</time></trkpt><trkpt lat="44.341506" lon="10.7550233"><ele>665.0</ele><time>2026-05-03T12:06:11.517Z</time></trkpt><trkpt lat="44.3414817" lon="10.7548431"><ele>664.0</ele><time>2026-05-03T12:06:12.516Z</time></trkpt><trkpt lat="44.3414545" lon="10.754677"><ele>663.0</ele><time>2026-05-03T12:06:13.515Z</time></trkpt><trkpt lat="44.3414041" lon="10.7545157"><ele>662.0</ele><time>2026-05-03T12:06:14.516Z</time></trkpt><trkpt lat="44.3413539" lon="10.7543524"><ele>662.0</ele><time>2026-05-03T12:06:15.515Z</time></trkpt><trkpt lat="44.3413035" lon="10.7541884"><ele>662.0</ele><time>2026-05-03T12:06:16.518Z</time></trkpt><trkpt lat="44.3412535" lon="10.7540225"><ele>662.0</ele><time>2026-05-03T12:06:17.519Z</time></trkpt><trkpt lat="44.3411988" lon="10.7538468"><ele>662.0</ele><time>2026-05-03T12:06:18.519Z</time></trkpt><trkpt lat="44.3411411" lon="10.753674"><ele>659.5</ele><time>2026-05-03T12:06:19.528Z</time></trkpt><trkpt lat="44.3410953" lon="10.7535067"><ele>657.0</ele><time>2026-05-03T12:06:20.517Z</time></trkpt><trkpt lat="44.3410644" lon="10.7533434"><ele>654.5</ele><time>2026-05-03T12:06:21.522Z</time></trkpt><trkpt lat="44.3410339" lon="10.7531807"><ele>652.0</ele><time>2026-05-03T12:06:22.522Z</time></trkpt><trkpt lat="44.340997" lon="10.7530116"><ele>652.0</ele><time>2026-05-03T12:06:23.515Z</time></trkpt><trkpt lat="44.3409637" lon="10.7528552"><ele>652.0</ele><time>2026-05-03T12:06:24.532Z</time></trkpt><trkpt lat="44.3409353" lon="10.7527304"><ele>652.0</ele><time>2026-05-03T12:06:25.527Z</time></trkpt><trkpt lat="44.3409238" lon="10.7526406"><ele>652.0</ele><time>2026-05-03T12:06:26.528Z</time></trkpt><trkpt lat="44.3409481" lon="10.7525538"><ele>652.0</ele><time>2026-05-03T12:07:15.523Z</time></trkpt><trkpt lat="44.3409478" lon="10.7524543"><ele>652.0</ele><time>2026-05-03T12:07:17.519Z</time></trkpt><trkpt lat="44.3409128" lon="10.7523129"><ele>651.5</ele><time>2026-05-03T12:07:19.518Z</time></trkpt><trkpt lat="44.3408721" lon="10.7522207"><ele>651.0</ele><time>2026-05-03T12:07:20.511Z</time></trkpt><trkpt lat="44.3408179" lon="10.7521245"><ele>650.5</ele><time>2026-05-03T12:07:21.526Z</time></trkpt><trkpt lat="44.3407569" lon="10.7520221"><ele>650.0</ele><time>2026-05-03T12:07:22.519Z</time></trkpt><trkpt lat="44.3407063" lon="10.7519246"><ele>649.5</ele><time>2026-05-03T12:07:23.525Z</time></trkpt><trkpt lat="44.3406551" lon="10.7518339"><ele>649.0</ele><time>2026-05-03T12:07:24.523Z</time></trkpt><trkpt lat="44.3406073" lon="10.7517501"><ele>649.6</ele><time>2026-05-03T12:07:25.521Z</time></trkpt><trkpt lat="44.3405656" lon="10.7516778"><ele>650.2</ele><time>2026-05-03T12:07:26.521Z</time></trkpt><trkpt lat="44.3404858" lon="10.751581"><ele>650.8000000000001</ele><time>2026-05-03T12:07:28.52Z</time></trkpt><trkpt lat="44.3404018" lon="10.7515303"><ele>651.4000000000001</ele><time>2026-05-03T12:07:30.521Z</time></trkpt><trkpt lat="44.340324" lon="10.7514807"><ele>652.0</ele><time>2026-05-03T12:07:32.522Z</time></trkpt><trkpt lat="44.3402438" lon="10.7513863"><ele>652.0</ele><time>2026-05-03T12:07:34.515Z</time></trkpt><trkpt lat="44.3401641" lon="10.7512519"><ele>652.0</ele><time>2026-05-03T12:07:36.511Z</time></trkpt><trkpt lat="44.3401272" lon="10.7511738"><ele>652.0</ele><time>2026-05-03T12:07:37.509Z</time></trkpt><trkpt lat="44.3400894" lon="10.7511015"><ele>652.0</ele><time>2026-05-03T12:07:38.509Z</time></trkpt><trkpt lat="44.3400314" lon="10.7509588"><ele>652.0</ele><time>2026-05-03T12:07:40.503Z</time></trkpt><trkpt lat="44.3399822" lon="10.7508012"><ele>649.8571428571429</ele><time>2026-05-03T12:07:42.499Z</time></trkpt><trkpt lat="44.339952" lon="10.7507227"><ele>647.7142857142857</ele><time>2026-05-03T12:07:43.503Z</time></trkpt><trkpt lat="44.3399198" lon="10.7506346"><ele>645.5714285714286</ele><time>2026-05-03T12:07:44.506Z</time></trkpt><trkpt lat="44.3398855" lon="10.7505494"><ele>643.4285714285714</ele><time>2026-05-03T12:07:45.504Z</time></trkpt><trkpt lat="44.3398443" lon="10.7504743"><ele>641.2857142857142</ele><time>2026-05-03T12:07:46.501Z</time></trkpt><trkpt lat="44.3398011" lon="10.7504042"><ele>639.1428571428571</ele><time>2026-05-03T12:07:47.511Z</time></trkpt><trkpt lat="44.3397589" lon="10.7503381"><ele>637.0</ele><time>2026-05-03T12:07:48.508Z</time></trkpt><trkpt lat="44.3397156" lon="10.7502696"><ele>633.25</ele><time>2026-05-03T12:07:49.516Z</time></trkpt><trkpt lat="44.3396399" lon="10.7501247"><ele>629.5</ele><time>2026-05-03T12:07:51.506Z</time></trkpt><trkpt lat="44.3395944" lon="10.7499902"><ele>625.75</ele><time>2026-05-03T12:07:53.506Z</time></trkpt><trkpt lat="44.3395479" lon="10.7498561"><ele>622.0</ele><time>2026-05-03T12:07:55.505Z</time></trkpt><trkpt lat="44.3394937" lon="10.7497007"><ele>622.0</ele><time>2026-05-03T12:07:57.507Z</time></trkpt><trkpt lat="44.3394419" lon="10.7495532"><ele>622.0</ele><time>2026-05-03T12:07:59.504Z</time></trkpt><trkpt lat="44.3394123" lon="10.7494014"><ele>622.0</ele><time>2026-05-03T12:08:01.498Z</time></trkpt><trkpt lat="44.3393456" lon="10.7493245"><ele>622.0</ele><time>2026-05-03T12:08:03.5Z</time></trkpt><trkpt lat="44.3392749" lon="10.7492691"><ele>622.0</ele><time>2026-05-03T12:08:05.504Z</time></trkpt><trkpt lat="44.3392291" lon="10.7491977"><ele>621.8000000000001</ele><time>2026-05-03T12:08:07.501Z</time></trkpt><trkpt lat="44.3392473" lon="10.7490905"><ele>621.6</ele><time>2026-05-03T12:08:09.499Z</time></trkpt><trkpt lat="44.3393038" lon="10.7489655"><ele>621.4000000000001</ele><time>2026-05-03T12:08:11.5Z</time></trkpt><trkpt lat="44.3393596" lon="10.7488274"><ele>621.2</ele><time>2026-05-03T12:08:13.502Z</time></trkpt><trkpt lat="44.3394242" lon="10.7486996"><ele>621.0</ele><time>2026-05-03T12:08:15.505Z</time></trkpt><trkpt lat="44.3394814" lon="10.7485895"><ele>622.8333333333334</ele><time>2026-05-03T12:08:17.509Z</time></trkpt><trkpt lat="44.3394608" lon="10.7485039"><ele>624.6666666666666</ele><time>2026-05-03T12:08:19.511Z</time></trkpt><trkpt lat="44.3394001" lon="10.7484253"><ele>626.5</ele><time>2026-05-03T12:08:21.51Z</time></trkpt><trkpt lat="44.3393566" lon="10.7483204"><ele>628.3333333333333</ele><time>2026-05-03T12:08:23.513Z</time></trkpt><trkpt lat="44.3393315" lon="10.7481633"><ele>630.1666666666666</ele><time>2026-05-03T12:08:25.502Z</time></trkpt><trkpt lat="44.3393235" lon="10.7480703"><ele>632.0</ele><time>2026-05-03T12:08:26.513Z</time></trkpt><trkpt lat="44.3393055" lon="10.7479316"><ele>632.0</ele><time>2026-05-03T12:08:28.514Z</time></trkpt><trkpt lat="44.3392528" lon="10.7478612"><ele>632.0</ele><time>2026-05-03T12:08:30.515Z</time></trkpt><trkpt lat="44.3391765" lon="10.747794"><ele>632.0</ele><time>2026-05-03T12:08:32.512Z</time></trkpt><trkpt lat="44.3391017" lon="10.747733"><ele>632.0</ele><time>2026-05-03T12:08:34.519Z</time></trkpt><trkpt lat="44.3390395" lon="10.7476993"><ele>632.0</ele><time>2026-05-03T12:08:36.522Z</time></trkpt><trkpt lat="44.3389573" lon="10.7476641"><ele>632.0</ele><time>2026-05-03T12:08:40.508Z</time></trkpt><trkpt lat="44.3388869" lon="10.7476317"><ele>633.6666666666666</ele><time>2026-05-03T12:08:42.505Z</time></trkpt><trkpt lat="44.3388122" lon="10.7475668"><ele>635.3333333333333</ele><time>2026-05-03T12:08:44.507Z</time></trkpt><trkpt lat="44.3387548" lon="10.7475129"><ele>637.0</ele><time>2026-05-03T12:08:45.504Z</time></trkpt><trkpt lat="44.3386925" lon="10.7474583"><ele>638.6666666666666</ele><time>2026-05-03T12:08:46.496Z</time></trkpt><trkpt lat="44.3386244" lon="10.7474077"><ele>640.3333333333334</ele><time>2026-05-03T12:08:47.503Z</time></trkpt><trkpt lat="44.3385542" lon="10.7473479"><ele>642.0</ele><time>2026-05-03T12:08:48.499Z</time></trkpt><trkpt lat="44.338487" lon="10.7472921"><ele>642.0</ele><time>2026-05-03T12:08:49.506Z</time></trkpt><trkpt lat="44.3384155" lon="10.7472359"><ele>642.0</ele><time>2026-05-03T12:08:50.502Z</time></trkpt><trkpt lat="44.3383384" lon="10.7471798"><ele>642.0</ele><time>2026-05-03T12:08:51.499Z</time></trkpt><trkpt lat="44.3382702" lon="10.7471243"><ele>642.0</ele><time>2026-05-03T12:08:52.495Z</time></trkpt><trkpt lat="44.3382096" lon="10.7470585"><ele>642.0</ele><time>2026-05-03T12:08:53.502Z</time></trkpt><trkpt lat="44.3381596" lon="10.7469776"><ele>642.0</ele><time>2026-05-03T12:08:54.504Z</time></trkpt><trkpt lat="44.3381169" lon="10.7468824"><ele>642.8333333333334</ele><time>2026-05-03T12:08:55.498Z</time></trkpt><trkpt lat="44.338085" lon="10.7467843"><ele>643.6666666666666</ele><time>2026-05-03T12:08:56.504Z</time></trkpt><trkpt lat="44.3380564" lon="10.7466881"><ele>644.5</ele><time>2026-05-03T12:08:57.503Z</time></trkpt><trkpt lat="44.338024" lon="10.7465819"><ele>645.3333333333333</ele><time>2026-05-03T12:08:58.504Z</time></trkpt><trkpt lat="44.3379858" lon="10.7464773"><ele>646.1666666666666</ele><time>2026-05-03T12:08:59.506Z</time></trkpt><trkpt lat="44.3379385" lon="10.7463727"><ele>647.0</ele><time>2026-05-03T12:09:00.498Z</time></trkpt><trkpt lat="44.3378902" lon="10.7462738"><ele>647.0</ele><time>2026-05-03T12:09:01.496Z</time></trkpt><trkpt lat="44.3378382" lon="10.7461819"><ele>647.0</ele><time>2026-05-03T12:09:02.499Z</time></trkpt><trkpt lat="44.337787" lon="10.746103"><ele>647.0</ele><time>2026-05-03T12:09:03.504Z</time></trkpt><trkpt lat="44.3377277" lon="10.7460349"><ele>647.0</ele><time>2026-05-03T12:09:04.506Z</time></trkpt><trkpt lat="44.3376653" lon="10.7459682"><ele>647.0</ele><time>2026-05-03T12:09:05.509Z</time></trkpt><trkpt lat="44.3376003" lon="10.745909"><ele>647.0</ele><time>2026-05-03T12:09:06.506Z</time></trkpt><trkpt lat="44.3375349" lon="10.745842"><ele>643.4</ele><time>2026-05-03T12:09:07.511Z</time></trkpt><trkpt lat="44.3374613" lon="10.7457566"><ele>639.8000000000001</ele><time>2026-05-03T12:09:08.507Z</time></trkpt><trkpt lat="44.3373921" lon="10.7456715"><ele>636.2</ele><time>2026-05-03T12:09:09.503Z</time></trkpt><trkpt lat="44.3373317" lon="10.7455798"><ele>632.6</ele><time>2026-05-03T12:09:10.504Z</time></trkpt><trkpt lat="44.3372723" lon="10.7454741"><ele>629.0</ele><time>2026-05-03T12:09:11.5Z</time></trkpt><trkpt lat="44.3372255" lon="10.7453849"><ele>629.0</ele><time>2026-05-03T12:09:12.499Z</time></trkpt><trkpt lat="44.3371842" lon="10.7453085"><ele>629.0</ele><time>2026-05-03T12:09:13.499Z</time></trkpt><trkpt lat="44.3371342" lon="10.7452227"><ele>629.0</ele><time>2026-05-03T12:09:14.516Z</time></trkpt><trkpt lat="44.3370998" lon="10.745128"><ele>629.0</ele><time>2026-05-03T12:09:15.499Z</time></trkpt><trkpt lat="44.3370776" lon="10.7450248"><ele>629.0</ele><time>2026-05-03T12:09:16.5Z</time></trkpt><trkpt lat="44.3370555" lon="10.744925"><ele>629.0</ele><time>2026-05-03T12:09:17.504Z</time></trkpt><trkpt lat="44.3370326" lon="10.744837"><ele>629.0</ele><time>2026-05-03T12:09:18.502Z</time></trkpt><trkpt lat="44.3369714" lon="10.7447253"><ele>629.0</ele><time>2026-05-03T12:09:20.506Z</time></trkpt><trkpt lat="44.3369341" lon="10.7446344"><ele>629.0</ele><time>2026-05-03T12:09:22.517Z</time></trkpt><trkpt lat="44.3369148" lon="10.7445101"><ele>629.0</ele><time>2026-05-03T12:09:24.515Z</time></trkpt><trkpt lat="44.3369504" lon="10.7443766"><ele>629.0</ele><time>2026-05-03T12:09:26.52Z</time></trkpt><trkpt lat="44.337043" lon="10.7442899"><ele>629.0</ele><time>2026-05-03T12:09:28.516Z</time></trkpt><trkpt lat="44.3371008" lon="10.7442474"><ele>629.0</ele><time>2026-05-03T12:09:29.516Z</time></trkpt><trkpt lat="44.3371649" lon="10.7441242"><ele>626.8333333333333</ele><time>2026-05-03T12:09:31.52Z</time></trkpt><trkpt lat="44.3371333" lon="10.7439694"><ele>624.6666666666666</ele><time>2026-05-03T12:09:33.512Z</time></trkpt><trkpt lat="44.3371113" lon="10.743873"><ele>622.5</ele><time>2026-05-03T12:09:34.506Z</time></trkpt><trkpt lat="44.337081" lon="10.7437792"><ele>620.3333333333334</ele><time>2026-05-03T12:09:35.509Z</time></trkpt><trkpt lat="44.3370376" lon="10.7436865"><ele>618.1666666666667</ele><time>2026-05-03T12:09:36.512Z</time></trkpt><trkpt lat="44.3369841" lon="10.7436032"><ele>616.0</ele><time>2026-05-03T12:09:37.513Z</time></trkpt><trkpt lat="44.3369232" lon="10.7435282"><ele>613.7142857142857</ele><time>2026-05-03T12:09:38.515Z</time></trkpt><trkpt lat="44.336863" lon="10.7434779"><ele>611.4285714285714</ele><time>2026-05-03T12:09:39.518Z</time></trkpt><trkpt lat="44.3368036" lon="10.7434387"><ele>609.1428571428571</ele><time>2026-05-03T12:09:40.518Z</time></trkpt><trkpt lat="44.3367437" lon="10.7434041"><ele>606.8571428571429</ele><time>2026-05-03T12:09:41.523Z</time></trkpt><trkpt lat="44.3366759" lon="10.743381"><ele>604.5714285714286</ele><time>2026-05-03T12:09:42.521Z</time></trkpt><trkpt lat="44.336608" lon="10.7433715"><ele>602.2857142857142</ele><time>2026-05-03T12:09:43.526Z</time></trkpt><trkpt lat="44.3365431" lon="10.74338"><ele>600.0</ele><time>2026-05-03T12:09:44.522Z</time></trkpt><trkpt lat="44.3364779" lon="10.7433894"><ele>600.0</ele><time>2026-05-03T12:09:45.53Z</time></trkpt><trkpt lat="44.336398" lon="10.7433854"><ele>600.0</ele><time>2026-05-03T12:09:46.523Z</time></trkpt><trkpt lat="44.3363169" lon="10.7433771"><ele>600.0</ele><time>2026-05-03T12:09:47.523Z</time></trkpt><trkpt lat="44.3362377" lon="10.7433769"><ele>600.0</ele><time>2026-05-03T12:09:48.52Z</time></trkpt><trkpt lat="44.3361342" lon="10.7433379"><ele>600.0</ele><time>2026-05-03T12:09:50.529Z</time></trkpt><trkpt lat="44.3360974" lon="10.7432655"><ele>600.0</ele><time>2026-05-03T12:09:51.527Z</time></trkpt><trkpt lat="44.3360223" lon="10.7431638"><ele>599.3333333333334</ele><time>2026-05-03T12:09:53.514Z</time></trkpt><trkpt lat="44.3359693" lon="10.7430482"><ele>598.6666666666666</ele><time>2026-05-03T12:09:55.52Z</time></trkpt><trkpt lat="44.3359732" lon="10.7428976"><ele>598.0</ele><time>2026-05-03T12:09:57.527Z</time></trkpt><trkpt lat="44.3359764" lon="10.742801"><ele>597.3333333333333</ele><time>2026-05-03T12:09:58.522Z</time></trkpt><trkpt lat="44.3359849" lon="10.7426936"><ele>596.6666666666666</ele><time>2026-05-03T12:09:59.518Z</time></trkpt><trkpt lat="44.335992" lon="10.7425802"><ele>596.0</ele><time>2026-05-03T12:10:00.52Z</time></trkpt><trkpt lat="44.3360046" lon="10.7424474"><ele>593.8</ele><time>2026-05-03T12:10:01.524Z</time></trkpt><trkpt lat="44.3360236" lon="10.7423222"><ele>591.6</ele><time>2026-05-03T12:10:02.524Z</time></trkpt><trkpt lat="44.3360442" lon="10.7421949"><ele>589.4</ele><time>2026-05-03T12:10:03.524Z</time></trkpt><trkpt lat="44.3360628" lon="10.7420756"><ele>587.2</ele><time>2026-05-03T12:10:04.525Z</time></trkpt><trkpt lat="44.3360846" lon="10.7419456"><ele>585.0</ele><time>2026-05-03T12:10:05.528Z</time></trkpt><trkpt lat="44.3361059" lon="10.7418109"><ele>583.3333333333334</ele><time>2026-05-03T12:10:06.527Z</time></trkpt><trkpt lat="44.3361253" lon="10.7416842"><ele>581.6666666666666</ele><time>2026-05-03T12:10:07.523Z</time></trkpt><trkpt lat="44.3361501" lon="10.7415646"><ele>580.0</ele><time>2026-05-03T12:10:08.526Z</time></trkpt><trkpt lat="44.3361667" lon="10.7414561"><ele>578.3333333333333</ele><time>2026-05-03T12:10:09.518Z</time></trkpt><trkpt lat="44.3361787" lon="10.741344"><ele>576.6666666666666</ele><time>2026-05-03T12:10:10.518Z</time></trkpt><trkpt lat="44.3361831" lon="10.7412291"><ele>575.0</ele><time>2026-05-03T12:10:11.517Z</time></trkpt><trkpt lat="44.3361933" lon="10.7411168"><ele>573.8333333333333</ele><time>2026-05-03T12:10:12.518Z</time></trkpt><trkpt lat="44.3362034" lon="10.7410076"><ele>572.6666666666666</ele><time>2026-05-03T12:10:13.512Z</time></trkpt><trkpt lat="44.3362195" lon="10.7409196"><ele>571.5</ele><time>2026-05-03T12:10:14.523Z</time></trkpt><trkpt lat="44.3362381" lon="10.7407956"><ele>570.3333333333334</ele><time>2026-05-03T12:10:16.52Z</time></trkpt><trkpt lat="44.3362767" lon="10.740704"><ele>569.1666666666667</ele><time>2026-05-03T12:10:19.516Z</time></trkpt><trkpt lat="44.3363198" lon="10.7406114"><ele>568.0</ele><time>2026-05-03T12:10:22.512Z</time></trkpt><trkpt lat="44.3362559" lon="10.7405683"><ele>568.0</ele><time>2026-05-03T12:11:08.524Z</time></trkpt><trkpt lat="44.336193" lon="10.7405191"><ele>568.0</ele><time>2026-05-03T12:11:09.52Z</time></trkpt><trkpt lat="44.336094" lon="10.7404361"><ele>568.0</ele><time>2026-05-03T12:11:10.525Z</time></trkpt><trkpt lat="44.3359703" lon="10.7403423"><ele>568.0</ele><time>2026-05-03T12:11:11.512Z</time></trkpt><trkpt lat="44.3358417" lon="10.7402723"><ele>568.0</ele><time>2026-05-03T12:11:12.51Z</time></trkpt><trkpt lat="44.3357011" lon="10.740235"><ele>568.0</ele><time>2026-05-03T12:11:13.522Z</time></trkpt><trkpt lat="44.3355544" lon="10.7402473"><ele>568.0</ele><time>2026-05-03T12:11:14.518Z</time></trkpt><trkpt lat="44.3354174" lon="10.7403059"><ele>568.0</ele><time>2026-05-03T12:11:15.506Z</time></trkpt><trkpt lat="44.3352891" lon="10.7403768"><ele>568.8</ele><time>2026-05-03T12:11:16.509Z</time></trkpt><trkpt lat="44.3351725" lon="10.7404355"><ele>569.5999999999999</ele><time>2026-05-03T12:11:17.513Z</time></trkpt><trkpt lat="44.3350723" lon="10.7404642"><ele>570.4000000000001</ele><time>2026-05-03T12:11:18.526Z</time></trkpt><trkpt lat="44.3349959" lon="10.7404447"><ele>571.2</ele><time>2026-05-03T12:11:19.511Z</time></trkpt><trkpt lat="44.3349321" lon="10.7403979"><ele>572.0</ele><time>2026-05-03T12:11:20.512Z</time></trkpt><trkpt lat="44.3349098" lon="10.7402979"><ele>570.75</ele><time>2026-05-03T12:11:21.513Z</time></trkpt><trkpt lat="44.3349399" lon="10.740171"><ele>569.5</ele><time>2026-05-03T12:11:22.507Z</time></trkpt><trkpt lat="44.3350039" lon="10.7400059"><ele>568.25</ele><time>2026-05-03T12:11:23.508Z</time></trkpt><trkpt lat="44.3350909" lon="10.7398456"><ele>567.0</ele><time>2026-05-03T12:11:24.508Z</time></trkpt><trkpt lat="44.3351798" lon="10.7396782"><ele>567.0</ele><time>2026-05-03T12:11:25.517Z</time></trkpt><trkpt lat="44.3352448" lon="10.7395299"><ele>567.0</ele><time>2026-05-03T12:11:26.51Z</time></trkpt><trkpt lat="44.3352833" lon="10.7393864"><ele>567.0</ele><time>2026-05-03T12:11:27.519Z</time></trkpt><trkpt lat="44.3352872" lon="10.7392429"><ele>567.0</ele><time>2026-05-03T12:11:28.533Z</time></trkpt><trkpt lat="44.3352536" lon="10.7390826"><ele>568.0</ele><time>2026-05-03T12:11:29.521Z</time></trkpt><trkpt lat="44.3352021" lon="10.738916"><ele>569.0</ele><time>2026-05-03T12:11:30.509Z</time></trkpt><trkpt lat="44.3351311" lon="10.7387496"><ele>570.0</ele><time>2026-05-03T12:11:31.514Z</time></trkpt><trkpt lat="44.3350478" lon="10.7385814"><ele>571.0</ele><time>2026-05-03T12:11:32.518Z</time></trkpt><trkpt lat="44.33495" lon="10.7384162"><ele>571.25</ele><time>2026-05-03T12:11:33.521Z</time></trkpt><trkpt lat="44.3348448" lon="10.7382606"><ele>571.5</ele><time>2026-05-03T12:11:34.518Z</time></trkpt><trkpt lat="44.3347527" lon="10.7381091"><ele>571.75</ele><time>2026-05-03T12:11:35.526Z</time></trkpt><trkpt lat="44.3346603" lon="10.7379583"><ele>572.0</ele><time>2026-05-03T12:11:36.517Z</time></trkpt><trkpt lat="44.3345672" lon="10.7378032"><ele>573.0</ele><time>2026-05-03T12:11:37.52Z</time></trkpt><trkpt lat="44.3344823" lon="10.7376574"><ele>574.0</ele><time>2026-05-03T12:11:38.521Z</time></trkpt><trkpt lat="44.3343962" lon="10.7375429"><ele>575.0</ele><time>2026-05-03T12:11:39.527Z</time></trkpt><trkpt lat="44.3343293" lon="10.7374933"><ele>576.0</ele><time>2026-05-03T12:11:40.526Z</time></trkpt><trkpt lat="44.33426" lon="10.7374845"><ele>577.0</ele><time>2026-05-03T12:11:41.523Z</time></trkpt><trkpt lat="44.3341903" lon="10.7375238"><ele>577.0</ele><time>2026-05-03T12:11:42.521Z</time></trkpt><trkpt lat="44.3341541" lon="10.7376275"><ele>577.0</ele><time>2026-05-03T12:11:43.526Z</time></trkpt><trkpt lat="44.3341471" lon="10.7377698"><ele>577.0</ele><time>2026-05-03T12:11:44.525Z</time></trkpt><trkpt lat="44.3341576" lon="10.7379373"><ele>577.0</ele><time>2026-05-03T12:11:45.522Z</time></trkpt><trkpt lat="44.3341598" lon="10.7381205"><ele>577.0</ele><time>2026-05-03T12:11:46.521Z</time></trkpt><trkpt lat="44.3341561" lon="10.7383159"><ele>579.5</ele><time>2026-05-03T12:11:47.523Z</time></trkpt><trkpt lat="44.3341537" lon="10.7385106"><ele>582.0</ele><time>2026-05-03T12:11:48.518Z</time></trkpt><trkpt lat="44.3341503" lon="10.7387028"><ele>584.5</ele><time>2026-05-03T12:11:49.538Z</time></trkpt><trkpt lat="44.3341424" lon="10.7388996"><ele>587.0</ele><time>2026-05-03T12:11:50.52Z</time></trkpt><trkpt lat="44.3341296" lon="10.7390897"><ele>587.2</ele><time>2026-05-03T12:11:51.52Z</time></trkpt><trkpt lat="44.334124" lon="10.7392666"><ele>587.4000000000001</ele><time>2026-05-03T12:11:52.516Z</time></trkpt><trkpt lat="44.3341205" lon="10.7394157"><ele>587.5999999999999</ele><time>2026-05-03T12:11:53.517Z</time></trkpt><trkpt lat="44.3341031" lon="10.7395264"><ele>587.8</ele><time>2026-05-03T12:11:54.522Z</time></trkpt><trkpt lat="44.3340551" lon="10.739605"><ele>588.0</ele><time>2026-05-03T12:11:55.519Z</time></trkpt><trkpt lat="44.3339766" lon="10.7396603"><ele>590.4</ele><time>2026-05-03T12:11:56.525Z</time></trkpt><trkpt lat="44.3338811" lon="10.7397016"><ele>592.8</ele><time>2026-05-03T12:11:57.525Z</time></trkpt><trkpt lat="44.3337787" lon="10.7396883"><ele>595.2</ele><time>2026-05-03T12:11:58.522Z</time></trkpt><trkpt lat="44.3336762" lon="10.7396301"><ele>597.6</ele><time>2026-05-03T12:11:59.529Z</time></trkpt><trkpt lat="44.3335803" lon="10.7395329"><ele>600.0</ele><time>2026-05-03T12:12:00.523Z</time></trkpt><trkpt lat="44.3334878" lon="10.7394013"><ele>600.25</ele><time>2026-05-03T12:12:01.513Z</time></trkpt><trkpt lat="44.3334" lon="10.7392553"><ele>600.5</ele><time>2026-05-03T12:12:02.512Z</time></trkpt><trkpt lat="44.3333043" lon="10.7391114"><ele>600.75</ele><time>2026-05-03T12:12:03.512Z</time></trkpt><trkpt lat="44.3331926" lon="10.7389542"><ele>601.0</ele><time>2026-05-03T12:12:04.513Z</time></trkpt><trkpt lat="44.333063" lon="10.7388153"><ele>603.6666666666667</ele><time>2026-05-03T12:12:05.518Z</time></trkpt><trkpt lat="44.3329268" lon="10.7386828"><ele>606.3333333333334</ele><time>2026-05-03T12:12:06.514Z</time></trkpt><trkpt lat="44.3327928" lon="10.7385474"><ele>609.0</ele><time>2026-05-03T12:12:07.518Z</time></trkpt><trkpt lat="44.3326601" lon="10.7384195"><ele>609.75</ele><time>2026-05-03T12:12:08.513Z</time></trkpt><trkpt lat="44.3325372" lon="10.7383113"><ele>610.5</ele><time>2026-05-03T12:12:09.517Z</time></trkpt><trkpt lat="44.3324404" lon="10.7382526"><ele>611.25</ele><time>2026-05-03T12:12:10.525Z</time></trkpt><trkpt lat="44.3323409" lon="10.7382542"><ele>612.0</ele><time>2026-05-03T12:12:11.518Z</time></trkpt><trkpt lat="44.3322221" lon="10.7383046"><ele>615.0</ele><time>2026-05-03T12:12:12.517Z</time></trkpt><trkpt lat="44.3321005" lon="10.7384038"><ele>618.0</ele><time>2026-05-03T12:12:13.51Z</time></trkpt><trkpt lat="44.3319846" lon="10.7385166"><ele>621.0</ele><time>2026-05-03T12:12:14.512Z</time></trkpt><trkpt lat="44.3318829" lon="10.7386192"><ele>624.0</ele><time>2026-05-03T12:12:15.51Z</time></trkpt><trkpt lat="44.3318065" lon="10.7387272"><ele>625.75</ele><time>2026-05-03T12:12:16.516Z</time></trkpt><trkpt lat="44.3317706" lon="10.7388614"><ele>627.5</ele><time>2026-05-03T12:12:17.51Z</time></trkpt><trkpt lat="44.3317645" lon="10.7390351"><ele>629.25</ele><time>2026-05-03T12:12:18.519Z</time></trkpt><trkpt lat="44.3317929" lon="10.739238"><ele>631.0</ele><time>2026-05-03T12:12:19.516Z</time></trkpt><trkpt lat="44.3318642" lon="10.739429"><ele>635.3333333333334</ele><time>2026-05-03T12:12:20.508Z</time></trkpt><trkpt lat="44.3319631" lon="10.7396509"><ele>639.6666666666666</ele><time>2026-05-03T12:12:21.504Z</time></trkpt><trkpt lat="44.332067" lon="10.7398724"><ele>644.0</ele><time>2026-05-03T12:12:22.51Z</time></trkpt><trkpt lat="44.3321355" lon="10.7400748"><ele>646.5</ele><time>2026-05-03T12:12:23.508Z</time></trkpt><trkpt lat="44.3321782" lon="10.7402608"><ele>649.0</ele><time>2026-05-03T12:12:24.505Z</time></trkpt><trkpt lat="44.3321957" lon="10.7404529"><ele>651.5</ele><time>2026-05-03T12:12:25.509Z</time></trkpt><trkpt lat="44.3322148" lon="10.7406507"><ele>654.0</ele><time>2026-05-03T12:12:26.51Z</time></trkpt><trkpt lat="44.3322337" lon="10.7408435"><ele>648.0</ele><time>2026-05-03T12:12:27.507Z</time></trkpt><trkpt lat="44.3322869" lon="10.7410343"><ele>642.0</ele><time>2026-05-03T12:12:28.509Z</time></trkpt><trkpt lat="44.3323608" lon="10.7412354"><ele>636.0</ele><time>2026-05-03T12:12:29.509Z</time></trkpt><trkpt lat="44.3324373" lon="10.7414295"><ele>636.0</ele><time>2026-05-03T12:12:30.508Z</time></trkpt><trkpt lat="44.332503" lon="10.7416019"><ele>636.0</ele><time>2026-05-03T12:12:31.509Z</time></trkpt><trkpt lat="44.3325592" lon="10.7417344"><ele>636.0</ele><time>2026-05-03T12:12:32.513Z</time></trkpt><trkpt lat="44.3325841" lon="10.7418461"><ele>636.0</ele><time>2026-05-03T12:12:33.506Z</time></trkpt><trkpt lat="44.3325664" lon="10.7419489"><ele>636.0</ele><time>2026-05-03T12:12:34.508Z</time></trkpt><trkpt lat="44.3324883" lon="10.7420607"><ele>638.25</ele><time>2026-05-03T12:12:35.506Z</time></trkpt><trkpt lat="44.3324179" lon="10.7422093"><ele>640.5</ele><time>2026-05-03T12:12:36.5Z</time></trkpt><trkpt lat="44.3323522" lon="10.7423708"><ele>642.75</ele><time>2026-05-03T12:12:37.5Z</time></trkpt><trkpt lat="44.3322726" lon="10.7425279"><ele>645.0</ele><time>2026-05-03T12:12:38.501Z</time></trkpt><trkpt lat="44.3321922" lon="10.7426878"><ele>649.6</ele><time>2026-05-03T12:12:39.501Z</time></trkpt><trkpt lat="44.3321143" lon="10.7428277"><ele>654.2</ele><time>2026-05-03T12:12:40.497Z</time></trkpt><trkpt lat="44.3320315" lon="10.742923"><ele>658.8</ele><time>2026-05-03T12:12:41.5Z</time></trkpt><trkpt lat="44.331936" lon="10.7429846"><ele>663.4</ele><time>2026-05-03T12:12:42.502Z</time></trkpt><trkpt lat="44.3318349" lon="10.743044"><ele>668.0</ele><time>2026-05-03T12:12:43.499Z</time></trkpt><trkpt lat="44.3317221" lon="10.7431047"><ele>668.0</ele><time>2026-05-03T12:12:44.502Z</time></trkpt><trkpt lat="44.3315975" lon="10.7431649"><ele>668.0</ele><time>2026-05-03T12:12:45.498Z</time></trkpt><trkpt lat="44.3314793" lon="10.7432278"><ele>668.0</ele><time>2026-05-03T12:12:46.499Z</time></trkpt><trkpt lat="44.3313764" lon="10.7432726"><ele>668.0</ele><time>2026-05-03T12:12:47.496Z</time></trkpt><trkpt lat="44.3312839" lon="10.7432814"><ele>671.8</ele><time>2026-05-03T12:12:48.5Z</time></trkpt><trkpt lat="44.3312127" lon="10.7432381"><ele>675.5999999999999</ele><time>2026-05-03T12:12:49.502Z</time></trkpt><trkpt lat="44.3311575" lon="10.7431311"><ele>679.4000000000001</ele><time>2026-05-03T12:12:50.499Z</time></trkpt><trkpt lat="44.3311302" lon="10.74298"><ele>683.2</ele><time>2026-05-03T12:12:51.493Z</time></trkpt><trkpt lat="44.3311518" lon="10.7427994"><ele>687.0</ele><time>2026-05-03T12:12:52.487Z</time></trkpt><trkpt lat="44.3311879" lon="10.742617"><ele>687.0</ele><time>2026-05-03T12:12:53.496Z</time></trkpt><trkpt lat="44.3312239" lon="10.7424343"><ele>687.0</ele><time>2026-05-03T12:12:54.503Z</time></trkpt><trkpt lat="44.3312481" lon="10.7422436"><ele>687.0</ele><time>2026-05-03T12:12:55.507Z</time></trkpt><trkpt lat="44.3312534" lon="10.7420534"><ele>687.0</ele><time>2026-05-03T12:12:56.509Z</time></trkpt><trkpt lat="44.3312483" lon="10.741862"><ele>686.75</ele><time>2026-05-03T12:12:57.509Z</time></trkpt><trkpt lat="44.3312255" lon="10.7416662"><ele>686.5</ele><time>2026-05-03T12:12:58.508Z</time></trkpt><trkpt lat="44.3311929" lon="10.7414576"><ele>686.25</ele><time>2026-05-03T12:12:59.513Z</time></trkpt><trkpt lat="44.3311564" lon="10.7412829"><ele>686.0</ele><time>2026-05-03T12:13:00.517Z</time></trkpt><trkpt lat="44.3311369" lon="10.7411564"><ele>686.0</ele><time>2026-05-03T12:13:01.524Z</time></trkpt><trkpt lat="44.3311009" lon="10.7410592"><ele>686.0</ele><time>2026-05-03T12:13:02.517Z</time></trkpt><trkpt lat="44.331045" lon="10.7409916"><ele>686.0</ele><time>2026-05-03T12:13:03.508Z</time></trkpt><trkpt lat="44.3309614" lon="10.7409508"><ele>686.0</ele><time>2026-05-03T12:13:04.512Z</time></trkpt><trkpt lat="44.330831" lon="10.740935"><ele>686.0</ele><time>2026-05-03T12:13:05.51Z</time></trkpt><trkpt lat="44.3306919" lon="10.7409226"><ele>688.0</ele><time>2026-05-03T12:13:06.509Z</time></trkpt><trkpt lat="44.3305529" lon="10.7409157"><ele>690.0</ele><time>2026-05-03T12:13:07.51Z</time></trkpt><trkpt lat="44.330412" lon="10.7409111"><ele>692.0</ele><time>2026-05-03T12:13:08.507Z</time></trkpt><trkpt lat="44.3302674" lon="10.7409128"><ele>694.0</ele><time>2026-05-03T12:13:09.503Z</time></trkpt><trkpt lat="44.3301476" lon="10.7408915"><ele>694.0</ele><time>2026-05-03T12:13:10.509Z</time></trkpt><trkpt lat="44.3300492" lon="10.7408421"><ele>694.0</ele><time>2026-05-03T12:13:11.507Z</time></trkpt><trkpt lat="44.3299559" lon="10.7407709"><ele>694.0</ele><time>2026-05-03T12:13:12.501Z</time></trkpt><trkpt lat="44.3298899" lon="10.7406705"><ele>694.0</ele><time>2026-05-03T12:13:13.512Z</time></trkpt><trkpt lat="44.3298493" lon="10.7405362"><ele>694.0</ele><time>2026-05-03T12:13:14.51Z</time></trkpt><trkpt lat="44.3298226" lon="10.7403813"><ele>692.75</ele><time>2026-05-03T12:13:15.508Z</time></trkpt><trkpt lat="44.3297721" lon="10.7402115"><ele>691.5</ele><time>2026-05-03T12:13:16.51Z</time></trkpt><trkpt lat="44.3297202" lon="10.7400444"><ele>690.25</ele><time>2026-05-03T12:13:17.508Z</time></trkpt><trkpt lat="44.3296633" lon="10.7398837"><ele>689.0</ele><time>2026-05-03T12:13:18.506Z</time></trkpt><trkpt lat="44.3296011" lon="10.7397369"><ele>692.4000000000001</ele><time>2026-05-03T12:13:19.515Z</time></trkpt><trkpt lat="44.3295302" lon="10.739628"><ele>695.8</ele><time>2026-05-03T12:13:20.518Z</time></trkpt><trkpt lat="44.3294499" lon="10.7395798"><ele>699.2</ele><time>2026-05-03T12:13:21.527Z</time></trkpt><trkpt lat="44.3293513" lon="10.7395836"><ele>702.5999999999999</ele><time>2026-05-03T12:13:22.517Z</time></trkpt><trkpt lat="44.3292271" lon="10.7396044"><ele>706.0</ele><time>2026-05-03T12:13:23.514Z</time></trkpt><trkpt lat="44.3290903" lon="10.7396142"><ele>706.0</ele><time>2026-05-03T12:13:24.514Z</time></trkpt><trkpt lat="44.3289474" lon="10.7396143"><ele>706.0</ele><time>2026-05-03T12:13:25.517Z</time></trkpt><trkpt lat="44.3288039" lon="10.7396091"><ele>706.0</ele><time>2026-05-03T12:13:26.511Z</time></trkpt><trkpt lat="44.3286833" lon="10.7395862"><ele>706.0</ele><time>2026-05-03T12:13:27.523Z</time></trkpt><trkpt lat="44.3285962" lon="10.7395105"><ele>710.0</ele><time>2026-05-03T12:13:28.521Z</time></trkpt><trkpt lat="44.328557" lon="10.7393884"><ele>714.0</ele><time>2026-05-03T12:13:29.52Z</time></trkpt><trkpt lat="44.328553" lon="10.7392108"><ele>718.0</ele><time>2026-05-03T12:13:30.517Z</time></trkpt><trkpt lat="44.3285604" lon="10.7390103"><ele>722.0</ele><time>2026-05-03T12:13:31.515Z</time></trkpt><trkpt lat="44.3285632" lon="10.7388037"><ele>722.0</ele><time>2026-05-03T12:13:32.519Z</time></trkpt><trkpt lat="44.3285615" lon="10.7386124"><ele>722.0</ele><time>2026-05-03T12:13:33.51Z</time></trkpt><trkpt lat="44.3285669" lon="10.7384393"><ele>722.0</ele><time>2026-05-03T12:13:34.514Z</time></trkpt><trkpt lat="44.3285815" lon="10.7382659"><ele>722.0</ele><time>2026-05-03T12:13:35.512Z</time></trkpt><trkpt lat="44.3286003" lon="10.7380928"><ele>721.8</ele><time>2026-05-03T12:13:36.512Z</time></trkpt><trkpt lat="44.3286273" lon="10.7379337"><ele>721.6</ele><time>2026-05-03T12:13:37.51Z</time></trkpt><trkpt lat="44.3286786" lon="10.7377921"><ele>721.4</ele><time>2026-05-03T12:13:38.516Z</time></trkpt><trkpt lat="44.3287217" lon="10.7376699"><ele>721.1999999999999</ele><time>2026-05-03T12:13:39.515Z</time></trkpt><trkpt lat="44.3287573" lon="10.7375677"><ele>721.0</ele><time>2026-05-03T12:13:40.519Z</time></trkpt><trkpt lat="44.3287815" lon="10.7374781"><ele>721.0</ele><time>2026-05-03T12:13:41.512Z</time></trkpt><trkpt lat="44.3287629" lon="10.7373187"><ele>721.0</ele><time>2026-05-03T12:13:43.511Z</time></trkpt><trkpt lat="44.3286292" lon="10.7372102"><ele>721.0</ele><time>2026-05-03T12:13:45.515Z</time></trkpt><trkpt lat="44.3285099" lon="10.7371707"><ele>721.0</ele><time>2026-05-03T12:13:46.515Z</time></trkpt><trkpt lat="44.3283773" lon="10.7371256"><ele>721.0</ele><time>2026-05-03T12:13:47.521Z</time></trkpt><trkpt lat="44.3282399" lon="10.7370687"><ele>721.0</ele><time>2026-05-03T12:13:48.518Z</time></trkpt><trkpt lat="44.3281073" lon="10.7370049"><ele>721.0</ele><time>2026-05-03T12:13:49.516Z</time></trkpt><trkpt lat="44.3279881" lon="10.7369034"><ele>721.0</ele><time>2026-05-03T12:13:50.524Z</time></trkpt><trkpt lat="44.327869" lon="10.7367748"><ele>721.0</ele><time>2026-05-03T12:13:51.513Z</time></trkpt><trkpt lat="44.3277498" lon="10.7366263"><ele>721.0</ele><time>2026-05-03T12:13:52.521Z</time></trkpt><trkpt lat="44.3276457" lon="10.736476"><ele>721.0</ele><time>2026-05-03T12:13:53.514Z</time></trkpt><trkpt lat="44.3275417" lon="10.7363322"><ele>721.0</ele><time>2026-05-03T12:13:54.511Z</time></trkpt><trkpt lat="44.3274467" lon="10.7362164"><ele>721.0</ele><time>2026-05-03T12:13:55.511Z</time></trkpt><trkpt lat="44.3273671" lon="10.7361145"><ele>721.0</ele><time>2026-05-03T12:13:56.509Z</time></trkpt><trkpt lat="44.3272877" lon="10.7360298"><ele>721.0</ele><time>2026-05-03T12:13:57.508Z</time></trkpt><trkpt lat="44.3271811" lon="10.7359831"><ele>721.0</ele><time>2026-05-03T12:13:58.52Z</time></trkpt><trkpt lat="44.3270594" lon="10.7359387"><ele>719.75</ele><time>2026-05-03T12:13:59.514Z</time></trkpt><trkpt lat="44.3269345" lon="10.7358827"><ele>718.5</ele><time>2026-05-03T12:14:00.511Z</time></trkpt><trkpt lat="44.3268142" lon="10.7358172"><ele>717.25</ele><time>2026-05-03T12:14:01.512Z</time></trkpt><trkpt lat="44.3266933" lon="10.7357376"><ele>716.0</ele><time>2026-05-03T12:14:02.513Z</time></trkpt><trkpt lat="44.3265907" lon="10.7356563"><ele>716.0</ele><time>2026-05-03T12:14:03.52Z</time></trkpt><trkpt lat="44.3264884" lon="10.7355801"><ele>716.0</ele><time>2026-05-03T12:14:04.516Z</time></trkpt><trkpt lat="44.3263861" lon="10.7355123"><ele>716.0</ele><time>2026-05-03T12:14:05.519Z</time></trkpt><trkpt lat="44.3262805" lon="10.7354505"><ele>716.0</ele><time>2026-05-03T12:14:06.519Z</time></trkpt><trkpt lat="44.326174" lon="10.7353877"><ele>719.0</ele><time>2026-05-03T12:14:07.516Z</time></trkpt><trkpt lat="44.3260675" lon="10.7353195"><ele>722.0</ele><time>2026-05-03T12:14:08.515Z</time></trkpt><trkpt lat="44.325955" lon="10.7352587"><ele>725.0</ele><time>2026-05-03T12:14:09.513Z</time></trkpt><trkpt lat="44.3258426" lon="10.7352077"><ele>728.0</ele><time>2026-05-03T12:14:10.517Z</time></trkpt><trkpt lat="44.3257291" lon="10.7351848"><ele>724.4</ele><time>2026-05-03T12:14:11.515Z</time></trkpt><trkpt lat="44.3256142" lon="10.7351679"><ele>720.8</ele><time>2026-05-03T12:14:12.51Z</time></trkpt><trkpt lat="44.3255124" lon="10.7351393"><ele>717.2</ele><time>2026-05-03T12:14:13.517Z</time></trkpt><trkpt lat="44.3254263" lon="10.7350721"><ele>713.6</ele><time>2026-05-03T12:14:14.513Z</time></trkpt><trkpt lat="44.3253562" lon="10.7349478"><ele>710.0</ele><time>2026-05-03T12:14:15.507Z</time></trkpt><trkpt lat="44.3253021" lon="10.7348016"><ele>710.0</ele><time>2026-05-03T12:14:16.5Z</time></trkpt><trkpt lat="44.3252783" lon="10.7346535"><ele>710.0</ele><time>2026-05-03T12:14:17.496Z</time></trkpt><trkpt lat="44.3252368" lon="10.7345434"><ele>710.0</ele><time>2026-05-03T12:14:18.513Z</time></trkpt><trkpt lat="44.3251596" lon="10.7344877"><ele>710.0</ele><time>2026-05-03T12:14:19.514Z</time></trkpt><trkpt lat="44.3250645" lon="10.7344855"><ele>710.0</ele><time>2026-05-03T12:14:20.513Z</time></trkpt><trkpt lat="44.3249428" lon="10.7345078"><ele>710.0</ele><time>2026-05-03T12:14:21.508Z</time></trkpt><trkpt lat="44.3248067" lon="10.7345398"><ele>710.0</ele><time>2026-05-03T12:14:22.506Z</time></trkpt><trkpt lat="44.3246569" lon="10.7345595"><ele>710.0</ele><time>2026-05-03T12:14:23.517Z</time></trkpt><trkpt lat="44.3244997" lon="10.7345662"><ele>710.0</ele><time>2026-05-03T12:14:24.503Z</time></trkpt><trkpt lat="44.3243386" lon="10.7345489"><ele>708.5</ele><time>2026-05-03T12:14:25.502Z</time></trkpt><trkpt lat="44.3241905" lon="10.7345123"><ele>707.0</ele><time>2026-05-03T12:14:26.504Z</time></trkpt><trkpt lat="44.3240509" lon="10.734429"><ele>705.5</ele><time>2026-05-03T12:14:27.499Z</time></trkpt><trkpt lat="44.3239194" lon="10.734343"><ele>704.0</ele><time>2026-05-03T12:14:28.499Z</time></trkpt><trkpt lat="44.323813" lon="10.7342729"><ele>710.25</ele><time>2026-05-03T12:14:29.495Z</time></trkpt><trkpt lat="44.3237502" lon="10.7341815"><ele>716.5</ele><time>2026-05-03T12:14:30.5Z</time></trkpt><trkpt lat="44.3237315" lon="10.7340376"><ele>722.75</ele><time>2026-05-03T12:14:31.505Z</time></trkpt><trkpt lat="44.3237208" lon="10.7338733"><ele>729.0</ele><time>2026-05-03T12:14:32.498Z</time></trkpt><trkpt lat="44.3237165" lon="10.7336773"><ele>727.2</ele><time>2026-05-03T12:14:33.512Z</time></trkpt><trkpt lat="44.3237237" lon="10.7334782"><ele>725.4000000000001</ele><time>2026-05-03T12:14:34.517Z</time></trkpt><trkpt lat="44.3237354" lon="10.7333169"><ele>723.6</ele><time>2026-05-03T12:14:35.512Z</time></trkpt><trkpt lat="44.3237293" lon="10.7331836"><ele>721.8</ele><time>2026-05-03T12:14:36.52Z</time></trkpt><trkpt lat="44.3237025" lon="10.7330909"><ele>720.0</ele><time>2026-05-03T12:14:37.528Z</time></trkpt><trkpt lat="44.3236459" lon="10.733044"><ele>720.0</ele><time>2026-05-03T12:14:38.513Z</time></trkpt><trkpt lat="44.3235633" lon="10.7330555"><ele>720.0</ele><time>2026-05-03T12:14:39.526Z</time></trkpt><trkpt lat="44.3234738" lon="10.7331419"><ele>720.0</ele><time>2026-05-03T12:14:40.522Z</time></trkpt><trkpt lat="44.3234026" lon="10.7332912"><ele>720.0</ele><time>2026-05-03T12:14:41.52Z</time></trkpt><trkpt lat="44.323371" lon="10.7334764"><ele>722.25</ele><time>2026-05-03T12:14:42.509Z</time></trkpt><trkpt lat="44.3233506" lon="10.7336547"><ele>724.5</ele><time>2026-05-03T12:14:43.509Z</time></trkpt><trkpt lat="44.3233324" lon="10.7338302"><ele>726.75</ele><time>2026-05-03T12:14:44.513Z</time></trkpt><trkpt lat="44.323307" lon="10.7339902"><ele>729.0</ele><time>2026-05-03T12:14:45.515Z</time></trkpt><trkpt lat="44.3232728" lon="10.7341045"><ele>729.0</ele><time>2026-05-03T12:14:46.506Z</time></trkpt><trkpt lat="44.3231421" lon="10.7341012"><ele>729.0</ele><time>2026-05-03T12:14:48.504Z</time></trkpt><trkpt lat="44.3230407" lon="10.7340264"><ele>729.0</ele><time>2026-05-03T12:14:49.509Z</time></trkpt><trkpt lat="44.3229198" lon="10.7339607"><ele>729.0</ele><time>2026-05-03T12:14:50.503Z</time></trkpt><trkpt lat="44.3227956" lon="10.7338985"><ele>731.0</ele><time>2026-05-03T12:14:51.505Z</time></trkpt><trkpt lat="44.3226647" lon="10.7338333"><ele>733.0</ele><time>2026-05-03T12:14:52.503Z</time></trkpt><trkpt lat="44.322529" lon="10.7337457"><ele>735.0</ele><time>2026-05-03T12:14:53.509Z</time></trkpt><trkpt lat="44.322393" lon="10.7336323"><ele>737.0</ele><time>2026-05-03T12:14:54.519Z</time></trkpt><trkpt lat="44.3222516" lon="10.7335161"><ele>746.3333333333333</ele><time>2026-05-03T12:14:55.509Z</time></trkpt><trkpt lat="44.3221207" lon="10.7334032"><ele>755.6666666666666</ele><time>2026-05-03T12:14:56.513Z</time></trkpt><trkpt lat="44.3219896" lon="10.7333093"><ele>765.0</ele><time>2026-05-03T12:14:57.512Z</time></trkpt><trkpt lat="44.3218471" lon="10.7332253"><ele>765.0</ele><time>2026-05-03T12:14:58.511Z</time></trkpt><trkpt lat="44.3217107" lon="10.7331497"><ele>765.0</ele><time>2026-05-03T12:14:59.511Z</time></trkpt><trkpt lat="44.3215654" lon="10.7330708"><ele>765.0</ele><time>2026-05-03T12:15:00.51Z</time></trkpt><trkpt lat="44.3214314" lon="10.7329897"><ele>765.0</ele><time>2026-05-03T12:15:01.504Z</time></trkpt><trkpt lat="44.3213197" lon="10.7329344"><ele>768.4</ele><time>2026-05-03T12:15:02.512Z</time></trkpt><trkpt lat="44.3212579" lon="10.7329011"><ele>771.8</ele><time>2026-05-03T12:15:03.512Z</time></trkpt><trkpt lat="44.3211902" lon="10.7329218"><ele>775.2</ele><time>2026-05-03T12:15:04.517Z</time></trkpt><trkpt lat="44.3210917" lon="10.7329879"><ele>778.6</ele><time>2026-05-03T12:15:05.516Z</time></trkpt><trkpt lat="44.3209919" lon="10.733062"><ele>782.0</ele><time>2026-05-03T12:15:06.508Z</time></trkpt><trkpt lat="44.3208717" lon="10.7330761"><ele>782.0</ele><time>2026-05-03T12:15:07.51Z</time></trkpt><trkpt lat="44.3207443" lon="10.7330377"><ele>782.0</ele><time>2026-05-03T12:15:08.499Z</time></trkpt><trkpt lat="44.3206193" lon="10.7329924"><ele>782.0</ele><time>2026-05-03T12:15:09.507Z</time></trkpt><trkpt lat="44.320487" lon="10.7329308"><ele>782.0</ele><time>2026-05-03T12:15:10.507Z</time></trkpt><trkpt lat="44.3203567" lon="10.7328478"><ele>780.0</ele><time>2026-05-03T12:15:11.515Z</time></trkpt><trkpt lat="44.32022" lon="10.7327662"><ele>778.0</ele><time>2026-05-03T12:15:12.518Z</time></trkpt><trkpt lat="44.3200861" lon="10.7327159"><ele>776.0</ele><time>2026-05-03T12:15:13.531Z</time></trkpt><trkpt lat="44.3199422" lon="10.7326812"><ele>774.0</ele><time>2026-05-03T12:15:14.526Z</time></trkpt><trkpt lat="44.3197686" lon="10.7326872"><ele>777.3333333333333</ele><time>2026-05-03T12:15:15.518Z</time></trkpt><trkpt lat="44.3195997" lon="10.7326742"><ele>780.6666666666666</ele><time>2026-05-03T12:15:16.518Z</time></trkpt><trkpt lat="44.319426" lon="10.7326543"><ele>784.0</ele><time>2026-05-03T12:15:17.517Z</time></trkpt><trkpt lat="44.3192643" lon="10.7326321"><ele>784.0</ele><time>2026-05-03T12:15:18.519Z</time></trkpt><trkpt lat="44.3191203" lon="10.732593"><ele>784.0</ele><time>2026-05-03T12:15:19.513Z</time></trkpt><trkpt lat="44.3189838" lon="10.7325301"><ele>784.0</ele><time>2026-05-03T12:15:20.515Z</time></trkpt><trkpt lat="44.3188613" lon="10.7324614"><ele>784.0</ele><time>2026-05-03T12:15:21.508Z</time></trkpt><trkpt lat="44.318748" lon="10.7324096"><ele>784.6</ele><time>2026-05-03T12:15:22.512Z</time></trkpt><trkpt lat="44.3186564" lon="10.7323961"><ele>785.2</ele><time>2026-05-03T12:15:23.512Z</time></trkpt><trkpt lat="44.3185848" lon="10.7324071"><ele>785.8000000000001</ele><time>2026-05-03T12:15:24.52Z</time></trkpt><trkpt lat="44.3185111" lon="10.732477"><ele>786.4000000000001</ele><time>2026-05-03T12:15:25.515Z</time></trkpt><trkpt lat="44.3184482" lon="10.7325885"><ele>787.0</ele><time>2026-05-03T12:15:26.513Z</time></trkpt><trkpt lat="44.3183869" lon="10.7327277"><ele>791.0</ele><time>2026-05-03T12:15:27.506Z</time></trkpt><trkpt lat="44.3183068" lon="10.7328663"><ele>795.0</ele><time>2026-05-03T12:15:28.515Z</time></trkpt><trkpt lat="44.3182174" lon="10.7329915"><ele>799.0</ele><time>2026-05-03T12:15:29.518Z</time></trkpt><trkpt lat="44.3181202" lon="10.7330764"><ele>803.0</ele><time>2026-05-03T12:15:30.517Z</time></trkpt><trkpt lat="44.3180161" lon="10.7331122"><ele>803.0</ele><time>2026-05-03T12:15:31.507Z</time></trkpt><trkpt lat="44.3178794" lon="10.7331421"><ele>803.0</ele><time>2026-05-03T12:15:32.499Z</time></trkpt><trkpt lat="44.3177546" lon="10.7331874"><ele>803.0</ele><time>2026-05-03T12:15:33.496Z</time></trkpt><trkpt lat="44.317641" lon="10.7332314"><ele>803.0</ele><time>2026-05-03T12:15:34.497Z</time></trkpt><trkpt lat="44.3175417" lon="10.7332615"><ele>803.0000000000001</ele><time>2026-05-03T12:15:35.507Z</time></trkpt><trkpt lat="44.3174658" lon="10.7332489"><ele>803.0</ele><time>2026-05-03T12:15:36.501Z</time></trkpt><trkpt lat="44.3174139" lon="10.7331769"><ele>803.0</ele><time>2026-05-03T12:15:37.501Z</time></trkpt><trkpt lat="44.3173758" lon="10.7330696"><ele>803.0</ele><time>2026-05-03T12:15:38.495Z</time></trkpt><trkpt lat="44.3173259" lon="10.7329552"><ele>803.0000000000001</ele><time>2026-05-03T12:15:39.492Z</time></trkpt><trkpt lat="44.3172564" lon="10.7328466"><ele>803.0</ele><time>2026-05-03T12:15:40.491Z</time></trkpt><trkpt lat="44.3171753" lon="10.7327496"><ele>801.5</ele><time>2026-05-03T12:15:41.494Z</time></trkpt><trkpt lat="44.3170878" lon="10.7326602"><ele>800.0</ele><time>2026-05-03T12:15:42.5Z</time></trkpt><trkpt lat="44.3169883" lon="10.7325777"><ele>798.5</ele><time>2026-05-03T12:15:43.501Z</time></trkpt><trkpt lat="44.3168756" lon="10.7324976"><ele>797.0</ele><time>2026-05-03T12:15:44.506Z</time></trkpt><trkpt lat="44.3167622" lon="10.7324314"><ele>797.0</ele><time>2026-05-03T12:15:45.504Z</time></trkpt><trkpt lat="44.3166357" lon="10.7323836"><ele>797.0</ele><time>2026-05-03T12:15:46.506Z</time></trkpt><trkpt lat="44.3165023" lon="10.7323462"><ele>797.0</ele><time>2026-05-03T12:15:47.507Z</time></trkpt><trkpt lat="44.3163593" lon="10.7323206"><ele>797.0</ele><time>2026-05-03T12:15:48.503Z</time></trkpt><trkpt lat="44.3162104" lon="10.7322846"><ele>799.0</ele><time>2026-05-03T12:15:49.504Z</time></trkpt><trkpt lat="44.3160583" lon="10.7322401"><ele>801.0</ele><time>2026-05-03T12:15:50.504Z</time></trkpt><trkpt lat="44.3159131" lon="10.732199"><ele>803.0</ele><time>2026-05-03T12:15:51.504Z</time></trkpt><trkpt lat="44.3157767" lon="10.7321435"><ele>805.0</ele><time>2026-05-03T12:15:52.501Z</time></trkpt><trkpt lat="44.3156555" lon="10.7320681"><ele>803.75</ele><time>2026-05-03T12:15:53.503Z</time></trkpt><trkpt lat="44.3155403" lon="10.7319857"><ele>802.5</ele><time>2026-05-03T12:15:54.501Z</time></trkpt><trkpt lat="44.3154116" lon="10.731944"><ele>801.25</ele><time>2026-05-03T12:15:55.507Z</time></trkpt><trkpt lat="44.3152931" lon="10.7319226"><ele>800.0</ele><time>2026-05-03T12:15:56.517Z</time></trkpt><trkpt lat="44.3151789" lon="10.7319183"><ele>800.0</ele><time>2026-05-03T12:15:57.51Z</time></trkpt><trkpt lat="44.3150901" lon="10.7319212"><ele>800.0</ele><time>2026-05-03T12:15:58.515Z</time></trkpt><trkpt lat="44.3150041" lon="10.7319819"><ele>800.0</ele><time>2026-05-03T12:15:59.515Z</time></trkpt><trkpt lat="44.3149109" lon="10.7320793"><ele>800.0</ele><time>2026-05-03T12:16:00.51Z</time></trkpt><trkpt lat="44.3148014" lon="10.7321976"><ele>800.0</ele><time>2026-05-03T12:16:01.509Z</time></trkpt><trkpt lat="44.3146852" lon="10.7323252"><ele>795.0</ele><time>2026-05-03T12:16:02.505Z</time></trkpt><trkpt lat="44.3145609" lon="10.7324535"><ele>790.0</ele><time>2026-05-03T12:16:03.505Z</time></trkpt><trkpt lat="44.3144184" lon="10.7325423"><ele>785.0</ele><time>2026-05-03T12:16:04.509Z</time></trkpt><trkpt lat="44.3142717" lon="10.732598"><ele>785.0</ele><time>2026-05-03T12:16:05.508Z</time></trkpt><trkpt lat="44.314119" lon="10.7326236"><ele>785.0</ele><time>2026-05-03T12:16:06.505Z</time></trkpt><trkpt lat="44.3139603" lon="10.7326411"><ele>785.0</ele><time>2026-05-03T12:16:07.501Z</time></trkpt><trkpt lat="44.3138056" lon="10.7326754"><ele>784.25</ele><time>2026-05-03T12:16:08.503Z</time></trkpt><trkpt lat="44.3136551" lon="10.7327069"><ele>783.5</ele><time>2026-05-03T12:16:09.501Z</time></trkpt><trkpt lat="44.3135197" lon="10.7327177"><ele>782.75</ele><time>2026-05-03T12:16:10.51Z</time></trkpt><trkpt lat="44.3134056" lon="10.7326571"><ele>782.0</ele><time>2026-05-03T12:16:11.512Z</time></trkpt><trkpt lat="44.3132932" lon="10.7325682"><ele>782.0</ele><time>2026-05-03T12:16:12.504Z</time></trkpt><trkpt lat="44.3131914" lon="10.7324509"><ele>782.0</ele><time>2026-05-03T12:16:13.509Z</time></trkpt><trkpt lat="44.313076" lon="10.7323395"><ele>782.0</ele><time>2026-05-03T12:16:14.52Z</time></trkpt><trkpt lat="44.3129606" lon="10.7322239"><ele>782.0</ele><time>2026-05-03T12:16:15.511Z</time></trkpt><trkpt lat="44.3128553" lon="10.732084"><ele>782.75</ele><time>2026-05-03T12:16:16.511Z</time></trkpt><trkpt lat="44.3127685" lon="10.7319265"><ele>783.5</ele><time>2026-05-03T12:16:17.511Z</time></trkpt><trkpt lat="44.3126821" lon="10.7317645"><ele>784.25</ele><time>2026-05-03T12:16:18.516Z</time></trkpt><trkpt lat="44.3125978" lon="10.7316173"><ele>785.0</ele><time>2026-05-03T12:16:19.515Z</time></trkpt><trkpt lat="44.3125237" lon="10.7314739"><ele>783.8</ele><time>2026-05-03T12:16:20.515Z</time></trkpt><trkpt lat="44.3124532" lon="10.7313327"><ele>782.6</ele><time>2026-05-03T12:16:21.516Z</time></trkpt><trkpt lat="44.3123779" lon="10.7312217"><ele>781.4000000000001</ele><time>2026-05-03T12:16:22.514Z</time></trkpt><trkpt lat="44.3123159" lon="10.7311218"><ele>780.2</ele><time>2026-05-03T12:16:23.519Z</time></trkpt><trkpt lat="44.312243" lon="10.7310332"><ele>779.0</ele><time>2026-05-03T12:16:24.512Z</time></trkpt><trkpt lat="44.3121604" lon="10.7309658"><ele>778.25</ele><time>2026-05-03T12:16:25.518Z</time></trkpt><trkpt lat="44.3120666" lon="10.730914"><ele>777.5</ele><time>2026-05-03T12:16:26.513Z</time></trkpt><trkpt lat="44.3119623" lon="10.7308712"><ele>776.75</ele><time>2026-05-03T12:16:27.528Z</time></trkpt><trkpt lat="44.3118494" lon="10.7308371"><ele>776.0</ele><time>2026-05-03T12:16:28.514Z</time></trkpt><trkpt lat="44.3117161" lon="10.730815"><ele>776.0</ele><time>2026-05-03T12:16:29.511Z</time></trkpt><trkpt lat="44.3115837" lon="10.7307915"><ele>776.0</ele><time>2026-05-03T12:16:30.506Z</time></trkpt><trkpt lat="44.3114521" lon="10.7307536"><ele>776.0</ele><time>2026-05-03T12:16:31.508Z</time></trkpt><trkpt lat="44.3113277" lon="10.7306958"><ele>776.0</ele><time>2026-05-03T12:16:32.519Z</time></trkpt><trkpt lat="44.311216" lon="10.7305887"><ele>776.4</ele><time>2026-05-03T12:16:33.506Z</time></trkpt><trkpt lat="44.3111149" lon="10.7304976"><ele>776.8</ele><time>2026-05-03T12:16:34.514Z</time></trkpt><trkpt lat="44.3110047" lon="10.7304547"><ele>777.1999999999999</ele><time>2026-05-03T12:16:35.514Z</time></trkpt><trkpt lat="44.3108998" lon="10.7304668"><ele>777.5999999999999</ele><time>2026-05-03T12:16:36.512Z</time></trkpt><trkpt lat="44.3108028" lon="10.7305134"><ele>778.0</ele><time>2026-05-03T12:16:37.505Z</time></trkpt><trkpt lat="44.3107334" lon="10.7305659"><ele>777.9999999999999</ele><time>2026-05-03T12:16:38.497Z</time></trkpt><trkpt lat="44.3106715" lon="10.7305901"><ele>778.0</ele><time>2026-05-03T12:16:39.504Z</time></trkpt><trkpt lat="44.3106033" lon="10.7305817"><ele>778.0</ele><time>2026-05-03T12:16:40.501Z</time></trkpt><trkpt lat="44.3105244" lon="10.7305554"><ele>778.0</ele><time>2026-05-03T12:16:41.496Z</time></trkpt><trkpt lat="44.3104401" lon="10.7305237"><ele>777.9999999999999</ele><time>2026-05-03T12:16:42.503Z</time></trkpt><trkpt lat="44.3103556" lon="10.7304874"><ele>778.0</ele><time>2026-05-03T12:16:43.507Z</time></trkpt><trkpt lat="44.3102612" lon="10.730449"><ele>780.4</ele><time>2026-05-03T12:16:44.508Z</time></trkpt><trkpt lat="44.3101762" lon="10.7304117"><ele>782.8</ele><time>2026-05-03T12:16:45.503Z</time></trkpt><trkpt lat="44.3100793" lon="10.7303877"><ele>785.2</ele><time>2026-05-03T12:16:46.506Z</time></trkpt><trkpt lat="44.3099833" lon="10.7303729"><ele>787.6</ele><time>2026-05-03T12:16:47.507Z</time></trkpt><trkpt lat="44.3098794" lon="10.7303671"><ele>790.0</ele><time>2026-05-03T12:16:48.51Z</time></trkpt><trkpt lat="44.3097653" lon="10.7303555"><ele>793.0</ele><time>2026-05-03T12:16:49.522Z</time></trkpt><trkpt lat="44.3096448" lon="10.7303434"><ele>796.0</ele><time>2026-05-03T12:16:50.516Z</time></trkpt><trkpt lat="44.3095312" lon="10.7303354"><ele>799.0</ele><time>2026-05-03T12:16:51.515Z</time></trkpt><trkpt lat="44.3094292" lon="10.7303369"><ele>802.0</ele><time>2026-05-03T12:16:52.514Z</time></trkpt><trkpt lat="44.3093407" lon="10.7303427"><ele>805.0</ele><time>2026-05-03T12:16:53.522Z</time></trkpt><trkpt lat="44.3092599" lon="10.7303461"><ele>805.0</ele><time>2026-05-03T12:16:54.511Z</time></trkpt><trkpt lat="44.309179" lon="10.7303485"><ele>805.0</ele><time>2026-05-03T12:16:55.509Z</time></trkpt><trkpt lat="44.3090818" lon="10.7303567"><ele>805.0</ele><time>2026-05-03T12:16:56.51Z</time></trkpt><trkpt lat="44.3089763" lon="10.7303633"><ele>805.0</ele><time>2026-05-03T12:16:57.525Z</time></trkpt><trkpt lat="44.3088691" lon="10.7303788"><ele>805.0</ele><time>2026-05-03T12:16:58.515Z</time></trkpt><trkpt lat="44.3087542" lon="10.7303838"><ele>806.8333333333333</ele><time>2026-05-03T12:16:59.51Z</time></trkpt><trkpt lat="44.3086595" lon="10.7303889"><ele>808.6666666666666</ele><time>2026-05-03T12:17:00.501Z</time></trkpt><trkpt lat="44.3085739" lon="10.7303932"><ele>810.5</ele><time>2026-05-03T12:17:01.503Z</time></trkpt><trkpt lat="44.3085083" lon="10.7304039"><ele>812.3333333333333</ele><time>2026-05-03T12:17:02.508Z</time></trkpt><trkpt lat="44.3084657" lon="10.7304739"><ele>814.1666666666666</ele><time>2026-05-03T12:17:10.512Z</time></trkpt><trkpt lat="44.3084831" lon="10.730563"><ele>816.0</ele><time>2026-05-03T12:17:11.506Z</time></trkpt><trkpt lat="44.3085124" lon="10.7306717"><ele>816.0</ele><time>2026-05-03T12:17:12.509Z</time></trkpt><trkpt lat="44.3085564" lon="10.7307961"><ele>816.0</ele><time>2026-05-03T12:17:13.495Z</time></trkpt><trkpt lat="44.3086151" lon="10.7309252"><ele>816.0</ele><time>2026-05-03T12:17:14.501Z</time></trkpt><trkpt lat="44.3086755" lon="10.7310692"><ele>816.0</ele><time>2026-05-03T12:17:15.504Z</time></trkpt><trkpt lat="44.3087434" lon="10.7312097"><ele>816.0</ele><time>2026-05-03T12:17:16.503Z</time></trkpt><trkpt lat="44.3088211" lon="10.7313297"><ele>814.25</ele><time>2026-05-03T12:17:17.503Z</time></trkpt><trkpt lat="44.3089227" lon="10.7313994"><ele>812.5</ele><time>2026-05-03T12:17:18.495Z</time></trkpt><trkpt lat="44.3090401" lon="10.7314499"><ele>810.75</ele><time>2026-05-03T12:17:19.502Z</time></trkpt><trkpt lat="44.3091541" lon="10.7315229"><ele>809.0</ele><time>2026-05-03T12:17:20.512Z</time></trkpt><trkpt lat="44.3092291" lon="10.7316153"><ele>809.0</ele><time>2026-05-03T12:17:21.512Z</time></trkpt><trkpt lat="44.3092418" lon="10.7317204"><ele>809.0</ele><time>2026-05-03T12:17:22.516Z</time></trkpt><trkpt lat="44.3092004" lon="10.7318499"><ele>809.0</ele><time>2026-05-03T12:17:23.517Z</time></trkpt><trkpt lat="44.3091226" lon="10.7320037"><ele>809.0</ele><time>2026-05-03T12:17:24.507Z</time></trkpt><trkpt lat="44.3090324" lon="10.7321601"><ele>809.6666666666667</ele><time>2026-05-03T12:17:25.509Z</time></trkpt><trkpt lat="44.308955" lon="10.7323303"><ele>810.3333333333333</ele><time>2026-05-03T12:17:26.512Z</time></trkpt><trkpt lat="44.3088858" lon="10.7325231"><ele>811.0</ele><time>2026-05-03T12:17:27.512Z</time></trkpt><trkpt lat="44.3088436" lon="10.7327308"><ele>820.0</ele><time>2026-05-03T12:17:28.512Z</time></trkpt><trkpt lat="44.3088393" lon="10.732935"><ele>829.0</ele><time>2026-05-03T12:17:29.51Z</time></trkpt><trkpt lat="44.3088471" lon="10.7331392"><ele>838.0</ele><time>2026-05-03T12:17:30.506Z</time></trkpt><trkpt lat="44.3088475" lon="10.7333688"><ele>837.3333333333333</ele><time>2026-05-03T12:17:31.509Z</time></trkpt><trkpt lat="44.3088471" lon="10.7335991"><ele>836.6666666666667</ele><time>2026-05-03T12:17:32.508Z</time></trkpt><trkpt lat="44.3088584" lon="10.7338223"><ele>836.0</ele><time>2026-05-03T12:17:33.506Z</time></trkpt><trkpt lat="44.3088718" lon="10.7340254"><ele>836.0</ele><time>2026-05-03T12:17:34.507Z</time></trkpt><trkpt lat="44.3088553" lon="10.73422"><ele>836.0</ele><time>2026-05-03T12:17:35.5Z</time></trkpt><trkpt lat="44.3088149" lon="10.7344226"><ele>836.0</ele><time>2026-05-03T12:17:36.505Z</time></trkpt><trkpt lat="44.3087321" lon="10.734612"><ele>836.75</ele><time>2026-05-03T12:17:37.501Z</time></trkpt><trkpt lat="44.3086721" lon="10.7348073"><ele>837.5</ele><time>2026-05-03T12:17:38.505Z</time></trkpt><trkpt lat="44.3086381" lon="10.7349822"><ele>838.25</ele><time>2026-05-03T12:17:39.51Z</time></trkpt><trkpt lat="44.3086325" lon="10.7351784"><ele>839.0</ele><time>2026-05-03T12:17:40.507Z</time></trkpt><trkpt lat="44.3086586" lon="10.7353852"><ele>840.0</ele><time>2026-05-03T12:17:41.502Z</time></trkpt><trkpt lat="44.3087033" lon="10.735598"><ele>841.0</ele><time>2026-05-03T12:17:42.501Z</time></trkpt><trkpt lat="44.3087464" lon="10.7358115"><ele>842.0</ele><time>2026-05-03T12:17:43.503Z</time></trkpt><trkpt lat="44.3087803" lon="10.7360105"><ele>842.8</ele><time>2026-05-03T12:17:44.501Z</time></trkpt><trkpt lat="44.3088005" lon="10.7361804"><ele>843.6</ele><time>2026-05-03T12:17:45.503Z</time></trkpt><trkpt lat="44.3087998" lon="10.7363133"><ele>844.4</ele><time>2026-05-03T12:17:46.51Z</time></trkpt><trkpt lat="44.3087661" lon="10.7364029"><ele>845.1999999999999</ele><time>2026-05-03T12:17:47.511Z</time></trkpt><trkpt lat="44.3086632" lon="10.7364286"><ele>846.0</ele><time>2026-05-03T12:17:49.513Z</time></trkpt><trkpt lat="44.3086289" lon="10.7363083"><ele>846.0</ele><time>2026-05-03T12:17:50.508Z</time></trkpt><trkpt lat="44.3085967" lon="10.7361685"><ele>846.0</ele><time>2026-05-03T12:17:51.512Z</time></trkpt><trkpt lat="44.3085551" lon="10.7359903"><ele>846.0</ele><time>2026-05-03T12:17:52.503Z</time></trkpt><trkpt lat="44.3085192" lon="10.7357872"><ele>846.0</ele><time>2026-05-03T12:17:53.509Z</time></trkpt><trkpt lat="44.3084771" lon="10.735564"><ele>844.6666666666667</ele><time>2026-05-03T12:17:54.502Z</time></trkpt><trkpt lat="44.3084268" lon="10.7353338"><ele>843.3333333333334</ele><time>2026-05-03T12:17:55.5Z</time></trkpt><trkpt lat="44.3083646" lon="10.7351059"><ele>842.0</ele><time>2026-05-03T12:17:56.509Z</time></trkpt><trkpt lat="44.3083006" lon="10.7348826"><ele>841.0</ele><time>2026-05-03T12:17:57.503Z</time></trkpt><trkpt lat="44.3082402" lon="10.7346443"><ele>840.0</ele><time>2026-05-03T12:17:58.504Z</time></trkpt><trkpt lat="44.3081756" lon="10.7344071"><ele>839.0</ele><time>2026-05-03T12:17:59.513Z</time></trkpt><trkpt lat="44.3081222" lon="10.734158"><ele>838.6666666666667</ele><time>2026-05-03T12:18:00.507Z</time></trkpt><trkpt lat="44.3081028" lon="10.7339083"><ele>838.3333333333333</ele><time>2026-05-03T12:18:01.506Z</time></trkpt><trkpt lat="44.3081175" lon="10.7336764"><ele>838.0</ele><time>2026-05-03T12:18:02.509Z</time></trkpt><trkpt lat="44.3081294" lon="10.7334381"><ele>838.0</ele><time>2026-05-03T12:18:03.504Z</time></trkpt><trkpt lat="44.3081251" lon="10.7332132"><ele>838.0</ele><time>2026-05-03T12:18:04.503Z</time></trkpt><trkpt lat="44.3081403" lon="10.7330047"><ele>838.0</ele><time>2026-05-03T12:18:05.52Z</time></trkpt><trkpt lat="44.3081884" lon="10.7328184"><ele>837.5999999999999</ele><time>2026-05-03T12:18:06.508Z</time></trkpt><trkpt lat="44.3082318" lon="10.7326478"><ele>837.1999999999999</ele><time>2026-05-03T12:18:07.507Z</time></trkpt><trkpt lat="44.3082503" lon="10.7325"><ele>836.8</ele><time>2026-05-03T12:18:08.509Z</time></trkpt><trkpt lat="44.3082465" lon="10.7323794"><ele>836.4</ele><time>2026-05-03T12:18:09.518Z</time></trkpt><trkpt lat="44.3081745" lon="10.732273"><ele>836.0</ele><time>2026-05-03T12:18:10.528Z</time></trkpt><trkpt lat="44.3080675" lon="10.7321789"><ele>840.0</ele><time>2026-05-03T12:18:11.517Z</time></trkpt><trkpt lat="44.3079292" lon="10.7320855"><ele>844.0</ele><time>2026-05-03T12:18:12.51Z</time></trkpt><trkpt lat="44.3077883" lon="10.731984"><ele>848.0</ele><time>2026-05-03T12:18:13.508Z</time></trkpt><trkpt lat="44.307652" lon="10.7318915"><ele>848.0</ele><time>2026-05-03T12:18:14.511Z</time></trkpt><trkpt lat="44.3075329" lon="10.7318272"><ele>848.0</ele><time>2026-05-03T12:18:15.509Z</time></trkpt><trkpt lat="44.3074386" lon="10.7317943"><ele>848.0</ele><time>2026-05-03T12:18:16.506Z</time></trkpt><trkpt lat="44.307374" lon="10.731786"><ele>848.0</ele><time>2026-05-03T12:18:17.504Z</time></trkpt><trkpt lat="44.3073168" lon="10.7318245"><ele>848.0</ele><time>2026-05-03T12:18:21.495Z</time></trkpt><trkpt lat="44.3072954" lon="10.7319802"><ele>848.0000000000001</ele><time>2026-05-03T12:18:35.513Z</time></trkpt><trkpt lat="44.3073142" lon="10.7320824"><ele>848.0</ele><time>2026-05-03T12:18:36.51Z</time></trkpt><trkpt lat="44.3073387" lon="10.7321932"><ele>848.0</ele><time>2026-05-03T12:18:37.515Z</time></trkpt><trkpt lat="44.3073743" lon="10.7323049"><ele>848.0</ele><time>2026-05-03T12:18:38.517Z</time></trkpt><trkpt lat="44.3074079" lon="10.7324074"><ele>848.0000000000001</ele><time>2026-05-03T12:18:39.512Z</time></trkpt><trkpt lat="44.3074448" lon="10.7325024"><ele>848.0</ele><time>2026-05-03T12:18:40.519Z</time></trkpt><trkpt lat="44.3074762" lon="10.7325859"><ele>848.0</ele><time>2026-05-03T12:18:41.524Z</time></trkpt><trkpt lat="44.3075312" lon="10.7326948"><ele>848.0</ele><time>2026-05-03T12:18:43.514Z</time></trkpt><trkpt lat="44.3075738" lon="10.7327623"><ele>848.0</ele><time>2026-05-03T12:25:42.509Z</time></trkpt><trkpt lat="44.3076285" lon="10.7328243"><ele>848.0</ele><time>2026-05-03T12:25:48.516Z</time></trkpt><trkpt lat="44.3076911" lon="10.7329943"><ele>848.0</ele><time>2026-05-03T12:25:50.506Z</time></trkpt><trkpt lat="44.3077376" lon="10.7331196"><ele>847.4</ele><time>2026-05-03T12:25:51.51Z</time></trkpt><trkpt lat="44.3077804" lon="10.7332498"><ele>846.8</ele><time>2026-05-03T12:25:52.502Z</time></trkpt><trkpt lat="44.3078157" lon="10.7333923"><ele>846.2</ele><time>2026-05-03T12:25:53.514Z</time></trkpt><trkpt lat="44.3078386" lon="10.733537"><ele>845.6</ele><time>2026-05-03T12:25:54.515Z</time></trkpt><trkpt lat="44.3078471" lon="10.733687"><ele>845.0</ele><time>2026-05-03T12:25:55.516Z</time></trkpt><trkpt lat="44.3078455" lon="10.7338341"><ele>844.8</ele><time>2026-05-03T12:25:56.517Z</time></trkpt><trkpt lat="44.307844" lon="10.7339682"><ele>844.6</ele><time>2026-05-03T12:25:57.511Z</time></trkpt><trkpt lat="44.3078427" lon="10.7340771"><ele>844.4000000000001</ele><time>2026-05-03T12:25:58.508Z</time></trkpt><trkpt lat="44.3077956" lon="10.734195"><ele>844.2</ele><time>2026-05-03T12:26:00.513Z</time></trkpt><trkpt lat="44.3077091" lon="10.7342275"><ele>844.0</ele><time>2026-05-03T12:26:02.508Z</time></trkpt><trkpt lat="44.3076233" lon="10.734268"><ele>844.4999999999999</ele><time>2026-05-03T12:26:04.514Z</time></trkpt><trkpt lat="44.3075436" lon="10.7343971"><ele>845.0</ele><time>2026-05-03T12:26:06.508Z</time></trkpt><trkpt lat="44.3074964" lon="10.7344749"><ele>845.5</ele><time>2026-05-03T12:26:07.508Z</time></trkpt><trkpt lat="44.3074569" lon="10.7345616"><ele>846.0</ele><time>2026-05-03T12:26:08.505Z</time></trkpt><trkpt lat="44.3074142" lon="10.7346581"><ele>846.4999999999999</ele><time>2026-05-03T12:26:09.502Z</time></trkpt><trkpt lat="44.3073689" lon="10.7347631"><ele>847.0</ele><time>2026-05-03T12:26:10.503Z</time></trkpt><trkpt lat="44.3073276" lon="10.7348776"><ele>847.0</ele><time>2026-05-03T12:26:11.507Z</time></trkpt><trkpt lat="44.3072916" lon="10.7350025"><ele>847.0</ele><time>2026-05-03T12:26:12.502Z</time></trkpt><trkpt lat="44.3072634" lon="10.7351376"><ele>847.0</ele><time>2026-05-03T12:26:13.518Z</time></trkpt><trkpt lat="44.3072417" lon="10.735274"><ele>847.0</ele><time>2026-05-03T12:26:14.507Z</time></trkpt><trkpt lat="44.3072288" lon="10.7354079"><ele>847.0</ele><time>2026-05-03T12:26:15.508Z</time></trkpt><trkpt lat="44.307214" lon="10.7355344"><ele>844.8333333333333</ele><time>2026-05-03T12:26:16.504Z</time></trkpt><trkpt lat="44.3071959" lon="10.7356502"><ele>842.6666666666666</ele><time>2026-05-03T12:26:17.505Z</time></trkpt><trkpt lat="44.3071734" lon="10.7357678"><ele>840.5</ele><time>2026-05-03T12:26:18.504Z</time></trkpt><trkpt lat="44.3071499" lon="10.7358832"><ele>838.3333333333333</ele><time>2026-05-03T12:26:19.51Z</time></trkpt><trkpt lat="44.3071268" lon="10.7360058"><ele>836.1666666666666</ele><time>2026-05-03T12:26:20.507Z</time></trkpt><trkpt lat="44.3071033" lon="10.7361357"><ele>834.0</ele><time>2026-05-03T12:26:21.511Z</time></trkpt><trkpt lat="44.3070843" lon="10.7362606"><ele>834.0</ele><time>2026-05-03T12:26:22.509Z</time></trkpt><trkpt lat="44.3070612" lon="10.7363761"><ele>834.0</ele><time>2026-05-03T12:26:23.512Z</time></trkpt><trkpt lat="44.3070321" lon="10.7364604"><ele>834.0</ele><time>2026-05-03T12:26:24.514Z</time></trkpt><trkpt lat="44.3068879" lon="10.7365038"><ele>834.0</ele><time>2026-05-03T12:26:26.504Z</time></trkpt><trkpt lat="44.3067965" lon="10.7365335"><ele>834.0</ele><time>2026-05-03T12:26:27.5Z</time></trkpt><trkpt lat="44.3067156" lon="10.7365933"><ele>834.0</ele><time>2026-05-03T12:26:28.499Z</time></trkpt><trkpt lat="44.3066296" lon="10.7366756"><ele>834.0</ele><time>2026-05-03T12:26:29.51Z</time></trkpt><trkpt lat="44.3065309" lon="10.7367761"><ele>834.0</ele><time>2026-05-03T12:26:30.506Z</time></trkpt><trkpt lat="44.3064304" lon="10.7368808"><ele>834.0</ele><time>2026-05-03T12:26:31.52Z</time></trkpt><trkpt lat="44.3063317" lon="10.7369753"><ele>833.2</ele><time>2026-05-03T12:26:32.524Z</time></trkpt><trkpt lat="44.3062404" lon="10.7370649"><ele>832.4000000000001</ele><time>2026-05-03T12:26:33.517Z</time></trkpt><trkpt lat="44.3061628" lon="10.737154"><ele>831.6</ele><time>2026-05-03T12:26:34.519Z</time></trkpt><trkpt lat="44.3060949" lon="10.7372309"><ele>830.8</ele><time>2026-05-03T12:26:35.521Z</time></trkpt><trkpt lat="44.3060254" lon="10.7372934"><ele>830.0</ele><time>2026-05-03T12:26:36.518Z</time></trkpt><trkpt lat="44.3059428" lon="10.7373463"><ele>830.0</ele><time>2026-05-03T12:26:37.524Z</time></trkpt><trkpt lat="44.3058623" lon="10.7373984"><ele>830.0</ele><time>2026-05-03T12:26:38.519Z</time></trkpt><trkpt lat="44.3057843" lon="10.7374453"><ele>830.0</ele><time>2026-05-03T12:26:39.519Z</time></trkpt><trkpt lat="44.305713" lon="10.7374783"><ele>830.0</ele><time>2026-05-03T12:26:40.512Z</time></trkpt><trkpt lat="44.3056009" lon="10.737507"><ele>830.0</ele><time>2026-05-03T12:26:42.526Z</time></trkpt><trkpt lat="44.3055201" lon="10.7374095"><ele>830.0000000000001</ele><time>2026-05-03T12:26:44.533Z</time></trkpt><trkpt lat="44.305494" lon="10.7373144"><ele>830.0</ele><time>2026-05-03T12:26:45.527Z</time></trkpt><trkpt lat="44.3054926" lon="10.7372093"><ele>830.0</ele><time>2026-05-03T12:26:46.512Z</time></trkpt><trkpt lat="44.3055142" lon="10.7371032"><ele>830.0</ele><time>2026-05-03T12:26:47.517Z</time></trkpt><trkpt lat="44.3055614" lon="10.7370016"><ele>830.0000000000001</ele><time>2026-05-03T12:26:48.512Z</time></trkpt><trkpt lat="44.305619" lon="10.7368977"><ele>830.0</ele><time>2026-05-03T12:26:49.514Z</time></trkpt><trkpt lat="44.3056809" lon="10.7367821"><ele>829.1666666666667</ele><time>2026-05-03T12:26:50.513Z</time></trkpt><trkpt lat="44.3057549" lon="10.7366728"><ele>828.3333333333334</ele><time>2026-05-03T12:26:51.507Z</time></trkpt><trkpt lat="44.3058284" lon="10.7365798"><ele>827.5</ele><time>2026-05-03T12:26:52.497Z</time></trkpt><trkpt lat="44.3058967" lon="10.7365138"><ele>826.6666666666667</ele><time>2026-05-03T12:26:53.504Z</time></trkpt><trkpt lat="44.305953" lon="10.736474"><ele>825.8333333333334</ele><time>2026-05-03T12:26:54.501Z</time></trkpt><trkpt lat="44.3059793" lon="10.7363678"><ele>825.0</ele><time>2026-05-03T12:26:56.51Z</time></trkpt><trkpt lat="44.3058662" lon="10.7362792"><ele>825.0</ele><time>2026-05-03T12:26:58.509Z</time></trkpt><trkpt lat="44.3057638" lon="10.7362697"><ele>825.0</ele><time>2026-05-03T12:26:59.508Z</time></trkpt><trkpt lat="44.3056561" lon="10.7363075"><ele>825.0</ele><time>2026-05-03T12:27:00.502Z</time></trkpt><trkpt lat="44.3055528" lon="10.7363681"><ele>825.0</ele><time>2026-05-03T12:27:01.507Z</time></trkpt><trkpt lat="44.3054461" lon="10.7364451"><ele>825.0</ele><time>2026-05-03T12:27:02.499Z</time></trkpt><trkpt lat="44.3053559" lon="10.7365402"><ele>823.5</ele><time>2026-05-03T12:27:03.505Z</time></trkpt><trkpt lat="44.3052646" lon="10.7366298"><ele>822.0</ele><time>2026-05-03T12:27:04.504Z</time></trkpt><trkpt lat="44.3051698" lon="10.7367148"><ele>820.5</ele><time>2026-05-03T12:27:05.505Z</time></trkpt><trkpt lat="44.3050738" lon="10.7368074"><ele>819.0</ele><time>2026-05-03T12:27:06.498Z</time></trkpt><trkpt lat="44.3049834" lon="10.7369127"><ele>819.0</ele><time>2026-05-03T12:27:07.507Z</time></trkpt><trkpt lat="44.3049001" lon="10.7370271"><ele>819.0</ele><time>2026-05-03T12:27:08.5Z</time></trkpt><trkpt lat="44.3048225" lon="10.7371493"><ele>819.0</ele><time>2026-05-03T12:27:09.508Z</time></trkpt><trkpt lat="44.304749" lon="10.7372691"><ele>819.0</ele><time>2026-05-03T12:27:10.507Z</time></trkpt><trkpt lat="44.3046814" lon="10.7374004"><ele>814.25</ele><time>2026-05-03T12:27:11.504Z</time></trkpt><trkpt lat="44.3046195" lon="10.7375378"><ele>809.5</ele><time>2026-05-03T12:27:12.506Z</time></trkpt><trkpt lat="44.3045594" lon="10.7376854"><ele>804.75</ele><time>2026-05-03T12:27:13.508Z</time></trkpt><trkpt lat="44.3044978" lon="10.7378371"><ele>800.0</ele><time>2026-05-03T12:27:14.51Z</time></trkpt><trkpt lat="44.3044387" lon="10.737986"><ele>800.0</ele><time>2026-05-03T12:27:15.516Z</time></trkpt><trkpt lat="44.3043769" lon="10.7381218"><ele>800.0</ele><time>2026-05-03T12:27:16.511Z</time></trkpt><trkpt lat="44.3043254" lon="10.7382437"><ele>800.0</ele><time>2026-05-03T12:27:17.514Z</time></trkpt><trkpt lat="44.3042963" lon="10.7383482"><ele>800.0</ele><time>2026-05-03T12:27:18.516Z</time></trkpt><trkpt lat="44.3042958" lon="10.738451"><ele>800.0</ele><time>2026-05-03T12:27:19.521Z</time></trkpt><trkpt lat="44.3043259" lon="10.7385679"><ele>797.75</ele><time>2026-05-03T12:27:20.519Z</time></trkpt><trkpt lat="44.3043807" lon="10.73872"><ele>795.5</ele><time>2026-05-03T12:27:21.515Z</time></trkpt><trkpt lat="44.3044258" lon="10.7388853"><ele>793.25</ele><time>2026-05-03T12:27:22.517Z</time></trkpt><trkpt lat="44.304446" lon="10.739063"><ele>791.0</ele><time>2026-05-03T12:27:23.522Z</time></trkpt><trkpt lat="44.3044586" lon="10.7392579"><ele>787.6666666666667</ele><time>2026-05-03T12:27:24.512Z</time></trkpt><trkpt lat="44.3044783" lon="10.7394662"><ele>784.3333333333333</ele><time>2026-05-03T12:27:25.516Z</time></trkpt><trkpt lat="44.3045064" lon="10.739697"><ele>781.0</ele><time>2026-05-03T12:27:26.52Z</time></trkpt><trkpt lat="44.3045251" lon="10.7399182"><ele>781.0</ele><time>2026-05-03T12:27:27.528Z</time></trkpt><trkpt lat="44.304532" lon="10.7401329"><ele>781.0</ele><time>2026-05-03T12:27:28.524Z</time></trkpt><trkpt lat="44.3045327" lon="10.7403429"><ele>781.0</ele><time>2026-05-03T12:27:29.523Z</time></trkpt><trkpt lat="44.3045256" lon="10.740543"><ele>781.0</ele><time>2026-05-03T12:27:30.521Z</time></trkpt><trkpt lat="44.3045194" lon="10.7407301"><ele>780.1999999999999</ele><time>2026-05-03T12:27:31.521Z</time></trkpt><trkpt lat="44.3045142" lon="10.7408927"><ele>779.4</ele><time>2026-05-03T12:27:32.519Z</time></trkpt><trkpt lat="44.3044948" lon="10.7410348"><ele>778.6</ele><time>2026-05-03T12:27:33.513Z</time></trkpt><trkpt lat="44.3044659" lon="10.7411732"><ele>777.8</ele><time>2026-05-03T12:27:34.514Z</time></trkpt><trkpt lat="44.3044209" lon="10.7412951"><ele>777.0</ele><time>2026-05-03T12:27:35.515Z</time></trkpt><trkpt lat="44.3043731" lon="10.7414033"><ele>776.1666666666666</ele><time>2026-05-03T12:27:36.513Z</time></trkpt><trkpt lat="44.3043245" lon="10.7414927"><ele>775.3333333333333</ele><time>2026-05-03T12:27:37.517Z</time></trkpt><trkpt lat="44.3042737" lon="10.7415682"><ele>774.5</ele><time>2026-05-03T12:27:38.517Z</time></trkpt><trkpt lat="44.3042249" lon="10.7416395"><ele>773.6666666666666</ele><time>2026-05-03T12:27:39.517Z</time></trkpt><trkpt lat="44.304177" lon="10.7417208"><ele>772.8333333333333</ele><time>2026-05-03T12:27:40.515Z</time></trkpt><trkpt lat="44.3041449" lon="10.7418255"><ele>772.0</ele><time>2026-05-03T12:27:41.511Z</time></trkpt><trkpt lat="44.3041283" lon="10.7419421"><ele>770.6666666666666</ele><time>2026-05-03T12:27:42.514Z</time></trkpt><trkpt lat="44.3041225" lon="10.7420613"><ele>769.3333333333333</ele><time>2026-05-03T12:27:43.51Z</time></trkpt><trkpt lat="44.304122" lon="10.7421865"><ele>768.0</ele><time>2026-05-03T12:27:44.512Z</time></trkpt><trkpt lat="44.3041101" lon="10.7422988"><ele>766.6666666666666</ele><time>2026-05-03T12:27:45.499Z</time></trkpt><trkpt lat="44.3040848" lon="10.7423988"><ele>765.3333333333333</ele><time>2026-05-03T12:27:46.518Z</time></trkpt><trkpt lat="44.3040434" lon="10.7424763"><ele>764.0</ele><time>2026-05-03T12:27:47.52Z</time></trkpt><trkpt lat="44.3039806" lon="10.7425334"><ele>761.8333333333333</ele><time>2026-05-03T12:27:48.512Z</time></trkpt><trkpt lat="44.3039128" lon="10.7425755"><ele>759.6666666666666</ele><time>2026-05-03T12:27:49.509Z</time></trkpt><trkpt lat="44.3038628" lon="10.7426352"><ele>757.5</ele><time>2026-05-03T12:27:50.507Z</time></trkpt><trkpt lat="44.3038164" lon="10.7427068"><ele>755.3333333333334</ele><time>2026-05-03T12:27:51.509Z</time></trkpt><trkpt lat="44.3037695" lon="10.7427851"><ele>753.1666666666667</ele><time>2026-05-03T12:27:52.51Z</time></trkpt><trkpt lat="44.3037022" lon="10.7428549"><ele>751.0</ele><time>2026-05-03T12:27:53.512Z</time></trkpt><trkpt lat="44.3036178" lon="10.7428998"><ele>750.1666666666667</ele><time>2026-05-03T12:27:54.508Z</time></trkpt><trkpt lat="44.3035351" lon="10.7429402"><ele>749.3333333333334</ele><time>2026-05-03T12:27:55.506Z</time></trkpt><trkpt lat="44.3034585" lon="10.742997"><ele>748.5</ele><time>2026-05-03T12:27:56.507Z</time></trkpt><trkpt lat="44.3033829" lon="10.7430702"><ele>747.6666666666666</ele><time>2026-05-03T12:27:57.505Z</time></trkpt><trkpt lat="44.3033126" lon="10.7431556"><ele>746.8333333333333</ele><time>2026-05-03T12:27:58.514Z</time></trkpt><trkpt lat="44.3032513" lon="10.7432425"><ele>746.0</ele><time>2026-05-03T12:27:59.504Z</time></trkpt><trkpt lat="44.3032009" lon="10.7433202"><ele>746.0</ele><time>2026-05-03T12:28:00.505Z</time></trkpt><trkpt lat="44.303154" lon="10.7433933"><ele>746.0</ele><time>2026-05-03T12:28:01.503Z</time></trkpt><trkpt lat="44.3030981" lon="10.7434652"><ele>746.0</ele><time>2026-05-03T12:28:02.503Z</time></trkpt><trkpt lat="44.3030472" lon="10.7435309"><ele>746.0</ele><time>2026-05-03T12:28:03.506Z</time></trkpt><trkpt lat="44.3029509" lon="10.7436153"><ele>746.0</ele><time>2026-05-03T12:28:05.509Z</time></trkpt><trkpt lat="44.3028444" lon="10.743689"><ele>746.0</ele><time>2026-05-03T12:28:07.513Z</time></trkpt><trkpt lat="44.3027792" lon="10.7436973"><ele>742.5714285714286</ele><time>2026-05-03T12:28:08.51Z</time></trkpt><trkpt lat="44.302705" lon="10.7437033"><ele>739.1428571428571</ele><time>2026-05-03T12:28:09.51Z</time></trkpt><trkpt lat="44.3026302" lon="10.7437028"><ele>735.7142857142858</ele><time>2026-05-03T12:28:10.507Z</time></trkpt><trkpt lat="44.3025592" lon="10.7437024"><ele>732.2857142857142</ele><time>2026-05-03T12:28:11.503Z</time></trkpt><trkpt lat="44.3024877" lon="10.7437049"><ele>728.8571428571428</ele><time>2026-05-03T12:28:12.504Z</time></trkpt><trkpt lat="44.3024138" lon="10.7437193"><ele>725.4285714285714</ele><time>2026-05-03T12:28:13.506Z</time></trkpt><trkpt lat="44.3023386" lon="10.743734"><ele>722.0</ele><time>2026-05-03T12:28:14.503Z</time></trkpt><trkpt lat="44.3022727" lon="10.7437482"><ele>719.1428571428572</ele><time>2026-05-03T12:28:15.501Z</time></trkpt><trkpt lat="44.3022019" lon="10.743766"><ele>716.2857142857142</ele><time>2026-05-03T12:28:16.5Z</time></trkpt><trkpt lat="44.3021298" lon="10.7437932"><ele>713.4285714285714</ele><time>2026-05-03T12:28:17.508Z</time></trkpt><trkpt lat="44.3020515" lon="10.7438157"><ele>710.5714285714287</ele><time>2026-05-03T12:28:18.5Z</time></trkpt><trkpt lat="44.3019774" lon="10.7438449"><ele>707.7142857142858</ele><time>2026-05-03T12:28:19.504Z</time></trkpt><trkpt lat="44.3019139" lon="10.7438804"><ele>704.8571428571429</ele><time>2026-05-03T12:28:20.505Z</time></trkpt><trkpt lat="44.3018544" lon="10.7439221"><ele>702.0</ele><time>2026-05-03T12:28:21.508Z</time></trkpt><trkpt lat="44.3017487" lon="10.7439808"><ele>702.0</ele><time>2026-05-03T12:28:23.508Z</time></trkpt><trkpt lat="44.3016246" lon="10.7440156"><ele>702.0</ele><time>2026-05-03T12:28:25.507Z</time></trkpt><trkpt lat="44.3015611" lon="10.7440341"><ele>702.0</ele><time>2026-05-03T12:28:26.505Z</time></trkpt><trkpt lat="44.3014378" lon="10.7440716"><ele>702.0</ele><time>2026-05-03T12:28:28.513Z</time></trkpt><trkpt lat="44.3013263" lon="10.7440946"><ele>702.0</ele><time>2026-05-03T12:28:30.514Z</time></trkpt><trkpt lat="44.3012514" lon="10.7440932"><ele>699.8333333333334</ele><time>2026-05-03T12:28:32.515Z</time></trkpt><trkpt lat="44.3011916" lon="10.7441368"><ele>697.6666666666666</ele><time>2026-05-03T12:28:46.514Z</time></trkpt><trkpt lat="44.3011794" lon="10.7442665"><ele>695.5</ele><time>2026-05-03T12:28:49.509Z</time></trkpt><trkpt lat="44.3012397" lon="10.7443835"><ele>693.3333333333333</ele><time>2026-05-03T12:28:51.516Z</time></trkpt><trkpt lat="44.3012831" lon="10.7444502"><ele>691.1666666666666</ele><time>2026-05-03T12:28:52.513Z</time></trkpt><trkpt lat="44.3013359" lon="10.7445273"><ele>689.0</ele><time>2026-05-03T12:28:53.512Z</time></trkpt><trkpt lat="44.301394" lon="10.7446202"><ele>689.5</ele><time>2026-05-03T12:28:54.511Z</time></trkpt><trkpt lat="44.3014519" lon="10.7447122"><ele>690.0</ele><time>2026-05-03T12:28:55.515Z</time></trkpt><trkpt lat="44.3015031" lon="10.7448141"><ele>690.5</ele><time>2026-05-03T12:28:56.512Z</time></trkpt><trkpt lat="44.3015468" lon="10.7449213"><ele>691.0</ele><time>2026-05-03T12:28:57.505Z</time></trkpt><trkpt lat="44.301587" lon="10.7450323"><ele>691.5</ele><time>2026-05-03T12:28:58.506Z</time></trkpt><trkpt lat="44.3016263" lon="10.7451325"><ele>692.0</ele><time>2026-05-03T12:28:59.498Z</time></trkpt><trkpt lat="44.3016619" lon="10.7452334"><ele>689.0</ele><time>2026-05-03T12:29:00.519Z</time></trkpt><trkpt lat="44.3017004" lon="10.7453337"><ele>686.0</ele><time>2026-05-03T12:29:01.514Z</time></trkpt><trkpt lat="44.3017407" lon="10.7454406"><ele>683.0</ele><time>2026-05-03T12:29:02.507Z</time></trkpt><trkpt lat="44.3017747" lon="10.7455474"><ele>680.0</ele><time>2026-05-03T12:29:03.508Z</time></trkpt><trkpt lat="44.3018121" lon="10.7456581"><ele>677.0</ele><time>2026-05-03T12:29:04.507Z</time></trkpt><trkpt lat="44.3018424" lon="10.7457643"><ele>674.0</ele><time>2026-05-03T12:29:05.513Z</time></trkpt><trkpt lat="44.3018655" lon="10.7458755"><ele>674.0</ele><time>2026-05-03T12:29:06.51Z</time></trkpt><trkpt lat="44.3018796" lon="10.7459802"><ele>674.0</ele><time>2026-05-03T12:29:07.506Z</time></trkpt><trkpt lat="44.3019086" lon="10.746063"><ele>674.0</ele><time>2026-05-03T12:29:08.512Z</time></trkpt><trkpt lat="44.3019499" lon="10.7461311"><ele>674.0</ele><time>2026-05-03T12:29:09.51Z</time></trkpt><trkpt lat="44.3020585" lon="10.7462627"><ele>674.0</ele><time>2026-05-03T12:29:11.504Z</time></trkpt><trkpt lat="44.3021284" lon="10.7463309"><ele>674.0</ele><time>2026-05-03T12:29:12.511Z</time></trkpt><trkpt lat="44.3022093" lon="10.7464019"><ele>673.0</ele><time>2026-05-03T12:29:13.51Z</time></trkpt><trkpt lat="44.3022823" lon="10.7464745"><ele>672.0</ele><time>2026-05-03T12:29:14.513Z</time></trkpt><trkpt lat="44.3023519" lon="10.7465421"><ele>671.0</ele><time>2026-05-03T12:29:15.509Z</time></trkpt><trkpt lat="44.3024178" lon="10.7465913"><ele>670.0</ele><time>2026-05-03T12:29:16.508Z</time></trkpt><trkpt lat="44.3024817" lon="10.7466332"><ele>669.0</ele><time>2026-05-03T12:29:17.498Z</time></trkpt><trkpt lat="44.3025461" lon="10.7467656"><ele>668.0</ele><time>2026-05-03T12:29:19.514Z</time></trkpt><trkpt lat="44.3025466" lon="10.7468618"><ele>666.3333333333333</ele><time>2026-05-03T12:29:20.508Z</time></trkpt><trkpt lat="44.3025538" lon="10.7469765"><ele>664.6666666666666</ele><time>2026-05-03T12:29:21.498Z</time></trkpt><trkpt lat="44.3025678" lon="10.7470937"><ele>663.0</ele><time>2026-05-03T12:29:22.5Z</time></trkpt><trkpt lat="44.3025967" lon="10.7472137"><ele>661.3333333333334</ele><time>2026-05-03T12:29:23.504Z</time></trkpt><trkpt lat="44.3026329" lon="10.747337"><ele>659.6666666666667</ele><time>2026-05-03T12:29:24.5Z</time></trkpt><trkpt lat="44.3026863" lon="10.7474446"><ele>658.0</ele><time>2026-05-03T12:29:25.505Z</time></trkpt><trkpt lat="44.3027324" lon="10.7475457"><ele>658.0</ele><time>2026-05-03T12:29:26.503Z</time></trkpt><trkpt lat="44.3027709" lon="10.7476616"><ele>658.0</ele><time>2026-05-03T12:29:27.504Z</time></trkpt><trkpt lat="44.3027948" lon="10.7477809"><ele>658.0</ele><time>2026-05-03T12:29:28.507Z</time></trkpt><trkpt lat="44.3028229" lon="10.747903"><ele>658.0</ele><time>2026-05-03T12:29:29.507Z</time></trkpt><trkpt lat="44.3028592" lon="10.7480301"><ele>658.0</ele><time>2026-05-03T12:29:30.514Z</time></trkpt><trkpt lat="44.3029044" lon="10.7481592"><ele>659.2</ele><time>2026-05-03T12:29:31.509Z</time></trkpt><trkpt lat="44.3029586" lon="10.74829"><ele>660.4</ele><time>2026-05-03T12:29:32.511Z</time></trkpt><trkpt lat="44.3030192" lon="10.7484122"><ele>661.6</ele><time>2026-05-03T12:29:33.514Z</time></trkpt><trkpt lat="44.3030815" lon="10.7485178"><ele>662.8000000000001</ele><time>2026-05-03T12:29:34.511Z</time></trkpt><trkpt lat="44.3031445" lon="10.7486054"><ele>664.0</ele><time>2026-05-03T12:29:35.511Z</time></trkpt><trkpt lat="44.303212" lon="10.7486762"><ele>661.8333333333334</ele><time>2026-05-03T12:29:36.515Z</time></trkpt><trkpt lat="44.303284" lon="10.7487453"><ele>659.6666666666667</ele><time>2026-05-03T12:29:37.517Z</time></trkpt><trkpt lat="44.3033566" lon="10.7488135"><ele>657.5</ele><time>2026-05-03T12:29:38.51Z</time></trkpt><trkpt lat="44.3034281" lon="10.7488685"><ele>655.3333333333334</ele><time>2026-05-03T12:29:39.513Z</time></trkpt><trkpt lat="44.3035037" lon="10.7489214"><ele>653.1666666666666</ele><time>2026-05-03T12:29:40.514Z</time></trkpt><trkpt lat="44.3035886" lon="10.7489775"><ele>651.0</ele><time>2026-05-03T12:29:41.511Z</time></trkpt><trkpt lat="44.3036682" lon="10.7490388"><ele>651.0</ele><time>2026-05-03T12:29:42.511Z</time></trkpt><trkpt lat="44.3037487" lon="10.7491154"><ele>651.0</ele><time>2026-05-03T12:29:43.507Z</time></trkpt><trkpt lat="44.303823" lon="10.7491893"><ele>651.0</ele><time>2026-05-03T12:29:44.505Z</time></trkpt><trkpt lat="44.3038936" lon="10.7492465"><ele>651.0</ele><time>2026-05-03T12:29:45.502Z</time></trkpt><trkpt lat="44.3039545" lon="10.7492916"><ele>651.0</ele><time>2026-05-03T12:29:46.501Z</time></trkpt><trkpt lat="44.3040305" lon="10.7493877"><ele>651.0</ele><time>2026-05-03T12:29:48.498Z</time></trkpt><trkpt lat="44.3040576" lon="10.749532"><ele>650.6666666666666</ele><time>2026-05-03T12:29:50.506Z</time></trkpt><trkpt lat="44.3040645" lon="10.7496362"><ele>650.3333333333334</ele><time>2026-05-03T12:29:51.494Z</time></trkpt><trkpt lat="44.3040679" lon="10.7497563"><ele>650.0</ele><time>2026-05-03T12:29:52.492Z</time></trkpt><trkpt lat="44.3040713" lon="10.7498894"><ele>649.6666666666667</ele><time>2026-05-03T12:29:53.489Z</time></trkpt><trkpt lat="44.3040805" lon="10.7500211"><ele>649.3333333333334</ele><time>2026-05-03T12:29:54.488Z</time></trkpt><trkpt lat="44.3040992" lon="10.7501557"><ele>649.0</ele><time>2026-05-03T12:29:55.494Z</time></trkpt><trkpt lat="44.3041222" lon="10.750296"><ele>647.3333333333334</ele><time>2026-05-03T12:29:56.5Z</time></trkpt><trkpt lat="44.3041452" lon="10.7504166"><ele>645.6666666666667</ele><time>2026-05-03T12:29:57.494Z</time></trkpt><trkpt lat="44.3041717" lon="10.7505233"><ele>644.0</ele><time>2026-05-03T12:29:58.5Z</time></trkpt><trkpt lat="44.3042058" lon="10.7506214"><ele>642.3333333333334</ele><time>2026-05-03T12:29:59.499Z</time></trkpt><trkpt lat="44.3042501" lon="10.7507105"><ele>640.6666666666666</ele><time>2026-05-03T12:30:00.497Z</time></trkpt><trkpt lat="44.3042957" lon="10.7507937"><ele>639.0</ele><time>2026-05-03T12:30:01.509Z</time></trkpt><trkpt lat="44.3043116" lon="10.7509628"><ele>638.2</ele><time>2026-05-03T12:30:03.495Z</time></trkpt><trkpt lat="44.3042908" lon="10.7510612"><ele>637.4</ele><time>2026-05-03T12:30:04.498Z</time></trkpt><trkpt lat="44.30427" lon="10.751186"><ele>636.6</ele><time>2026-05-03T12:30:05.505Z</time></trkpt><trkpt lat="44.3042537" lon="10.7513191"><ele>635.8</ele><time>2026-05-03T12:30:06.502Z</time></trkpt><trkpt lat="44.3042371" lon="10.7514602"><ele>635.0</ele><time>2026-05-03T12:30:07.499Z</time></trkpt><trkpt lat="44.3042185" lon="10.7516035"><ele>635.0</ele><time>2026-05-03T12:30:08.507Z</time></trkpt><trkpt lat="44.3042027" lon="10.7517473"><ele>635.0</ele><time>2026-05-03T12:30:09.502Z</time></trkpt><trkpt lat="44.3041913" lon="10.7518751"><ele>635.0</ele><time>2026-05-03T12:30:10.505Z</time></trkpt><trkpt lat="44.3041801" lon="10.7519839"><ele>635.0</ele><time>2026-05-03T12:30:11.504Z</time></trkpt><trkpt lat="44.3041586" lon="10.7520944"><ele>635.0</ele><time>2026-05-03T12:30:12.506Z</time></trkpt><trkpt lat="44.3041411" lon="10.7521883"><ele>635.0</ele><time>2026-05-03T12:30:13.502Z</time></trkpt><trkpt lat="44.3041117" lon="10.7522952"><ele>635.6</ele><time>2026-05-03T12:30:15.502Z</time></trkpt><trkpt lat="44.3040904" lon="10.7523938"><ele>636.2</ele><time>2026-05-03T12:30:19.507Z</time></trkpt><trkpt lat="44.3040209" lon="10.7522785"><ele>636.8</ele><time>2026-05-03T12:30:23.514Z</time></trkpt><trkpt lat="44.3039449" lon="10.7522119"><ele>637.4</ele><time>2026-05-03T12:30:25.52Z</time></trkpt><trkpt lat="44.3038407" lon="10.7522293"><ele>638.0</ele><time>2026-05-03T12:30:27.518Z</time></trkpt><trkpt lat="44.303757" lon="10.7522737"><ele>635.1999999999999</ele><time>2026-05-03T12:30:28.515Z</time></trkpt><trkpt lat="44.3036711" lon="10.7523289"><ele>632.4</ele><time>2026-05-03T12:30:29.51Z</time></trkpt><trkpt lat="44.3035851" lon="10.7523909"><ele>629.5999999999999</ele><time>2026-05-03T12:30:30.509Z</time></trkpt><trkpt lat="44.3034995" lon="10.752461"><ele>626.8</ele><time>2026-05-03T12:30:31.511Z</time></trkpt><trkpt lat="44.303414" lon="10.7525321"><ele>624.0</ele><time>2026-05-03T12:30:32.515Z</time></trkpt><trkpt lat="44.3033299" lon="10.7526051"><ele>624.0</ele><time>2026-05-03T12:30:33.507Z</time></trkpt><trkpt lat="44.303247" lon="10.7526725"><ele>624.0</ele><time>2026-05-03T12:30:34.503Z</time></trkpt><trkpt lat="44.3031707" lon="10.7527465"><ele>624.0</ele><time>2026-05-03T12:30:35.509Z</time></trkpt><trkpt lat="44.3030991" lon="10.7528184"><ele>624.0</ele><time>2026-05-03T12:30:36.507Z</time></trkpt><trkpt lat="44.3030273" lon="10.7528799"><ele>624.0</ele><time>2026-05-03T12:30:37.504Z</time></trkpt><trkpt lat="44.3029613" lon="10.7529377"><ele>624.0</ele><time>2026-05-03T12:30:38.502Z</time></trkpt><trkpt lat="44.3029008" lon="10.753"><ele>620.8333333333334</ele><time>2026-05-03T12:30:39.519Z</time></trkpt><trkpt lat="44.3028463" lon="10.7530725"><ele>617.6666666666666</ele><time>2026-05-03T12:30:40.511Z</time></trkpt><trkpt lat="44.3027954" lon="10.7531603"><ele>614.5</ele><time>2026-05-03T12:30:41.508Z</time></trkpt><trkpt lat="44.3027483" lon="10.7532599"><ele>611.3333333333333</ele><time>2026-05-03T12:30:42.511Z</time></trkpt><trkpt lat="44.3026987" lon="10.7533607"><ele>608.1666666666666</ele><time>2026-05-03T12:30:43.509Z</time></trkpt><trkpt lat="44.3026473" lon="10.7534495"><ele>605.0</ele><time>2026-05-03T12:30:44.513Z</time></trkpt><trkpt lat="44.3025847" lon="10.7535061"><ele>605.0</ele><time>2026-05-03T12:30:45.513Z</time></trkpt><trkpt lat="44.3025105" lon="10.753525"><ele>605.0</ele><time>2026-05-03T12:30:46.505Z</time></trkpt><trkpt lat="44.3024317" lon="10.7535151"><ele>605.0</ele><time>2026-05-03T12:30:47.5Z</time></trkpt><trkpt lat="44.3023541" lon="10.7534985"><ele>605.0</ele><time>2026-05-03T12:30:48.5Z</time></trkpt><trkpt lat="44.3022751" lon="10.7534634"><ele>605.0</ele><time>2026-05-03T12:30:49.506Z</time></trkpt><trkpt lat="44.302202" lon="10.7534116"><ele>605.0</ele><time>2026-05-03T12:30:50.515Z</time></trkpt><trkpt lat="44.3021336" lon="10.753343"><ele>601.6666666666666</ele><time>2026-05-03T12:30:51.513Z</time></trkpt><trkpt lat="44.3020642" lon="10.7532803"><ele>598.3333333333333</ele><time>2026-05-03T12:30:52.524Z</time></trkpt><trkpt lat="44.3019971" lon="10.7532462"><ele>595.0</ele><time>2026-05-03T12:30:53.518Z</time></trkpt><trkpt lat="44.3019314" lon="10.7532438"><ele>591.6666666666666</ele><time>2026-05-03T12:30:54.508Z</time></trkpt><trkpt lat="44.3018659" lon="10.7532706"><ele>588.3333333333334</ele><time>2026-05-03T12:30:55.515Z</time></trkpt><trkpt lat="44.3017987" lon="10.7533362"><ele>585.0</ele><time>2026-05-03T12:30:56.523Z</time></trkpt><trkpt lat="44.3017265" lon="10.7534353"><ele>584.0</ele><time>2026-05-03T12:30:57.51Z</time></trkpt><trkpt lat="44.3016516" lon="10.7535394"><ele>583.0</ele><time>2026-05-03T12:30:58.52Z</time></trkpt><trkpt lat="44.3015742" lon="10.7536436"><ele>582.0</ele><time>2026-05-03T12:30:59.52Z</time></trkpt><trkpt lat="44.3014948" lon="10.7537389"><ele>581.0</ele><time>2026-05-03T12:31:00.517Z</time></trkpt><trkpt lat="44.3014163" lon="10.7538238"><ele>580.0</ele><time>2026-05-03T12:31:01.515Z</time></trkpt><trkpt lat="44.3013449" lon="10.7539019"><ele>576.8333333333334</ele><time>2026-05-03T12:31:02.515Z</time></trkpt><trkpt lat="44.3012737" lon="10.7539723"><ele>573.6666666666667</ele><time>2026-05-03T12:31:03.523Z</time></trkpt><trkpt lat="44.3012106" lon="10.7540335"><ele>570.5</ele><time>2026-05-03T12:31:04.51Z</time></trkpt><trkpt lat="44.3011552" lon="10.7540786"><ele>567.3333333333334</ele><time>2026-05-03T12:31:05.513Z</time></trkpt><trkpt lat="44.3010654" lon="10.7541068"><ele>564.1666666666666</ele><time>2026-05-03T12:31:07.516Z</time></trkpt><trkpt lat="44.3010068" lon="10.7540258"><ele>561.0</ele><time>2026-05-03T12:31:09.517Z</time></trkpt><trkpt lat="44.3009817" lon="10.7538553"><ele>561.0</ele><time>2026-05-03T12:31:11.526Z</time></trkpt><trkpt lat="44.3009738" lon="10.753714"><ele>561.0</ele><time>2026-05-03T12:31:12.517Z</time></trkpt><trkpt lat="44.3009671" lon="10.7535686"><ele>561.0</ele><time>2026-05-03T12:31:13.516Z</time></trkpt><trkpt lat="44.3009558" lon="10.7534199"><ele>561.0</ele><time>2026-05-03T12:31:14.527Z</time></trkpt><trkpt lat="44.3009405" lon="10.7532696"><ele>561.0</ele><time>2026-05-03T12:31:15.522Z</time></trkpt><trkpt lat="44.3009232" lon="10.7531193"><ele>561.6666666666666</ele><time>2026-05-03T12:31:16.523Z</time></trkpt><trkpt lat="44.3009005" lon="10.7529794"><ele>562.3333333333334</ele><time>2026-05-03T12:31:17.515Z</time></trkpt><trkpt lat="44.3008565" lon="10.7528594"><ele>563.0</ele><time>2026-05-03T12:31:18.528Z</time></trkpt><trkpt lat="44.3007914" lon="10.7527726"><ele>563.6666666666667</ele><time>2026-05-03T12:31:19.524Z</time></trkpt><trkpt lat="44.30073" lon="10.7526931"><ele>564.3333333333334</ele><time>2026-05-03T12:31:20.522Z</time></trkpt><trkpt lat="44.3006906" lon="10.7526064"><ele>565.0</ele><time>2026-05-03T12:31:21.516Z</time></trkpt><trkpt lat="44.300664" lon="10.752503"><ele>564.1666666666667</ele><time>2026-05-03T12:31:22.52Z</time></trkpt><trkpt lat="44.3006389" lon="10.7523935"><ele>563.3333333333334</ele><time>2026-05-03T12:31:23.525Z</time></trkpt><trkpt lat="44.3006048" lon="10.7522799"><ele>562.5</ele><time>2026-05-03T12:31:24.517Z</time></trkpt><trkpt lat="44.3005642" lon="10.7521594"><ele>561.6666666666666</ele><time>2026-05-03T12:31:25.509Z</time></trkpt><trkpt lat="44.3005198" lon="10.7520527"><ele>560.8333333333333</ele><time>2026-05-03T12:31:26.512Z</time></trkpt><trkpt lat="44.3004694" lon="10.7519768"><ele>560.0</ele><time>2026-05-03T12:31:27.517Z</time></trkpt><trkpt lat="44.3003979" lon="10.7519292"><ele>560.0</ele><time>2026-05-03T12:31:28.51Z</time></trkpt><trkpt lat="44.3003139" lon="10.7519075"><ele>560.0</ele><time>2026-05-03T12:31:29.515Z</time></trkpt><trkpt lat="44.3002276" lon="10.7518778"><ele>560.0</ele><time>2026-05-03T12:31:30.518Z</time></trkpt><trkpt lat="44.3001589" lon="10.7518299"><ele>560.0</ele><time>2026-05-03T12:31:31.509Z</time></trkpt><trkpt lat="44.3000974" lon="10.7517793"><ele>560.0</ele><time>2026-05-03T12:31:32.517Z</time></trkpt><trkpt lat="44.3000596" lon="10.7517003"><ele>560.0</ele><time>2026-05-03T12:31:33.525Z</time></trkpt><trkpt lat="44.3000418" lon="10.75158"><ele>561.4</ele><time>2026-05-03T12:31:34.524Z</time></trkpt><trkpt lat="44.3000211" lon="10.7514527"><ele>562.8</ele><time>2026-05-03T12:31:35.522Z</time></trkpt><trkpt lat="44.299995" lon="10.7513388"><ele>564.2</ele><time>2026-05-03T12:31:36.522Z</time></trkpt><trkpt lat="44.2999682" lon="10.7512345"><ele>565.6</ele><time>2026-05-03T12:31:37.511Z</time></trkpt><trkpt lat="44.299946" lon="10.7511139"><ele>567.0</ele><time>2026-05-03T12:31:38.515Z</time></trkpt><trkpt lat="44.2999389" lon="10.7509656"><ele>566.6</ele><time>2026-05-03T12:31:39.515Z</time></trkpt><trkpt lat="44.2999263" lon="10.7508089"><ele>566.2</ele><time>2026-05-03T12:31:40.511Z</time></trkpt><trkpt lat="44.2998968" lon="10.7506743"><ele>565.8</ele><time>2026-05-03T12:31:41.52Z</time></trkpt><trkpt lat="44.2998403" lon="10.75057"><ele>565.4</ele><time>2026-05-03T12:31:42.517Z</time></trkpt><trkpt lat="44.2997721" lon="10.750481"><ele>565.0</ele><time>2026-05-03T12:31:43.514Z</time></trkpt><trkpt lat="44.2997012" lon="10.7504126"><ele>565.0</ele><time>2026-05-03T12:31:44.516Z</time></trkpt><trkpt lat="44.2996169" lon="10.750377"><ele>565.0</ele><time>2026-05-03T12:31:45.514Z</time></trkpt><trkpt lat="44.2995254" lon="10.7503484"><ele>565.0</ele><time>2026-05-03T12:31:46.522Z</time></trkpt><trkpt lat="44.2994378" lon="10.7503054"><ele>565.0</ele><time>2026-05-03T12:31:47.52Z</time></trkpt><trkpt lat="44.2993666" lon="10.7502578"><ele>565.0</ele><time>2026-05-03T12:31:48.517Z</time></trkpt><trkpt lat="44.2992759" lon="10.7502545"><ele>565.0</ele><time>2026-05-03T12:31:50.513Z</time></trkpt><trkpt lat="44.2992131" lon="10.7503818"><ele>565.0</ele><time>2026-05-03T12:31:52.519Z</time></trkpt><trkpt lat="44.2991786" lon="10.7505057"><ele>565.0</ele><time>2026-05-03T12:31:53.515Z</time></trkpt><trkpt lat="44.2991472" lon="10.7506512"><ele>565.0</ele><time>2026-05-03T12:31:54.52Z</time></trkpt><trkpt lat="44.2991153" lon="10.7508106"><ele>565.0</ele><time>2026-05-03T12:31:55.518Z</time></trkpt><trkpt lat="44.2990754" lon="10.7509659"><ele>565.0</ele><time>2026-05-03T12:31:56.519Z</time></trkpt><trkpt lat="44.2990224" lon="10.751114"><ele>563.4</ele><time>2026-05-03T12:31:57.515Z</time></trkpt><trkpt lat="44.2989597" lon="10.7512389"><ele>561.8</ele><time>2026-05-03T12:31:58.514Z</time></trkpt><trkpt lat="44.298888" lon="10.7513426"><ele>560.2</ele><time>2026-05-03T12:31:59.514Z</time></trkpt><trkpt lat="44.2988266" lon="10.7514407"><ele>558.6</ele><time>2026-05-03T12:32:00.515Z</time></trkpt><trkpt lat="44.298789" lon="10.7515455"><ele>557.0</ele><time>2026-05-03T12:32:01.523Z</time></trkpt><trkpt lat="44.2987942" lon="10.7516626"><ele>555.6</ele><time>2026-05-03T12:32:02.519Z</time></trkpt><trkpt lat="44.2988423" lon="10.7517802"><ele>554.2</ele><time>2026-05-03T12:32:03.522Z</time></trkpt><trkpt lat="44.2989174" lon="10.7519126"><ele>552.8</ele><time>2026-05-03T12:32:04.523Z</time></trkpt><trkpt lat="44.2989843" lon="10.7520456"><ele>551.4</ele><time>2026-05-03T12:32:05.523Z</time></trkpt><trkpt lat="44.2990277" lon="10.7521845"><ele>550.0</ele><time>2026-05-03T12:32:06.524Z</time></trkpt><trkpt lat="44.299026" lon="10.7523392"><ele>550.0</ele><time>2026-05-03T12:32:07.524Z</time></trkpt><trkpt lat="44.2989892" lon="10.7525133"><ele>550.0</ele><time>2026-05-03T12:32:08.519Z</time></trkpt><trkpt lat="44.2989433" lon="10.7526915"><ele>550.0</ele><time>2026-05-03T12:32:09.516Z</time></trkpt><trkpt lat="44.2988994" lon="10.7528587"><ele>550.0</ele><time>2026-05-03T12:32:10.518Z</time></trkpt><trkpt lat="44.2988597" lon="10.7530147"><ele>547.8</ele><time>2026-05-03T12:32:11.513Z</time></trkpt><trkpt lat="44.2988321" lon="10.7531566"><ele>545.6</ele><time>2026-05-03T12:32:12.518Z</time></trkpt><trkpt lat="44.2988222" lon="10.7532888"><ele>543.4</ele><time>2026-05-03T12:32:13.511Z</time></trkpt><trkpt lat="44.2988386" lon="10.7534167"><ele>541.2</ele><time>2026-05-03T12:32:14.517Z</time></trkpt><trkpt lat="44.2988932" lon="10.7535288"><ele>539.0</ele><time>2026-05-03T12:32:15.524Z</time></trkpt><trkpt lat="44.2989848" lon="10.7536236"><ele>538.8</ele><time>2026-05-03T12:32:16.516Z</time></trkpt><trkpt lat="44.2990867" lon="10.7537219"><ele>538.5999999999999</ele><time>2026-05-03T12:32:17.514Z</time></trkpt><trkpt lat="44.2991769" lon="10.7538302"><ele>538.4</ele><time>2026-05-03T12:32:18.511Z</time></trkpt><trkpt lat="44.2992406" lon="10.7539396"><ele>538.1999999999999</ele><time>2026-05-03T12:32:19.521Z</time></trkpt><trkpt lat="44.2992656" lon="10.7540652"><ele>538.0</ele><time>2026-05-03T12:32:20.516Z</time></trkpt><trkpt lat="44.2992441" lon="10.754213"><ele>536.25</ele><time>2026-05-03T12:32:21.522Z</time></trkpt><trkpt lat="44.2991916" lon="10.7543762"><ele>534.5</ele><time>2026-05-03T12:32:22.507Z</time></trkpt><trkpt lat="44.2991197" lon="10.7545307"><ele>532.75</ele><time>2026-05-03T12:32:23.508Z</time></trkpt><trkpt lat="44.2990412" lon="10.7546735"><ele>531.0</ele><time>2026-05-03T12:32:24.506Z</time></trkpt><trkpt lat="44.2989448" lon="10.7548083"><ele>529.25</ele><time>2026-05-03T12:32:25.518Z</time></trkpt><trkpt lat="44.2988399" lon="10.7549252"><ele>527.5</ele><time>2026-05-03T12:32:26.51Z</time></trkpt><trkpt lat="44.2987193" lon="10.755014"><ele>525.75</ele><time>2026-05-03T12:32:27.511Z</time></trkpt><trkpt lat="44.2985928" lon="10.7550823"><ele>524.0</ele><time>2026-05-03T12:32:28.508Z</time></trkpt><trkpt lat="44.2984919" lon="10.7551598"><ele>522.5</ele><time>2026-05-03T12:32:29.507Z</time></trkpt><trkpt lat="44.2983993" lon="10.7552561"><ele>521.0</ele><time>2026-05-03T12:32:30.515Z</time></trkpt><trkpt lat="44.298321" lon="10.7553683"><ele>519.5</ele><time>2026-05-03T12:32:31.508Z</time></trkpt><trkpt lat="44.2982503" lon="10.7554993"><ele>518.0</ele><time>2026-05-03T12:32:32.518Z</time></trkpt><trkpt lat="44.2981782" lon="10.7556442"><ele>518.0</ele><time>2026-05-03T12:32:33.516Z</time></trkpt><trkpt lat="44.2981076" lon="10.7557889"><ele>518.0</ele><time>2026-05-03T12:32:34.515Z</time></trkpt><trkpt lat="44.2980366" lon="10.7559253"><ele>518.0</ele><time>2026-05-03T12:32:35.512Z</time></trkpt><trkpt lat="44.2979723" lon="10.7560444"><ele>518.0</ele><time>2026-05-03T12:32:36.52Z</time></trkpt><trkpt lat="44.2979075" lon="10.7561326"><ele>518.0</ele><time>2026-05-03T12:32:37.516Z</time></trkpt><trkpt lat="44.2978356" lon="10.7561486"><ele>516.5</ele><time>2026-05-03T12:32:38.514Z</time></trkpt><trkpt lat="44.2977614" lon="10.756091"><ele>515.0</ele><time>2026-05-03T12:32:39.514Z</time></trkpt><trkpt lat="44.2976951" lon="10.7559687"><ele>513.5</ele><time>2026-05-03T12:32:40.516Z</time></trkpt><trkpt lat="44.2976321" lon="10.7558026"><ele>512.0</ele><time>2026-05-03T12:32:41.519Z</time></trkpt><trkpt lat="44.2975798" lon="10.7556102"><ele>511.75</ele><time>2026-05-03T12:32:42.514Z</time></trkpt><trkpt lat="44.2975218" lon="10.7554184"><ele>511.5</ele><time>2026-05-03T12:32:43.522Z</time></trkpt><trkpt lat="44.297456" lon="10.7552393"><ele>511.25</ele><time>2026-05-03T12:32:44.52Z</time></trkpt><trkpt lat="44.2973873" lon="10.7550853"><ele>511.0</ele><time>2026-05-03T12:32:45.519Z</time></trkpt><trkpt lat="44.2973194" lon="10.7549681"><ele>507.6</ele><time>2026-05-03T12:32:46.518Z</time></trkpt><trkpt lat="44.2972383" lon="10.7549193"><ele>504.20000000000005</ele><time>2026-05-03T12:32:47.516Z</time></trkpt><trkpt lat="44.2971609" lon="10.7549162"><ele>500.79999999999995</ele><time>2026-05-03T12:32:48.519Z</time></trkpt><trkpt lat="44.2970903" lon="10.7549592"><ele>497.4</ele><time>2026-05-03T12:32:49.52Z</time></trkpt><trkpt lat="44.2970161" lon="10.7550457"><ele>494.0</ele><time>2026-05-03T12:32:50.52Z</time></trkpt><trkpt lat="44.2969533" lon="10.7551781"><ele>495.0</ele><time>2026-05-03T12:32:51.518Z</time></trkpt><trkpt lat="44.2968867" lon="10.7553348"><ele>496.0</ele><time>2026-05-03T12:32:52.517Z</time></trkpt><trkpt lat="44.2968085" lon="10.7554961"><ele>497.0</ele><time>2026-05-03T12:32:53.522Z</time></trkpt><trkpt lat="44.2967268" lon="10.7556411"><ele>498.0</ele><time>2026-05-03T12:32:54.511Z</time></trkpt><trkpt lat="44.2966444" lon="10.7557825"><ele>498.0</ele><time>2026-05-03T12:32:55.516Z</time></trkpt><trkpt lat="44.2965652" lon="10.7559173"><ele>498.0</ele><time>2026-05-03T12:32:56.528Z</time></trkpt><trkpt lat="44.2965018" lon="10.7560582"><ele>498.0</ele><time>2026-05-03T12:32:57.516Z</time></trkpt><trkpt lat="44.2964526" lon="10.7562029"><ele>498.0</ele><time>2026-05-03T12:32:58.514Z</time></trkpt><trkpt lat="44.2964193" lon="10.7563531"><ele>495.6666666666667</ele><time>2026-05-03T12:32:59.518Z</time></trkpt><trkpt lat="44.2963862" lon="10.7564945"><ele>493.33333333333337</ele><time>2026-05-03T12:33:00.519Z</time></trkpt><trkpt lat="44.2963547" lon="10.7566099"><ele>491.0</ele><time>2026-05-03T12:33:01.524Z</time></trkpt><trkpt lat="44.2963243" lon="10.7567021"><ele>488.6666666666667</ele><time>2026-05-03T12:33:02.516Z</time></trkpt><trkpt lat="44.2962779" lon="10.7568187"><ele>486.33333333333337</ele><time>2026-05-03T12:33:04.516Z</time></trkpt><trkpt lat="44.2962151" lon="10.7567732"><ele>484.0</ele><time>2026-05-03T12:33:07.524Z</time></trkpt><trkpt lat="44.2960971" lon="10.7566187"><ele>484.0</ele><time>2026-05-03T12:33:09.511Z</time></trkpt><trkpt lat="44.2960224" lon="10.756503"><ele>484.0</ele><time>2026-05-03T12:33:10.509Z</time></trkpt><trkpt lat="44.2959405" lon="10.7563901"><ele>484.0</ele><time>2026-05-03T12:33:11.511Z</time></trkpt><trkpt lat="44.2958557" lon="10.7562689"><ele>484.0</ele><time>2026-05-03T12:33:12.511Z</time></trkpt><trkpt lat="44.2957796" lon="10.75614"><ele>484.25</ele><time>2026-05-03T12:33:13.516Z</time></trkpt><trkpt lat="44.2957309" lon="10.7559896"><ele>484.5</ele><time>2026-05-03T12:33:14.523Z</time></trkpt><trkpt lat="44.295727" lon="10.7558301"><ele>484.75</ele><time>2026-05-03T12:33:15.52Z</time></trkpt><trkpt lat="44.2957691" lon="10.7556778"><ele>485.0</ele><time>2026-05-03T12:33:16.516Z</time></trkpt><trkpt lat="44.2958332" lon="10.755527"><ele>485.0</ele><time>2026-05-03T12:33:17.517Z</time></trkpt><trkpt lat="44.2959224" lon="10.7553877"><ele>485.0</ele><time>2026-05-03T12:33:18.515Z</time></trkpt><trkpt lat="44.2960302" lon="10.7552577"><ele>485.0</ele><time>2026-05-03T12:33:19.513Z</time></trkpt><trkpt lat="44.2961573" lon="10.7551377"><ele>485.0</ele><time>2026-05-03T12:33:20.518Z</time></trkpt><trkpt lat="44.2962972" lon="10.7550268"><ele>482.0</ele><time>2026-05-03T12:33:21.515Z</time></trkpt><trkpt lat="44.2963886" lon="10.7549111"><ele>479.0</ele><time>2026-05-03T12:33:22.512Z</time></trkpt><trkpt lat="44.2964072" lon="10.754767"><ele>476.0</ele><time>2026-05-03T12:33:23.516Z</time></trkpt><trkpt lat="44.2963872" lon="10.754598"><ele>473.0</ele><time>2026-05-03T12:33:24.51Z</time></trkpt><trkpt lat="44.2963433" lon="10.7544161"><ele>472.0</ele><time>2026-05-03T12:33:25.51Z</time></trkpt><trkpt lat="44.2962886" lon="10.7542305"><ele>471.0</ele><time>2026-05-03T12:33:26.507Z</time></trkpt><trkpt lat="44.2962293" lon="10.7540196"><ele>470.0</ele><time>2026-05-03T12:33:27.511Z</time></trkpt><trkpt lat="44.2961713" lon="10.7538214"><ele>470.0</ele><time>2026-05-03T12:33:28.508Z</time></trkpt><trkpt lat="44.2961186" lon="10.7536232"><ele>470.0</ele><time>2026-05-03T12:33:29.504Z</time></trkpt><trkpt lat="44.2960669" lon="10.7534095"><ele>470.0</ele><time>2026-05-03T12:33:30.508Z</time></trkpt><trkpt lat="44.2960239" lon="10.7532091"><ele>471.25</ele><time>2026-05-03T12:33:31.513Z</time></trkpt><trkpt lat="44.2959813" lon="10.7530191"><ele>472.5</ele><time>2026-05-03T12:33:32.515Z</time></trkpt><trkpt lat="44.2959227" lon="10.7528435"><ele>473.75</ele><time>2026-05-03T12:33:33.516Z</time></trkpt><trkpt lat="44.2958379" lon="10.7527024"><ele>475.0</ele><time>2026-05-03T12:33:34.521Z</time></trkpt><trkpt lat="44.2957242" lon="10.7526016"><ele>472.0</ele><time>2026-05-03T12:33:35.522Z</time></trkpt><trkpt lat="44.2955855" lon="10.7525183"><ele>469.0</ele><time>2026-05-03T12:33:36.514Z</time></trkpt><trkpt lat="44.2954547" lon="10.7524662"><ele>466.0</ele><time>2026-05-03T12:33:37.517Z</time></trkpt><trkpt lat="44.2953393" lon="10.7524144"><ele>463.0</ele><time>2026-05-03T12:33:38.532Z</time></trkpt><trkpt lat="44.2952348" lon="10.7523362"><ele>463.0</ele><time>2026-05-03T12:33:39.518Z</time></trkpt><trkpt lat="44.2951361" lon="10.7522283"><ele>463.0</ele><time>2026-05-03T12:33:40.522Z</time></trkpt><trkpt lat="44.2950464" lon="10.7520911"><ele>463.0</ele><time>2026-05-03T12:33:41.521Z</time></trkpt><trkpt lat="44.2949671" lon="10.7519148"><ele>463.0</ele><time>2026-05-03T12:33:42.52Z</time></trkpt><trkpt lat="44.2949107" lon="10.7516912"><ele>461.33333333333337</ele><time>2026-05-03T12:33:43.517Z</time></trkpt><trkpt lat="44.2948375" lon="10.7514802"><ele>459.66666666666663</ele><time>2026-05-03T12:33:44.52Z</time></trkpt><trkpt lat="44.2947616" lon="10.7512734"><ele>458.0</ele><time>2026-05-03T12:33:45.516Z</time></trkpt><trkpt lat="44.2946875" lon="10.7510807"><ele>458.4</ele><time>2026-05-03T12:33:46.513Z</time></trkpt><trkpt lat="44.2946262" lon="10.7509063"><ele>458.79999999999995</ele><time>2026-05-03T12:33:47.515Z</time></trkpt><trkpt lat="44.2945691" lon="10.7507606"><ele>459.2</ele><time>2026-05-03T12:33:48.518Z</time></trkpt><trkpt lat="44.2945252" lon="10.750655"><ele>459.6</ele><time>2026-05-03T12:33:49.513Z</time></trkpt><trkpt lat="44.2944588" lon="10.7505909"><ele>460.0</ele><time>2026-05-03T12:33:50.516Z</time></trkpt><trkpt lat="44.2943849" lon="10.7505815"><ele>460.0</ele><time>2026-05-03T12:33:51.516Z</time></trkpt><trkpt lat="44.2943156" lon="10.7506243"><ele>460.0</ele><time>2026-05-03T12:33:52.514Z</time></trkpt><trkpt lat="44.2942582" lon="10.750722"><ele>460.0</ele><time>2026-05-03T12:33:53.52Z</time></trkpt><trkpt lat="44.2942244" lon="10.7508453"><ele>460.0</ele><time>2026-05-03T12:33:54.515Z</time></trkpt><trkpt lat="44.2942186" lon="10.7509859"><ele>460.0</ele><time>2026-05-03T12:33:55.517Z</time></trkpt><trkpt lat="44.2942436" lon="10.7511564"><ele>459.5</ele><time>2026-05-03T12:33:56.509Z</time></trkpt><trkpt lat="44.2942718" lon="10.751326"><ele>459.0</ele><time>2026-05-03T12:33:57.506Z</time></trkpt><trkpt lat="44.2942715" lon="10.7514751"><ele>458.5</ele><time>2026-05-03T12:33:58.52Z</time></trkpt><trkpt lat="44.2942319" lon="10.7516047"><ele>458.0</ele><time>2026-05-03T12:33:59.512Z</time></trkpt><trkpt lat="44.2941294" lon="10.7516904"><ele>458.0</ele><time>2026-05-03T12:34:00.502Z</time></trkpt><trkpt lat="44.2940007" lon="10.7517834"><ele>458.0</ele><time>2026-05-03T12:34:01.509Z</time></trkpt><trkpt lat="44.2938647" lon="10.7518866"><ele>458.0</ele><time>2026-05-03T12:34:02.508Z</time></trkpt><trkpt lat="44.293719" lon="10.7519918"><ele>461.0</ele><time>2026-05-03T12:34:03.523Z</time></trkpt><trkpt lat="44.2935843" lon="10.7520932"><ele>464.0</ele><time>2026-05-03T12:34:04.515Z</time></trkpt><trkpt lat="44.2934609" lon="10.7521527"><ele>467.0</ele><time>2026-05-03T12:34:05.515Z</time></trkpt><trkpt lat="44.2933497" lon="10.752179"><ele>470.0</ele><time>2026-05-03T12:34:06.511Z</time></trkpt><trkpt lat="44.2932348" lon="10.752163"><ele>470.0</ele><time>2026-05-03T12:34:07.508Z</time></trkpt><trkpt lat="44.29312" lon="10.7521094"><ele>470.0</ele><time>2026-05-03T12:34:08.51Z</time></trkpt><trkpt lat="44.2929964" lon="10.7520398"><ele>470.0</ele><time>2026-05-03T12:34:09.506Z</time></trkpt><trkpt lat="44.2928619" lon="10.7519628"><ele>470.0</ele><time>2026-05-03T12:34:10.503Z</time></trkpt><trkpt lat="44.2927154" lon="10.7518783"><ele>473.3333333333333</ele><time>2026-05-03T12:34:11.508Z</time></trkpt><trkpt lat="44.2925691" lon="10.7517909"><ele>476.66666666666663</ele><time>2026-05-03T12:34:12.509Z</time></trkpt><trkpt lat="44.2924276" lon="10.7517019"><ele>480.0</ele><time>2026-05-03T12:34:13.502Z</time></trkpt><trkpt lat="44.2923113" lon="10.7515856"><ele>484.66666666666663</ele><time>2026-05-03T12:34:14.506Z</time></trkpt><trkpt lat="44.2922102" lon="10.7514133"><ele>489.3333333333333</ele><time>2026-05-03T12:34:15.509Z</time></trkpt><trkpt lat="44.2921397" lon="10.7512096"><ele>494.0</ele><time>2026-05-03T12:34:16.503Z</time></trkpt><trkpt lat="44.2920554" lon="10.7510223"><ele>494.0</ele><time>2026-05-03T12:34:17.507Z</time></trkpt><trkpt lat="44.2919608" lon="10.7508569"><ele>494.0</ele><time>2026-05-03T12:34:18.509Z</time></trkpt><trkpt lat="44.2918551" lon="10.7506812"><ele>494.0</ele><time>2026-05-03T12:34:19.511Z</time></trkpt><trkpt lat="44.2917582" lon="10.7505037"><ele>494.0</ele><time>2026-05-03T12:34:20.507Z</time></trkpt><trkpt lat="44.2916802" lon="10.7503323"><ele>494.0</ele><time>2026-05-03T12:34:21.505Z</time></trkpt><trkpt lat="44.2916055" lon="10.7501388"><ele>494.0</ele><time>2026-05-03T12:34:22.508Z</time></trkpt><trkpt lat="44.2915512" lon="10.7499394"><ele>492.66666666666663</ele><time>2026-05-03T12:34:23.513Z</time></trkpt><trkpt lat="44.2914951" lon="10.7497367"><ele>491.33333333333337</ele><time>2026-05-03T12:34:24.513Z</time></trkpt><trkpt lat="44.2914474" lon="10.7495271"><ele>490.0</ele><time>2026-05-03T12:34:25.516Z</time></trkpt><trkpt lat="44.291421" lon="10.7493062"><ele>490.25</ele><time>2026-05-03T12:34:26.511Z</time></trkpt><trkpt lat="44.2914209" lon="10.7491271"><ele>490.5</ele><time>2026-05-03T12:34:27.513Z</time></trkpt><trkpt lat="44.2914317" lon="10.7489491"><ele>490.75</ele><time>2026-05-03T12:34:28.516Z</time></trkpt><trkpt lat="44.291406" lon="10.7487697"><ele>491.0</ele><time>2026-05-03T12:34:29.523Z</time></trkpt><trkpt lat="44.2913417" lon="10.7486097"><ele>496.5</ele><time>2026-05-03T12:34:30.512Z</time></trkpt><trkpt lat="44.2912419" lon="10.7484556"><ele>502.0</ele><time>2026-05-03T12:34:31.518Z</time></trkpt><trkpt lat="44.2911706" lon="10.7483073"><ele>507.5</ele><time>2026-05-03T12:34:32.511Z</time></trkpt><trkpt lat="44.2911296" lon="10.7481489"><ele>513.0</ele><time>2026-05-03T12:34:33.518Z</time></trkpt><trkpt lat="44.2911327" lon="10.747968"><ele>513.0</ele><time>2026-05-03T12:34:34.51Z</time></trkpt><trkpt lat="44.2911449" lon="10.7477932"><ele>513.0</ele><time>2026-05-03T12:34:35.515Z</time></trkpt><trkpt lat="44.2911617" lon="10.7476309"><ele>513.0</ele><time>2026-05-03T12:34:36.519Z</time></trkpt><trkpt lat="44.2911519" lon="10.7474751"><ele>513.0</ele><time>2026-05-03T12:34:37.517Z</time></trkpt><trkpt lat="44.291096" lon="10.7473222"><ele>513.0</ele><time>2026-05-03T12:34:38.514Z</time></trkpt><trkpt lat="44.2910071" lon="10.7471761"><ele>513.0</ele><time>2026-05-03T12:34:39.515Z</time></trkpt><trkpt lat="44.2908939" lon="10.7470174"><ele>513.0</ele><time>2026-05-03T12:34:40.509Z</time></trkpt><trkpt lat="44.2907693" lon="10.7468479"><ele>513.0</ele><time>2026-05-03T12:34:41.519Z</time></trkpt><trkpt lat="44.290643" lon="10.7466749"><ele>513.0</ele><time>2026-05-03T12:34:42.513Z</time></trkpt><trkpt lat="44.2905266" lon="10.7465154"><ele>513.0</ele><time>2026-05-03T12:34:43.515Z</time></trkpt><trkpt lat="44.2904139" lon="10.7463888"><ele>514.1999999999999</ele><time>2026-05-03T12:34:44.521Z</time></trkpt><trkpt lat="44.2903115" lon="10.746329"><ele>515.4</ele><time>2026-05-03T12:34:45.52Z</time></trkpt><trkpt lat="44.2902063" lon="10.7463325"><ele>516.5999999999999</ele><time>2026-05-03T12:34:46.52Z</time></trkpt><trkpt lat="44.2901073" lon="10.746387"><ele>517.8</ele><time>2026-05-03T12:34:47.522Z</time></trkpt><trkpt lat="44.2900099" lon="10.7465003"><ele>519.0</ele><time>2026-05-03T12:34:48.521Z</time></trkpt><trkpt lat="44.2899142" lon="10.7466349"><ele>519.0</ele><time>2026-05-03T12:34:49.52Z</time></trkpt><trkpt lat="44.289809" lon="10.7467909"><ele>519.0</ele><time>2026-05-03T12:34:50.52Z</time></trkpt><trkpt lat="44.2896967" lon="10.7469494"><ele>519.0</ele><time>2026-05-03T12:34:51.522Z</time></trkpt><trkpt lat="44.2895896" lon="10.7471013"><ele>523.3333333333334</ele><time>2026-05-03T12:34:52.517Z</time></trkpt><trkpt lat="44.2894669" lon="10.7472259"><ele>527.6666666666667</ele><time>2026-05-03T12:34:53.53Z</time></trkpt><trkpt lat="44.2893314" lon="10.7472866"><ele>532.0</ele><time>2026-05-03T12:34:54.523Z</time></trkpt><trkpt lat="44.2891754" lon="10.7472854"><ele>532.0</ele><time>2026-05-03T12:34:55.51Z</time></trkpt><trkpt lat="44.28901" lon="10.7472466"><ele>532.0</ele><time>2026-05-03T12:34:56.51Z</time></trkpt><trkpt lat="44.2888414" lon="10.7471981"><ele>532.0</ele><time>2026-05-03T12:34:57.508Z</time></trkpt><trkpt lat="44.2886636" lon="10.7471775"><ele>534.6666666666667</ele><time>2026-05-03T12:34:58.514Z</time></trkpt><trkpt lat="44.2884961" lon="10.7471717"><ele>537.3333333333334</ele><time>2026-05-03T12:34:59.514Z</time></trkpt><trkpt lat="44.2883436" lon="10.7471518"><ele>540.0</ele><time>2026-05-03T12:35:00.532Z</time></trkpt><trkpt lat="44.2882047" lon="10.7471025"><ele>540.0</ele><time>2026-05-03T12:35:01.514Z</time></trkpt><trkpt lat="44.2881015" lon="10.746994"><ele>540.0</ele><time>2026-05-03T12:35:02.511Z</time></trkpt><trkpt lat="44.2880137" lon="10.7468637"><ele>540.0</ele><time>2026-05-03T12:35:03.508Z</time></trkpt><trkpt lat="44.2879266" lon="10.7467113"><ele>540.0</ele><time>2026-05-03T12:35:04.517Z</time></trkpt><trkpt lat="44.2878406" lon="10.7465694"><ele>541.0</ele><time>2026-05-03T12:35:05.516Z</time></trkpt><trkpt lat="44.2877293" lon="10.7464406"><ele>542.0</ele><time>2026-05-03T12:35:06.516Z</time></trkpt><trkpt lat="44.2876337" lon="10.7463602"><ele>543.0</ele><time>2026-05-03T12:35:07.51Z</time></trkpt><trkpt lat="44.2875336" lon="10.7463255"><ele>544.0</ele><time>2026-05-03T12:35:08.522Z</time></trkpt><trkpt lat="44.2874334" lon="10.7463465"><ele>544.0</ele><time>2026-05-03T12:35:09.523Z</time></trkpt><trkpt lat="44.2873549" lon="10.7464306"><ele>544.0</ele><time>2026-05-03T12:35:10.525Z</time></trkpt><trkpt lat="44.2873087" lon="10.7465372"><ele>544.0</ele><time>2026-05-03T12:35:11.517Z</time></trkpt><trkpt lat="44.2873086" lon="10.7466408"><ele>544.0</ele><time>2026-05-03T12:35:12.514Z</time></trkpt><trkpt lat="44.2873115" lon="10.7467372"><ele>544.0</ele><time>2026-05-03T12:35:13.514Z</time></trkpt><trkpt lat="44.2872809" lon="10.746816"><ele>544.0</ele><time>2026-05-03T12:35:15.521Z</time></trkpt><trkpt lat="44.2872312" lon="10.7466437"><ele>546.4</ele><time>2026-05-03T12:35:17.51Z</time></trkpt><trkpt lat="44.2872136" lon="10.7465217"><ele>548.8</ele><time>2026-05-03T12:35:18.504Z</time></trkpt><trkpt lat="44.2871816" lon="10.7464044"><ele>551.2</ele><time>2026-05-03T12:35:19.513Z</time></trkpt><trkpt lat="44.2871279" lon="10.7462935"><ele>553.6</ele><time>2026-05-03T12:35:20.513Z</time></trkpt><trkpt lat="44.2870561" lon="10.7462031"><ele>556.0</ele><time>2026-05-03T12:35:21.525Z</time></trkpt><trkpt lat="44.2869564" lon="10.7461336"><ele>556.0</ele><time>2026-05-03T12:35:22.516Z</time></trkpt><trkpt lat="44.2868416" lon="10.7460793"><ele>556.0</ele><time>2026-05-03T12:35:23.516Z</time></trkpt><trkpt lat="44.2867225" lon="10.7460472"><ele>556.0</ele><time>2026-05-03T12:35:24.512Z</time></trkpt><trkpt lat="44.2866024" lon="10.7460386"><ele>556.0</ele><time>2026-05-03T12:35:25.517Z</time></trkpt><trkpt lat="44.2864808" lon="10.7460318"><ele>557.0</ele><time>2026-05-03T12:35:26.519Z</time></trkpt><trkpt lat="44.2863712" lon="10.7460122"><ele>558.0</ele><time>2026-05-03T12:35:27.514Z</time></trkpt><trkpt lat="44.2862685" lon="10.745983"><ele>559.0</ele><time>2026-05-03T12:35:28.515Z</time></trkpt><trkpt lat="44.2861759" lon="10.7459385"><ele>560.0</ele><time>2026-05-03T12:35:29.513Z</time></trkpt><trkpt lat="44.2860894" lon="10.7458809"><ele>561.0</ele><time>2026-05-03T12:35:30.523Z</time></trkpt><trkpt lat="44.2860138" lon="10.7458387"><ele>561.0</ele><time>2026-05-03T12:35:31.516Z</time></trkpt><trkpt lat="44.2859481" lon="10.7458104"><ele>561.0</ele><time>2026-05-03T12:35:32.517Z</time></trkpt><trkpt lat="44.2858722" lon="10.7458073"><ele>561.0</ele><time>2026-05-03T12:35:33.511Z</time></trkpt><trkpt lat="44.2857852" lon="10.7458317"><ele>561.0</ele><time>2026-05-03T12:35:34.517Z</time></trkpt><trkpt lat="44.2856891" lon="10.7458794"><ele>561.0</ele><time>2026-05-03T12:35:35.511Z</time></trkpt><trkpt lat="44.2855961" lon="10.7459543"><ele>561.0</ele><time>2026-05-03T12:35:36.513Z</time></trkpt><trkpt lat="44.285518" lon="10.7460351"><ele>563.3333333333334</ele><time>2026-05-03T12:35:37.512Z</time></trkpt><trkpt lat="44.2854619" lon="10.7461158"><ele>565.6666666666666</ele><time>2026-05-03T12:35:38.509Z</time></trkpt><trkpt lat="44.2854163" lon="10.7461775"><ele>568.0</ele><time>2026-05-03T12:35:39.518Z</time></trkpt><trkpt lat="44.2853362" lon="10.7461912"><ele>570.3333333333333</ele><time>2026-05-03T12:35:41.523Z</time></trkpt><trkpt lat="44.2852739" lon="10.7460551"><ele>572.6666666666666</ele><time>2026-05-03T12:35:43.51Z</time></trkpt><trkpt lat="44.2852381" lon="10.7459423"><ele>575.0</ele><time>2026-05-03T12:35:44.513Z</time></trkpt><trkpt lat="44.2851964" lon="10.7458392"><ele>575.0</ele><time>2026-05-03T12:35:45.511Z</time></trkpt><trkpt lat="44.2851539" lon="10.7457354"><ele>575.0</ele><time>2026-05-03T12:35:46.507Z</time></trkpt><trkpt lat="44.2851029" lon="10.7456416"><ele>575.0</ele><time>2026-05-03T12:35:47.515Z</time></trkpt><trkpt lat="44.2850479" lon="10.7455809"><ele>575.0</ele><time>2026-05-03T12:35:48.519Z</time></trkpt><trkpt lat="44.2849268" lon="10.7456357"><ele>575.0</ele><time>2026-05-03T12:35:50.524Z</time></trkpt><trkpt lat="44.2848669" lon="10.7457256"><ele>575.0</ele><time>2026-05-03T12:35:51.516Z</time></trkpt><trkpt lat="44.2847983" lon="10.7457933"><ele>575.0</ele><time>2026-05-03T12:35:52.519Z</time></trkpt><trkpt lat="44.2847254" lon="10.7458077"><ele>575.0</ele><time>2026-05-03T12:35:53.518Z</time></trkpt><trkpt lat="44.2846598" lon="10.7457701"><ele>575.0</ele><time>2026-05-03T12:35:54.52Z</time></trkpt><trkpt lat="44.2845915" lon="10.7456885"><ele>575.0</ele><time>2026-05-03T12:35:55.518Z</time></trkpt><trkpt lat="44.2845161" lon="10.7456219"><ele>575.0</ele><time>2026-05-03T12:35:56.513Z</time></trkpt><trkpt lat="44.2844372" lon="10.7455758"><ele>577.8333333333333</ele><time>2026-05-03T12:35:57.519Z</time></trkpt><trkpt lat="44.2843654" lon="10.7455757"><ele>580.6666666666666</ele><time>2026-05-03T12:35:58.52Z</time></trkpt><trkpt lat="44.2843097" lon="10.7456298"><ele>583.5</ele><time>2026-05-03T12:35:59.518Z</time></trkpt><trkpt lat="44.2842715" lon="10.7457338"><ele>586.3333333333334</ele><time>2026-05-03T12:36:00.523Z</time></trkpt><trkpt lat="44.2842308" lon="10.7458463"><ele>589.1666666666667</ele><time>2026-05-03T12:36:01.525Z</time></trkpt><trkpt lat="44.2841694" lon="10.7459538"><ele>592.0</ele><time>2026-05-03T12:36:02.522Z</time></trkpt><trkpt lat="44.2840971" lon="10.746048"><ele>592.2</ele><time>2026-05-03T12:36:03.514Z</time></trkpt><trkpt lat="44.2840166" lon="10.7461407"><ele>592.4000000000001</ele><time>2026-05-03T12:36:04.52Z</time></trkpt><trkpt lat="44.2839387" lon="10.7462528"><ele>592.5999999999999</ele><time>2026-05-03T12:36:05.527Z</time></trkpt><trkpt lat="44.283862" lon="10.7463645"><ele>592.8</ele><time>2026-05-03T12:36:06.517Z</time></trkpt><trkpt lat="44.2837984" lon="10.7464374"><ele>593.0</ele><time>2026-05-03T12:36:07.53Z</time></trkpt><trkpt lat="44.2836698" lon="10.7464456"><ele>596.1999999999999</ele><time>2026-05-03T12:36:09.522Z</time></trkpt><trkpt lat="44.2835913" lon="10.7463809"><ele>599.4</ele><time>2026-05-03T12:36:10.522Z</time></trkpt><trkpt lat="44.2835056" lon="10.7462962"><ele>602.5999999999999</ele><time>2026-05-03T12:36:11.516Z</time></trkpt><trkpt lat="44.2834081" lon="10.7462002"><ele>605.8</ele><time>2026-05-03T12:36:12.526Z</time></trkpt><trkpt lat="44.2833008" lon="10.7461258"><ele>609.0</ele><time>2026-05-03T12:36:13.526Z</time></trkpt><trkpt lat="44.2831809" lon="10.7460958"><ele>611.75</ele><time>2026-05-03T12:36:14.525Z</time></trkpt><trkpt lat="44.2830678" lon="10.7461048"><ele>614.5</ele><time>2026-05-03T12:36:15.524Z</time></trkpt><trkpt lat="44.282954" lon="10.7461596"><ele>617.25</ele><time>2026-05-03T12:36:16.539Z</time></trkpt><trkpt lat="44.2828355" lon="10.7462393"><ele>620.0</ele><time>2026-05-03T12:36:17.516Z</time></trkpt><trkpt lat="44.2827313" lon="10.7462894"><ele>620.0</ele><time>2026-05-03T12:36:18.511Z</time></trkpt><trkpt lat="44.28264" lon="10.7463001"><ele>620.0</ele><time>2026-05-03T12:36:19.522Z</time></trkpt><trkpt lat="44.2825632" lon="10.7462721"><ele>620.0</ele><time>2026-05-03T12:36:20.522Z</time></trkpt><trkpt lat="44.2824866" lon="10.7461935"><ele>620.0</ele><time>2026-05-03T12:36:21.522Z</time></trkpt><trkpt lat="44.2824309" lon="10.7460767"><ele>620.0</ele><time>2026-05-03T12:36:22.51Z</time></trkpt><trkpt lat="44.2823836" lon="10.7459689"><ele>619.4</ele><time>2026-05-03T12:36:23.516Z</time></trkpt><trkpt lat="44.2823202" lon="10.7458794"><ele>618.8</ele><time>2026-05-03T12:36:24.516Z</time></trkpt><trkpt lat="44.2822415" lon="10.7458124"><ele>618.2</ele><time>2026-05-03T12:36:25.526Z</time></trkpt><trkpt lat="44.2821426" lon="10.7457984"><ele>617.6</ele><time>2026-05-03T12:36:26.525Z</time></trkpt><trkpt lat="44.2820216" lon="10.7458254"><ele>617.0</ele><time>2026-05-03T12:36:27.517Z</time></trkpt><trkpt lat="44.2818956" lon="10.7458469"><ele>617.0</ele><time>2026-05-03T12:36:28.532Z</time></trkpt><trkpt lat="44.2817731" lon="10.7458494"><ele>617.0</ele><time>2026-05-03T12:36:29.52Z</time></trkpt><trkpt lat="44.2816584" lon="10.7458207"><ele>617.0</ele><time>2026-05-03T12:36:30.531Z</time></trkpt><trkpt lat="44.2815527" lon="10.7457302"><ele>617.0</ele><time>2026-05-03T12:36:31.531Z</time></trkpt><trkpt lat="44.2814554" lon="10.7456083"><ele>617.75</ele><time>2026-05-03T12:36:32.533Z</time></trkpt><trkpt lat="44.281358" lon="10.7454871"><ele>618.5</ele><time>2026-05-03T12:36:33.523Z</time></trkpt><trkpt lat="44.2812507" lon="10.7453783"><ele>619.25</ele><time>2026-05-03T12:36:34.523Z</time></trkpt><trkpt lat="44.2811442" lon="10.7452757"><ele>620.0</ele><time>2026-05-03T12:36:35.524Z</time></trkpt><trkpt lat="44.2810486" lon="10.7451847"><ele>620.0</ele><time>2026-05-03T12:36:36.523Z</time></trkpt><trkpt lat="44.2809613" lon="10.7451186"><ele>620.0</ele><time>2026-05-03T12:36:37.532Z</time></trkpt><trkpt lat="44.2808653" lon="10.7450548"><ele>620.0</ele><time>2026-05-03T12:36:39.516Z</time></trkpt><trkpt lat="44.2808103" lon="10.7450029"><ele>620.0</ele><time>2026-05-03T12:36:40.519Z</time></trkpt><trkpt lat="44.2807446" lon="10.7449102"><ele>620.0</ele><time>2026-05-03T12:36:41.524Z</time></trkpt><trkpt lat="44.2806699" lon="10.7447909"><ele>621.0</ele><time>2026-05-03T12:36:42.518Z</time></trkpt><trkpt lat="44.2805855" lon="10.7446798"><ele>622.0</ele><time>2026-05-03T12:36:43.529Z</time></trkpt><trkpt lat="44.2805144" lon="10.7445748"><ele>623.0</ele><time>2026-05-03T12:36:44.524Z</time></trkpt><trkpt lat="44.2804759" lon="10.7444719"><ele>624.0</ele><time>2026-05-03T12:36:45.523Z</time></trkpt><trkpt lat="44.2804779" lon="10.7443582"><ele>625.0</ele><time>2026-05-03T12:36:46.526Z</time></trkpt><trkpt lat="44.2804967" lon="10.7442206"><ele>625.0</ele><time>2026-05-03T12:36:47.524Z</time></trkpt><trkpt lat="44.2805094" lon="10.7440729"><ele>625.0</ele><time>2026-05-03T12:36:48.52Z</time></trkpt><trkpt lat="44.2804938" lon="10.7439306"><ele>625.0</ele><time>2026-05-03T12:36:49.521Z</time></trkpt><trkpt lat="44.2804597" lon="10.7437948"><ele>625.0</ele><time>2026-05-03T12:36:50.511Z</time></trkpt><trkpt lat="44.2804079" lon="10.7436593"><ele>625.0</ele><time>2026-05-03T12:36:51.524Z</time></trkpt><trkpt lat="44.2803526" lon="10.7435188"><ele>624.8</ele><time>2026-05-03T12:36:52.524Z</time></trkpt><trkpt lat="44.2802988" lon="10.7433792"><ele>624.6</ele><time>2026-05-03T12:36:53.527Z</time></trkpt><trkpt lat="44.2802555" lon="10.7432455"><ele>624.4</ele><time>2026-05-03T12:36:54.526Z</time></trkpt><trkpt lat="44.2802211" lon="10.7431342"><ele>624.2</ele><time>2026-05-03T12:36:55.522Z</time></trkpt><trkpt lat="44.280186" lon="10.7430575"><ele>624.0</ele><time>2026-05-03T12:36:56.529Z</time></trkpt><trkpt lat="44.2800929" lon="10.7430517"><ele>624.0</ele><time>2026-05-03T12:36:58.526Z</time></trkpt><trkpt lat="44.2800318" lon="10.7431074"><ele>624.0</ele><time>2026-05-03T12:36:59.522Z</time></trkpt><trkpt lat="44.279965" lon="10.7431753"><ele>624.0</ele><time>2026-05-03T12:37:00.522Z</time></trkpt><trkpt lat="44.2798891" lon="10.7432512"><ele>624.0</ele><time>2026-05-03T12:37:01.529Z</time></trkpt><trkpt lat="44.2798077" lon="10.7433309"><ele>624.0</ele><time>2026-05-03T12:37:02.526Z</time></trkpt><trkpt lat="44.2797209" lon="10.7434169"><ele>627.0</ele><time>2026-05-03T12:37:03.534Z</time></trkpt><trkpt lat="44.2796263" lon="10.7435114"><ele>630.0</ele><time>2026-05-03T12:37:04.522Z</time></trkpt><trkpt lat="44.2795311" lon="10.7436127"><ele>633.0</ele><time>2026-05-03T12:37:05.526Z</time></trkpt><trkpt lat="44.2794347" lon="10.7437133"><ele>636.0</ele><time>2026-05-03T12:37:06.523Z</time></trkpt><trkpt lat="44.2793466" lon="10.743817"><ele>637.2</ele><time>2026-05-03T12:37:07.522Z</time></trkpt><trkpt lat="44.2792689" lon="10.7439211"><ele>638.4000000000001</ele><time>2026-05-03T12:37:08.519Z</time></trkpt><trkpt lat="44.2792084" lon="10.7440166"><ele>639.6</ele><time>2026-05-03T12:37:09.518Z</time></trkpt><trkpt lat="44.2791553" lon="10.744081"><ele>640.8000000000001</ele><time>2026-05-03T12:37:10.524Z</time></trkpt><trkpt lat="44.2790335" lon="10.7440918"><ele>642.0</ele><time>2026-05-03T12:37:12.518Z</time></trkpt><trkpt lat="44.278965" lon="10.7440776"><ele>644.2</ele><time>2026-05-03T12:37:13.527Z</time></trkpt><trkpt lat="44.2789025" lon="10.7441158"><ele>646.4000000000001</ele><time>2026-05-03T12:37:14.537Z</time></trkpt><trkpt lat="44.2788466" lon="10.7442029"><ele>648.5999999999999</ele><time>2026-05-03T12:37:15.523Z</time></trkpt><trkpt lat="44.2787825" lon="10.7443084"><ele>650.8</ele><time>2026-05-03T12:37:16.53Z</time></trkpt><trkpt lat="44.2787122" lon="10.7444195"><ele>653.0</ele><time>2026-05-03T12:37:17.526Z</time></trkpt><trkpt lat="44.2786388" lon="10.7445357"><ele>654.4</ele><time>2026-05-03T12:37:18.526Z</time></trkpt><trkpt lat="44.2785656" lon="10.7446443"><ele>655.8</ele><time>2026-05-03T12:37:19.525Z</time></trkpt><trkpt lat="44.2784906" lon="10.7447374"><ele>657.2</ele><time>2026-05-03T12:37:20.532Z</time></trkpt><trkpt lat="44.2784031" lon="10.7447967"><ele>658.6</ele><time>2026-05-03T12:37:21.533Z</time></trkpt><trkpt lat="44.2783051" lon="10.7448356"><ele>660.0</ele><time>2026-05-03T12:37:22.523Z</time></trkpt><trkpt lat="44.2782113" lon="10.7448655"><ele>660.0</ele><time>2026-05-03T12:37:23.531Z</time></trkpt><trkpt lat="44.2781151" lon="10.7448862"><ele>660.0</ele><time>2026-05-03T12:37:24.528Z</time></trkpt><trkpt lat="44.2780263" lon="10.7449367"><ele>660.0</ele><time>2026-05-03T12:37:25.526Z</time></trkpt><trkpt lat="44.2779412" lon="10.7450072"><ele>660.0</ele><time>2026-05-03T12:37:26.519Z</time></trkpt><trkpt lat="44.2778613" lon="10.745091"><ele>660.0</ele><time>2026-05-03T12:37:27.524Z</time></trkpt><trkpt lat="44.2777743" lon="10.7451741"><ele>664.75</ele><time>2026-05-03T12:37:28.523Z</time></trkpt><trkpt lat="44.2776836" lon="10.7452536"><ele>669.5</ele><time>2026-05-03T12:37:29.529Z</time></trkpt><trkpt lat="44.2775867" lon="10.7453373"><ele>674.25</ele><time>2026-05-03T12:37:30.519Z</time></trkpt><trkpt lat="44.2774824" lon="10.7454267"><ele>679.0</ele><time>2026-05-03T12:37:31.523Z</time></trkpt><trkpt lat="44.2773828" lon="10.7455167"><ele>679.0</ele><time>2026-05-03T12:37:32.521Z</time></trkpt><trkpt lat="44.2772876" lon="10.7455767"><ele>679.0</ele><time>2026-05-03T12:37:33.523Z</time></trkpt><trkpt lat="44.2771927" lon="10.7456112"><ele>679.0</ele><time>2026-05-03T12:37:34.527Z</time></trkpt><trkpt lat="44.2770871" lon="10.7456524"><ele>679.0</ele><time>2026-05-03T12:37:35.524Z</time></trkpt><trkpt lat="44.2769774" lon="10.7457104"><ele>679.0</ele><time>2026-05-03T12:37:36.523Z</time></trkpt><trkpt lat="44.2768685" lon="10.7457824"><ele>681.0</ele><time>2026-05-03T12:37:37.52Z</time></trkpt><trkpt lat="44.2767635" lon="10.7458515"><ele>683.0</ele><time>2026-05-03T12:37:38.512Z</time></trkpt><trkpt lat="44.2766702" lon="10.745913"><ele>685.0</ele><time>2026-05-03T12:37:39.528Z</time></trkpt><trkpt lat="44.2766107" lon="10.7459614"><ele>687.0</ele><time>2026-05-03T12:37:40.513Z</time></trkpt><trkpt lat="44.2765361" lon="10.7459739"><ele>689.0</ele><time>2026-05-03T12:37:42.523Z</time></trkpt><trkpt lat="44.2764767" lon="10.7458083"><ele>690.0</ele><time>2026-05-03T12:37:44.526Z</time></trkpt><trkpt lat="44.2764311" lon="10.7456628"><ele>691.0</ele><time>2026-05-03T12:37:45.523Z</time></trkpt><trkpt lat="44.2763879" lon="10.7455092"><ele>692.0</ele><time>2026-05-03T12:37:46.516Z</time></trkpt><trkpt lat="44.276361" lon="10.7453451"><ele>693.0</ele><time>2026-05-03T12:37:47.511Z</time></trkpt><trkpt lat="44.276338" lon="10.7451716"><ele>693.0</ele><time>2026-05-03T12:37:48.524Z</time></trkpt><trkpt lat="44.2763083" lon="10.7449902"><ele>693.0</ele><time>2026-05-03T12:37:49.527Z</time></trkpt><trkpt lat="44.2762744" lon="10.7448075"><ele>693.0</ele><time>2026-05-03T12:37:50.523Z</time></trkpt><trkpt lat="44.2762366" lon="10.7446183"><ele>693.0</ele><time>2026-05-03T12:37:51.524Z</time></trkpt><trkpt lat="44.2761924" lon="10.7444277"><ele>692.5</ele><time>2026-05-03T12:37:52.522Z</time></trkpt><trkpt lat="44.276141" lon="10.7442202"><ele>692.0</ele><time>2026-05-03T12:37:53.52Z</time></trkpt><trkpt lat="44.2760977" lon="10.744032"><ele>691.5</ele><time>2026-05-03T12:37:54.52Z</time></trkpt><trkpt lat="44.2760581" lon="10.743881"><ele>691.0</ele><time>2026-05-03T12:37:55.517Z</time></trkpt><trkpt lat="44.276025" lon="10.7437309"><ele>691.0</ele><time>2026-05-03T12:37:56.515Z</time></trkpt><trkpt lat="44.2760029" lon="10.7435948"><ele>691.0</ele><time>2026-05-03T12:37:57.516Z</time></trkpt><trkpt lat="44.2759954" lon="10.7434904"><ele>691.0</ele><time>2026-05-03T12:37:58.512Z</time></trkpt><trkpt lat="44.2759787" lon="10.7433957"><ele>691.0</ele><time>2026-05-03T12:37:59.519Z</time></trkpt><trkpt lat="44.2759554" lon="10.7432936"><ele>691.0</ele><time>2026-05-03T12:38:00.52Z</time></trkpt><trkpt lat="44.2759247" lon="10.7431866"><ele>691.0</ele><time>2026-05-03T12:38:01.52Z</time></trkpt><trkpt lat="44.2758798" lon="10.7430788"><ele>691.0</ele><time>2026-05-03T12:38:02.518Z</time></trkpt><trkpt lat="44.2758293" lon="10.7429716"><ele>691.0</ele><time>2026-05-03T12:38:03.523Z</time></trkpt><trkpt lat="44.2757793" lon="10.7428577"><ele>691.0</ele><time>2026-05-03T12:38:04.522Z</time></trkpt><trkpt lat="44.2757258" lon="10.7427447"><ele>691.0</ele><time>2026-05-03T12:38:05.531Z</time></trkpt><trkpt lat="44.2756739" lon="10.7426284"><ele>691.0</ele><time>2026-05-03T12:38:06.521Z</time></trkpt><trkpt lat="44.2756245" lon="10.7425037"><ele>691.5</ele><time>2026-05-03T12:38:07.529Z</time></trkpt><trkpt lat="44.2755835" lon="10.7423828"><ele>692.0</ele><time>2026-05-03T12:38:08.519Z</time></trkpt><trkpt lat="44.2755403" lon="10.7422714"><ele>692.5</ele><time>2026-05-03T12:38:09.523Z</time></trkpt><trkpt lat="44.2754911" lon="10.7421886"><ele>693.0</ele><time>2026-05-03T12:38:10.518Z</time></trkpt><trkpt lat="44.275433" lon="10.7421179"><ele>693.5</ele><time>2026-05-03T12:38:11.519Z</time></trkpt><trkpt lat="44.2753633" lon="10.7420636"><ele>694.0</ele><time>2026-05-03T12:38:12.521Z</time></trkpt><trkpt lat="44.2752885" lon="10.742018"><ele>694.0</ele><time>2026-05-03T12:38:13.523Z</time></trkpt><trkpt lat="44.2752284" lon="10.7419542"><ele>694.0</ele><time>2026-05-03T12:38:14.521Z</time></trkpt><trkpt lat="44.275169" lon="10.7418662"><ele>694.0</ele><time>2026-05-03T12:38:15.515Z</time></trkpt><trkpt lat="44.2751152" lon="10.7417573"><ele>694.0</ele><time>2026-05-03T12:38:16.532Z</time></trkpt><trkpt lat="44.2750534" lon="10.7416504"><ele>694.0</ele><time>2026-05-03T12:38:17.517Z</time></trkpt><trkpt lat="44.2749788" lon="10.7415422"><ele>694.2</ele><time>2026-05-03T12:38:18.514Z</time></trkpt><trkpt lat="44.2748949" lon="10.7414377"><ele>694.4000000000001</ele><time>2026-05-03T12:38:19.517Z</time></trkpt><trkpt lat="44.2748099" lon="10.7413472"><ele>694.6</ele><time>2026-05-03T12:38:20.517Z</time></trkpt><trkpt lat="44.2747321" lon="10.7412742"><ele>694.8</ele><time>2026-05-03T12:38:21.512Z</time></trkpt><trkpt lat="44.2746678" lon="10.7412241"><ele>695.0</ele><time>2026-05-03T12:38:22.511Z</time></trkpt><trkpt lat="44.2746033" lon="10.7411739"><ele>695.0</ele><time>2026-05-03T12:38:23.516Z</time></trkpt><trkpt lat="44.2745306" lon="10.7411285"><ele>695.0</ele><time>2026-05-03T12:38:24.516Z</time></trkpt><trkpt lat="44.2744404" lon="10.7410802"><ele>695.0</ele><time>2026-05-03T12:38:25.517Z</time></trkpt><trkpt lat="44.2743396" lon="10.7410312"><ele>695.0</ele><time>2026-05-03T12:38:26.522Z</time></trkpt><trkpt lat="44.2742408" lon="10.7409716"><ele>695.0</ele><time>2026-05-03T12:38:27.522Z</time></trkpt><trkpt lat="44.2741382" lon="10.7408951"><ele>693.8</ele><time>2026-05-03T12:38:28.524Z</time></trkpt><trkpt lat="44.2740392" lon="10.7408073"><ele>692.6</ele><time>2026-05-03T12:38:29.523Z</time></trkpt><trkpt lat="44.2739423" lon="10.7407091"><ele>691.4000000000001</ele><time>2026-05-03T12:38:30.517Z</time></trkpt><trkpt lat="44.2738577" lon="10.740618"><ele>690.2</ele><time>2026-05-03T12:38:31.517Z</time></trkpt><trkpt lat="44.2737825" lon="10.7405299"><ele>689.0</ele><time>2026-05-03T12:38:32.515Z</time></trkpt><trkpt lat="44.2737139" lon="10.7404499"><ele>689.0</ele><time>2026-05-03T12:38:33.515Z</time></trkpt><trkpt lat="44.2736559" lon="10.7403793"><ele>689.0</ele><time>2026-05-03T12:38:34.522Z</time></trkpt><trkpt lat="44.2735909" lon="10.7403218"><ele>689.0</ele><time>2026-05-03T12:38:35.518Z</time></trkpt><trkpt lat="44.2735219" lon="10.7402908"><ele>689.0</ele><time>2026-05-03T12:38:36.535Z</time></trkpt><trkpt lat="44.2734458" lon="10.7403045"><ele>689.0</ele><time>2026-05-03T12:38:37.517Z</time></trkpt><trkpt lat="44.2733611" lon="10.7403194"><ele>689.0</ele><time>2026-05-03T12:38:38.519Z</time></trkpt><trkpt lat="44.273271" lon="10.7403401"><ele>689.0</ele><time>2026-05-03T12:38:39.521Z</time></trkpt><trkpt lat="44.2731807" lon="10.7403393"><ele>689.0</ele><time>2026-05-03T12:38:40.515Z</time></trkpt><trkpt lat="44.2730961" lon="10.7403147"><ele>689.0</ele><time>2026-05-03T12:38:41.512Z</time></trkpt><trkpt lat="44.2730152" lon="10.7402675"><ele>689.0</ele><time>2026-05-03T12:38:42.52Z</time></trkpt><trkpt lat="44.2729462" lon="10.740182"><ele>689.0</ele><time>2026-05-03T12:38:43.516Z</time></trkpt><trkpt lat="44.2728832" lon="10.7400649"><ele>689.0</ele><time>2026-05-03T12:38:44.521Z</time></trkpt><trkpt lat="44.2728203" lon="10.7399457"><ele>689.0</ele><time>2026-05-03T12:38:45.517Z</time></trkpt><trkpt lat="44.2727623" lon="10.739848"><ele>689.0</ele><time>2026-05-03T12:38:46.522Z</time></trkpt><trkpt lat="44.2726945" lon="10.7397657"><ele>689.0</ele><time>2026-05-03T12:38:47.519Z</time></trkpt><trkpt lat="44.2726238" lon="10.7396876"><ele>689.0</ele><time>2026-05-03T12:38:48.512Z</time></trkpt><trkpt lat="44.2725775" lon="10.7395966"><ele>689.0</ele><time>2026-05-03T12:38:49.524Z</time></trkpt><trkpt lat="44.2725666" lon="10.7394934"><ele>689.0</ele><time>2026-05-03T12:38:50.52Z</time></trkpt><trkpt lat="44.2725873" lon="10.7393758"><ele>689.0</ele><time>2026-05-03T12:38:51.506Z</time></trkpt><trkpt lat="44.2726089" lon="10.7392617"><ele>689.0</ele><time>2026-05-03T12:38:52.518Z</time></trkpt><trkpt lat="44.2726103" lon="10.7391681"><ele>689.0</ele><time>2026-05-03T12:38:53.514Z</time></trkpt><trkpt lat="44.272559" lon="10.7390087"><ele>689.0</ele><time>2026-05-03T12:38:55.529Z</time></trkpt><trkpt lat="44.2724857" lon="10.7389458"><ele>687.5</ele><time>2026-05-03T12:38:56.518Z</time></trkpt><trkpt lat="44.2723978" lon="10.7388941"><ele>686.0</ele><time>2026-05-03T12:38:57.52Z</time></trkpt><trkpt lat="44.2723209" lon="10.7388622"><ele>684.5</ele><time>2026-05-03T12:38:58.52Z</time></trkpt><trkpt lat="44.2722462" lon="10.7388539"><ele>683.0</ele><time>2026-05-03T12:38:59.532Z</time></trkpt><trkpt lat="44.2721688" lon="10.7388816"><ele>681.5</ele><time>2026-05-03T12:39:00.52Z</time></trkpt><trkpt lat="44.2720919" lon="10.738936"><ele>680.0</ele><time>2026-05-03T12:39:01.507Z</time></trkpt><trkpt lat="44.2720161" lon="10.7389928"><ele>680.0</ele><time>2026-05-03T12:39:02.504Z</time></trkpt><trkpt lat="44.2719373" lon="10.7390366"><ele>680.0</ele><time>2026-05-03T12:39:03.496Z</time></trkpt><trkpt lat="44.2718685" lon="10.739046"><ele>680.0</ele><time>2026-05-03T12:39:04.498Z</time></trkpt><trkpt lat="44.2718083" lon="10.7389975"><ele>680.0</ele><time>2026-05-03T12:39:05.504Z</time></trkpt><trkpt lat="44.2717469" lon="10.7389147"><ele>680.0</ele><time>2026-05-03T12:39:06.506Z</time></trkpt><trkpt lat="44.2716874" lon="10.7387985"><ele>680.0</ele><time>2026-05-03T12:39:07.514Z</time></trkpt><trkpt lat="44.2716066" lon="10.7386894"><ele>680.0</ele><time>2026-05-03T12:39:08.505Z</time></trkpt><trkpt lat="44.2715209" lon="10.7385878"><ele>680.0</ele><time>2026-05-03T12:39:09.505Z</time></trkpt><trkpt lat="44.2714406" lon="10.7384857"><ele>680.0</ele><time>2026-05-03T12:39:10.504Z</time></trkpt><trkpt lat="44.2713658" lon="10.7383666"><ele>680.0</ele><time>2026-05-03T12:39:11.511Z</time></trkpt><trkpt lat="44.2713023" lon="10.73822"><ele>680.0</ele><time>2026-05-03T12:39:12.507Z</time></trkpt><trkpt lat="44.2712412" lon="10.7380846"><ele>680.0</ele><time>2026-05-03T12:39:13.502Z</time></trkpt><trkpt lat="44.2711916" lon="10.7379694"><ele>680.0</ele><time>2026-05-03T12:39:14.499Z</time></trkpt><trkpt lat="44.2711352" lon="10.7378405"><ele>680.0</ele><time>2026-05-03T12:39:15.507Z</time></trkpt><trkpt lat="44.2710885" lon="10.7376865"><ele>680.0</ele><time>2026-05-03T12:39:16.504Z</time></trkpt><trkpt lat="44.2710546" lon="10.737513"><ele>680.0</ele><time>2026-05-03T12:39:17.507Z</time></trkpt><trkpt lat="44.2710179" lon="10.7373479"><ele>680.0</ele><time>2026-05-03T12:39:18.507Z</time></trkpt><trkpt lat="44.2709908" lon="10.7371885"><ele>680.0</ele><time>2026-05-03T12:39:19.51Z</time></trkpt><trkpt lat="44.270979" lon="10.7370381"><ele>680.0</ele><time>2026-05-03T12:39:20.512Z</time></trkpt><trkpt lat="44.2709715" lon="10.7368966"><ele>678.3333333333333</ele><time>2026-05-03T12:39:21.509Z</time></trkpt><trkpt lat="44.2709629" lon="10.7367868"><ele>676.6666666666666</ele><time>2026-05-03T12:39:22.515Z</time></trkpt><trkpt lat="44.2709496" lon="10.7366959"><ele>675.0</ele><time>2026-05-03T12:39:23.517Z</time></trkpt><trkpt lat="44.2709209" lon="10.736611"><ele>673.3333333333334</ele><time>2026-05-03T12:39:24.514Z</time></trkpt><trkpt lat="44.2708692" lon="10.7365436"><ele>671.6666666666667</ele><time>2026-05-03T12:39:25.521Z</time></trkpt><trkpt lat="44.2707831" lon="10.7365012"><ele>670.0</ele><time>2026-05-03T12:39:26.517Z</time></trkpt><trkpt lat="44.2706947" lon="10.7364454"><ele>671.6</ele><time>2026-05-03T12:39:27.518Z</time></trkpt><trkpt lat="44.2705922" lon="10.7363762"><ele>673.2</ele><time>2026-05-03T12:39:28.523Z</time></trkpt><trkpt lat="44.2704922" lon="10.7363132"><ele>674.8</ele><time>2026-05-03T12:39:29.522Z</time></trkpt><trkpt lat="44.2704003" lon="10.7362576"><ele>676.4</ele><time>2026-05-03T12:39:30.521Z</time></trkpt><trkpt lat="44.2703098" lon="10.7362"><ele>678.0</ele><time>2026-05-03T12:39:31.521Z</time></trkpt><trkpt lat="44.2702255" lon="10.7361455"><ele>678.0</ele><time>2026-05-03T12:39:32.516Z</time></trkpt><trkpt lat="44.2701426" lon="10.7360989"><ele>678.0</ele><time>2026-05-03T12:39:33.518Z</time></trkpt><trkpt lat="44.2700649" lon="10.736059"><ele>678.0</ele><time>2026-05-03T12:39:34.518Z</time></trkpt><trkpt lat="44.269985" lon="10.736017"><ele>678.0</ele><time>2026-05-03T12:39:35.52Z</time></trkpt><trkpt lat="44.2699063" lon="10.7359892"><ele>678.0</ele><time>2026-05-03T12:39:36.521Z</time></trkpt><trkpt lat="44.2698285" lon="10.735979"><ele>678.0</ele><time>2026-05-03T12:39:37.515Z</time></trkpt><trkpt lat="44.2697388" lon="10.7359811"><ele>675.0</ele><time>2026-05-03T12:39:38.531Z</time></trkpt><trkpt lat="44.2696411" lon="10.7359905"><ele>672.0</ele><time>2026-05-03T12:39:39.521Z</time></trkpt><trkpt lat="44.2695346" lon="10.7360076"><ele>669.0</ele><time>2026-05-03T12:39:40.523Z</time></trkpt><trkpt lat="44.269423" lon="10.7360266"><ele>666.0</ele><time>2026-05-03T12:39:41.519Z</time></trkpt><trkpt lat="44.2693097" lon="10.7360356"><ele>663.0</ele><time>2026-05-03T12:39:42.517Z</time></trkpt><trkpt lat="44.2691989" lon="10.7360402"><ele>663.0</ele><time>2026-05-03T12:39:43.515Z</time></trkpt><trkpt lat="44.2691005" lon="10.7360438"><ele>663.0</ele><time>2026-05-03T12:39:44.513Z</time></trkpt><trkpt lat="44.2690217" lon="10.7360504"><ele>663.0</ele><time>2026-05-03T12:39:45.508Z</time></trkpt><trkpt lat="44.2688971" lon="10.7360224"><ele>663.0</ele><time>2026-05-03T12:39:47.511Z</time></trkpt><trkpt lat="44.2688299" lon="10.7359703"><ele>663.0</ele><time>2026-05-03T12:39:48.516Z</time></trkpt><trkpt lat="44.268763" lon="10.7358693"><ele>664.0</ele><time>2026-05-03T12:39:49.508Z</time></trkpt><trkpt lat="44.2686752" lon="10.735745"><ele>665.0</ele><time>2026-05-03T12:39:50.504Z</time></trkpt><trkpt lat="44.2685757" lon="10.7356487"><ele>666.0</ele><time>2026-05-03T12:39:51.506Z</time></trkpt><trkpt lat="44.2684715" lon="10.7355627"><ele>667.0</ele><time>2026-05-03T12:39:52.508Z</time></trkpt><trkpt lat="44.2683583" lon="10.7354886"><ele>667.0</ele><time>2026-05-03T12:39:53.503Z</time></trkpt><trkpt lat="44.2682457" lon="10.735422"><ele>667.0</ele><time>2026-05-03T12:39:54.509Z</time></trkpt><trkpt lat="44.2681338" lon="10.7353646"><ele>667.0</ele><time>2026-05-03T12:39:55.515Z</time></trkpt><trkpt lat="44.2680208" lon="10.7353145"><ele>667.0</ele><time>2026-05-03T12:39:56.51Z</time></trkpt><trkpt lat="44.2679135" lon="10.7352804"><ele>666.4000000000001</ele><time>2026-05-03T12:39:57.508Z</time></trkpt><trkpt lat="44.267821" lon="10.735259"><ele>665.8000000000001</ele><time>2026-05-03T12:39:58.51Z</time></trkpt><trkpt lat="44.267731" lon="10.7352375"><ele>665.2</ele><time>2026-05-03T12:39:59.516Z</time></trkpt><trkpt lat="44.2676558" lon="10.7351756"><ele>664.6</ele><time>2026-05-03T12:40:00.512Z</time></trkpt><trkpt lat="44.2676047" lon="10.7350679"><ele>664.0</ele><time>2026-05-03T12:40:01.506Z</time></trkpt><trkpt lat="44.2675574" lon="10.734939"><ele>664.0</ele><time>2026-05-03T12:40:02.511Z</time></trkpt><trkpt lat="44.2674985" lon="10.734807"><ele>664.0</ele><time>2026-05-03T12:40:03.508Z</time></trkpt><trkpt lat="44.2674331" lon="10.7346785"><ele>664.0</ele><time>2026-05-03T12:40:04.518Z</time></trkpt><trkpt lat="44.2673578" lon="10.7345634"><ele>664.0</ele><time>2026-05-03T12:40:05.514Z</time></trkpt><trkpt lat="44.2672891" lon="10.7344415"><ele>664.0</ele><time>2026-05-03T12:40:06.512Z</time></trkpt><trkpt lat="44.2672279" lon="10.7343066"><ele>667.0</ele><time>2026-05-03T12:40:07.517Z</time></trkpt><trkpt lat="44.2671911" lon="10.7341544"><ele>670.0</ele><time>2026-05-03T12:40:08.524Z</time></trkpt><trkpt lat="44.2671637" lon="10.7339971"><ele>673.0</ele><time>2026-05-03T12:40:09.511Z</time></trkpt><trkpt lat="44.2671382" lon="10.7338325"><ele>676.0</ele><time>2026-05-03T12:40:10.513Z</time></trkpt><trkpt lat="44.2671281" lon="10.7336637"><ele>675.25</ele><time>2026-05-03T12:40:11.511Z</time></trkpt><trkpt lat="44.2671271" lon="10.7334894"><ele>674.5</ele><time>2026-05-03T12:40:12.515Z</time></trkpt><trkpt lat="44.2671461" lon="10.7333161"><ele>673.75</ele><time>2026-05-03T12:40:13.514Z</time></trkpt><trkpt lat="44.2671748" lon="10.7331591"><ele>673.0</ele><time>2026-05-03T12:40:14.521Z</time></trkpt><trkpt lat="44.2672092" lon="10.7330221"><ele>673.0</ele><time>2026-05-03T12:40:15.518Z</time></trkpt><trkpt lat="44.2672468" lon="10.7329105"><ele>673.0</ele><time>2026-05-03T12:40:16.519Z</time></trkpt><trkpt lat="44.2672824" lon="10.7328331"><ele>673.0</ele><time>2026-05-03T12:40:17.513Z</time></trkpt><trkpt lat="44.2673216" lon="10.7326996"><ele>673.0</ele><time>2026-05-03T12:40:19.522Z</time></trkpt><trkpt lat="44.267314" lon="10.7326064"><ele>673.0</ele><time>2026-05-03T12:40:20.517Z</time></trkpt><trkpt lat="44.2672928" lon="10.7324837"><ele>673.0</ele><time>2026-05-03T12:40:21.523Z</time></trkpt><trkpt lat="44.2672624" lon="10.7323267"><ele>670.25</ele><time>2026-05-03T12:40:22.511Z</time></trkpt><trkpt lat="44.2672181" lon="10.7321681"><ele>667.5</ele><time>2026-05-03T12:40:23.511Z</time></trkpt><trkpt lat="44.2671702" lon="10.7320226"><ele>664.75</ele><time>2026-05-03T12:40:24.512Z</time></trkpt><trkpt lat="44.2671071" lon="10.7318933"><ele>662.0</ele><time>2026-05-03T12:40:25.515Z</time></trkpt><trkpt lat="44.2670374" lon="10.7317907"><ele>659.0</ele><time>2026-05-03T12:40:26.516Z</time></trkpt><trkpt lat="44.266951" lon="10.7316989"><ele>656.0</ele><time>2026-05-03T12:40:27.516Z</time></trkpt><trkpt lat="44.2668677" lon="10.7316247"><ele>653.0</ele><time>2026-05-03T12:40:28.521Z</time></trkpt><trkpt lat="44.2667763" lon="10.7315643"><ele>650.0</ele><time>2026-05-03T12:40:29.519Z</time></trkpt><trkpt lat="44.2666796" lon="10.7315098"><ele>647.0</ele><time>2026-05-03T12:40:30.519Z</time></trkpt><trkpt lat="44.266571" lon="10.7314598"><ele>647.0</ele><time>2026-05-03T12:40:31.522Z</time></trkpt><trkpt lat="44.266467" lon="10.7314209"><ele>647.0</ele><time>2026-05-03T12:40:32.52Z</time></trkpt><trkpt lat="44.2663668" lon="10.7313867"><ele>647.0</ele><time>2026-05-03T12:40:33.523Z</time></trkpt><trkpt lat="44.2662758" lon="10.731358"><ele>647.0</ele><time>2026-05-03T12:40:34.52Z</time></trkpt><trkpt lat="44.2661732" lon="10.7313435"><ele>647.0</ele><time>2026-05-03T12:40:35.517Z</time></trkpt><trkpt lat="44.2660683" lon="10.7313368"><ele>647.6</ele><time>2026-05-03T12:40:36.522Z</time></trkpt><trkpt lat="44.2659615" lon="10.7313326"><ele>648.2</ele><time>2026-05-03T12:40:37.515Z</time></trkpt><trkpt lat="44.2658601" lon="10.7313163"><ele>648.8</ele><time>2026-05-03T12:40:38.521Z</time></trkpt><trkpt lat="44.265767" lon="10.7312853"><ele>649.4</ele><time>2026-05-03T12:40:39.527Z</time></trkpt><trkpt lat="44.2656745" lon="10.731248"><ele>650.0</ele><time>2026-05-03T12:40:40.523Z</time></trkpt><trkpt lat="44.2655879" lon="10.7312199"><ele>650.3333333333333</ele><time>2026-05-03T12:40:41.521Z</time></trkpt><trkpt lat="44.2654998" lon="10.7312028"><ele>650.6666666666666</ele><time>2026-05-03T12:40:42.522Z</time></trkpt><trkpt lat="44.2654056" lon="10.7311952"><ele>651.0</ele><time>2026-05-03T12:40:43.522Z</time></trkpt><trkpt lat="44.2653249" lon="10.7311838"><ele>651.3333333333334</ele><time>2026-05-03T12:40:44.526Z</time></trkpt><trkpt lat="44.2652492" lon="10.731133"><ele>651.6666666666667</ele><time>2026-05-03T12:40:45.523Z</time></trkpt><trkpt lat="44.2651842" lon="10.7310433"><ele>652.0</ele><time>2026-05-03T12:40:46.516Z</time></trkpt><trkpt lat="44.2651113" lon="10.7309663"><ele>650.8571428571429</ele><time>2026-05-03T12:40:47.513Z</time></trkpt><trkpt lat="44.2650481" lon="10.7309173"><ele>649.7142857142857</ele><time>2026-05-03T12:40:48.515Z</time></trkpt><trkpt lat="44.2649918" lon="10.7308656"><ele>648.5714285714286</ele><time>2026-05-03T12:40:49.511Z</time></trkpt><trkpt lat="44.2649426" lon="10.7308024"><ele>647.4285714285714</ele><time>2026-05-03T12:40:50.512Z</time></trkpt><trkpt lat="44.2649115" lon="10.730722"><ele>646.2857142857142</ele><time>2026-05-03T12:40:51.507Z</time></trkpt><trkpt lat="44.2648838" lon="10.7306303"><ele>645.1428571428571</ele><time>2026-05-03T12:40:52.51Z</time></trkpt><trkpt lat="44.2648523" lon="10.7305382"><ele>644.0</ele><time>2026-05-03T12:40:53.51Z</time></trkpt><trkpt lat="44.264814" lon="10.7304505"><ele>643.6</ele><time>2026-05-03T12:40:54.511Z</time></trkpt><trkpt lat="44.2647652" lon="10.7303653"><ele>643.2</ele><time>2026-05-03T12:40:55.514Z</time></trkpt><trkpt lat="44.2646981" lon="10.730283"><ele>642.8000000000001</ele><time>2026-05-03T12:40:56.512Z</time></trkpt><trkpt lat="44.2646257" lon="10.7301936"><ele>642.4000000000001</ele><time>2026-05-03T12:40:57.515Z</time></trkpt><trkpt lat="44.2645569" lon="10.7300958"><ele>642.0</ele><time>2026-05-03T12:40:58.515Z</time></trkpt><trkpt lat="44.2644909" lon="10.7299953"><ele>642.0</ele><time>2026-05-03T12:40:59.514Z</time></trkpt><trkpt lat="44.2644288" lon="10.7298928"><ele>642.0</ele><time>2026-05-03T12:41:00.513Z</time></trkpt><trkpt lat="44.2643677" lon="10.7297924"><ele>642.0</ele><time>2026-05-03T12:41:01.515Z</time></trkpt><trkpt lat="44.2643119" lon="10.7296961"><ele>642.0</ele><time>2026-05-03T12:41:02.518Z</time></trkpt><trkpt lat="44.2642636" lon="10.7296093"><ele>642.0</ele><time>2026-05-03T12:41:03.511Z</time></trkpt><trkpt lat="44.2642182" lon="10.729529"><ele>642.0</ele><time>2026-05-03T12:41:04.513Z</time></trkpt><trkpt lat="44.2641764" lon="10.7294542"><ele>641.4</ele><time>2026-05-03T12:41:05.515Z</time></trkpt><trkpt lat="44.2641361" lon="10.7293854"><ele>640.8000000000001</ele><time>2026-05-03T12:41:06.516Z</time></trkpt><trkpt lat="44.2640591" lon="10.7292513"><ele>640.2</ele><time>2026-05-03T12:41:08.517Z</time></trkpt><trkpt lat="44.2639739" lon="10.7291082"><ele>639.6</ele><time>2026-05-03T12:41:10.525Z</time></trkpt><trkpt lat="44.26392" lon="10.7290172"><ele>639.0</ele><time>2026-05-03T12:41:11.512Z</time></trkpt><trkpt lat="44.2638614" lon="10.7289201"><ele>639.0</ele><time>2026-05-03T12:41:12.515Z</time></trkpt><trkpt lat="44.2638035" lon="10.7288155"><ele>639.0</ele><time>2026-05-03T12:41:13.515Z</time></trkpt><trkpt lat="44.2637396" lon="10.7287092"><ele>639.0</ele><time>2026-05-03T12:41:14.515Z</time></trkpt><trkpt lat="44.2636675" lon="10.7286095"><ele>639.0</ele><time>2026-05-03T12:41:15.514Z</time></trkpt><trkpt lat="44.2635978" lon="10.7284994"><ele>639.0</ele><time>2026-05-03T12:41:16.518Z</time></trkpt><trkpt lat="44.2635302" lon="10.7283907"><ele>636.8333333333334</ele><time>2026-05-03T12:41:17.516Z</time></trkpt><trkpt lat="44.2634721" lon="10.7282921"><ele>634.6666666666666</ele><time>2026-05-03T12:41:18.513Z</time></trkpt><trkpt lat="44.2634141" lon="10.7281927"><ele>632.5</ele><time>2026-05-03T12:41:19.518Z</time></trkpt><trkpt lat="44.2633553" lon="10.7280983"><ele>630.3333333333333</ele><time>2026-05-03T12:41:20.515Z</time></trkpt><trkpt lat="44.2632965" lon="10.7280079"><ele>628.1666666666666</ele><time>2026-05-03T12:41:21.52Z</time></trkpt><trkpt lat="44.2632486" lon="10.7279117"><ele>626.0</ele><time>2026-05-03T12:41:22.515Z</time></trkpt><trkpt lat="44.2632108" lon="10.7278012"><ele>626.6666666666666</ele><time>2026-05-03T12:41:23.511Z</time></trkpt><trkpt lat="44.2631881" lon="10.7276875"><ele>627.3333333333333</ele><time>2026-05-03T12:41:24.511Z</time></trkpt><trkpt lat="44.2631641" lon="10.7275794"><ele>628.0</ele><time>2026-05-03T12:41:25.516Z</time></trkpt><trkpt lat="44.2631355" lon="10.7274762"><ele>628.6666666666666</ele><time>2026-05-03T12:41:26.516Z</time></trkpt><trkpt lat="44.2631139" lon="10.7273795"><ele>629.3333333333334</ele><time>2026-05-03T12:41:27.517Z</time></trkpt><trkpt lat="44.2631432" lon="10.7272457"><ele>630.0</ele><time>2026-05-03T12:41:29.519Z</time></trkpt><trkpt lat="44.2631996" lon="10.7271985"><ele>627.8333333333334</ele><time>2026-05-03T12:41:30.51Z</time></trkpt><trkpt lat="44.2632614" lon="10.7271722"><ele>625.6666666666666</ele><time>2026-05-03T12:41:31.517Z</time></trkpt><trkpt lat="44.2633327" lon="10.7271521"><ele>623.5</ele><time>2026-05-03T12:41:32.513Z</time></trkpt><trkpt lat="44.2634123" lon="10.7271138"><ele>621.3333333333333</ele><time>2026-05-03T12:41:33.513Z</time></trkpt><trkpt lat="44.26349" lon="10.7270662"><ele>619.1666666666666</ele><time>2026-05-03T12:41:34.514Z</time></trkpt><trkpt lat="44.2635601" lon="10.7269986"><ele>617.0</ele><time>2026-05-03T12:41:35.514Z</time></trkpt><trkpt lat="44.2636302" lon="10.726922"><ele>616.6666666666666</ele><time>2026-05-03T12:41:36.522Z</time></trkpt><trkpt lat="44.2636985" lon="10.7268497"><ele>616.3333333333333</ele><time>2026-05-03T12:41:37.505Z</time></trkpt><trkpt lat="44.2637611" lon="10.726785"><ele>616.0</ele><time>2026-05-03T12:41:38.518Z</time></trkpt><trkpt lat="44.2638122" lon="10.7267198"><ele>615.6666666666666</ele><time>2026-05-03T12:41:39.512Z</time></trkpt><trkpt lat="44.2638587" lon="10.7265502"><ele>615.3333333333334</ele><time>2026-05-03T12:41:41.517Z</time></trkpt><trkpt lat="44.2638753" lon="10.7264402"><ele>615.0</ele><time>2026-05-03T12:41:42.508Z</time></trkpt><trkpt lat="44.2638924" lon="10.7263257"><ele>615.0</ele><time>2026-05-03T12:41:43.517Z</time></trkpt><trkpt lat="44.2639066" lon="10.7262227"><ele>615.0</ele><time>2026-05-03T12:41:44.515Z</time></trkpt><trkpt lat="44.2639123" lon="10.7261273"><ele>615.0</ele><time>2026-05-03T12:41:45.516Z</time></trkpt><trkpt lat="44.2639036" lon="10.7260304"><ele>615.0</ele><time>2026-05-03T12:41:46.512Z</time></trkpt><trkpt lat="44.2638806" lon="10.725932"><ele>615.0</ele><time>2026-05-03T12:41:47.513Z</time></trkpt><trkpt lat="44.263852" lon="10.7258264"><ele>615.0</ele><time>2026-05-03T12:41:48.509Z</time></trkpt><trkpt lat="44.263813" lon="10.7257075"><ele>614.3333333333334</ele><time>2026-05-03T12:41:49.518Z</time></trkpt><trkpt lat="44.2637723" lon="10.7255859"><ele>613.6666666666666</ele><time>2026-05-03T12:41:50.516Z</time></trkpt><trkpt lat="44.2637401" lon="10.7254802"><ele>613.0</ele><time>2026-05-03T12:41:51.516Z</time></trkpt><trkpt lat="44.2637182" lon="10.7253792"><ele>612.3333333333333</ele><time>2026-05-03T12:41:52.519Z</time></trkpt><trkpt lat="44.2637085" lon="10.7252452"><ele>611.6666666666666</ele><time>2026-05-03T12:41:54.516Z</time></trkpt><trkpt lat="44.2637076" lon="10.7251271"><ele>611.0</ele><time>2026-05-03T12:41:56.51Z</time></trkpt><trkpt lat="44.2636787" lon="10.7249742"><ele>609.8333333333333</ele><time>2026-05-03T12:41:58.507Z</time></trkpt><trkpt lat="44.2636599" lon="10.7248877"><ele>608.6666666666666</ele><time>2026-05-03T12:41:59.51Z</time></trkpt><trkpt lat="44.2636418" lon="10.7248"><ele>607.5</ele><time>2026-05-03T12:42:00.51Z</time></trkpt><trkpt lat="44.2636153" lon="10.7246283"><ele>606.3333333333334</ele><time>2026-05-03T12:42:02.505Z</time></trkpt><trkpt lat="44.2636025" lon="10.7245281"><ele>605.1666666666667</ele><time>2026-05-03T12:42:03.511Z</time></trkpt><trkpt lat="44.2635799" lon="10.7244153"><ele>604.0</ele><time>2026-05-03T12:42:04.509Z</time></trkpt><trkpt lat="44.2635441" lon="10.7243135"><ele>601.8333333333334</ele><time>2026-05-03T12:42:05.512Z</time></trkpt><trkpt lat="44.2635143" lon="10.7242023"><ele>599.6666666666667</ele><time>2026-05-03T12:42:06.512Z</time></trkpt><trkpt lat="44.2634809" lon="10.7240837"><ele>597.5</ele><time>2026-05-03T12:42:07.511Z</time></trkpt><trkpt lat="44.2634527" lon="10.723961"><ele>595.3333333333334</ele><time>2026-05-03T12:42:08.516Z</time></trkpt><trkpt lat="44.2634299" lon="10.7238408"><ele>593.1666666666666</ele><time>2026-05-03T12:42:09.515Z</time></trkpt><trkpt lat="44.2634093" lon="10.7237392"><ele>591.0</ele><time>2026-05-03T12:42:10.512Z</time></trkpt><trkpt lat="44.2633792" lon="10.7236506"><ele>591.0</ele><time>2026-05-03T12:42:11.508Z</time></trkpt><trkpt lat="44.2633366" lon="10.7235776"><ele>591.0</ele><time>2026-05-03T12:42:12.516Z</time></trkpt><trkpt lat="44.263287" lon="10.723495"><ele>591.0</ele><time>2026-05-03T12:42:13.511Z</time></trkpt><trkpt lat="44.2632252" lon="10.723407"><ele>591.0</ele><time>2026-05-03T12:42:14.512Z</time></trkpt><trkpt lat="44.263163" lon="10.7233152"><ele>591.0</ele><time>2026-05-03T12:42:15.513Z</time></trkpt><trkpt lat="44.2630993" lon="10.7232284"><ele>591.0</ele><time>2026-05-03T12:42:16.51Z</time></trkpt><trkpt lat="44.2630357" lon="10.7231528"><ele>588.5</ele><time>2026-05-03T12:42:17.518Z</time></trkpt><trkpt lat="44.2629696" lon="10.7230778"><ele>586.0</ele><time>2026-05-03T12:42:18.506Z</time></trkpt><trkpt lat="44.2629004" lon="10.7230126"><ele>583.5</ele><time>2026-05-03T12:42:19.507Z</time></trkpt><trkpt lat="44.2628298" lon="10.7229599"><ele>581.0</ele><time>2026-05-03T12:42:20.506Z</time></trkpt><trkpt lat="44.2627563" lon="10.7229328"><ele>578.5</ele><time>2026-05-03T12:42:21.506Z</time></trkpt><trkpt lat="44.2626906" lon="10.7229385"><ele>576.0</ele><time>2026-05-03T12:42:22.503Z</time></trkpt><trkpt lat="44.2626288" lon="10.72296"><ele>576.0</ele><time>2026-05-03T12:42:23.509Z</time></trkpt><trkpt lat="44.2625357" lon="10.7229798"><ele>576.0</ele><time>2026-05-03T12:42:25.504Z</time></trkpt><trkpt lat="44.2625444" lon="10.7228795"><ele>576.0</ele><time>2026-05-03T12:42:28.5Z</time></trkpt><trkpt lat="44.2626496" lon="10.7228392"><ele>576.0</ele><time>2026-05-03T12:42:30.495Z</time></trkpt><trkpt lat="44.2627173" lon="10.7228129"><ele>576.0</ele><time>2026-05-03T12:42:31.497Z</time></trkpt><trkpt lat="44.2628013" lon="10.7227795"><ele>576.0</ele><time>2026-05-03T12:42:32.495Z</time></trkpt><trkpt lat="44.2628943" lon="10.7227466"><ele>573.0</ele><time>2026-05-03T12:42:33.498Z</time></trkpt><trkpt lat="44.2629893" lon="10.7227121"><ele>570.0</ele><time>2026-05-03T12:42:34.498Z</time></trkpt><trkpt lat="44.263077" lon="10.7226679"><ele>567.0</ele><time>2026-05-03T12:42:35.5Z</time></trkpt><trkpt lat="44.2631549" lon="10.7226232"><ele>564.0</ele><time>2026-05-03T12:42:36.494Z</time></trkpt><trkpt lat="44.2632172" lon="10.7225891"><ele>561.0</ele><time>2026-05-03T12:42:37.496Z</time></trkpt><trkpt lat="44.2633106" lon="10.72255"><ele>558.0</ele><time>2026-05-03T12:42:39.498Z</time></trkpt><trkpt lat="44.2633765" lon="10.7224956"><ele>558.0</ele><time>2026-05-03T12:42:41.497Z</time></trkpt><trkpt lat="44.2633665" lon="10.722408"><ele>558.0</ele><time>2026-05-03T12:42:43.504Z</time></trkpt><trkpt lat="44.2632965" lon="10.7223724"><ele>558.0</ele><time>2026-05-03T12:42:45.501Z</time></trkpt><trkpt lat="44.2631804" lon="10.7223668"><ele>558.0</ele><time>2026-05-03T12:42:47.5Z</time></trkpt><trkpt lat="44.2631074" lon="10.7223794"><ele>558.0</ele><time>2026-05-03T12:42:48.502Z</time></trkpt><trkpt lat="44.2630275" lon="10.7223846"><ele>558.0</ele><time>2026-05-03T12:42:49.502Z</time></trkpt><trkpt lat="44.2629638" lon="10.7223729"><ele>558.0</ele><time>2026-05-03T12:42:50.5Z</time></trkpt><trkpt lat="44.2628919" lon="10.722247"><ele>558.0</ele><time>2026-05-03T12:42:52.504Z</time></trkpt><trkpt lat="44.2628839" lon="10.7221496"><ele>558.0</ele><time>2026-05-03T12:42:53.507Z</time></trkpt><trkpt lat="44.2628737" lon="10.7220322"><ele>558.0</ele><time>2026-05-03T12:42:54.515Z</time></trkpt><trkpt lat="44.262869" lon="10.7219282"><ele>558.0</ele><time>2026-05-03T12:42:55.506Z</time></trkpt><trkpt lat="44.2628956" lon="10.7218128"><ele>558.0</ele><time>2026-05-03T12:42:57.507Z</time></trkpt><trkpt lat="44.2629044" lon="10.7217185"><ele>558.5</ele><time>2026-05-03T12:44:59.512Z</time></trkpt><trkpt lat="44.2629476" lon="10.7215562"><ele>559.0</ele><time>2026-05-03T12:45:01.511Z</time></trkpt><trkpt lat="44.262954" lon="10.721402"><ele>559.5</ele><time>2026-05-03T12:45:03.499Z</time></trkpt><trkpt lat="44.2628938" lon="10.7212818"><ele>560.0</ele><time>2026-05-03T12:45:05.508Z</time></trkpt><trkpt lat="44.2628262" lon="10.7211459"><ele>560.8</ele><time>2026-05-03T12:45:07.503Z</time></trkpt><trkpt lat="44.2627803" lon="10.7209649"><ele>561.6</ele><time>2026-05-03T12:45:09.499Z</time></trkpt><trkpt lat="44.2627704" lon="10.7208616"><ele>562.4</ele><time>2026-05-03T12:45:10.502Z</time></trkpt><trkpt lat="44.2627735" lon="10.720767"><ele>563.2</ele><time>2026-05-03T12:45:11.503Z</time></trkpt><trkpt lat="44.2627913" lon="10.7205997"><ele>564.0</ele><time>2026-05-03T12:45:13.51Z</time></trkpt><trkpt lat="44.2628057" lon="10.7205087"><ele>564.0</ele><time>2026-05-03T12:45:14.503Z</time></trkpt><trkpt lat="44.2628194" lon="10.7203421"><ele>564.0</ele><time>2026-05-03T12:45:16.499Z</time></trkpt><trkpt lat="44.2627946" lon="10.720184"><ele>564.0</ele><time>2026-05-03T12:45:18.501Z</time></trkpt><trkpt lat="44.2627596" lon="10.7201004"><ele>564.0</ele><time>2026-05-03T12:45:19.506Z</time></trkpt><trkpt lat="44.2627182" lon="10.7200102"><ele>564.0</ele><time>2026-05-03T12:45:20.503Z</time></trkpt><trkpt lat="44.2626814" lon="10.7199164"><ele>563.5</ele><time>2026-05-03T12:45:21.503Z</time></trkpt><trkpt lat="44.2626501" lon="10.7198182"><ele>563.0</ele><time>2026-05-03T12:45:22.506Z</time></trkpt><trkpt lat="44.2626227" lon="10.7197235"><ele>562.5</ele><time>2026-05-03T12:45:23.509Z</time></trkpt><trkpt lat="44.2625881" lon="10.7196352"><ele>562.0</ele><time>2026-05-03T12:45:24.505Z</time></trkpt><trkpt lat="44.262538" lon="10.7195524"><ele>561.5</ele><time>2026-05-03T12:45:25.504Z</time></trkpt><trkpt lat="44.262477" lon="10.7194766"><ele>561.0</ele><time>2026-05-03T12:45:26.508Z</time></trkpt><trkpt lat="44.2624184" lon="10.7193977"><ele>560.4</ele><time>2026-05-03T12:45:27.505Z</time></trkpt><trkpt lat="44.2623583" lon="10.719308"><ele>559.8</ele><time>2026-05-03T12:45:28.511Z</time></trkpt><trkpt lat="44.2622987" lon="10.7192054"><ele>559.1999999999999</ele><time>2026-05-03T12:45:29.506Z</time></trkpt><trkpt lat="44.2622413" lon="10.7190983"><ele>558.6</ele><time>2026-05-03T12:45:30.505Z</time></trkpt><trkpt lat="44.262183" lon="10.7189841"><ele>558.0</ele><time>2026-05-03T12:45:31.506Z</time></trkpt><trkpt lat="44.2621283" lon="10.7188675"><ele>559.1999999999999</ele><time>2026-05-03T12:45:32.502Z</time></trkpt><trkpt lat="44.2620699" lon="10.7187451"><ele>560.4</ele><time>2026-05-03T12:45:33.501Z</time></trkpt><trkpt lat="44.2620169" lon="10.718623"><ele>561.5999999999999</ele><time>2026-05-03T12:45:34.5Z</time></trkpt><trkpt lat="44.2619736" lon="10.7184938"><ele>562.8</ele><time>2026-05-03T12:45:35.5Z</time></trkpt><trkpt lat="44.2619328" lon="10.7183529"><ele>564.0</ele><time>2026-05-03T12:45:36.5Z</time></trkpt><trkpt lat="44.2618897" lon="10.7182077"><ele>564.0</ele><time>2026-05-03T12:45:37.501Z</time></trkpt><trkpt lat="44.2618481" lon="10.7180621"><ele>564.0</ele><time>2026-05-03T12:45:38.497Z</time></trkpt><trkpt lat="44.2618092" lon="10.7179363"><ele>564.0</ele><time>2026-05-03T12:45:39.502Z</time></trkpt><trkpt lat="44.2617729" lon="10.7178341"><ele>564.0</ele><time>2026-05-03T12:45:40.497Z</time></trkpt><trkpt lat="44.2617422" lon="10.7177339"><ele>564.0</ele><time>2026-05-03T12:45:41.495Z</time></trkpt><trkpt lat="44.2617069" lon="10.7176466"><ele>564.0</ele><time>2026-05-03T12:45:42.501Z</time></trkpt><trkpt lat="44.2616547" lon="10.7175808"><ele>563.1666666666666</ele><time>2026-05-03T12:45:43.496Z</time></trkpt><trkpt lat="44.261583" lon="10.7175148"><ele>562.3333333333334</ele><time>2026-05-03T12:45:44.499Z</time></trkpt><trkpt lat="44.2615212" lon="10.7174489"><ele>561.5</ele><time>2026-05-03T12:45:45.495Z</time></trkpt><trkpt lat="44.2614731" lon="10.7173677"><ele>560.6666666666667</ele><time>2026-05-03T12:45:46.504Z</time></trkpt><trkpt lat="44.2614348" lon="10.7172585"><ele>559.8333333333334</ele><time>2026-05-03T12:45:47.496Z</time></trkpt><trkpt lat="44.2614026" lon="10.7171318"><ele>559.0</ele><time>2026-05-03T12:45:48.507Z</time></trkpt><trkpt lat="44.2613889" lon="10.7169966"><ele>558.2</ele><time>2026-05-03T12:45:49.502Z</time></trkpt><trkpt lat="44.2613864" lon="10.7168635"><ele>557.4</ele><time>2026-05-03T12:45:50.499Z</time></trkpt><trkpt lat="44.2613924" lon="10.7167294"><ele>556.6</ele><time>2026-05-03T12:45:51.499Z</time></trkpt><trkpt lat="44.2614049" lon="10.7166049"><ele>555.8</ele><time>2026-05-03T12:45:52.501Z</time></trkpt><trkpt lat="44.2614296" lon="10.716484"><ele>555.0</ele><time>2026-05-03T12:45:53.504Z</time></trkpt><trkpt lat="44.2614677" lon="10.7163568"><ele>555.0</ele><time>2026-05-03T12:45:54.504Z</time></trkpt><trkpt lat="44.2614981" lon="10.7162406"><ele>555.0</ele><time>2026-05-03T12:45:55.503Z</time></trkpt><trkpt lat="44.2615079" lon="10.716135"><ele>555.0</ele><time>2026-05-03T12:45:56.5Z</time></trkpt><trkpt lat="44.2614826" lon="10.7160313"><ele>555.0</ele><time>2026-05-03T12:45:57.496Z</time></trkpt><trkpt lat="44.2614414" lon="10.7159311"><ele>555.0</ele><time>2026-05-03T12:45:58.496Z</time></trkpt><trkpt lat="44.2613923" lon="10.7158286"><ele>555.0</ele><time>2026-05-03T12:45:59.511Z</time></trkpt><trkpt lat="44.2613123" lon="10.715752"><ele>556.8</ele><time>2026-05-03T12:46:00.502Z</time></trkpt><trkpt lat="44.2612209" lon="10.7157217"><ele>558.6</ele><time>2026-05-03T12:46:01.509Z</time></trkpt><trkpt lat="44.2611271" lon="10.7157231"><ele>560.4</ele><time>2026-05-03T12:46:02.5Z</time></trkpt><trkpt lat="44.2610418" lon="10.715732"><ele>562.2</ele><time>2026-05-03T12:46:03.504Z</time></trkpt><trkpt lat="44.2609438" lon="10.7157195"><ele>564.0</ele><time>2026-05-03T12:46:04.504Z</time></trkpt><trkpt lat="44.2608392" lon="10.7157049"><ele>564.0</ele><time>2026-05-03T12:46:05.505Z</time></trkpt><trkpt lat="44.2607299" lon="10.7156911"><ele>564.0</ele><time>2026-05-03T12:46:06.504Z</time></trkpt><trkpt lat="44.2606289" lon="10.715692"><ele>564.0</ele><time>2026-05-03T12:46:07.503Z</time></trkpt><trkpt lat="44.2605332" lon="10.7156984"><ele>564.0</ele><time>2026-05-03T12:46:08.5Z</time></trkpt><trkpt lat="44.2604541" lon="10.7157051"><ele>564.0</ele><time>2026-05-03T12:46:09.504Z</time></trkpt><trkpt lat="44.2603884" lon="10.7156676"><ele>565.0</ele><time>2026-05-03T12:46:10.507Z</time></trkpt><trkpt lat="44.2603416" lon="10.7156005"><ele>566.0</ele><time>2026-05-03T12:46:11.504Z</time></trkpt><trkpt lat="44.2602794" lon="10.7155276"><ele>567.0</ele><time>2026-05-03T12:46:12.503Z</time></trkpt><trkpt lat="44.2602054" lon="10.7154702"><ele>568.0</ele><time>2026-05-03T12:46:13.501Z</time></trkpt><trkpt lat="44.2601242" lon="10.7154487"><ele>569.0</ele><time>2026-05-03T12:46:14.505Z</time></trkpt><trkpt lat="44.2600292" lon="10.7154341"><ele>570.0</ele><time>2026-05-03T12:46:15.505Z</time></trkpt><trkpt lat="44.2599301" lon="10.7154177"><ele>570.0</ele><time>2026-05-03T12:46:16.513Z</time></trkpt><trkpt lat="44.2598253" lon="10.7154002"><ele>570.0</ele><time>2026-05-03T12:46:17.507Z</time></trkpt><trkpt lat="44.2597222" lon="10.7153813"><ele>570.0</ele><time>2026-05-03T12:46:18.499Z</time></trkpt><trkpt lat="44.2596264" lon="10.7153617"><ele>570.0</ele><time>2026-05-03T12:46:19.516Z</time></trkpt><trkpt lat="44.2595423" lon="10.7153401"><ele>570.0</ele><time>2026-05-03T12:46:20.498Z</time></trkpt><trkpt lat="44.2594712" lon="10.7153138"><ele>571.0</ele><time>2026-05-03T12:46:21.502Z</time></trkpt><trkpt lat="44.2593786" lon="10.7152224"><ele>572.0</ele><time>2026-05-03T12:46:23.508Z</time></trkpt><trkpt lat="44.2593561" lon="10.7151177"><ele>573.0</ele><time>2026-05-03T12:46:24.507Z</time></trkpt><trkpt lat="44.2593361" lon="10.714987"><ele>574.0</ele><time>2026-05-03T12:46:25.507Z</time></trkpt><trkpt lat="44.2593043" lon="10.7148443"><ele>575.0</ele><time>2026-05-03T12:46:26.506Z</time></trkpt><trkpt lat="44.2592695" lon="10.714697"><ele>575.0</ele><time>2026-05-03T12:46:27.508Z</time></trkpt><trkpt lat="44.2592326" lon="10.7145484"><ele>575.0</ele><time>2026-05-03T12:46:28.503Z</time></trkpt><trkpt lat="44.2591966" lon="10.7144009"><ele>575.0</ele><time>2026-05-03T12:46:29.51Z</time></trkpt><trkpt lat="44.2591481" lon="10.7142502"><ele>575.0</ele><time>2026-05-03T12:46:30.514Z</time></trkpt><trkpt lat="44.2590795" lon="10.7141061"><ele>576.25</ele><time>2026-05-03T12:46:31.511Z</time></trkpt><trkpt lat="44.2589934" lon="10.7139792"><ele>577.5</ele><time>2026-05-03T12:46:32.512Z</time></trkpt><trkpt lat="44.2589051" lon="10.7138509"><ele>578.75</ele><time>2026-05-03T12:46:33.508Z</time></trkpt><trkpt lat="44.2588195" lon="10.7137097"><ele>580.0</ele><time>2026-05-03T12:46:34.509Z</time></trkpt><trkpt lat="44.2587451" lon="10.7135501"><ele>580.0</ele><time>2026-05-03T12:46:35.506Z</time></trkpt><trkpt lat="44.2586857" lon="10.7133928"><ele>580.0</ele><time>2026-05-03T12:46:36.507Z</time></trkpt><trkpt lat="44.258621" lon="10.7132546"><ele>580.0</ele><time>2026-05-03T12:46:37.504Z</time></trkpt><trkpt lat="44.2585418" lon="10.7131397"><ele>580.0</ele><time>2026-05-03T12:46:38.51Z</time></trkpt><trkpt lat="44.2584454" lon="10.7130596"><ele>580.0</ele><time>2026-05-03T12:46:39.507Z</time></trkpt><trkpt lat="44.2583351" lon="10.7129997"><ele>580.0</ele><time>2026-05-03T12:46:40.507Z</time></trkpt><trkpt lat="44.2582178" lon="10.7129596"><ele>580.0</ele><time>2026-05-03T12:46:41.503Z</time></trkpt><trkpt lat="44.2581159" lon="10.7129293"><ele>580.0</ele><time>2026-05-03T12:46:42.501Z</time></trkpt><trkpt lat="44.2580359" lon="10.7128864"><ele>580.0</ele><time>2026-05-03T12:46:43.504Z</time></trkpt><trkpt lat="44.2579776" lon="10.7128155"><ele>582.0</ele><time>2026-05-03T12:46:44.505Z</time></trkpt><trkpt lat="44.2579455" lon="10.7127059"><ele>584.0</ele><time>2026-05-03T12:46:45.504Z</time></trkpt><trkpt lat="44.2579312" lon="10.7125503"><ele>586.0</ele><time>2026-05-03T12:46:46.496Z</time></trkpt><trkpt lat="44.2579259" lon="10.712384"><ele>588.0</ele><time>2026-05-03T12:46:47.5Z</time></trkpt><trkpt lat="44.2579162" lon="10.7122283"><ele>590.0</ele><time>2026-05-03T12:46:48.497Z</time></trkpt><trkpt lat="44.2578929" lon="10.7120803"><ele>590.0</ele><time>2026-05-03T12:46:49.498Z</time></trkpt><trkpt lat="44.2578545" lon="10.7119483"><ele>590.0</ele><time>2026-05-03T12:46:50.505Z</time></trkpt><trkpt lat="44.2577873" lon="10.7118375"><ele>590.0</ele><time>2026-05-03T12:46:51.491Z</time></trkpt><trkpt lat="44.257708" lon="10.7117223"><ele>590.0</ele><time>2026-05-03T12:46:52.499Z</time></trkpt><trkpt lat="44.2576308" lon="10.7116073"><ele>590.0</ele><time>2026-05-03T12:46:53.496Z</time></trkpt><trkpt lat="44.2575718" lon="10.7114897"><ele>587.8333333333333</ele><time>2026-05-03T12:46:54.497Z</time></trkpt><trkpt lat="44.2575413" lon="10.7113723"><ele>585.6666666666666</ele><time>2026-05-03T12:46:55.5Z</time></trkpt><trkpt lat="44.2575457" lon="10.7112563"><ele>583.5</ele><time>2026-05-03T12:46:56.499Z</time></trkpt><trkpt lat="44.2575693" lon="10.7111601"><ele>581.3333333333334</ele><time>2026-05-03T12:46:57.503Z</time></trkpt><trkpt lat="44.2576355" lon="10.7110755"><ele>579.1666666666667</ele><time>2026-05-03T12:46:59.5Z</time></trkpt><trkpt lat="44.2577021" lon="10.711069"><ele>577.0</ele><time>2026-05-03T12:47:09.514Z</time></trkpt><trkpt lat="44.2577219" lon="10.7109744"><ele>575.1666666666667</ele><time>2026-05-03T12:47:11.51Z</time></trkpt><trkpt lat="44.2577043" lon="10.7108847"><ele>573.3333333333334</ele><time>2026-05-03T12:47:12.505Z</time></trkpt><trkpt lat="44.2576717" lon="10.7107902"><ele>571.5</ele><time>2026-05-03T12:47:13.502Z</time></trkpt><trkpt lat="44.2576281" lon="10.7106968"><ele>569.6666666666666</ele><time>2026-05-03T12:47:14.504Z</time></trkpt><trkpt lat="44.2575807" lon="10.7105865"><ele>567.8333333333333</ele><time>2026-05-03T12:47:15.503Z</time></trkpt><trkpt lat="44.2575262" lon="10.7104679"><ele>566.0</ele><time>2026-05-03T12:47:16.502Z</time></trkpt><trkpt lat="44.2574628" lon="10.7103355"><ele>565.0</ele><time>2026-05-03T12:47:17.504Z</time></trkpt><trkpt lat="44.2573951" lon="10.7101905"><ele>564.0</ele><time>2026-05-03T12:47:18.507Z</time></trkpt><trkpt lat="44.2573231" lon="10.7100286"><ele>563.0</ele><time>2026-05-03T12:47:19.507Z</time></trkpt><trkpt lat="44.2572522" lon="10.7098746"><ele>562.0</ele><time>2026-05-03T12:47:20.506Z</time></trkpt><trkpt lat="44.2571778" lon="10.7097181"><ele>568.0</ele><time>2026-05-03T12:47:21.504Z</time></trkpt><trkpt lat="44.257103" lon="10.7095632"><ele>574.0</ele><time>2026-05-03T12:47:22.485Z</time></trkpt><trkpt lat="44.2570155" lon="10.7094033"><ele>580.0</ele><time>2026-05-03T12:47:23.489Z</time></trkpt><trkpt lat="44.2569365" lon="10.7092386"><ele>586.0</ele><time>2026-05-03T12:47:24.476Z</time></trkpt><trkpt lat="44.2568599" lon="10.7090771"><ele>594.3333333333334</ele><time>2026-05-03T12:47:25.466Z</time></trkpt><trkpt lat="44.2567855" lon="10.7089152"><ele>602.6666666666666</ele><time>2026-05-03T12:47:26.438Z</time></trkpt><trkpt lat="44.256711" lon="10.7087533"><ele>611.0</ele><time>2026-05-03T12:47:27.415Z</time></trkpt><trkpt lat="44.2524599" lon="10.6934299"><ele>635.5</ele><time>2026-05-03T12:48:35.499Z</time></trkpt><trkpt lat="44.2527936" lon="10.6931517"><ele>660.0</ele><time>2026-05-03T12:48:36.503Z</time></trkpt><trkpt lat="44.2528702" lon="10.6929258"><ele>659.3333333333334</ele><time>2026-05-03T12:48:37.499Z</time></trkpt><trkpt lat="44.2529008" lon="10.6927206"><ele>658.6666666666667</ele><time>2026-05-03T12:48:38.508Z</time></trkpt><trkpt lat="44.2529311" lon="10.6924787"><ele>658.0</ele><time>2026-05-03T12:48:39.506Z</time></trkpt><trkpt lat="44.2529296" lon="10.6922181"><ele>658.0</ele><time>2026-05-03T12:48:40.51Z</time></trkpt><trkpt lat="44.252936" lon="10.6919753"><ele>658.0</ele><time>2026-05-03T12:48:41.508Z</time></trkpt><trkpt lat="44.2529211" lon="10.691743"><ele>658.0</ele><time>2026-05-03T12:48:42.506Z</time></trkpt><trkpt lat="44.2528696" lon="10.6915295"><ele>655.0</ele><time>2026-05-03T12:48:43.505Z</time></trkpt><trkpt lat="44.2528261" lon="10.6912982"><ele>652.0</ele><time>2026-05-03T12:48:44.507Z</time></trkpt><trkpt lat="44.252752" lon="10.6910707"><ele>649.0</ele><time>2026-05-03T12:48:45.513Z</time></trkpt><trkpt lat="44.2526528" lon="10.6908583"><ele>653.3333333333334</ele><time>2026-05-03T12:48:46.513Z</time></trkpt><trkpt lat="44.252534" lon="10.6906534"><ele>657.6666666666666</ele><time>2026-05-03T12:48:47.515Z</time></trkpt><trkpt lat="44.2524228" lon="10.6904584"><ele>662.0</ele><time>2026-05-03T12:48:48.516Z</time></trkpt><trkpt lat="44.2522821" lon="10.6902804"><ele>657.0</ele><time>2026-05-03T12:48:49.516Z</time></trkpt><trkpt lat="44.2521389" lon="10.6900991"><ele>652.0</ele><time>2026-05-03T12:48:50.519Z</time></trkpt><trkpt lat="44.2519968" lon="10.6899278"><ele>647.0</ele><time>2026-05-03T12:48:51.511Z</time></trkpt><trkpt lat="44.2518527" lon="10.6897602"><ele>647.0</ele><time>2026-05-03T12:48:52.517Z</time></trkpt><trkpt lat="44.2517139" lon="10.6895756"><ele>647.0</ele><time>2026-05-03T12:48:53.506Z</time></trkpt><trkpt lat="44.2515654" lon="10.6894018"><ele>647.0</ele><time>2026-05-03T12:48:54.514Z</time></trkpt><trkpt lat="44.251444" lon="10.6892144"><ele>653.3333333333333</ele><time>2026-05-03T12:48:55.505Z</time></trkpt><trkpt lat="44.251327" lon="10.689024"><ele>659.6666666666666</ele><time>2026-05-03T12:48:56.507Z</time></trkpt><trkpt lat="44.2512147" lon="10.6888208"><ele>666.0</ele><time>2026-05-03T12:48:57.506Z</time></trkpt><trkpt lat="44.2511179" lon="10.6885933"><ele>662.3333333333334</ele><time>2026-05-03T12:48:58.509Z</time></trkpt><trkpt lat="44.2510408" lon="10.6883534"><ele>658.6666666666667</ele><time>2026-05-03T12:48:59.506Z</time></trkpt><trkpt lat="44.2509773" lon="10.6881085"><ele>655.0</ele><time>2026-05-03T12:49:00.502Z</time></trkpt><trkpt lat="44.2509187" lon="10.6878678"><ele>651.0</ele><time>2026-05-03T12:49:01.503Z</time></trkpt><trkpt lat="44.250859" lon="10.687637"><ele>647.0</ele><time>2026-05-03T12:49:02.502Z</time></trkpt><trkpt lat="44.2508073" lon="10.6874193"><ele>643.0</ele><time>2026-05-03T12:49:03.504Z</time></trkpt><trkpt lat="44.2507493" lon="10.6871996"><ele>643.0</ele><time>2026-05-03T12:49:04.509Z</time></trkpt><trkpt lat="44.2507088" lon="10.6869924"><ele>643.0</ele><time>2026-05-03T12:49:05.498Z</time></trkpt><trkpt lat="44.2506425" lon="10.6867716"><ele>643.0</ele><time>2026-05-03T12:49:06.497Z</time></trkpt><trkpt lat="44.2505601" lon="10.6865658"><ele>640.3333333333334</ele><time>2026-05-03T12:49:07.486Z</time></trkpt><trkpt lat="44.2504726" lon="10.6863864"><ele>637.6666666666666</ele><time>2026-05-03T12:49:08.491Z</time></trkpt><trkpt lat="44.2503372" lon="10.686163"><ele>635.0</ele><time>2026-05-03T12:49:09.505Z</time></trkpt><trkpt lat="44.2501564" lon="10.6860135"><ele>635.0</ele><time>2026-05-03T12:49:10.506Z</time></trkpt><trkpt lat="44.2499628" lon="10.6858811"><ele>635.0</ele><time>2026-05-03T12:49:11.509Z</time></trkpt><trkpt lat="44.2498135" lon="10.6857336"><ele>635.0</ele><time>2026-05-03T12:49:12.51Z</time></trkpt><trkpt lat="44.2496701" lon="10.6855819"><ele>638.6666666666666</ele><time>2026-05-03T12:49:13.507Z</time></trkpt><trkpt lat="44.2495309" lon="10.6854113"><ele>642.3333333333334</ele><time>2026-05-03T12:49:14.505Z</time></trkpt><trkpt lat="44.2494194" lon="10.6852389"><ele>646.0</ele><time>2026-05-03T12:49:15.507Z</time></trkpt><trkpt lat="44.2493166" lon="10.6850646"><ele>646.0</ele><time>2026-05-03T12:49:16.507Z</time></trkpt><trkpt lat="44.2492135" lon="10.6848635"><ele>646.0</ele><time>2026-05-03T12:49:17.511Z</time></trkpt><trkpt lat="44.2491144" lon="10.6846517"><ele>646.0</ele><time>2026-05-03T12:49:18.505Z</time></trkpt><trkpt lat="44.2490141" lon="10.6844334"><ele>648.3333333333334</ele><time>2026-05-03T12:49:19.507Z</time></trkpt><trkpt lat="44.2489069" lon="10.6842419"><ele>650.6666666666666</ele><time>2026-05-03T12:49:20.505Z</time></trkpt><trkpt lat="44.2487715" lon="10.6840624"><ele>653.0</ele><time>2026-05-03T12:49:21.511Z</time></trkpt><trkpt lat="44.2486246" lon="10.683901"><ele>653.0</ele><time>2026-05-03T12:49:22.51Z</time></trkpt><trkpt lat="44.2484567" lon="10.6837636"><ele>653.0</ele><time>2026-05-03T12:49:23.512Z</time></trkpt><trkpt lat="44.2482834" lon="10.6836231"><ele>653.0</ele><time>2026-05-03T12:49:24.521Z</time></trkpt><trkpt lat="44.2481098" lon="10.6834778"><ele>649.6666666666666</ele><time>2026-05-03T12:49:25.511Z</time></trkpt><trkpt lat="44.2479396" lon="10.683332"><ele>646.3333333333334</ele><time>2026-05-03T12:49:26.513Z</time></trkpt><trkpt lat="44.2477758" lon="10.6831902"><ele>643.0</ele><time>2026-05-03T12:49:27.512Z</time></trkpt><trkpt lat="44.2476047" lon="10.683054"><ele>643.0</ele><time>2026-05-03T12:49:28.506Z</time></trkpt><trkpt lat="44.247436" lon="10.682916"><ele>643.0</ele><time>2026-05-03T12:49:29.502Z</time></trkpt><trkpt lat="44.2472798" lon="10.6827826"><ele>643.0</ele><time>2026-05-03T12:49:30.501Z</time></trkpt><trkpt lat="44.2471291" lon="10.6826555"><ele>642.3333333333334</ele><time>2026-05-03T12:49:31.502Z</time></trkpt><trkpt lat="44.2469799" lon="10.6825387"><ele>641.6666666666666</ele><time>2026-05-03T12:49:32.498Z</time></trkpt><trkpt lat="44.2468362" lon="10.6824049"><ele>641.0</ele><time>2026-05-03T12:49:33.498Z</time></trkpt><trkpt lat="44.2466997" lon="10.6822621"><ele>641.0</ele><time>2026-05-03T12:49:34.493Z</time></trkpt><trkpt lat="44.2465556" lon="10.6821176"><ele>641.0</ele><time>2026-05-03T12:49:35.503Z</time></trkpt><trkpt lat="44.2464083" lon="10.6819553"><ele>641.0</ele><time>2026-05-03T12:49:36.493Z</time></trkpt><trkpt lat="44.2462671" lon="10.6817957"><ele>644.3333333333333</ele><time>2026-05-03T12:49:37.502Z</time></trkpt><trkpt lat="44.2461323" lon="10.6816197"><ele>647.6666666666666</ele><time>2026-05-03T12:49:38.494Z</time></trkpt><trkpt lat="44.2460011" lon="10.6814533"><ele>651.0</ele><time>2026-05-03T12:49:39.495Z</time></trkpt><trkpt lat="44.2458893" lon="10.6812914"><ele>651.0</ele><time>2026-05-03T12:49:40.491Z</time></trkpt><trkpt lat="44.245781" lon="10.6811276"><ele>651.0</ele><time>2026-05-03T12:49:41.492Z</time></trkpt><trkpt lat="44.2456734" lon="10.6809801"><ele>651.0</ele><time>2026-05-03T12:49:42.495Z</time></trkpt><trkpt lat="44.245592" lon="10.6808238"><ele>651.0</ele><time>2026-05-03T12:49:43.489Z</time></trkpt><trkpt lat="44.2455475" lon="10.6806596"><ele>661.0</ele><time>2026-05-03T12:49:44.49Z</time></trkpt><trkpt lat="44.2455285" lon="10.6804788"><ele>671.0</ele><time>2026-05-03T12:49:45.497Z</time></trkpt><trkpt lat="44.2455244" lon="10.6802794"><ele>681.0</ele><time>2026-05-03T12:49:46.492Z</time></trkpt><trkpt lat="44.2455311" lon="10.6800728"><ele>691.0</ele><time>2026-05-03T12:49:47.492Z</time></trkpt><trkpt lat="44.2455346" lon="10.6798692"><ele>691.0</ele><time>2026-05-03T12:49:48.491Z</time></trkpt><trkpt lat="44.2455484" lon="10.6796951"><ele>691.0</ele><time>2026-05-03T12:49:49.493Z</time></trkpt><trkpt lat="44.2455686" lon="10.6795288"><ele>691.0</ele><time>2026-05-03T12:49:50.496Z</time></trkpt><trkpt lat="44.2456149" lon="10.6793718"><ele>691.0</ele><time>2026-05-03T12:49:51.489Z</time></trkpt><trkpt lat="44.2457042" lon="10.6792213"><ele>676.0</ele><time>2026-05-03T12:49:52.488Z</time></trkpt><trkpt lat="44.2458133" lon="10.6790567"><ele>661.0</ele><time>2026-05-03T12:49:53.491Z</time></trkpt><trkpt lat="44.2459562" lon="10.678891"><ele>646.0</ele><time>2026-05-03T12:49:54.484Z</time></trkpt><trkpt lat="44.2460897" lon="10.6787133"><ele>641.6666666666667</ele><time>2026-05-03T12:49:55.493Z</time></trkpt><trkpt lat="44.2462135" lon="10.6785598"><ele>637.3333333333334</ele><time>2026-05-03T12:49:56.484Z</time></trkpt><trkpt lat="44.2463479" lon="10.6784401"><ele>633.0</ele><time>2026-05-03T12:49:57.483Z</time></trkpt><trkpt lat="44.2464981" lon="10.6783476"><ele>633.0</ele><time>2026-05-03T12:49:58.484Z</time></trkpt><trkpt lat="44.2466371" lon="10.6782516"><ele>633.0</ele><time>2026-05-03T12:49:59.485Z</time></trkpt><trkpt lat="44.2467629" lon="10.6781672"><ele>633.0</ele><time>2026-05-03T12:50:00.48Z</time></trkpt><trkpt lat="44.2468709" lon="10.6780871"><ele>633.0</ele><time>2026-05-03T12:50:01.491Z</time></trkpt><trkpt lat="44.2469584" lon="10.6779836"><ele>633.0</ele><time>2026-05-03T12:50:02.492Z</time></trkpt><trkpt lat="44.2469902" lon="10.6778385"><ele>633.0</ele><time>2026-05-03T12:50:03.494Z</time></trkpt><trkpt lat="44.2469587" lon="10.6776731"><ele>633.0</ele><time>2026-05-03T12:50:04.5Z</time></trkpt><trkpt lat="44.246875" lon="10.6775071"><ele>633.0</ele><time>2026-05-03T12:50:05.494Z</time></trkpt><trkpt lat="44.246785" lon="10.6773281"><ele>636.0</ele><time>2026-05-03T12:50:06.501Z</time></trkpt><trkpt lat="44.2466736" lon="10.6771351"><ele>639.0</ele><time>2026-05-03T12:50:07.491Z</time></trkpt><trkpt lat="44.2465618" lon="10.6769565"><ele>642.0</ele><time>2026-05-03T12:50:08.493Z</time></trkpt><trkpt lat="44.2464458" lon="10.6767884"><ele>659.3333333333334</ele><time>2026-05-03T12:50:09.495Z</time></trkpt><trkpt lat="44.2463651" lon="10.6765905"><ele>676.6666666666667</ele><time>2026-05-03T12:50:10.483Z</time></trkpt><trkpt lat="44.2463058" lon="10.6763723"><ele>694.0</ele><time>2026-05-03T12:50:11.483Z</time></trkpt><trkpt lat="44.246256" lon="10.6761279"><ele>684.0</ele><time>2026-05-03T12:50:12.489Z</time></trkpt><trkpt lat="44.2462091" lon="10.6758984"><ele>674.0</ele><time>2026-05-03T12:50:13.485Z</time></trkpt><trkpt lat="44.2461537" lon="10.6756692"><ele>664.0</ele><time>2026-05-03T12:50:14.488Z</time></trkpt><trkpt lat="44.2460813" lon="10.6754417"><ele>653.0</ele><time>2026-05-03T12:50:15.482Z</time></trkpt><trkpt lat="44.2459891" lon="10.6752352"><ele>642.0</ele><time>2026-05-03T12:50:16.485Z</time></trkpt><trkpt lat="44.2458837" lon="10.6750598"><ele>631.0</ele><time>2026-05-03T12:50:17.481Z</time></trkpt><trkpt lat="44.2457739" lon="10.6749122"><ele>631.0</ele><time>2026-05-03T12:50:18.488Z</time></trkpt><trkpt lat="44.2456438" lon="10.674799"><ele>631.0</ele><time>2026-05-03T12:50:19.494Z</time></trkpt><trkpt lat="44.2455291" lon="10.67471"><ele>631.0</ele><time>2026-05-03T12:50:20.489Z</time></trkpt><trkpt lat="44.2454366" lon="10.674621"><ele>631.0</ele><time>2026-05-03T12:50:21.485Z</time></trkpt><trkpt lat="44.2453981" lon="10.6744912"><ele>634.75</ele><time>2026-05-03T12:50:22.488Z</time></trkpt><trkpt lat="44.2454028" lon="10.6743189"><ele>638.5</ele><time>2026-05-03T12:50:23.492Z</time></trkpt><trkpt lat="44.2454266" lon="10.6741477"><ele>642.25</ele><time>2026-05-03T12:50:24.491Z</time></trkpt><trkpt lat="44.24547" lon="10.6739896"><ele>646.0</ele><time>2026-05-03T12:50:25.49Z</time></trkpt><trkpt lat="44.2455386" lon="10.6738484"><ele>644.0</ele><time>2026-05-03T12:50:26.5Z</time></trkpt><trkpt lat="44.2456494" lon="10.6737554"><ele>642.0</ele><time>2026-05-03T12:50:27.486Z</time></trkpt><trkpt lat="44.2457464" lon="10.6736517"><ele>640.0</ele><time>2026-05-03T12:50:28.488Z</time></trkpt><trkpt lat="44.2458356" lon="10.673529"><ele>638.0</ele><time>2026-05-03T12:50:29.488Z</time></trkpt><trkpt lat="44.2459063" lon="10.6733934"><ele>638.0</ele><time>2026-05-03T12:50:30.489Z</time></trkpt><trkpt lat="44.2459509" lon="10.6732281"><ele>638.0</ele><time>2026-05-03T12:50:31.488Z</time></trkpt><trkpt lat="44.2459812" lon="10.6730269"><ele>638.0</ele><time>2026-05-03T12:50:32.495Z</time></trkpt><trkpt lat="44.2460126" lon="10.6728095"><ele>638.0</ele><time>2026-05-03T12:50:33.489Z</time></trkpt><trkpt lat="44.2460365" lon="10.6725721"><ele>644.3333333333333</ele><time>2026-05-03T12:50:34.489Z</time></trkpt><trkpt lat="44.2460427" lon="10.6723287"><ele>650.6666666666666</ele><time>2026-05-03T12:50:35.489Z</time></trkpt><trkpt lat="44.2460632" lon="10.6721005"><ele>657.0</ele><time>2026-05-03T12:50:36.491Z</time></trkpt><trkpt lat="44.2460899" lon="10.6718793"><ele>659.25</ele><time>2026-05-03T12:50:37.495Z</time></trkpt><trkpt lat="44.2461167" lon="10.6716771"><ele>661.5</ele><time>2026-05-03T12:50:38.489Z</time></trkpt><trkpt lat="44.2461278" lon="10.6714792"><ele>663.75</ele><time>2026-05-03T12:50:39.49Z</time></trkpt><trkpt lat="44.2461186" lon="10.6713001"><ele>666.0</ele><time>2026-05-03T12:50:40.491Z</time></trkpt><trkpt lat="44.2460772" lon="10.67114"><ele>667.25</ele><time>2026-05-03T12:50:41.489Z</time></trkpt><trkpt lat="44.246055" lon="10.6709899"><ele>668.5</ele><time>2026-05-03T12:50:42.492Z</time></trkpt><trkpt lat="44.2460605" lon="10.6708312"><ele>669.75</ele><time>2026-05-03T12:50:43.489Z</time></trkpt><trkpt lat="44.2461165" lon="10.670686"><ele>671.0</ele><time>2026-05-03T12:50:44.493Z</time></trkpt><trkpt lat="44.2462039" lon="10.6705541"><ele>671.0</ele><time>2026-05-03T12:50:45.49Z</time></trkpt><trkpt lat="44.2463052" lon="10.670419"><ele>671.0</ele><time>2026-05-03T12:50:46.491Z</time></trkpt><trkpt lat="44.2463963" lon="10.6702908"><ele>671.0</ele><time>2026-05-03T12:50:47.491Z</time></trkpt><trkpt lat="44.2464709" lon="10.6701539"><ele>671.0</ele><time>2026-05-03T12:50:48.491Z</time></trkpt><trkpt lat="44.246531" lon="10.6700045"><ele>666.25</ele><time>2026-05-03T12:50:49.5Z</time></trkpt><trkpt lat="44.246553" lon="10.6698357"><ele>661.5</ele><time>2026-05-03T12:50:50.493Z</time></trkpt><trkpt lat="44.2465427" lon="10.6696481"><ele>656.75</ele><time>2026-05-03T12:50:51.491Z</time></trkpt><trkpt lat="44.2464959" lon="10.6694555"><ele>652.0</ele><time>2026-05-03T12:50:52.487Z</time></trkpt><trkpt lat="44.2464177" lon="10.6692683"><ele>652.0</ele><time>2026-05-03T12:50:53.492Z</time></trkpt><trkpt lat="44.2463179" lon="10.6690996"><ele>652.0</ele><time>2026-05-03T12:50:54.486Z</time></trkpt><trkpt lat="44.2462224" lon="10.6689567"><ele>652.0</ele><time>2026-05-03T12:50:55.495Z</time></trkpt><trkpt lat="44.2461386" lon="10.6688361"><ele>652.0</ele><time>2026-05-03T12:50:56.491Z</time></trkpt><trkpt lat="44.2460403" lon="10.6687824"><ele>652.0</ele><time>2026-05-03T12:50:57.503Z</time></trkpt><trkpt lat="44.2459233" lon="10.6687768"><ele>652.0</ele><time>2026-05-03T12:50:58.496Z</time></trkpt><trkpt lat="44.2457963" lon="10.6688311"><ele>652.0</ele><time>2026-05-03T12:50:59.495Z</time></trkpt><trkpt lat="44.2456559" lon="10.6689082"><ele>652.0</ele><time>2026-05-03T12:51:00.489Z</time></trkpt><trkpt lat="44.245517" lon="10.6689728"><ele>653.3333333333334</ele><time>2026-05-03T12:51:01.493Z</time></trkpt><trkpt lat="44.2453667" lon="10.6690408"><ele>654.6666666666666</ele><time>2026-05-03T12:51:02.491Z</time></trkpt><trkpt lat="44.2452027" lon="10.6690786"><ele>656.0</ele><time>2026-05-03T12:51:03.479Z</time></trkpt><trkpt lat="44.2450408" lon="10.6691014"><ele>656.0</ele><time>2026-05-03T12:51:04.479Z</time></trkpt><trkpt lat="44.2448852" lon="10.6691176"><ele>656.0</ele><time>2026-05-03T12:51:05.48Z</time></trkpt><trkpt lat="44.2447375" lon="10.6691187"><ele>656.0</ele><time>2026-05-03T12:51:06.481Z</time></trkpt><trkpt lat="44.2445975" lon="10.6690906"><ele>656.0</ele><time>2026-05-03T12:51:07.481Z</time></trkpt><trkpt lat="44.2444624" lon="10.6690239"><ele>656.25</ele><time>2026-05-03T12:51:08.484Z</time></trkpt><trkpt lat="44.2443316" lon="10.6689445"><ele>656.5</ele><time>2026-05-03T12:51:09.479Z</time></trkpt><trkpt lat="44.2442169" lon="10.6688302"><ele>656.75</ele><time>2026-05-03T12:51:10.479Z</time></trkpt><trkpt lat="44.2441287" lon="10.6686471"><ele>657.0</ele><time>2026-05-03T12:51:11.48Z</time></trkpt><trkpt lat="44.2440503" lon="10.6684407"><ele>657.0</ele><time>2026-05-03T12:51:12.48Z</time></trkpt><trkpt lat="44.2439816" lon="10.6682263"><ele>657.0</ele><time>2026-05-03T12:51:13.483Z</time></trkpt><trkpt lat="44.243912" lon="10.6680007"><ele>657.0</ele><time>2026-05-03T12:51:14.487Z</time></trkpt><trkpt lat="44.2438537" lon="10.6677732"><ele>669.0</ele><time>2026-05-03T12:51:15.487Z</time></trkpt><trkpt lat="44.2438007" lon="10.6675428"><ele>681.0</ele><time>2026-05-03T12:51:16.488Z</time></trkpt><trkpt lat="44.2437666" lon="10.6673247"><ele>693.0</ele><time>2026-05-03T12:51:17.489Z</time></trkpt><trkpt lat="44.243718" lon="10.6671323"><ele>693.0</ele><time>2026-05-03T12:51:18.487Z</time></trkpt><trkpt lat="44.2436685" lon="10.6669711"><ele>693.0</ele><time>2026-05-03T12:51:19.492Z</time></trkpt><trkpt lat="44.2436602" lon="10.6668217"><ele>693.0</ele><time>2026-05-03T12:51:20.49Z</time></trkpt><trkpt lat="44.2436941" lon="10.6666721"><ele>693.0</ele><time>2026-05-03T12:51:21.486Z</time></trkpt><trkpt lat="44.2437232" lon="10.6665326"><ele>693.0</ele><time>2026-05-03T12:51:22.488Z</time></trkpt><trkpt lat="44.2437255" lon="10.6663612"><ele>693.6666666666666</ele><time>2026-05-03T12:51:23.488Z</time></trkpt><trkpt lat="44.2437001" lon="10.6661707"><ele>694.3333333333333</ele><time>2026-05-03T12:51:24.49Z</time></trkpt><trkpt lat="44.2436584" lon="10.6659675"><ele>695.0</ele><time>2026-05-03T12:51:25.489Z</time></trkpt><trkpt lat="44.2435869" lon="10.6657629"><ele>692.0</ele><time>2026-05-03T12:51:26.491Z</time></trkpt><trkpt lat="44.2435057" lon="10.66554"><ele>689.0</ele><time>2026-05-03T12:51:27.49Z</time></trkpt><trkpt lat="44.2434217" lon="10.6653274"><ele>686.0</ele><time>2026-05-03T12:51:28.496Z</time></trkpt><trkpt lat="44.2433522" lon="10.6651278"><ele>682.3333333333333</ele><time>2026-05-03T12:51:29.491Z</time></trkpt><trkpt lat="44.243305" lon="10.6649393"><ele>678.6666666666666</ele><time>2026-05-03T12:51:30.486Z</time></trkpt><trkpt lat="44.2432838" lon="10.664729"><ele>675.0</ele><time>2026-05-03T12:51:31.489Z</time></trkpt><trkpt lat="44.2432792" lon="10.6645082"><ele>672.6666666666666</ele><time>2026-05-03T12:51:32.49Z</time></trkpt><trkpt lat="44.2433097" lon="10.6642809"><ele>670.3333333333333</ele><time>2026-05-03T12:51:33.492Z</time></trkpt><trkpt lat="44.2433625" lon="10.6640532"><ele>668.0</ele><time>2026-05-03T12:51:34.486Z</time></trkpt><trkpt lat="44.2434001" lon="10.6638226"><ele>670.3333333333333</ele><time>2026-05-03T12:51:35.492Z</time></trkpt><trkpt lat="44.2434345" lon="10.6635865"><ele>672.6666666666666</ele><time>2026-05-03T12:51:36.488Z</time></trkpt><trkpt lat="44.2434671" lon="10.6633545"><ele>675.0</ele><time>2026-05-03T12:51:37.488Z</time></trkpt><trkpt lat="44.2434974" lon="10.6631255"><ele>675.0</ele><time>2026-05-03T12:51:38.488Z</time></trkpt><trkpt lat="44.2435341" lon="10.662914"><ele>675.0</ele><time>2026-05-03T12:51:39.492Z</time></trkpt><trkpt lat="44.2435612" lon="10.6627101"><ele>675.0</ele><time>2026-05-03T12:51:40.49Z</time></trkpt><trkpt lat="44.243573" lon="10.6624996"><ele>676.5</ele><time>2026-05-03T12:51:41.486Z</time></trkpt><trkpt lat="44.2435575" lon="10.6622923"><ele>678.0</ele><time>2026-05-03T12:51:42.487Z</time></trkpt><trkpt lat="44.243548" lon="10.6620905"><ele>679.5</ele><time>2026-05-03T12:51:43.488Z</time></trkpt><trkpt lat="44.2435498" lon="10.6618825"><ele>681.0</ele><time>2026-05-03T12:51:44.488Z</time></trkpt><trkpt lat="44.2435549" lon="10.661681"><ele>682.25</ele><time>2026-05-03T12:51:45.487Z</time></trkpt><trkpt lat="44.2435453" lon="10.6614768"><ele>683.5</ele><time>2026-05-03T12:51:46.489Z</time></trkpt><trkpt lat="44.2435493" lon="10.6612724"><ele>684.75</ele><time>2026-05-03T12:51:47.487Z</time></trkpt><trkpt lat="44.2435701" lon="10.6610756"><ele>686.0</ele><time>2026-05-03T12:51:48.491Z</time></trkpt><trkpt lat="44.243617" lon="10.6608814"><ele>689.25</ele><time>2026-05-03T12:51:49.489Z</time></trkpt><trkpt lat="44.2436822" lon="10.6607022"><ele>692.5</ele><time>2026-05-03T12:51:50.491Z</time></trkpt><trkpt lat="44.2437516" lon="10.6605265"><ele>695.75</ele><time>2026-05-03T12:51:51.491Z</time></trkpt><trkpt lat="44.2438156" lon="10.6603533"><ele>699.0</ele><time>2026-05-03T12:51:52.491Z</time></trkpt><trkpt lat="44.2438691" lon="10.6601765"><ele>702.25</ele><time>2026-05-03T12:51:53.485Z</time></trkpt><trkpt lat="44.2439149" lon="10.6599855"><ele>705.5</ele><time>2026-05-03T12:51:54.487Z</time></trkpt><trkpt lat="44.2439454" lon="10.6597866"><ele>708.75</ele><time>2026-05-03T12:51:55.491Z</time></trkpt><trkpt lat="44.2439626" lon="10.6595725"><ele>712.0</ele><time>2026-05-03T12:51:56.487Z</time></trkpt><trkpt lat="44.2439784" lon="10.6593674"><ele>695.3333333333334</ele><time>2026-05-03T12:51:57.49Z</time></trkpt><trkpt lat="44.2439933" lon="10.6591431"><ele>678.6666666666666</ele><time>2026-05-03T12:51:58.487Z</time></trkpt><trkpt lat="44.2439921" lon="10.6589158"><ele>662.0</ele><time>2026-05-03T12:51:59.497Z</time></trkpt><trkpt lat="44.2439811" lon="10.6586855"><ele>678.6666666666666</ele><time>2026-05-03T12:52:00.48Z</time></trkpt><trkpt lat="44.243953" lon="10.6584592"><ele>695.3333333333334</ele><time>2026-05-03T12:52:01.486Z</time></trkpt><trkpt lat="44.2439208" lon="10.6582484"><ele>712.0</ele><time>2026-05-03T12:52:02.487Z</time></trkpt><trkpt lat="44.2438872" lon="10.658048"><ele>712.0</ele><time>2026-05-03T12:52:03.487Z</time></trkpt><trkpt lat="44.2438589" lon="10.6578518"><ele>712.0</ele><time>2026-05-03T12:52:04.487Z</time></trkpt><trkpt lat="44.2438023" lon="10.6576621"><ele>712.0</ele><time>2026-05-03T12:52:05.485Z</time></trkpt><trkpt lat="44.2437259" lon="10.6574846"><ele>712.0</ele><time>2026-05-03T12:52:06.482Z</time></trkpt><trkpt lat="44.2436212" lon="10.6573164"><ele>703.6666666666667</ele><time>2026-05-03T12:52:07.484Z</time></trkpt><trkpt lat="44.2435022" lon="10.6571649"><ele>695.3333333333334</ele><time>2026-05-03T12:52:08.494Z</time></trkpt><trkpt lat="44.2433852" lon="10.6570328"><ele>687.0</ele><time>2026-05-03T12:52:09.497Z</time></trkpt><trkpt lat="44.2432398" lon="10.6569396"><ele>683.0</ele><time>2026-05-03T12:52:10.498Z</time></trkpt><trkpt lat="44.2430816" lon="10.6568878"><ele>679.0</ele><time>2026-05-03T12:52:11.494Z</time></trkpt><trkpt lat="44.2429105" lon="10.65687"><ele>675.0</ele><time>2026-05-03T12:52:12.494Z</time></trkpt><trkpt lat="44.2427468" lon="10.6568407"><ele>675.0</ele><time>2026-05-03T12:52:13.49Z</time></trkpt><trkpt lat="44.2425769" lon="10.6568039"><ele>675.0</ele><time>2026-05-03T12:52:14.492Z</time></trkpt><trkpt lat="44.2423969" lon="10.6567592"><ele>675.0</ele><time>2026-05-03T12:52:15.488Z</time></trkpt><trkpt lat="44.2422176" lon="10.6567186"><ele>681.6666666666666</ele><time>2026-05-03T12:52:16.486Z</time></trkpt><trkpt lat="44.2420389" lon="10.6566626"><ele>688.3333333333333</ele><time>2026-05-03T12:52:17.488Z</time></trkpt><trkpt lat="44.2418762" lon="10.6565891"><ele>695.0</ele><time>2026-05-03T12:52:18.485Z</time></trkpt><trkpt lat="44.2417193" lon="10.6564918"><ele>695.0</ele><time>2026-05-03T12:52:19.488Z</time></trkpt><trkpt lat="44.2415687" lon="10.6563866"><ele>695.0</ele><time>2026-05-03T12:52:20.488Z</time></trkpt><trkpt lat="44.2414142" lon="10.656258"><ele>695.0</ele><time>2026-05-03T12:52:21.488Z</time></trkpt><trkpt lat="44.2412661" lon="10.6561342"><ele>692.6666666666666</ele><time>2026-05-03T12:52:22.489Z</time></trkpt><trkpt lat="44.2411262" lon="10.6560352"><ele>690.3333333333334</ele><time>2026-05-03T12:52:23.494Z</time></trkpt><trkpt lat="44.2409718" lon="10.6559548"><ele>688.0</ele><time>2026-05-03T12:52:24.495Z</time></trkpt><trkpt lat="44.2408199" lon="10.655897"><ele>688.0</ele><time>2026-05-03T12:52:25.495Z</time></trkpt><trkpt lat="44.2406599" lon="10.6558279"><ele>688.0</ele><time>2026-05-03T12:52:26.5Z</time></trkpt><trkpt lat="44.2404921" lon="10.6557713"><ele>688.0</ele><time>2026-05-03T12:52:27.493Z</time></trkpt><trkpt lat="44.2403219" lon="10.655697"><ele>690.6666666666667</ele><time>2026-05-03T12:52:28.497Z</time></trkpt><trkpt lat="44.2401443" lon="10.6556247"><ele>693.3333333333334</ele><time>2026-05-03T12:52:29.495Z</time></trkpt><trkpt lat="44.2399574" lon="10.6555589"><ele>696.0</ele><time>2026-05-03T12:52:30.499Z</time></trkpt><trkpt lat="44.2397696" lon="10.6554962"><ele>697.3333333333334</ele><time>2026-05-03T12:52:31.496Z</time></trkpt><trkpt lat="44.23959" lon="10.655452"><ele>698.6666666666667</ele><time>2026-05-03T12:52:32.498Z</time></trkpt><trkpt lat="44.2394143" lon="10.655431"><ele>700.0</ele><time>2026-05-03T12:52:33.492Z</time></trkpt><trkpt lat="44.2392376" lon="10.6554435"><ele>700.0</ele><time>2026-05-03T12:52:34.498Z</time></trkpt><trkpt lat="44.2390636" lon="10.6554893"><ele>700.0</ele><time>2026-05-03T12:52:35.497Z</time></trkpt><trkpt lat="44.2388941" lon="10.6555235"><ele>700.0</ele><time>2026-05-03T12:52:36.495Z</time></trkpt><trkpt lat="44.2387259" lon="10.65554"><ele>700.6666666666667</ele><time>2026-05-03T12:52:37.497Z</time></trkpt><trkpt lat="44.2385575" lon="10.6555287"><ele>701.3333333333334</ele><time>2026-05-03T12:52:38.493Z</time></trkpt><trkpt lat="44.2383985" lon="10.6554889"><ele>702.0</ele><time>2026-05-03T12:52:39.493Z</time></trkpt><trkpt lat="44.238257" lon="10.6554245"><ele>708.75</ele><time>2026-05-03T12:52:40.489Z</time></trkpt><trkpt lat="44.2381308" lon="10.6553214"><ele>715.5</ele><time>2026-05-03T12:52:41.494Z</time></trkpt><trkpt lat="44.2380352" lon="10.6551742"><ele>722.25</ele><time>2026-05-03T12:52:42.49Z</time></trkpt><trkpt lat="44.2379558" lon="10.6549835"><ele>729.0</ele><time>2026-05-03T12:52:43.483Z</time></trkpt><trkpt lat="44.2379045" lon="10.6547787"><ele>729.0</ele><time>2026-05-03T12:52:44.489Z</time></trkpt><trkpt lat="44.2378767" lon="10.6545603"><ele>729.0</ele><time>2026-05-03T12:52:45.48Z</time></trkpt><trkpt lat="44.2378584" lon="10.6543362"><ele>729.0</ele><time>2026-05-03T12:52:46.485Z</time></trkpt><trkpt lat="44.2378502" lon="10.6541235"><ele>726.25</ele><time>2026-05-03T12:52:47.487Z</time></trkpt><trkpt lat="44.237824" lon="10.6539257"><ele>723.5</ele><time>2026-05-03T12:52:48.486Z</time></trkpt><trkpt lat="44.2377764" lon="10.6537448"><ele>720.75</ele><time>2026-05-03T12:52:49.495Z</time></trkpt><trkpt lat="44.2376832" lon="10.6535883"><ele>718.0</ele><time>2026-05-03T12:52:50.498Z</time></trkpt><trkpt lat="44.2375566" lon="10.653457"><ele>708.3333333333334</ele><time>2026-05-03T12:52:51.489Z</time></trkpt><trkpt lat="44.2374116" lon="10.6533848"><ele>698.6666666666666</ele><time>2026-05-03T12:52:52.497Z</time></trkpt><trkpt lat="44.2372556" lon="10.6533535"><ele>689.0</ele><time>2026-05-03T12:52:53.498Z</time></trkpt><trkpt lat="44.2370852" lon="10.6533413"><ele>689.0</ele><time>2026-05-03T12:52:54.492Z</time></trkpt><trkpt lat="44.2369087" lon="10.6533521"><ele>689.0</ele><time>2026-05-03T12:52:55.493Z</time></trkpt><trkpt lat="44.2367309" lon="10.6534005"><ele>689.0</ele><time>2026-05-03T12:52:56.492Z</time></trkpt><trkpt lat="44.2365475" lon="10.653482"><ele>689.3333333333333</ele><time>2026-05-03T12:52:57.489Z</time></trkpt><trkpt lat="44.2363619" lon="10.6535702"><ele>689.6666666666666</ele><time>2026-05-03T12:52:58.49Z</time></trkpt><trkpt lat="44.2361883" lon="10.6536852"><ele>690.0</ele><time>2026-05-03T12:52:59.486Z</time></trkpt><trkpt lat="44.2360193" lon="10.6537561"><ele>696.0</ele><time>2026-05-03T12:53:00.492Z</time></trkpt><trkpt lat="44.235848" lon="10.6538059"><ele>702.0</ele><time>2026-05-03T12:53:01.503Z</time></trkpt><trkpt lat="44.2356793" lon="10.6538451"><ele>708.0</ele><time>2026-05-03T12:53:02.492Z</time></trkpt><trkpt lat="44.2355131" lon="10.6538676"><ele>708.0</ele><time>2026-05-03T12:53:03.493Z</time></trkpt><trkpt lat="44.23536" lon="10.6538874"><ele>708.0</ele><time>2026-05-03T12:53:04.491Z</time></trkpt><trkpt lat="44.2352132" lon="10.6539267"><ele>708.0</ele><time>2026-05-03T12:53:05.49Z</time></trkpt><trkpt lat="44.2350678" lon="10.6539913"><ele>708.0</ele><time>2026-05-03T12:53:06.491Z</time></trkpt><trkpt lat="44.234927" lon="10.6540917"><ele>708.0</ele><time>2026-05-03T12:53:07.491Z</time></trkpt><trkpt lat="44.2347978" lon="10.6542208"><ele>708.0</ele><time>2026-05-03T12:53:08.492Z</time></trkpt><trkpt lat="44.234667" lon="10.654349"><ele>712.0</ele><time>2026-05-03T12:53:09.494Z</time></trkpt><trkpt lat="44.2345369" lon="10.6544905"><ele>716.0</ele><time>2026-05-03T12:53:10.49Z</time></trkpt><trkpt lat="44.2344026" lon="10.6546382"><ele>720.0</ele><time>2026-05-03T12:53:11.492Z</time></trkpt><trkpt lat="44.2342581" lon="10.6547839"><ele>720.0</ele><time>2026-05-03T12:53:12.499Z</time></trkpt><trkpt lat="44.2341196" lon="10.6549172"><ele>720.0</ele><time>2026-05-03T12:53:13.49Z</time></trkpt><trkpt lat="44.2339933" lon="10.6550246"><ele>720.0</ele><time>2026-05-03T12:53:14.491Z</time></trkpt><trkpt lat="44.2338682" lon="10.6551084"><ele>719.6</ele><time>2026-05-03T12:53:15.49Z</time></trkpt><trkpt lat="44.2337406" lon="10.6551824"><ele>719.2</ele><time>2026-05-03T12:53:16.493Z</time></trkpt><trkpt lat="44.2336194" lon="10.6552412"><ele>718.8</ele><time>2026-05-03T12:53:17.49Z</time></trkpt><trkpt lat="44.2335127" lon="10.655265"><ele>718.4</ele><time>2026-05-03T12:53:18.496Z</time></trkpt><trkpt lat="44.2334427" lon="10.6552745"><ele>718.0</ele><time>2026-05-03T12:53:19.494Z</time></trkpt><trkpt lat="44.233369" lon="10.6552756"><ele>718.0</ele><time>2026-05-03T12:53:20.492Z</time></trkpt><trkpt lat="44.2332464" lon="10.6552188"><ele>718.0</ele><time>2026-05-03T12:53:22.488Z</time></trkpt><trkpt lat="44.2331769" lon="10.6551893"><ele>718.0</ele><time>2026-05-03T12:53:23.496Z</time></trkpt><trkpt lat="44.2331011" lon="10.6552152"><ele>718.0</ele><time>2026-05-03T12:53:24.495Z</time></trkpt><trkpt lat="44.2330228" lon="10.6552839"><ele>718.0</ele><time>2026-05-03T12:53:25.493Z</time></trkpt><trkpt lat="44.2329416" lon="10.6553699"><ele>719.8</ele><time>2026-05-03T12:53:26.489Z</time></trkpt><trkpt lat="44.232853" lon="10.6554413"><ele>721.5999999999999</ele><time>2026-05-03T12:53:27.488Z</time></trkpt><trkpt lat="44.2327527" lon="10.6554944"><ele>723.4000000000001</ele><time>2026-05-03T12:53:28.49Z</time></trkpt><trkpt lat="44.2326425" lon="10.655549"><ele>725.2</ele><time>2026-05-03T12:53:29.489Z</time></trkpt><trkpt lat="44.2325362" lon="10.655624"><ele>727.0</ele><time>2026-05-03T12:53:30.491Z</time></trkpt><trkpt lat="44.2324467" lon="10.6557444"><ele>727.0</ele><time>2026-05-03T12:53:31.488Z</time></trkpt><trkpt lat="44.2323796" lon="10.6558831"><ele>727.0</ele><time>2026-05-03T12:53:32.497Z</time></trkpt><trkpt lat="44.232318" lon="10.6560227"><ele>727.0</ele><time>2026-05-03T12:53:33.49Z</time></trkpt><trkpt lat="44.2322402" lon="10.6561379"><ele>727.0</ele><time>2026-05-03T12:53:34.487Z</time></trkpt><trkpt lat="44.2321551" lon="10.6562222"><ele>726.0</ele><time>2026-05-03T12:53:35.49Z</time></trkpt><trkpt lat="44.23206" lon="10.6562564"><ele>725.0</ele><time>2026-05-03T12:53:36.493Z</time></trkpt><trkpt lat="44.231955" lon="10.6562378"><ele>724.0</ele><time>2026-05-03T12:53:37.494Z</time></trkpt><trkpt lat="44.2318404" lon="10.6561708"><ele>723.0</ele><time>2026-05-03T12:53:38.489Z</time></trkpt><trkpt lat="44.2317244" lon="10.6560499"><ele>723.0</ele><time>2026-05-03T12:53:39.49Z</time></trkpt><trkpt lat="44.2316208" lon="10.6559334"><ele>723.0</ele><time>2026-05-03T12:53:40.485Z</time></trkpt><trkpt lat="44.2315262" lon="10.6558317"><ele>723.0</ele><time>2026-05-03T12:53:41.496Z</time></trkpt><trkpt lat="44.2314315" lon="10.6557326"><ele>723.0</ele><time>2026-05-03T12:53:42.487Z</time></trkpt><trkpt lat="44.2313278" lon="10.6556475"><ele>724.5</ele><time>2026-05-03T12:53:43.498Z</time></trkpt><trkpt lat="44.2312183" lon="10.6555648"><ele>726.0</ele><time>2026-05-03T12:53:44.493Z</time></trkpt><trkpt lat="44.2311031" lon="10.655492"><ele>727.5</ele><time>2026-05-03T12:53:45.49Z</time></trkpt><trkpt lat="44.2309851" lon="10.6554298"><ele>729.0</ele><time>2026-05-03T12:53:46.491Z</time></trkpt><trkpt lat="44.2308754" lon="10.6553725"><ele>729.0</ele><time>2026-05-03T12:53:47.492Z</time></trkpt><trkpt lat="44.230769" lon="10.6553067"><ele>729.0</ele><time>2026-05-03T12:53:48.489Z</time></trkpt><trkpt lat="44.2306761" lon="10.6552312"><ele>729.0</ele><time>2026-05-03T12:53:49.5Z</time></trkpt><trkpt lat="44.2306014" lon="10.6551171"><ele>729.0</ele><time>2026-05-03T12:53:50.493Z</time></trkpt><trkpt lat="44.230546" lon="10.6549641"><ele>730.75</ele><time>2026-05-03T12:53:51.492Z</time></trkpt><trkpt lat="44.2304975" lon="10.6547963"><ele>732.5</ele><time>2026-05-03T12:53:52.493Z</time></trkpt><trkpt lat="44.2304494" lon="10.6546327"><ele>734.25</ele><time>2026-05-03T12:53:53.49Z</time></trkpt><trkpt lat="44.2304021" lon="10.654478"><ele>736.0</ele><time>2026-05-03T12:53:54.491Z</time></trkpt><trkpt lat="44.2303609" lon="10.6543309"><ele>736.0</ele><time>2026-05-03T12:53:55.492Z</time></trkpt><trkpt lat="44.2303267" lon="10.6541895"><ele>736.0</ele><time>2026-05-03T12:53:56.491Z</time></trkpt><trkpt lat="44.2303009" lon="10.6540528"><ele>736.0</ele><time>2026-05-03T12:53:57.491Z</time></trkpt><trkpt lat="44.2302948" lon="10.6539229"><ele>736.0</ele><time>2026-05-03T12:53:58.482Z</time></trkpt><trkpt lat="44.2303297" lon="10.653807"><ele>736.0</ele><time>2026-05-03T12:53:59.493Z</time></trkpt><trkpt lat="44.2303912" lon="10.6536905"><ele>736.25</ele><time>2026-05-03T12:54:00.488Z</time></trkpt><trkpt lat="44.2304808" lon="10.6535741"><ele>736.5</ele><time>2026-05-03T12:54:01.487Z</time></trkpt><trkpt lat="44.2305861" lon="10.6534608"><ele>736.75</ele><time>2026-05-03T12:54:02.485Z</time></trkpt><trkpt lat="44.2306934" lon="10.6533577"><ele>737.0</ele><time>2026-05-03T12:54:03.502Z</time></trkpt><trkpt lat="44.2308055" lon="10.6532938"><ele>734.6</ele><time>2026-05-03T12:54:04.487Z</time></trkpt><trkpt lat="44.2309043" lon="10.6532336"><ele>732.2</ele><time>2026-05-03T12:54:05.484Z</time></trkpt><trkpt lat="44.2309789" lon="10.6531609"><ele>729.8</ele><time>2026-05-03T12:54:06.494Z</time></trkpt><trkpt lat="44.2310144" lon="10.6530548"><ele>727.4</ele><time>2026-05-03T12:54:07.494Z</time></trkpt><trkpt lat="44.2310121" lon="10.6529245"><ele>725.0</ele><time>2026-05-03T12:54:08.49Z</time></trkpt><trkpt lat="44.2309905" lon="10.6527798"><ele>725.0</ele><time>2026-05-03T12:54:09.486Z</time></trkpt><trkpt lat="44.2309655" lon="10.6526386"><ele>725.0</ele><time>2026-05-03T12:54:10.489Z</time></trkpt><trkpt lat="44.2309353" lon="10.652496"><ele>725.0</ele><time>2026-05-03T12:54:11.491Z</time></trkpt><trkpt lat="44.2309079" lon="10.6523408"><ele>725.0</ele><time>2026-05-03T12:54:12.491Z</time></trkpt><trkpt lat="44.2308822" lon="10.6521706"><ele>725.0</ele><time>2026-05-03T12:54:13.491Z</time></trkpt><trkpt lat="44.2308571" lon="10.6520003"><ele>725.0</ele><time>2026-05-03T12:54:14.494Z</time></trkpt><trkpt lat="44.230829" lon="10.6518365"><ele>725.0</ele><time>2026-05-03T12:54:15.489Z</time></trkpt><trkpt lat="44.2308009" lon="10.651678"><ele>725.0</ele><time>2026-05-03T12:54:16.486Z</time></trkpt><trkpt lat="44.2307776" lon="10.6515215"><ele>724.0</ele><time>2026-05-03T12:54:17.489Z</time></trkpt><trkpt lat="44.230756" lon="10.6513599"><ele>723.0</ele><time>2026-05-03T12:54:18.486Z</time></trkpt><trkpt lat="44.2307381" lon="10.6511918"><ele>722.0</ele><time>2026-05-03T12:54:19.487Z</time></trkpt><trkpt lat="44.2307246" lon="10.6510215"><ele>721.0</ele><time>2026-05-03T12:54:20.49Z</time></trkpt><trkpt lat="44.2307158" lon="10.6508538"><ele>721.1999999999999</ele><time>2026-05-03T12:54:21.488Z</time></trkpt><trkpt lat="44.2307186" lon="10.6506971"><ele>721.4</ele><time>2026-05-03T12:54:22.485Z</time></trkpt><trkpt lat="44.2307316" lon="10.6505549"><ele>721.6</ele><time>2026-05-03T12:54:23.489Z</time></trkpt><trkpt lat="44.2307561" lon="10.650427"><ele>721.8</ele><time>2026-05-03T12:54:24.486Z</time></trkpt><trkpt lat="44.2307849" lon="10.6503239"><ele>722.0</ele><time>2026-05-03T12:54:25.485Z</time></trkpt><trkpt lat="44.2308365" lon="10.6502013"><ele>722.0</ele><time>2026-05-03T12:54:27.483Z</time></trkpt></trkseg><trkseg><trkpt lat="44.2308907" lon="10.6500213"><ele>722.0</ele><time>2026-05-03T13:11:49.255Z</time></trkpt><trkpt lat="44.2308214" lon="10.6500742"><ele>722.0</ele><time>2026-05-03T13:11:51.295Z</time></trkpt><trkpt lat="44.2308696" lon="10.6501812"><ele>722.0</ele><time>2026-05-03T13:13:16.486Z</time></trkpt><trkpt lat="44.2308553" lon="10.6500409"><ele>722.0</ele><time>2026-05-03T13:13:31.484Z</time></trkpt><trkpt lat="44.2308507" lon="10.6499467"><ele>722.0</ele><time>2026-05-03T13:13:32.48Z</time></trkpt><trkpt lat="44.2308465" lon="10.649829"><ele>722.0</ele><time>2026-05-03T13:13:33.483Z</time></trkpt><trkpt lat="44.230833" lon="10.6496978"><ele>722.0</ele><time>2026-05-03T13:13:34.481Z</time></trkpt><trkpt lat="44.2308108" lon="10.6495737"><ele>722.0</ele><time>2026-05-03T13:13:35.478Z</time></trkpt><trkpt lat="44.2307701" lon="10.6494535"><ele>722.0</ele><time>2026-05-03T13:13:36.479Z</time></trkpt><trkpt lat="44.2307167" lon="10.6493415"><ele>722.0</ele><time>2026-05-03T13:13:37.48Z</time></trkpt><trkpt lat="44.2306597" lon="10.6492278"><ele>722.0</ele><time>2026-05-03T13:13:38.485Z</time></trkpt><trkpt lat="44.2305891" lon="10.6491173"><ele>724.0</ele><time>2026-05-03T13:13:39.48Z</time></trkpt><trkpt lat="44.2305056" lon="10.6490267"><ele>726.0</ele><time>2026-05-03T13:13:40.486Z</time></trkpt><trkpt lat="44.2304056" lon="10.6489778"><ele>728.0</ele><time>2026-05-03T13:13:41.473Z</time></trkpt><trkpt lat="44.2302839" lon="10.6489632"><ele>730.0</ele><time>2026-05-03T13:13:42.471Z</time></trkpt><trkpt lat="44.2301628" lon="10.6489646"><ele>730.0</ele><time>2026-05-03T13:13:43.476Z</time></trkpt><trkpt lat="44.2300438" lon="10.648963"><ele>730.0</ele><time>2026-05-03T13:13:44.475Z</time></trkpt><trkpt lat="44.2299316" lon="10.6489489"><ele>730.0</ele><time>2026-05-03T13:13:45.469Z</time></trkpt><trkpt lat="44.2298186" lon="10.6489179"><ele>730.0</ele><time>2026-05-03T13:13:46.473Z</time></trkpt><trkpt lat="44.2297036" lon="10.6488702"><ele>733.0</ele><time>2026-05-03T13:13:47.472Z</time></trkpt><trkpt lat="44.2295816" lon="10.6488317"><ele>736.0</ele><time>2026-05-03T13:13:48.468Z</time></trkpt><trkpt lat="44.2294498" lon="10.6488066"><ele>739.0</ele><time>2026-05-03T13:13:49.466Z</time></trkpt><trkpt lat="44.2293094" lon="10.6487977"><ele>742.0</ele><time>2026-05-03T13:13:50.469Z</time></trkpt><trkpt lat="44.2291783" lon="10.6487865"><ele>742.0</ele><time>2026-05-03T13:13:51.468Z</time></trkpt><trkpt lat="44.2290527" lon="10.6487485"><ele>742.0</ele><time>2026-05-03T13:13:52.463Z</time></trkpt><trkpt lat="44.2289359" lon="10.6486802"><ele>742.0</ele><time>2026-05-03T13:13:53.473Z</time></trkpt><trkpt lat="44.2288329" lon="10.6485658"><ele>742.0</ele><time>2026-05-03T13:13:54.467Z</time></trkpt><trkpt lat="44.2287491" lon="10.6484197"><ele>741.75</ele><time>2026-05-03T13:13:55.466Z</time></trkpt><trkpt lat="44.2286885" lon="10.6482362"><ele>741.5</ele><time>2026-05-03T13:13:56.466Z</time></trkpt><trkpt lat="44.2286659" lon="10.6480324"><ele>741.25</ele><time>2026-05-03T13:13:57.47Z</time></trkpt><trkpt lat="44.228661" lon="10.6478551"><ele>741.0</ele><time>2026-05-03T13:13:58.465Z</time></trkpt><trkpt lat="44.2286438" lon="10.6476998"><ele>741.0</ele><time>2026-05-03T13:13:59.466Z</time></trkpt><trkpt lat="44.2286243" lon="10.6475577"><ele>741.0</ele><time>2026-05-03T13:14:00.473Z</time></trkpt><trkpt lat="44.2285682" lon="10.6474201"><ele>741.0</ele><time>2026-05-03T13:14:01.467Z</time></trkpt><trkpt lat="44.2284902" lon="10.6473035"><ele>741.0</ele><time>2026-05-03T13:14:02.467Z</time></trkpt><trkpt lat="44.2284081" lon="10.6471776"><ele>741.0</ele><time>2026-05-03T13:14:03.467Z</time></trkpt><trkpt lat="44.2283334" lon="10.6470487"><ele>741.0</ele><time>2026-05-03T13:14:04.479Z</time></trkpt><trkpt lat="44.2282718" lon="10.6469145"><ele>741.0</ele><time>2026-05-03T13:14:05.472Z</time></trkpt><trkpt lat="44.2282212" lon="10.6467936"><ele>741.0</ele><time>2026-05-03T13:14:06.476Z</time></trkpt><trkpt lat="44.2281622" lon="10.6466898"><ele>741.0</ele><time>2026-05-03T13:14:07.473Z</time></trkpt><trkpt lat="44.2280828" lon="10.6466081"><ele>744.5999999999999</ele><time>2026-05-03T13:14:08.479Z</time></trkpt><trkpt lat="44.2279994" lon="10.6465299"><ele>748.2</ele><time>2026-05-03T13:14:09.472Z</time></trkpt><trkpt lat="44.2278992" lon="10.6464608"><ele>751.8</ele><time>2026-05-03T13:14:10.467Z</time></trkpt><trkpt lat="44.2277989" lon="10.6463963"><ele>755.4000000000001</ele><time>2026-05-03T13:14:11.465Z</time></trkpt><trkpt lat="44.2277205" lon="10.646334"><ele>759.0</ele><time>2026-05-03T13:14:12.466Z</time></trkpt><trkpt lat="44.2276577" lon="10.6462449"><ele>758.4000000000001</ele><time>2026-05-03T13:14:13.472Z</time></trkpt><trkpt lat="44.2276313" lon="10.6461256"><ele>757.8</ele><time>2026-05-03T13:14:14.475Z</time></trkpt><trkpt lat="44.2276523" lon="10.6459829"><ele>757.2</ele><time>2026-05-03T13:14:15.469Z</time></trkpt><trkpt lat="44.2277126" lon="10.645841"><ele>756.5999999999999</ele><time>2026-05-03T13:14:16.471Z</time></trkpt><trkpt lat="44.2278012" lon="10.6457391"><ele>756.0</ele><time>2026-05-03T13:14:17.469Z</time></trkpt><trkpt lat="44.2278828" lon="10.6456567"><ele>756.0</ele><time>2026-05-03T13:14:18.474Z</time></trkpt><trkpt lat="44.2279486" lon="10.6455706"><ele>756.0</ele><time>2026-05-03T13:14:19.48Z</time></trkpt><trkpt lat="44.2279705" lon="10.6454594"><ele>756.0</ele><time>2026-05-03T13:14:20.475Z</time></trkpt><trkpt lat="44.2279657" lon="10.6453443"><ele>756.0</ele><time>2026-05-03T13:14:21.468Z</time></trkpt><trkpt lat="44.2279356" lon="10.6452182"><ele>756.0</ele><time>2026-05-03T13:14:22.476Z</time></trkpt><trkpt lat="44.2278932" lon="10.6450747"><ele>755.0</ele><time>2026-05-03T13:14:23.472Z</time></trkpt><trkpt lat="44.2278479" lon="10.6449248"><ele>754.0</ele><time>2026-05-03T13:14:24.475Z</time></trkpt><trkpt lat="44.2278017" lon="10.6447693"><ele>753.0</ele><time>2026-05-03T13:14:25.468Z</time></trkpt><trkpt lat="44.2277434" lon="10.6446057"><ele>752.0</ele><time>2026-05-03T13:14:26.464Z</time></trkpt><trkpt lat="44.2276751" lon="10.6444374"><ele>750.0</ele><time>2026-05-03T13:14:27.474Z</time></trkpt><trkpt lat="44.227602" lon="10.6442849"><ele>748.0</ele><time>2026-05-03T13:14:28.466Z</time></trkpt><trkpt lat="44.2275257" lon="10.6441374"><ele>746.0</ele><time>2026-05-03T13:14:29.472Z</time></trkpt><trkpt lat="44.2274491" lon="10.6439984"><ele>744.0</ele><time>2026-05-03T13:14:30.471Z</time></trkpt><trkpt lat="44.2273797" lon="10.6438719"><ele>744.0</ele><time>2026-05-03T13:14:31.47Z</time></trkpt><trkpt lat="44.2273282" lon="10.6437426"><ele>744.0</ele><time>2026-05-03T13:14:32.465Z</time></trkpt><trkpt lat="44.2272924" lon="10.643586"><ele>744.0</ele><time>2026-05-03T13:14:33.474Z</time></trkpt><trkpt lat="44.227288" lon="10.6434386"><ele>744.0</ele><time>2026-05-03T13:14:34.475Z</time></trkpt><trkpt lat="44.2273288" lon="10.6433119"><ele>744.0</ele><time>2026-05-03T13:14:35.472Z</time></trkpt><trkpt lat="44.2273675" lon="10.6431944"><ele>743.0</ele><time>2026-05-03T13:14:36.474Z</time></trkpt><trkpt lat="44.2273863" lon="10.6430763"><ele>742.0</ele><time>2026-05-03T13:14:37.469Z</time></trkpt><trkpt lat="44.2273912" lon="10.6429376"><ele>741.0</ele><time>2026-05-03T13:14:38.473Z</time></trkpt><trkpt lat="44.2273914" lon="10.6427782"><ele>740.0</ele><time>2026-05-03T13:14:39.477Z</time></trkpt><trkpt lat="44.2273927" lon="10.642612"><ele>739.0</ele><time>2026-05-03T13:14:40.48Z</time></trkpt><trkpt lat="44.2273829" lon="10.6424463"><ele>737.6</ele><time>2026-05-03T13:14:41.477Z</time></trkpt><trkpt lat="44.227365" lon="10.6422838"><ele>736.2</ele><time>2026-05-03T13:14:42.473Z</time></trkpt><trkpt lat="44.2273301" lon="10.6421385"><ele>734.8000000000001</ele><time>2026-05-03T13:14:43.477Z</time></trkpt><trkpt lat="44.2272718" lon="10.6420265"><ele>733.4000000000001</ele><time>2026-05-03T13:14:44.498Z</time></trkpt><trkpt lat="44.2272154" lon="10.6419543"><ele>732.0</ele><time>2026-05-03T13:14:45.477Z</time></trkpt><trkpt lat="44.2271306" lon="10.6419062"><ele>736.4000000000001</ele><time>2026-05-03T13:14:47.483Z</time></trkpt><trkpt lat="44.2270612" lon="10.6418882"><ele>740.8000000000001</ele><time>2026-05-03T13:14:50.482Z</time></trkpt><trkpt lat="44.2269435" lon="10.6418882"><ele>745.2</ele><time>2026-05-03T13:15:05.465Z</time></trkpt><trkpt lat="44.2268611" lon="10.641863"><ele>749.6</ele><time>2026-05-03T13:15:06.465Z</time></trkpt><trkpt lat="44.2267696" lon="10.6418129"><ele>754.0</ele><time>2026-05-03T13:15:07.466Z</time></trkpt><trkpt lat="44.2266896" lon="10.6417127"><ele>754.0</ele><time>2026-05-03T13:15:08.458Z</time></trkpt><trkpt lat="44.2266266" lon="10.6415506"><ele>754.0</ele><time>2026-05-03T13:15:09.467Z</time></trkpt><trkpt lat="44.2265777" lon="10.6413488"><ele>754.0</ele><time>2026-05-03T13:15:10.459Z</time></trkpt><trkpt lat="44.2265206" lon="10.6411591"><ele>754.0</ele><time>2026-05-03T13:15:11.458Z</time></trkpt><trkpt lat="44.2264669" lon="10.6409701"><ele>764.0</ele><time>2026-05-03T13:15:12.458Z</time></trkpt><trkpt lat="44.2264063" lon="10.6407711"><ele>774.0</ele><time>2026-05-03T13:15:13.461Z</time></trkpt><trkpt lat="44.2263334" lon="10.6405503"><ele>784.0</ele><time>2026-05-03T13:15:14.464Z</time></trkpt><trkpt lat="44.226253" lon="10.6403377"><ele>779.25</ele><time>2026-05-03T13:15:15.458Z</time></trkpt><trkpt lat="44.2261513" lon="10.6401369"><ele>774.5</ele><time>2026-05-03T13:15:16.461Z</time></trkpt><trkpt lat="44.2260546" lon="10.6399758"><ele>769.75</ele><time>2026-05-03T13:15:17.461Z</time></trkpt><trkpt lat="44.2259955" lon="10.6398534"><ele>765.0</ele><time>2026-05-03T13:15:18.462Z</time></trkpt><trkpt lat="44.2259986" lon="10.6397166"><ele>765.0</ele><time>2026-05-03T13:15:19.465Z</time></trkpt><trkpt lat="44.2259844" lon="10.639549"><ele>765.0</ele><time>2026-05-03T13:15:20.459Z</time></trkpt><trkpt lat="44.2259441" lon="10.6393626"><ele>765.0</ele><time>2026-05-03T13:15:21.461Z</time></trkpt><trkpt lat="44.2258677" lon="10.6392003"><ele>765.0</ele><time>2026-05-03T13:15:22.471Z</time></trkpt><trkpt lat="44.2257416" lon="10.6390661"><ele>761.6666666666666</ele><time>2026-05-03T13:15:23.468Z</time></trkpt><trkpt lat="44.225606" lon="10.6389155"><ele>758.3333333333333</ele><time>2026-05-03T13:15:24.464Z</time></trkpt><trkpt lat="44.225473" lon="10.638738"><ele>755.0</ele><time>2026-05-03T13:15:25.463Z</time></trkpt><trkpt lat="44.2253329" lon="10.6385564"><ele>755.0</ele><time>2026-05-03T13:15:26.459Z</time></trkpt><trkpt lat="44.2251884" lon="10.6383948"><ele>755.0</ele><time>2026-05-03T13:15:27.468Z</time></trkpt><trkpt lat="44.2250448" lon="10.6382606"><ele>755.0</ele><time>2026-05-03T13:15:28.461Z</time></trkpt><trkpt lat="44.2249213" lon="10.6381373"><ele>755.0</ele><time>2026-05-03T13:15:29.465Z</time></trkpt><trkpt lat="44.2248166" lon="10.6379853"><ele>755.0</ele><time>2026-05-03T13:15:30.456Z</time></trkpt><trkpt lat="44.2247157" lon="10.6378042"><ele>755.0</ele><time>2026-05-03T13:15:31.457Z</time></trkpt><trkpt lat="44.2246078" lon="10.6376469"><ele>752.25</ele><time>2026-05-03T13:15:32.459Z</time></trkpt><trkpt lat="44.2244864" lon="10.6375314"><ele>749.5</ele><time>2026-05-03T13:15:33.462Z</time></trkpt><trkpt lat="44.22436" lon="10.6374756"><ele>746.75</ele><time>2026-05-03T13:15:34.458Z</time></trkpt><trkpt lat="44.2242202" lon="10.6374398"><ele>744.0</ele><time>2026-05-03T13:15:35.465Z</time></trkpt><trkpt lat="44.2240471" lon="10.6374179"><ele>747.6666666666666</ele><time>2026-05-03T13:15:36.465Z</time></trkpt><trkpt lat="44.22387" lon="10.6374024"><ele>751.3333333333333</ele><time>2026-05-03T13:15:37.47Z</time></trkpt><trkpt lat="44.2237113" lon="10.6374038"><ele>755.0</ele><time>2026-05-03T13:15:38.461Z</time></trkpt><trkpt lat="44.2235661" lon="10.6374168"><ele>755.0</ele><time>2026-05-03T13:15:39.47Z</time></trkpt><trkpt lat="44.2234262" lon="10.6374029"><ele>755.0</ele><time>2026-05-03T13:15:40.466Z</time></trkpt><trkpt lat="44.2232967" lon="10.6373789"><ele>755.0</ele><time>2026-05-03T13:15:41.462Z</time></trkpt><trkpt lat="44.2231791" lon="10.6373489"><ele>755.0</ele><time>2026-05-03T13:15:42.463Z</time></trkpt><trkpt lat="44.223065" lon="10.6373127"><ele>760.0</ele><time>2026-05-03T13:15:43.463Z</time></trkpt><trkpt lat="44.2229416" lon="10.6372862"><ele>765.0</ele><time>2026-05-03T13:15:44.469Z</time></trkpt><trkpt lat="44.2228151" lon="10.6372625"><ele>770.0</ele><time>2026-05-03T13:15:45.464Z</time></trkpt><trkpt lat="44.2226939" lon="10.6372269"><ele>775.0</ele><time>2026-05-03T13:15:46.462Z</time></trkpt><trkpt lat="44.2225792" lon="10.6371798"><ele>775.0</ele><time>2026-05-03T13:15:47.457Z</time></trkpt><trkpt lat="44.2224789" lon="10.6371221"><ele>775.0</ele><time>2026-05-03T13:15:48.448Z</time></trkpt><trkpt lat="44.2223873" lon="10.6370384"><ele>775.0</ele><time>2026-05-03T13:15:49.453Z</time></trkpt><trkpt lat="44.2222897" lon="10.6369346"><ele>775.0</ele><time>2026-05-03T13:15:50.456Z</time></trkpt><trkpt lat="44.2221804" lon="10.6368125"><ele>771.75</ele><time>2026-05-03T13:15:51.465Z</time></trkpt><trkpt lat="44.2220664" lon="10.636694"><ele>768.5</ele><time>2026-05-03T13:15:52.463Z</time></trkpt><trkpt lat="44.2219552" lon="10.6365838"><ele>765.25</ele><time>2026-05-03T13:15:53.46Z</time></trkpt><trkpt lat="44.2218388" lon="10.6365077"><ele>762.0</ele><time>2026-05-03T13:15:54.462Z</time></trkpt><trkpt lat="44.2217143" lon="10.6364564"><ele>762.0</ele><time>2026-05-03T13:15:55.463Z</time></trkpt><trkpt lat="44.2215925" lon="10.6364117"><ele>762.0</ele><time>2026-05-03T13:15:56.463Z</time></trkpt><trkpt lat="44.2214666" lon="10.6363559"><ele>762.0</ele><time>2026-05-03T13:15:57.463Z</time></trkpt><trkpt lat="44.2213407" lon="10.6362913"><ele>762.0</ele><time>2026-05-03T13:15:58.462Z</time></trkpt><trkpt lat="44.2212157" lon="10.6361913"><ele>762.0</ele><time>2026-05-03T13:15:59.462Z</time></trkpt><trkpt lat="44.2211062" lon="10.6360579"><ele>762.0</ele><time>2026-05-03T13:16:00.466Z</time></trkpt><trkpt lat="44.2210064" lon="10.6359347"><ele>762.0</ele><time>2026-05-03T13:16:01.463Z</time></trkpt><trkpt lat="44.2209043" lon="10.6358309"><ele>762.0</ele><time>2026-05-03T13:16:02.462Z</time></trkpt><trkpt lat="44.2208051" lon="10.6357348"><ele>762.0</ele><time>2026-05-03T13:16:03.465Z</time></trkpt><trkpt lat="44.2207252" lon="10.6356492"><ele>762.0</ele><time>2026-05-03T13:16:04.46Z</time></trkpt><trkpt lat="44.2206774" lon="10.6355425"><ele>762.0</ele><time>2026-05-03T13:16:05.464Z</time></trkpt><trkpt lat="44.2206456" lon="10.6354148"><ele>762.0</ele><time>2026-05-03T13:16:06.469Z</time></trkpt><trkpt lat="44.2206233" lon="10.6352758"><ele>762.0</ele><time>2026-05-03T13:16:07.464Z</time></trkpt><trkpt lat="44.2205876" lon="10.6351429"><ele>761.8</ele><time>2026-05-03T13:16:08.466Z</time></trkpt><trkpt lat="44.220551" lon="10.6350164"><ele>761.6</ele><time>2026-05-03T13:16:09.472Z</time></trkpt><trkpt lat="44.220506" lon="10.634887"><ele>761.4</ele><time>2026-05-03T13:16:10.48Z</time></trkpt><trkpt lat="44.2204457" lon="10.6347708"><ele>761.1999999999999</ele><time>2026-05-03T13:16:11.481Z</time></trkpt><trkpt lat="44.2203774" lon="10.6346729"><ele>761.0</ele><time>2026-05-03T13:16:12.475Z</time></trkpt><trkpt lat="44.2202977" lon="10.634587"><ele>761.0</ele><time>2026-05-03T13:16:13.48Z</time></trkpt><trkpt lat="44.2202046" lon="10.6345242"><ele>761.0</ele><time>2026-05-03T13:16:14.486Z</time></trkpt><trkpt lat="44.2200891" lon="10.6344928"><ele>761.0</ele><time>2026-05-03T13:16:15.479Z</time></trkpt><trkpt lat="44.2199625" lon="10.6344879"><ele>761.0</ele><time>2026-05-03T13:16:16.481Z</time></trkpt><trkpt lat="44.2198343" lon="10.6345095"><ele>763.75</ele><time>2026-05-03T13:16:17.481Z</time></trkpt><trkpt lat="44.2197023" lon="10.6345429"><ele>766.5</ele><time>2026-05-03T13:16:18.481Z</time></trkpt><trkpt lat="44.2195686" lon="10.6345516"><ele>769.25</ele><time>2026-05-03T13:16:19.481Z</time></trkpt><trkpt lat="44.21945" lon="10.6345274"><ele>772.0</ele><time>2026-05-03T13:16:20.477Z</time></trkpt><trkpt lat="44.2193274" lon="10.6344674"><ele>766.0</ele><time>2026-05-03T13:16:21.48Z</time></trkpt><trkpt lat="44.2192112" lon="10.6343884"><ele>760.0</ele><time>2026-05-03T13:16:22.484Z</time></trkpt><trkpt lat="44.2190948" lon="10.6343302"><ele>754.0</ele><time>2026-05-03T13:16:23.479Z</time></trkpt><trkpt lat="44.2189808" lon="10.6342878"><ele>748.0</ele><time>2026-05-03T13:16:24.473Z</time></trkpt><trkpt lat="44.218865" lon="10.6342682"><ele>748.0</ele><time>2026-05-03T13:16:25.473Z</time></trkpt><trkpt lat="44.2187455" lon="10.6342614"><ele>748.0</ele><time>2026-05-03T13:16:26.468Z</time></trkpt><trkpt lat="44.2186288" lon="10.6342561"><ele>748.0</ele><time>2026-05-03T13:16:27.476Z</time></trkpt><trkpt lat="44.2185143" lon="10.6342479"><ele>748.0</ele><time>2026-05-03T13:16:28.483Z</time></trkpt><trkpt lat="44.2183999" lon="10.6342252"><ele>748.0</ele><time>2026-05-03T13:16:29.473Z</time></trkpt><trkpt lat="44.2182892" lon="10.6341904"><ele>748.0</ele><time>2026-05-03T13:16:30.48Z</time></trkpt><trkpt lat="44.2181796" lon="10.6341321"><ele>748.0</ele><time>2026-05-03T13:16:31.473Z</time></trkpt><trkpt lat="44.2180751" lon="10.634055"><ele>748.0</ele><time>2026-05-03T13:16:32.474Z</time></trkpt><trkpt lat="44.217981" lon="10.6339569"><ele>750.0</ele><time>2026-05-03T13:16:33.469Z</time></trkpt><trkpt lat="44.2178948" lon="10.6338433"><ele>752.0</ele><time>2026-05-03T13:16:34.474Z</time></trkpt><trkpt lat="44.2178061" lon="10.633687"><ele>754.0</ele><time>2026-05-03T13:16:35.475Z</time></trkpt><trkpt lat="44.2177177" lon="10.6335294"><ele>756.0</ele><time>2026-05-03T13:16:36.47Z</time></trkpt><trkpt lat="44.217637" lon="10.6333818"><ele>756.0</ele><time>2026-05-03T13:16:37.475Z</time></trkpt><trkpt lat="44.2175678" lon="10.6332579"><ele>756.0</ele><time>2026-05-03T13:16:38.479Z</time></trkpt><trkpt lat="44.2175083" lon="10.6331643"><ele>756.0</ele><time>2026-05-03T13:16:39.476Z</time></trkpt><trkpt lat="44.2174503" lon="10.6330886"><ele>756.0</ele><time>2026-05-03T13:16:40.476Z</time></trkpt><trkpt lat="44.217385" lon="10.6330336"><ele>756.0</ele><time>2026-05-03T13:16:41.475Z</time></trkpt><trkpt lat="44.2173061" lon="10.6329871"><ele>756.0</ele><time>2026-05-03T13:16:42.47Z</time></trkpt><trkpt lat="44.2172231" lon="10.6329396"><ele>760.5999999999999</ele><time>2026-05-03T13:16:43.479Z</time></trkpt><trkpt lat="44.2171484" lon="10.6328616"><ele>765.2</ele><time>2026-05-03T13:16:44.48Z</time></trkpt><trkpt lat="44.2170933" lon="10.6327484"><ele>769.8</ele><time>2026-05-03T13:16:45.477Z</time></trkpt><trkpt lat="44.2170559" lon="10.6326066"><ele>774.4000000000001</ele><time>2026-05-03T13:16:46.459Z</time></trkpt><trkpt lat="44.2170472" lon="10.6324474"><ele>779.0</ele><time>2026-05-03T13:16:47.477Z</time></trkpt><trkpt lat="44.2170273" lon="10.6322856"><ele>779.0</ele><time>2026-05-03T13:16:48.482Z</time></trkpt><trkpt lat="44.2169865" lon="10.6321332"><ele>779.0</ele><time>2026-05-03T13:16:49.477Z</time></trkpt><trkpt lat="44.2169407" lon="10.6319918"><ele>779.0</ele><time>2026-05-03T13:16:50.476Z</time></trkpt><trkpt lat="44.2168716" lon="10.6318526"><ele>779.0</ele><time>2026-05-03T13:16:51.478Z</time></trkpt><trkpt lat="44.2167913" lon="10.6317375"><ele>776.75</ele><time>2026-05-03T13:16:52.483Z</time></trkpt><trkpt lat="44.2167049" lon="10.6316374"><ele>774.5</ele><time>2026-05-03T13:16:53.483Z</time></trkpt><trkpt lat="44.216615" lon="10.6315612"><ele>772.25</ele><time>2026-05-03T13:16:54.482Z</time></trkpt><trkpt lat="44.2165125" lon="10.6314923"><ele>770.0</ele><time>2026-05-03T13:16:55.484Z</time></trkpt><trkpt lat="44.2164044" lon="10.6314145"><ele>770.0</ele><time>2026-05-03T13:16:56.486Z</time></trkpt><trkpt lat="44.2162987" lon="10.6313377"><ele>770.0</ele><time>2026-05-03T13:16:57.482Z</time></trkpt><trkpt lat="44.2161838" lon="10.6312452"><ele>770.0</ele><time>2026-05-03T13:16:58.484Z</time></trkpt><trkpt lat="44.2160738" lon="10.6311417"><ele>770.0</ele><time>2026-05-03T13:16:59.485Z</time></trkpt><trkpt lat="44.2159702" lon="10.6310246"><ele>762.25</ele><time>2026-05-03T13:17:00.485Z</time></trkpt><trkpt lat="44.2158698" lon="10.6309254"><ele>754.5</ele><time>2026-05-03T13:17:01.481Z</time></trkpt><trkpt lat="44.2157678" lon="10.6308344"><ele>746.75</ele><time>2026-05-03T13:17:02.488Z</time></trkpt><trkpt lat="44.2156655" lon="10.6307702"><ele>739.0</ele><time>2026-05-03T13:17:03.478Z</time></trkpt><trkpt lat="44.2155744" lon="10.6307357"><ele>738.5</ele><time>2026-05-03T13:17:04.477Z</time></trkpt><trkpt lat="44.2155" lon="10.6307208"><ele>738.0</ele><time>2026-05-03T13:17:05.476Z</time></trkpt><trkpt lat="44.215436" lon="10.6307033"><ele>737.5</ele><time>2026-05-03T13:17:06.474Z</time></trkpt><trkpt lat="44.2153393" lon="10.6306733"><ele>737.0</ele><time>2026-05-03T13:17:08.483Z</time></trkpt><trkpt lat="44.2152641" lon="10.6306343"><ele>736.5</ele><time>2026-05-03T13:17:10.484Z</time></trkpt><trkpt lat="44.2152309" lon="10.6305431"><ele>736.0</ele><time>2026-05-03T13:17:12.486Z</time></trkpt><trkpt lat="44.2152363" lon="10.6304553"><ele>736.0</ele><time>2026-05-03T13:17:13.485Z</time></trkpt><trkpt lat="44.2152567" lon="10.6303231"><ele>736.0</ele><time>2026-05-03T13:17:14.498Z</time></trkpt><trkpt lat="44.21528" lon="10.6301804"><ele>736.0</ele><time>2026-05-03T13:17:15.489Z</time></trkpt><trkpt lat="44.2152949" lon="10.6300293"><ele>736.0</ele><time>2026-05-03T13:17:16.486Z</time></trkpt><trkpt lat="44.2153065" lon="10.6298882"><ele>736.0</ele><time>2026-05-03T13:17:17.486Z</time></trkpt><trkpt lat="44.2153025" lon="10.6297612"><ele>734.5999999999999</ele><time>2026-05-03T13:17:18.493Z</time></trkpt><trkpt lat="44.2152708" lon="10.62964"><ele>733.2</ele><time>2026-05-03T13:17:19.483Z</time></trkpt><trkpt lat="44.2152086" lon="10.6295244"><ele>731.8</ele><time>2026-05-03T13:17:20.483Z</time></trkpt><trkpt lat="44.2151281" lon="10.629417"><ele>730.4000000000001</ele><time>2026-05-03T13:17:21.479Z</time></trkpt><trkpt lat="44.2150293" lon="10.6293237"><ele>729.0</ele><time>2026-05-03T13:17:22.479Z</time></trkpt><trkpt lat="44.2149021" lon="10.6292614"><ele>735.3333333333334</ele><time>2026-05-03T13:17:23.481Z</time></trkpt><trkpt lat="44.2147507" lon="10.6292332"><ele>741.6666666666667</ele><time>2026-05-03T13:17:24.481Z</time></trkpt><trkpt lat="44.2145988" lon="10.6292309"><ele>748.0</ele><time>2026-05-03T13:17:25.481Z</time></trkpt><trkpt lat="44.2144464" lon="10.629254"><ele>748.0</ele><time>2026-05-03T13:17:26.476Z</time></trkpt><trkpt lat="44.2142873" lon="10.629313"><ele>748.0</ele><time>2026-05-03T13:17:27.478Z</time></trkpt><trkpt lat="44.2141526" lon="10.629365"><ele>748.0</ele><time>2026-05-03T13:17:28.474Z</time></trkpt><trkpt lat="44.2140253" lon="10.6293996"><ele>748.0</ele><time>2026-05-03T13:17:29.476Z</time></trkpt><trkpt lat="44.2138934" lon="10.6294408"><ele>743.75</ele><time>2026-05-03T13:17:30.478Z</time></trkpt><trkpt lat="44.21376" lon="10.6294867"><ele>739.5</ele><time>2026-05-03T13:17:31.476Z</time></trkpt><trkpt lat="44.2136122" lon="10.6295455"><ele>735.25</ele><time>2026-05-03T13:17:32.474Z</time></trkpt><trkpt lat="44.2134649" lon="10.629612"><ele>731.0</ele><time>2026-05-03T13:17:33.478Z</time></trkpt><trkpt lat="44.213346" lon="10.629655"><ele>731.0</ele><time>2026-05-03T13:17:34.475Z</time></trkpt><trkpt lat="44.2132402" lon="10.6296598"><ele>731.0</ele><time>2026-05-03T13:17:35.473Z</time></trkpt><trkpt lat="44.2131453" lon="10.6296119"><ele>731.0</ele><time>2026-05-03T13:17:36.485Z</time></trkpt><trkpt lat="44.2130676" lon="10.6295173"><ele>731.0</ele><time>2026-05-03T13:17:37.476Z</time></trkpt><trkpt lat="44.2129823" lon="10.629373"><ele>731.0</ele><time>2026-05-03T13:17:38.478Z</time></trkpt><trkpt lat="44.212914" lon="10.6292159"><ele>733.75</ele><time>2026-05-03T13:17:39.474Z</time></trkpt><trkpt lat="44.2128592" lon="10.6290488"><ele>736.5</ele><time>2026-05-03T13:17:40.472Z</time></trkpt><trkpt lat="44.2128021" lon="10.6288796"><ele>739.25</ele><time>2026-05-03T13:17:41.469Z</time></trkpt><trkpt lat="44.2127348" lon="10.6287147"><ele>742.0</ele><time>2026-05-03T13:17:42.475Z</time></trkpt><trkpt lat="44.212663" lon="10.6285462"><ele>744.0</ele><time>2026-05-03T13:17:43.471Z</time></trkpt><trkpt lat="44.2125924" lon="10.6283608"><ele>746.0</ele><time>2026-05-03T13:17:44.475Z</time></trkpt><trkpt lat="44.2125246" lon="10.6281717"><ele>748.0</ele><time>2026-05-03T13:17:45.468Z</time></trkpt><trkpt lat="44.2124554" lon="10.6279943"><ele>750.0</ele><time>2026-05-03T13:17:46.473Z</time></trkpt><trkpt lat="44.2123955" lon="10.6278291"><ele>750.2</ele><time>2026-05-03T13:17:47.469Z</time></trkpt><trkpt lat="44.2123287" lon="10.6276804"><ele>750.4</ele><time>2026-05-03T13:17:48.469Z</time></trkpt><trkpt lat="44.2122719" lon="10.6275481"><ele>750.5999999999999</ele><time>2026-05-03T13:17:49.48Z</time></trkpt><trkpt lat="44.2122138" lon="10.6274189"><ele>750.8</ele><time>2026-05-03T13:17:50.461Z</time></trkpt><trkpt lat="44.2121713" lon="10.6272935"><ele>751.0</ele><time>2026-05-03T13:17:51.483Z</time></trkpt><trkpt lat="44.2121391" lon="10.6271309"><ele>748.25</ele><time>2026-05-03T13:17:52.478Z</time></trkpt><trkpt lat="44.2121147" lon="10.6269399"><ele>745.5</ele><time>2026-05-03T13:17:53.481Z</time></trkpt><trkpt lat="44.2121068" lon="10.6267402"><ele>742.75</ele><time>2026-05-03T13:17:54.48Z</time></trkpt><trkpt lat="44.2121185" lon="10.6265288"><ele>740.0</ele><time>2026-05-03T13:17:55.492Z</time></trkpt><trkpt lat="44.2121494" lon="10.626317"><ele>738.25</ele><time>2026-05-03T13:17:56.486Z</time></trkpt><trkpt lat="44.2121852" lon="10.6261036"><ele>736.5</ele><time>2026-05-03T13:17:57.484Z</time></trkpt><trkpt lat="44.2122268" lon="10.6259057"><ele>734.75</ele><time>2026-05-03T13:17:58.488Z</time></trkpt><trkpt lat="44.2122602" lon="10.6257102"><ele>733.0</ele><time>2026-05-03T13:17:59.482Z</time></trkpt><trkpt lat="44.2122806" lon="10.6255373"><ele>733.0</ele><time>2026-05-03T13:18:00.484Z</time></trkpt><trkpt lat="44.2122881" lon="10.6253741"><ele>733.0</ele><time>2026-05-03T13:18:01.48Z</time></trkpt><trkpt lat="44.2122813" lon="10.6252323"><ele>733.0</ele><time>2026-05-03T13:18:02.472Z</time></trkpt><trkpt lat="44.2122641" lon="10.6251071"><ele>733.0</ele><time>2026-05-03T13:18:03.476Z</time></trkpt><trkpt lat="44.2122525" lon="10.6249878"><ele>733.0</ele><time>2026-05-03T13:18:04.473Z</time></trkpt><trkpt lat="44.2122331" lon="10.6248849"><ele>732.8571428571428</ele><time>2026-05-03T13:18:05.484Z</time></trkpt><trkpt lat="44.2122256" lon="10.6247789"><ele>732.7142857142857</ele><time>2026-05-03T13:18:06.474Z</time></trkpt><trkpt lat="44.2122148" lon="10.6246679"><ele>732.5714285714286</ele><time>2026-05-03T13:18:07.476Z</time></trkpt><trkpt lat="44.2121937" lon="10.6245697"><ele>732.4285714285713</ele><time>2026-05-03T13:18:08.482Z</time></trkpt><trkpt lat="44.2121735" lon="10.6244748"><ele>732.2857142857143</ele><time>2026-05-03T13:18:09.48Z</time></trkpt><trkpt lat="44.2121505" lon="10.6243846"><ele>732.1428571428571</ele><time>2026-05-03T13:18:10.488Z</time></trkpt><trkpt lat="44.2121282" lon="10.6242886"><ele>732.0</ele><time>2026-05-03T13:18:11.478Z</time></trkpt><trkpt lat="44.2121076" lon="10.6241807"><ele>733.6</ele><time>2026-05-03T13:18:12.481Z</time></trkpt><trkpt lat="44.2120775" lon="10.6240572"><ele>735.2</ele><time>2026-05-03T13:18:13.477Z</time></trkpt><trkpt lat="44.2120412" lon="10.6239255"><ele>736.8</ele><time>2026-05-03T13:18:14.481Z</time></trkpt><trkpt lat="44.2119822" lon="10.6237971"><ele>738.4</ele><time>2026-05-03T13:18:15.478Z</time></trkpt><trkpt lat="44.2118953" lon="10.6236728"><ele>740.0</ele><time>2026-05-03T13:18:16.482Z</time></trkpt><trkpt lat="44.2117731" lon="10.6235531"><ele>738.3333333333333</ele><time>2026-05-03T13:18:17.475Z</time></trkpt><trkpt lat="44.2116259" lon="10.6234266"><ele>736.6666666666666</ele><time>2026-05-03T13:18:18.477Z</time></trkpt><trkpt lat="44.2114589" lon="10.6232943"><ele>735.0</ele><time>2026-05-03T13:18:19.484Z</time></trkpt><trkpt lat="44.2113161" lon="10.6231674"><ele>735.0</ele><time>2026-05-03T13:18:20.486Z</time></trkpt><trkpt lat="44.2111994" lon="10.623049"><ele>735.0</ele><time>2026-05-03T13:18:21.486Z</time></trkpt><trkpt lat="44.2111049" lon="10.6228953"><ele>735.0</ele><time>2026-05-03T13:18:22.485Z</time></trkpt><trkpt lat="44.2110181" lon="10.6227146"><ele>735.0</ele><time>2026-05-03T13:18:23.484Z</time></trkpt><trkpt lat="44.2109265" lon="10.6225357"><ele>738.6666666666666</ele><time>2026-05-03T13:18:24.484Z</time></trkpt><trkpt lat="44.21083" lon="10.6223456"><ele>742.3333333333333</ele><time>2026-05-03T13:18:25.489Z</time></trkpt><trkpt lat="44.2107129" lon="10.6221604"><ele>746.0</ele><time>2026-05-03T13:18:26.484Z</time></trkpt><trkpt lat="44.2105952" lon="10.6219723"><ele>746.0</ele><time>2026-05-03T13:18:27.492Z</time></trkpt><trkpt lat="44.2104623" lon="10.6217715"><ele>746.0</ele><time>2026-05-03T13:18:28.487Z</time></trkpt><trkpt lat="44.2103322" lon="10.6215851"><ele>746.0</ele><time>2026-05-03T13:18:29.495Z</time></trkpt><trkpt lat="44.2102049" lon="10.6214298"><ele>746.0</ele><time>2026-05-03T13:18:30.501Z</time></trkpt><trkpt lat="44.2100736" lon="10.6212834"><ele>746.0</ele><time>2026-05-03T13:18:31.5Z</time></trkpt><trkpt lat="44.2099369" lon="10.6211412"><ele>746.0</ele><time>2026-05-03T13:18:32.504Z</time></trkpt><trkpt lat="44.2097968" lon="10.6209984"><ele>746.0</ele><time>2026-05-03T13:18:33.5Z</time></trkpt><trkpt lat="44.2096621" lon="10.6208552"><ele>746.0</ele><time>2026-05-03T13:18:34.498Z</time></trkpt><trkpt lat="44.2095135" lon="10.6206977"><ele>746.0</ele><time>2026-05-03T13:18:35.502Z</time></trkpt><trkpt lat="44.209367" lon="10.6205341"><ele>746.0</ele><time>2026-05-03T13:18:36.503Z</time></trkpt><trkpt lat="44.2092218" lon="10.620371"><ele>746.0</ele><time>2026-05-03T13:18:37.499Z</time></trkpt><trkpt lat="44.2090751" lon="10.6202105"><ele>746.0</ele><time>2026-05-03T13:18:38.497Z</time></trkpt><trkpt lat="44.2089233" lon="10.6200532"><ele>749.0</ele><time>2026-05-03T13:18:39.497Z</time></trkpt><trkpt lat="44.2087739" lon="10.6198951"><ele>752.0</ele><time>2026-05-03T13:18:40.501Z</time></trkpt><trkpt lat="44.208629" lon="10.6197435"><ele>755.0</ele><time>2026-05-03T13:18:41.495Z</time></trkpt><trkpt lat="44.2084964" lon="10.619601"><ele>755.5</ele><time>2026-05-03T13:18:42.497Z</time></trkpt><trkpt lat="44.2083746" lon="10.6194659"><ele>756.0</ele><time>2026-05-03T13:18:43.499Z</time></trkpt><trkpt lat="44.208261" lon="10.6193429"><ele>756.5</ele><time>2026-05-03T13:18:44.5Z</time></trkpt><trkpt lat="44.2081446" lon="10.6192306"><ele>757.0</ele><time>2026-05-03T13:18:45.496Z</time></trkpt><trkpt lat="44.2080517" lon="10.6191251"><ele>757.0</ele><time>2026-05-03T13:18:46.494Z</time></trkpt><trkpt lat="44.2079635" lon="10.6190116"><ele>757.0</ele><time>2026-05-03T13:18:47.491Z</time></trkpt><trkpt lat="44.2079088" lon="10.6188639"><ele>757.0</ele><time>2026-05-03T13:18:48.491Z</time></trkpt><trkpt lat="44.2078654" lon="10.6187223"><ele>757.0</ele><time>2026-05-03T13:18:49.486Z</time></trkpt><trkpt lat="44.207808" lon="10.6185924"><ele>760.75</ele><time>2026-05-03T13:18:50.483Z</time></trkpt><trkpt lat="44.2077181" lon="10.6184788"><ele>764.5</ele><time>2026-05-03T13:18:51.486Z</time></trkpt><trkpt lat="44.2076152" lon="10.6183932"><ele>768.25</ele><time>2026-05-03T13:18:52.48Z</time></trkpt><trkpt lat="44.20751" lon="10.6183473"><ele>772.0</ele><time>2026-05-03T13:18:53.487Z</time></trkpt><trkpt lat="44.2074034" lon="10.6183185"><ele>771.2</ele><time>2026-05-03T13:18:54.487Z</time></trkpt><trkpt lat="44.2073" lon="10.6182851"><ele>770.4000000000001</ele><time>2026-05-03T13:18:55.483Z</time></trkpt><trkpt lat="44.2072057" lon="10.6182664"><ele>769.5999999999999</ele><time>2026-05-03T13:18:56.488Z</time></trkpt><trkpt lat="44.2070988" lon="10.6182332"><ele>768.8</ele><time>2026-05-03T13:18:57.48Z</time></trkpt><trkpt lat="44.2069904" lon="10.6181824"><ele>768.0</ele><time>2026-05-03T13:18:58.488Z</time></trkpt><trkpt lat="44.2069005" lon="10.6180943"><ele>768.0</ele><time>2026-05-03T13:18:59.489Z</time></trkpt><trkpt lat="44.2068315" lon="10.6180038"><ele>768.0</ele><time>2026-05-03T13:19:00.494Z</time></trkpt><trkpt lat="44.2067746" lon="10.6179478"><ele>768.0</ele><time>2026-05-03T13:19:01.484Z</time></trkpt><trkpt lat="44.2066846" lon="10.6178509"><ele>768.0</ele><time>2026-05-03T13:19:03.494Z</time></trkpt><trkpt lat="44.2066283" lon="10.6177482"><ele>768.0</ele><time>2026-05-03T13:19:05.491Z</time></trkpt><trkpt lat="44.2065464" lon="10.6176439"><ele>769.1428571428571</ele><time>2026-05-03T13:19:07.497Z</time></trkpt><trkpt lat="44.2064942" lon="10.6175751"><ele>770.2857142857142</ele><time>2026-05-03T13:19:08.496Z</time></trkpt><trkpt lat="44.2064354" lon="10.6175035"><ele>771.4285714285713</ele><time>2026-05-03T13:19:09.494Z</time></trkpt><trkpt lat="44.206376" lon="10.6174431"><ele>772.5714285714286</ele><time>2026-05-03T13:19:10.494Z</time></trkpt><trkpt lat="44.2063135" lon="10.6173892"><ele>773.7142857142858</ele><time>2026-05-03T13:19:11.492Z</time></trkpt><trkpt lat="44.2062529" lon="10.617338"><ele>774.8571428571428</ele><time>2026-05-03T13:19:12.499Z</time></trkpt><trkpt lat="44.2061895" lon="10.6172774"><ele>776.0</ele><time>2026-05-03T13:19:13.487Z</time></trkpt><trkpt lat="44.2061212" lon="10.6172065"><ele>776.0</ele><time>2026-05-03T13:19:14.492Z</time></trkpt><trkpt lat="44.2060621" lon="10.6171237"><ele>776.0</ele><time>2026-05-03T13:19:15.488Z</time></trkpt><trkpt lat="44.2060097" lon="10.6170566"><ele>776.0</ele><time>2026-05-03T13:19:16.491Z</time></trkpt><trkpt lat="44.2059356" lon="10.6169675"><ele>776.0</ele><time>2026-05-03T13:19:18.504Z</time></trkpt><trkpt lat="44.205855" lon="10.6169029"><ele>776.0</ele><time>2026-05-03T13:19:21.495Z</time></trkpt><trkpt lat="44.2057184" lon="10.6168959"><ele>777.0</ele><time>2026-05-03T13:19:23.495Z</time></trkpt><trkpt lat="44.2056215" lon="10.6168882"><ele>778.0</ele><time>2026-05-03T13:19:24.482Z</time></trkpt><trkpt lat="44.2055172" lon="10.6168628"><ele>779.0</ele><time>2026-05-03T13:19:25.479Z</time></trkpt><trkpt lat="44.2054112" lon="10.6168222"><ele>780.0</ele><time>2026-05-03T13:19:26.485Z</time></trkpt><trkpt lat="44.2053039" lon="10.616788"><ele>781.0</ele><time>2026-05-03T13:19:27.487Z</time></trkpt><trkpt lat="44.2051941" lon="10.6167612"><ele>781.0</ele><time>2026-05-03T13:19:28.484Z</time></trkpt><trkpt lat="44.2050792" lon="10.6167342"><ele>781.0</ele><time>2026-05-03T13:19:29.485Z</time></trkpt><trkpt lat="44.2049646" lon="10.6167008"><ele>781.0</ele><time>2026-05-03T13:19:30.488Z</time></trkpt><trkpt lat="44.204851" lon="10.6166732"><ele>781.0</ele><time>2026-05-03T13:19:31.482Z</time></trkpt><trkpt lat="44.2047508" lon="10.616633"><ele>781.4</ele><time>2026-05-03T13:19:32.482Z</time></trkpt><trkpt lat="44.2046544" lon="10.616595"><ele>781.8</ele><time>2026-05-03T13:19:33.487Z</time></trkpt><trkpt lat="44.2045599" lon="10.6165639"><ele>782.1999999999999</ele><time>2026-05-03T13:19:34.49Z</time></trkpt><trkpt lat="44.204465" lon="10.6165394"><ele>782.5999999999999</ele><time>2026-05-03T13:19:35.489Z</time></trkpt><trkpt lat="44.2043667" lon="10.6165521"><ele>783.0</ele><time>2026-05-03T13:19:36.486Z</time></trkpt><trkpt lat="44.2042681" lon="10.616596"><ele>783.0</ele><time>2026-05-03T13:19:37.483Z</time></trkpt><trkpt lat="44.2041721" lon="10.6166558"><ele>783.0</ele><time>2026-05-03T13:19:38.484Z</time></trkpt><trkpt lat="44.2040701" lon="10.6167226"><ele>783.0</ele><time>2026-05-03T13:19:39.485Z</time></trkpt><trkpt lat="44.2039658" lon="10.6168069"><ele>783.0</ele><time>2026-05-03T13:19:40.485Z</time></trkpt><trkpt lat="44.2038623" lon="10.6168892"><ele>782.5</ele><time>2026-05-03T13:19:41.488Z</time></trkpt><trkpt lat="44.2037533" lon="10.6169523"><ele>782.0</ele><time>2026-05-03T13:19:42.481Z</time></trkpt><trkpt lat="44.2036446" lon="10.6170159"><ele>781.5</ele><time>2026-05-03T13:19:43.485Z</time></trkpt><trkpt lat="44.2035383" lon="10.6170762"><ele>781.0</ele><time>2026-05-03T13:19:44.495Z</time></trkpt><trkpt lat="44.2034322" lon="10.617137"><ele>779.5999999999999</ele><time>2026-05-03T13:19:45.489Z</time></trkpt><trkpt lat="44.2033323" lon="10.6171857"><ele>778.2</ele><time>2026-05-03T13:19:46.497Z</time></trkpt><trkpt lat="44.2032387" lon="10.6172115"><ele>776.8</ele><time>2026-05-03T13:19:47.494Z</time></trkpt><trkpt lat="44.2031664" lon="10.6171758"><ele>775.4000000000001</ele><time>2026-05-03T13:19:48.498Z</time></trkpt><trkpt lat="44.2031081" lon="10.6170946"><ele>774.0</ele><time>2026-05-03T13:19:49.5Z</time></trkpt><trkpt lat="44.2030666" lon="10.6169688"><ele>772.0</ele><time>2026-05-03T13:19:50.495Z</time></trkpt><trkpt lat="44.2030349" lon="10.6167954"><ele>770.0</ele><time>2026-05-03T13:19:51.491Z</time></trkpt><trkpt lat="44.2030044" lon="10.6166199"><ele>768.0</ele><time>2026-05-03T13:19:52.49Z</time></trkpt><trkpt lat="44.2029808" lon="10.6164334"><ele>766.0</ele><time>2026-05-03T13:19:53.486Z</time></trkpt><trkpt lat="44.2029614" lon="10.616236"><ele>766.75</ele><time>2026-05-03T13:19:54.487Z</time></trkpt><trkpt lat="44.2029175" lon="10.6160393"><ele>767.5</ele><time>2026-05-03T13:19:55.487Z</time></trkpt><trkpt lat="44.2028367" lon="10.6158517"><ele>768.25</ele><time>2026-05-03T13:19:56.479Z</time></trkpt><trkpt lat="44.2027479" lon="10.6157088"><ele>769.0</ele><time>2026-05-03T13:19:57.481Z</time></trkpt><trkpt lat="44.2026787" lon="10.6155521"><ele>769.0</ele><time>2026-05-03T13:19:58.484Z</time></trkpt><trkpt lat="44.2026208" lon="10.6153863"><ele>769.0</ele><time>2026-05-03T13:19:59.479Z</time></trkpt><trkpt lat="44.202567" lon="10.6152132"><ele>769.0</ele><time>2026-05-03T13:20:00.479Z</time></trkpt><trkpt lat="44.2024885" lon="10.6150935"><ele>769.0</ele><time>2026-05-03T13:20:01.477Z</time></trkpt><trkpt lat="44.2023759" lon="10.6150058"><ele>767.75</ele><time>2026-05-03T13:20:02.477Z</time></trkpt><trkpt lat="44.2022495" lon="10.6149603"><ele>766.5</ele><time>2026-05-03T13:20:03.477Z</time></trkpt><trkpt lat="44.2021176" lon="10.6149672"><ele>765.25</ele><time>2026-05-03T13:20:04.477Z</time></trkpt><trkpt lat="44.2019804" lon="10.6150149"><ele>764.0</ele><time>2026-05-03T13:20:05.478Z</time></trkpt><trkpt lat="44.2018481" lon="10.6150478"><ele>764.0</ele><time>2026-05-03T13:20:06.479Z</time></trkpt><trkpt lat="44.2017125" lon="10.6150757"><ele>764.0</ele><time>2026-05-03T13:20:07.482Z</time></trkpt><trkpt lat="44.2015824" lon="10.6151076"><ele>764.0</ele><time>2026-05-03T13:20:08.488Z</time></trkpt><trkpt lat="44.2014708" lon="10.6151328"><ele>764.0</ele><time>2026-05-03T13:20:09.494Z</time></trkpt><trkpt lat="44.2013662" lon="10.6151549"><ele>766.6</ele><time>2026-05-03T13:20:10.494Z</time></trkpt><trkpt lat="44.2012758" lon="10.6151709"><ele>769.2</ele><time>2026-05-03T13:20:11.494Z</time></trkpt><trkpt lat="44.2011899" lon="10.6151998"><ele>771.8000000000001</ele><time>2026-05-03T13:20:12.491Z</time></trkpt><trkpt lat="44.2011103" lon="10.6152654"><ele>774.4000000000001</ele><time>2026-05-03T13:20:13.505Z</time></trkpt><trkpt lat="44.20106" lon="10.6153988"><ele>777.0</ele><time>2026-05-03T13:20:14.5Z</time></trkpt><trkpt lat="44.201027" lon="10.6155503"><ele>777.0</ele><time>2026-05-03T13:20:15.503Z</time></trkpt><trkpt lat="44.2009949" lon="10.6156977"><ele>777.0</ele><time>2026-05-03T13:20:16.493Z</time></trkpt><trkpt lat="44.2009673" lon="10.6158289"><ele>777.0</ele><time>2026-05-03T13:20:17.498Z</time></trkpt><trkpt lat="44.2009414" lon="10.6159489"><ele>777.0</ele><time>2026-05-03T13:20:18.494Z</time></trkpt><trkpt lat="44.2009121" lon="10.6160507"><ele>777.0</ele><time>2026-05-03T13:20:19.492Z</time></trkpt><trkpt lat="44.2008865" lon="10.6161436"><ele>777.0</ele><time>2026-05-03T13:20:20.492Z</time></trkpt><trkpt lat="44.2008623" lon="10.6162266"><ele>777.0</ele><time>2026-05-03T13:20:21.492Z</time></trkpt><trkpt lat="44.2008172" lon="10.6163607"><ele>777.0</ele><time>2026-05-03T13:20:23.495Z</time></trkpt><trkpt lat="44.2008842" lon="10.6163547"><ele>777.0</ele><time>2026-05-03T13:20:29.497Z</time></trkpt><trkpt lat="44.2009493" lon="10.6163051"><ele>777.0</ele><time>2026-05-03T13:20:32.499Z</time></trkpt><trkpt lat="44.2009315" lon="10.6162146"><ele>777.0</ele><time>2026-05-03T13:26:51.498Z</time></trkpt><trkpt lat="44.200936" lon="10.6161241"><ele>777.0</ele><time>2026-05-03T13:26:55.507Z</time></trkpt><trkpt lat="44.2009618" lon="10.615993"><ele>777.0</ele><time>2026-05-03T13:26:58.503Z</time></trkpt><trkpt lat="44.2010048" lon="10.6158369"><ele>777.0</ele><time>2026-05-03T13:27:00.508Z</time></trkpt><trkpt lat="44.2010267" lon="10.6157521"><ele>777.0</ele><time>2026-05-03T13:27:01.507Z</time></trkpt><trkpt lat="44.2010482" lon="10.6156584"><ele>777.0</ele><time>2026-05-03T13:27:02.505Z</time></trkpt><trkpt lat="44.2010735" lon="10.6155726"><ele>777.0</ele><time>2026-05-03T13:27:03.505Z</time></trkpt><trkpt lat="44.201101" lon="10.6154907"><ele>777.0</ele><time>2026-05-03T13:27:04.505Z</time></trkpt><trkpt lat="44.2011287" lon="10.6154047"><ele>778.25</ele><time>2026-05-03T13:27:05.493Z</time></trkpt><trkpt lat="44.2011347" lon="10.6152642"><ele>779.5</ele><time>2026-05-03T13:27:07.49Z</time></trkpt><trkpt lat="44.2010993" lon="10.6151263"><ele>780.75</ele><time>2026-05-03T13:27:09.496Z</time></trkpt><trkpt lat="44.2010263" lon="10.6149383"><ele>782.0</ele><time>2026-05-03T13:27:11.497Z</time></trkpt><trkpt lat="44.2009721" lon="10.6148171"><ele>782.0</ele><time>2026-05-03T13:27:12.492Z</time></trkpt><trkpt lat="44.2009221" lon="10.614681"><ele>782.0</ele><time>2026-05-03T13:27:13.489Z</time></trkpt><trkpt lat="44.2008762" lon="10.6145419"><ele>782.0</ele><time>2026-05-03T13:27:14.496Z</time></trkpt><trkpt lat="44.2008378" lon="10.614407"><ele>782.0</ele><time>2026-05-03T13:27:15.493Z</time></trkpt><trkpt lat="44.2008017" lon="10.614264"><ele>782.0</ele><time>2026-05-03T13:27:16.487Z</time></trkpt><trkpt lat="44.2007633" lon="10.6141155"><ele>781.5</ele><time>2026-05-03T13:27:17.491Z</time></trkpt><trkpt lat="44.2007297" lon="10.613958"><ele>781.0</ele><time>2026-05-03T13:27:18.497Z</time></trkpt><trkpt lat="44.2007056" lon="10.61379"><ele>780.5</ele><time>2026-05-03T13:27:19.487Z</time></trkpt><trkpt lat="44.2006961" lon="10.6136133"><ele>780.0</ele><time>2026-05-03T13:27:20.48Z</time></trkpt><trkpt lat="44.2007003" lon="10.6134482"><ele>779.6</ele><time>2026-05-03T13:27:21.494Z</time></trkpt><trkpt lat="44.2007171" lon="10.613296"><ele>779.2</ele><time>2026-05-03T13:27:22.492Z</time></trkpt><trkpt lat="44.2007531" lon="10.6131671"><ele>778.8</ele><time>2026-05-03T13:27:23.498Z</time></trkpt><trkpt lat="44.200766" lon="10.6130364"><ele>778.4</ele><time>2026-05-03T13:27:24.498Z</time></trkpt><trkpt lat="44.2007591" lon="10.6129112"><ele>778.0</ele><time>2026-05-03T13:27:25.5Z</time></trkpt><trkpt lat="44.2007139" lon="10.6128029"><ele>782.75</ele><time>2026-05-03T13:27:26.502Z</time></trkpt><trkpt lat="44.2006288" lon="10.6127094"><ele>787.5</ele><time>2026-05-03T13:27:27.492Z</time></trkpt><trkpt lat="44.2005416" lon="10.6126053"><ele>792.25</ele><time>2026-05-03T13:27:28.501Z</time></trkpt><trkpt lat="44.2004593" lon="10.6124831"><ele>797.0</ele><time>2026-05-03T13:27:29.497Z</time></trkpt><trkpt lat="44.2003957" lon="10.6123232"><ele>797.0</ele><time>2026-05-03T13:27:30.493Z</time></trkpt><trkpt lat="44.2003533" lon="10.612136"><ele>797.0</ele><time>2026-05-03T13:27:31.493Z</time></trkpt><trkpt lat="44.2003444" lon="10.6119488"><ele>797.0</ele><time>2026-05-03T13:27:32.486Z</time></trkpt><trkpt lat="44.2003503" lon="10.611784"><ele>797.0</ele><time>2026-05-03T13:27:33.497Z</time></trkpt><trkpt lat="44.2003499" lon="10.6116324"><ele>796.2</ele><time>2026-05-03T13:27:34.485Z</time></trkpt><trkpt lat="44.2003424" lon="10.6114919"><ele>795.4000000000001</ele><time>2026-05-03T13:27:35.493Z</time></trkpt><trkpt lat="44.2003014" lon="10.6113542"><ele>794.5999999999999</ele><time>2026-05-03T13:27:36.494Z</time></trkpt><trkpt lat="44.2002372" lon="10.6112219"><ele>793.8</ele><time>2026-05-03T13:27:37.493Z</time></trkpt><trkpt lat="44.2001645" lon="10.6110776"><ele>793.0</ele><time>2026-05-03T13:27:38.498Z</time></trkpt><trkpt lat="44.2000871" lon="10.6109295"><ele>792.25</ele><time>2026-05-03T13:27:39.503Z</time></trkpt><trkpt lat="44.2000075" lon="10.610778"><ele>791.5</ele><time>2026-05-03T13:27:40.515Z</time></trkpt><trkpt lat="44.1999331" lon="10.6106371"><ele>790.75</ele><time>2026-05-03T13:27:41.52Z</time></trkpt><trkpt lat="44.1998515" lon="10.6105031"><ele>790.0</ele><time>2026-05-03T13:27:42.512Z</time></trkpt><trkpt lat="44.1997668" lon="10.610382"><ele>791.75</ele><time>2026-05-03T13:27:43.513Z</time></trkpt><trkpt lat="44.1996725" lon="10.6102855"><ele>793.5</ele><time>2026-05-03T13:27:44.519Z</time></trkpt><trkpt lat="44.199564" lon="10.6102212"><ele>795.25</ele><time>2026-05-03T13:27:45.517Z</time></trkpt><trkpt lat="44.1994433" lon="10.6101756"><ele>797.0</ele><time>2026-05-03T13:27:46.521Z</time></trkpt><trkpt lat="44.199319" lon="10.6101445"><ele>797.0</ele><time>2026-05-03T13:27:47.515Z</time></trkpt><trkpt lat="44.1991933" lon="10.6101256"><ele>797.0</ele><time>2026-05-03T13:27:48.516Z</time></trkpt><trkpt lat="44.199067" lon="10.610121"><ele>797.0</ele><time>2026-05-03T13:27:49.522Z</time></trkpt><trkpt lat="44.1989378" lon="10.6101223"><ele>797.0</ele><time>2026-05-03T13:27:50.514Z</time></trkpt><trkpt lat="44.1988051" lon="10.6101258"><ele>799.2</ele><time>2026-05-03T13:27:51.504Z</time></trkpt><trkpt lat="44.1986783" lon="10.6101287"><ele>801.4000000000001</ele><time>2026-05-03T13:27:52.507Z</time></trkpt><trkpt lat="44.1985659" lon="10.6101274"><ele>803.5999999999999</ele><time>2026-05-03T13:27:53.508Z</time></trkpt><trkpt lat="44.198461" lon="10.6101119"><ele>805.8</ele><time>2026-05-03T13:27:54.51Z</time></trkpt><trkpt lat="44.1983661" lon="10.6100532"><ele>808.0</ele><time>2026-05-03T13:27:55.512Z</time></trkpt><trkpt lat="44.1982802" lon="10.6099752"><ele>808.0</ele><time>2026-05-03T13:27:56.512Z</time></trkpt><trkpt lat="44.1982005" lon="10.6098923"><ele>808.0</ele><time>2026-05-03T13:27:57.506Z</time></trkpt><trkpt lat="44.1981152" lon="10.6098132"><ele>808.0</ele><time>2026-05-03T13:27:58.502Z</time></trkpt><trkpt lat="44.1980314" lon="10.6097303"><ele>808.0</ele><time>2026-05-03T13:27:59.506Z</time></trkpt><trkpt lat="44.1979448" lon="10.6096445"><ele>808.0</ele><time>2026-05-03T13:28:00.515Z</time></trkpt><trkpt lat="44.1978555" lon="10.609557"><ele>809.5</ele><time>2026-05-03T13:28:01.511Z</time></trkpt><trkpt lat="44.1977608" lon="10.6094674"><ele>811.0</ele><time>2026-05-03T13:28:02.509Z</time></trkpt><trkpt lat="44.1976598" lon="10.6093833"><ele>812.5</ele><time>2026-05-03T13:28:03.51Z</time></trkpt><trkpt lat="44.1975555" lon="10.6092918"><ele>814.0</ele><time>2026-05-03T13:28:04.509Z</time></trkpt><trkpt lat="44.1974519" lon="10.6091973"><ele>814.0</ele><time>2026-05-03T13:28:05.507Z</time></trkpt><trkpt lat="44.1973474" lon="10.6090952"><ele>814.0</ele><time>2026-05-03T13:28:06.513Z</time></trkpt><trkpt lat="44.1972512" lon="10.6089823"><ele>814.0</ele><time>2026-05-03T13:28:07.513Z</time></trkpt><trkpt lat="44.1971616" lon="10.6088641"><ele>814.0</ele><time>2026-05-03T13:28:08.506Z</time></trkpt><trkpt lat="44.1970759" lon="10.608746"><ele>816.5</ele><time>2026-05-03T13:28:09.515Z</time></trkpt><trkpt lat="44.1969875" lon="10.6086233"><ele>819.0</ele><time>2026-05-03T13:28:10.513Z</time></trkpt><trkpt lat="44.1968943" lon="10.6084993"><ele>821.5</ele><time>2026-05-03T13:28:11.512Z</time></trkpt><trkpt lat="44.1967962" lon="10.6083704"><ele>824.0</ele><time>2026-05-03T13:28:12.51Z</time></trkpt><trkpt lat="44.1966957" lon="10.6082432"><ele>824.0</ele><time>2026-05-03T13:28:13.509Z</time></trkpt><trkpt lat="44.1965954" lon="10.6081133"><ele>824.0</ele><time>2026-05-03T13:28:14.509Z</time></trkpt><trkpt lat="44.1965039" lon="10.6079597"><ele>824.0</ele><time>2026-05-03T13:28:15.504Z</time></trkpt><trkpt lat="44.1964227" lon="10.6077991"><ele>824.0</ele><time>2026-05-03T13:28:16.501Z</time></trkpt><trkpt lat="44.1963509" lon="10.6076315"><ele>830.75</ele><time>2026-05-03T13:28:17.5Z</time></trkpt><trkpt lat="44.1962714" lon="10.6074757"><ele>837.5</ele><time>2026-05-03T13:28:18.503Z</time></trkpt><trkpt lat="44.1961776" lon="10.6073168"><ele>844.25</ele><time>2026-05-03T13:28:19.492Z</time></trkpt><trkpt lat="44.1960882" lon="10.6071552"><ele>851.0</ele><time>2026-05-03T13:28:20.499Z</time></trkpt><trkpt lat="44.1959986" lon="10.6070147"><ele>849.75</ele><time>2026-05-03T13:28:21.494Z</time></trkpt><trkpt lat="44.1959176" lon="10.6068723"><ele>848.5</ele><time>2026-05-03T13:28:22.495Z</time></trkpt><trkpt lat="44.1958419" lon="10.6067427"><ele>847.25</ele><time>2026-05-03T13:28:23.498Z</time></trkpt><trkpt lat="44.1957576" lon="10.6066309"><ele>846.0</ele><time>2026-05-03T13:28:24.502Z</time></trkpt><trkpt lat="44.1956695" lon="10.6065606"><ele>846.0</ele><time>2026-05-03T13:28:25.493Z</time></trkpt><trkpt lat="44.1955706" lon="10.6065108"><ele>846.0</ele><time>2026-05-03T13:28:26.499Z</time></trkpt><trkpt lat="44.1954605" lon="10.6065145"><ele>846.0</ele><time>2026-05-03T13:28:27.493Z</time></trkpt><trkpt lat="44.1953372" lon="10.6065133"><ele>846.0</ele><time>2026-05-03T13:28:28.487Z</time></trkpt><trkpt lat="44.1952144" lon="10.6065192"><ele>846.0</ele><time>2026-05-03T13:28:29.488Z</time></trkpt><trkpt lat="44.1950917" lon="10.6065268"><ele>846.0</ele><time>2026-05-03T13:28:30.497Z</time></trkpt><trkpt lat="44.1949744" lon="10.6065314"><ele>846.0</ele><time>2026-05-03T13:28:31.494Z</time></trkpt><trkpt lat="44.1948664" lon="10.6065283"><ele>846.0</ele><time>2026-05-03T13:28:32.5Z</time></trkpt><trkpt lat="44.1947735" lon="10.6065213"><ele>846.0</ele><time>2026-05-03T13:28:33.496Z</time></trkpt><trkpt lat="44.1946897" lon="10.6065015"><ele>850.4</ele><time>2026-05-03T13:28:34.493Z</time></trkpt><trkpt lat="44.1946137" lon="10.6064639"><ele>854.8</ele><time>2026-05-03T13:28:35.493Z</time></trkpt><trkpt lat="44.1945498" lon="10.6063944"><ele>859.1999999999999</ele><time>2026-05-03T13:28:36.498Z</time></trkpt><trkpt lat="44.1945058" lon="10.6062811"><ele>863.5999999999999</ele><time>2026-05-03T13:28:37.508Z</time></trkpt><trkpt lat="44.1945008" lon="10.6061376"><ele>868.0</ele><time>2026-05-03T13:28:38.497Z</time></trkpt><trkpt lat="44.1945242" lon="10.60599"><ele>868.0</ele><time>2026-05-03T13:28:39.507Z</time></trkpt><trkpt lat="44.1945641" lon="10.6058409"><ele>868.0</ele><time>2026-05-03T13:28:40.485Z</time></trkpt><trkpt lat="44.1945974" lon="10.6057066"><ele>868.0</ele><time>2026-05-03T13:28:41.491Z</time></trkpt><trkpt lat="44.1946386" lon="10.6055789"><ele>868.0</ele><time>2026-05-03T13:28:42.507Z</time></trkpt><trkpt lat="44.1946586" lon="10.6054449"><ele>868.0</ele><time>2026-05-03T13:28:43.508Z</time></trkpt><trkpt lat="44.1946671" lon="10.6053091"><ele>869.5999999999999</ele><time>2026-05-03T13:28:44.506Z</time></trkpt><trkpt lat="44.1946603" lon="10.6051718"><ele>871.1999999999999</ele><time>2026-05-03T13:28:45.507Z</time></trkpt><trkpt lat="44.194641" lon="10.6050367"><ele>872.8</ele><time>2026-05-03T13:28:46.501Z</time></trkpt><trkpt lat="44.1946219" lon="10.6049038"><ele>874.4</ele><time>2026-05-03T13:28:47.5Z</time></trkpt><trkpt lat="44.1946111" lon="10.6047957"><ele>876.0</ele><time>2026-05-03T13:28:48.507Z</time></trkpt><trkpt lat="44.1946202" lon="10.6046567"><ele>876.5999999999999</ele><time>2026-05-03T13:28:50.491Z</time></trkpt><trkpt lat="44.1946446" lon="10.6044721"><ele>877.1999999999999</ele><time>2026-05-03T13:28:52.495Z</time></trkpt><trkpt lat="44.194669" lon="10.6043572"><ele>877.8000000000001</ele><time>2026-05-03T13:28:53.495Z</time></trkpt><trkpt lat="44.1946819" lon="10.6042279"><ele>878.4000000000001</ele><time>2026-05-03T13:28:54.492Z</time></trkpt><trkpt lat="44.1946769" lon="10.6040875"><ele>879.0</ele><time>2026-05-03T13:28:55.492Z</time></trkpt><trkpt lat="44.1946496" lon="10.6039627"><ele>879.0</ele><time>2026-05-03T13:28:56.495Z</time></trkpt><trkpt lat="44.1945903" lon="10.6038522"><ele>879.0000000000001</ele><time>2026-05-03T13:28:57.492Z</time></trkpt><trkpt lat="44.1945083" lon="10.6037677"><ele>879.0000000000001</ele><time>2026-05-03T13:28:58.482Z</time></trkpt><trkpt lat="44.1944168" lon="10.6036891"><ele>879.0</ele><time>2026-05-03T13:28:59.486Z</time></trkpt><trkpt lat="44.1943499" lon="10.6036229"><ele>879.0</ele><time>2026-05-03T13:29:00.487Z</time></trkpt><trkpt lat="44.194309" lon="10.6035413"><ele>878.6</ele><time>2026-05-03T13:29:01.49Z</time></trkpt><trkpt lat="44.1943272" lon="10.6034157"><ele>878.2</ele><time>2026-05-03T13:29:02.489Z</time></trkpt><trkpt lat="44.1943903" lon="10.6032987"><ele>877.8000000000001</ele><time>2026-05-03T13:29:03.49Z</time></trkpt><trkpt lat="44.1944801" lon="10.6031996"><ele>877.4000000000001</ele><time>2026-05-03T13:29:04.494Z</time></trkpt><trkpt lat="44.194556" lon="10.6031006"><ele>877.0</ele><time>2026-05-03T13:29:05.492Z</time></trkpt><trkpt lat="44.194624" lon="10.6029875"><ele>877.0</ele><time>2026-05-03T13:29:06.5Z</time></trkpt><trkpt lat="44.1946365" lon="10.6028624"><ele>877.0</ele><time>2026-05-03T13:29:07.5Z</time></trkpt><trkpt lat="44.1946013" lon="10.6027265"><ele>877.0</ele><time>2026-05-03T13:29:08.496Z</time></trkpt><trkpt lat="44.1945591" lon="10.6025882"><ele>877.0</ele><time>2026-05-03T13:29:09.504Z</time></trkpt><trkpt lat="44.1945272" lon="10.6024405"><ele>877.0</ele><time>2026-05-03T13:29:10.499Z</time></trkpt><trkpt lat="44.1945158" lon="10.6022917"><ele>880.0</ele><time>2026-05-03T13:29:11.498Z</time></trkpt><trkpt lat="44.1945329" lon="10.6021394"><ele>883.0</ele><time>2026-05-03T13:29:12.494Z</time></trkpt><trkpt lat="44.1945802" lon="10.601991"><ele>886.0</ele><time>2026-05-03T13:29:13.492Z</time></trkpt><trkpt lat="44.1946387" lon="10.6018452"><ele>889.0</ele><time>2026-05-03T13:29:14.495Z</time></trkpt><trkpt lat="44.1946957" lon="10.6017107"><ele>888.6</ele><time>2026-05-03T13:29:15.497Z</time></trkpt><trkpt lat="44.1947439" lon="10.6015837"><ele>888.2</ele><time>2026-05-03T13:29:16.489Z</time></trkpt><trkpt lat="44.1947687" lon="10.6014479"><ele>887.8000000000001</ele><time>2026-05-03T13:29:17.494Z</time></trkpt><trkpt lat="44.1947888" lon="10.6013034"><ele>887.4000000000001</ele><time>2026-05-03T13:29:18.488Z</time></trkpt><trkpt lat="44.1948163" lon="10.6011702"><ele>887.0</ele><time>2026-05-03T13:29:19.498Z</time></trkpt><trkpt lat="44.1948661" lon="10.6010713"><ele>887.0</ele><time>2026-05-03T13:29:20.496Z</time></trkpt><trkpt lat="44.1949522" lon="10.6010413"><ele>887.0</ele><time>2026-05-03T13:29:21.49Z</time></trkpt><trkpt lat="44.1950656" lon="10.6010547"><ele>887.0</ele><time>2026-05-03T13:29:22.49Z</time></trkpt><trkpt lat="44.1951848" lon="10.6010589"><ele>887.0</ele><time>2026-05-03T13:29:23.487Z</time></trkpt><trkpt lat="44.1952904" lon="10.6010325"><ele>887.0</ele><time>2026-05-03T13:29:24.489Z</time></trkpt><trkpt lat="44.1953854" lon="10.6009688"><ele>887.0</ele><time>2026-05-03T13:29:25.492Z</time></trkpt><trkpt lat="44.1954655" lon="10.6008732"><ele>887.0</ele><time>2026-05-03T13:29:26.493Z</time></trkpt><trkpt lat="44.1955355" lon="10.6007575"><ele>887.0</ele><time>2026-05-03T13:29:27.489Z</time></trkpt><trkpt lat="44.195583" lon="10.6006285"><ele>887.0</ele><time>2026-05-03T13:29:28.487Z</time></trkpt><trkpt lat="44.1956087" lon="10.6004904"><ele>887.0</ele><time>2026-05-03T13:29:29.488Z</time></trkpt><trkpt lat="44.1956118" lon="10.6003443"><ele>889.75</ele><time>2026-05-03T13:29:30.493Z</time></trkpt><trkpt lat="44.1955889" lon="10.6002053"><ele>892.5</ele><time>2026-05-03T13:29:31.502Z</time></trkpt><trkpt lat="44.1955346" lon="10.6000626"><ele>895.25</ele><time>2026-05-03T13:29:32.492Z</time></trkpt><trkpt lat="44.1954754" lon="10.5999215"><ele>898.0</ele><time>2026-05-03T13:29:33.489Z</time></trkpt><trkpt lat="44.1954223" lon="10.599773"><ele>898.0</ele><time>2026-05-03T13:29:34.5Z</time></trkpt><trkpt lat="44.1953621" lon="10.599632"><ele>898.0</ele><time>2026-05-03T13:29:35.5Z</time></trkpt><trkpt lat="44.1952941" lon="10.5995014"><ele>898.0</ele><time>2026-05-03T13:29:36.497Z</time></trkpt><trkpt lat="44.1952193" lon="10.599374"><ele>898.0</ele><time>2026-05-03T13:29:37.5Z</time></trkpt><trkpt lat="44.1951292" lon="10.5992631"><ele>896.0</ele><time>2026-05-03T13:29:38.496Z</time></trkpt><trkpt lat="44.1950344" lon="10.5991503"><ele>894.0</ele><time>2026-05-03T13:29:39.491Z</time></trkpt><trkpt lat="44.1949349" lon="10.5990419"><ele>892.0</ele><time>2026-05-03T13:29:40.494Z</time></trkpt><trkpt lat="44.194836" lon="10.5989249"><ele>890.0</ele><time>2026-05-03T13:29:41.492Z</time></trkpt><trkpt lat="44.1947398" lon="10.5988083"><ele>897.0</ele><time>2026-05-03T13:29:42.473Z</time></trkpt><trkpt lat="44.1946488" lon="10.5986973"><ele>904.0</ele><time>2026-05-03T13:29:43.475Z</time></trkpt><trkpt lat="44.1945554" lon="10.5985832"><ele>911.0</ele><time>2026-05-03T13:29:44.48Z</time></trkpt><trkpt lat="44.1944657" lon="10.5984617"><ele>918.0</ele><time>2026-05-03T13:29:45.48Z</time></trkpt><trkpt lat="44.1943802" lon="10.5983305"><ele>918.0</ele><time>2026-05-03T13:29:46.474Z</time></trkpt><trkpt lat="44.1943035" lon="10.5981898"><ele>918.0</ele><time>2026-05-03T13:29:47.471Z</time></trkpt><trkpt lat="44.1942288" lon="10.5980274"><ele>918.0</ele><time>2026-05-03T13:29:48.478Z</time></trkpt><trkpt lat="44.1941861" lon="10.5978606"><ele>918.0</ele><time>2026-05-03T13:29:49.479Z</time></trkpt><trkpt lat="44.1941525" lon="10.597681"><ele>916.5</ele><time>2026-05-03T13:29:50.477Z</time></trkpt><trkpt lat="44.1941331" lon="10.5974971"><ele>915.0</ele><time>2026-05-03T13:29:51.476Z</time></trkpt><trkpt lat="44.1941298" lon="10.5973124"><ele>913.5</ele><time>2026-05-03T13:29:52.472Z</time></trkpt><trkpt lat="44.1941483" lon="10.5971227"><ele>912.0</ele><time>2026-05-03T13:29:53.481Z</time></trkpt><trkpt lat="44.1941966" lon="10.5969481"><ele>912.0</ele><time>2026-05-03T13:29:54.476Z</time></trkpt><trkpt lat="44.1942486" lon="10.5967891"><ele>912.0</ele><time>2026-05-03T13:29:55.479Z</time></trkpt><trkpt lat="44.1942974" lon="10.5966287"><ele>912.0</ele><time>2026-05-03T13:29:56.482Z</time></trkpt><trkpt lat="44.1943262" lon="10.5964559"><ele>912.0</ele><time>2026-05-03T13:29:57.476Z</time></trkpt><trkpt lat="44.1943412" lon="10.5962701"><ele>912.5</ele><time>2026-05-03T13:29:58.484Z</time></trkpt><trkpt lat="44.1943433" lon="10.5960809"><ele>913.0</ele><time>2026-05-03T13:29:59.482Z</time></trkpt><trkpt lat="44.1943433" lon="10.5958988"><ele>913.5</ele><time>2026-05-03T13:30:00.488Z</time></trkpt><trkpt lat="44.1943423" lon="10.5957253"><ele>914.0</ele><time>2026-05-03T13:30:01.49Z</time></trkpt><trkpt lat="44.1943423" lon="10.5955601"><ele>914.0</ele><time>2026-05-03T13:30:02.485Z</time></trkpt><trkpt lat="44.1943452" lon="10.5954009"><ele>914.0000000000001</ele><time>2026-05-03T13:30:03.49Z</time></trkpt><trkpt lat="44.1943435" lon="10.5952469"><ele>914.0000000000001</ele><time>2026-05-03T13:30:04.477Z</time></trkpt><trkpt lat="44.1943499" lon="10.5950907"><ele>914.0</ele><time>2026-05-03T13:30:05.48Z</time></trkpt><trkpt lat="44.1943564" lon="10.5949355"><ele>914.0</ele><time>2026-05-03T13:30:06.481Z</time></trkpt><trkpt lat="44.1943606" lon="10.5947837"><ele>914.4000000000001</ele><time>2026-05-03T13:30:07.479Z</time></trkpt><trkpt lat="44.1943545" lon="10.5946267"><ele>914.8000000000001</ele><time>2026-05-03T13:30:08.475Z</time></trkpt><trkpt lat="44.1943287" lon="10.5944736"><ele>915.1999999999999</ele><time>2026-05-03T13:30:09.485Z</time></trkpt><trkpt lat="44.1942773" lon="10.59434"><ele>915.5999999999999</ele><time>2026-05-03T13:30:10.487Z</time></trkpt><trkpt lat="44.1942044" lon="10.5942199"><ele>916.0</ele><time>2026-05-03T13:30:11.48Z</time></trkpt><trkpt lat="44.1941187" lon="10.5940984"><ele>913.75</ele><time>2026-05-03T13:30:12.49Z</time></trkpt><trkpt lat="44.1940187" lon="10.5939883"><ele>911.5</ele><time>2026-05-03T13:30:13.482Z</time></trkpt><trkpt lat="44.1939139" lon="10.5938811"><ele>909.25</ele><time>2026-05-03T13:30:14.482Z</time></trkpt><trkpt lat="44.1938094" lon="10.5937791"><ele>907.0</ele><time>2026-05-03T13:30:15.486Z</time></trkpt><trkpt lat="44.1937158" lon="10.5936808"><ele>912.6</ele><time>2026-05-03T13:30:16.48Z</time></trkpt><trkpt lat="44.1936414" lon="10.5935807"><ele>918.2</ele><time>2026-05-03T13:30:17.475Z</time></trkpt><trkpt lat="44.1935774" lon="10.5934681"><ele>923.8</ele><time>2026-05-03T13:30:18.483Z</time></trkpt><trkpt lat="44.1935458" lon="10.5933197"><ele>929.4</ele><time>2026-05-03T13:30:19.484Z</time></trkpt><trkpt lat="44.1935492" lon="10.5931361"><ele>935.0</ele><time>2026-05-03T13:30:20.477Z</time></trkpt><trkpt lat="44.1935717" lon="10.5929517"><ele>934.25</ele><time>2026-05-03T13:30:21.478Z</time></trkpt><trkpt lat="44.1935803" lon="10.5927624"><ele>933.5</ele><time>2026-05-03T13:30:22.47Z</time></trkpt><trkpt lat="44.1935827" lon="10.5925755"><ele>932.75</ele><time>2026-05-03T13:30:23.482Z</time></trkpt><trkpt lat="44.1935654" lon="10.5923821"><ele>932.0</ele><time>2026-05-03T13:30:24.47Z</time></trkpt><trkpt lat="44.1935457" lon="10.5921889"><ele>932.0</ele><time>2026-05-03T13:30:25.477Z</time></trkpt><trkpt lat="44.1935231" lon="10.5920148"><ele>932.0</ele><time>2026-05-03T13:30:26.477Z</time></trkpt><trkpt lat="44.1935071" lon="10.5918504"><ele>932.0</ele><time>2026-05-03T13:30:27.472Z</time></trkpt><trkpt lat="44.193509" lon="10.5916926"><ele>932.0</ele><time>2026-05-03T13:30:28.476Z</time></trkpt><trkpt lat="44.1935106" lon="10.5915428"><ele>931.2</ele><time>2026-05-03T13:30:29.478Z</time></trkpt><trkpt lat="44.1934995" lon="10.5913933"><ele>930.4000000000001</ele><time>2026-05-03T13:30:30.483Z</time></trkpt><trkpt lat="44.1934725" lon="10.5912465"><ele>929.5999999999999</ele><time>2026-05-03T13:30:31.483Z</time></trkpt><trkpt lat="44.193428" lon="10.5911104"><ele>928.8</ele><time>2026-05-03T13:30:32.478Z</time></trkpt><trkpt lat="44.1933548" lon="10.5909931"><ele>928.0</ele><time>2026-05-03T13:30:33.485Z</time></trkpt><trkpt lat="44.1932611" lon="10.5908958"><ele>931.5</ele><time>2026-05-03T13:30:34.486Z</time></trkpt><trkpt lat="44.1931456" lon="10.5908262"><ele>935.0</ele><time>2026-05-03T13:30:35.481Z</time></trkpt><trkpt lat="44.1930155" lon="10.5907847"><ele>938.5</ele><time>2026-05-03T13:30:36.48Z</time></trkpt><trkpt lat="44.1928819" lon="10.5907431"><ele>942.0</ele><time>2026-05-03T13:30:37.473Z</time></trkpt><trkpt lat="44.1927489" lon="10.5906943"><ele>942.0</ele><time>2026-05-03T13:30:38.476Z</time></trkpt><trkpt lat="44.1926175" lon="10.5906347"><ele>942.0</ele><time>2026-05-03T13:30:39.472Z</time></trkpt><trkpt lat="44.192492" lon="10.5905652"><ele>942.0</ele><time>2026-05-03T13:30:40.478Z</time></trkpt><trkpt lat="44.1923782" lon="10.5904721"><ele>942.0</ele><time>2026-05-03T13:30:41.479Z</time></trkpt><trkpt lat="44.1922644" lon="10.5903963"><ele>946.5</ele><time>2026-05-03T13:30:42.47Z</time></trkpt><trkpt lat="44.1921516" lon="10.5903215"><ele>951.0</ele><time>2026-05-03T13:30:43.475Z</time></trkpt><trkpt lat="44.1920437" lon="10.5902532"><ele>955.5</ele><time>2026-05-03T13:30:44.477Z</time></trkpt><trkpt lat="44.1919355" lon="10.5901852"><ele>960.0</ele><time>2026-05-03T13:30:45.474Z</time></trkpt><trkpt lat="44.1918478" lon="10.5900997"><ele>960.0</ele><time>2026-05-03T13:30:46.465Z</time></trkpt><trkpt lat="44.1917788" lon="10.5899811"><ele>960.0</ele><time>2026-05-03T13:30:47.477Z</time></trkpt><trkpt lat="44.1917665" lon="10.5898202"><ele>960.0</ele><time>2026-05-03T13:30:48.472Z</time></trkpt><trkpt lat="44.1917822" lon="10.5896394"><ele>960.0</ele><time>2026-05-03T13:30:49.47Z</time></trkpt><trkpt lat="44.1918046" lon="10.5894632"><ele>958.25</ele><time>2026-05-03T13:30:50.468Z</time></trkpt><trkpt lat="44.1918083" lon="10.5892839"><ele>956.5</ele><time>2026-05-03T13:30:51.477Z</time></trkpt><trkpt lat="44.1917969" lon="10.5891055"><ele>954.75</ele><time>2026-05-03T13:30:52.469Z</time></trkpt><trkpt lat="44.1917946" lon="10.5889454"><ele>953.0</ele><time>2026-05-03T13:30:53.467Z</time></trkpt><trkpt lat="44.1917963" lon="10.5888072"><ele>953.0</ele><time>2026-05-03T13:30:54.475Z</time></trkpt><trkpt lat="44.1917973" lon="10.5886809"><ele>953.0</ele><time>2026-05-03T13:30:55.48Z</time></trkpt><trkpt lat="44.1917987" lon="10.5885649"><ele>953.0</ele><time>2026-05-03T13:30:56.474Z</time></trkpt><trkpt lat="44.1917772" lon="10.5884515"><ele>953.0</ele><time>2026-05-03T13:30:57.481Z</time></trkpt><trkpt lat="44.1917321" lon="10.5883464"><ele>953.0</ele><time>2026-05-03T13:30:58.489Z</time></trkpt><trkpt lat="44.1916381" lon="10.5882617"><ele>949.25</ele><time>2026-05-03T13:30:59.478Z</time></trkpt><trkpt lat="44.1915319" lon="10.5881715"><ele>945.5</ele><time>2026-05-03T13:31:00.486Z</time></trkpt><trkpt lat="44.1914192" lon="10.5880765"><ele>941.75</ele><time>2026-05-03T13:31:01.482Z</time></trkpt><trkpt lat="44.1913189" lon="10.5879816"><ele>938.0</ele><time>2026-05-03T13:31:02.473Z</time></trkpt><trkpt lat="44.1912359" lon="10.5878936"><ele>944.1666666666667</ele><time>2026-05-03T13:31:03.476Z</time></trkpt><trkpt lat="44.1911503" lon="10.5878093"><ele>950.3333333333334</ele><time>2026-05-03T13:31:04.469Z</time></trkpt><trkpt lat="44.191086" lon="10.5877348"><ele>956.5</ele><time>2026-05-03T13:31:05.478Z</time></trkpt><trkpt lat="44.1910512" lon="10.5876551"><ele>962.6666666666667</ele><time>2026-05-03T13:31:06.475Z</time></trkpt><trkpt lat="44.1910556" lon="10.5875327"><ele>968.8333333333334</ele><time>2026-05-03T13:31:07.471Z</time></trkpt><trkpt lat="44.1910821" lon="10.5873973"><ele>975.0</ele><time>2026-05-03T13:31:08.469Z</time></trkpt><trkpt lat="44.1911249" lon="10.5872694"><ele>975.0</ele><time>2026-05-03T13:31:09.471Z</time></trkpt><trkpt lat="44.1912044" lon="10.5871765"><ele>975.0</ele><time>2026-05-03T13:31:10.468Z</time></trkpt><trkpt lat="44.1913082" lon="10.5871153"><ele>975.0</ele><time>2026-05-03T13:31:11.473Z</time></trkpt><trkpt lat="44.1914152" lon="10.5870477"><ele>975.0</ele><time>2026-05-03T13:31:12.476Z</time></trkpt><trkpt lat="44.1915229" lon="10.5869607"><ele>970.0</ele><time>2026-05-03T13:31:13.472Z</time></trkpt><trkpt lat="44.1916279" lon="10.5868597"><ele>965.0</ele><time>2026-05-03T13:31:14.477Z</time></trkpt><trkpt lat="44.1917221" lon="10.5867401"><ele>960.0</ele><time>2026-05-03T13:31:15.475Z</time></trkpt><trkpt lat="44.1917873" lon="10.5865943"><ele>955.0</ele><time>2026-05-03T13:31:16.478Z</time></trkpt><trkpt lat="44.1918335" lon="10.5864455"><ele>955.0</ele><time>2026-05-03T13:31:17.481Z</time></trkpt><trkpt lat="44.1918488" lon="10.5862799"><ele>955.0</ele><time>2026-05-03T13:31:18.48Z</time></trkpt><trkpt lat="44.1918345" lon="10.5861072"><ele>955.0</ele><time>2026-05-03T13:31:19.475Z</time></trkpt><trkpt lat="44.1918052" lon="10.5859362"><ele>955.0</ele><time>2026-05-03T13:31:20.481Z</time></trkpt><trkpt lat="44.1917717" lon="10.5857517"><ele>954.25</ele><time>2026-05-03T13:31:21.478Z</time></trkpt><trkpt lat="44.1917399" lon="10.5855657"><ele>953.5</ele><time>2026-05-03T13:31:22.474Z</time></trkpt><trkpt lat="44.1917032" lon="10.585377"><ele>952.75</ele><time>2026-05-03T13:31:23.476Z</time></trkpt><trkpt lat="44.1916579" lon="10.5851963"><ele>952.0</ele><time>2026-05-03T13:31:24.478Z</time></trkpt><trkpt lat="44.1916093" lon="10.5850322"><ele>952.0</ele><time>2026-05-03T13:31:25.479Z</time></trkpt><trkpt lat="44.191541" lon="10.5848839"><ele>952.0</ele><time>2026-05-03T13:31:26.479Z</time></trkpt><trkpt lat="44.1914639" lon="10.5847364"><ele>952.0</ele><time>2026-05-03T13:31:27.487Z</time></trkpt><trkpt lat="44.1913765" lon="10.5845934"><ele>952.0</ele><time>2026-05-03T13:31:28.478Z</time></trkpt><trkpt lat="44.1912842" lon="10.5844535"><ele>956.5</ele><time>2026-05-03T13:31:29.484Z</time></trkpt><trkpt lat="44.1911994" lon="10.5843177"><ele>961.0</ele><time>2026-05-03T13:31:30.481Z</time></trkpt><trkpt lat="44.1911157" lon="10.5841898"><ele>965.5</ele><time>2026-05-03T13:31:31.487Z</time></trkpt><trkpt lat="44.1910248" lon="10.5840869"><ele>970.0</ele><time>2026-05-03T13:31:32.483Z</time></trkpt><trkpt lat="44.190927" lon="10.5840044"><ele>970.0</ele><time>2026-05-03T13:31:33.482Z</time></trkpt><trkpt lat="44.1908159" lon="10.5839396"><ele>970.0</ele><time>2026-05-03T13:31:34.478Z</time></trkpt><trkpt lat="44.1906964" lon="10.5838913"><ele>970.0</ele><time>2026-05-03T13:31:35.481Z</time></trkpt><trkpt lat="44.1905791" lon="10.5838629"><ele>970.0</ele><time>2026-05-03T13:31:36.479Z</time></trkpt><trkpt lat="44.1904624" lon="10.5838405"><ele>970.6</ele><time>2026-05-03T13:31:37.478Z</time></trkpt><trkpt lat="44.1903482" lon="10.5838259"><ele>971.2</ele><time>2026-05-03T13:31:38.478Z</time></trkpt><trkpt lat="44.1902476" lon="10.5837966"><ele>971.8</ele><time>2026-05-03T13:31:39.477Z</time></trkpt><trkpt lat="44.1901551" lon="10.5837639"><ele>972.4</ele><time>2026-05-03T13:31:40.474Z</time></trkpt><trkpt lat="44.1900808" lon="10.5837277"><ele>973.0</ele><time>2026-05-03T13:31:41.467Z</time></trkpt><trkpt lat="44.1900248" lon="10.5836787"><ele>972.9999999999999</ele><time>2026-05-03T13:31:42.477Z</time></trkpt><trkpt lat="44.1899884" lon="10.5836025"><ele>973.0</ele><time>2026-05-03T13:31:43.474Z</time></trkpt><trkpt lat="44.1899623" lon="10.5835042"><ele>973.0</ele><time>2026-05-03T13:31:44.477Z</time></trkpt><trkpt lat="44.1899418" lon="10.5833967"><ele>973.0</ele><time>2026-05-03T13:31:45.482Z</time></trkpt><trkpt lat="44.1899258" lon="10.5832965"><ele>972.9999999999999</ele><time>2026-05-03T13:31:46.483Z</time></trkpt><trkpt lat="44.1899068" lon="10.5832094"><ele>973.0</ele><time>2026-05-03T13:31:47.478Z</time></trkpt><trkpt lat="44.1898613" lon="10.5830671"><ele>977.4</ele><time>2026-05-03T13:31:49.48Z</time></trkpt><trkpt lat="44.1897559" lon="10.5829894"><ele>981.8</ele><time>2026-05-03T13:31:51.487Z</time></trkpt><trkpt lat="44.1896709" lon="10.5829731"><ele>986.2</ele><time>2026-05-03T13:31:52.478Z</time></trkpt><trkpt lat="44.1895728" lon="10.5829696"><ele>990.6</ele><time>2026-05-03T13:31:53.482Z</time></trkpt><trkpt lat="44.1894648" lon="10.5829544"><ele>995.0</ele><time>2026-05-03T13:31:54.476Z</time></trkpt><trkpt lat="44.1893541" lon="10.5829315"><ele>995.0</ele><time>2026-05-03T13:31:55.486Z</time></trkpt><trkpt lat="44.1892395" lon="10.5828883"><ele>995.0</ele><time>2026-05-03T13:31:56.478Z</time></trkpt><trkpt lat="44.1891267" lon="10.5828193"><ele>995.0</ele><time>2026-05-03T13:31:57.48Z</time></trkpt><trkpt lat="44.1890092" lon="10.5827321"><ele>995.0</ele><time>2026-05-03T13:31:58.481Z</time></trkpt><trkpt lat="44.1888811" lon="10.5826396"><ele>996.3333333333334</ele><time>2026-05-03T13:31:59.486Z</time></trkpt><trkpt lat="44.1887225" lon="10.5824986"><ele>997.6666666666667</ele><time>2026-05-03T13:32:00.478Z</time></trkpt><trkpt lat="44.1885567" lon="10.5823384"><ele>999.0</ele><time>2026-05-03T13:32:01.476Z</time></trkpt><trkpt lat="44.1883967" lon="10.5821692"><ele>1000.3333333333333</ele><time>2026-05-03T13:32:02.472Z</time></trkpt><trkpt lat="44.1882472" lon="10.5819955"><ele>1001.6666666666666</ele><time>2026-05-03T13:32:03.478Z</time></trkpt><trkpt lat="44.1881169" lon="10.5818311"><ele>1003.0</ele><time>2026-05-03T13:32:04.474Z</time></trkpt><trkpt lat="44.1880101" lon="10.5816648"><ele>1003.0</ele><time>2026-05-03T13:32:05.473Z</time></trkpt><trkpt lat="44.1879201" lon="10.5815155"><ele>1003.0</ele><time>2026-05-03T13:32:06.482Z</time></trkpt><trkpt lat="44.1878041" lon="10.5814184"><ele>1003.0</ele><time>2026-05-03T13:32:07.48Z</time></trkpt><trkpt lat="44.1876682" lon="10.5813767"><ele>1003.0</ele><time>2026-05-03T13:32:08.47Z</time></trkpt><trkpt lat="44.1875229" lon="10.5813358"><ele>1003.0</ele><time>2026-05-03T13:32:09.474Z</time></trkpt><trkpt lat="44.1873811" lon="10.5813134"><ele>1003.0</ele><time>2026-05-03T13:32:10.474Z</time></trkpt><trkpt lat="44.187254" lon="10.5812931"><ele>1003.0</ele><time>2026-05-03T13:32:11.472Z</time></trkpt><trkpt lat="44.1871567" lon="10.5812429"><ele>1003.0</ele><time>2026-05-03T13:32:12.48Z</time></trkpt><trkpt lat="44.187105" lon="10.5811316"><ele>1005.25</ele><time>2026-05-03T13:32:13.473Z</time></trkpt><trkpt lat="44.1870828" lon="10.5809523"><ele>1007.5</ele><time>2026-05-03T13:32:14.469Z</time></trkpt><trkpt lat="44.1870811" lon="10.5807743"><ele>1009.75</ele><time>2026-05-03T13:32:15.48Z</time></trkpt><trkpt lat="44.1871082" lon="10.5805901"><ele>1012.0</ele><time>2026-05-03T13:32:16.469Z</time></trkpt><trkpt lat="44.1871409" lon="10.5803998"><ele>1011.0</ele><time>2026-05-03T13:32:17.48Z</time></trkpt><trkpt lat="44.1871611" lon="10.5801899"><ele>1010.0</ele><time>2026-05-03T13:32:18.475Z</time></trkpt><trkpt lat="44.1871609" lon="10.5799817"><ele>1009.0</ele><time>2026-05-03T13:32:19.471Z</time></trkpt><trkpt lat="44.1871341" lon="10.579774"><ele>1009.0</ele><time>2026-05-03T13:32:20.477Z</time></trkpt><trkpt lat="44.1871063" lon="10.5795419"><ele>1009.0</ele><time>2026-05-03T13:32:21.475Z</time></trkpt><trkpt lat="44.1870866" lon="10.5793287"><ele>1009.0</ele><time>2026-05-03T13:32:22.482Z</time></trkpt><trkpt lat="44.1870927" lon="10.5791273"><ele>1007.6666666666666</ele><time>2026-05-03T13:32:23.478Z</time></trkpt><trkpt lat="44.1871014" lon="10.5789115"><ele>1006.3333333333333</ele><time>2026-05-03T13:32:24.477Z</time></trkpt><trkpt lat="44.1870951" lon="10.5786958"><ele>1005.0</ele><time>2026-05-03T13:32:25.478Z</time></trkpt><trkpt lat="44.1870696" lon="10.5784582"><ele>1004.5</ele><time>2026-05-03T13:32:26.48Z</time></trkpt><trkpt lat="44.1870394" lon="10.5782435"><ele>1004.0</ele><time>2026-05-03T13:32:27.489Z</time></trkpt><trkpt lat="44.1870282" lon="10.5780517"><ele>1003.5</ele><time>2026-05-03T13:32:28.477Z</time></trkpt><trkpt lat="44.1870399" lon="10.5778621"><ele>1003.0</ele><time>2026-05-03T13:32:29.48Z</time></trkpt><trkpt lat="44.1871049" lon="10.5776711"><ele>1001.6666666666666</ele><time>2026-05-03T13:32:30.476Z</time></trkpt><trkpt lat="44.1872116" lon="10.577502"><ele>1000.3333333333333</ele><time>2026-05-03T13:32:31.469Z</time></trkpt><trkpt lat="44.1873528" lon="10.5773424"><ele>999.0</ele><time>2026-05-03T13:32:32.47Z</time></trkpt><trkpt lat="44.1874797" lon="10.577222"><ele>999.0</ele><time>2026-05-03T13:32:33.474Z</time></trkpt><trkpt lat="44.1876174" lon="10.5771445"><ele>999.0</ele><time>2026-05-03T13:32:34.473Z</time></trkpt><trkpt lat="44.1877775" lon="10.5771181"><ele>999.0</ele><time>2026-05-03T13:32:35.467Z</time></trkpt><trkpt lat="44.1879465" lon="10.5770964"><ele>999.0</ele><time>2026-05-03T13:32:36.464Z</time></trkpt><trkpt lat="44.1880898" lon="10.5770704"><ele>999.0</ele><time>2026-05-03T13:32:37.47Z</time></trkpt><trkpt lat="44.188218" lon="10.5770227"><ele>999.0</ele><time>2026-05-03T13:32:38.474Z</time></trkpt><trkpt lat="44.1883405" lon="10.5769513"><ele>999.0</ele><time>2026-05-03T13:32:39.47Z</time></trkpt><trkpt lat="44.1884369" lon="10.5768275"><ele>998.75</ele><time>2026-05-03T13:32:40.478Z</time></trkpt><trkpt lat="44.1885047" lon="10.5766472"><ele>998.5</ele><time>2026-05-03T13:32:41.482Z</time></trkpt><trkpt lat="44.1885347" lon="10.576468"><ele>998.25</ele><time>2026-05-03T13:32:42.484Z</time></trkpt><trkpt lat="44.1885176" lon="10.5763071"><ele>998.0</ele><time>2026-05-03T13:32:43.48Z</time></trkpt><trkpt lat="44.1884596" lon="10.5761398"><ele>997.5</ele><time>2026-05-03T13:32:44.478Z</time></trkpt><trkpt lat="44.1883888" lon="10.5759845"><ele>997.0</ele><time>2026-05-03T13:32:45.476Z</time></trkpt><trkpt lat="44.1883078" lon="10.5758174"><ele>996.5</ele><time>2026-05-03T13:32:46.475Z</time></trkpt><trkpt lat="44.1882301" lon="10.5756301"><ele>996.0</ele><time>2026-05-03T13:32:47.477Z</time></trkpt><trkpt lat="44.1881713" lon="10.5753894"><ele>995.0</ele><time>2026-05-03T13:32:48.461Z</time></trkpt><trkpt lat="44.1881606" lon="10.5751196"><ele>994.0</ele><time>2026-05-03T13:32:49.464Z</time></trkpt><trkpt lat="44.1881747" lon="10.5748556"><ele>993.0</ele><time>2026-05-03T13:32:50.46Z</time></trkpt><trkpt lat="44.1881842" lon="10.5746021"><ele>1000.6666666666667</ele><time>2026-05-03T13:32:51.468Z</time></trkpt><trkpt lat="44.1881746" lon="10.5743513"><ele>1008.3333333333334</ele><time>2026-05-03T13:32:52.467Z</time></trkpt><trkpt lat="44.188155" lon="10.5741047"><ele>1016.0</ele><time>2026-05-03T13:32:53.464Z</time></trkpt><trkpt lat="44.1881245" lon="10.5738692"><ele>1014.6666666666667</ele><time>2026-05-03T13:32:54.471Z</time></trkpt><trkpt lat="44.1880903" lon="10.5736491"><ele>1013.3333333333333</ele><time>2026-05-03T13:32:55.478Z</time></trkpt><trkpt lat="44.188061" lon="10.5734401"><ele>1012.0</ele><time>2026-05-03T13:32:56.477Z</time></trkpt><trkpt lat="44.1880562" lon="10.5732491"><ele>1012.0</ele><time>2026-05-03T13:32:57.478Z</time></trkpt><trkpt lat="44.1880843" lon="10.5730678"><ele>1012.0</ele><time>2026-05-03T13:32:58.483Z</time></trkpt><trkpt lat="44.1881571" lon="10.5729309"><ele>1012.0</ele><time>2026-05-03T13:32:59.476Z</time></trkpt><trkpt lat="44.1882291" lon="10.5727834"><ele>1012.0</ele><time>2026-05-03T13:33:00.484Z</time></trkpt><trkpt lat="44.1882903" lon="10.5726186"><ele>1008.5</ele><time>2026-05-03T13:33:01.486Z</time></trkpt><trkpt lat="44.1883019" lon="10.5724266"><ele>1005.0</ele><time>2026-05-03T13:33:02.481Z</time></trkpt><trkpt lat="44.1882528" lon="10.5722398"><ele>1001.5</ele><time>2026-05-03T13:33:03.476Z</time></trkpt><trkpt lat="44.1882094" lon="10.572076"><ele>998.0</ele><time>2026-05-03T13:33:04.478Z</time></trkpt><trkpt lat="44.1881905" lon="10.5719068"><ele>998.0</ele><time>2026-05-03T13:33:05.48Z</time></trkpt><trkpt lat="44.1882146" lon="10.5717458"><ele>998.0</ele><time>2026-05-03T13:33:06.472Z</time></trkpt><trkpt lat="44.1882724" lon="10.5715997"><ele>998.0</ele><time>2026-05-03T13:33:07.477Z</time></trkpt><trkpt lat="44.1883654" lon="10.5714596"><ele>998.0</ele><time>2026-05-03T13:33:08.476Z</time></trkpt><trkpt lat="44.1884757" lon="10.5713283"><ele>1004.6666666666667</ele><time>2026-05-03T13:33:09.473Z</time></trkpt><trkpt lat="44.1885737" lon="10.571174"><ele>1011.3333333333333</ele><time>2026-05-03T13:33:10.466Z</time></trkpt><trkpt lat="44.188661" lon="10.5709838"><ele>1018.0</ele><time>2026-05-03T13:33:11.474Z</time></trkpt><trkpt lat="44.1887447" lon="10.5707767"><ele>1018.0</ele><time>2026-05-03T13:33:12.477Z</time></trkpt><trkpt lat="44.1888284" lon="10.5705807"><ele>1018.0</ele><time>2026-05-03T13:33:13.479Z</time></trkpt><trkpt lat="44.1888941" lon="10.5704066"><ele>1018.0</ele><time>2026-05-03T13:33:14.48Z</time></trkpt><trkpt lat="44.1889581" lon="10.5702587"><ele>1018.0</ele><time>2026-05-03T13:33:15.476Z</time></trkpt><trkpt lat="44.1890188" lon="10.5701429"><ele>1018.75</ele><time>2026-05-03T13:33:16.478Z</time></trkpt><trkpt lat="44.1890494" lon="10.5700227"><ele>1019.5</ele><time>2026-05-03T13:33:17.47Z</time></trkpt><trkpt lat="44.1890471" lon="10.5698612"><ele>1020.25</ele><time>2026-05-03T13:33:18.479Z</time></trkpt><trkpt lat="44.189006" lon="10.569676"><ele>1021.0</ele><time>2026-05-03T13:33:19.469Z</time></trkpt><trkpt lat="44.1889613" lon="10.5694532"><ele>1021.0</ele><time>2026-05-03T13:33:20.475Z</time></trkpt><trkpt lat="44.1888907" lon="10.5692257"><ele>1021.0</ele><time>2026-05-03T13:33:21.474Z</time></trkpt><trkpt lat="44.188821" lon="10.5690048"><ele>1021.0</ele><time>2026-05-03T13:33:22.477Z</time></trkpt><trkpt lat="44.1887513" lon="10.5687929"><ele>1017.25</ele><time>2026-05-03T13:33:23.472Z</time></trkpt><trkpt lat="44.1886861" lon="10.5686009"><ele>1013.5</ele><time>2026-05-03T13:33:24.466Z</time></trkpt><trkpt lat="44.1886277" lon="10.5684356"><ele>1009.75</ele><time>2026-05-03T13:33:25.476Z</time></trkpt><trkpt lat="44.1885792" lon="10.56827"><ele>1006.0</ele><time>2026-05-03T13:33:26.472Z</time></trkpt><trkpt lat="44.1885408" lon="10.5681087"><ele>1006.0</ele><time>2026-05-03T13:33:27.48Z</time></trkpt><trkpt lat="44.1884933" lon="10.5679594"><ele>1006.0</ele><time>2026-05-03T13:33:28.479Z</time></trkpt><trkpt lat="44.1884247" lon="10.5678133"><ele>1006.0</ele><time>2026-05-03T13:33:29.477Z</time></trkpt><trkpt lat="44.1883488" lon="10.5676777"><ele>1006.0</ele><time>2026-05-03T13:33:30.482Z</time></trkpt><trkpt lat="44.1882668" lon="10.5675445"><ele>1009.0</ele><time>2026-05-03T13:33:31.483Z</time></trkpt><trkpt lat="44.1881728" lon="10.5674158"><ele>1012.0</ele><time>2026-05-03T13:33:32.482Z</time></trkpt><trkpt lat="44.1880727" lon="10.5672935"><ele>1015.0</ele><time>2026-05-03T13:33:33.48Z</time></trkpt><trkpt lat="44.18797" lon="10.5671809"><ele>1018.0</ele><time>2026-05-03T13:33:34.48Z</time></trkpt><trkpt lat="44.1878666" lon="10.5670835"><ele>1012.25</ele><time>2026-05-03T13:33:35.48Z</time></trkpt><trkpt lat="44.1877659" lon="10.5669918"><ele>1006.5</ele><time>2026-05-03T13:33:36.479Z</time></trkpt><trkpt lat="44.1876712" lon="10.5669034"><ele>1000.75</ele><time>2026-05-03T13:33:37.479Z</time></trkpt><trkpt lat="44.1875766" lon="10.5668093"><ele>995.0</ele><time>2026-05-03T13:33:38.475Z</time></trkpt><trkpt lat="44.1874944" lon="10.5666991"><ele>995.0</ele><time>2026-05-03T13:33:39.474Z</time></trkpt><trkpt lat="44.1874326" lon="10.5665622"><ele>995.0</ele><time>2026-05-03T13:33:40.47Z</time></trkpt><trkpt lat="44.1873913" lon="10.5663971"><ele>995.0</ele><time>2026-05-03T13:33:41.466Z</time></trkpt><trkpt lat="44.1873624" lon="10.5662262"><ele>995.0</ele><time>2026-05-03T13:33:42.471Z</time></trkpt><trkpt lat="44.1873239" lon="10.5660775"><ele>994.8</ele><time>2026-05-03T13:33:43.469Z</time></trkpt><trkpt lat="44.1872761" lon="10.5659554"><ele>994.6</ele><time>2026-05-03T13:33:44.481Z</time></trkpt><trkpt lat="44.1871991" lon="10.5658686"><ele>994.4000000000001</ele><time>2026-05-03T13:33:45.472Z</time></trkpt><trkpt lat="44.1871061" lon="10.5657993"><ele>994.2</ele><time>2026-05-03T13:33:46.48Z</time></trkpt><trkpt lat="44.1869842" lon="10.565761"><ele>994.0</ele><time>2026-05-03T13:33:47.473Z</time></trkpt><trkpt lat="44.1868484" lon="10.5657264"><ele>994.0</ele><time>2026-05-03T13:33:48.477Z</time></trkpt><trkpt lat="44.1867141" lon="10.5656892"><ele>994.0</ele><time>2026-05-03T13:33:49.468Z</time></trkpt><trkpt lat="44.1865872" lon="10.5656337"><ele>994.0</ele><time>2026-05-03T13:33:50.472Z</time></trkpt><trkpt lat="44.1864914" lon="10.5655785"><ele>994.0</ele><time>2026-05-03T13:33:51.475Z</time></trkpt><trkpt lat="44.1864235" lon="10.5655148"><ele>993.6666666666666</ele><time>2026-05-03T13:33:52.473Z</time></trkpt><trkpt lat="44.1863899" lon="10.5654209"><ele>993.3333333333333</ele><time>2026-05-03T13:33:53.473Z</time></trkpt><trkpt lat="44.1863934" lon="10.5653166"><ele>993.0</ele><time>2026-05-03T13:33:54.465Z</time></trkpt><trkpt lat="44.1864025" lon="10.5651979"><ele>992.6666666666667</ele><time>2026-05-03T13:33:55.468Z</time></trkpt><trkpt lat="44.1864249" lon="10.5650715"><ele>992.3333333333334</ele><time>2026-05-03T13:33:56.476Z</time></trkpt><trkpt lat="44.186455" lon="10.5649365"><ele>992.0</ele><time>2026-05-03T13:33:57.474Z</time></trkpt><trkpt lat="44.1864944" lon="10.5648145"><ele>989.2</ele><time>2026-05-03T13:33:58.479Z</time></trkpt><trkpt lat="44.1865492" lon="10.5647049"><ele>986.4000000000001</ele><time>2026-05-03T13:33:59.486Z</time></trkpt><trkpt lat="44.1866311" lon="10.5646391"><ele>983.5999999999999</ele><time>2026-05-03T13:34:00.487Z</time></trkpt><trkpt lat="44.1867442" lon="10.5646066"><ele>980.8</ele><time>2026-05-03T13:34:01.486Z</time></trkpt><trkpt lat="44.1868641" lon="10.5645794"><ele>978.0</ele><time>2026-05-03T13:34:02.48Z</time></trkpt><trkpt lat="44.1869919" lon="10.5645542"><ele>982.0</ele><time>2026-05-03T13:34:03.486Z</time></trkpt><trkpt lat="44.1871216" lon="10.5645202"><ele>986.0</ele><time>2026-05-03T13:34:04.482Z</time></trkpt><trkpt lat="44.1872447" lon="10.5644845"><ele>990.0</ele><time>2026-05-03T13:34:05.489Z</time></trkpt><trkpt lat="44.1873663" lon="10.5644443"><ele>994.0</ele><time>2026-05-03T13:34:06.49Z</time></trkpt><trkpt lat="44.1874816" lon="10.5644105"><ele>994.2</ele><time>2026-05-03T13:34:07.489Z</time></trkpt><trkpt lat="44.1875926" lon="10.5643834"><ele>994.4000000000001</ele><time>2026-05-03T13:34:08.485Z</time></trkpt><trkpt lat="44.187701" lon="10.5643714"><ele>994.6</ele><time>2026-05-03T13:34:09.484Z</time></trkpt><trkpt lat="44.1878137" lon="10.5643807"><ele>994.8</ele><time>2026-05-03T13:34:10.486Z</time></trkpt><trkpt lat="44.1879218" lon="10.564396"><ele>995.0</ele><time>2026-05-03T13:34:11.489Z</time></trkpt><trkpt lat="44.1880155" lon="10.5644114"><ele>995.0</ele><time>2026-05-03T13:34:12.484Z</time></trkpt><trkpt lat="44.188099" lon="10.5643974"><ele>995.0</ele><time>2026-05-03T13:34:13.491Z</time></trkpt><trkpt lat="44.1881629" lon="10.56434"><ele>995.0</ele><time>2026-05-03T13:34:14.5Z</time></trkpt><trkpt lat="44.1882016" lon="10.5642373"><ele>995.0</ele><time>2026-05-03T13:34:15.495Z</time></trkpt><trkpt lat="44.1882221" lon="10.5640994"><ele>995.0</ele><time>2026-05-03T13:34:16.489Z</time></trkpt><trkpt lat="44.1882287" lon="10.563921"><ele>995.0</ele><time>2026-05-03T13:34:17.489Z</time></trkpt><trkpt lat="44.1882333" lon="10.563732"><ele>995.0</ele><time>2026-05-03T13:34:18.488Z</time></trkpt><trkpt lat="44.1882431" lon="10.5635291"><ele>995.0</ele><time>2026-05-03T13:34:19.484Z</time></trkpt><trkpt lat="44.1882511" lon="10.5633138"><ele>995.0</ele><time>2026-05-03T13:34:20.485Z</time></trkpt><trkpt lat="44.1882602" lon="10.5630589"><ele>996.0</ele><time>2026-05-03T13:34:21.486Z</time></trkpt><trkpt lat="44.1882839" lon="10.5628006"><ele>997.0</ele><time>2026-05-03T13:34:22.488Z</time></trkpt><trkpt lat="44.188301" lon="10.5625623"><ele>998.0</ele><time>2026-05-03T13:34:23.49Z</time></trkpt><trkpt lat="44.1883209" lon="10.5623319"><ele>998.0</ele><time>2026-05-03T13:34:24.493Z</time></trkpt><trkpt lat="44.1883273" lon="10.5621053"><ele>998.0</ele><time>2026-05-03T13:34:25.486Z</time></trkpt><trkpt lat="44.1883159" lon="10.5619042"><ele>998.0</ele><time>2026-05-03T13:34:26.49Z</time></trkpt><trkpt lat="44.188314" lon="10.5617338"><ele>998.0</ele><time>2026-05-03T13:34:27.485Z</time></trkpt><trkpt lat="44.1883553" lon="10.5615747"><ele>1000.2</ele><time>2026-05-03T13:34:28.494Z</time></trkpt><trkpt lat="44.1884299" lon="10.5614877"><ele>1002.4</ele><time>2026-05-03T13:34:29.488Z</time></trkpt><trkpt lat="44.1885408" lon="10.5614771"><ele>1004.6000000000001</ele><time>2026-05-03T13:34:30.48Z</time></trkpt><trkpt lat="44.1886433" lon="10.5615025"><ele>1006.8000000000001</ele><time>2026-05-03T13:34:31.488Z</time></trkpt><trkpt lat="44.1887514" lon="10.5615572"><ele>1009.0</ele><time>2026-05-03T13:34:32.48Z</time></trkpt><trkpt lat="44.1888671" lon="10.5616121"><ele>1009.0</ele><time>2026-05-03T13:34:33.485Z</time></trkpt><trkpt lat="44.1889987" lon="10.5616347"><ele>1009.0</ele><time>2026-05-03T13:34:34.499Z</time></trkpt><trkpt lat="44.1891401" lon="10.561611"><ele>1009.0</ele><time>2026-05-03T13:34:35.485Z</time></trkpt><trkpt lat="44.1892732" lon="10.5615454"><ele>1009.0</ele><time>2026-05-03T13:34:36.491Z</time></trkpt><trkpt lat="44.1893835" lon="10.5614048"><ele>1009.0</ele><time>2026-05-03T13:34:37.494Z</time></trkpt><trkpt lat="44.1894943" lon="10.5612151"><ele>1009.0</ele><time>2026-05-03T13:34:38.49Z</time></trkpt><trkpt lat="44.189613" lon="10.5610213"><ele>1009.0</ele><time>2026-05-03T13:34:39.494Z</time></trkpt><trkpt lat="44.1897119" lon="10.5608185"><ele>1009.5</ele><time>2026-05-03T13:34:40.492Z</time></trkpt><trkpt lat="44.1897981" lon="10.5606362"><ele>1010.0</ele><time>2026-05-03T13:34:41.491Z</time></trkpt><trkpt lat="44.1898627" lon="10.5604974"><ele>1010.5</ele><time>2026-05-03T13:34:42.5Z</time></trkpt><trkpt lat="44.1898795" lon="10.5603823"><ele>1011.0</ele><time>2026-05-03T13:34:43.495Z</time></trkpt><trkpt lat="44.1898545" lon="10.560241"><ele>1013.5</ele><time>2026-05-03T13:34:44.496Z</time></trkpt><trkpt lat="44.18982" lon="10.5600803"><ele>1016.0</ele><time>2026-05-03T13:34:45.49Z</time></trkpt><trkpt lat="44.1898015" lon="10.5599127"><ele>1018.5</ele><time>2026-05-03T13:34:46.487Z</time></trkpt><trkpt lat="44.1898193" lon="10.5597375"><ele>1021.0</ele><time>2026-05-03T13:34:47.481Z</time></trkpt><trkpt lat="44.1898459" lon="10.5595642"><ele>1022.1999999999999</ele><time>2026-05-03T13:34:48.486Z</time></trkpt><trkpt lat="44.1898735" lon="10.5594248"><ele>1023.3999999999999</ele><time>2026-05-03T13:34:49.483Z</time></trkpt><trkpt lat="44.1898695" lon="10.5592833"><ele>1024.6</ele><time>2026-05-03T13:34:50.484Z</time></trkpt><trkpt lat="44.1898172" lon="10.5591549"><ele>1025.8</ele><time>2026-05-03T13:34:51.493Z</time></trkpt><trkpt lat="44.1897551" lon="10.5590189"><ele>1027.0</ele><time>2026-05-03T13:34:52.489Z</time></trkpt><trkpt lat="44.1897251" lon="10.5588778"><ele>1028.8</ele><time>2026-05-03T13:34:53.49Z</time></trkpt><trkpt lat="44.1897193" lon="10.5587377"><ele>1030.6</ele><time>2026-05-03T13:34:54.49Z</time></trkpt><trkpt lat="44.189731" lon="10.5585942"><ele>1032.3999999999999</ele><time>2026-05-03T13:34:55.491Z</time></trkpt><trkpt lat="44.18977" lon="10.5584571"><ele>1034.2</ele><time>2026-05-03T13:34:56.494Z</time></trkpt><trkpt lat="44.1898242" lon="10.558326"><ele>1036.0</ele><time>2026-05-03T13:34:57.492Z</time></trkpt><trkpt lat="44.1899042" lon="10.5581914"><ele>1036.0</ele><time>2026-05-03T13:34:58.5Z</time></trkpt><trkpt lat="44.1899798" lon="10.558054"><ele>1036.0</ele><time>2026-05-03T13:34:59.491Z</time></trkpt><trkpt lat="44.1900448" lon="10.5579052"><ele>1036.0</ele><time>2026-05-03T13:35:00.49Z</time></trkpt><trkpt lat="44.1900807" lon="10.5577516"><ele>1036.0</ele><time>2026-05-03T13:35:01.495Z</time></trkpt><trkpt lat="44.1901034" lon="10.557602"><ele>1038.0</ele><time>2026-05-03T13:35:02.491Z</time></trkpt><trkpt lat="44.1900894" lon="10.5574471"><ele>1040.0</ele><time>2026-05-03T13:35:03.488Z</time></trkpt><trkpt lat="44.1900684" lon="10.5572911"><ele>1042.0</ele><time>2026-05-03T13:35:04.491Z</time></trkpt><trkpt lat="44.1900583" lon="10.557142"><ele>1044.0</ele><time>2026-05-03T13:35:05.493Z</time></trkpt><trkpt lat="44.1900646" lon="10.5569841"><ele>1046.0</ele><time>2026-05-03T13:35:06.493Z</time></trkpt><trkpt lat="44.1900582" lon="10.5568122"><ele>1048.2</ele><time>2026-05-03T13:35:07.497Z</time></trkpt><trkpt lat="44.1900417" lon="10.5566406"><ele>1050.3999999999999</ele><time>2026-05-03T13:35:08.49Z</time></trkpt><trkpt lat="44.1900331" lon="10.5564954"><ele>1052.6</ele><time>2026-05-03T13:35:09.501Z</time></trkpt><trkpt lat="44.1900521" lon="10.5563703"><ele>1054.8</ele><time>2026-05-03T13:35:10.495Z</time></trkpt><trkpt lat="44.1901093" lon="10.556286"><ele>1057.0</ele><time>2026-05-03T13:35:11.5Z</time></trkpt><trkpt lat="44.1902067" lon="10.5562524"><ele>1057.0</ele><time>2026-05-03T13:35:12.5Z</time></trkpt><trkpt lat="44.1903339" lon="10.5562631"><ele>1057.0</ele><time>2026-05-03T13:35:13.487Z</time></trkpt><trkpt lat="44.1904568" lon="10.5562835"><ele>1057.0</ele><time>2026-05-03T13:35:14.494Z</time></trkpt><trkpt lat="44.1905862" lon="10.5562927"><ele>1057.0</ele><time>2026-05-03T13:35:15.491Z</time></trkpt><trkpt lat="44.1907164" lon="10.5562765"><ele>1056.0</ele><time>2026-05-03T13:35:16.497Z</time></trkpt><trkpt lat="44.1908187" lon="10.5562257"><ele>1055.0</ele><time>2026-05-03T13:35:17.485Z</time></trkpt><trkpt lat="44.1908815" lon="10.5561361"><ele>1054.0</ele><time>2026-05-03T13:35:18.498Z</time></trkpt><trkpt lat="44.1909163" lon="10.5560185"><ele>1053.0</ele><time>2026-05-03T13:35:19.495Z</time></trkpt><trkpt lat="44.1909267" lon="10.5558866"><ele>1052.0</ele><time>2026-05-03T13:35:20.471Z</time></trkpt><trkpt lat="44.19091" lon="10.55576"><ele>1052.0</ele><time>2026-05-03T13:35:21.486Z</time></trkpt><trkpt lat="44.1908852" lon="10.5556581"><ele>1052.0</ele><time>2026-05-03T13:35:22.484Z</time></trkpt><trkpt lat="44.1908205" lon="10.5555339"><ele>1052.0</ele><time>2026-05-03T13:35:24.496Z</time></trkpt><trkpt lat="44.19074" lon="10.5554566"><ele>1052.0</ele><time>2026-05-03T13:35:26.495Z</time></trkpt><trkpt lat="44.1906868" lon="10.5553861"><ele>1052.0</ele><time>2026-05-03T13:35:27.493Z</time></trkpt><trkpt lat="44.1906227" lon="10.5553"><ele>1052.0</ele><time>2026-05-03T13:35:28.491Z</time></trkpt><trkpt lat="44.1905456" lon="10.5551947"><ele>1053.25</ele><time>2026-05-03T13:35:29.496Z</time></trkpt><trkpt lat="44.1904697" lon="10.5550743"><ele>1054.5</ele><time>2026-05-03T13:35:30.496Z</time></trkpt><trkpt lat="44.1903929" lon="10.5549277"><ele>1055.75</ele><time>2026-05-03T13:35:31.495Z</time></trkpt><trkpt lat="44.1903302" lon="10.5547646"><ele>1057.0</ele><time>2026-05-03T13:35:32.49Z</time></trkpt><trkpt lat="44.1902739" lon="10.554591"><ele>1057.5</ele><time>2026-05-03T13:35:33.491Z</time></trkpt><trkpt lat="44.1902214" lon="10.5544237"><ele>1058.0</ele><time>2026-05-03T13:35:34.491Z</time></trkpt><trkpt lat="44.1901776" lon="10.5542525"><ele>1058.5</ele><time>2026-05-03T13:35:35.498Z</time></trkpt><trkpt lat="44.1901663" lon="10.5540877"><ele>1059.0</ele><time>2026-05-03T13:35:36.498Z</time></trkpt><trkpt lat="44.1901878" lon="10.5539534"><ele>1059.0</ele><time>2026-05-03T13:35:37.493Z</time></trkpt><trkpt lat="44.1902351" lon="10.5538608"><ele>1059.0</ele><time>2026-05-03T13:35:38.484Z</time></trkpt><trkpt lat="44.1902904" lon="10.5537881"><ele>1059.0</ele><time>2026-05-03T13:35:39.485Z</time></trkpt><trkpt lat="44.1903467" lon="10.5537153"><ele>1059.0</ele><time>2026-05-03T13:35:40.486Z</time></trkpt><trkpt lat="44.1904199" lon="10.5536332"><ele>1059.0</ele><time>2026-05-03T13:35:41.489Z</time></trkpt><trkpt lat="44.1904984" lon="10.553538"><ele>1059.0</ele><time>2026-05-03T13:35:42.489Z</time></trkpt><trkpt lat="44.1905937" lon="10.5534426"><ele>1059.0</ele><time>2026-05-03T13:35:43.483Z</time></trkpt><trkpt lat="44.1906955" lon="10.5533439"><ele>1059.0</ele><time>2026-05-03T13:35:44.486Z</time></trkpt><trkpt lat="44.1908044" lon="10.5532563"><ele>1059.0</ele><time>2026-05-03T13:35:45.489Z</time></trkpt><trkpt lat="44.1909291" lon="10.5531827"><ele>1059.0</ele><time>2026-05-03T13:35:46.482Z</time></trkpt><trkpt lat="44.191063" lon="10.5531143"><ele>1059.0</ele><time>2026-05-03T13:35:47.484Z</time></trkpt><trkpt lat="44.191201" lon="10.5530577"><ele>1059.0</ele><time>2026-05-03T13:35:48.485Z</time></trkpt><trkpt lat="44.1913377" lon="10.5530154"><ele>1059.0</ele><time>2026-05-03T13:35:49.488Z</time></trkpt><trkpt lat="44.1914607" lon="10.5529816"><ele>1059.0</ele><time>2026-05-03T13:35:50.486Z</time></trkpt><trkpt lat="44.1915751" lon="10.5529544"><ele>1058.8</ele><time>2026-05-03T13:35:51.483Z</time></trkpt><trkpt lat="44.1916869" lon="10.5529233"><ele>1058.6000000000001</ele><time>2026-05-03T13:35:52.486Z</time></trkpt><trkpt lat="44.1917866" lon="10.5528798"><ele>1058.4</ele><time>2026-05-03T13:35:53.487Z</time></trkpt><trkpt lat="44.1918708" lon="10.5528187"><ele>1058.2</ele><time>2026-05-03T13:35:54.49Z</time></trkpt><trkpt lat="44.1919335" lon="10.552723"><ele>1058.0</ele><time>2026-05-03T13:35:55.491Z</time></trkpt><trkpt lat="44.1919864" lon="10.5526015"><ele>1060.6</ele><time>2026-05-03T13:35:56.487Z</time></trkpt><trkpt lat="44.1920357" lon="10.5524668"><ele>1063.1999999999998</ele><time>2026-05-03T13:35:57.496Z</time></trkpt><trkpt lat="44.1920805" lon="10.5523301"><ele>1065.8</ele><time>2026-05-03T13:35:58.494Z</time></trkpt><trkpt lat="44.1921274" lon="10.5522045"><ele>1068.3999999999999</ele><time>2026-05-03T13:35:59.49Z</time></trkpt><trkpt lat="44.1921614" lon="10.5520882"><ele>1071.0</ele><time>2026-05-03T13:36:00.495Z</time></trkpt><trkpt lat="44.1921753" lon="10.5519755"><ele>1072.2</ele><time>2026-05-03T13:36:01.492Z</time></trkpt><trkpt lat="44.1921501" lon="10.5518535"><ele>1073.3999999999999</ele><time>2026-05-03T13:36:02.486Z</time></trkpt><trkpt lat="44.1921064" lon="10.5517335"><ele>1074.6</ele><time>2026-05-03T13:36:03.49Z</time></trkpt><trkpt lat="44.1920618" lon="10.551609"><ele>1075.8</ele><time>2026-05-03T13:36:04.484Z</time></trkpt><trkpt lat="44.1920071" lon="10.5514858"><ele>1077.0</ele><time>2026-05-03T13:36:05.484Z</time></trkpt><trkpt lat="44.1919408" lon="10.5513818"><ele>1077.0</ele><time>2026-05-03T13:36:06.489Z</time></trkpt><trkpt lat="44.1918594" lon="10.5512848"><ele>1077.0</ele><time>2026-05-03T13:36:07.495Z</time></trkpt><trkpt lat="44.1917769" lon="10.5512389"><ele>1077.0</ele><time>2026-05-03T13:36:08.486Z</time></trkpt><trkpt lat="44.1916843" lon="10.5512769"><ele>1077.0</ele><time>2026-05-03T13:36:09.477Z</time></trkpt><trkpt lat="44.1915849" lon="10.5513217"><ele>1077.0</ele><time>2026-05-03T13:36:10.479Z</time></trkpt><trkpt lat="44.1914849" lon="10.5513766"><ele>1078.0</ele><time>2026-05-03T13:36:11.485Z</time></trkpt><trkpt lat="44.1913816" lon="10.5514414"><ele>1079.0</ele><time>2026-05-03T13:36:12.485Z</time></trkpt><trkpt lat="44.191279" lon="10.5514959"><ele>1080.0</ele><time>2026-05-03T13:36:13.481Z</time></trkpt><trkpt lat="44.1911765" lon="10.551525"><ele>1081.0</ele><time>2026-05-03T13:36:14.49Z</time></trkpt><trkpt lat="44.1910919" lon="10.5515166"><ele>1082.0</ele><time>2026-05-03T13:36:15.488Z</time></trkpt><trkpt lat="44.1910611" lon="10.5513778"><ele>1082.0</ele><time>2026-05-03T13:36:17.487Z</time></trkpt><trkpt lat="44.1911153" lon="10.5512708"><ele>1082.0</ele><time>2026-05-03T13:36:18.483Z</time></trkpt><trkpt lat="44.1911949" lon="10.5511608"><ele>1082.0</ele><time>2026-05-03T13:36:19.481Z</time></trkpt><trkpt lat="44.1912821" lon="10.5510404"><ele>1082.0</ele><time>2026-05-03T13:36:20.48Z</time></trkpt><trkpt lat="44.1913775" lon="10.5509104"><ele>1083.0</ele><time>2026-05-03T13:36:21.485Z</time></trkpt><trkpt lat="44.1914662" lon="10.5507672"><ele>1084.0</ele><time>2026-05-03T13:36:22.481Z</time></trkpt><trkpt lat="44.191541" lon="10.5506041"><ele>1085.0</ele><time>2026-05-03T13:36:23.484Z</time></trkpt><trkpt lat="44.1916007" lon="10.5504315"><ele>1086.0</ele><time>2026-05-03T13:36:24.485Z</time></trkpt><trkpt lat="44.1916223" lon="10.5502236"><ele>1087.25</ele><time>2026-05-03T13:36:25.479Z</time></trkpt><trkpt lat="44.1916198" lon="10.5500162"><ele>1088.5</ele><time>2026-05-03T13:36:26.482Z</time></trkpt><trkpt lat="44.1916145" lon="10.5498258"><ele>1089.75</ele><time>2026-05-03T13:36:27.486Z</time></trkpt><trkpt lat="44.1916158" lon="10.5496569"><ele>1091.0</ele><time>2026-05-03T13:36:28.487Z</time></trkpt><trkpt lat="44.1916381" lon="10.5494968"><ele>1092.75</ele><time>2026-05-03T13:36:29.492Z</time></trkpt><trkpt lat="44.1916965" lon="10.5493443"><ele>1094.5</ele><time>2026-05-03T13:36:30.49Z</time></trkpt><trkpt lat="44.1917764" lon="10.5491925"><ele>1096.25</ele><time>2026-05-03T13:36:31.486Z</time></trkpt><trkpt lat="44.1918614" lon="10.549035"><ele>1098.0</ele><time>2026-05-03T13:36:32.482Z</time></trkpt><trkpt lat="44.1919403" lon="10.5488676"><ele>1098.5</ele><time>2026-05-03T13:36:33.49Z</time></trkpt><trkpt lat="44.192039" lon="10.5486927"><ele>1099.0</ele><time>2026-05-03T13:36:34.485Z</time></trkpt><trkpt lat="44.1921394" lon="10.5485514"><ele>1099.5</ele><time>2026-05-03T13:36:35.496Z</time></trkpt><trkpt lat="44.1922562" lon="10.5484856"><ele>1100.0</ele><time>2026-05-03T13:36:36.491Z</time></trkpt><trkpt lat="44.1923813" lon="10.5484724"><ele>1100.0</ele><time>2026-05-03T13:36:37.483Z</time></trkpt><trkpt lat="44.1925105" lon="10.5485013"><ele>1100.0</ele><time>2026-05-03T13:36:38.486Z</time></trkpt><trkpt lat="44.1926476" lon="10.5485309"><ele>1100.0</ele><time>2026-05-03T13:36:39.482Z</time></trkpt><trkpt lat="44.1927738" lon="10.5485607"><ele>1100.0</ele><time>2026-05-03T13:36:40.485Z</time></trkpt><trkpt lat="44.1928918" lon="10.5485786"><ele>1100.0</ele><time>2026-05-03T13:36:41.486Z</time></trkpt><trkpt lat="44.1929943" lon="10.5485662"><ele>1100.0</ele><time>2026-05-03T13:36:42.481Z</time></trkpt><trkpt lat="44.1930746" lon="10.5485328"><ele>1100.0</ele><time>2026-05-03T13:36:43.49Z</time></trkpt><trkpt lat="44.1931173" lon="10.5484559"><ele>1100.0</ele><time>2026-05-03T13:36:44.499Z</time></trkpt><trkpt lat="44.1931241" lon="10.5483365"><ele>1100.0</ele><time>2026-05-03T13:36:45.488Z</time></trkpt><trkpt lat="44.1931073" lon="10.5481859"><ele>1100.0</ele><time>2026-05-03T13:36:46.489Z</time></trkpt><trkpt lat="44.1931122" lon="10.548028"><ele>1100.0</ele><time>2026-05-03T13:36:47.484Z</time></trkpt><trkpt lat="44.1931438" lon="10.5478701"><ele>1100.0</ele><time>2026-05-03T13:36:48.49Z</time></trkpt><trkpt lat="44.1932137" lon="10.5477248"><ele>1100.0</ele><time>2026-05-03T13:36:49.488Z</time></trkpt><trkpt lat="44.1932945" lon="10.5475797"><ele>1101.25</ele><time>2026-05-03T13:36:50.485Z</time></trkpt><trkpt lat="44.1933818" lon="10.5474319"><ele>1102.5</ele><time>2026-05-03T13:36:51.485Z</time></trkpt><trkpt lat="44.1934708" lon="10.5472788"><ele>1103.75</ele><time>2026-05-03T13:36:52.489Z</time></trkpt><trkpt lat="44.1935563" lon="10.5471212"><ele>1105.0</ele><time>2026-05-03T13:36:53.494Z</time></trkpt><trkpt lat="44.1936202" lon="10.5469571"><ele>1107.25</ele><time>2026-05-03T13:36:54.492Z</time></trkpt><trkpt lat="44.1936564" lon="10.5467686"><ele>1109.5</ele><time>2026-05-03T13:36:55.485Z</time></trkpt><trkpt lat="44.1936783" lon="10.5465842"><ele>1111.75</ele><time>2026-05-03T13:36:56.488Z</time></trkpt><trkpt lat="44.1937007" lon="10.5464098"><ele>1114.0</ele><time>2026-05-03T13:36:57.483Z</time></trkpt><trkpt lat="44.1937361" lon="10.5462568"><ele>1114.5</ele><time>2026-05-03T13:36:58.491Z</time></trkpt><trkpt lat="44.1937876" lon="10.5461168"><ele>1115.0</ele><time>2026-05-03T13:36:59.488Z</time></trkpt><trkpt lat="44.1939125" lon="10.5460229"><ele>1115.5</ele><time>2026-05-03T13:37:00.49Z</time></trkpt><trkpt lat="44.1940465" lon="10.5459272"><ele>1116.0</ele><time>2026-05-03T13:37:01.495Z</time></trkpt><trkpt lat="44.1941881" lon="10.5458323"><ele>1116.0</ele><time>2026-05-03T13:37:02.495Z</time></trkpt><trkpt lat="44.1943243" lon="10.5457266"><ele>1116.0</ele><time>2026-05-03T13:37:03.491Z</time></trkpt><trkpt lat="44.1944588" lon="10.5456208"><ele>1116.0</ele><time>2026-05-03T13:37:04.495Z</time></trkpt><trkpt lat="44.1945721" lon="10.5455324"><ele>1116.0</ele><time>2026-05-03T13:37:05.492Z</time></trkpt><trkpt lat="44.1946554" lon="10.545436"><ele>1117.25</ele><time>2026-05-03T13:37:06.484Z</time></trkpt><trkpt lat="44.1947206" lon="10.5453119"><ele>1118.5</ele><time>2026-05-03T13:37:07.497Z</time></trkpt><trkpt lat="44.1947371" lon="10.5451756"><ele>1119.75</ele><time>2026-05-03T13:37:08.496Z</time></trkpt><trkpt lat="44.19472" lon="10.5450117"><ele>1121.0</ele><time>2026-05-03T13:37:09.489Z</time></trkpt><trkpt lat="44.1946881" lon="10.5448382"><ele>1121.0</ele><time>2026-05-03T13:37:10.493Z</time></trkpt><trkpt lat="44.1946491" lon="10.5446562"><ele>1121.0</ele><time>2026-05-03T13:37:11.488Z</time></trkpt><trkpt lat="44.1946047" lon="10.5444803"><ele>1121.0</ele><time>2026-05-03T13:37:12.495Z</time></trkpt><trkpt lat="44.1945643" lon="10.544323"><ele>1121.0</ele><time>2026-05-03T13:37:13.49Z</time></trkpt><trkpt lat="44.1945401" lon="10.5441829"><ele>1122.3999999999999</ele><time>2026-05-03T13:37:14.5Z</time></trkpt><trkpt lat="44.1945555" lon="10.5440723"><ele>1123.8</ele><time>2026-05-03T13:37:15.493Z</time></trkpt><trkpt lat="44.1946258" lon="10.5439986"><ele>1125.1999999999998</ele><time>2026-05-03T13:37:16.493Z</time></trkpt><trkpt lat="44.1947438" lon="10.5439662"><ele>1126.6</ele><time>2026-05-03T13:37:17.499Z</time></trkpt><trkpt lat="44.1948904" lon="10.5439563"><ele>1128.0</ele><time>2026-05-03T13:37:18.488Z</time></trkpt><trkpt lat="44.1950459" lon="10.5439515"><ele>1128.0</ele><time>2026-05-03T13:37:19.486Z</time></trkpt><trkpt lat="44.1951915" lon="10.543911"><ele>1128.0</ele><time>2026-05-03T13:37:20.489Z</time></trkpt><trkpt lat="44.1953161" lon="10.5438451"><ele>1128.0</ele><time>2026-05-03T13:37:21.496Z</time></trkpt><trkpt lat="44.1954149" lon="10.5437331"><ele>1128.0</ele><time>2026-05-03T13:37:22.498Z</time></trkpt><trkpt lat="44.1955007" lon="10.5435841"><ele>1129.25</ele><time>2026-05-03T13:37:23.5Z</time></trkpt><trkpt lat="44.1955637" lon="10.5434023"><ele>1130.5</ele><time>2026-05-03T13:37:24.494Z</time></trkpt><trkpt lat="44.1956242" lon="10.5432053"><ele>1131.75</ele><time>2026-05-03T13:37:25.491Z</time></trkpt><trkpt lat="44.1956936" lon="10.5430217"><ele>1133.0</ele><time>2026-05-03T13:37:26.488Z</time></trkpt><trkpt lat="44.1957528" lon="10.5428425"><ele>1134.0</ele><time>2026-05-03T13:37:27.49Z</time></trkpt><trkpt lat="44.1957942" lon="10.542652"><ele>1135.0</ele><time>2026-05-03T13:37:28.486Z</time></trkpt><trkpt lat="44.1958122" lon="10.5424404"><ele>1136.0</ele><time>2026-05-03T13:37:29.496Z</time></trkpt><trkpt lat="44.1958276" lon="10.5422257"><ele>1138.3333333333335</ele><time>2026-05-03T13:37:30.489Z</time></trkpt><trkpt lat="44.1958412" lon="10.5420255"><ele>1140.6666666666667</ele><time>2026-05-03T13:37:31.492Z</time></trkpt><trkpt lat="44.1958468" lon="10.5418181"><ele>1143.0</ele><time>2026-05-03T13:37:32.494Z</time></trkpt><trkpt lat="44.1958344" lon="10.5415995"><ele>1143.0</ele><time>2026-05-03T13:37:33.49Z</time></trkpt><trkpt lat="44.1958043" lon="10.5413999"><ele>1143.0</ele><time>2026-05-03T13:37:34.484Z</time></trkpt><trkpt lat="44.195767" lon="10.5412301"><ele>1143.0</ele><time>2026-05-03T13:37:35.482Z</time></trkpt><trkpt lat="44.1957299" lon="10.5410643"><ele>1143.0</ele><time>2026-05-03T13:37:36.493Z</time></trkpt><trkpt lat="44.1956709" lon="10.5408887"><ele>1145.75</ele><time>2026-05-03T13:37:37.485Z</time></trkpt><trkpt lat="44.1955843" lon="10.5407104"><ele>1148.5</ele><time>2026-05-03T13:37:38.492Z</time></trkpt><trkpt lat="44.1955021" lon="10.5405471"><ele>1151.25</ele><time>2026-05-03T13:37:39.486Z</time></trkpt><trkpt lat="44.195435" lon="10.5403671"><ele>1154.0</ele><time>2026-05-03T13:37:40.487Z</time></trkpt><trkpt lat="44.1953889" lon="10.5401814"><ele>1154.8</ele><time>2026-05-03T13:37:41.493Z</time></trkpt><trkpt lat="44.1953622" lon="10.5400173"><ele>1155.6000000000001</ele><time>2026-05-03T13:37:42.491Z</time></trkpt><trkpt lat="44.1953496" lon="10.539885"><ele>1156.4</ele><time>2026-05-03T13:37:43.492Z</time></trkpt><trkpt lat="44.1953897" lon="10.5397813"><ele>1157.2</ele><time>2026-05-03T13:37:44.492Z</time></trkpt><trkpt lat="44.1954509" lon="10.5397226"><ele>1158.0</ele><time>2026-05-03T13:37:45.494Z</time></trkpt><trkpt lat="44.1955321" lon="10.5397115"><ele>1158.0</ele><time>2026-05-03T13:37:46.491Z</time></trkpt><trkpt lat="44.1956093" lon="10.5397251"><ele>1158.0</ele><time>2026-05-03T13:37:47.491Z</time></trkpt><trkpt lat="44.1957079" lon="10.5397393"><ele>1158.0</ele><time>2026-05-03T13:37:48.485Z</time></trkpt><trkpt lat="44.1958281" lon="10.5397268"><ele>1158.0</ele><time>2026-05-03T13:37:49.495Z</time></trkpt><trkpt lat="44.1959404" lon="10.5396477"><ele>1158.0</ele><time>2026-05-03T13:37:50.493Z</time></trkpt><trkpt lat="44.196042" lon="10.5395432"><ele>1159.75</ele><time>2026-05-03T13:37:51.492Z</time></trkpt><trkpt lat="44.1961318" lon="10.5394245"><ele>1161.5</ele><time>2026-05-03T13:37:52.502Z</time></trkpt><trkpt lat="44.1962291" lon="10.5393193"><ele>1163.25</ele><time>2026-05-03T13:37:53.499Z</time></trkpt><trkpt lat="44.1963422" lon="10.5392332"><ele>1165.0</ele><time>2026-05-03T13:37:54.496Z</time></trkpt><trkpt lat="44.1964617" lon="10.5391552"><ele>1165.0</ele><time>2026-05-03T13:37:55.504Z</time></trkpt><trkpt lat="44.1965729" lon="10.5390851"><ele>1165.0</ele><time>2026-05-03T13:37:56.505Z</time></trkpt><trkpt lat="44.1966696" lon="10.5390018"><ele>1165.0</ele><time>2026-05-03T13:37:57.496Z</time></trkpt><trkpt lat="44.1967522" lon="10.5389098"><ele>1165.0</ele><time>2026-05-03T13:37:58.509Z</time></trkpt><trkpt lat="44.1967945" lon="10.5387802"><ele>1165.0</ele><time>2026-05-03T13:37:59.5Z</time></trkpt><trkpt lat="44.1968085" lon="10.5385926"><ele>1166.3333333333333</ele><time>2026-05-03T13:38:00.509Z</time></trkpt><trkpt lat="44.1967985" lon="10.5383683"><ele>1167.6666666666667</ele><time>2026-05-03T13:38:01.502Z</time></trkpt><trkpt lat="44.1967619" lon="10.5381422"><ele>1169.0</ele><time>2026-05-03T13:38:02.507Z</time></trkpt><trkpt lat="44.196707" lon="10.5379202"><ele>1170.5</ele><time>2026-05-03T13:38:03.492Z</time></trkpt><trkpt lat="44.1966522" lon="10.5377196"><ele>1172.0</ele><time>2026-05-03T13:38:04.489Z</time></trkpt><trkpt lat="44.1966022" lon="10.5375241"><ele>1173.5</ele><time>2026-05-03T13:38:05.49Z</time></trkpt><trkpt lat="44.1965658" lon="10.5373382"><ele>1175.0</ele><time>2026-05-03T13:38:06.486Z</time></trkpt><trkpt lat="44.1965477" lon="10.537169"><ele>1177.25</ele><time>2026-05-03T13:38:07.489Z</time></trkpt><trkpt lat="44.1965532" lon="10.5370168"><ele>1179.5</ele><time>2026-05-03T13:38:08.496Z</time></trkpt><trkpt lat="44.1965917" lon="10.5368558"><ele>1181.75</ele><time>2026-05-03T13:38:09.496Z</time></trkpt><trkpt lat="44.1966499" lon="10.5366914"><ele>1184.0</ele><time>2026-05-03T13:38:10.498Z</time></trkpt><trkpt lat="44.196719" lon="10.5365224"><ele>1184.0</ele><time>2026-05-03T13:38:11.488Z</time></trkpt><trkpt lat="44.1968023" lon="10.5363553"><ele>1184.0</ele><time>2026-05-03T13:38:12.496Z</time></trkpt><trkpt lat="44.1968639" lon="10.5361856"><ele>1184.0</ele><time>2026-05-03T13:38:13.494Z</time></trkpt><trkpt lat="44.1969214" lon="10.5360047"><ele>1184.0</ele><time>2026-05-03T13:38:14.5Z</time></trkpt><trkpt lat="44.1969474" lon="10.5358138"><ele>1186.25</ele><time>2026-05-03T13:38:15.497Z</time></trkpt><trkpt lat="44.1969513" lon="10.5356126"><ele>1188.5</ele><time>2026-05-03T13:38:16.497Z</time></trkpt><trkpt lat="44.1969457" lon="10.5354043"><ele>1190.75</ele><time>2026-05-03T13:38:17.488Z</time></trkpt><trkpt lat="44.1969338" lon="10.535197"><ele>1193.0</ele><time>2026-05-03T13:38:18.496Z</time></trkpt><trkpt lat="44.1969128" lon="10.5349684"><ele>1194.6666666666667</ele><time>2026-05-03T13:38:19.487Z</time></trkpt><trkpt lat="44.1968914" lon="10.5347219"><ele>1196.3333333333333</ele><time>2026-05-03T13:38:20.5Z</time></trkpt><trkpt lat="44.1968739" lon="10.5344798"><ele>1198.0</ele><time>2026-05-03T13:38:21.491Z</time></trkpt><trkpt lat="44.1968768" lon="10.5342439"><ele>1198.25</ele><time>2026-05-03T13:38:22.494Z</time></trkpt><trkpt lat="44.196894" lon="10.5340372"><ele>1198.5</ele><time>2026-05-03T13:38:23.5Z</time></trkpt><trkpt lat="44.1969113" lon="10.5338674"><ele>1198.75</ele><time>2026-05-03T13:38:24.497Z</time></trkpt><trkpt lat="44.1969048" lon="10.5337177"><ele>1199.0</ele><time>2026-05-03T13:38:25.491Z</time></trkpt><trkpt lat="44.1968554" lon="10.5335563"><ele>1200.5</ele><time>2026-05-03T13:38:26.501Z</time></trkpt><trkpt lat="44.196784" lon="10.5334011"><ele>1202.0</ele><time>2026-05-03T13:38:27.495Z</time></trkpt><trkpt lat="44.1966902" lon="10.5332569"><ele>1203.5</ele><time>2026-05-03T13:38:28.489Z</time></trkpt><trkpt lat="44.1965894" lon="10.5331195"><ele>1205.0</ele><time>2026-05-03T13:38:29.487Z</time></trkpt><trkpt lat="44.1964814" lon="10.53298"><ele>1208.75</ele><time>2026-05-03T13:38:30.485Z</time></trkpt><trkpt lat="44.1963915" lon="10.5328425"><ele>1212.5</ele><time>2026-05-03T13:38:31.506Z</time></trkpt><trkpt lat="44.1963599" lon="10.5326857"><ele>1216.25</ele><time>2026-05-03T13:38:32.499Z</time></trkpt><trkpt lat="44.1963709" lon="10.5325091"><ele>1220.0</ele><time>2026-05-03T13:38:33.495Z</time></trkpt><trkpt lat="44.1963892" lon="10.5323347"><ele>1220.0</ele><time>2026-05-03T13:38:34.492Z</time></trkpt><trkpt lat="44.1963939" lon="10.5321607"><ele>1220.0</ele><time>2026-05-03T13:38:35.477Z</time></trkpt><trkpt lat="44.1963795" lon="10.5319947"><ele>1220.0</ele><time>2026-05-03T13:38:36.488Z</time></trkpt><trkpt lat="44.1963317" lon="10.5318585"><ele>1220.0</ele><time>2026-05-03T13:38:37.489Z</time></trkpt><trkpt lat="44.1962772" lon="10.5317481"><ele>1220.0</ele><time>2026-05-03T13:38:38.494Z</time></trkpt><trkpt lat="44.1962525" lon="10.5316453"><ele>1220.0</ele><time>2026-05-03T13:38:39.494Z</time></trkpt><trkpt lat="44.1962596" lon="10.5315397"><ele>1220.0</ele><time>2026-05-03T13:38:40.492Z</time></trkpt><trkpt lat="44.1963133" lon="10.5314629"><ele>1220.0</ele><time>2026-05-03T13:38:41.495Z</time></trkpt><trkpt lat="44.196392" lon="10.5314347"><ele>1220.0</ele><time>2026-05-03T13:38:42.493Z</time></trkpt><trkpt lat="44.1964949" lon="10.531489"><ele>1220.0</ele><time>2026-05-03T13:38:43.487Z</time></trkpt><trkpt lat="44.1965947" lon="10.5316094"><ele>1219.75</ele><time>2026-05-03T13:38:44.488Z</time></trkpt><trkpt lat="44.1967063" lon="10.5317223"><ele>1219.5</ele><time>2026-05-03T13:38:45.483Z</time></trkpt><trkpt lat="44.1968259" lon="10.5318151"><ele>1219.25</ele><time>2026-05-03T13:38:46.488Z</time></trkpt><trkpt lat="44.1969565" lon="10.5318445"><ele>1219.0</ele><time>2026-05-03T13:38:47.487Z</time></trkpt><trkpt lat="44.1970766" lon="10.5318414"><ele>1219.0</ele><time>2026-05-03T13:38:48.49Z</time></trkpt><trkpt lat="44.1971735" lon="10.5318293"><ele>1219.0</ele><time>2026-05-03T13:38:49.485Z</time></trkpt><trkpt lat="44.197226" lon="10.5317571"><ele>1219.0</ele><time>2026-05-03T13:38:50.491Z</time></trkpt><trkpt lat="44.1972348" lon="10.5316279"><ele>1219.0</ele><time>2026-05-03T13:38:51.484Z</time></trkpt><trkpt lat="44.1972224" lon="10.5314767"><ele>1219.0</ele><time>2026-05-03T13:38:52.486Z</time></trkpt><trkpt lat="44.1972199" lon="10.5313116"><ele>1219.75</ele><time>2026-05-03T13:38:53.488Z</time></trkpt><trkpt lat="44.1972346" lon="10.5311238"><ele>1220.5</ele><time>2026-05-03T13:38:54.488Z</time></trkpt><trkpt lat="44.1972953" lon="10.5309485"><ele>1221.25</ele><time>2026-05-03T13:38:55.488Z</time></trkpt><trkpt lat="44.1973651" lon="10.5307723"><ele>1222.0</ele><time>2026-05-03T13:38:56.487Z</time></trkpt><trkpt lat="44.197445" lon="10.5306023"><ele>1222.0</ele><time>2026-05-03T13:38:57.487Z</time></trkpt><trkpt lat="44.1975614" lon="10.5304603"><ele>1222.0</ele><time>2026-05-03T13:38:58.495Z</time></trkpt><trkpt lat="44.1976995" lon="10.530339"><ele>1222.0</ele><time>2026-05-03T13:38:59.49Z</time></trkpt><trkpt lat="44.1978373" lon="10.5302253"><ele>1224.2</ele><time>2026-05-03T13:39:00.484Z</time></trkpt><trkpt lat="44.1979502" lon="10.530139"><ele>1226.4</ele><time>2026-05-03T13:39:01.491Z</time></trkpt><trkpt lat="44.1980614" lon="10.5301351"><ele>1228.6</ele><time>2026-05-03T13:39:02.489Z</time></trkpt><trkpt lat="44.1981489" lon="10.5301495"><ele>1230.8</ele><time>2026-05-03T13:39:03.482Z</time></trkpt><trkpt lat="44.1982408" lon="10.5301352"><ele>1233.0</ele><time>2026-05-03T13:39:04.497Z</time></trkpt><trkpt lat="44.1982759" lon="10.5300477"><ele>1233.1666666666667</ele><time>2026-05-03T13:39:05.492Z</time></trkpt><trkpt lat="44.1983062" lon="10.5299647"><ele>1233.3333333333333</ele><time>2026-05-03T13:39:06.49Z</time></trkpt><trkpt lat="44.1983413" lon="10.5298462"><ele>1233.5</ele><time>2026-05-03T13:39:07.484Z</time></trkpt><trkpt lat="44.198369" lon="10.529742"><ele>1233.6666666666665</ele><time>2026-05-03T13:39:08.486Z</time></trkpt><trkpt lat="44.1983916" lon="10.5296233"><ele>1233.8333333333333</ele><time>2026-05-03T13:39:09.494Z</time></trkpt><trkpt lat="44.1984093" lon="10.5295025"><ele>1234.0</ele><time>2026-05-03T13:39:10.49Z</time></trkpt><trkpt lat="44.198439" lon="10.529395"><ele>1235.4</ele><time>2026-05-03T13:39:11.494Z</time></trkpt><trkpt lat="44.198497" lon="10.5293404"><ele>1236.8000000000002</ele><time>2026-05-03T13:39:12.495Z</time></trkpt><trkpt lat="44.1985777" lon="10.5293296"><ele>1238.1999999999998</ele><time>2026-05-03T13:39:13.495Z</time></trkpt><trkpt lat="44.1986466" lon="10.5293117"><ele>1239.6</ele><time>2026-05-03T13:39:14.497Z</time></trkpt><trkpt lat="44.1987529" lon="10.5293042"><ele>1241.0</ele><time>2026-05-03T13:39:16.497Z</time></trkpt><trkpt lat="44.1988418" lon="10.5294561"><ele>1241.0</ele><time>2026-05-03T13:39:18.49Z</time></trkpt><trkpt lat="44.1988968" lon="10.5295799"><ele>1241.0</ele><time>2026-05-03T13:39:19.492Z</time></trkpt><trkpt lat="44.1989524" lon="10.5297039"><ele>1241.0</ele><time>2026-05-03T13:39:20.488Z</time></trkpt><trkpt lat="44.1990074" lon="10.5298221"><ele>1241.0</ele><time>2026-05-03T13:39:21.493Z</time></trkpt><trkpt lat="44.1990531" lon="10.5299278"><ele>1241.0</ele><time>2026-05-03T13:39:22.485Z</time></trkpt><trkpt lat="44.1990997" lon="10.5300319"><ele>1241.0</ele><time>2026-05-03T13:39:23.492Z</time></trkpt><trkpt lat="44.1991571" lon="10.5301271"><ele>1241.0</ele><time>2026-05-03T13:39:24.495Z</time></trkpt><trkpt lat="44.1992275" lon="10.5302089"><ele>1241.0</ele><time>2026-05-03T13:39:25.495Z</time></trkpt><trkpt lat="44.1993062" lon="10.5302831"><ele>1241.0</ele><time>2026-05-03T13:39:26.494Z</time></trkpt><trkpt lat="44.1993963" lon="10.5303399"><ele>1241.0</ele><time>2026-05-03T13:39:27.493Z</time></trkpt><trkpt lat="44.1994896" lon="10.5303841"><ele>1239.6</ele><time>2026-05-03T13:39:28.493Z</time></trkpt><trkpt lat="44.1995852" lon="10.5304209"><ele>1238.1999999999998</ele><time>2026-05-03T13:39:29.493Z</time></trkpt><trkpt lat="44.1996844" lon="10.5304653"><ele>1236.8000000000002</ele><time>2026-05-03T13:39:30.491Z</time></trkpt><trkpt lat="44.1997831" lon="10.530526"><ele>1235.4</ele><time>2026-05-03T13:39:31.485Z</time></trkpt><trkpt lat="44.1998767" lon="10.5306126"><ele>1234.0</ele><time>2026-05-03T13:39:32.489Z</time></trkpt><trkpt lat="44.199973" lon="10.5306967"><ele>1234.0</ele><time>2026-05-03T13:39:33.488Z</time></trkpt><trkpt lat="44.2000844" lon="10.5307715"><ele>1234.0</ele><time>2026-05-03T13:39:34.488Z</time></trkpt><trkpt lat="44.2002096" lon="10.5308152"><ele>1234.0</ele><time>2026-05-03T13:39:35.487Z</time></trkpt><trkpt lat="44.2003375" lon="10.5308366"><ele>1234.0</ele><time>2026-05-03T13:39:36.493Z</time></trkpt><trkpt lat="44.2004664" lon="10.5308583"><ele>1234.0</ele><time>2026-05-03T13:39:37.487Z</time></trkpt><trkpt lat="44.2005874" lon="10.5309041"><ele>1234.0</ele><time>2026-05-03T13:39:38.484Z</time></trkpt><trkpt lat="44.2007061" lon="10.5309539"><ele>1234.0</ele><time>2026-05-03T13:39:39.491Z</time></trkpt><trkpt lat="44.2008328" lon="10.5310123"><ele>1234.0</ele><time>2026-05-03T13:39:40.489Z</time></trkpt><trkpt lat="44.2009648" lon="10.5310686"><ele>1233.5</ele><time>2026-05-03T13:39:41.492Z</time></trkpt><trkpt lat="44.2010929" lon="10.5311298"><ele>1233.0</ele><time>2026-05-03T13:39:42.482Z</time></trkpt><trkpt lat="44.2012176" lon="10.5311952"><ele>1232.5</ele><time>2026-05-03T13:39:43.483Z</time></trkpt><trkpt lat="44.2013405" lon="10.5312596"><ele>1232.0</ele><time>2026-05-03T13:39:44.495Z</time></trkpt><trkpt lat="44.201456" lon="10.5313307"><ele>1230.5</ele><time>2026-05-03T13:39:45.483Z</time></trkpt><trkpt lat="44.2015592" lon="10.5314263"><ele>1229.0</ele><time>2026-05-03T13:39:46.485Z</time></trkpt><trkpt lat="44.2016527" lon="10.531548"><ele>1227.5</ele><time>2026-05-03T13:39:47.493Z</time></trkpt><trkpt lat="44.2017288" lon="10.5317092"><ele>1226.0</ele><time>2026-05-03T13:39:48.483Z</time></trkpt><trkpt lat="44.2018051" lon="10.5318787"><ele>1226.0</ele><time>2026-05-03T13:39:49.492Z</time></trkpt><trkpt lat="44.2018828" lon="10.5320502"><ele>1226.0</ele><time>2026-05-03T13:39:50.49Z</time></trkpt><trkpt lat="44.2019596" lon="10.5322181"><ele>1226.0</ele><time>2026-05-03T13:39:51.487Z</time></trkpt><trkpt lat="44.202038" lon="10.5323805"><ele>1226.0</ele><time>2026-05-03T13:39:52.492Z</time></trkpt><trkpt lat="44.2021287" lon="10.5325667"><ele>1225.0</ele><time>2026-05-03T13:39:53.494Z</time></trkpt><trkpt lat="44.2022226" lon="10.5327408"><ele>1224.0</ele><time>2026-05-03T13:39:54.489Z</time></trkpt><trkpt lat="44.2023218" lon="10.5329064"><ele>1223.0</ele><time>2026-05-03T13:39:55.488Z</time></trkpt><trkpt lat="44.2024078" lon="10.5330805"><ele>1223.0</ele><time>2026-05-03T13:39:56.488Z</time></trkpt><trkpt lat="44.2024849" lon="10.5332386"><ele>1223.0</ele><time>2026-05-03T13:39:57.498Z</time></trkpt><trkpt lat="44.2025689" lon="10.5333979"><ele>1223.0</ele><time>2026-05-03T13:39:58.492Z</time></trkpt><trkpt lat="44.2026508" lon="10.5335495"><ele>1223.0</ele><time>2026-05-03T13:39:59.489Z</time></trkpt><trkpt lat="44.2027227" lon="10.5337001"><ele>1223.0</ele><time>2026-05-03T13:40:00.488Z</time></trkpt><trkpt lat="44.2027887" lon="10.5338403"><ele>1223.0</ele><time>2026-05-03T13:40:01.493Z</time></trkpt><trkpt lat="44.202855" lon="10.5339788"><ele>1223.0</ele><time>2026-05-03T13:40:02.493Z</time></trkpt><trkpt lat="44.2029314" lon="10.5341263"><ele>1223.0</ele><time>2026-05-03T13:40:03.489Z</time></trkpt><trkpt lat="44.203009" lon="10.5342864"><ele>1223.0</ele><time>2026-05-03T13:40:04.488Z</time></trkpt><trkpt lat="44.2030797" lon="10.5344547"><ele>1223.0</ele><time>2026-05-03T13:40:05.493Z</time></trkpt><trkpt lat="44.2031455" lon="10.5346181"><ele>1223.0</ele><time>2026-05-03T13:40:06.488Z</time></trkpt><trkpt lat="44.2032164" lon="10.5347693"><ele>1223.0</ele><time>2026-05-03T13:40:07.495Z</time></trkpt><trkpt lat="44.2032915" lon="10.5348993"><ele>1222.6</ele><time>2026-05-03T13:40:08.496Z</time></trkpt><trkpt lat="44.2033542" lon="10.5350291"><ele>1222.1999999999998</ele><time>2026-05-03T13:40:09.496Z</time></trkpt><trkpt lat="44.2034165" lon="10.5351619"><ele>1221.8</ele><time>2026-05-03T13:40:10.496Z</time></trkpt><trkpt lat="44.2034794" lon="10.5352768"><ele>1221.3999999999999</ele><time>2026-05-03T13:40:11.494Z</time></trkpt><trkpt lat="44.2035407" lon="10.5354039"><ele>1221.0</ele><time>2026-05-03T13:40:12.494Z</time></trkpt><trkpt lat="44.203606" lon="10.5355327"><ele>1220.1666666666667</ele><time>2026-05-03T13:40:13.491Z</time></trkpt><trkpt lat="44.2036704" lon="10.53565"><ele>1219.3333333333333</ele><time>2026-05-03T13:40:14.49Z</time></trkpt><trkpt lat="44.2037391" lon="10.5357467"><ele>1218.5</ele><time>2026-05-03T13:40:15.49Z</time></trkpt><trkpt lat="44.2038048" lon="10.5358289"><ele>1217.6666666666665</ele><time>2026-05-03T13:40:16.493Z</time></trkpt><trkpt lat="44.2038636" lon="10.5358929"><ele>1216.8333333333333</ele><time>2026-05-03T13:40:17.492Z</time></trkpt><trkpt lat="44.2039193" lon="10.5359517"><ele>1216.0</ele><time>2026-05-03T13:40:18.491Z</time></trkpt><trkpt lat="44.2039879" lon="10.5360818"><ele>1217.3333333333333</ele><time>2026-05-03T13:40:20.489Z</time></trkpt><trkpt lat="44.2040144" lon="10.5361706"><ele>1218.6666666666665</ele><time>2026-05-03T13:40:21.491Z</time></trkpt><trkpt lat="44.2040213" lon="10.5362751"><ele>1220.0</ele><time>2026-05-03T13:40:22.489Z</time></trkpt><trkpt lat="44.204024" lon="10.5363848"><ele>1221.3333333333333</ele><time>2026-05-03T13:40:23.491Z</time></trkpt><trkpt lat="44.2040219" lon="10.5365037"><ele>1222.6666666666667</ele><time>2026-05-03T13:40:24.493Z</time></trkpt><trkpt lat="44.2040256" lon="10.5366112"><ele>1224.0</ele><time>2026-05-03T13:40:25.494Z</time></trkpt><trkpt lat="44.2040508" lon="10.5367062"><ele>1225.0</ele><time>2026-05-03T13:40:26.479Z</time></trkpt><trkpt lat="44.2040952" lon="10.5367906"><ele>1226.0</ele><time>2026-05-03T13:40:27.501Z</time></trkpt><trkpt lat="44.2041453" lon="10.5368853"><ele>1227.0</ele><time>2026-05-03T13:40:28.483Z</time></trkpt><trkpt lat="44.2041825" lon="10.5369955"><ele>1228.0</ele><time>2026-05-03T13:40:29.487Z</time></trkpt><trkpt lat="44.2042167" lon="10.5371065"><ele>1229.0</ele><time>2026-05-03T13:40:30.491Z</time></trkpt><trkpt lat="44.2042538" lon="10.5372155"><ele>1230.0</ele><time>2026-05-03T13:40:31.486Z</time></trkpt><trkpt lat="44.2042912" lon="10.5373192"><ele>1230.1666666666667</ele><time>2026-05-03T13:40:32.484Z</time></trkpt><trkpt lat="44.2043239" lon="10.5374267"><ele>1230.3333333333333</ele><time>2026-05-03T13:40:33.484Z</time></trkpt><trkpt lat="44.2043407" lon="10.5375311"><ele>1230.5</ele><time>2026-05-03T13:40:34.481Z</time></trkpt><trkpt lat="44.2043484" lon="10.5376446"><ele>1230.6666666666665</ele><time>2026-05-03T13:40:35.482Z</time></trkpt><trkpt lat="44.2043663" lon="10.5377345"><ele>1230.8333333333333</ele><time>2026-05-03T13:40:36.481Z</time></trkpt><trkpt lat="44.2043897" lon="10.5378235"><ele>1231.0</ele><time>2026-05-03T13:40:37.484Z</time></trkpt><trkpt lat="44.2044104" lon="10.5379707"><ele>1231.0</ele><time>2026-05-03T13:40:39.482Z</time></trkpt><trkpt lat="44.2044383" lon="10.5380973"><ele>1231.0</ele><time>2026-05-03T13:40:41.473Z</time></trkpt><trkpt lat="44.2044659" lon="10.5382441"><ele>1231.0</ele><time>2026-05-03T13:40:43.473Z</time></trkpt><trkpt lat="44.2044403" lon="10.5384182"><ele>1231.0</ele><time>2026-05-03T13:40:45.477Z</time></trkpt><trkpt lat="44.2044129" lon="10.5385196"><ele>1231.0</ele><time>2026-05-03T13:40:46.473Z</time></trkpt><trkpt lat="44.2043978" lon="10.5386062"><ele>1230.6</ele><time>2026-05-03T13:40:47.485Z</time></trkpt><trkpt lat="44.2044155" lon="10.5387447"><ele>1230.1999999999998</ele><time>2026-05-03T13:40:49.484Z</time></trkpt><trkpt lat="44.2044781" lon="10.5388142"><ele>1229.8000000000002</ele><time>2026-05-03T13:40:51.478Z</time></trkpt><trkpt lat="44.204563" lon="10.5388684"><ele>1229.4</ele><time>2026-05-03T13:40:53.488Z</time></trkpt><trkpt lat="44.2046644" lon="10.5389304"><ele>1229.0</ele><time>2026-05-03T13:40:55.479Z</time></trkpt><trkpt lat="44.2047792" lon="10.5389826"><ele>1232.5714285714287</ele><time>2026-05-03T13:40:57.477Z</time></trkpt><trkpt lat="44.2048432" lon="10.5390032"><ele>1236.142857142857</ele><time>2026-05-03T13:40:58.474Z</time></trkpt><trkpt lat="44.2049104" lon="10.5390027"><ele>1239.7142857142858</ele><time>2026-05-03T13:40:59.467Z</time></trkpt><trkpt lat="44.2049741" lon="10.5389593"><ele>1243.2857142857142</ele><time>2026-05-03T13:41:00.482Z</time></trkpt><trkpt lat="44.2050191" lon="10.5388907"><ele>1246.857142857143</ele><time>2026-05-03T13:41:01.476Z</time></trkpt><trkpt lat="44.2050621" lon="10.5388146"><ele>1250.4285714285716</ele><time>2026-05-03T13:41:02.47Z</time></trkpt><trkpt lat="44.2051067" lon="10.5387386"><ele>1254.0</ele><time>2026-05-03T13:41:03.47Z</time></trkpt><trkpt lat="44.2051552" lon="10.5386564"><ele>1254.0</ele><time>2026-05-03T13:41:04.476Z</time></trkpt><trkpt lat="44.2052344" lon="10.5385399"><ele>1254.0</ele><time>2026-05-03T13:41:06.479Z</time></trkpt><trkpt lat="44.2053398" lon="10.5385124"><ele>1254.0</ele><time>2026-05-03T13:41:08.483Z</time></trkpt><trkpt lat="44.2054385" lon="10.5386074"><ele>1254.0</ele><time>2026-05-03T13:41:10.476Z</time></trkpt><trkpt lat="44.2054853" lon="10.5386875"><ele>1254.0</ele><time>2026-05-03T13:41:11.484Z</time></trkpt><trkpt lat="44.2055321" lon="10.538783"><ele>1254.0</ele><time>2026-05-03T13:41:12.482Z</time></trkpt><trkpt lat="44.2055835" lon="10.5388668"><ele>1254.0</ele><time>2026-05-03T13:41:13.483Z</time></trkpt><trkpt lat="44.2056314" lon="10.5389456"><ele>1254.0</ele><time>2026-05-03T13:41:14.484Z</time></trkpt><trkpt lat="44.2056859" lon="10.5390124"><ele>1254.0</ele><time>2026-05-03T13:41:15.476Z</time></trkpt><trkpt lat="44.2057512" lon="10.5390509"><ele>1254.0</ele><time>2026-05-03T13:41:16.475Z</time></trkpt><trkpt lat="44.205824" lon="10.5390946"><ele>1254.0</ele><time>2026-05-03T13:41:17.476Z</time></trkpt><trkpt lat="44.2058819" lon="10.5391448"><ele>1254.0</ele><time>2026-05-03T13:41:18.482Z</time></trkpt><trkpt lat="44.2059412" lon="10.5392"><ele>1255.857142857143</ele><time>2026-05-03T13:41:19.477Z</time></trkpt><trkpt lat="44.2059998" lon="10.5392378"><ele>1257.7142857142858</ele><time>2026-05-03T13:41:20.477Z</time></trkpt><trkpt lat="44.2060562" lon="10.5392835"><ele>1259.5714285714284</ele><time>2026-05-03T13:41:21.477Z</time></trkpt><trkpt lat="44.2061182" lon="10.5393441"><ele>1261.4285714285716</ele><time>2026-05-03T13:41:22.475Z</time></trkpt><trkpt lat="44.206175" lon="10.5393959"><ele>1263.2857142857142</ele><time>2026-05-03T13:41:23.477Z</time></trkpt><trkpt lat="44.2062375" lon="10.53945"><ele>1265.142857142857</ele><time>2026-05-03T13:41:24.474Z</time></trkpt><trkpt lat="44.206309" lon="10.5394806"><ele>1267.0</ele><time>2026-05-03T13:41:25.474Z</time></trkpt><trkpt lat="44.2063778" lon="10.539489"><ele>1267.0</ele><time>2026-05-03T13:41:26.474Z</time></trkpt><trkpt lat="44.2064589" lon="10.5394886"><ele>1267.0</ele><time>2026-05-03T13:41:27.479Z</time></trkpt><trkpt lat="44.2065391" lon="10.5395047"><ele>1267.0</ele><time>2026-05-03T13:41:28.485Z</time></trkpt><trkpt lat="44.2066098" lon="10.5395457"><ele>1267.0</ele><time>2026-05-03T13:41:29.481Z</time></trkpt><trkpt lat="44.2066775" lon="10.5395825"><ele>1267.0</ele><time>2026-05-03T13:41:30.485Z</time></trkpt><trkpt lat="44.2067368" lon="10.5396429"><ele>1267.0</ele><time>2026-05-03T13:41:31.485Z</time></trkpt><trkpt lat="44.2067998" lon="10.5396995"><ele>1268.2857142857142</ele><time>2026-05-03T13:41:32.483Z</time></trkpt><trkpt lat="44.2068583" lon="10.5397494"><ele>1269.5714285714284</ele><time>2026-05-03T13:41:33.484Z</time></trkpt><trkpt lat="44.2069016" lon="10.5398266"><ele>1270.857142857143</ele><time>2026-05-03T13:41:34.481Z</time></trkpt><trkpt lat="44.2069279" lon="10.5399069"><ele>1272.142857142857</ele><time>2026-05-03T13:41:35.485Z</time></trkpt><trkpt lat="44.2069372" lon="10.540002"><ele>1273.4285714285713</ele><time>2026-05-03T13:41:36.484Z</time></trkpt><trkpt lat="44.2069299" lon="10.5401068"><ele>1274.7142857142858</ele><time>2026-05-03T13:41:37.48Z</time></trkpt><trkpt lat="44.206916" lon="10.5402048"><ele>1276.0</ele><time>2026-05-03T13:41:38.479Z</time></trkpt><trkpt lat="44.2068917" lon="10.5402982"><ele>1277.1666666666665</ele><time>2026-05-03T13:41:39.491Z</time></trkpt><trkpt lat="44.2068355" lon="10.5403943"><ele>1278.3333333333333</ele><time>2026-05-03T13:41:40.484Z</time></trkpt><trkpt lat="44.2067798" lon="10.5404911"><ele>1279.5</ele><time>2026-05-03T13:41:41.482Z</time></trkpt><trkpt lat="44.2067317" lon="10.5405743"><ele>1280.6666666666667</ele><time>2026-05-03T13:41:42.488Z</time></trkpt><trkpt lat="44.2066881" lon="10.5406451"><ele>1281.8333333333335</ele><time>2026-05-03T13:41:43.483Z</time></trkpt><trkpt lat="44.2066354" lon="10.5407065"><ele>1283.0</ele><time>2026-05-03T13:41:44.489Z</time></trkpt><trkpt lat="44.2065809" lon="10.5407819"><ele>1283.0</ele><time>2026-05-03T13:41:45.485Z</time></trkpt><trkpt lat="44.2065235" lon="10.5408706"><ele>1283.0</ele><time>2026-05-03T13:41:46.481Z</time></trkpt><trkpt lat="44.2064629" lon="10.5409625"><ele>1283.0</ele><time>2026-05-03T13:41:47.484Z</time></trkpt><trkpt lat="44.2064102" lon="10.5410395"><ele>1283.0</ele><time>2026-05-03T13:41:48.489Z</time></trkpt><trkpt lat="44.2063725" lon="10.5411252"><ele>1283.0</ele><time>2026-05-03T13:41:49.485Z</time></trkpt><trkpt lat="44.2063457" lon="10.5412842"><ele>1283.0</ele><time>2026-05-03T13:41:51.49Z</time></trkpt><trkpt lat="44.2063798" lon="10.5414389"><ele>1283.0</ele><time>2026-05-03T13:41:53.488Z</time></trkpt><trkpt lat="44.2064539" lon="10.5415814"><ele>1283.0</ele><time>2026-05-03T13:41:55.493Z</time></trkpt><trkpt lat="44.2064844" lon="10.5416667"><ele>1283.0</ele><time>2026-05-03T13:41:56.483Z</time></trkpt><trkpt lat="44.2065198" lon="10.541762"><ele>1283.0</ele><time>2026-05-03T13:41:57.492Z</time></trkpt><trkpt lat="44.206549" lon="10.5418526"><ele>1283.0</ele><time>2026-05-03T13:41:58.486Z</time></trkpt><trkpt lat="44.2065793" lon="10.5419535"><ele>1283.0</ele><time>2026-05-03T13:41:59.489Z</time></trkpt><trkpt lat="44.206614" lon="10.5420529"><ele>1282.6000000000001</ele><time>2026-05-03T13:42:00.491Z</time></trkpt><trkpt lat="44.206646" lon="10.542146"><ele>1282.2</ele><time>2026-05-03T13:42:01.494Z</time></trkpt><trkpt lat="44.2066934" lon="10.5422797"><ele>1281.8</ele><time>2026-05-03T13:42:03.491Z</time></trkpt><trkpt lat="44.2067204" lon="10.5423627"><ele>1281.4</ele><time>2026-05-03T13:43:42.505Z</time></trkpt><trkpt lat="44.2067326" lon="10.5425309"><ele>1281.0</ele><time>2026-05-03T13:43:45.492Z</time></trkpt><trkpt lat="44.2067289" lon="10.5426459"><ele>1281.0</ele><time>2026-05-03T13:43:46.491Z</time></trkpt><trkpt lat="44.2067153" lon="10.5427672"><ele>1281.0</ele><time>2026-05-03T13:43:47.499Z</time></trkpt><trkpt lat="44.2067026" lon="10.5428701"><ele>1281.0</ele><time>2026-05-03T13:43:48.492Z</time></trkpt><trkpt lat="44.2066859" lon="10.5430216"><ele>1281.0</ele><time>2026-05-03T13:43:50.492Z</time></trkpt><trkpt lat="44.2066711" lon="10.5431072"><ele>1281.0</ele><time>2026-05-03T13:43:51.494Z</time></trkpt><trkpt lat="44.2066461" lon="10.543196"><ele>1281.0</ele><time>2026-05-03T13:43:52.482Z</time></trkpt><trkpt lat="44.2065994" lon="10.5433389"><ele>1281.3333333333333</ele><time>2026-05-03T13:43:54.481Z</time></trkpt><trkpt lat="44.2065011" lon="10.5434461"><ele>1281.6666666666667</ele><time>2026-05-03T13:43:56.481Z</time></trkpt><trkpt lat="44.2064379" lon="10.543493"><ele>1282.0</ele><time>2026-05-03T13:43:57.479Z</time></trkpt><trkpt lat="44.2063752" lon="10.5435416"><ele>1282.3333333333335</ele><time>2026-05-03T13:43:58.479Z</time></trkpt><trkpt lat="44.2063042" lon="10.5436002"><ele>1282.6666666666667</ele><time>2026-05-03T13:43:59.475Z</time></trkpt><trkpt lat="44.2062234" lon="10.5436685"><ele>1283.0</ele><time>2026-05-03T13:44:00.477Z</time></trkpt><trkpt lat="44.2061388" lon="10.5437335"><ele>1282.1666666666667</ele><time>2026-05-03T13:44:01.476Z</time></trkpt><trkpt lat="44.2060694" lon="10.5438043"><ele>1281.3333333333335</ele><time>2026-05-03T13:44:02.481Z</time></trkpt><trkpt lat="44.2059999" lon="10.5438686"><ele>1280.5</ele><time>2026-05-03T13:44:03.476Z</time></trkpt><trkpt lat="44.2059308" lon="10.5439346"><ele>1279.6666666666667</ele><time>2026-05-03T13:44:04.482Z</time></trkpt><trkpt lat="44.2058556" lon="10.5439955"><ele>1278.8333333333333</ele><time>2026-05-03T13:44:05.475Z</time></trkpt><trkpt lat="44.2057975" lon="10.5440505"><ele>1278.0</ele><time>2026-05-03T13:44:06.479Z</time></trkpt><trkpt lat="44.2057422" lon="10.5441032"><ele>1278.0</ele><time>2026-05-03T13:44:07.489Z</time></trkpt><trkpt lat="44.2056875" lon="10.5441536"><ele>1278.0</ele><time>2026-05-03T13:44:08.487Z</time></trkpt><trkpt lat="44.2056105" lon="10.5442627"><ele>1278.0</ele><time>2026-05-03T13:44:10.497Z</time></trkpt><trkpt lat="44.2055969" lon="10.5444155"><ele>1278.0</ele><time>2026-05-03T13:44:12.492Z</time></trkpt><trkpt lat="44.2056104" lon="10.5445046"><ele>1278.0</ele><time>2026-05-03T13:44:13.495Z</time></trkpt><trkpt lat="44.2056328" lon="10.5446085"><ele>1278.0</ele><time>2026-05-03T13:44:14.493Z</time></trkpt><trkpt lat="44.2056586" lon="10.5447137"><ele>1277.0</ele><time>2026-05-03T13:44:15.493Z</time></trkpt><trkpt lat="44.2056884" lon="10.5448125"><ele>1276.0</ele><time>2026-05-03T13:44:16.493Z</time></trkpt><trkpt lat="44.2057102" lon="10.5449088"><ele>1275.0</ele><time>2026-05-03T13:44:17.486Z</time></trkpt><trkpt lat="44.2057229" lon="10.5450783"><ele>1274.0</ele><time>2026-05-03T13:44:19.488Z</time></trkpt><trkpt lat="44.2056941" lon="10.5452366"><ele>1273.0</ele><time>2026-05-03T13:44:21.484Z</time></trkpt><trkpt lat="44.2056459" lon="10.5453953"><ele>1269.2</ele><time>2026-05-03T13:44:23.491Z</time></trkpt><trkpt lat="44.2056254" lon="10.545486"><ele>1265.4</ele><time>2026-05-03T13:44:24.484Z</time></trkpt><trkpt lat="44.2056117" lon="10.5456196"><ele>1261.6000000000001</ele><time>2026-05-03T13:44:26.488Z</time></trkpt><trkpt lat="44.2055599" lon="10.54572"><ele>1257.8</ele><time>2026-05-03T13:44:28.488Z</time></trkpt><trkpt lat="44.2054714" lon="10.5458297"><ele>1254.0</ele><time>2026-05-03T13:44:30.494Z</time></trkpt><trkpt lat="44.2054087" lon="10.5459127"><ele>1254.0</ele><time>2026-05-03T13:44:31.486Z</time></trkpt><trkpt lat="44.2053392" lon="10.5459998"><ele>1254.0</ele><time>2026-05-03T13:44:32.489Z</time></trkpt><trkpt lat="44.2052798" lon="10.5460761"><ele>1254.0</ele><time>2026-05-03T13:44:33.485Z</time></trkpt><trkpt lat="44.2052248" lon="10.5461595"><ele>1254.0</ele><time>2026-05-03T13:44:34.488Z</time></trkpt><trkpt lat="44.2051775" lon="10.5462542"><ele>1254.0</ele><time>2026-05-03T13:44:35.494Z</time></trkpt><trkpt lat="44.2051375" lon="10.5463527"><ele>1254.0</ele><time>2026-05-03T13:44:36.49Z</time></trkpt><trkpt lat="44.2051108" lon="10.5464545"><ele>1254.6666666666667</ele><time>2026-05-03T13:44:37.493Z</time></trkpt><trkpt lat="44.2050928" lon="10.5465669"><ele>1255.3333333333333</ele><time>2026-05-03T13:44:38.489Z</time></trkpt><trkpt lat="44.2050927" lon="10.5466769"><ele>1256.0</ele><time>2026-05-03T13:44:39.494Z</time></trkpt><trkpt lat="44.2051083" lon="10.5467646"><ele>1256.6666666666665</ele><time>2026-05-03T13:44:40.499Z</time></trkpt><trkpt lat="44.2051478" lon="10.5469236"><ele>1257.3333333333333</ele><time>2026-05-03T13:44:42.495Z</time></trkpt><trkpt lat="44.2051865" lon="10.5470275"><ele>1258.0</ele><time>2026-05-03T13:44:43.492Z</time></trkpt><trkpt lat="44.2052178" lon="10.5471354"><ele>1258.0</ele><time>2026-05-03T13:44:44.495Z</time></trkpt><trkpt lat="44.2052446" lon="10.5472417"><ele>1258.0</ele><time>2026-05-03T13:44:45.491Z</time></trkpt><trkpt lat="44.2052791" lon="10.5473251"><ele>1258.0</ele><time>2026-05-03T13:44:46.495Z</time></trkpt><trkpt lat="44.2053172" lon="10.5473983"><ele>1258.0</ele><time>2026-05-03T13:44:47.497Z</time></trkpt><trkpt lat="44.2053649" lon="10.5474595"><ele>1258.0</ele><time>2026-05-03T13:44:48.496Z</time></trkpt><trkpt lat="44.2054167" lon="10.5475237"><ele>1258.0</ele><time>2026-05-03T13:44:49.495Z</time></trkpt><trkpt lat="44.2054806" lon="10.5476193"><ele>1258.0</ele><time>2026-05-03T13:44:50.489Z</time></trkpt><trkpt lat="44.2055342" lon="10.5477058"><ele>1258.0</ele><time>2026-05-03T13:44:51.495Z</time></trkpt><trkpt lat="44.2055894" lon="10.5478017"><ele>1258.0</ele><time>2026-05-03T13:44:52.49Z</time></trkpt><trkpt lat="44.2056291" lon="10.5478945"><ele>1258.0</ele><time>2026-05-03T13:44:53.494Z</time></trkpt><trkpt lat="44.2056612" lon="10.5479748"><ele>1258.0</ele><time>2026-05-03T13:44:54.495Z</time></trkpt><trkpt lat="44.2057307" lon="10.548119"><ele>1258.0</ele><time>2026-05-03T13:44:56.492Z</time></trkpt><trkpt lat="44.2057811" lon="10.5481831"><ele>1258.0</ele><time>2026-05-03T13:44:57.492Z</time></trkpt><trkpt lat="44.2058422" lon="10.5482386"><ele>1261.0</ele><time>2026-05-03T13:44:58.489Z</time></trkpt><trkpt lat="44.2059082" lon="10.5482909"><ele>1264.0</ele><time>2026-05-03T13:44:59.502Z</time></trkpt><trkpt lat="44.2059733" lon="10.5483537"><ele>1267.0</ele><time>2026-05-03T13:45:00.477Z</time></trkpt><trkpt lat="44.2060349" lon="10.5484113"><ele>1270.0</ele><time>2026-05-03T13:45:01.478Z</time></trkpt><trkpt lat="44.2060981" lon="10.548475"><ele>1273.0</ele><time>2026-05-03T13:45:02.475Z</time></trkpt><trkpt lat="44.2061641" lon="10.5485362"><ele>1276.0</ele><time>2026-05-03T13:45:03.476Z</time></trkpt><trkpt lat="44.2062411" lon="10.5486089"><ele>1276.0</ele><time>2026-05-03T13:45:04.477Z</time></trkpt><trkpt lat="44.2063304" lon="10.5486942"><ele>1276.0</ele><time>2026-05-03T13:45:05.473Z</time></trkpt><trkpt lat="44.2064116" lon="10.5487693"><ele>1276.0</ele><time>2026-05-03T13:45:06.479Z</time></trkpt><trkpt lat="44.2065045" lon="10.5488581"><ele>1276.0</ele><time>2026-05-03T13:45:07.475Z</time></trkpt><trkpt lat="44.2066003" lon="10.548941"><ele>1276.0</ele><time>2026-05-03T13:45:08.481Z</time></trkpt><trkpt lat="44.2066873" lon="10.5490129"><ele>1278.0</ele><time>2026-05-03T13:45:09.476Z</time></trkpt><trkpt lat="44.2067669" lon="10.5490957"><ele>1280.0</ele><time>2026-05-03T13:45:10.478Z</time></trkpt><trkpt lat="44.206822" lon="10.5491755"><ele>1282.0</ele><time>2026-05-03T13:45:11.478Z</time></trkpt><trkpt lat="44.2068474" lon="10.5492678"><ele>1284.0</ele><time>2026-05-03T13:45:12.482Z</time></trkpt><trkpt lat="44.2068658" lon="10.5493684"><ele>1286.0</ele><time>2026-05-03T13:45:13.471Z</time></trkpt><trkpt lat="44.2068877" lon="10.5494833"><ele>1288.0</ele><time>2026-05-03T13:45:14.487Z</time></trkpt><trkpt lat="44.2069111" lon="10.5495903"><ele>1288.0</ele><time>2026-05-03T13:45:15.477Z</time></trkpt><trkpt lat="44.2069391" lon="10.54969"><ele>1288.0</ele><time>2026-05-03T13:45:16.477Z</time></trkpt><trkpt lat="44.2069756" lon="10.5497844"><ele>1288.0</ele><time>2026-05-03T13:45:17.483Z</time></trkpt><trkpt lat="44.2070019" lon="10.5499015"><ele>1288.0</ele><time>2026-05-03T13:45:18.468Z</time></trkpt><trkpt lat="44.207034" lon="10.5500408"><ele>1288.0</ele><time>2026-05-03T13:45:19.475Z</time></trkpt><trkpt lat="44.2070593" lon="10.5501749"><ele>1288.0</ele><time>2026-05-03T13:45:20.473Z</time></trkpt><trkpt lat="44.2070594" lon="10.5502976"><ele>1288.0</ele><time>2026-05-03T13:45:21.481Z</time></trkpt><trkpt lat="44.2070458" lon="10.5504037"><ele>1288.0</ele><time>2026-05-03T13:45:22.472Z</time></trkpt><trkpt lat="44.2070326" lon="10.5504914"><ele>1288.0</ele><time>2026-05-03T13:45:23.48Z</time></trkpt><trkpt lat="44.2070388" lon="10.5506277"><ele>1288.0</ele><time>2026-05-03T13:45:25.479Z</time></trkpt><trkpt lat="44.2070852" lon="10.5506999"><ele>1288.0</ele><time>2026-05-03T13:45:27.474Z</time></trkpt><trkpt lat="44.2071483" lon="10.550741"><ele>1288.0</ele><time>2026-05-03T13:45:29.48Z</time></trkpt><trkpt lat="44.2072425" lon="10.5507417"><ele>1291.0</ele><time>2026-05-03T13:45:31.48Z</time></trkpt><trkpt lat="44.2073614" lon="10.5507065"><ele>1294.0</ele><time>2026-05-03T13:45:33.478Z</time></trkpt><trkpt lat="44.2074288" lon="10.5507097"><ele>1297.0</ele><time>2026-05-03T13:45:34.477Z</time></trkpt><trkpt lat="44.2074967" lon="10.5507202"><ele>1300.0</ele><time>2026-05-03T13:45:35.474Z</time></trkpt><trkpt lat="44.207574" lon="10.550742"><ele>1303.0</ele><time>2026-05-03T13:45:36.478Z</time></trkpt><trkpt lat="44.2076572" lon="10.5507699"><ele>1306.0</ele><time>2026-05-03T13:45:37.472Z</time></trkpt><trkpt lat="44.2077415" lon="10.550798"><ele>1306.0</ele><time>2026-05-03T13:45:38.478Z</time></trkpt><trkpt lat="44.2078292" lon="10.550829"><ele>1306.0</ele><time>2026-05-03T13:45:39.48Z</time></trkpt><trkpt lat="44.2079053" lon="10.5508688"><ele>1306.0</ele><time>2026-05-03T13:45:40.475Z</time></trkpt><trkpt lat="44.2079612" lon="10.5509373"><ele>1306.0</ele><time>2026-05-03T13:45:41.477Z</time></trkpt><trkpt lat="44.2079855" lon="10.5510295"><ele>1306.0</ele><time>2026-05-03T13:45:42.472Z</time></trkpt><trkpt lat="44.2079946" lon="10.551131"><ele>1306.0</ele><time>2026-05-03T13:45:43.471Z</time></trkpt><trkpt lat="44.2079947" lon="10.55124"><ele>1307.3333333333333</ele><time>2026-05-03T13:45:44.485Z</time></trkpt><trkpt lat="44.2079923" lon="10.5513455"><ele>1308.6666666666665</ele><time>2026-05-03T13:45:45.473Z</time></trkpt><trkpt lat="44.2079828" lon="10.551464"><ele>1310.0</ele><time>2026-05-03T13:45:46.47Z</time></trkpt><trkpt lat="44.2079682" lon="10.5515783"><ele>1311.3333333333333</ele><time>2026-05-03T13:45:47.469Z</time></trkpt><trkpt lat="44.2079503" lon="10.5516986"><ele>1312.6666666666667</ele><time>2026-05-03T13:45:48.471Z</time></trkpt><trkpt lat="44.207925" lon="10.5518195"><ele>1314.0</ele><time>2026-05-03T13:45:49.466Z</time></trkpt><trkpt lat="44.2078881" lon="10.5519283"><ele>1314.0</ele><time>2026-05-03T13:45:50.466Z</time></trkpt><trkpt lat="44.2078476" lon="10.5520297"><ele>1314.0</ele><time>2026-05-03T13:45:51.473Z</time></trkpt><trkpt lat="44.2077877" lon="10.5521384"><ele>1314.0</ele><time>2026-05-03T13:45:52.464Z</time></trkpt><trkpt lat="44.2077151" lon="10.552248"><ele>1314.0</ele><time>2026-05-03T13:45:53.467Z</time></trkpt><trkpt lat="44.2076313" lon="10.5523519"><ele>1314.0</ele><time>2026-05-03T13:45:54.471Z</time></trkpt><trkpt lat="44.207556" lon="10.5524416"><ele>1315.8333333333333</ele><time>2026-05-03T13:45:55.466Z</time></trkpt><trkpt lat="44.2074917" lon="10.5525193"><ele>1317.6666666666667</ele><time>2026-05-03T13:45:56.464Z</time></trkpt><trkpt lat="44.2074405" lon="10.5525959"><ele>1319.5</ele><time>2026-05-03T13:45:57.468Z</time></trkpt><trkpt lat="44.2073972" lon="10.5526715"><ele>1321.3333333333335</ele><time>2026-05-03T13:45:58.469Z</time></trkpt><trkpt lat="44.2073762" lon="10.552758"><ele>1323.1666666666667</ele><time>2026-05-03T13:45:59.461Z</time></trkpt><trkpt lat="44.20734" lon="10.5529361"><ele>1325.0</ele><time>2026-05-03T13:46:01.473Z</time></trkpt><trkpt lat="44.2073184" lon="10.5530393"><ele>1320.6666666666667</ele><time>2026-05-03T13:46:02.466Z</time></trkpt><trkpt lat="44.2072857" lon="10.5531396"><ele>1316.3333333333335</ele><time>2026-05-03T13:46:03.465Z</time></trkpt><trkpt lat="44.2072369" lon="10.5532294"><ele>1312.0</ele><time>2026-05-03T13:46:04.467Z</time></trkpt><trkpt lat="44.2071856" lon="10.5533158"><ele>1307.6666666666667</ele><time>2026-05-03T13:46:05.467Z</time></trkpt><trkpt lat="44.2071419" lon="10.5534069"><ele>1303.3333333333333</ele><time>2026-05-03T13:46:06.464Z</time></trkpt><trkpt lat="44.2071066" lon="10.5534925"><ele>1299.0</ele><time>2026-05-03T13:46:07.462Z</time></trkpt><trkpt lat="44.2070748" lon="10.5535844"><ele>1299.0</ele><time>2026-05-03T13:46:08.463Z</time></trkpt><trkpt lat="44.2070529" lon="10.5536754"><ele>1299.0</ele><time>2026-05-03T13:46:09.46Z</time></trkpt><trkpt lat="44.2070355" lon="10.5537712"><ele>1299.0</ele><time>2026-05-03T13:46:10.459Z</time></trkpt><trkpt lat="44.207025" lon="10.5538764"><ele>1299.0</ele><time>2026-05-03T13:46:11.46Z</time></trkpt><trkpt lat="44.2070189" lon="10.553995"><ele>1299.0</ele><time>2026-05-03T13:46:12.462Z</time></trkpt><trkpt lat="44.2070098" lon="10.5541029"><ele>1299.0</ele><time>2026-05-03T13:46:13.464Z</time></trkpt><trkpt lat="44.2069748" lon="10.5542104"><ele>1300.4</ele><time>2026-05-03T13:46:14.467Z</time></trkpt><trkpt lat="44.2069445" lon="10.5543071"><ele>1301.8000000000002</ele><time>2026-05-03T13:46:15.465Z</time></trkpt><trkpt lat="44.2069055" lon="10.5543928"><ele>1303.1999999999998</ele><time>2026-05-03T13:46:31.472Z</time></trkpt><trkpt lat="44.2068266" lon="10.5544698"><ele>1304.6</ele><time>2026-05-03T13:46:34.46Z</time></trkpt><trkpt lat="44.2067341" lon="10.5545354"><ele>1306.0</ele><time>2026-05-03T13:46:36.46Z</time></trkpt><trkpt lat="44.2066311" lon="10.5546499"><ele>1308.0</ele><time>2026-05-03T13:46:38.466Z</time></trkpt><trkpt lat="44.2065816" lon="10.554737"><ele>1310.0</ele><time>2026-05-03T13:46:39.468Z</time></trkpt><trkpt lat="44.2065394" lon="10.5548338"><ele>1312.0</ele><time>2026-05-03T13:46:40.468Z</time></trkpt><trkpt lat="44.2065036" lon="10.5549441"><ele>1314.0</ele><time>2026-05-03T13:46:41.468Z</time></trkpt><trkpt lat="44.2064612" lon="10.5550646"><ele>1316.0</ele><time>2026-05-03T13:46:42.475Z</time></trkpt><trkpt lat="44.2064098" lon="10.5551991"><ele>1312.8</ele><time>2026-05-03T13:46:43.463Z</time></trkpt><trkpt lat="44.2063492" lon="10.5553377"><ele>1309.6</ele><time>2026-05-03T13:46:44.466Z</time></trkpt><trkpt lat="44.2062843" lon="10.5554787"><ele>1306.4</ele><time>2026-05-03T13:46:45.471Z</time></trkpt><trkpt lat="44.2062352" lon="10.5556005"><ele>1303.2</ele><time>2026-05-03T13:46:46.458Z</time></trkpt><trkpt lat="44.2061925" lon="10.5557199"><ele>1300.0</ele><time>2026-05-03T13:46:47.468Z</time></trkpt><trkpt lat="44.2061534" lon="10.5558612"><ele>1300.0</ele><time>2026-05-03T13:46:48.457Z</time></trkpt><trkpt lat="44.2061338" lon="10.5559826"><ele>1300.0</ele><time>2026-05-03T13:46:49.458Z</time></trkpt><trkpt lat="44.2061062" lon="10.5560877"><ele>1300.0</ele><time>2026-05-03T13:46:50.463Z</time></trkpt><trkpt lat="44.2060893" lon="10.5561939"><ele>1300.0</ele><time>2026-05-03T13:46:51.461Z</time></trkpt><trkpt lat="44.2060618" lon="10.5563092"><ele>1300.0</ele><time>2026-05-03T13:46:52.471Z</time></trkpt><trkpt lat="44.2060481" lon="10.556398"><ele>1300.0</ele><time>2026-05-03T13:46:54.475Z</time></trkpt><trkpt lat="44.2061198" lon="10.5564563"><ele>1301.25</ele><time>2026-05-03T13:46:56.467Z</time></trkpt><trkpt lat="44.2062528" lon="10.5565088"><ele>1302.5</ele><time>2026-05-03T13:46:58.475Z</time></trkpt><trkpt lat="44.2063521" lon="10.5565155"><ele>1303.75</ele><time>2026-05-03T13:46:59.471Z</time></trkpt><trkpt lat="44.2064536" lon="10.5565151"><ele>1305.0</ele><time>2026-05-03T13:47:00.473Z</time></trkpt><trkpt lat="44.2065656" lon="10.5565061"><ele>1305.25</ele><time>2026-05-03T13:47:01.473Z</time></trkpt><trkpt lat="44.206685" lon="10.5564988"><ele>1305.5</ele><time>2026-05-03T13:47:02.47Z</time></trkpt><trkpt lat="44.206802" lon="10.5564822"><ele>1305.75</ele><time>2026-05-03T13:47:03.471Z</time></trkpt><trkpt lat="44.2069204" lon="10.556463"><ele>1306.0</ele><time>2026-05-03T13:47:04.473Z</time></trkpt><trkpt lat="44.2070265" lon="10.5564539"><ele>1306.0</ele><time>2026-05-03T13:47:05.471Z</time></trkpt><trkpt lat="44.2071277" lon="10.5564365"><ele>1306.0</ele><time>2026-05-03T13:47:06.478Z</time></trkpt><trkpt lat="44.2072357" lon="10.5564128"><ele>1306.0</ele><time>2026-05-03T13:47:07.471Z</time></trkpt><trkpt lat="44.2073443" lon="10.5563837"><ele>1306.0</ele><time>2026-05-03T13:47:08.47Z</time></trkpt><trkpt lat="44.2074584" lon="10.5563574"><ele>1306.0</ele><time>2026-05-03T13:47:09.474Z</time></trkpt><trkpt lat="44.207576" lon="10.5563319"><ele>1307.25</ele><time>2026-05-03T13:47:10.475Z</time></trkpt><trkpt lat="44.2077044" lon="10.5563017"><ele>1308.5</ele><time>2026-05-03T13:47:11.477Z</time></trkpt><trkpt lat="44.2078368" lon="10.5562686"><ele>1309.75</ele><time>2026-05-03T13:47:12.47Z</time></trkpt><trkpt lat="44.2079757" lon="10.5562436"><ele>1311.0</ele><time>2026-05-03T13:47:13.476Z</time></trkpt><trkpt lat="44.2081078" lon="10.5562277"><ele>1311.0</ele><time>2026-05-03T13:47:14.477Z</time></trkpt><trkpt lat="44.2082309" lon="10.5562146"><ele>1311.0</ele><time>2026-05-03T13:47:15.469Z</time></trkpt><trkpt lat="44.2083497" lon="10.5561997"><ele>1311.0</ele><time>2026-05-03T13:47:16.469Z</time></trkpt><trkpt lat="44.2084425" lon="10.5561866"><ele>1311.0</ele><time>2026-05-03T13:47:17.468Z</time></trkpt><trkpt lat="44.2085306" lon="10.5561645"><ele>1311.0</ele><time>2026-05-03T13:47:18.474Z</time></trkpt><trkpt lat="44.2086153" lon="10.556133"><ele>1310.8333333333333</ele><time>2026-05-03T13:47:19.468Z</time></trkpt><trkpt lat="44.2086907" lon="10.5561114"><ele>1310.6666666666667</ele><time>2026-05-03T13:47:20.47Z</time></trkpt><trkpt lat="44.2087722" lon="10.5561042"><ele>1310.5</ele><time>2026-05-03T13:47:21.471Z</time></trkpt><trkpt lat="44.2088487" lon="10.5561169"><ele>1310.3333333333335</ele><time>2026-05-03T13:47:22.469Z</time></trkpt><trkpt lat="44.2089287" lon="10.5561483"><ele>1310.1666666666667</ele><time>2026-05-03T13:47:23.466Z</time></trkpt><trkpt lat="44.2090076" lon="10.5561988"><ele>1310.0</ele><time>2026-05-03T13:47:24.469Z</time></trkpt><trkpt lat="44.2090957" lon="10.5562639"><ele>1310.0</ele><time>2026-05-03T13:47:25.468Z</time></trkpt><trkpt lat="44.2091821" lon="10.5563553"><ele>1310.0</ele><time>2026-05-03T13:47:26.468Z</time></trkpt><trkpt lat="44.2092833" lon="10.556444"><ele>1310.0</ele><time>2026-05-03T13:47:27.474Z</time></trkpt><trkpt lat="44.2093905" lon="10.5565076"><ele>1310.0</ele><time>2026-05-03T13:47:28.475Z</time></trkpt><trkpt lat="44.2095044" lon="10.5565677"><ele>1310.0</ele><time>2026-05-03T13:47:29.471Z</time></trkpt><trkpt lat="44.2096105" lon="10.5566125"><ele>1310.0</ele><time>2026-05-03T13:47:30.469Z</time></trkpt><trkpt lat="44.2097161" lon="10.5566581"><ele>1310.0</ele><time>2026-05-03T13:47:31.478Z</time></trkpt><trkpt lat="44.2098206" lon="10.5567089"><ele>1310.0</ele><time>2026-05-03T13:47:32.466Z</time></trkpt><trkpt lat="44.2099145" lon="10.5567538"><ele>1310.0</ele><time>2026-05-03T13:47:33.464Z</time></trkpt><trkpt lat="44.2099931" lon="10.556796"><ele>1310.8333333333335</ele><time>2026-05-03T13:47:34.464Z</time></trkpt><trkpt lat="44.2100616" lon="10.556816"><ele>1311.6666666666667</ele><time>2026-05-03T13:47:35.468Z</time></trkpt><trkpt lat="44.2101392" lon="10.5567879"><ele>1312.5</ele><time>2026-05-03T13:47:36.466Z</time></trkpt><trkpt lat="44.2102152" lon="10.55674"><ele>1313.3333333333333</ele><time>2026-05-03T13:47:37.459Z</time></trkpt><trkpt lat="44.2102967" lon="10.5566703"><ele>1314.1666666666665</ele><time>2026-05-03T13:47:38.464Z</time></trkpt><trkpt lat="44.2103899" lon="10.5566049"><ele>1315.0</ele><time>2026-05-03T13:47:39.465Z</time></trkpt><trkpt lat="44.210494" lon="10.5565532"><ele>1315.0</ele><time>2026-05-03T13:47:40.468Z</time></trkpt><trkpt lat="44.2106042" lon="10.5564962"><ele>1315.0</ele><time>2026-05-03T13:47:41.47Z</time></trkpt><trkpt lat="44.2107265" lon="10.5564456"><ele>1315.0</ele><time>2026-05-03T13:47:42.475Z</time></trkpt><trkpt lat="44.210853" lon="10.5563978"><ele>1315.0</ele><time>2026-05-03T13:47:43.464Z</time></trkpt><trkpt lat="44.2109732" lon="10.5563505"><ele>1315.75</ele><time>2026-05-03T13:47:44.469Z</time></trkpt><trkpt lat="44.2110935" lon="10.5563082"><ele>1316.5</ele><time>2026-05-03T13:47:45.47Z</time></trkpt><trkpt lat="44.2112056" lon="10.5562742"><ele>1317.25</ele><time>2026-05-03T13:47:46.466Z</time></trkpt><trkpt lat="44.2113128" lon="10.5562578"><ele>1318.0</ele><time>2026-05-03T13:47:47.47Z</time></trkpt><trkpt lat="44.2114297" lon="10.5562576"><ele>1320.0</ele><time>2026-05-03T13:47:48.476Z</time></trkpt><trkpt lat="44.2115306" lon="10.5562868"><ele>1322.0</ele><time>2026-05-03T13:47:49.471Z</time></trkpt><trkpt lat="44.2116328" lon="10.5562965"><ele>1324.0</ele><time>2026-05-03T13:47:50.476Z</time></trkpt><trkpt lat="44.2117206" lon="10.5563168"><ele>1326.0</ele><time>2026-05-03T13:47:51.47Z</time></trkpt><trkpt lat="44.2117935" lon="10.5563669"><ele>1328.0</ele><time>2026-05-03T13:47:52.463Z</time></trkpt><trkpt lat="44.2118457" lon="10.5564444"><ele>1328.0</ele><time>2026-05-03T13:47:53.467Z</time></trkpt><trkpt lat="44.2118952" lon="10.5565443"><ele>1328.0</ele><time>2026-05-03T13:47:54.464Z</time></trkpt><trkpt lat="44.2119559" lon="10.5566804"><ele>1328.0</ele><time>2026-05-03T13:47:55.48Z</time></trkpt><trkpt lat="44.2120158" lon="10.556828"><ele>1328.0</ele><time>2026-05-03T13:47:56.471Z</time></trkpt><trkpt lat="44.2120688" lon="10.5569875"><ele>1327.75</ele><time>2026-05-03T13:47:57.466Z</time></trkpt><trkpt lat="44.2121076" lon="10.5571659"><ele>1327.5</ele><time>2026-05-03T13:47:58.467Z</time></trkpt><trkpt lat="44.2121488" lon="10.557321"><ele>1327.25</ele><time>2026-05-03T13:47:59.464Z</time></trkpt><trkpt lat="44.212204" lon="10.5574844"><ele>1327.0</ele><time>2026-05-03T13:48:00.463Z</time></trkpt><trkpt lat="44.2122416" lon="10.5576252"><ele>1327.0</ele><time>2026-05-03T13:48:01.469Z</time></trkpt><trkpt lat="44.2122816" lon="10.5577758"><ele>1327.0</ele><time>2026-05-03T13:48:02.466Z</time></trkpt><trkpt lat="44.2123215" lon="10.55795"><ele>1327.0</ele><time>2026-05-03T13:48:03.465Z</time></trkpt><trkpt lat="44.2123667" lon="10.5581198"><ele>1327.0</ele><time>2026-05-03T13:48:04.477Z</time></trkpt><trkpt lat="44.212427" lon="10.5582838"><ele>1328.0</ele><time>2026-05-03T13:48:05.476Z</time></trkpt><trkpt lat="44.2124758" lon="10.5584629"><ele>1329.0</ele><time>2026-05-03T13:48:06.477Z</time></trkpt><trkpt lat="44.2125182" lon="10.5586207"><ele>1330.0</ele><time>2026-05-03T13:48:07.473Z</time></trkpt><trkpt lat="44.2125551" lon="10.558752"><ele>1331.0</ele><time>2026-05-03T13:48:08.479Z</time></trkpt><trkpt lat="44.2125992" lon="10.5588674"><ele>1329.3333333333335</ele><time>2026-05-03T13:48:09.476Z</time></trkpt><trkpt lat="44.212637" lon="10.5589735"><ele>1327.6666666666667</ele><time>2026-05-03T13:48:10.48Z</time></trkpt><trkpt lat="44.2126742" lon="10.5590651"><ele>1326.0</ele><time>2026-05-03T13:48:11.479Z</time></trkpt><trkpt lat="44.2126986" lon="10.5591521"><ele>1324.3333333333333</ele><time>2026-05-03T13:48:12.478Z</time></trkpt><trkpt lat="44.2127158" lon="10.5592471"><ele>1322.6666666666665</ele><time>2026-05-03T13:48:13.48Z</time></trkpt><trkpt lat="44.2127234" lon="10.5593447"><ele>1321.0</ele><time>2026-05-03T13:48:14.485Z</time></trkpt><trkpt lat="44.2127106" lon="10.5595074"><ele>1321.0</ele><time>2026-05-03T13:48:16.479Z</time></trkpt><trkpt lat="44.2127237" lon="10.5596407"><ele>1321.0</ele><time>2026-05-03T13:48:18.483Z</time></trkpt><trkpt lat="44.212794" lon="10.5596959"><ele>1321.0</ele><time>2026-05-03T13:48:20.486Z</time></trkpt><trkpt lat="44.2128595" lon="10.5596845"><ele>1321.0</ele><time>2026-05-03T13:48:21.482Z</time></trkpt><trkpt lat="44.2129388" lon="10.5596451"><ele>1321.0</ele><time>2026-05-03T13:48:22.481Z</time></trkpt><trkpt lat="44.2130007" lon="10.5595869"><ele>1321.0</ele><time>2026-05-03T13:48:23.48Z</time></trkpt><trkpt lat="44.213065" lon="10.55953"><ele>1321.0</ele><time>2026-05-03T13:48:24.48Z</time></trkpt><trkpt lat="44.2131202" lon="10.5594686"><ele>1321.0</ele><time>2026-05-03T13:48:25.486Z</time></trkpt><trkpt lat="44.2132145" lon="10.5594447"><ele>1321.0</ele><time>2026-05-03T13:48:27.48Z</time></trkpt><trkpt lat="44.2132777" lon="10.5594992"><ele>1321.0</ele><time>2026-05-03T13:48:29.479Z</time></trkpt><trkpt lat="44.2133747" lon="10.5595906"><ele>1321.0</ele><time>2026-05-03T13:48:31.475Z</time></trkpt><trkpt lat="44.2134351" lon="10.5596783"><ele>1321.0</ele><time>2026-05-03T13:48:32.477Z</time></trkpt><trkpt lat="44.2134955" lon="10.5597794"><ele>1320.5</ele><time>2026-05-03T13:48:33.48Z</time></trkpt><trkpt lat="44.2135583" lon="10.5598839"><ele>1320.0</ele><time>2026-05-03T13:48:34.477Z</time></trkpt><trkpt lat="44.2136327" lon="10.5599648"><ele>1319.5</ele><time>2026-05-03T13:48:35.481Z</time></trkpt><trkpt lat="44.2137019" lon="10.5600142"><ele>1319.0</ele><time>2026-05-03T13:48:36.475Z</time></trkpt><trkpt lat="44.2137769" lon="10.5600443"><ele>1318.5</ele><time>2026-05-03T13:48:37.483Z</time></trkpt><trkpt lat="44.2138624" lon="10.5600642"><ele>1318.0</ele><time>2026-05-03T13:48:38.471Z</time></trkpt><trkpt lat="44.2139549" lon="10.560074"><ele>1320.4</ele><time>2026-05-03T13:48:39.476Z</time></trkpt><trkpt lat="44.2140561" lon="10.5600924"><ele>1322.8000000000002</ele><time>2026-05-03T13:48:40.476Z</time></trkpt><trkpt lat="44.2141493" lon="10.5601283"><ele>1325.2</ele><time>2026-05-03T13:48:41.481Z</time></trkpt><trkpt lat="44.2142504" lon="10.5601802"><ele>1327.6</ele><time>2026-05-03T13:48:42.477Z</time></trkpt><trkpt lat="44.2143475" lon="10.5602327"><ele>1330.0</ele><time>2026-05-03T13:48:43.479Z</time></trkpt><trkpt lat="44.2144289" lon="10.5602743"><ele>1330.0</ele><time>2026-05-03T13:48:44.486Z</time></trkpt><trkpt lat="44.2145105" lon="10.5603218"><ele>1330.0</ele><time>2026-05-03T13:48:45.48Z</time></trkpt><trkpt lat="44.2145932" lon="10.5603648"><ele>1330.0</ele><time>2026-05-03T13:48:46.476Z</time></trkpt><trkpt lat="44.2146754" lon="10.5603863"><ele>1330.0</ele><time>2026-05-03T13:48:47.477Z</time></trkpt><trkpt lat="44.2147421" lon="10.5604028"><ele>1330.0</ele><time>2026-05-03T13:48:48.481Z</time></trkpt><trkpt lat="44.2148045" lon="10.5604175"><ele>1330.0</ele><time>2026-05-03T13:48:49.48Z</time></trkpt><trkpt lat="44.2148721" lon="10.5604517"><ele>1330.7142857142858</ele><time>2026-05-03T13:48:50.481Z</time></trkpt><trkpt lat="44.2149469" lon="10.5605045"><ele>1331.4285714285716</ele><time>2026-05-03T13:48:51.479Z</time></trkpt><trkpt lat="44.2150128" lon="10.560571"><ele>1332.142857142857</ele><time>2026-05-03T13:48:52.479Z</time></trkpt><trkpt lat="44.2150782" lon="10.5606204"><ele>1332.857142857143</ele><time>2026-05-03T13:48:53.484Z</time></trkpt><trkpt lat="44.2151331" lon="10.5606683"><ele>1333.5714285714287</ele><time>2026-05-03T13:48:54.481Z</time></trkpt><trkpt lat="44.215189" lon="10.5607218"><ele>1334.2857142857142</ele><time>2026-05-03T13:48:55.479Z</time></trkpt><trkpt lat="44.2152504" lon="10.5607597"><ele>1335.0</ele><time>2026-05-03T13:48:56.48Z</time></trkpt><trkpt lat="44.2153207" lon="10.5607872"><ele>1335.0</ele><time>2026-05-03T13:48:57.477Z</time></trkpt><trkpt lat="44.2153924" lon="10.5608158"><ele>1335.0</ele><time>2026-05-03T13:48:58.475Z</time></trkpt><trkpt lat="44.2154549" lon="10.5608576"><ele>1335.0</ele><time>2026-05-03T13:48:59.477Z</time></trkpt><trkpt lat="44.2155226" lon="10.5609791"><ele>1335.0</ele><time>2026-05-03T13:49:01.481Z</time></trkpt><trkpt lat="44.2155447" lon="10.561066"><ele>1335.0</ele><time>2026-05-03T13:49:02.475Z</time></trkpt><trkpt lat="44.2155546" lon="10.5611849"><ele>1335.0</ele><time>2026-05-03T13:49:03.475Z</time></trkpt><trkpt lat="44.2155551" lon="10.5613182"><ele>1334.2</ele><time>2026-05-03T13:49:04.48Z</time></trkpt><trkpt lat="44.2155532" lon="10.5614583"><ele>1333.4</ele><time>2026-05-03T13:49:05.481Z</time></trkpt><trkpt lat="44.2155603" lon="10.5615982"><ele>1332.6</ele><time>2026-05-03T13:49:06.476Z</time></trkpt><trkpt lat="44.215583" lon="10.5617341"><ele>1331.8</ele><time>2026-05-03T13:49:07.478Z</time></trkpt><trkpt lat="44.2156019" lon="10.5618719"><ele>1331.0</ele><time>2026-05-03T13:49:08.485Z</time></trkpt><trkpt lat="44.2156218" lon="10.5620128"><ele>1334.75</ele><time>2026-05-03T13:49:09.48Z</time></trkpt><trkpt lat="44.2156573" lon="10.5621457"><ele>1338.5</ele><time>2026-05-03T13:49:10.473Z</time></trkpt><trkpt lat="44.2157065" lon="10.5622811"><ele>1342.25</ele><time>2026-05-03T13:49:11.478Z</time></trkpt><trkpt lat="44.2157581" lon="10.5624254"><ele>1346.0</ele><time>2026-05-03T13:49:12.478Z</time></trkpt><trkpt lat="44.2158166" lon="10.5625803"><ele>1346.0</ele><time>2026-05-03T13:49:13.479Z</time></trkpt><trkpt lat="44.215867" lon="10.5627258"><ele>1346.0</ele><time>2026-05-03T13:49:14.481Z</time></trkpt><trkpt lat="44.215919" lon="10.5628472"><ele>1346.0</ele><time>2026-05-03T13:49:15.476Z</time></trkpt><trkpt lat="44.2159739" lon="10.5629526"><ele>1346.0</ele><time>2026-05-03T13:49:16.473Z</time></trkpt><trkpt lat="44.2160292" lon="10.5630498"><ele>1346.0</ele><time>2026-05-03T13:49:17.477Z</time></trkpt><trkpt lat="44.2160928" lon="10.5631525"><ele>1345.6</ele><time>2026-05-03T13:49:18.475Z</time></trkpt><trkpt lat="44.2161696" lon="10.5632609"><ele>1345.1999999999998</ele><time>2026-05-03T13:49:19.464Z</time></trkpt><trkpt lat="44.2162412" lon="10.5633777"><ele>1344.8000000000002</ele><time>2026-05-03T13:49:20.469Z</time></trkpt><trkpt lat="44.2163226" lon="10.5634985"><ele>1344.4</ele><time>2026-05-03T13:49:21.475Z</time></trkpt><trkpt lat="44.2163862" lon="10.5636063"><ele>1344.0</ele><time>2026-05-03T13:49:22.472Z</time></trkpt><trkpt lat="44.2164205" lon="10.5637205"><ele>1344.6666666666667</ele><time>2026-05-03T13:49:23.479Z</time></trkpt><trkpt lat="44.2164296" lon="10.5638192"><ele>1345.3333333333333</ele><time>2026-05-03T13:49:24.468Z</time></trkpt><trkpt lat="44.2164384" lon="10.5639086"><ele>1346.0</ele><time>2026-05-03T13:49:25.471Z</time></trkpt><trkpt lat="44.2164531" lon="10.5639987"><ele>1346.6666666666665</ele><time>2026-05-03T13:49:26.466Z</time></trkpt><trkpt lat="44.2165127" lon="10.5641412"><ele>1347.3333333333333</ele><time>2026-05-03T13:49:28.469Z</time></trkpt><trkpt lat="44.216557" lon="10.5642072"><ele>1348.0</ele><time>2026-05-03T13:49:29.47Z</time></trkpt><trkpt lat="44.2166031" lon="10.5643018"><ele>1348.0</ele><time>2026-05-03T13:49:30.471Z</time></trkpt><trkpt lat="44.2166383" lon="10.5644115"><ele>1348.0</ele><time>2026-05-03T13:49:31.471Z</time></trkpt><trkpt lat="44.2166646" lon="10.5645353"><ele>1348.0</ele><time>2026-05-03T13:49:32.468Z</time></trkpt><trkpt lat="44.2166771" lon="10.5646561"><ele>1348.0</ele><time>2026-05-03T13:49:33.472Z</time></trkpt><trkpt lat="44.2166773" lon="10.5647653"><ele>1348.0</ele><time>2026-05-03T13:49:34.477Z</time></trkpt><trkpt lat="44.2166813" lon="10.564853"><ele>1348.0</ele><time>2026-05-03T13:49:35.479Z</time></trkpt><trkpt lat="44.2167274" lon="10.5649826"><ele>1347.0</ele><time>2026-05-03T13:49:37.475Z</time></trkpt><trkpt lat="44.216817" lon="10.5650278"><ele>1346.0</ele><time>2026-05-03T13:49:39.48Z</time></trkpt><trkpt lat="44.2168828" lon="10.5650345"><ele>1345.0</ele><time>2026-05-03T13:49:40.472Z</time></trkpt><trkpt lat="44.2169627" lon="10.5650497"><ele>1344.0</ele><time>2026-05-03T13:49:41.467Z</time></trkpt><trkpt lat="44.2170508" lon="10.5650678"><ele>1343.0</ele><time>2026-05-03T13:49:42.472Z</time></trkpt><trkpt lat="44.2171317" lon="10.5650906"><ele>1342.0</ele><time>2026-05-03T13:49:43.476Z</time></trkpt><trkpt lat="44.2172201" lon="10.5651195"><ele>1342.0</ele><time>2026-05-03T13:49:44.479Z</time></trkpt><trkpt lat="44.2173187" lon="10.5651413"><ele>1342.0</ele><time>2026-05-03T13:49:45.473Z</time></trkpt><trkpt lat="44.2174096" lon="10.5651678"><ele>1342.0</ele><time>2026-05-03T13:49:46.473Z</time></trkpt><trkpt lat="44.2174917" lon="10.5651913"><ele>1342.0</ele><time>2026-05-03T13:49:47.473Z</time></trkpt><trkpt lat="44.2175677" lon="10.5652138"><ele>1342.0</ele><time>2026-05-03T13:49:48.472Z</time></trkpt><trkpt lat="44.2176434" lon="10.5652372"><ele>1342.0</ele><time>2026-05-03T13:49:49.473Z</time></trkpt><trkpt lat="44.2177225" lon="10.5652603"><ele>1341.6666666666665</ele><time>2026-05-03T13:49:50.468Z</time></trkpt><trkpt lat="44.2178011" lon="10.5652949"><ele>1341.3333333333333</ele><time>2026-05-03T13:49:51.475Z</time></trkpt><trkpt lat="44.2178795" lon="10.5653353"><ele>1341.0</ele><time>2026-05-03T13:49:52.466Z</time></trkpt><trkpt lat="44.2179662" lon="10.5653964"><ele>1340.6666666666667</ele><time>2026-05-03T13:49:53.473Z</time></trkpt><trkpt lat="44.218042" lon="10.5654537"><ele>1340.3333333333335</ele><time>2026-05-03T13:49:54.472Z</time></trkpt><trkpt lat="44.2181108" lon="10.5655247"><ele>1340.0</ele><time>2026-05-03T13:49:55.474Z</time></trkpt><trkpt lat="44.2181795" lon="10.5655915"><ele>1338.5714285714284</ele><time>2026-05-03T13:49:56.472Z</time></trkpt><trkpt lat="44.218251" lon="10.5656444"><ele>1337.142857142857</ele><time>2026-05-03T13:49:57.473Z</time></trkpt><trkpt lat="44.218328" lon="10.5656911"><ele>1335.7142857142858</ele><time>2026-05-03T13:49:58.476Z</time></trkpt><trkpt lat="44.2183902" lon="10.5657218"><ele>1334.2857142857142</ele><time>2026-05-03T13:49:59.473Z</time></trkpt><trkpt lat="44.218457" lon="10.5657286"><ele>1332.857142857143</ele><time>2026-05-03T13:50:00.47Z</time></trkpt><trkpt lat="44.2185226" lon="10.5657164"><ele>1331.4285714285713</ele><time>2026-05-03T13:50:01.475Z</time></trkpt><trkpt lat="44.2186016" lon="10.565695"><ele>1330.0</ele><time>2026-05-03T13:50:02.474Z</time></trkpt><trkpt lat="44.2186976" lon="10.5656531"><ele>1330.0</ele><time>2026-05-03T13:50:03.474Z</time></trkpt><trkpt lat="44.2188025" lon="10.565594"><ele>1330.0</ele><time>2026-05-03T13:50:04.467Z</time></trkpt><trkpt lat="44.2189131" lon="10.565548"><ele>1330.0</ele><time>2026-05-03T13:50:05.472Z</time></trkpt><trkpt lat="44.2190229" lon="10.5655167"><ele>1330.0</ele><time>2026-05-03T13:50:06.473Z</time></trkpt><trkpt lat="44.2191292" lon="10.5654814"><ele>1329.0</ele><time>2026-05-03T13:50:07.472Z</time></trkpt><trkpt lat="44.2192207" lon="10.5654606"><ele>1328.0</ele><time>2026-05-03T13:50:08.473Z</time></trkpt><trkpt lat="44.2192921" lon="10.5654585"><ele>1327.0</ele><time>2026-05-03T13:50:09.472Z</time></trkpt><trkpt lat="44.2194162" lon="10.5654747"><ele>1326.0</ele><time>2026-05-03T13:50:11.471Z</time></trkpt><trkpt lat="44.219519" lon="10.565591"><ele>1325.0</ele><time>2026-05-03T13:50:13.469Z</time></trkpt><trkpt lat="44.2195674" lon="10.5656777"><ele>1325.0</ele><time>2026-05-03T13:50:14.471Z</time></trkpt><trkpt lat="44.2196206" lon="10.5657547"><ele>1325.0</ele><time>2026-05-03T13:50:15.471Z</time></trkpt><trkpt lat="44.2196853" lon="10.5658172"><ele>1325.0</ele><time>2026-05-03T13:50:16.472Z</time></trkpt><trkpt lat="44.2197535" lon="10.5658774"><ele>1325.0</ele><time>2026-05-03T13:50:17.469Z</time></trkpt><trkpt lat="44.2198226" lon="10.5659318"><ele>1325.0</ele><time>2026-05-03T13:50:18.472Z</time></trkpt><trkpt lat="44.2198858" lon="10.565982"><ele>1325.0</ele><time>2026-05-03T13:50:19.472Z</time></trkpt><trkpt lat="44.2199413" lon="10.5660336"><ele>1325.1666666666667</ele><time>2026-05-03T13:50:20.466Z</time></trkpt><trkpt lat="44.2200011" lon="10.5660794"><ele>1325.3333333333335</ele><time>2026-05-03T13:50:21.464Z</time></trkpt><trkpt lat="44.22007" lon="10.5661418"><ele>1325.5</ele><time>2026-05-03T13:50:22.472Z</time></trkpt><trkpt lat="44.220143" lon="10.5662176"><ele>1325.6666666666667</ele><time>2026-05-03T13:50:23.466Z</time></trkpt><trkpt lat="44.2202245" lon="10.5662771"><ele>1325.8333333333333</ele><time>2026-05-03T13:50:24.463Z</time></trkpt><trkpt lat="44.2203021" lon="10.5663902"><ele>1326.0</ele><time>2026-05-03T13:50:25.47Z</time></trkpt><trkpt lat="44.2203763" lon="10.5665172"><ele>1325.4</ele><time>2026-05-03T13:50:26.467Z</time></trkpt><trkpt lat="44.2204478" lon="10.5666341"><ele>1324.8</ele><time>2026-05-03T13:50:27.471Z</time></trkpt><trkpt lat="44.220522" lon="10.566752"><ele>1324.2</ele><time>2026-05-03T13:50:28.468Z</time></trkpt><trkpt lat="44.2205969" lon="10.5668667"><ele>1323.6000000000001</ele><time>2026-05-03T13:50:29.471Z</time></trkpt><trkpt lat="44.2206702" lon="10.5669799"><ele>1323.0</ele><time>2026-05-03T13:50:30.47Z</time></trkpt><trkpt lat="44.2207474" lon="10.567098"><ele>1321.6000000000001</ele><time>2026-05-03T13:50:31.471Z</time></trkpt><trkpt lat="44.2208314" lon="10.5672175"><ele>1320.2</ele><time>2026-05-03T13:50:32.471Z</time></trkpt><trkpt lat="44.2209053" lon="10.5673363"><ele>1318.8</ele><time>2026-05-03T13:50:33.471Z</time></trkpt><trkpt lat="44.2209784" lon="10.5674279"><ele>1317.4</ele><time>2026-05-03T13:50:34.473Z</time></trkpt><trkpt lat="44.2210587" lon="10.5675142"><ele>1316.0</ele><time>2026-05-03T13:50:35.474Z</time></trkpt><trkpt lat="44.2211462" lon="10.5675749"><ele>1316.0</ele><time>2026-05-03T13:50:36.477Z</time></trkpt><trkpt lat="44.2212268" lon="10.5676096"><ele>1316.0</ele><time>2026-05-03T13:50:37.477Z</time></trkpt><trkpt lat="44.2212971" lon="10.5676629"><ele>1316.0</ele><time>2026-05-03T13:50:38.474Z</time></trkpt><trkpt lat="44.2213708" lon="10.5677331"><ele>1316.0</ele><time>2026-05-03T13:50:39.471Z</time></trkpt><trkpt lat="44.221447" lon="10.5678204"><ele>1316.0</ele><time>2026-05-03T13:50:40.475Z</time></trkpt><trkpt lat="44.2215096" lon="10.5679145"><ele>1316.0</ele><time>2026-05-03T13:50:41.468Z</time></trkpt><trkpt lat="44.2215757" lon="10.5680256"><ele>1315.8</ele><time>2026-05-03T13:50:42.472Z</time></trkpt><trkpt lat="44.2216166" lon="10.5681383"><ele>1315.6</ele><time>2026-05-03T13:50:43.472Z</time></trkpt><trkpt lat="44.2216655" lon="10.5682241"><ele>1315.4</ele><time>2026-05-03T13:50:44.474Z</time></trkpt><trkpt lat="44.2217018" lon="10.5683764"><ele>1315.2</ele><time>2026-05-03T13:50:46.473Z</time></trkpt><trkpt lat="44.2216758" lon="10.5685108"><ele>1315.0</ele><time>2026-05-03T13:50:48.471Z</time></trkpt><trkpt lat="44.2216247" lon="10.5686342"><ele>1314.1666666666665</ele><time>2026-05-03T13:50:50.47Z</time></trkpt><trkpt lat="44.2215753" lon="10.5687052"><ele>1313.3333333333333</ele><time>2026-05-03T13:50:51.47Z</time></trkpt><trkpt lat="44.2215229" lon="10.5687691"><ele>1312.5</ele><time>2026-05-03T13:50:52.468Z</time></trkpt><trkpt lat="44.2214658" lon="10.5688457"><ele>1311.6666666666667</ele><time>2026-05-03T13:50:53.471Z</time></trkpt><trkpt lat="44.2214049" lon="10.5689277"><ele>1310.8333333333335</ele><time>2026-05-03T13:50:54.468Z</time></trkpt><trkpt lat="44.2213527" lon="10.5690029"><ele>1310.0</ele><time>2026-05-03T13:50:55.471Z</time></trkpt><trkpt lat="44.221301" lon="10.5690806"><ele>1308.1666666666667</ele><time>2026-05-03T13:50:56.468Z</time></trkpt><trkpt lat="44.2212525" lon="10.5691547"><ele>1306.3333333333335</ele><time>2026-05-03T13:50:57.477Z</time></trkpt><trkpt lat="44.2212003" lon="10.5692124"><ele>1304.5</ele><time>2026-05-03T13:50:58.468Z</time></trkpt><trkpt lat="44.221157" lon="10.5692762"><ele>1302.6666666666667</ele><time>2026-05-03T13:50:59.467Z</time></trkpt><trkpt lat="44.2210893" lon="10.5694032"><ele>1300.8333333333333</ele><time>2026-05-03T13:51:01.471Z</time></trkpt><trkpt lat="44.22104" lon="10.5695491"><ele>1299.0</ele><time>2026-05-03T13:51:03.468Z</time></trkpt><trkpt lat="44.2210609" lon="10.5697039"><ele>1297.6666666666667</ele><time>2026-05-03T13:51:05.472Z</time></trkpt><trkpt lat="44.2211026" lon="10.5697826"><ele>1296.3333333333333</ele><time>2026-05-03T13:51:06.47Z</time></trkpt><trkpt lat="44.2211457" lon="10.5698918"><ele>1295.0</ele><time>2026-05-03T13:51:07.471Z</time></trkpt><trkpt lat="44.2211891" lon="10.569988"><ele>1293.6666666666665</ele><time>2026-05-03T13:51:08.473Z</time></trkpt><trkpt lat="44.2212262" lon="10.5700812"><ele>1292.3333333333333</ele><time>2026-05-03T13:51:09.472Z</time></trkpt><trkpt lat="44.221268" lon="10.5701666"><ele>1291.0</ele><time>2026-05-03T13:51:10.477Z</time></trkpt><trkpt lat="44.2213645" lon="10.5702733"><ele>1291.0</ele><time>2026-05-03T13:51:12.472Z</time></trkpt><trkpt lat="44.2214198" lon="10.5703375"><ele>1291.0</ele><time>2026-05-03T13:51:13.47Z</time></trkpt><trkpt lat="44.2214442" lon="10.5704192"><ele>1291.0</ele><time>2026-05-03T13:51:14.484Z</time></trkpt><trkpt lat="44.221467" lon="10.5705135"><ele>1291.0</ele><time>2026-05-03T13:51:15.474Z</time></trkpt><trkpt lat="44.2214879" lon="10.5706839"><ele>1291.0</ele><time>2026-05-03T13:51:17.467Z</time></trkpt><trkpt lat="44.2214803" lon="10.5707962"><ele>1291.0</ele><time>2026-05-03T13:51:18.464Z</time></trkpt><trkpt lat="44.2214705" lon="10.5708874"><ele>1290.4285714285713</ele><time>2026-05-03T13:51:19.461Z</time></trkpt><trkpt lat="44.2214665" lon="10.57098"><ele>1289.857142857143</ele><time>2026-05-03T13:51:20.461Z</time></trkpt><trkpt lat="44.2214587" lon="10.5710786"><ele>1289.2857142857142</ele><time>2026-05-03T13:51:21.467Z</time></trkpt><trkpt lat="44.2214406" lon="10.5711951"><ele>1288.7142857142858</ele><time>2026-05-03T13:51:22.471Z</time></trkpt><trkpt lat="44.2214392" lon="10.5713085"><ele>1288.142857142857</ele><time>2026-05-03T13:51:23.474Z</time></trkpt><trkpt lat="44.2214379" lon="10.5714061"><ele>1287.5714285714284</ele><time>2026-05-03T13:51:24.469Z</time></trkpt><trkpt lat="44.2214445" lon="10.571499"><ele>1287.0</ele><time>2026-05-03T13:51:25.479Z</time></trkpt><trkpt lat="44.2214485" lon="10.5715957"><ele>1286.6666666666667</ele><time>2026-05-03T13:51:26.475Z</time></trkpt><trkpt lat="44.2215028" lon="10.5716479"><ele>1286.3333333333333</ele><time>2026-05-03T13:51:32.477Z</time></trkpt><trkpt lat="44.2215768" lon="10.5716623"><ele>1286.0</ele><time>2026-05-03T13:51:34.471Z</time></trkpt><trkpt lat="44.2216652" lon="10.5716721"><ele>1285.6666666666665</ele><time>2026-05-03T13:51:36.47Z</time></trkpt><trkpt lat="44.2217354" lon="10.5716583"><ele>1285.3333333333333</ele><time>2026-05-03T13:51:37.469Z</time></trkpt><trkpt lat="44.2218127" lon="10.5716382"><ele>1285.0</ele><time>2026-05-03T13:51:38.471Z</time></trkpt><trkpt lat="44.2218833" lon="10.5715986"><ele>1285.0</ele><time>2026-05-03T13:51:39.468Z</time></trkpt><trkpt lat="44.221955" lon="10.5715537"><ele>1285.0</ele><time>2026-05-03T13:51:40.467Z</time></trkpt><trkpt lat="44.2220294" lon="10.5715157"><ele>1285.0</ele><time>2026-05-03T13:51:41.468Z</time></trkpt><trkpt lat="44.2220925" lon="10.5714874"><ele>1285.0</ele><time>2026-05-03T13:51:42.464Z</time></trkpt><trkpt lat="44.2221861" lon="10.5714661"><ele>1285.0</ele><time>2026-05-03T13:51:44.467Z</time></trkpt><trkpt lat="44.2222379" lon="10.5715211"><ele>1285.0</ele><time>2026-05-03T13:51:46.462Z</time></trkpt><trkpt lat="44.2221939" lon="10.5716306"><ele>1285.0</ele><time>2026-05-03T13:51:49.464Z</time></trkpt><trkpt lat="44.2221436" lon="10.5716974"><ele>1285.0</ele><time>2026-05-03T13:51:50.46Z</time></trkpt><trkpt lat="44.2220858" lon="10.571785"><ele>1285.0</ele><time>2026-05-03T13:51:51.459Z</time></trkpt><trkpt lat="44.2220285" lon="10.5718692"><ele>1285.0</ele><time>2026-05-03T13:51:52.461Z</time></trkpt><trkpt lat="44.2219866" lon="10.5719534"><ele>1285.0</ele><time>2026-05-03T13:51:53.461Z</time></trkpt><trkpt lat="44.2219393" lon="10.5720328"><ele>1285.0</ele><time>2026-05-03T13:51:54.459Z</time></trkpt><trkpt lat="44.2219134" lon="10.572193"><ele>1284.3333333333333</ele><time>2026-05-03T13:51:56.476Z</time></trkpt><trkpt lat="44.2219386" lon="10.5722766"><ele>1283.6666666666665</ele><time>2026-05-03T13:51:57.48Z</time></trkpt><trkpt lat="44.2219789" lon="10.5723542"><ele>1283.0</ele><time>2026-05-03T13:51:58.47Z</time></trkpt><trkpt lat="44.2220346" lon="10.5724419"><ele>1282.3333333333333</ele><time>2026-05-03T13:51:59.47Z</time></trkpt><trkpt lat="44.2220899" lon="10.5725301"><ele>1281.6666666666667</ele><time>2026-05-03T13:52:00.466Z</time></trkpt><trkpt lat="44.2221509" lon="10.5726384"><ele>1281.0</ele><time>2026-05-03T13:52:01.477Z</time></trkpt><trkpt lat="44.2222122" lon="10.5727345"><ele>1281.0</ele><time>2026-05-03T13:52:02.467Z</time></trkpt><trkpt lat="44.2222755" lon="10.5728149"><ele>1281.0</ele><time>2026-05-03T13:52:03.469Z</time></trkpt><trkpt lat="44.2223236" lon="10.5728792"><ele>1281.0</ele><time>2026-05-03T13:52:04.468Z</time></trkpt><trkpt lat="44.2223748" lon="10.573013"><ele>1281.0</ele><time>2026-05-03T13:52:06.468Z</time></trkpt><trkpt lat="44.2223569" lon="10.5731736"><ele>1281.0</ele><time>2026-05-03T13:52:08.456Z</time></trkpt><trkpt lat="44.2223606" lon="10.5732804"><ele>1282.1666666666667</ele><time>2026-05-03T13:52:09.463Z</time></trkpt><trkpt lat="44.2223577" lon="10.573402"><ele>1283.3333333333333</ele><time>2026-05-03T13:52:10.46Z</time></trkpt><trkpt lat="44.2223531" lon="10.5735342"><ele>1284.5</ele><time>2026-05-03T13:52:11.468Z</time></trkpt><trkpt lat="44.2223736" lon="10.5736667"><ele>1285.6666666666665</ele><time>2026-05-03T13:52:12.45Z</time></trkpt><trkpt lat="44.2224036" lon="10.5737893"><ele>1286.8333333333333</ele><time>2026-05-03T13:52:13.465Z</time></trkpt><trkpt lat="44.2224384" lon="10.5738838"><ele>1288.0</ele><time>2026-05-03T13:52:14.464Z</time></trkpt><trkpt lat="44.2224671" lon="10.5739742"><ele>1288.0</ele><time>2026-05-03T13:52:15.459Z</time></trkpt><trkpt lat="44.2224935" lon="10.5740701"><ele>1288.0</ele><time>2026-05-03T13:52:16.458Z</time></trkpt><trkpt lat="44.2225175" lon="10.5741665"><ele>1288.0</ele><time>2026-05-03T13:52:17.458Z</time></trkpt><trkpt lat="44.2225477" lon="10.5742598"><ele>1288.0</ele><time>2026-05-03T13:52:18.459Z</time></trkpt><trkpt lat="44.2225772" lon="10.5743586"><ele>1288.0</ele><time>2026-05-03T13:52:19.466Z</time></trkpt><trkpt lat="44.2225937" lon="10.5744771"><ele>1288.0</ele><time>2026-05-03T13:52:20.466Z</time></trkpt><trkpt lat="44.2226143" lon="10.5745807"><ele>1287.4</ele><time>2026-05-03T13:52:21.462Z</time></trkpt><trkpt lat="44.222624" lon="10.574692"><ele>1286.8000000000002</ele><time>2026-05-03T13:52:22.464Z</time></trkpt><trkpt lat="44.2226288" lon="10.5748057"><ele>1286.2</ele><time>2026-05-03T13:52:23.465Z</time></trkpt><trkpt lat="44.2226369" lon="10.5749728"><ele>1285.6</ele><time>2026-05-03T13:52:25.466Z</time></trkpt><trkpt lat="44.2226375" lon="10.5751152"><ele>1285.0</ele><time>2026-05-03T13:52:27.467Z</time></trkpt><trkpt lat="44.2226548" lon="10.5752751"><ele>1283.5</ele><time>2026-05-03T13:52:29.466Z</time></trkpt><trkpt lat="44.222671" lon="10.5753698"><ele>1282.0</ele><time>2026-05-03T13:52:30.467Z</time></trkpt><trkpt lat="44.2226909" lon="10.5754672"><ele>1280.5</ele><time>2026-05-03T13:52:31.467Z</time></trkpt><trkpt lat="44.2227156" lon="10.5755746"><ele>1279.0</ele><time>2026-05-03T13:52:32.462Z</time></trkpt><trkpt lat="44.2227394" lon="10.5756803"><ele>1277.5</ele><time>2026-05-03T13:52:33.465Z</time></trkpt><trkpt lat="44.2227618" lon="10.5757887"><ele>1276.0</ele><time>2026-05-03T13:52:34.464Z</time></trkpt><trkpt lat="44.2227707" lon="10.5759173"><ele>1276.0</ele><time>2026-05-03T13:52:35.467Z</time></trkpt><trkpt lat="44.2227719" lon="10.5760265"><ele>1276.0</ele><time>2026-05-03T13:52:36.467Z</time></trkpt><trkpt lat="44.2227591" lon="10.5761193"><ele>1276.0</ele><time>2026-05-03T13:52:37.467Z</time></trkpt><trkpt lat="44.2227425" lon="10.5762319"><ele>1276.0</ele><time>2026-05-03T13:52:38.47Z</time></trkpt><trkpt lat="44.2227025" lon="10.576327"><ele>1276.0</ele><time>2026-05-03T13:52:39.467Z</time></trkpt><trkpt lat="44.2226419" lon="10.5764455"><ele>1276.0</ele><time>2026-05-03T13:52:40.466Z</time></trkpt><trkpt lat="44.2225802" lon="10.5765628"><ele>1276.3999999999999</ele><time>2026-05-03T13:52:41.462Z</time></trkpt><trkpt lat="44.2225106" lon="10.576674"><ele>1276.8</ele><time>2026-05-03T13:52:42.464Z</time></trkpt><trkpt lat="44.2224527" lon="10.5767955"><ele>1277.1999999999998</ele><time>2026-05-03T13:52:43.462Z</time></trkpt><trkpt lat="44.2223962" lon="10.57692"><ele>1277.6</ele><time>2026-05-03T13:52:44.469Z</time></trkpt><trkpt lat="44.2223471" lon="10.5770455"><ele>1278.0</ele><time>2026-05-03T13:52:45.467Z</time></trkpt><trkpt lat="44.2223085" lon="10.5771652"><ele>1274.2</ele><time>2026-05-03T13:52:46.467Z</time></trkpt><trkpt lat="44.2222737" lon="10.5772931"><ele>1270.4</ele><time>2026-05-03T13:52:47.468Z</time></trkpt><trkpt lat="44.2222517" lon="10.5774398"><ele>1266.6000000000001</ele><time>2026-05-03T13:52:48.466Z</time></trkpt><trkpt lat="44.2222392" lon="10.5775884"><ele>1262.8</ele><time>2026-05-03T13:52:49.466Z</time></trkpt><trkpt lat="44.2222308" lon="10.577724"><ele>1259.0</ele><time>2026-05-03T13:52:50.466Z</time></trkpt><trkpt lat="44.2222249" lon="10.5778304"><ele>1258.5</ele><time>2026-05-03T13:52:51.47Z</time></trkpt><trkpt lat="44.2222227" lon="10.5779265"><ele>1258.0</ele><time>2026-05-03T13:52:52.468Z</time></trkpt><trkpt lat="44.2222206" lon="10.5780297"><ele>1257.5</ele><time>2026-05-03T13:52:53.47Z</time></trkpt><trkpt lat="44.2222164" lon="10.5781473"><ele>1257.0</ele><time>2026-05-03T13:52:54.467Z</time></trkpt><trkpt lat="44.2222292" lon="10.5782662"><ele>1256.5</ele><time>2026-05-03T13:52:55.473Z</time></trkpt><trkpt lat="44.222261" lon="10.5783889"><ele>1256.0</ele><time>2026-05-03T13:52:56.469Z</time></trkpt><trkpt lat="44.2223073" lon="10.5785071"><ele>1259.2</ele><time>2026-05-03T13:52:57.474Z</time></trkpt><trkpt lat="44.2223552" lon="10.5786044"><ele>1262.3999999999999</ele><time>2026-05-03T13:52:58.475Z</time></trkpt><trkpt lat="44.2224158" lon="10.5786886"><ele>1265.6</ele><time>2026-05-03T13:52:59.471Z</time></trkpt><trkpt lat="44.2224851" lon="10.5787744"><ele>1268.8</ele><time>2026-05-03T13:53:00.469Z</time></trkpt><trkpt lat="44.2225662" lon="10.5788419"><ele>1272.0</ele><time>2026-05-03T13:53:01.469Z</time></trkpt><trkpt lat="44.222652" lon="10.5789087"><ele>1272.0</ele><time>2026-05-03T13:53:02.469Z</time></trkpt><trkpt lat="44.2227461" lon="10.5789587"><ele>1272.0</ele><time>2026-05-03T13:53:03.468Z</time></trkpt><trkpt lat="44.222836" lon="10.5790039"><ele>1272.0</ele><time>2026-05-03T13:53:04.474Z</time></trkpt><trkpt lat="44.2229206" lon="10.5790474"><ele>1272.0</ele><time>2026-05-03T13:53:05.47Z</time></trkpt><trkpt lat="44.2230057" lon="10.5790868"><ele>1272.0</ele><time>2026-05-03T13:53:06.469Z</time></trkpt><trkpt lat="44.2230757" lon="10.5791217"><ele>1272.0</ele><time>2026-05-03T13:53:07.468Z</time></trkpt><trkpt lat="44.2231423" lon="10.5791667"><ele>1272.0</ele><time>2026-05-03T13:53:08.472Z</time></trkpt><trkpt lat="44.2232192" lon="10.5792259"><ele>1272.0</ele><time>2026-05-03T13:53:09.469Z</time></trkpt><trkpt lat="44.2232901" lon="10.579283"><ele>1272.0</ele><time>2026-05-03T13:53:10.47Z</time></trkpt><trkpt lat="44.2233627" lon="10.579336"><ele>1272.0</ele><time>2026-05-03T13:53:11.468Z</time></trkpt><trkpt lat="44.2234255" lon="10.5793758"><ele>1272.0</ele><time>2026-05-03T13:53:12.475Z</time></trkpt><trkpt lat="44.2234882" lon="10.5794085"><ele>1271.3333333333333</ele><time>2026-05-03T13:53:13.47Z</time></trkpt><trkpt lat="44.2235561" lon="10.5794433"><ele>1270.6666666666667</ele><time>2026-05-03T13:53:14.475Z</time></trkpt><trkpt lat="44.2236221" lon="10.5794651"><ele>1270.0</ele><time>2026-05-03T13:53:15.475Z</time></trkpt><trkpt lat="44.223691" lon="10.5794728"><ele>1269.3333333333335</ele><time>2026-05-03T13:53:16.47Z</time></trkpt><trkpt lat="44.2238007" lon="10.5794745"><ele>1268.6666666666667</ele><time>2026-05-03T13:53:18.471Z</time></trkpt><trkpt lat="44.2238997" lon="10.5795497"><ele>1268.0</ele><time>2026-05-03T13:53:20.471Z</time></trkpt><trkpt lat="44.2239652" lon="10.5796781"><ele>1268.0</ele><time>2026-05-03T13:53:22.472Z</time></trkpt><trkpt lat="44.223979" lon="10.5797645"><ele>1268.0</ele><time>2026-05-03T13:53:23.473Z</time></trkpt><trkpt lat="44.223988" lon="10.5798538"><ele>1268.0</ele><time>2026-05-03T13:53:24.469Z</time></trkpt><trkpt lat="44.223978" lon="10.5799461"><ele>1268.0</ele><time>2026-05-03T13:53:25.473Z</time></trkpt><trkpt lat="44.223964" lon="10.5800393"><ele>1268.0</ele><time>2026-05-03T13:53:26.468Z</time></trkpt><trkpt lat="44.2239485" lon="10.5801305"><ele>1268.0</ele><time>2026-05-03T13:53:27.468Z</time></trkpt><trkpt lat="44.2239397" lon="10.5802187"><ele>1268.0</ele><time>2026-05-03T13:53:28.476Z</time></trkpt><trkpt lat="44.2239559" lon="10.5803971"><ele>1269.7142857142858</ele><time>2026-05-03T13:53:30.467Z</time></trkpt><trkpt lat="44.223973" lon="10.5804999"><ele>1271.4285714285713</ele><time>2026-05-03T13:53:31.468Z</time></trkpt><trkpt lat="44.2239843" lon="10.5806064"><ele>1273.142857142857</ele><time>2026-05-03T13:53:32.467Z</time></trkpt><trkpt lat="44.2239909" lon="10.5807025"><ele>1274.857142857143</ele><time>2026-05-03T13:53:33.469Z</time></trkpt><trkpt lat="44.2239866" lon="10.5808022"><ele>1276.5714285714287</ele><time>2026-05-03T13:53:34.471Z</time></trkpt><trkpt lat="44.223982" lon="10.5809012"><ele>1278.2857142857142</ele><time>2026-05-03T13:53:35.465Z</time></trkpt><trkpt lat="44.2239887" lon="10.581014"><ele>1280.0</ele><time>2026-05-03T13:53:36.47Z</time></trkpt><trkpt lat="44.2240003" lon="10.5811424"><ele>1280.3333333333335</ele><time>2026-05-03T13:53:37.472Z</time></trkpt><trkpt lat="44.2240149" lon="10.5812754"><ele>1280.6666666666667</ele><time>2026-05-03T13:53:38.472Z</time></trkpt><trkpt lat="44.224022" lon="10.5814068"><ele>1281.0</ele><time>2026-05-03T13:53:39.475Z</time></trkpt><trkpt lat="44.2240151" lon="10.581529"><ele>1281.3333333333333</ele><time>2026-05-03T13:53:40.475Z</time></trkpt><trkpt lat="44.2239944" lon="10.5816363"><ele>1281.6666666666665</ele><time>2026-05-03T13:53:41.47Z</time></trkpt><trkpt lat="44.2239716" lon="10.5817349"><ele>1282.0</ele><time>2026-05-03T13:53:42.478Z</time></trkpt><trkpt lat="44.223943" lon="10.5818154"><ele>1281.8333333333333</ele><time>2026-05-03T13:53:43.477Z</time></trkpt><trkpt lat="44.2239216" lon="10.5819117"><ele>1281.6666666666665</ele><time>2026-05-03T13:53:44.48Z</time></trkpt><trkpt lat="44.2239106" lon="10.5820172"><ele>1281.5</ele><time>2026-05-03T13:53:45.479Z</time></trkpt><trkpt lat="44.2239223" lon="10.5821044"><ele>1281.3333333333333</ele><time>2026-05-03T13:53:46.484Z</time></trkpt><trkpt lat="44.2239608" lon="10.5821949"><ele>1281.1666666666667</ele><time>2026-05-03T13:53:47.474Z</time></trkpt><trkpt lat="44.224006" lon="10.5822963"><ele>1281.0</ele><time>2026-05-03T13:53:48.482Z</time></trkpt><trkpt lat="44.2240755" lon="10.5824105"><ele>1281.0</ele><time>2026-05-03T13:53:49.475Z</time></trkpt><trkpt lat="44.2241508" lon="10.5825122"><ele>1281.0</ele><time>2026-05-03T13:53:50.474Z</time></trkpt><trkpt lat="44.2242211" lon="10.5826184"><ele>1281.0</ele><time>2026-05-03T13:53:51.471Z</time></trkpt><trkpt lat="44.2242875" lon="10.5827261"><ele>1281.0</ele><time>2026-05-03T13:53:52.474Z</time></trkpt><trkpt lat="44.2243436" lon="10.5828506"><ele>1281.0</ele><time>2026-05-03T13:53:53.473Z</time></trkpt><trkpt lat="44.2243899" lon="10.582952"><ele>1279.1666666666667</ele><time>2026-05-03T13:53:54.471Z</time></trkpt><trkpt lat="44.2244224" lon="10.5830552"><ele>1277.3333333333333</ele><time>2026-05-03T13:53:55.473Z</time></trkpt><trkpt lat="44.2244563" lon="10.5831408"><ele>1275.5</ele><time>2026-05-03T13:53:56.472Z</time></trkpt><trkpt lat="44.2244776" lon="10.5832815"><ele>1273.6666666666665</ele><time>2026-05-03T13:53:58.473Z</time></trkpt><trkpt lat="44.2244659" lon="10.5833972"><ele>1271.8333333333333</ele><time>2026-05-03T13:54:00.473Z</time></trkpt><trkpt lat="44.224465" lon="10.5835391"><ele>1270.0</ele><time>2026-05-03T13:54:02.468Z</time></trkpt><trkpt lat="44.2244765" lon="10.5837035"><ele>1268.5714285714284</ele><time>2026-05-03T13:54:04.465Z</time></trkpt><trkpt lat="44.2244769" lon="10.5837939"><ele>1267.142857142857</ele><time>2026-05-03T13:54:05.469Z</time></trkpt><trkpt lat="44.2244653" lon="10.5838908"><ele>1265.7142857142858</ele><time>2026-05-03T13:54:06.473Z</time></trkpt><trkpt lat="44.2244518" lon="10.5839775"><ele>1264.2857142857142</ele><time>2026-05-03T13:54:07.469Z</time></trkpt><trkpt lat="44.2244536" lon="10.5840669"><ele>1262.857142857143</ele><time>2026-05-03T13:54:08.469Z</time></trkpt><trkpt lat="44.2244673" lon="10.5841707"><ele>1261.4285714285713</ele><time>2026-05-03T13:54:09.477Z</time></trkpt><trkpt lat="44.2245024" lon="10.5842736"><ele>1260.0</ele><time>2026-05-03T13:54:10.466Z</time></trkpt><trkpt lat="44.2245541" lon="10.5843612"><ele>1260.0</ele><time>2026-05-03T13:54:11.47Z</time></trkpt><trkpt lat="44.2246144" lon="10.5844556"><ele>1260.0</ele><time>2026-05-03T13:54:12.476Z</time></trkpt><trkpt lat="44.2246775" lon="10.5845439"><ele>1260.0</ele><time>2026-05-03T13:54:13.479Z</time></trkpt><trkpt lat="44.2247397" lon="10.5846372"><ele>1260.0</ele><time>2026-05-03T13:54:14.479Z</time></trkpt><trkpt lat="44.224796" lon="10.5847265"><ele>1260.0</ele><time>2026-05-03T13:54:15.473Z</time></trkpt><trkpt lat="44.2248406" lon="10.5848039"><ele>1260.0</ele><time>2026-05-03T13:54:16.474Z</time></trkpt><trkpt lat="44.2249129" lon="10.584922"><ele>1261.4</ele><time>2026-05-03T13:54:18.473Z</time></trkpt><trkpt lat="44.2250152" lon="10.5849804"><ele>1262.8</ele><time>2026-05-03T13:54:20.466Z</time></trkpt><trkpt lat="44.2250704" lon="10.5850374"><ele>1264.2</ele><time>2026-05-03T13:54:21.469Z</time></trkpt><trkpt lat="44.2251438" lon="10.5851644"><ele>1265.6</ele><time>2026-05-03T13:54:23.473Z</time></trkpt><trkpt lat="44.2251157" lon="10.5853463"><ele>1267.0</ele><time>2026-05-03T13:54:25.467Z</time></trkpt><trkpt lat="44.2250588" lon="10.585435"><ele>1267.0</ele><time>2026-05-03T13:54:26.461Z</time></trkpt><trkpt lat="44.2249844" lon="10.5855248"><ele>1267.0</ele><time>2026-05-03T13:54:27.463Z</time></trkpt><trkpt lat="44.2249213" lon="10.5856167"><ele>1267.0</ele><time>2026-05-03T13:54:28.461Z</time></trkpt><trkpt lat="44.2248722" lon="10.5857207"><ele>1267.0</ele><time>2026-05-03T13:54:29.458Z</time></trkpt><trkpt lat="44.2248358" lon="10.5858201"><ele>1267.0</ele><time>2026-05-03T13:54:30.467Z</time></trkpt><trkpt lat="44.2248099" lon="10.585915"><ele>1267.0</ele><time>2026-05-03T13:54:31.469Z</time></trkpt><trkpt lat="44.2247878" lon="10.5860077"><ele>1266.3333333333333</ele><time>2026-05-03T13:54:32.465Z</time></trkpt><trkpt lat="44.224777" lon="10.5860963"><ele>1265.6666666666665</ele><time>2026-05-03T13:54:33.469Z</time></trkpt><trkpt lat="44.2248044" lon="10.5862359"><ele>1265.0</ele><time>2026-05-03T13:54:35.466Z</time></trkpt><trkpt lat="44.2248523" lon="10.5863"><ele>1264.3333333333333</ele><time>2026-05-03T13:54:37.469Z</time></trkpt><trkpt lat="44.2249327" lon="10.586361"><ele>1263.6666666666667</ele><time>2026-05-03T13:54:39.466Z</time></trkpt><trkpt lat="44.2250294" lon="10.5864531"><ele>1263.0</ele><time>2026-05-03T13:54:41.468Z</time></trkpt><trkpt lat="44.2250822" lon="10.5865947"><ele>1263.0</ele><time>2026-05-03T13:54:43.461Z</time></trkpt><trkpt lat="44.2250975" lon="10.5867342"><ele>1263.0</ele><time>2026-05-03T13:54:45.465Z</time></trkpt><trkpt lat="44.2250453" lon="10.5868927"><ele>1263.0</ele><time>2026-05-03T13:54:47.463Z</time></trkpt><trkpt lat="44.2249915" lon="10.5869804"><ele>1263.0</ele><time>2026-05-03T13:54:48.463Z</time></trkpt><trkpt lat="44.2249311" lon="10.5870748"><ele>1263.0</ele><time>2026-05-03T13:54:49.458Z</time></trkpt><trkpt lat="44.2248725" lon="10.58716"><ele>1263.2</ele><time>2026-05-03T13:54:50.462Z</time></trkpt><trkpt lat="44.2248181" lon="10.5872438"><ele>1263.4</ele><time>2026-05-03T13:54:51.462Z</time></trkpt><trkpt lat="44.2247606" lon="10.5873209"><ele>1263.6000000000001</ele><time>2026-05-03T13:54:52.459Z</time></trkpt><trkpt lat="44.2246828" lon="10.5874554"><ele>1263.8</ele><time>2026-05-03T13:54:54.461Z</time></trkpt><trkpt lat="44.2246488" lon="10.5875616"><ele>1264.0</ele><time>2026-05-03T13:54:55.465Z</time></trkpt><trkpt lat="44.2246219" lon="10.587683"><ele>1256.6000000000001</ele><time>2026-05-03T13:54:56.464Z</time></trkpt><trkpt lat="44.2246209" lon="10.5878164"><ele>1249.2</ele><time>2026-05-03T13:54:57.464Z</time></trkpt><trkpt lat="44.2246271" lon="10.5879575"><ele>1241.8000000000002</ele><time>2026-05-03T13:54:58.461Z</time></trkpt><trkpt lat="44.2246154" lon="10.5881063"><ele>1234.4</ele><time>2026-05-03T13:54:59.462Z</time></trkpt><trkpt lat="44.22461" lon="10.5882588"><ele>1227.0</ele><time>2026-05-03T13:55:00.46Z</time></trkpt><trkpt lat="44.2246154" lon="10.5884062"><ele>1227.0</ele><time>2026-05-03T13:55:01.469Z</time></trkpt><trkpt lat="44.2246127" lon="10.5885527"><ele>1227.0</ele><time>2026-05-03T13:55:02.461Z</time></trkpt><trkpt lat="44.2246047" lon="10.5887111"><ele>1227.0</ele><time>2026-05-03T13:55:03.461Z</time></trkpt><trkpt lat="44.2246112" lon="10.5888615"><ele>1227.0</ele><time>2026-05-03T13:55:04.464Z</time></trkpt><trkpt lat="44.2246239" lon="10.5890064"><ele>1227.0</ele><time>2026-05-03T13:55:05.463Z</time></trkpt><trkpt lat="44.2246423" lon="10.5891419"><ele>1227.2</ele><time>2026-05-03T13:55:06.46Z</time></trkpt><trkpt lat="44.2246681" lon="10.5892854"><ele>1227.4</ele><time>2026-05-03T13:55:07.462Z</time></trkpt><trkpt lat="44.2246949" lon="10.5894336"><ele>1227.6</ele><time>2026-05-03T13:55:08.461Z</time></trkpt><trkpt lat="44.2247311" lon="10.5895875"><ele>1227.8</ele><time>2026-05-03T13:55:09.459Z</time></trkpt><trkpt lat="44.2247671" lon="10.5897265"><ele>1228.0</ele><time>2026-05-03T13:55:10.459Z</time></trkpt><trkpt lat="44.2247987" lon="10.5898673"><ele>1232.4</ele><time>2026-05-03T13:55:11.458Z</time></trkpt><trkpt lat="44.2248256" lon="10.5899976"><ele>1236.8</ele><time>2026-05-03T13:55:12.463Z</time></trkpt><trkpt lat="44.224856" lon="10.5901205"><ele>1241.2</ele><time>2026-05-03T13:55:13.466Z</time></trkpt><trkpt lat="44.2248937" lon="10.5902485"><ele>1245.6</ele><time>2026-05-03T13:55:14.469Z</time></trkpt><trkpt lat="44.2249355" lon="10.5903738"><ele>1250.0</ele><time>2026-05-03T13:55:15.466Z</time></trkpt><trkpt lat="44.2249941" lon="10.5904849"><ele>1250.0</ele><time>2026-05-03T13:55:16.467Z</time></trkpt><trkpt lat="44.2250638" lon="10.5905925"><ele>1250.0</ele><time>2026-05-03T13:55:17.468Z</time></trkpt><trkpt lat="44.2251396" lon="10.5907153"><ele>1250.0</ele><time>2026-05-03T13:55:18.469Z</time></trkpt><trkpt lat="44.2252248" lon="10.5908256"><ele>1250.0</ele><time>2026-05-03T13:55:19.472Z</time></trkpt><trkpt lat="44.2253129" lon="10.5909471"><ele>1250.0</ele><time>2026-05-03T13:55:20.469Z</time></trkpt><trkpt lat="44.2253975" lon="10.5910435"><ele>1250.0</ele><time>2026-05-03T13:55:21.469Z</time></trkpt><trkpt lat="44.2255011" lon="10.5911369"><ele>1250.0</ele><time>2026-05-03T13:55:22.47Z</time></trkpt><trkpt lat="44.2255903" lon="10.5912486"><ele>1250.0</ele><time>2026-05-03T13:55:23.477Z</time></trkpt><trkpt lat="44.2256784" lon="10.5913389"><ele>1251.25</ele><time>2026-05-03T13:55:24.468Z</time></trkpt><trkpt lat="44.2257804" lon="10.5914456"><ele>1252.5</ele><time>2026-05-03T13:55:25.471Z</time></trkpt><trkpt lat="44.2258842" lon="10.5915476"><ele>1253.75</ele><time>2026-05-03T13:55:26.468Z</time></trkpt><trkpt lat="44.2259797" lon="10.5916459"><ele>1255.0</ele><time>2026-05-03T13:55:27.47Z</time></trkpt><trkpt lat="44.2260696" lon="10.5917418"><ele>1255.0</ele><time>2026-05-03T13:55:28.471Z</time></trkpt><trkpt lat="44.2261621" lon="10.591832"><ele>1255.0</ele><time>2026-05-03T13:55:29.47Z</time></trkpt><trkpt lat="44.2262533" lon="10.5919227"><ele>1255.0</ele><time>2026-05-03T13:55:30.471Z</time></trkpt><trkpt lat="44.2263486" lon="10.5920099"><ele>1255.0</ele><time>2026-05-03T13:55:31.473Z</time></trkpt><trkpt lat="44.226435" lon="10.5921013"><ele>1255.0</ele><time>2026-05-03T13:55:32.471Z</time></trkpt><trkpt lat="44.2265097" lon="10.5921697"><ele>1254.1666666666665</ele><time>2026-05-03T13:55:33.472Z</time></trkpt><trkpt lat="44.2265774" lon="10.5922285"><ele>1253.3333333333333</ele><time>2026-05-03T13:55:34.473Z</time></trkpt><trkpt lat="44.2266372" lon="10.5922972"><ele>1252.5</ele><time>2026-05-03T13:55:35.464Z</time></trkpt><trkpt lat="44.226707" lon="10.5923777"><ele>1251.6666666666667</ele><time>2026-05-03T13:55:36.458Z</time></trkpt><trkpt lat="44.2267563" lon="10.5924427"><ele>1250.8333333333335</ele><time>2026-05-03T13:55:37.466Z</time></trkpt><trkpt lat="44.2268092" lon="10.5925005"><ele>1250.0</ele><time>2026-05-03T13:55:38.463Z</time></trkpt><trkpt lat="44.2268842" lon="10.5925638"><ele>1250.0</ele><time>2026-05-03T13:55:40.472Z</time></trkpt><trkpt lat="44.226953" lon="10.5925829"><ele>1250.0</ele><time>2026-05-03T13:55:41.468Z</time></trkpt><trkpt lat="44.2270181" lon="10.5926301"><ele>1250.0</ele><time>2026-05-03T13:55:42.469Z</time></trkpt><trkpt lat="44.2270924" lon="10.5927539"><ele>1250.0</ele><time>2026-05-03T13:55:44.475Z</time></trkpt><trkpt lat="44.227094" lon="10.5928737"><ele>1250.0</ele><time>2026-05-03T13:55:45.465Z</time></trkpt><trkpt lat="44.2271048" lon="10.592977"><ele>1250.0</ele><time>2026-05-03T13:55:46.475Z</time></trkpt><trkpt lat="44.2271551" lon="10.5931265"><ele>1249.0</ele><time>2026-05-03T13:55:48.471Z</time></trkpt><trkpt lat="44.2272548" lon="10.5932478"><ele>1248.0</ele><time>2026-05-03T13:55:50.47Z</time></trkpt><trkpt lat="44.2273244" lon="10.5932657"><ele>1247.0</ele><time>2026-05-03T13:55:51.47Z</time></trkpt><trkpt lat="44.2274068" lon="10.5932677"><ele>1246.0</ele><time>2026-05-03T13:55:52.469Z</time></trkpt><trkpt lat="44.2274961" lon="10.5932523"><ele>1245.0</ele><time>2026-05-03T13:55:53.469Z</time></trkpt><trkpt lat="44.2275906" lon="10.5932183"><ele>1245.0</ele><time>2026-05-03T13:55:54.47Z</time></trkpt><trkpt lat="44.2276909" lon="10.5931654"><ele>1245.0</ele><time>2026-05-03T13:55:55.469Z</time></trkpt><trkpt lat="44.2277846" lon="10.5931063"><ele>1245.0</ele><time>2026-05-03T13:55:56.476Z</time></trkpt><trkpt lat="44.2278752" lon="10.5930302"><ele>1245.0</ele><time>2026-05-03T13:55:57.474Z</time></trkpt><trkpt lat="44.2279569" lon="10.5929489"><ele>1245.0</ele><time>2026-05-03T13:55:58.478Z</time></trkpt><trkpt lat="44.2280341" lon="10.592856"><ele>1247.0</ele><time>2026-05-03T13:55:59.471Z</time></trkpt><trkpt lat="44.2281074" lon="10.5927591"><ele>1249.0</ele><time>2026-05-03T13:56:00.471Z</time></trkpt><trkpt lat="44.2281931" lon="10.5926782"><ele>1251.0</ele><time>2026-05-03T13:56:01.478Z</time></trkpt><trkpt lat="44.2282795" lon="10.5925923"><ele>1253.0</ele><time>2026-05-03T13:56:02.48Z</time></trkpt><trkpt lat="44.2283629" lon="10.5925099"><ele>1255.0</ele><time>2026-05-03T13:56:03.475Z</time></trkpt><trkpt lat="44.2284417" lon="10.5924334"><ele>1255.1666666666665</ele><time>2026-05-03T13:56:04.473Z</time></trkpt><trkpt lat="44.228515" lon="10.592361"><ele>1255.3333333333333</ele><time>2026-05-03T13:56:05.474Z</time></trkpt><trkpt lat="44.2285818" lon="10.5922949"><ele>1255.5</ele><time>2026-05-03T13:56:06.474Z</time></trkpt><trkpt lat="44.2286354" lon="10.5922302"><ele>1255.6666666666667</ele><time>2026-05-03T13:56:07.471Z</time></trkpt><trkpt lat="44.2286916" lon="10.5921643"><ele>1255.8333333333335</ele><time>2026-05-03T13:56:08.47Z</time></trkpt><trkpt lat="44.2288139" lon="10.5921158"><ele>1256.0</ele><time>2026-05-03T13:56:10.477Z</time></trkpt><trkpt lat="44.2288526" lon="10.5922097"><ele>1256.0</ele><time>2026-05-03T13:57:06.489Z</time></trkpt><trkpt lat="44.2288617" lon="10.5923031"><ele>1256.0</ele><time>2026-05-03T13:57:07.485Z</time></trkpt><trkpt lat="44.228858" lon="10.5924187"><ele>1256.0</ele><time>2026-05-03T13:57:08.475Z</time></trkpt><trkpt lat="44.2288474" lon="10.5925331"><ele>1256.0</ele><time>2026-05-03T13:57:09.477Z</time></trkpt><trkpt lat="44.2288382" lon="10.5926522"><ele>1256.0</ele><time>2026-05-03T13:57:10.483Z</time></trkpt><trkpt lat="44.2288285" lon="10.5927725"><ele>1256.0</ele><time>2026-05-03T13:57:11.478Z</time></trkpt><trkpt lat="44.2288365" lon="10.5928943"><ele>1257.3333333333335</ele><time>2026-05-03T13:57:12.486Z</time></trkpt><trkpt lat="44.2288528" lon="10.5930113"><ele>1258.6666666666667</ele><time>2026-05-03T13:57:13.48Z</time></trkpt><trkpt lat="44.2288714" lon="10.5931282"><ele>1260.0</ele><time>2026-05-03T13:57:14.49Z</time></trkpt><trkpt lat="44.2289027" lon="10.5932461"><ele>1261.3333333333333</ele><time>2026-05-03T13:57:15.49Z</time></trkpt><trkpt lat="44.2289421" lon="10.5933491"><ele>1262.6666666666665</ele><time>2026-05-03T13:57:16.488Z</time></trkpt><trkpt lat="44.2289888" lon="10.5934471"><ele>1264.0</ele><time>2026-05-03T13:57:17.49Z</time></trkpt><trkpt lat="44.2290347" lon="10.593539"><ele>1264.0000000000002</ele><time>2026-05-03T13:57:18.488Z</time></trkpt><trkpt lat="44.2290769" lon="10.5936304"><ele>1264.0</ele><time>2026-05-03T13:57:19.493Z</time></trkpt><trkpt lat="44.2291225" lon="10.5937207"><ele>1264.0</ele><time>2026-05-03T13:57:20.486Z</time></trkpt><trkpt lat="44.229175" lon="10.5938018"><ele>1264.0</ele><time>2026-05-03T13:57:21.486Z</time></trkpt><trkpt lat="44.2292184" lon="10.593895"><ele>1264.0</ele><time>2026-05-03T13:57:22.492Z</time></trkpt><trkpt lat="44.2292559" lon="10.5939694"><ele>1264.0000000000002</ele><time>2026-05-03T13:57:23.491Z</time></trkpt><trkpt lat="44.2292959" lon="10.5940425"><ele>1264.0</ele><time>2026-05-03T13:57:24.485Z</time></trkpt><trkpt lat="44.2293345" lon="10.5941241"><ele>1263.4285714285716</ele><time>2026-05-03T13:57:25.486Z</time></trkpt><trkpt lat="44.2293779" lon="10.5942091"><ele>1262.857142857143</ele><time>2026-05-03T13:57:26.492Z</time></trkpt><trkpt lat="44.2294235" lon="10.5943"><ele>1262.2857142857142</ele><time>2026-05-03T13:57:27.494Z</time></trkpt><trkpt lat="44.2294677" lon="10.5943865"><ele>1261.7142857142858</ele><time>2026-05-03T13:57:28.483Z</time></trkpt><trkpt lat="44.2295112" lon="10.59446"><ele>1261.142857142857</ele><time>2026-05-03T13:57:29.484Z</time></trkpt><trkpt lat="44.2295521" lon="10.5945288"><ele>1260.5714285714287</ele><time>2026-05-03T13:57:30.49Z</time></trkpt><trkpt lat="44.229592" lon="10.5945984"><ele>1260.0</ele><time>2026-05-03T13:57:31.489Z</time></trkpt><trkpt lat="44.2296386" lon="10.5946709"><ele>1259.3333333333333</ele><time>2026-05-03T13:57:32.49Z</time></trkpt><trkpt lat="44.229691" lon="10.5947495"><ele>1258.6666666666667</ele><time>2026-05-03T13:57:33.495Z</time></trkpt><trkpt lat="44.2297493" lon="10.5948229"><ele>1258.0</ele><time>2026-05-03T13:57:34.487Z</time></trkpt><trkpt lat="44.2298118" lon="10.5948959"><ele>1257.3333333333335</ele><time>2026-05-03T13:57:35.496Z</time></trkpt><trkpt lat="44.2298731" lon="10.594963"><ele>1256.6666666666667</ele><time>2026-05-03T13:57:36.483Z</time></trkpt><trkpt lat="44.2299244" lon="10.5950308"><ele>1256.0</ele><time>2026-05-03T13:57:37.482Z</time></trkpt><trkpt lat="44.2299767" lon="10.5951032"><ele>1256.8333333333335</ele><time>2026-05-03T13:57:38.482Z</time></trkpt><trkpt lat="44.2300383" lon="10.5951748"><ele>1257.6666666666667</ele><time>2026-05-03T13:57:39.481Z</time></trkpt><trkpt lat="44.2301094" lon="10.5952543"><ele>1258.5</ele><time>2026-05-03T13:57:40.482Z</time></trkpt><trkpt lat="44.2301863" lon="10.5953224"><ele>1259.3333333333333</ele><time>2026-05-03T13:57:41.48Z</time></trkpt><trkpt lat="44.2302645" lon="10.5953779"><ele>1260.1666666666665</ele><time>2026-05-03T13:57:42.487Z</time></trkpt><trkpt lat="44.2303311" lon="10.5954338"><ele>1261.0</ele><time>2026-05-03T13:57:43.487Z</time></trkpt><trkpt lat="44.2303979" lon="10.5954644"><ele>1261.0</ele><time>2026-05-03T13:57:44.496Z</time></trkpt><trkpt lat="44.230473" lon="10.5954834"><ele>1261.0</ele><time>2026-05-03T13:57:45.489Z</time></trkpt><trkpt lat="44.2305525" lon="10.5954938"><ele>1261.0</ele><time>2026-05-03T13:57:46.484Z</time></trkpt><trkpt lat="44.2306471" lon="10.5955059"><ele>1261.0</ele><time>2026-05-03T13:57:47.488Z</time></trkpt><trkpt lat="44.2307487" lon="10.5955113"><ele>1261.0</ele><time>2026-05-03T13:57:48.485Z</time></trkpt><trkpt lat="44.2308552" lon="10.5955151"><ele>1263.3999999999999</ele><time>2026-05-03T13:57:49.486Z</time></trkpt><trkpt lat="44.2309562" lon="10.5955049"><ele>1265.8</ele><time>2026-05-03T13:57:50.485Z</time></trkpt><trkpt lat="44.2310542" lon="10.5955044"><ele>1268.1999999999998</ele><time>2026-05-03T13:57:51.482Z</time></trkpt><trkpt lat="44.2311512" lon="10.5955034"><ele>1270.6</ele><time>2026-05-03T13:57:52.481Z</time></trkpt><trkpt lat="44.2312475" lon="10.5955053"><ele>1273.0</ele><time>2026-05-03T13:57:53.486Z</time></trkpt><trkpt lat="44.2313452" lon="10.5955068"><ele>1273.0</ele><time>2026-05-03T13:57:54.485Z</time></trkpt><trkpt lat="44.2314435" lon="10.595516"><ele>1273.0</ele><time>2026-05-03T13:57:55.489Z</time></trkpt><trkpt lat="44.23154" lon="10.5955288"><ele>1273.0</ele><time>2026-05-03T13:57:56.484Z</time></trkpt><trkpt lat="44.2316285" lon="10.5955469"><ele>1273.0</ele><time>2026-05-03T13:57:57.49Z</time></trkpt><trkpt lat="44.2317128" lon="10.5955845"><ele>1273.0</ele><time>2026-05-03T13:57:58.482Z</time></trkpt><trkpt lat="44.2317749" lon="10.5956202"><ele>1273.0</ele><time>2026-05-03T13:57:59.481Z</time></trkpt><trkpt lat="44.231831" lon="10.595671"><ele>1273.5</ele><time>2026-05-03T13:58:00.487Z</time></trkpt><trkpt lat="44.2319446" lon="10.5957593"><ele>1274.0</ele><time>2026-05-03T13:58:02.486Z</time></trkpt><trkpt lat="44.2319993" lon="10.5958149"><ele>1274.5</ele><time>2026-05-03T13:58:03.485Z</time></trkpt><trkpt lat="44.2320475" lon="10.5958888"><ele>1275.0</ele><time>2026-05-03T13:58:04.485Z</time></trkpt><trkpt lat="44.2320962" lon="10.5959809"><ele>1275.5</ele><time>2026-05-03T13:58:05.484Z</time></trkpt><trkpt lat="44.2321382" lon="10.5960491"><ele>1276.0</ele><time>2026-05-03T13:58:06.486Z</time></trkpt><trkpt lat="44.2321804" lon="10.5961166"><ele>1275.3333333333333</ele><time>2026-05-03T13:58:07.486Z</time></trkpt><trkpt lat="44.2322278" lon="10.5961809"><ele>1274.6666666666665</ele><time>2026-05-03T13:58:08.483Z</time></trkpt><trkpt lat="44.2322916" lon="10.5962399"><ele>1274.0</ele><time>2026-05-03T13:58:09.481Z</time></trkpt><trkpt lat="44.2323542" lon="10.5963004"><ele>1273.3333333333333</ele><time>2026-05-03T13:58:10.479Z</time></trkpt><trkpt lat="44.2324164" lon="10.5963471"><ele>1272.6666666666667</ele><time>2026-05-03T13:58:11.48Z</time></trkpt><trkpt lat="44.2324797" lon="10.5964114"><ele>1272.0</ele><time>2026-05-03T13:58:12.483Z</time></trkpt><trkpt lat="44.2325559" lon="10.5964837"><ele>1272.0</ele><time>2026-05-03T13:58:13.479Z</time></trkpt><trkpt lat="44.2326382" lon="10.5965684"><ele>1272.0</ele><time>2026-05-03T13:58:14.491Z</time></trkpt><trkpt lat="44.2327204" lon="10.5966513"><ele>1272.0</ele><time>2026-05-03T13:58:15.481Z</time></trkpt><trkpt lat="44.2327895" lon="10.5967456"><ele>1272.0</ele><time>2026-05-03T13:58:16.489Z</time></trkpt><trkpt lat="44.2328445" lon="10.5968509"><ele>1272.0</ele><time>2026-05-03T13:58:17.481Z</time></trkpt><trkpt lat="44.2329085" lon="10.5969571"><ele>1271.0</ele><time>2026-05-03T13:58:18.492Z</time></trkpt><trkpt lat="44.2329721" lon="10.5970432"><ele>1270.0</ele><time>2026-05-03T13:58:19.486Z</time></trkpt><trkpt lat="44.2330303" lon="10.597136"><ele>1269.0</ele><time>2026-05-03T13:58:20.488Z</time></trkpt><trkpt lat="44.2330786" lon="10.5972207"><ele>1268.0</ele><time>2026-05-03T13:58:21.492Z</time></trkpt><trkpt lat="44.2331586" lon="10.5973112"><ele>1267.0</ele><time>2026-05-03T13:58:23.487Z</time></trkpt><trkpt lat="44.2332648" lon="10.5973254"><ele>1267.0</ele><time>2026-05-03T13:58:25.478Z</time></trkpt><trkpt lat="44.2333894" lon="10.5973057"><ele>1267.0</ele><time>2026-05-03T13:58:27.489Z</time></trkpt><trkpt lat="44.2334715" lon="10.5973185"><ele>1267.0</ele><time>2026-05-03T13:58:28.482Z</time></trkpt><trkpt lat="44.233558" lon="10.59735"><ele>1267.0</ele><time>2026-05-03T13:58:29.476Z</time></trkpt><trkpt lat="44.2336396" lon="10.5973652"><ele>1267.0</ele><time>2026-05-03T13:58:30.488Z</time></trkpt><trkpt lat="44.2337109" lon="10.597381"><ele>1267.0</ele><time>2026-05-03T13:58:31.486Z</time></trkpt><trkpt lat="44.2337775" lon="10.5973835"><ele>1267.0</ele><time>2026-05-03T13:58:32.48Z</time></trkpt><trkpt lat="44.2338414" lon="10.5974061"><ele>1267.0</ele><time>2026-05-03T13:58:33.484Z</time></trkpt><trkpt lat="44.2339134" lon="10.5975041"><ele>1267.0</ele><time>2026-05-03T13:58:35.484Z</time></trkpt><trkpt lat="44.2338951" lon="10.597695"><ele>1267.0</ele><time>2026-05-03T13:58:37.48Z</time></trkpt><trkpt lat="44.2338669" lon="10.5978111"><ele>1264.1666666666665</ele><time>2026-05-03T13:58:38.474Z</time></trkpt><trkpt lat="44.2338438" lon="10.5979358"><ele>1261.3333333333333</ele><time>2026-05-03T13:58:39.475Z</time></trkpt><trkpt lat="44.23383" lon="10.5980499"><ele>1258.5</ele><time>2026-05-03T13:58:40.477Z</time></trkpt><trkpt lat="44.2338377" lon="10.5981552"><ele>1255.6666666666667</ele><time>2026-05-03T13:58:41.488Z</time></trkpt><trkpt lat="44.2338601" lon="10.5982579"><ele>1252.8333333333335</ele><time>2026-05-03T13:58:42.483Z</time></trkpt><trkpt lat="44.2338989" lon="10.5983688"><ele>1250.0</ele><time>2026-05-03T13:58:43.487Z</time></trkpt><trkpt lat="44.233939" lon="10.5984792"><ele>1250.6666666666667</ele><time>2026-05-03T13:58:44.488Z</time></trkpt><trkpt lat="44.2339879" lon="10.5985746"><ele>1251.3333333333335</ele><time>2026-05-03T13:58:45.486Z</time></trkpt><trkpt lat="44.2340394" lon="10.5986492"><ele>1252.0</ele><time>2026-05-03T13:58:46.491Z</time></trkpt><trkpt lat="44.234096" lon="10.5987"><ele>1252.6666666666667</ele><time>2026-05-03T13:58:47.493Z</time></trkpt><trkpt lat="44.2341655" lon="10.598745"><ele>1253.3333333333333</ele><time>2026-05-03T13:58:48.491Z</time></trkpt><trkpt lat="44.2342557" lon="10.5987969"><ele>1254.0</ele><time>2026-05-03T13:58:49.496Z</time></trkpt><trkpt lat="44.2343504" lon="10.5988385"><ele>1254.0</ele><time>2026-05-03T13:58:50.493Z</time></trkpt><trkpt lat="44.2344506" lon="10.5988779"><ele>1254.0</ele><time>2026-05-03T13:58:51.492Z</time></trkpt><trkpt lat="44.2345433" lon="10.5989171"><ele>1254.0</ele><time>2026-05-03T13:58:52.497Z</time></trkpt><trkpt lat="44.2346299" lon="10.5989636"><ele>1254.0</ele><time>2026-05-03T13:58:53.497Z</time></trkpt><trkpt lat="44.2347164" lon="10.5990139"><ele>1254.0</ele><time>2026-05-03T13:58:54.496Z</time></trkpt><trkpt lat="44.2347965" lon="10.599075"><ele>1255.3333333333333</ele><time>2026-05-03T13:58:55.487Z</time></trkpt><trkpt lat="44.2348758" lon="10.5991458"><ele>1256.6666666666667</ele><time>2026-05-03T13:58:56.49Z</time></trkpt><trkpt lat="44.2349343" lon="10.599213"><ele>1258.0</ele><time>2026-05-03T13:58:57.495Z</time></trkpt><trkpt lat="44.2349798" lon="10.5992764"><ele>1259.3333333333335</ele><time>2026-05-03T13:58:58.485Z</time></trkpt><trkpt lat="44.2350137" lon="10.5994013"><ele>1260.6666666666667</ele><time>2026-05-03T13:59:00.493Z</time></trkpt><trkpt lat="44.2349919" lon="10.5995301"><ele>1262.0</ele><time>2026-05-03T13:59:02.488Z</time></trkpt><trkpt lat="44.2349153" lon="10.5996858"><ele>1262.0</ele><time>2026-05-03T13:59:04.487Z</time></trkpt><trkpt lat="44.2348702" lon="10.5997708"><ele>1262.0</ele><time>2026-05-03T13:59:05.489Z</time></trkpt><trkpt lat="44.2348389" lon="10.5998571"><ele>1262.0</ele><time>2026-05-03T13:59:06.487Z</time></trkpt><trkpt lat="44.2348161" lon="10.6000024"><ele>1262.0</ele><time>2026-05-03T13:59:08.496Z</time></trkpt><trkpt lat="44.2348727" lon="10.6001319"><ele>1262.0</ele><time>2026-05-03T13:59:10.492Z</time></trkpt><trkpt lat="44.2349638" lon="10.6002594"><ele>1260.8333333333335</ele><time>2026-05-03T13:59:12.493Z</time></trkpt><trkpt lat="44.235024" lon="10.6003361"><ele>1259.6666666666667</ele><time>2026-05-03T13:59:13.481Z</time></trkpt><trkpt lat="44.2350848" lon="10.6004261"><ele>1258.5</ele><time>2026-05-03T13:59:14.496Z</time></trkpt><trkpt lat="44.2351495" lon="10.6004949"><ele>1257.3333333333333</ele><time>2026-05-03T13:59:15.498Z</time></trkpt><trkpt lat="44.2352306" lon="10.6005439"><ele>1256.1666666666665</ele><time>2026-05-03T13:59:16.493Z</time></trkpt><trkpt lat="44.2353138" lon="10.6005692"><ele>1255.0</ele><time>2026-05-03T13:59:17.494Z</time></trkpt><trkpt lat="44.2353833" lon="10.6005979"><ele>1255.0</ele><time>2026-05-03T13:59:18.496Z</time></trkpt><trkpt lat="44.235452" lon="10.6006434"><ele>1255.0</ele><time>2026-05-03T13:59:19.491Z</time></trkpt><trkpt lat="44.2355056" lon="10.6007251"><ele>1255.0</ele><time>2026-05-03T13:59:20.495Z</time></trkpt><trkpt lat="44.2355524" lon="10.600817"><ele>1255.0</ele><time>2026-05-03T13:59:21.492Z</time></trkpt><trkpt lat="44.2355973" lon="10.6009116"><ele>1255.0</ele><time>2026-05-03T13:59:22.495Z</time></trkpt><trkpt lat="44.2356369" lon="10.6010153"><ele>1255.0</ele><time>2026-05-03T13:59:23.501Z</time></trkpt><trkpt lat="44.235681" lon="10.6011183"><ele>1259.8</ele><time>2026-05-03T13:59:24.49Z</time></trkpt><trkpt lat="44.2357256" lon="10.601206"><ele>1264.6</ele><time>2026-05-03T13:59:25.497Z</time></trkpt><trkpt lat="44.2357695" lon="10.6012899"><ele>1269.4</ele><time>2026-05-03T13:59:26.484Z</time></trkpt><trkpt lat="44.2358145" lon="10.6014323"><ele>1274.2</ele><time>2026-05-03T13:59:28.488Z</time></trkpt><trkpt lat="44.2357169" lon="10.6015915"><ele>1279.0</ele><time>2026-05-03T13:59:30.483Z</time></trkpt><trkpt lat="44.2356464" lon="10.6016999"><ele>1276.0</ele><time>2026-05-03T13:59:31.495Z</time></trkpt><trkpt lat="44.2355824" lon="10.6018071"><ele>1273.0</ele><time>2026-05-03T13:59:32.487Z</time></trkpt><trkpt lat="44.2355386" lon="10.6019136"><ele>1270.0</ele><time>2026-05-03T13:59:33.487Z</time></trkpt><trkpt lat="44.2355007" lon="10.6020122"><ele>1267.0</ele><time>2026-05-03T13:59:34.486Z</time></trkpt><trkpt lat="44.235445" lon="10.6021189"><ele>1264.0</ele><time>2026-05-03T13:59:35.47Z</time></trkpt><trkpt lat="44.2354019" lon="10.6022302"><ele>1264.0</ele><time>2026-05-03T13:59:36.477Z</time></trkpt><trkpt lat="44.235367" lon="10.6023565"><ele>1264.0</ele><time>2026-05-03T13:59:37.467Z</time></trkpt><trkpt lat="44.2353351" lon="10.6024994"><ele>1264.0</ele><time>2026-05-03T13:59:38.473Z</time></trkpt><trkpt lat="44.2353166" lon="10.602646"><ele>1264.0</ele><time>2026-05-03T13:59:39.483Z</time></trkpt><trkpt lat="44.2353066" lon="10.6027982"><ele>1264.0</ele><time>2026-05-03T13:59:40.481Z</time></trkpt><trkpt lat="44.2352885" lon="10.6029366"><ele>1264.4</ele><time>2026-05-03T13:59:41.484Z</time></trkpt><trkpt lat="44.2352759" lon="10.6030809"><ele>1264.8000000000002</ele><time>2026-05-03T13:59:42.487Z</time></trkpt><trkpt lat="44.2352733" lon="10.603221"><ele>1265.1999999999998</ele><time>2026-05-03T13:59:43.493Z</time></trkpt><trkpt lat="44.235293" lon="10.6033625"><ele>1265.6</ele><time>2026-05-03T13:59:44.5Z</time></trkpt><trkpt lat="44.2353234" lon="10.6034773"><ele>1266.0</ele><time>2026-05-03T13:59:45.497Z</time></trkpt><trkpt lat="44.235362" lon="10.603589"><ele>1266.6666666666667</ele><time>2026-05-03T13:59:46.493Z</time></trkpt><trkpt lat="44.2354051" lon="10.603702"><ele>1267.3333333333333</ele><time>2026-05-03T13:59:47.496Z</time></trkpt><trkpt lat="44.235445" lon="10.6038085"><ele>1268.0</ele><time>2026-05-03T13:59:48.498Z</time></trkpt><trkpt lat="44.2354563" lon="10.6039052"><ele>1268.6666666666665</ele><time>2026-05-03T13:59:49.505Z</time></trkpt><trkpt lat="44.2354474" lon="10.6039949"><ele>1269.3333333333333</ele><time>2026-05-03T13:59:50.494Z</time></trkpt><trkpt lat="44.2354194" lon="10.6040779"><ele>1270.0</ele><time>2026-05-03T13:59:51.499Z</time></trkpt><trkpt lat="44.2353745" lon="10.6041583"><ele>1270.0</ele><time>2026-05-03T13:59:52.496Z</time></trkpt><trkpt lat="44.2353079" lon="10.604234"><ele>1270.0</ele><time>2026-05-03T13:59:53.497Z</time></trkpt><trkpt lat="44.2352407" lon="10.6042997"><ele>1270.0</ele><time>2026-05-03T13:59:54.492Z</time></trkpt><trkpt lat="44.2351802" lon="10.6043603"><ele>1270.0</ele><time>2026-05-03T13:59:55.5Z</time></trkpt><trkpt lat="44.235121" lon="10.6044193"><ele>1270.0</ele><time>2026-05-03T13:59:56.491Z</time></trkpt><trkpt lat="44.2350862" lon="10.6045186"><ele>1270.0</ele><time>2026-05-03T13:59:57.483Z</time></trkpt><trkpt lat="44.2350609" lon="10.6046351"><ele>1270.5</ele><time>2026-05-03T13:59:58.489Z</time></trkpt><trkpt lat="44.2350462" lon="10.6047381"><ele>1271.0</ele><time>2026-05-03T13:59:59.493Z</time></trkpt><trkpt lat="44.2350298" lon="10.6048403"><ele>1271.5</ele><time>2026-05-03T14:00:00.491Z</time></trkpt><trkpt lat="44.2350205" lon="10.604934"><ele>1272.0</ele><time>2026-05-03T14:00:01.492Z</time></trkpt><trkpt lat="44.2350291" lon="10.6050798"><ele>1272.5</ele><time>2026-05-03T14:00:03.49Z</time></trkpt><trkpt lat="44.2350898" lon="10.6051723"><ele>1273.0</ele><time>2026-05-03T14:00:05.489Z</time></trkpt><trkpt lat="44.2351293" lon="10.6052497"><ele>1272.8333333333333</ele><time>2026-05-03T14:00:25.499Z</time></trkpt><trkpt lat="44.2351822" lon="10.6053624"><ele>1272.6666666666665</ele><time>2026-05-03T14:00:28.497Z</time></trkpt><trkpt lat="44.2352225" lon="10.6054343"><ele>1272.5</ele><time>2026-05-03T14:00:29.492Z</time></trkpt><trkpt lat="44.235273" lon="10.6055288"><ele>1272.3333333333333</ele><time>2026-05-03T14:00:30.495Z</time></trkpt><trkpt lat="44.2353343" lon="10.6056255"><ele>1272.1666666666667</ele><time>2026-05-03T14:00:31.495Z</time></trkpt><trkpt lat="44.235395" lon="10.6057248"><ele>1272.0</ele><time>2026-05-03T14:00:32.495Z</time></trkpt><trkpt lat="44.2354753" lon="10.6058378"><ele>1272.0</ele><time>2026-05-03T14:00:33.489Z</time></trkpt><trkpt lat="44.2355651" lon="10.6059493"><ele>1272.0</ele><time>2026-05-03T14:00:34.489Z</time></trkpt><trkpt lat="44.2356576" lon="10.6060655"><ele>1272.0</ele><time>2026-05-03T14:00:35.491Z</time></trkpt><trkpt lat="44.2357337" lon="10.6061938"><ele>1272.0</ele><time>2026-05-03T14:00:36.486Z</time></trkpt><trkpt lat="44.23578" lon="10.6063342"><ele>1274.5</ele><time>2026-05-03T14:00:37.489Z</time></trkpt><trkpt lat="44.2357997" lon="10.6064934"><ele>1277.0</ele><time>2026-05-03T14:00:38.487Z</time></trkpt><trkpt lat="44.2358099" lon="10.6066631"><ele>1279.5</ele><time>2026-05-03T14:00:39.483Z</time></trkpt><trkpt lat="44.2358405" lon="10.6068231"><ele>1282.0</ele><time>2026-05-03T14:00:40.485Z</time></trkpt><trkpt lat="44.2358797" lon="10.6069655"><ele>1282.6</ele><time>2026-05-03T14:00:41.484Z</time></trkpt><trkpt lat="44.2359292" lon="10.6071042"><ele>1283.1999999999998</ele><time>2026-05-03T14:00:42.483Z</time></trkpt><trkpt lat="44.2359726" lon="10.6072382"><ele>1283.8</ele><time>2026-05-03T14:00:43.488Z</time></trkpt><trkpt lat="44.236013" lon="10.6073623"><ele>1284.4</ele><time>2026-05-03T14:00:44.488Z</time></trkpt><trkpt lat="44.2360325" lon="10.6074801"><ele>1285.0</ele><time>2026-05-03T14:00:45.486Z</time></trkpt><trkpt lat="44.2360377" lon="10.6075928"><ele>1285.0</ele><time>2026-05-03T14:00:46.479Z</time></trkpt><trkpt lat="44.2360237" lon="10.6077137"><ele>1285.0</ele><time>2026-05-03T14:00:47.481Z</time></trkpt><trkpt lat="44.2359922" lon="10.6078395"><ele>1285.0</ele><time>2026-05-03T14:00:48.477Z</time></trkpt><trkpt lat="44.2359505" lon="10.6079684"><ele>1285.0</ele><time>2026-05-03T14:00:49.464Z</time></trkpt><trkpt lat="44.2359054" lon="10.6081058"><ele>1285.0</ele><time>2026-05-03T14:00:50.464Z</time></trkpt><trkpt lat="44.2358496" lon="10.6082144"><ele>1283.0</ele><time>2026-05-03T14:00:51.465Z</time></trkpt><trkpt lat="44.2357744" lon="10.6083124"><ele>1281.0</ele><time>2026-05-03T14:00:52.467Z</time></trkpt><trkpt lat="44.2356883" lon="10.6083901"><ele>1279.0</ele><time>2026-05-03T14:00:53.464Z</time></trkpt><trkpt lat="44.2356141" lon="10.6084772"><ele>1277.0</ele><time>2026-05-03T14:00:54.464Z</time></trkpt><trkpt lat="44.23552" lon="10.6085545"><ele>1275.0</ele><time>2026-05-03T14:00:55.476Z</time></trkpt><trkpt lat="44.2354287" lon="10.6086329"><ele>1276.6666666666667</ele><time>2026-05-03T14:00:56.479Z</time></trkpt><trkpt lat="44.2353571" lon="10.6087112"><ele>1278.3333333333333</ele><time>2026-05-03T14:00:57.473Z</time></trkpt><trkpt lat="44.2353063" lon="10.6087946"><ele>1280.0</ele><time>2026-05-03T14:00:58.478Z</time></trkpt><trkpt lat="44.2352759" lon="10.6088849"><ele>1281.6666666666665</ele><time>2026-05-03T14:00:59.473Z</time></trkpt><trkpt lat="44.2352632" lon="10.609006"><ele>1283.3333333333333</ele><time>2026-05-03T14:01:00.476Z</time></trkpt><trkpt lat="44.2352637" lon="10.6091245"><ele>1285.0</ele><time>2026-05-03T14:01:01.475Z</time></trkpt><trkpt lat="44.2352656" lon="10.6092455"><ele>1285.0</ele><time>2026-05-03T14:01:02.48Z</time></trkpt><trkpt lat="44.2352945" lon="10.6093911"><ele>1285.0</ele><time>2026-05-03T14:01:03.488Z</time></trkpt><trkpt lat="44.2353371" lon="10.609522"><ele>1285.0</ele><time>2026-05-03T14:01:04.479Z</time></trkpt><trkpt lat="44.2353875" lon="10.6096486"><ele>1285.0</ele><time>2026-05-03T14:01:05.489Z</time></trkpt><trkpt lat="44.2354394" lon="10.6097616"><ele>1285.0</ele><time>2026-05-03T14:01:06.488Z</time></trkpt><trkpt lat="44.2354998" lon="10.609896"><ele>1283.0</ele><time>2026-05-03T14:01:07.485Z</time></trkpt><trkpt lat="44.2355651" lon="10.610021"><ele>1281.0</ele><time>2026-05-03T14:01:08.481Z</time></trkpt><trkpt lat="44.2356508" lon="10.6101708"><ele>1279.0</ele><time>2026-05-03T14:01:09.48Z</time></trkpt><trkpt lat="44.2357273" lon="10.610318"><ele>1277.0</ele><time>2026-05-03T14:01:10.488Z</time></trkpt><trkpt lat="44.2357916" lon="10.6104692"><ele>1281.75</ele><time>2026-05-03T14:01:11.489Z</time></trkpt><trkpt lat="44.2358471" lon="10.6106353"><ele>1286.5</ele><time>2026-05-03T14:01:12.486Z</time></trkpt><trkpt lat="44.2358969" lon="10.610804"><ele>1291.25</ele><time>2026-05-03T14:01:13.488Z</time></trkpt><trkpt lat="44.2359442" lon="10.6109883"><ele>1296.0</ele><time>2026-05-03T14:01:14.489Z</time></trkpt><trkpt lat="44.2359892" lon="10.6111761"><ele>1296.0</ele><time>2026-05-03T14:01:15.483Z</time></trkpt><trkpt lat="44.2360234" lon="10.6113592"><ele>1296.0</ele><time>2026-05-03T14:01:16.485Z</time></trkpt><trkpt lat="44.2360368" lon="10.6115332"><ele>1296.0</ele><time>2026-05-03T14:01:17.485Z</time></trkpt><trkpt lat="44.2360337" lon="10.6117067"><ele>1296.0</ele><time>2026-05-03T14:01:18.479Z</time></trkpt><trkpt lat="44.2360305" lon="10.6118566"><ele>1294.6</ele><time>2026-05-03T14:01:19.488Z</time></trkpt><trkpt lat="44.236044" lon="10.6119919"><ele>1293.1999999999998</ele><time>2026-05-03T14:01:20.488Z</time></trkpt><trkpt lat="44.2360731" lon="10.6121072"><ele>1291.8000000000002</ele><time>2026-05-03T14:01:21.487Z</time></trkpt><trkpt lat="44.2361166" lon="10.6122128"><ele>1290.4</ele><time>2026-05-03T14:01:22.484Z</time></trkpt><trkpt lat="44.2361772" lon="10.6123099"><ele>1289.0</ele><time>2026-05-03T14:01:23.491Z</time></trkpt><trkpt lat="44.2362595" lon="10.6123782"><ele>1289.0</ele><time>2026-05-03T14:01:24.488Z</time></trkpt><trkpt lat="44.2363372" lon="10.6124564"><ele>1289.0</ele><time>2026-05-03T14:01:25.478Z</time></trkpt><trkpt lat="44.2364202" lon="10.6125156"><ele>1289.0</ele><time>2026-05-03T14:01:26.485Z</time></trkpt><trkpt lat="44.2365055" lon="10.6125521"><ele>1289.0</ele><time>2026-05-03T14:01:27.485Z</time></trkpt><trkpt lat="44.236596" lon="10.6125572"><ele>1289.0</ele><time>2026-05-03T14:01:28.478Z</time></trkpt><trkpt lat="44.2366929" lon="10.6125472"><ele>1289.0</ele><time>2026-05-03T14:01:29.484Z</time></trkpt><trkpt lat="44.2367996" lon="10.6125638"><ele>1289.0</ele><time>2026-05-03T14:01:30.481Z</time></trkpt><trkpt lat="44.2368958" lon="10.6126093"><ele>1289.0</ele><time>2026-05-03T14:01:31.484Z</time></trkpt><trkpt lat="44.236987" lon="10.6126911"><ele>1289.0</ele><time>2026-05-03T14:01:32.473Z</time></trkpt><trkpt lat="44.2370795" lon="10.6127915"><ele>1289.0</ele><time>2026-05-03T14:01:33.476Z</time></trkpt><trkpt lat="44.2371693" lon="10.6128808"><ele>1289.0</ele><time>2026-05-03T14:01:34.473Z</time></trkpt><trkpt lat="44.2372693" lon="10.6129662"><ele>1289.0</ele><time>2026-05-03T14:01:35.476Z</time></trkpt><trkpt lat="44.2373694" lon="10.6130379"><ele>1289.0</ele><time>2026-05-03T14:01:36.48Z</time></trkpt><trkpt lat="44.2374725" lon="10.6130991"><ele>1289.0</ele><time>2026-05-03T14:01:37.473Z</time></trkpt><trkpt lat="44.2375814" lon="10.6131426"><ele>1291.6</ele><time>2026-05-03T14:01:38.481Z</time></trkpt><trkpt lat="44.2376908" lon="10.6131721"><ele>1294.2</ele><time>2026-05-03T14:01:39.479Z</time></trkpt><trkpt lat="44.2377943" lon="10.613187"><ele>1296.8</ele><time>2026-05-03T14:01:40.472Z</time></trkpt><trkpt lat="44.2378949" lon="10.6132069"><ele>1299.3999999999999</ele><time>2026-05-03T14:01:41.477Z</time></trkpt><trkpt lat="44.2380002" lon="10.6132325"><ele>1302.0</ele><time>2026-05-03T14:01:42.478Z</time></trkpt><trkpt lat="44.2381075" lon="10.6132804"><ele>1303.5</ele><time>2026-05-03T14:01:43.472Z</time></trkpt><trkpt lat="44.2382286" lon="10.6133314"><ele>1305.0</ele><time>2026-05-03T14:01:44.474Z</time></trkpt><trkpt lat="44.2383484" lon="10.6133889"><ele>1306.5</ele><time>2026-05-03T14:01:45.478Z</time></trkpt><trkpt lat="44.2384559" lon="10.6134428"><ele>1308.0</ele><time>2026-05-03T14:01:46.475Z</time></trkpt><trkpt lat="44.238567" lon="10.6135242"><ele>1308.0</ele><time>2026-05-03T14:01:47.47Z</time></trkpt><trkpt lat="44.2386622" lon="10.6136058"><ele>1308.0</ele><time>2026-05-03T14:01:48.48Z</time></trkpt><trkpt lat="44.2387576" lon="10.6136977"><ele>1308.0</ele><time>2026-05-03T14:01:49.482Z</time></trkpt><trkpt lat="44.2388626" lon="10.6137849"><ele>1308.0</ele><time>2026-05-03T14:01:50.48Z</time></trkpt><trkpt lat="44.2389601" lon="10.6138602"><ele>1305.6666666666667</ele><time>2026-05-03T14:01:51.479Z</time></trkpt><trkpt lat="44.2390469" lon="10.6139294"><ele>1303.3333333333333</ele><time>2026-05-03T14:01:52.483Z</time></trkpt><trkpt lat="44.2391293" lon="10.6139811"><ele>1301.0</ele><time>2026-05-03T14:01:53.477Z</time></trkpt><trkpt lat="44.2392057" lon="10.6140156"><ele>1298.6666666666665</ele><time>2026-05-03T14:01:54.473Z</time></trkpt><trkpt lat="44.2392866" lon="10.6140417"><ele>1296.3333333333333</ele><time>2026-05-03T14:01:55.476Z</time></trkpt><trkpt lat="44.2393779" lon="10.6140562"><ele>1294.0</ele><time>2026-05-03T14:01:56.479Z</time></trkpt><trkpt lat="44.2394731" lon="10.6140666"><ele>1294.0</ele><time>2026-05-03T14:01:57.483Z</time></trkpt><trkpt lat="44.2395672" lon="10.6140827"><ele>1294.0</ele><time>2026-05-03T14:01:58.479Z</time></trkpt><trkpt lat="44.2396645" lon="10.6141032"><ele>1294.0</ele><time>2026-05-03T14:01:59.475Z</time></trkpt><trkpt lat="44.239769" lon="10.6141175"><ele>1294.0</ele><time>2026-05-03T14:02:00.482Z</time></trkpt><trkpt lat="44.239876" lon="10.6141233"><ele>1294.0</ele><time>2026-05-03T14:02:01.479Z</time></trkpt><trkpt lat="44.2399754" lon="10.614114"><ele>1293.2</ele><time>2026-05-03T14:02:02.48Z</time></trkpt><trkpt lat="44.24007" lon="10.6140878"><ele>1292.4</ele><time>2026-05-03T14:02:03.473Z</time></trkpt><trkpt lat="44.2401495" lon="10.6140328"><ele>1291.6</ele><time>2026-05-03T14:02:04.47Z</time></trkpt><trkpt lat="44.2402391" lon="10.61398"><ele>1290.8</ele><time>2026-05-03T14:02:05.473Z</time></trkpt><trkpt lat="44.2403311" lon="10.6139319"><ele>1290.0</ele><time>2026-05-03T14:02:06.471Z</time></trkpt><trkpt lat="44.2404215" lon="10.6138986"><ele>1290.0</ele><time>2026-05-03T14:02:07.471Z</time></trkpt><trkpt lat="44.2404968" lon="10.6138822"><ele>1290.0</ele><time>2026-05-03T14:02:08.478Z</time></trkpt><trkpt lat="44.2405806" lon="10.6138793"><ele>1290.0</ele><time>2026-05-03T14:02:09.486Z</time></trkpt><trkpt lat="44.2406769" lon="10.6138939"><ele>1290.0</ele><time>2026-05-03T14:02:10.484Z</time></trkpt><trkpt lat="44.2407716" lon="10.6139315"><ele>1290.0</ele><time>2026-05-03T14:02:11.482Z</time></trkpt><trkpt lat="44.2408747" lon="10.6139637"><ele>1288.5</ele><time>2026-05-03T14:02:12.479Z</time></trkpt><trkpt lat="44.2409733" lon="10.614006"><ele>1287.0</ele><time>2026-05-03T14:02:13.479Z</time></trkpt><trkpt lat="44.2410765" lon="10.6140714"><ele>1285.5</ele><time>2026-05-03T14:02:14.479Z</time></trkpt><trkpt lat="44.2411755" lon="10.6141545"><ele>1284.0</ele><time>2026-05-03T14:02:15.477Z</time></trkpt><trkpt lat="44.2412846" lon="10.6142429"><ele>1284.0</ele><time>2026-05-03T14:02:16.475Z</time></trkpt><trkpt lat="44.2413887" lon="10.6143353"><ele>1284.0</ele><time>2026-05-03T14:02:17.478Z</time></trkpt><trkpt lat="44.2414955" lon="10.6144388"><ele>1284.0</ele><time>2026-05-03T14:02:18.481Z</time></trkpt><trkpt lat="44.241607" lon="10.6145557"><ele>1284.0</ele><time>2026-05-03T14:02:19.486Z</time></trkpt><trkpt lat="44.2417037" lon="10.6146754"><ele>1283.4</ele><time>2026-05-03T14:02:20.48Z</time></trkpt><trkpt lat="44.2417885" lon="10.6147762"><ele>1282.8000000000002</ele><time>2026-05-03T14:02:21.475Z</time></trkpt><trkpt lat="44.2418639" lon="10.614883"><ele>1282.1999999999998</ele><time>2026-05-03T14:02:22.483Z</time></trkpt><trkpt lat="44.2419337" lon="10.6150102"><ele>1281.6</ele><time>2026-05-03T14:02:23.479Z</time></trkpt><trkpt lat="44.2419877" lon="10.6151489"><ele>1281.0</ele><time>2026-05-03T14:02:24.472Z</time></trkpt><trkpt lat="44.2420362" lon="10.6152707"><ele>1281.8</ele><time>2026-05-03T14:02:25.482Z</time></trkpt><trkpt lat="44.2420892" lon="10.6153653"><ele>1282.6</ele><time>2026-05-03T14:02:26.473Z</time></trkpt><trkpt lat="44.2421559" lon="10.6154366"><ele>1283.4</ele><time>2026-05-03T14:02:27.479Z</time></trkpt><trkpt lat="44.2422362" lon="10.6155151"><ele>1284.2</ele><time>2026-05-03T14:02:28.475Z</time></trkpt><trkpt lat="44.2423191" lon="10.6155997"><ele>1285.0</ele><time>2026-05-03T14:02:29.469Z</time></trkpt><trkpt lat="44.2424238" lon="10.6157006"><ele>1285.75</ele><time>2026-05-03T14:02:30.473Z</time></trkpt><trkpt lat="44.2425438" lon="10.615783"><ele>1286.5</ele><time>2026-05-03T14:02:31.475Z</time></trkpt><trkpt lat="44.2426733" lon="10.6158523"><ele>1287.25</ele><time>2026-05-03T14:02:32.481Z</time></trkpt><trkpt lat="44.2427971" lon="10.6159307"><ele>1288.0</ele><time>2026-05-03T14:02:33.481Z</time></trkpt><trkpt lat="44.2429067" lon="10.6160193"><ele>1288.0</ele><time>2026-05-03T14:02:34.481Z</time></trkpt><trkpt lat="44.2430068" lon="10.6161199"><ele>1288.0</ele><time>2026-05-03T14:02:35.479Z</time></trkpt><trkpt lat="44.2430747" lon="10.6162318"><ele>1288.0</ele><time>2026-05-03T14:02:36.48Z</time></trkpt><trkpt lat="44.2431269" lon="10.6163443"><ele>1288.0</ele><time>2026-05-03T14:02:37.472Z</time></trkpt><trkpt lat="44.2431777" lon="10.6164805"><ele>1288.0</ele><time>2026-05-03T14:02:38.48Z</time></trkpt><trkpt lat="44.2432297" lon="10.6166254"><ele>1288.3333333333333</ele><time>2026-05-03T14:02:39.48Z</time></trkpt><trkpt lat="44.2432696" lon="10.6167414"><ele>1288.6666666666665</ele><time>2026-05-03T14:02:40.485Z</time></trkpt><trkpt lat="44.2433252" lon="10.6168167"><ele>1289.0</ele><time>2026-05-03T14:02:41.48Z</time></trkpt><trkpt lat="44.2433951" lon="10.6168661"><ele>1289.3333333333333</ele><time>2026-05-03T14:02:42.477Z</time></trkpt><trkpt lat="44.2434805" lon="10.6169061"><ele>1289.6666666666667</ele><time>2026-05-03T14:02:43.479Z</time></trkpt><trkpt lat="44.2435594" lon="10.6169235"><ele>1290.0</ele><time>2026-05-03T14:02:44.478Z</time></trkpt><trkpt lat="44.2436515" lon="10.6169168"><ele>1290.0</ele><time>2026-05-03T14:02:45.478Z</time></trkpt><trkpt lat="44.2437552" lon="10.6169078"><ele>1290.0</ele><time>2026-05-03T14:02:46.476Z</time></trkpt><trkpt lat="44.2438511" lon="10.6168926"><ele>1290.0</ele><time>2026-05-03T14:02:47.477Z</time></trkpt><trkpt lat="44.2439482" lon="10.6168695"><ele>1290.0</ele><time>2026-05-03T14:02:48.474Z</time></trkpt><trkpt lat="44.2440349" lon="10.616843"><ele>1290.0</ele><time>2026-05-03T14:02:49.48Z</time></trkpt><trkpt lat="44.2441093" lon="10.616844"><ele>1290.1666666666667</ele><time>2026-05-03T14:02:50.475Z</time></trkpt><trkpt lat="44.2441809" lon="10.6168581"><ele>1290.3333333333333</ele><time>2026-05-03T14:02:51.483Z</time></trkpt><trkpt lat="44.2442536" lon="10.6168918"><ele>1290.5</ele><time>2026-05-03T14:02:52.482Z</time></trkpt><trkpt lat="44.2443276" lon="10.6169619"><ele>1290.6666666666665</ele><time>2026-05-03T14:02:53.489Z</time></trkpt><trkpt lat="44.2443841" lon="10.6170698"><ele>1290.8333333333333</ele><time>2026-05-03T14:02:54.484Z</time></trkpt><trkpt lat="44.2444444" lon="10.6172005"><ele>1291.0</ele><time>2026-05-03T14:02:55.479Z</time></trkpt><trkpt lat="44.2445008" lon="10.6173143"><ele>1291.0</ele><time>2026-05-03T14:02:56.481Z</time></trkpt><trkpt lat="44.2445601" lon="10.6174218"><ele>1291.0</ele><time>2026-05-03T14:02:57.494Z</time></trkpt><trkpt lat="44.2446086" lon="10.6175339"><ele>1291.0</ele><time>2026-05-03T14:02:58.485Z</time></trkpt><trkpt lat="44.2446606" lon="10.6176403"><ele>1291.0</ele><time>2026-05-03T14:02:59.484Z</time></trkpt><trkpt lat="44.2446933" lon="10.617759"><ele>1291.0</ele><time>2026-05-03T14:03:00.481Z</time></trkpt><trkpt lat="44.2447229" lon="10.6178936"><ele>1290.5</ele><time>2026-05-03T14:03:01.476Z</time></trkpt><trkpt lat="44.2447406" lon="10.6180226"><ele>1290.0</ele><time>2026-05-03T14:03:02.484Z</time></trkpt><trkpt lat="44.2447579" lon="10.6181523"><ele>1289.5</ele><time>2026-05-03T14:03:03.48Z</time></trkpt><trkpt lat="44.24478" lon="10.6182728"><ele>1289.0</ele><time>2026-05-03T14:03:04.484Z</time></trkpt><trkpt lat="44.2447943" lon="10.6183873"><ele>1288.5</ele><time>2026-05-03T14:03:05.491Z</time></trkpt><trkpt lat="44.2448328" lon="10.6184964"><ele>1288.0</ele><time>2026-05-03T14:03:06.484Z</time></trkpt><trkpt lat="44.2448904" lon="10.6186016"><ele>1290.0</ele><time>2026-05-03T14:03:07.481Z</time></trkpt><trkpt lat="44.2449576" lon="10.6186958"><ele>1292.0</ele><time>2026-05-03T14:03:08.489Z</time></trkpt><trkpt lat="44.2450448" lon="10.6187772"><ele>1294.0</ele><time>2026-05-03T14:03:09.489Z</time></trkpt><trkpt lat="44.2451417" lon="10.6188788"><ele>1296.0</ele><time>2026-05-03T14:03:10.487Z</time></trkpt><trkpt lat="44.2452371" lon="10.6189844"><ele>1298.0</ele><time>2026-05-03T14:03:11.486Z</time></trkpt><trkpt lat="44.2453276" lon="10.6190596"><ele>1298.0</ele><time>2026-05-03T14:03:12.482Z</time></trkpt><trkpt lat="44.2454121" lon="10.6191293"><ele>1298.0</ele><time>2026-05-03T14:03:13.472Z</time></trkpt><trkpt lat="44.24549" lon="10.6191813"><ele>1298.0</ele><time>2026-05-03T14:03:14.488Z</time></trkpt><trkpt lat="44.2455596" lon="10.619199"><ele>1298.0</ele><time>2026-05-03T14:03:15.481Z</time></trkpt><trkpt lat="44.2456377" lon="10.619203"><ele>1298.0</ele><time>2026-05-03T14:03:16.484Z</time></trkpt><trkpt lat="44.2457227" lon="10.6192015"><ele>1298.0</ele><time>2026-05-03T14:03:17.481Z</time></trkpt><trkpt lat="44.2458208" lon="10.6191906"><ele>1300.0</ele><time>2026-05-03T14:03:18.485Z</time></trkpt><trkpt lat="44.2459306" lon="10.6191624"><ele>1302.0</ele><time>2026-05-03T14:03:19.478Z</time></trkpt><trkpt lat="44.2460444" lon="10.6191349"><ele>1304.0</ele><time>2026-05-03T14:03:20.484Z</time></trkpt><trkpt lat="44.2461567" lon="10.6190983"><ele>1306.0</ele><time>2026-05-03T14:03:21.486Z</time></trkpt><trkpt lat="44.2462602" lon="10.6190477"><ele>1306.0</ele><time>2026-05-03T14:03:22.487Z</time></trkpt><trkpt lat="44.2463592" lon="10.6189763"><ele>1306.0</ele><time>2026-05-03T14:03:23.483Z</time></trkpt><trkpt lat="44.24645" lon="10.6188934"><ele>1306.0</ele><time>2026-05-03T14:03:24.484Z</time></trkpt><trkpt lat="44.2465442" lon="10.6187805"><ele>1306.0</ele><time>2026-05-03T14:03:25.49Z</time></trkpt><trkpt lat="44.246639" lon="10.618654"><ele>1305.5</ele><time>2026-05-03T14:03:26.48Z</time></trkpt><trkpt lat="44.2467364" lon="10.6185296"><ele>1305.0</ele><time>2026-05-03T14:03:27.481Z</time></trkpt><trkpt lat="44.2468438" lon="10.6184097"><ele>1304.5</ele><time>2026-05-03T14:03:28.484Z</time></trkpt><trkpt lat="44.2469514" lon="10.6183071"><ele>1304.0</ele><time>2026-05-03T14:03:29.493Z</time></trkpt><trkpt lat="44.2470572" lon="10.6182181"><ele>1304.0</ele><time>2026-05-03T14:03:30.489Z</time></trkpt><trkpt lat="44.2471577" lon="10.6181488"><ele>1304.0</ele><time>2026-05-03T14:03:31.482Z</time></trkpt><trkpt lat="44.2472528" lon="10.6180789"><ele>1304.0</ele><time>2026-05-03T14:03:32.487Z</time></trkpt><trkpt lat="44.2473348" lon="10.618004"><ele>1304.0</ele><time>2026-05-03T14:03:33.49Z</time></trkpt><trkpt lat="44.2473989" lon="10.6179154"><ele>1304.0</ele><time>2026-05-03T14:03:34.478Z</time></trkpt><trkpt lat="44.247468" lon="10.617809"><ele>1304.0</ele><time>2026-05-03T14:03:35.479Z</time></trkpt><trkpt lat="44.2475262" lon="10.617705"><ele>1304.0</ele><time>2026-05-03T14:03:36.476Z</time></trkpt><trkpt lat="44.247591" lon="10.6175823"><ele>1304.0</ele><time>2026-05-03T14:03:37.47Z</time></trkpt><trkpt lat="44.2476634" lon="10.6174579"><ele>1304.0</ele><time>2026-05-03T14:03:38.477Z</time></trkpt><trkpt lat="44.2477563" lon="10.6173464"><ele>1304.0</ele><time>2026-05-03T14:03:39.474Z</time></trkpt><trkpt lat="44.2478552" lon="10.6172552"><ele>1304.0</ele><time>2026-05-03T14:03:40.476Z</time></trkpt><trkpt lat="44.2479532" lon="10.6171781"><ele>1304.0</ele><time>2026-05-03T14:03:41.483Z</time></trkpt><trkpt lat="44.2480597" lon="10.6171228"><ele>1304.0</ele><time>2026-05-03T14:03:42.479Z</time></trkpt><trkpt lat="44.2481711" lon="10.6171103"><ele>1304.0</ele><time>2026-05-03T14:03:43.474Z</time></trkpt><trkpt lat="44.2482987" lon="10.6171083"><ele>1297.25</ele><time>2026-05-03T14:03:44.484Z</time></trkpt><trkpt lat="44.248432" lon="10.6171221"><ele>1290.5</ele><time>2026-05-03T14:03:45.476Z</time></trkpt><trkpt lat="44.2485702" lon="10.6171458"><ele>1283.75</ele><time>2026-05-03T14:03:46.48Z</time></trkpt><trkpt lat="44.2487135" lon="10.6171649"><ele>1277.0</ele><time>2026-05-03T14:03:47.487Z</time></trkpt><trkpt lat="44.2488483" lon="10.6171795"><ele>1276.0</ele><time>2026-05-03T14:03:48.489Z</time></trkpt><trkpt lat="44.248979" lon="10.617193"><ele>1275.0</ele><time>2026-05-03T14:03:49.486Z</time></trkpt><trkpt lat="44.2491011" lon="10.6171937"><ele>1274.0</ele><time>2026-05-03T14:03:50.485Z</time></trkpt><trkpt lat="44.2492081" lon="10.6171811"><ele>1273.0</ele><time>2026-05-03T14:03:51.483Z</time></trkpt><trkpt lat="44.2493157" lon="10.6171475"><ele>1273.0</ele><time>2026-05-03T14:03:52.493Z</time></trkpt><trkpt lat="44.2494113" lon="10.6170926"><ele>1273.0</ele><time>2026-05-03T14:03:53.488Z</time></trkpt><trkpt lat="44.2495087" lon="10.6170388"><ele>1273.0</ele><time>2026-05-03T14:03:54.483Z</time></trkpt><trkpt lat="44.2496217" lon="10.6169911"><ele>1273.0</ele><time>2026-05-03T14:03:55.486Z</time></trkpt><trkpt lat="44.2497342" lon="10.6169257"><ele>1273.0</ele><time>2026-05-03T14:03:56.479Z</time></trkpt><trkpt lat="44.2498493" lon="10.616857"><ele>1272.75</ele><time>2026-05-03T14:03:57.481Z</time></trkpt><trkpt lat="44.24997" lon="10.6167774"><ele>1272.5</ele><time>2026-05-03T14:03:58.479Z</time></trkpt><trkpt lat="44.2500908" lon="10.6166829"><ele>1272.25</ele><time>2026-05-03T14:03:59.48Z</time></trkpt><trkpt lat="44.2502184" lon="10.6165955"><ele>1272.0</ele><time>2026-05-03T14:04:00.484Z</time></trkpt><trkpt lat="44.2503573" lon="10.6165268"><ele>1272.0</ele><time>2026-05-03T14:04:01.489Z</time></trkpt><trkpt lat="44.2504888" lon="10.6164644"><ele>1272.0</ele><time>2026-05-03T14:04:02.48Z</time></trkpt><trkpt lat="44.2506174" lon="10.6164154"><ele>1272.0</ele><time>2026-05-03T14:04:03.49Z</time></trkpt><trkpt lat="44.2507284" lon="10.6163895"><ele>1272.0</ele><time>2026-05-03T14:04:04.483Z</time></trkpt><trkpt lat="44.2508369" lon="10.6163749"><ele>1270.4</ele><time>2026-05-03T14:04:05.478Z</time></trkpt><trkpt lat="44.2509396" lon="10.6163823"><ele>1268.8000000000002</ele><time>2026-05-03T14:04:06.486Z</time></trkpt><trkpt lat="44.2510151" lon="10.6164429"><ele>1267.2</ele><time>2026-05-03T14:04:07.492Z</time></trkpt><trkpt lat="44.2510898" lon="10.6165293"><ele>1265.6000000000001</ele><time>2026-05-03T14:04:08.479Z</time></trkpt><trkpt lat="44.2511521" lon="10.6166195"><ele>1264.0</ele><time>2026-05-03T14:04:09.473Z</time></trkpt><trkpt lat="44.2512338" lon="10.6166993"><ele>1264.0</ele><time>2026-05-03T14:04:10.481Z</time></trkpt><trkpt lat="44.2513306" lon="10.6167793"><ele>1264.0</ele><time>2026-05-03T14:04:11.479Z</time></trkpt><trkpt lat="44.2514282" lon="10.6168241"><ele>1264.0</ele><time>2026-05-03T14:04:12.487Z</time></trkpt><trkpt lat="44.2515267" lon="10.6168209"><ele>1264.0</ele><time>2026-05-03T14:04:13.491Z</time></trkpt><trkpt lat="44.2516256" lon="10.6167777"><ele>1264.0</ele><time>2026-05-03T14:04:14.478Z</time></trkpt><trkpt lat="44.2517068" lon="10.6167382"><ele>1263.8333333333333</ele><time>2026-05-03T14:04:15.478Z</time></trkpt><trkpt lat="44.2517767" lon="10.6167157"><ele>1263.6666666666665</ele><time>2026-05-03T14:04:16.483Z</time></trkpt><trkpt lat="44.2518568" lon="10.6167144"><ele>1263.5</ele><time>2026-05-03T14:04:17.492Z</time></trkpt><trkpt lat="44.2519441" lon="10.6167561"><ele>1263.3333333333333</ele><time>2026-05-03T14:04:18.484Z</time></trkpt><trkpt lat="44.2520317" lon="10.6168208"><ele>1263.1666666666667</ele><time>2026-05-03T14:04:19.483Z</time></trkpt><trkpt lat="44.2521265" lon="10.6168644"><ele>1263.0</ele><time>2026-05-03T14:04:20.48Z</time></trkpt><trkpt lat="44.2522265" lon="10.6168771"><ele>1262.8</ele><time>2026-05-03T14:04:21.488Z</time></trkpt><trkpt lat="44.2523271" lon="10.6168804"><ele>1262.6</ele><time>2026-05-03T14:04:22.486Z</time></trkpt><trkpt lat="44.2524275" lon="10.6168234"><ele>1262.4</ele><time>2026-05-03T14:04:23.481Z</time></trkpt><trkpt lat="44.2525363" lon="10.6167572"><ele>1262.2</ele><time>2026-05-03T14:04:24.488Z</time></trkpt><trkpt lat="44.2526436" lon="10.6167144"><ele>1262.0</ele><time>2026-05-03T14:04:25.485Z</time></trkpt><trkpt lat="44.2527541" lon="10.6166632"><ele>1262.0</ele><time>2026-05-03T14:04:26.481Z</time></trkpt><trkpt lat="44.2528575" lon="10.6166178"><ele>1262.0</ele><time>2026-05-03T14:04:27.478Z</time></trkpt><trkpt lat="44.2529649" lon="10.6165801"><ele>1262.0</ele><time>2026-05-03T14:04:28.476Z</time></trkpt><trkpt lat="44.2530663" lon="10.6165359"><ele>1262.0</ele><time>2026-05-03T14:04:29.478Z</time></trkpt><trkpt lat="44.2531687" lon="10.6164935"><ele>1262.0</ele><time>2026-05-03T14:04:30.483Z</time></trkpt><trkpt lat="44.2532632" lon="10.6164691"><ele>1262.8</ele><time>2026-05-03T14:04:31.485Z</time></trkpt><trkpt lat="44.253358" lon="10.616466"><ele>1263.6</ele><time>2026-05-03T14:04:32.488Z</time></trkpt><trkpt lat="44.2534652" lon="10.6164845"><ele>1264.3999999999999</ele><time>2026-05-03T14:04:33.485Z</time></trkpt><trkpt lat="44.2535741" lon="10.6165231"><ele>1265.2</ele><time>2026-05-03T14:04:34.487Z</time></trkpt><trkpt lat="44.2536775" lon="10.6165722"><ele>1266.0</ele><time>2026-05-03T14:04:35.485Z</time></trkpt><trkpt lat="44.2537806" lon="10.6166322"><ele>1266.0</ele><time>2026-05-03T14:04:36.488Z</time></trkpt><trkpt lat="44.2538903" lon="10.6166791"><ele>1266.0</ele><time>2026-05-03T14:04:37.484Z</time></trkpt><trkpt lat="44.2539883" lon="10.6167387"><ele>1266.0</ele><time>2026-05-03T14:04:38.478Z</time></trkpt><trkpt lat="44.254081" lon="10.6167872"><ele>1266.0</ele><time>2026-05-03T14:04:39.476Z</time></trkpt><trkpt lat="44.2541697" lon="10.616795"><ele>1266.0</ele><time>2026-05-03T14:04:40.481Z</time></trkpt><trkpt lat="44.2542528" lon="10.6167764"><ele>1266.0</ele><time>2026-05-03T14:04:41.478Z</time></trkpt><trkpt lat="44.2543386" lon="10.6167374"><ele>1266.0</ele><time>2026-05-03T14:04:42.479Z</time></trkpt><trkpt lat="44.2544416" lon="10.6166857"><ele>1266.0</ele><time>2026-05-03T14:04:43.473Z</time></trkpt><trkpt lat="44.2545526" lon="10.6166368"><ele>1266.0</ele><time>2026-05-03T14:04:44.476Z</time></trkpt><trkpt lat="44.2546744" lon="10.616589"><ele>1266.0</ele><time>2026-05-03T14:04:45.477Z</time></trkpt><trkpt lat="44.2547985" lon="10.6165288"><ele>1266.0</ele><time>2026-05-03T14:04:46.481Z</time></trkpt><trkpt lat="44.2549138" lon="10.6164633"><ele>1266.0</ele><time>2026-05-03T14:04:47.474Z</time></trkpt><trkpt lat="44.2550243" lon="10.6163979"><ele>1266.0</ele><time>2026-05-03T14:04:48.477Z</time></trkpt><trkpt lat="44.2551277" lon="10.616331"><ele>1266.0</ele><time>2026-05-03T14:04:49.481Z</time></trkpt><trkpt lat="44.2552312" lon="10.6162706"><ele>1266.0</ele><time>2026-05-03T14:04:50.472Z</time></trkpt><trkpt lat="44.2553533" lon="10.6162244"><ele>1266.0</ele><time>2026-05-03T14:04:51.479Z</time></trkpt><trkpt lat="44.2554778" lon="10.6161971"><ele>1266.0</ele><time>2026-05-03T14:04:52.48Z</time></trkpt><trkpt lat="44.255604" lon="10.616194"><ele>1266.0</ele><time>2026-05-03T14:04:53.484Z</time></trkpt><trkpt lat="44.255734" lon="10.6162199"><ele>1264.75</ele><time>2026-05-03T14:04:54.487Z</time></trkpt><trkpt lat="44.2558698" lon="10.616265"><ele>1263.5</ele><time>2026-05-03T14:04:55.484Z</time></trkpt><trkpt lat="44.255996" lon="10.6163161"><ele>1262.25</ele><time>2026-05-03T14:04:56.477Z</time></trkpt><trkpt lat="44.2561292" lon="10.6163302"><ele>1261.0</ele><time>2026-05-03T14:04:57.482Z</time></trkpt><trkpt lat="44.2562519" lon="10.616335"><ele>1261.0</ele><time>2026-05-03T14:04:58.477Z</time></trkpt><trkpt lat="44.2563656" lon="10.6163442"><ele>1261.0</ele><time>2026-05-03T14:04:59.477Z</time></trkpt><trkpt lat="44.2564701" lon="10.6163607"><ele>1261.0</ele><time>2026-05-03T14:05:00.486Z</time></trkpt><trkpt lat="44.2565681" lon="10.6163998"><ele>1261.0</ele><time>2026-05-03T14:05:01.485Z</time></trkpt><trkpt lat="44.2566436" lon="10.6164716"><ele>1261.0</ele><time>2026-05-03T14:05:02.477Z</time></trkpt><trkpt lat="44.2567121" lon="10.6165582"><ele>1260.2</ele><time>2026-05-03T14:05:03.484Z</time></trkpt><trkpt lat="44.2567601" lon="10.6166729"><ele>1259.3999999999999</ele><time>2026-05-03T14:05:04.485Z</time></trkpt><trkpt lat="44.2567715" lon="10.6168206"><ele>1258.6</ele><time>2026-05-03T14:05:05.476Z</time></trkpt><trkpt lat="44.2567839" lon="10.6169762"><ele>1257.8</ele><time>2026-05-03T14:05:06.479Z</time></trkpt><trkpt lat="44.2567898" lon="10.617123"><ele>1257.0</ele><time>2026-05-03T14:05:07.48Z</time></trkpt><trkpt lat="44.2567987" lon="10.6172813"><ele>1257.0</ele><time>2026-05-03T14:05:08.481Z</time></trkpt><trkpt lat="44.2568243" lon="10.6174125"><ele>1257.0</ele><time>2026-05-03T14:05:09.478Z</time></trkpt><trkpt lat="44.2568699" lon="10.617521"><ele>1257.0</ele><time>2026-05-03T14:05:10.482Z</time></trkpt><trkpt lat="44.2569376" lon="10.6176068"><ele>1257.0</ele><time>2026-05-03T14:05:11.48Z</time></trkpt><trkpt lat="44.2570228" lon="10.6176632"><ele>1257.0</ele><time>2026-05-03T14:05:12.477Z</time></trkpt><trkpt lat="44.2571165" lon="10.6176884"><ele>1257.0</ele><time>2026-05-03T14:05:13.485Z</time></trkpt><trkpt lat="44.2572129" lon="10.6176897"><ele>1257.0</ele><time>2026-05-03T14:05:14.478Z</time></trkpt><trkpt lat="44.2573116" lon="10.6176994"><ele>1257.0</ele><time>2026-05-03T14:05:15.477Z</time></trkpt><trkpt lat="44.2574136" lon="10.6177296"><ele>1257.0</ele><time>2026-05-03T14:05:16.478Z</time></trkpt><trkpt lat="44.2575208" lon="10.6177838"><ele>1257.0</ele><time>2026-05-03T14:05:17.48Z</time></trkpt><trkpt lat="44.2576302" lon="10.6178568"><ele>1255.75</ele><time>2026-05-03T14:05:18.479Z</time></trkpt><trkpt lat="44.2577418" lon="10.6179242"><ele>1254.5</ele><time>2026-05-03T14:05:19.482Z</time></trkpt><trkpt lat="44.2578546" lon="10.6179678"><ele>1253.25</ele><time>2026-05-03T14:05:20.484Z</time></trkpt><trkpt lat="44.2579789" lon="10.6180067"><ele>1252.0</ele><time>2026-05-03T14:05:21.476Z</time></trkpt><trkpt lat="44.2581003" lon="10.6180435"><ele>1253.25</ele><time>2026-05-03T14:05:22.479Z</time></trkpt><trkpt lat="44.2582213" lon="10.6180736"><ele>1254.5</ele><time>2026-05-03T14:05:23.481Z</time></trkpt><trkpt lat="44.2583445" lon="10.6180943"><ele>1255.75</ele><time>2026-05-03T14:05:24.481Z</time></trkpt><trkpt lat="44.2584662" lon="10.6181309"><ele>1257.0</ele><time>2026-05-03T14:05:25.482Z</time></trkpt><trkpt lat="44.2585819" lon="10.6181705"><ele>1257.0</ele><time>2026-05-03T14:05:26.477Z</time></trkpt><trkpt lat="44.2587002" lon="10.6182032"><ele>1257.0</ele><time>2026-05-03T14:05:27.488Z</time></trkpt><trkpt lat="44.2588131" lon="10.6182535"><ele>1257.0</ele><time>2026-05-03T14:05:28.475Z</time></trkpt><trkpt lat="44.2589069" lon="10.6183381"><ele>1257.0</ele><time>2026-05-03T14:05:29.487Z</time></trkpt><trkpt lat="44.2589874" lon="10.6184641"><ele>1258.75</ele><time>2026-05-03T14:05:30.483Z</time></trkpt><trkpt lat="44.2590565" lon="10.6186113"><ele>1260.5</ele><time>2026-05-03T14:05:31.486Z</time></trkpt><trkpt lat="44.2591254" lon="10.6187699"><ele>1262.25</ele><time>2026-05-03T14:05:32.475Z</time></trkpt><trkpt lat="44.2591899" lon="10.6189252"><ele>1264.0</ele><time>2026-05-03T14:05:33.483Z</time></trkpt><trkpt lat="44.2592556" lon="10.6190816"><ele>1264.25</ele><time>2026-05-03T14:05:34.48Z</time></trkpt><trkpt lat="44.2593267" lon="10.6192271"><ele>1264.5</ele><time>2026-05-03T14:05:35.487Z</time></trkpt><trkpt lat="44.2594068" lon="10.6193452"><ele>1264.75</ele><time>2026-05-03T14:05:36.488Z</time></trkpt><trkpt lat="44.2595004" lon="10.61944"><ele>1265.0</ele><time>2026-05-03T14:05:37.482Z</time></trkpt><trkpt lat="44.2596007" lon="10.6195244"><ele>1264.75</ele><time>2026-05-03T14:05:38.479Z</time></trkpt><trkpt lat="44.2596987" lon="10.6195971"><ele>1264.5</ele><time>2026-05-03T14:05:39.486Z</time></trkpt><trkpt lat="44.2598016" lon="10.6196717"><ele>1264.25</ele><time>2026-05-03T14:05:40.483Z</time></trkpt><trkpt lat="44.2599073" lon="10.6197542"><ele>1264.0</ele><time>2026-05-03T14:05:41.48Z</time></trkpt><trkpt lat="44.260013" lon="10.6198312"><ele>1264.0</ele><time>2026-05-03T14:05:42.482Z</time></trkpt><trkpt lat="44.2601164" lon="10.619896"><ele>1264.0</ele><time>2026-05-03T14:05:43.485Z</time></trkpt><trkpt lat="44.2602121" lon="10.6199519"><ele>1264.0</ele><time>2026-05-03T14:05:44.486Z</time></trkpt><trkpt lat="44.2602996" lon="10.6200084"><ele>1264.0</ele><time>2026-05-03T14:05:45.488Z</time></trkpt><trkpt lat="44.2603754" lon="10.6200515"><ele>1264.0</ele><time>2026-05-03T14:05:46.487Z</time></trkpt><trkpt lat="44.2604416" lon="10.6200823"><ele>1264.0</ele><time>2026-05-03T14:05:47.49Z</time></trkpt><trkpt lat="44.2605104" lon="10.620099"><ele>1264.0</ele><time>2026-05-03T14:05:48.49Z</time></trkpt><trkpt lat="44.2605745" lon="10.6201184"><ele>1264.0</ele><time>2026-05-03T14:05:50.483Z</time></trkpt><trkpt lat="44.2606852" lon="10.6201032"><ele>1264.0</ele><time>2026-05-03T14:06:07.481Z</time></trkpt><trkpt lat="44.260767" lon="10.6201169"><ele>1264.0</ele><time>2026-05-03T14:06:08.478Z</time></trkpt><trkpt lat="44.2608424" lon="10.6201466"><ele>1264.0</ele><time>2026-05-03T14:06:09.48Z</time></trkpt><trkpt lat="44.260916" lon="10.6201904"><ele>1263.8333333333333</ele><time>2026-05-03T14:06:10.479Z</time></trkpt><trkpt lat="44.260981" lon="10.6202608"><ele>1263.6666666666665</ele><time>2026-05-03T14:06:11.478Z</time></trkpt><trkpt lat="44.2610466" lon="10.6203464"><ele>1263.5</ele><time>2026-05-03T14:06:12.477Z</time></trkpt><trkpt lat="44.2611024" lon="10.6204447"><ele>1263.3333333333333</ele><time>2026-05-03T14:06:13.479Z</time></trkpt><trkpt lat="44.2611562" lon="10.6205413"><ele>1263.1666666666667</ele><time>2026-05-03T14:06:14.478Z</time></trkpt><trkpt lat="44.2611943" lon="10.620648"><ele>1263.0</ele><time>2026-05-03T14:06:15.484Z</time></trkpt><trkpt lat="44.2612337" lon="10.6207426"><ele>1262.8333333333333</ele><time>2026-05-03T14:06:16.489Z</time></trkpt><trkpt lat="44.2612877" lon="10.6208349"><ele>1262.6666666666667</ele><time>2026-05-03T14:06:17.482Z</time></trkpt><trkpt lat="44.2613376" lon="10.6209304"><ele>1262.5</ele><time>2026-05-03T14:06:18.472Z</time></trkpt><trkpt lat="44.2613753" lon="10.6210195"><ele>1262.3333333333335</ele><time>2026-05-03T14:06:19.484Z</time></trkpt><trkpt lat="44.2614107" lon="10.6211217"><ele>1262.1666666666667</ele><time>2026-05-03T14:06:20.477Z</time></trkpt><trkpt lat="44.2614457" lon="10.6212303"><ele>1262.0</ele><time>2026-05-03T14:06:21.479Z</time></trkpt><trkpt lat="44.2614784" lon="10.6213473"><ele>1265.2</ele><time>2026-05-03T14:06:22.477Z</time></trkpt><trkpt lat="44.2615085" lon="10.6214803"><ele>1268.4</ele><time>2026-05-03T14:06:23.48Z</time></trkpt><trkpt lat="44.2615305" lon="10.6216062"><ele>1271.6</ele><time>2026-05-03T14:06:24.477Z</time></trkpt><trkpt lat="44.2615494" lon="10.6217267"><ele>1274.8</ele><time>2026-05-03T14:06:25.474Z</time></trkpt><trkpt lat="44.2615823" lon="10.6218363"><ele>1278.0</ele><time>2026-05-03T14:06:26.475Z</time></trkpt><trkpt lat="44.2616198" lon="10.6219427"><ele>1277.6666666666667</ele><time>2026-05-03T14:06:27.479Z</time></trkpt><trkpt lat="44.2616675" lon="10.6220315"><ele>1277.3333333333333</ele><time>2026-05-03T14:06:28.477Z</time></trkpt><trkpt lat="44.2617146" lon="10.6221267"><ele>1277.0</ele><time>2026-05-03T14:06:29.474Z</time></trkpt><trkpt lat="44.2617718" lon="10.6222193"><ele>1276.6666666666665</ele><time>2026-05-03T14:06:30.477Z</time></trkpt><trkpt lat="44.2618277" lon="10.6222815"><ele>1276.3333333333333</ele><time>2026-05-03T14:06:31.469Z</time></trkpt><trkpt lat="44.2618788" lon="10.6223384"><ele>1276.0</ele><time>2026-05-03T14:06:32.478Z</time></trkpt><trkpt lat="44.2619642" lon="10.6224007"><ele>1276.0</ele><time>2026-05-03T14:06:34.473Z</time></trkpt><trkpt lat="44.2620644" lon="10.6223848"><ele>1276.0</ele><time>2026-05-03T14:06:36.469Z</time></trkpt><trkpt lat="44.2621998" lon="10.6223621"><ele>1276.0</ele><time>2026-05-03T14:06:38.467Z</time></trkpt><trkpt lat="44.2622739" lon="10.6223451"><ele>1276.0</ele><time>2026-05-03T14:06:39.472Z</time></trkpt><trkpt lat="44.262376" lon="10.6223155"><ele>1276.0</ele><time>2026-05-03T14:06:41.467Z</time></trkpt><trkpt lat="44.2624682" lon="10.6222726"><ele>1278.5</ele><time>2026-05-03T14:06:43.47Z</time></trkpt><trkpt lat="44.2625886" lon="10.6222352"><ele>1281.0</ele><time>2026-05-03T14:06:45.469Z</time></trkpt><trkpt lat="44.2626624" lon="10.6222213"><ele>1283.5</ele><time>2026-05-03T14:06:46.476Z</time></trkpt><trkpt lat="44.2627274" lon="10.6222304"><ele>1286.0</ele><time>2026-05-03T14:06:47.471Z</time></trkpt><trkpt lat="44.2627855" lon="10.6222648"><ele>1288.5</ele><time>2026-05-03T14:06:48.476Z</time></trkpt><trkpt lat="44.262862" lon="10.6223754"><ele>1291.0</ele><time>2026-05-03T14:06:50.478Z</time></trkpt><trkpt lat="44.2628949" lon="10.6224509"><ele>1290.9999999999998</ele><time>2026-05-03T14:06:51.473Z</time></trkpt><trkpt lat="44.2629294" lon="10.6225336"><ele>1291.0</ele><time>2026-05-03T14:06:52.469Z</time></trkpt><trkpt lat="44.2629555" lon="10.6226271"><ele>1291.0</ele><time>2026-05-03T14:06:53.472Z</time></trkpt><trkpt lat="44.262967" lon="10.6227265"><ele>1291.0</ele><time>2026-05-03T14:06:54.474Z</time></trkpt><trkpt lat="44.262965" lon="10.6228349"><ele>1291.0</ele><time>2026-05-03T14:06:55.47Z</time></trkpt><trkpt lat="44.2629702" lon="10.6229418"><ele>1290.9999999999998</ele><time>2026-05-03T14:06:56.47Z</time></trkpt><trkpt lat="44.2629828" lon="10.6230361"><ele>1291.0</ele><time>2026-05-03T14:06:57.466Z</time></trkpt><trkpt lat="44.2630044" lon="10.623129"><ele>1292.6666666666665</ele><time>2026-05-03T14:06:58.467Z</time></trkpt><trkpt lat="44.2630285" lon="10.6232243"><ele>1294.3333333333333</ele><time>2026-05-03T14:06:59.475Z</time></trkpt><trkpt lat="44.2630548" lon="10.6233175"><ele>1296.0</ele><time>2026-05-03T14:07:00.467Z</time></trkpt><trkpt lat="44.263074" lon="10.6234773"><ele>1297.6666666666667</ele><time>2026-05-03T14:07:02.464Z</time></trkpt><trkpt lat="44.2630462" lon="10.6236416"><ele>1299.3333333333335</ele><time>2026-05-03T14:07:04.462Z</time></trkpt><trkpt lat="44.2630084" lon="10.6237194"><ele>1301.0</ele><time>2026-05-03T14:07:05.463Z</time></trkpt><trkpt lat="44.2629617" lon="10.6237965"><ele>1302.5714285714284</ele><time>2026-05-03T14:07:06.465Z</time></trkpt><trkpt lat="44.2629237" lon="10.6238731"><ele>1304.142857142857</ele><time>2026-05-03T14:07:07.463Z</time></trkpt><trkpt lat="44.2628902" lon="10.6239576"><ele>1305.7142857142858</ele><time>2026-05-03T14:07:08.463Z</time></trkpt><trkpt lat="44.2628649" lon="10.6240447"><ele>1307.2857142857142</ele><time>2026-05-03T14:07:09.468Z</time></trkpt><trkpt lat="44.2628577" lon="10.6241494"><ele>1308.857142857143</ele><time>2026-05-03T14:07:10.468Z</time></trkpt><trkpt lat="44.2628423" lon="10.6242631"><ele>1310.4285714285713</ele><time>2026-05-03T14:07:11.472Z</time></trkpt><trkpt lat="44.2628156" lon="10.6243657"><ele>1312.0</ele><time>2026-05-03T14:07:12.473Z</time></trkpt><trkpt lat="44.2628047" lon="10.6244753"><ele>1312.1999999999998</ele><time>2026-05-03T14:07:13.473Z</time></trkpt><trkpt lat="44.2628082" lon="10.6245932"><ele>1312.4</ele><time>2026-05-03T14:07:14.472Z</time></trkpt><trkpt lat="44.2628198" lon="10.624736"><ele>1312.6</ele><time>2026-05-03T14:07:15.477Z</time></trkpt><trkpt lat="44.2628493" lon="10.6248653"><ele>1312.8000000000002</ele><time>2026-05-03T14:07:16.474Z</time></trkpt><trkpt lat="44.2628882" lon="10.6249758"><ele>1313.0</ele><time>2026-05-03T14:07:17.475Z</time></trkpt><trkpt lat="44.2629309" lon="10.6250943"><ele>1313.0</ele><time>2026-05-03T14:07:18.478Z</time></trkpt><trkpt lat="44.2629765" lon="10.6252123"><ele>1313.0</ele><time>2026-05-03T14:07:19.476Z</time></trkpt><trkpt lat="44.2630294" lon="10.6253312"><ele>1313.0</ele><time>2026-05-03T14:07:20.476Z</time></trkpt><trkpt lat="44.2630803" lon="10.6254338"><ele>1313.0</ele><time>2026-05-03T14:07:21.477Z</time></trkpt><trkpt lat="44.2631179" lon="10.6255208"><ele>1313.0</ele><time>2026-05-03T14:07:22.473Z</time></trkpt><trkpt lat="44.2631455" lon="10.6256061"><ele>1313.0</ele><time>2026-05-03T14:07:23.479Z</time></trkpt><trkpt lat="44.2631683" lon="10.6256959"><ele>1313.1666666666667</ele><time>2026-05-03T14:07:24.472Z</time></trkpt><trkpt lat="44.2631939" lon="10.6257806"><ele>1313.3333333333335</ele><time>2026-05-03T14:07:25.475Z</time></trkpt><trkpt lat="44.263205" lon="10.6258749"><ele>1313.5</ele><time>2026-05-03T14:07:26.47Z</time></trkpt><trkpt lat="44.2631805" lon="10.6259669"><ele>1313.6666666666667</ele><time>2026-05-03T14:07:27.47Z</time></trkpt><trkpt lat="44.2631397" lon="10.6260493"><ele>1313.8333333333333</ele><time>2026-05-03T14:07:28.473Z</time></trkpt><trkpt lat="44.2630707" lon="10.6261257"><ele>1314.0</ele><time>2026-05-03T14:07:29.467Z</time></trkpt><trkpt lat="44.2629942" lon="10.6262047"><ele>1314.857142857143</ele><time>2026-05-03T14:07:30.465Z</time></trkpt><trkpt lat="44.2629402" lon="10.6262963"><ele>1315.7142857142858</ele><time>2026-05-03T14:07:31.477Z</time></trkpt><trkpt lat="44.2629293" lon="10.6263938"><ele>1316.5714285714287</ele><time>2026-05-03T14:07:32.475Z</time></trkpt><trkpt lat="44.2629359" lon="10.626492"><ele>1317.4285714285716</ele><time>2026-05-03T14:07:33.475Z</time></trkpt><trkpt lat="44.2629598" lon="10.6265818"><ele>1318.2857142857142</ele><time>2026-05-03T14:07:34.475Z</time></trkpt><trkpt lat="44.2630016" lon="10.6266507"><ele>1319.1428571428573</ele><time>2026-05-03T14:07:35.484Z</time></trkpt><trkpt lat="44.263065" lon="10.6266605"><ele>1320.0</ele><time>2026-05-03T14:07:36.475Z</time></trkpt><trkpt lat="44.2631464" lon="10.6266443"><ele>1323.0</ele><time>2026-05-03T14:07:37.474Z</time></trkpt><trkpt lat="44.263211" lon="10.6266415"><ele>1326.0</ele><time>2026-05-03T14:07:38.469Z</time></trkpt><trkpt lat="44.2633258" lon="10.6267295"><ele>1329.0</ele><time>2026-05-03T14:07:40.469Z</time></trkpt><trkpt lat="44.2633671" lon="10.6268113"><ele>1332.0</ele><time>2026-05-03T14:07:41.472Z</time></trkpt><trkpt lat="44.2633832" lon="10.6269095"><ele>1335.0</ele><time>2026-05-03T14:07:42.466Z</time></trkpt><trkpt lat="44.2633895" lon="10.6269997"><ele>1338.0</ele><time>2026-05-03T14:07:43.469Z</time></trkpt><trkpt lat="44.2633667" lon="10.6271213"><ele>1339.2</ele><time>2026-05-03T14:07:44.469Z</time></trkpt><trkpt lat="44.2633197" lon="10.6272624"><ele>1340.4</ele><time>2026-05-03T14:07:45.467Z</time></trkpt><trkpt lat="44.2632661" lon="10.6273932"><ele>1341.6000000000001</ele><time>2026-05-03T14:07:46.464Z</time></trkpt><trkpt lat="44.2632209" lon="10.6275025"><ele>1342.8000000000002</ele><time>2026-05-03T14:07:47.472Z</time></trkpt><trkpt lat="44.2631769" lon="10.6276075"><ele>1344.0</ele><time>2026-05-03T14:07:48.472Z</time></trkpt><trkpt lat="44.2631279" lon="10.6276933"><ele>1342.3333333333333</ele><time>2026-05-03T14:07:49.47Z</time></trkpt><trkpt lat="44.2630874" lon="10.6277814"><ele>1340.6666666666667</ele><time>2026-05-03T14:07:50.467Z</time></trkpt><trkpt lat="44.2630573" lon="10.6278589"><ele>1339.0</ele><time>2026-05-03T14:07:51.459Z</time></trkpt><trkpt lat="44.2630287" lon="10.6279426"><ele>1337.3333333333335</ele><time>2026-05-03T14:07:52.466Z</time></trkpt><trkpt lat="44.2629734" lon="10.6281004"><ele>1335.6666666666667</ele><time>2026-05-03T14:07:54.467Z</time></trkpt><trkpt lat="44.2629473" lon="10.6281998"><ele>1334.0</ele><time>2026-05-03T14:07:55.468Z</time></trkpt><trkpt lat="44.2629224" lon="10.628305"><ele>1334.0</ele><time>2026-05-03T14:07:56.469Z</time></trkpt><trkpt lat="44.2629094" lon="10.62841"><ele>1334.0</ele><time>2026-05-03T14:07:57.475Z</time></trkpt><trkpt lat="44.2628987" lon="10.6284998"><ele>1334.0</ele><time>2026-05-03T14:07:58.466Z</time></trkpt><trkpt lat="44.2628597" lon="10.6286497"><ele>1334.0</ele><time>2026-05-03T14:08:00.463Z</time></trkpt><trkpt lat="44.2628218" lon="10.6287463"><ele>1334.0</ele><time>2026-05-03T14:08:01.465Z</time></trkpt><trkpt lat="44.2627774" lon="10.6288577"><ele>1334.0</ele><time>2026-05-03T14:08:02.467Z</time></trkpt><trkpt lat="44.2627215" lon="10.6289588"><ele>1335.8000000000002</ele><time>2026-05-03T14:08:03.468Z</time></trkpt><trkpt lat="44.2626661" lon="10.6290456"><ele>1337.6000000000001</ele><time>2026-05-03T14:08:04.467Z</time></trkpt><trkpt lat="44.2626172" lon="10.6291237"><ele>1339.4</ele><time>2026-05-03T14:08:05.472Z</time></trkpt><trkpt lat="44.2625543" lon="10.629253"><ele>1341.2</ele><time>2026-05-03T14:08:07.47Z</time></trkpt><trkpt lat="44.2625051" lon="10.629359"><ele>1343.0</ele><time>2026-05-03T14:08:09.469Z</time></trkpt><trkpt lat="44.2624121" lon="10.6294574"><ele>1342.5</ele><time>2026-05-03T14:08:11.474Z</time></trkpt><trkpt lat="44.2623537" lon="10.6294953"><ele>1342.0</ele><time>2026-05-03T14:08:12.474Z</time></trkpt><trkpt lat="44.2622876" lon="10.6295381"><ele>1341.5</ele><time>2026-05-03T14:08:13.473Z</time></trkpt><trkpt lat="44.2622256" lon="10.6295872"><ele>1341.0</ele><time>2026-05-03T14:08:14.468Z</time></trkpt><trkpt lat="44.2621625" lon="10.629644"><ele>1340.5</ele><time>2026-05-03T14:08:15.467Z</time></trkpt><trkpt lat="44.2621021" lon="10.629699"><ele>1340.0</ele><time>2026-05-03T14:08:16.475Z</time></trkpt><trkpt lat="44.2619949" lon="10.6297559"><ele>1340.0</ele><time>2026-05-03T14:08:18.467Z</time></trkpt><trkpt lat="44.261912" lon="10.6297559"><ele>1340.0</ele><time>2026-05-03T14:08:20.478Z</time></trkpt><trkpt lat="44.2618537" lon="10.6298269"><ele>1340.0</ele><time>2026-05-03T14:08:22.476Z</time></trkpt><trkpt lat="44.2618154" lon="10.629929"><ele>1340.0</ele><time>2026-05-03T14:08:24.48Z</time></trkpt><trkpt lat="44.2618485" lon="10.6301213"><ele>1340.0</ele><time>2026-05-03T14:08:26.478Z</time></trkpt><trkpt lat="44.2618695" lon="10.6302254"><ele>1337.5</ele><time>2026-05-03T14:08:27.48Z</time></trkpt><trkpt lat="44.2618938" lon="10.6303249"><ele>1335.0</ele><time>2026-05-03T14:08:28.486Z</time></trkpt><trkpt lat="44.2619383" lon="10.6304016"><ele>1332.5</ele><time>2026-05-03T14:08:29.484Z</time></trkpt><trkpt lat="44.2619948" lon="10.6304663"><ele>1330.0</ele><time>2026-05-03T14:08:30.478Z</time></trkpt><trkpt lat="44.2620574" lon="10.6305327"><ele>1327.5</ele><time>2026-05-03T14:08:31.478Z</time></trkpt><trkpt lat="44.2621347" lon="10.6305904"><ele>1325.0</ele><time>2026-05-03T14:08:32.476Z</time></trkpt><trkpt lat="44.2622251" lon="10.6306391"><ele>1326.2</ele><time>2026-05-03T14:08:33.473Z</time></trkpt><trkpt lat="44.2623177" lon="10.630683"><ele>1327.4</ele><time>2026-05-03T14:08:34.475Z</time></trkpt><trkpt lat="44.2624039" lon="10.6307315"><ele>1328.6</ele><time>2026-05-03T14:08:35.469Z</time></trkpt><trkpt lat="44.2624874" lon="10.6307868"><ele>1329.8</ele><time>2026-05-03T14:08:36.472Z</time></trkpt><trkpt lat="44.2625633" lon="10.6308561"><ele>1331.0</ele><time>2026-05-03T14:08:37.476Z</time></trkpt><trkpt lat="44.2626328" lon="10.6309319"><ele>1331.0</ele><time>2026-05-03T14:08:38.476Z</time></trkpt><trkpt lat="44.2626962" lon="10.6310163"><ele>1331.0</ele><time>2026-05-03T14:08:39.481Z</time></trkpt><trkpt lat="44.2627704" lon="10.6311048"><ele>1331.0</ele><time>2026-05-03T14:08:40.475Z</time></trkpt><trkpt lat="44.2628465" lon="10.6312076"><ele>1331.0</ele><time>2026-05-03T14:08:41.476Z</time></trkpt><trkpt lat="44.2629228" lon="10.6312955"><ele>1331.0</ele><time>2026-05-03T14:08:42.478Z</time></trkpt><trkpt lat="44.2629973" lon="10.6313976"><ele>1329.1666666666667</ele><time>2026-05-03T14:08:43.481Z</time></trkpt><trkpt lat="44.263065" lon="10.6314783"><ele>1327.3333333333335</ele><time>2026-05-03T14:08:44.481Z</time></trkpt><trkpt lat="44.2631282" lon="10.6315561"><ele>1325.5</ele><time>2026-05-03T14:08:45.477Z</time></trkpt><trkpt lat="44.2631929" lon="10.6316348"><ele>1323.6666666666667</ele><time>2026-05-03T14:08:46.478Z</time></trkpt><trkpt lat="44.2632565" lon="10.6317206"><ele>1321.8333333333333</ele><time>2026-05-03T14:08:47.481Z</time></trkpt><trkpt lat="44.2633138" lon="10.6318142"><ele>1320.0</ele><time>2026-05-03T14:08:48.476Z</time></trkpt><trkpt lat="44.2633645" lon="10.6319116"><ele>1318.4</ele><time>2026-05-03T14:08:49.479Z</time></trkpt><trkpt lat="44.2634119" lon="10.6320152"><ele>1316.8</ele><time>2026-05-03T14:08:50.476Z</time></trkpt><trkpt lat="44.2634609" lon="10.6321338"><ele>1315.1999999999998</ele><time>2026-05-03T14:08:51.479Z</time></trkpt><trkpt lat="44.2635048" lon="10.6322483"><ele>1313.6</ele><time>2026-05-03T14:08:52.476Z</time></trkpt><trkpt lat="44.263545" lon="10.6323565"><ele>1312.0</ele><time>2026-05-03T14:08:53.482Z</time></trkpt><trkpt lat="44.2635797" lon="10.632465"><ele>1312.0</ele><time>2026-05-03T14:08:54.479Z</time></trkpt><trkpt lat="44.2636014" lon="10.6325783"><ele>1312.0</ele><time>2026-05-03T14:08:55.474Z</time></trkpt><trkpt lat="44.263615" lon="10.6326885"><ele>1312.0</ele><time>2026-05-03T14:08:56.485Z</time></trkpt><trkpt lat="44.2636183" lon="10.6328156"><ele>1312.0</ele><time>2026-05-03T14:08:57.474Z</time></trkpt><trkpt lat="44.2636234" lon="10.6329573"><ele>1312.0</ele><time>2026-05-03T14:08:58.473Z</time></trkpt><trkpt lat="44.263635" lon="10.6330848"><ele>1312.0</ele><time>2026-05-03T14:08:59.475Z</time></trkpt><trkpt lat="44.2636522" lon="10.6331924"><ele>1313.0</ele><time>2026-05-03T14:09:00.477Z</time></trkpt><trkpt lat="44.2637273" lon="10.633308"><ele>1314.0</ele><time>2026-05-03T14:09:02.475Z</time></trkpt><trkpt lat="44.2638294" lon="10.6333859"><ele>1315.0</ele><time>2026-05-03T14:09:04.48Z</time></trkpt><trkpt lat="44.2639019" lon="10.6334508"><ele>1316.0</ele><time>2026-05-03T14:09:05.476Z</time></trkpt><trkpt lat="44.2639762" lon="10.6335451"><ele>1317.0</ele><time>2026-05-03T14:09:06.481Z</time></trkpt><trkpt lat="44.2640673" lon="10.6336404"><ele>1314.25</ele><time>2026-05-03T14:09:07.474Z</time></trkpt><trkpt lat="44.2641637" lon="10.6337177"><ele>1311.5</ele><time>2026-05-03T14:09:08.47Z</time></trkpt><trkpt lat="44.2642574" lon="10.6338078"><ele>1308.75</ele><time>2026-05-03T14:09:09.484Z</time></trkpt><trkpt lat="44.2643511" lon="10.6338968"><ele>1306.0</ele><time>2026-05-03T14:09:10.478Z</time></trkpt><trkpt lat="44.2644442" lon="10.6340031"><ele>1306.0</ele><time>2026-05-03T14:09:11.477Z</time></trkpt><trkpt lat="44.2645361" lon="10.6341164"><ele>1306.0</ele><time>2026-05-03T14:09:12.472Z</time></trkpt><trkpt lat="44.2646106" lon="10.6342346"><ele>1306.0</ele><time>2026-05-03T14:09:13.474Z</time></trkpt><trkpt lat="44.264676" lon="10.6343632"><ele>1306.0</ele><time>2026-05-03T14:09:14.481Z</time></trkpt><trkpt lat="44.2647311" lon="10.6344916"><ele>1308.0</ele><time>2026-05-03T14:09:15.484Z</time></trkpt><trkpt lat="44.264785" lon="10.6346087"><ele>1310.0</ele><time>2026-05-03T14:09:16.487Z</time></trkpt><trkpt lat="44.2648467" lon="10.6347104"><ele>1312.0</ele><time>2026-05-03T14:09:17.477Z</time></trkpt><trkpt lat="44.2649136" lon="10.6347982"><ele>1314.0</ele><time>2026-05-03T14:09:18.48Z</time></trkpt><trkpt lat="44.264973" lon="10.6348753"><ele>1316.0</ele><time>2026-05-03T14:09:19.475Z</time></trkpt><trkpt lat="44.2650269" lon="10.6349307"><ele>1318.0</ele><time>2026-05-03T14:09:20.484Z</time></trkpt><trkpt lat="44.2651381" lon="10.6350188"><ele>1318.0</ele><time>2026-05-03T14:09:22.477Z</time></trkpt><trkpt lat="44.2651951" lon="10.6350855"><ele>1318.0</ele><time>2026-05-03T14:09:23.477Z</time></trkpt><trkpt lat="44.2652406" lon="10.6351684"><ele>1318.0</ele><time>2026-05-03T14:09:24.477Z</time></trkpt><trkpt lat="44.2652846" lon="10.6352552"><ele>1318.0</ele><time>2026-05-03T14:09:25.472Z</time></trkpt><trkpt lat="44.2653185" lon="10.6353702"><ele>1318.0</ele><time>2026-05-03T14:09:26.479Z</time></trkpt><trkpt lat="44.2653377" lon="10.6354826"><ele>1318.0</ele><time>2026-05-03T14:09:27.476Z</time></trkpt><trkpt lat="44.2653397" lon="10.6356066"><ele>1315.5</ele><time>2026-05-03T14:09:28.48Z</time></trkpt><trkpt lat="44.2653324" lon="10.635726"><ele>1313.0</ele><time>2026-05-03T14:09:29.475Z</time></trkpt><trkpt lat="44.2653316" lon="10.6358383"><ele>1310.5</ele><time>2026-05-03T14:09:30.473Z</time></trkpt><trkpt lat="44.2653369" lon="10.6359468"><ele>1308.0</ele><time>2026-05-03T14:09:31.477Z</time></trkpt><trkpt lat="44.2653467" lon="10.6360713"><ele>1305.5</ele><time>2026-05-03T14:09:32.472Z</time></trkpt><trkpt lat="44.2653609" lon="10.636211"><ele>1303.0</ele><time>2026-05-03T14:09:33.471Z</time></trkpt><trkpt lat="44.2653788" lon="10.6363587"><ele>1301.2</ele><time>2026-05-03T14:09:34.476Z</time></trkpt><trkpt lat="44.2653983" lon="10.6365093"><ele>1299.4</ele><time>2026-05-03T14:09:35.473Z</time></trkpt><trkpt lat="44.265426" lon="10.6366562"><ele>1297.6000000000001</ele><time>2026-05-03T14:09:36.48Z</time></trkpt><trkpt lat="44.2654597" lon="10.6368016"><ele>1295.8000000000002</ele><time>2026-05-03T14:09:37.483Z</time></trkpt><trkpt lat="44.2654829" lon="10.6369182"><ele>1294.0</ele><time>2026-05-03T14:09:38.484Z</time></trkpt><trkpt lat="44.2654825" lon="10.6370253"><ele>1292.8000000000002</ele><time>2026-05-03T14:09:39.485Z</time></trkpt><trkpt lat="44.2654789" lon="10.6371743"><ele>1291.6000000000001</ele><time>2026-05-03T14:09:41.481Z</time></trkpt><trkpt lat="44.2655579" lon="10.637306"><ele>1290.4</ele><time>2026-05-03T14:09:43.473Z</time></trkpt><trkpt lat="44.2656097" lon="10.6373716"><ele>1289.2</ele><time>2026-05-03T14:09:44.476Z</time></trkpt><trkpt lat="44.2656709" lon="10.63743"><ele>1288.0</ele><time>2026-05-03T14:09:45.48Z</time></trkpt><trkpt lat="44.2657365" lon="10.6374868"><ele>1292.8000000000002</ele><time>2026-05-03T14:09:46.475Z</time></trkpt><trkpt lat="44.2658186" lon="10.6375405"><ele>1297.6</ele><time>2026-05-03T14:09:47.476Z</time></trkpt><trkpt lat="44.265913" lon="10.6375918"><ele>1302.4</ele><time>2026-05-03T14:09:48.473Z</time></trkpt><trkpt lat="44.2660041" lon="10.6376139"><ele>1307.1999999999998</ele><time>2026-05-03T14:09:49.475Z</time></trkpt><trkpt lat="44.2660854" lon="10.6376154"><ele>1312.0</ele><time>2026-05-03T14:09:50.469Z</time></trkpt><trkpt lat="44.2661734" lon="10.6376256"><ele>1312.0</ele><time>2026-05-03T14:09:51.472Z</time></trkpt><trkpt lat="44.2662549" lon="10.6376687"><ele>1312.0</ele><time>2026-05-03T14:09:52.472Z</time></trkpt><trkpt lat="44.2663325" lon="10.6377354"><ele>1312.0</ele><time>2026-05-03T14:09:53.471Z</time></trkpt><trkpt lat="44.2663898" lon="10.6378181"><ele>1312.0</ele><time>2026-05-03T14:09:54.464Z</time></trkpt><trkpt lat="44.2664419" lon="10.6379108"><ele>1312.0</ele><time>2026-05-03T14:09:55.473Z</time></trkpt><trkpt lat="44.2664693" lon="10.6380254"><ele>1312.0</ele><time>2026-05-03T14:09:56.467Z</time></trkpt><trkpt lat="44.2664768" lon="10.6381326"><ele>1311.3333333333333</ele><time>2026-05-03T14:09:57.472Z</time></trkpt><trkpt lat="44.2664677" lon="10.6382465"><ele>1310.6666666666665</ele><time>2026-05-03T14:09:58.465Z</time></trkpt><trkpt lat="44.2664522" lon="10.6383569"><ele>1310.0</ele><time>2026-05-03T14:09:59.471Z</time></trkpt><trkpt lat="44.2664432" lon="10.6384586"><ele>1309.3333333333333</ele><time>2026-05-03T14:10:00.469Z</time></trkpt><trkpt lat="44.2664382" lon="10.6386152"><ele>1308.6666666666667</ele><time>2026-05-03T14:10:02.473Z</time></trkpt><trkpt lat="44.2664418" lon="10.6387553"><ele>1308.0</ele><time>2026-05-03T14:10:04.488Z</time></trkpt><trkpt lat="44.2665099" lon="10.638895"><ele>1311.3333333333333</ele><time>2026-05-03T14:10:06.485Z</time></trkpt><trkpt lat="44.2665553" lon="10.63897"><ele>1314.6666666666667</ele><time>2026-05-03T14:10:07.481Z</time></trkpt><trkpt lat="44.2666033" lon="10.6390586"><ele>1318.0</ele><time>2026-05-03T14:10:08.481Z</time></trkpt><trkpt lat="44.2666614" lon="10.6391457"><ele>1321.3333333333335</ele><time>2026-05-03T14:10:09.482Z</time></trkpt><trkpt lat="44.2667035" lon="10.6392229"><ele>1324.6666666666667</ele><time>2026-05-03T14:10:10.481Z</time></trkpt><trkpt lat="44.2667073" lon="10.6393588"><ele>1328.0</ele><time>2026-05-03T14:10:12.489Z</time></trkpt><trkpt lat="44.2666609" lon="10.6395295"><ele>1328.0</ele><time>2026-05-03T14:10:14.493Z</time></trkpt><trkpt lat="44.266627" lon="10.6396366"><ele>1328.0</ele><time>2026-05-03T14:10:15.484Z</time></trkpt><trkpt lat="44.266593" lon="10.6397712"><ele>1328.0</ele><time>2026-05-03T14:10:16.484Z</time></trkpt><trkpt lat="44.2665533" lon="10.6398958"><ele>1328.0</ele><time>2026-05-03T14:10:17.481Z</time></trkpt><trkpt lat="44.2665169" lon="10.6400153"><ele>1328.0</ele><time>2026-05-03T14:10:18.479Z</time></trkpt><trkpt lat="44.2664693" lon="10.6401382"><ele>1326.4</ele><time>2026-05-03T14:10:19.485Z</time></trkpt><trkpt lat="44.2664228" lon="10.6402505"><ele>1324.8000000000002</ele><time>2026-05-03T14:10:20.486Z</time></trkpt><trkpt lat="44.2663803" lon="10.6403558"><ele>1323.2</ele><time>2026-05-03T14:10:21.482Z</time></trkpt><trkpt lat="44.2663319" lon="10.6404577"><ele>1321.6</ele><time>2026-05-03T14:10:22.509Z</time></trkpt><trkpt lat="44.2662826" lon="10.6405646"><ele>1320.0</ele><time>2026-05-03T14:10:23.483Z</time></trkpt><trkpt lat="44.2662406" lon="10.6406859"><ele>1320.0000000000002</ele><time>2026-05-03T14:10:24.475Z</time></trkpt><trkpt lat="44.2661966" lon="10.6407876"><ele>1320.0</ele><time>2026-05-03T14:10:25.481Z</time></trkpt><trkpt lat="44.2661677" lon="10.6408882"><ele>1320.0</ele><time>2026-05-03T14:10:26.476Z</time></trkpt><trkpt lat="44.2661592" lon="10.640982"><ele>1320.0</ele><time>2026-05-03T14:10:27.482Z</time></trkpt><trkpt lat="44.2661723" lon="10.6410697"><ele>1320.0</ele><time>2026-05-03T14:10:28.472Z</time></trkpt><trkpt lat="44.2661971" lon="10.6411592"><ele>1320.0000000000002</ele><time>2026-05-03T14:10:29.475Z</time></trkpt><trkpt lat="44.2662237" lon="10.6412422"><ele>1320.0</ele><time>2026-05-03T14:10:30.476Z</time></trkpt><trkpt lat="44.2662516" lon="10.6413235"><ele>1320.7142857142858</ele><time>2026-05-03T14:10:31.477Z</time></trkpt><trkpt lat="44.266285" lon="10.6414024"><ele>1321.4285714285716</ele><time>2026-05-03T14:10:32.468Z</time></trkpt><trkpt lat="44.2663173" lon="10.6414808"><ele>1322.1428571428573</ele><time>2026-05-03T14:10:33.482Z</time></trkpt><trkpt lat="44.2663487" lon="10.6415672"><ele>1322.857142857143</ele><time>2026-05-03T14:10:34.474Z</time></trkpt><trkpt lat="44.2663825" lon="10.6416684"><ele>1323.5714285714284</ele><time>2026-05-03T14:10:35.478Z</time></trkpt><trkpt lat="44.2664203" lon="10.6417775"><ele>1324.2857142857144</ele><time>2026-05-03T14:10:36.479Z</time></trkpt><trkpt lat="44.2664586" lon="10.6418735"><ele>1325.0</ele><time>2026-05-03T14:10:37.474Z</time></trkpt><trkpt lat="44.2664928" lon="10.6419611"><ele>1326.6666666666667</ele><time>2026-05-03T14:10:38.475Z</time></trkpt><trkpt lat="44.2665283" lon="10.6420414"><ele>1328.3333333333335</ele><time>2026-05-03T14:10:39.48Z</time></trkpt><trkpt lat="44.2665613" lon="10.6421399"><ele>1330.0</ele><time>2026-05-03T14:10:40.485Z</time></trkpt><trkpt lat="44.2666125" lon="10.6422508"><ele>1331.6666666666667</ele><time>2026-05-03T14:10:41.478Z</time></trkpt><trkpt lat="44.2666675" lon="10.6423694"><ele>1333.3333333333333</ele><time>2026-05-03T14:10:42.493Z</time></trkpt><trkpt lat="44.2667197" lon="10.6424943"><ele>1335.0</ele><time>2026-05-03T14:10:43.48Z</time></trkpt><trkpt lat="44.2667653" lon="10.642612"><ele>1335.0</ele><time>2026-05-03T14:10:44.484Z</time></trkpt><trkpt lat="44.2667938" lon="10.6427472"><ele>1335.0</ele><time>2026-05-03T14:10:45.483Z</time></trkpt><trkpt lat="44.2668164" lon="10.6428873"><ele>1335.0</ele><time>2026-05-03T14:10:46.489Z</time></trkpt><trkpt lat="44.2668191" lon="10.6430315"><ele>1335.0</ele><time>2026-05-03T14:10:47.484Z</time></trkpt><trkpt lat="44.2668137" lon="10.643175"><ele>1335.0</ele><time>2026-05-03T14:10:48.481Z</time></trkpt><trkpt lat="44.2667958" lon="10.6433211"><ele>1335.0</ele><time>2026-05-03T14:10:49.482Z</time></trkpt><trkpt lat="44.2667663" lon="10.6434634"><ele>1335.0</ele><time>2026-05-03T14:10:50.484Z</time></trkpt><trkpt lat="44.2667385" lon="10.6436035"><ele>1335.0</ele><time>2026-05-03T14:10:51.482Z</time></trkpt><trkpt lat="44.2667118" lon="10.6437409"><ele>1335.0</ele><time>2026-05-03T14:10:52.472Z</time></trkpt><trkpt lat="44.2666809" lon="10.6438707"><ele>1335.0</ele><time>2026-05-03T14:10:53.486Z</time></trkpt><trkpt lat="44.266659" lon="10.6439935"><ele>1335.6</ele><time>2026-05-03T14:10:54.477Z</time></trkpt><trkpt lat="44.2666462" lon="10.6441084"><ele>1336.2</ele><time>2026-05-03T14:10:55.476Z</time></trkpt><trkpt lat="44.2666439" lon="10.6442075"><ele>1336.8000000000002</ele><time>2026-05-03T14:10:56.47Z</time></trkpt><trkpt lat="44.2666698" lon="10.6443481"><ele>1337.4</ele><time>2026-05-03T14:10:58.484Z</time></trkpt><trkpt lat="44.2667656" lon="10.6444839"><ele>1338.0</ele><time>2026-05-03T14:11:00.485Z</time></trkpt><trkpt lat="44.2668431" lon="10.6445685"><ele>1334.75</ele><time>2026-05-03T14:11:01.477Z</time></trkpt><trkpt lat="44.2669307" lon="10.6446712"><ele>1331.5</ele><time>2026-05-03T14:11:02.48Z</time></trkpt><trkpt lat="44.2670215" lon="10.6447925"><ele>1328.25</ele><time>2026-05-03T14:11:03.478Z</time></trkpt><trkpt lat="44.2671113" lon="10.644916"><ele>1325.0</ele><time>2026-05-03T14:11:04.483Z</time></trkpt><trkpt lat="44.2671874" lon="10.6450467"><ele>1325.0</ele><time>2026-05-03T14:11:05.482Z</time></trkpt><trkpt lat="44.2672516" lon="10.6451769"><ele>1325.0</ele><time>2026-05-03T14:11:06.49Z</time></trkpt><trkpt lat="44.2673079" lon="10.6452814"><ele>1325.0</ele><time>2026-05-03T14:11:07.483Z</time></trkpt><trkpt lat="44.2673517" lon="10.6453644"><ele>1325.0</ele><time>2026-05-03T14:11:08.479Z</time></trkpt><trkpt lat="44.267458" lon="10.6454053"><ele>1325.0</ele><time>2026-05-03T14:11:10.483Z</time></trkpt><trkpt lat="44.2675873" lon="10.6454068"><ele>1325.3333333333335</ele><time>2026-05-03T14:11:12.474Z</time></trkpt><trkpt lat="44.267654" lon="10.6454126"><ele>1325.6666666666667</ele><time>2026-05-03T14:11:13.481Z</time></trkpt><trkpt lat="44.2677197" lon="10.6454612"><ele>1326.0</ele><time>2026-05-03T14:11:14.485Z</time></trkpt><trkpt lat="44.2677846" lon="10.6455385"><ele>1326.3333333333333</ele><time>2026-05-03T14:11:15.478Z</time></trkpt><trkpt lat="44.2678447" lon="10.6455981"><ele>1326.6666666666665</ele><time>2026-05-03T14:11:16.48Z</time></trkpt><trkpt lat="44.267909" lon="10.6456504"><ele>1327.0</ele><time>2026-05-03T14:11:17.487Z</time></trkpt><trkpt lat="44.2679855" lon="10.6456872"><ele>1327.0</ele><time>2026-05-03T14:11:18.488Z</time></trkpt><trkpt lat="44.2680595" lon="10.6457198"><ele>1327.0</ele><time>2026-05-03T14:11:19.483Z</time></trkpt><trkpt lat="44.2681413" lon="10.6457531"><ele>1327.0</ele><time>2026-05-03T14:11:20.484Z</time></trkpt><trkpt lat="44.2682119" lon="10.6457943"><ele>1327.0</ele><time>2026-05-03T14:11:21.484Z</time></trkpt><trkpt lat="44.2682779" lon="10.6458379"><ele>1327.0</ele><time>2026-05-03T14:11:22.485Z</time></trkpt><trkpt lat="44.2683403" lon="10.6459117"><ele>1327.0</ele><time>2026-05-03T14:11:23.485Z</time></trkpt><trkpt lat="44.2684026" lon="10.6460141"><ele>1328.1999999999998</ele><time>2026-05-03T14:11:24.482Z</time></trkpt><trkpt lat="44.2684608" lon="10.6461283"><ele>1329.4</ele><time>2026-05-03T14:11:25.486Z</time></trkpt><trkpt lat="44.2685087" lon="10.6462498"><ele>1330.6</ele><time>2026-05-03T14:11:26.484Z</time></trkpt><trkpt lat="44.2685439" lon="10.6463802"><ele>1331.8000000000002</ele><time>2026-05-03T14:11:27.484Z</time></trkpt><trkpt lat="44.2685635" lon="10.6465105"><ele>1333.0</ele><time>2026-05-03T14:11:28.48Z</time></trkpt><trkpt lat="44.2685964" lon="10.6466249"><ele>1333.0</ele><time>2026-05-03T14:11:29.484Z</time></trkpt><trkpt lat="44.2686305" lon="10.6467267"><ele>1333.0</ele><time>2026-05-03T14:11:30.481Z</time></trkpt><trkpt lat="44.2686507" lon="10.64682"><ele>1333.0</ele><time>2026-05-03T14:11:31.478Z</time></trkpt><trkpt lat="44.2686649" lon="10.6469117"><ele>1333.0</ele><time>2026-05-03T14:11:32.484Z</time></trkpt><trkpt lat="44.2686658" lon="10.6470124"><ele>1333.0</ele><time>2026-05-03T14:11:33.481Z</time></trkpt><trkpt lat="44.2686436" lon="10.6471375"><ele>1333.0</ele><time>2026-05-03T14:11:34.483Z</time></trkpt><trkpt lat="44.268621" lon="10.6472681"><ele>1331.8333333333333</ele><time>2026-05-03T14:11:35.478Z</time></trkpt><trkpt lat="44.2685967" lon="10.6473916"><ele>1330.6666666666665</ele><time>2026-05-03T14:11:36.478Z</time></trkpt><trkpt lat="44.2685962" lon="10.647494"><ele>1329.5</ele><time>2026-05-03T14:11:37.478Z</time></trkpt><trkpt lat="44.2686119" lon="10.6476073"><ele>1328.3333333333333</ele><time>2026-05-03T14:11:38.477Z</time></trkpt><trkpt lat="44.2686289" lon="10.6477324"><ele>1327.1666666666667</ele><time>2026-05-03T14:11:39.476Z</time></trkpt><trkpt lat="44.2686359" lon="10.6478544"><ele>1326.0</ele><time>2026-05-03T14:11:40.483Z</time></trkpt><trkpt lat="44.2686302" lon="10.6479786"><ele>1325.4</ele><time>2026-05-03T14:11:41.478Z</time></trkpt><trkpt lat="44.2686076" lon="10.6480985"><ele>1324.8</ele><time>2026-05-03T14:11:42.479Z</time></trkpt><trkpt lat="44.2685868" lon="10.6482054"><ele>1324.2</ele><time>2026-05-03T14:11:43.475Z</time></trkpt><trkpt lat="44.2685613" lon="10.6482971"><ele>1323.6000000000001</ele><time>2026-05-03T14:11:44.478Z</time></trkpt><trkpt lat="44.2685257" lon="10.6484499"><ele>1323.0</ele><time>2026-05-03T14:11:46.479Z</time></trkpt><trkpt lat="44.268566" lon="10.648611"><ele>1321.5</ele><time>2026-05-03T14:11:48.481Z</time></trkpt><trkpt lat="44.2686364" lon="10.6487217"><ele>1320.0</ele><time>2026-05-03T14:11:50.484Z</time></trkpt><trkpt lat="44.268712" lon="10.6488242"><ele>1318.5</ele><time>2026-05-03T14:11:52.478Z</time></trkpt><trkpt lat="44.268758" lon="10.6488898"><ele>1317.0</ele><time>2026-05-03T14:11:53.48Z</time></trkpt><trkpt lat="44.2688134" lon="10.6489502"><ele>1315.5</ele><time>2026-05-03T14:11:54.479Z</time></trkpt><trkpt lat="44.2688728" lon="10.6490181"><ele>1314.0</ele><time>2026-05-03T14:11:55.484Z</time></trkpt><trkpt lat="44.2689294" lon="10.6490931"><ele>1316.1666666666667</ele><time>2026-05-03T14:11:56.488Z</time></trkpt><trkpt lat="44.2689721" lon="10.6491829"><ele>1318.3333333333333</ele><time>2026-05-03T14:11:57.48Z</time></trkpt><trkpt lat="44.2690122" lon="10.6492731"><ele>1320.5</ele><time>2026-05-03T14:11:58.493Z</time></trkpt><trkpt lat="44.2690301" lon="10.6493672"><ele>1322.6666666666665</ele><time>2026-05-03T14:11:59.484Z</time></trkpt><trkpt lat="44.2690336" lon="10.6494786"><ele>1324.8333333333333</ele><time>2026-05-03T14:12:00.477Z</time></trkpt><trkpt lat="44.2690333" lon="10.6496024"><ele>1327.0</ele><time>2026-05-03T14:12:01.478Z</time></trkpt><trkpt lat="44.2690408" lon="10.649729"><ele>1327.0</ele><time>2026-05-03T14:12:02.475Z</time></trkpt><trkpt lat="44.2690494" lon="10.6498773"><ele>1327.0</ele><time>2026-05-03T14:12:03.479Z</time></trkpt><trkpt lat="44.2690568" lon="10.6500159"><ele>1327.0</ele><time>2026-05-03T14:12:04.484Z</time></trkpt><trkpt lat="44.269063" lon="10.6501498"><ele>1327.0</ele><time>2026-05-03T14:12:05.475Z</time></trkpt><trkpt lat="44.2690851" lon="10.6502674"><ele>1327.0</ele><time>2026-05-03T14:12:06.482Z</time></trkpt><trkpt lat="44.2691485" lon="10.6503842"><ele>1326.5</ele><time>2026-05-03T14:12:08.481Z</time></trkpt><trkpt lat="44.2692288" lon="10.6504858"><ele>1326.0</ele><time>2026-05-03T14:12:10.483Z</time></trkpt><trkpt lat="44.2692805" lon="10.6505496"><ele>1325.5</ele><time>2026-05-03T14:12:11.482Z</time></trkpt><trkpt lat="44.2693125" lon="10.650627"><ele>1325.0</ele><time>2026-05-03T14:12:12.477Z</time></trkpt><trkpt lat="44.2692951" lon="10.6507867"><ele>1324.5</ele><time>2026-05-03T14:12:14.487Z</time></trkpt><trkpt lat="44.2692746" lon="10.6508923"><ele>1324.0</ele><time>2026-05-03T14:12:15.486Z</time></trkpt><trkpt lat="44.2692632" lon="10.6510063"><ele>1324.0</ele><time>2026-05-03T14:12:16.481Z</time></trkpt><trkpt lat="44.2692694" lon="10.6511153"><ele>1324.0</ele><time>2026-05-03T14:12:17.483Z</time></trkpt><trkpt lat="44.2692826" lon="10.6512193"><ele>1324.0</ele><time>2026-05-03T14:12:18.484Z</time></trkpt><trkpt lat="44.2693044" lon="10.6513378"><ele>1324.0</ele><time>2026-05-03T14:12:19.49Z</time></trkpt><trkpt lat="44.2693465" lon="10.6514515"><ele>1324.0</ele><time>2026-05-03T14:12:20.483Z</time></trkpt><trkpt lat="44.2694033" lon="10.6515877"><ele>1324.0</ele><time>2026-05-03T14:12:21.482Z</time></trkpt><trkpt lat="44.2694693" lon="10.6517289"><ele>1322.75</ele><time>2026-05-03T14:12:22.48Z</time></trkpt><trkpt lat="44.2695218" lon="10.6518852"><ele>1321.5</ele><time>2026-05-03T14:12:23.477Z</time></trkpt><trkpt lat="44.2695694" lon="10.6520301"><ele>1320.25</ele><time>2026-05-03T14:12:24.477Z</time></trkpt><trkpt lat="44.2696163" lon="10.6521626"><ele>1319.0</ele><time>2026-05-03T14:12:25.478Z</time></trkpt><trkpt lat="44.2696496" lon="10.652306"><ele>1316.4</ele><time>2026-05-03T14:12:26.484Z</time></trkpt><trkpt lat="44.2696601" lon="10.6524477"><ele>1313.8000000000002</ele><time>2026-05-03T14:12:27.482Z</time></trkpt><trkpt lat="44.2696559" lon="10.6525686"><ele>1311.1999999999998</ele><time>2026-05-03T14:12:28.48Z</time></trkpt><trkpt lat="44.2696331" lon="10.652695"><ele>1308.6</ele><time>2026-05-03T14:12:29.482Z</time></trkpt><trkpt lat="44.2695804" lon="10.6528162"><ele>1306.0</ele><time>2026-05-03T14:12:30.482Z</time></trkpt><trkpt lat="44.2695014" lon="10.6529388"><ele>1305.8</ele><time>2026-05-03T14:12:31.473Z</time></trkpt><trkpt lat="44.2694203" lon="10.6530403"><ele>1305.6</ele><time>2026-05-03T14:12:32.472Z</time></trkpt><trkpt lat="44.2693533" lon="10.6531603"><ele>1305.4</ele><time>2026-05-03T14:12:33.471Z</time></trkpt><trkpt lat="44.2693046" lon="10.6532813"><ele>1305.2</ele><time>2026-05-03T14:12:34.473Z</time></trkpt><trkpt lat="44.2692816" lon="10.6534047"><ele>1305.0</ele><time>2026-05-03T14:12:35.474Z</time></trkpt><trkpt lat="44.2692849" lon="10.6535487"><ele>1305.75</ele><time>2026-05-03T14:12:36.47Z</time></trkpt><trkpt lat="44.2693065" lon="10.6537045"><ele>1306.5</ele><time>2026-05-03T14:12:37.477Z</time></trkpt><trkpt lat="44.2693433" lon="10.6538648"><ele>1307.25</ele><time>2026-05-03T14:12:38.471Z</time></trkpt><trkpt lat="44.2693552" lon="10.6540147"><ele>1308.0</ele><time>2026-05-03T14:12:39.479Z</time></trkpt><trkpt lat="44.2693509" lon="10.6541722"><ele>1308.0</ele><time>2026-05-03T14:12:40.477Z</time></trkpt><trkpt lat="44.2693248" lon="10.6543332"><ele>1308.0</ele><time>2026-05-03T14:12:41.475Z</time></trkpt><trkpt lat="44.2692882" lon="10.6545089"><ele>1308.0</ele><time>2026-05-03T14:12:42.474Z</time></trkpt><trkpt lat="44.2692503" lon="10.6546755"><ele>1308.0</ele><time>2026-05-03T14:12:43.472Z</time></trkpt><trkpt lat="44.2692258" lon="10.6548327"><ele>1308.75</ele><time>2026-05-03T14:12:44.473Z</time></trkpt><trkpt lat="44.2692054" lon="10.6550071"><ele>1309.5</ele><time>2026-05-03T14:12:45.47Z</time></trkpt><trkpt lat="44.2691786" lon="10.6552001"><ele>1310.25</ele><time>2026-05-03T14:12:46.479Z</time></trkpt><trkpt lat="44.2691476" lon="10.6553944"><ele>1311.0</ele><time>2026-05-03T14:12:47.469Z</time></trkpt><trkpt lat="44.2691099" lon="10.6555875"><ele>1310.5</ele><time>2026-05-03T14:12:48.48Z</time></trkpt><trkpt lat="44.2690736" lon="10.655759"><ele>1310.0</ele><time>2026-05-03T14:12:49.486Z</time></trkpt><trkpt lat="44.2690326" lon="10.6559241"><ele>1309.5</ele><time>2026-05-03T14:12:50.483Z</time></trkpt><trkpt lat="44.2689803" lon="10.6560516"><ele>1309.0</ele><time>2026-05-03T14:12:51.476Z</time></trkpt><trkpt lat="44.2689091" lon="10.6561401"><ele>1309.0</ele><time>2026-05-03T14:12:52.471Z</time></trkpt><trkpt lat="44.2688325" lon="10.6562145"><ele>1309.0</ele><time>2026-05-03T14:12:53.477Z</time></trkpt><trkpt lat="44.2687504" lon="10.6562591"><ele>1309.0</ele><time>2026-05-03T14:12:54.472Z</time></trkpt><trkpt lat="44.2686793" lon="10.6562522"><ele>1309.0</ele><time>2026-05-03T14:12:55.487Z</time></trkpt><trkpt lat="44.2686135" lon="10.6561993"><ele>1309.0</ele><time>2026-05-03T14:13:11.496Z</time></trkpt><trkpt lat="44.2685557" lon="10.6562998"><ele>1309.0</ele><time>2026-05-03T14:13:14.485Z</time></trkpt><trkpt lat="44.2685275" lon="10.6563895"><ele>1309.0</ele><time>2026-05-03T14:13:15.479Z</time></trkpt><trkpt lat="44.2685086" lon="10.6564901"><ele>1309.0</ele><time>2026-05-03T14:13:16.486Z</time></trkpt><trkpt lat="44.2684923" lon="10.6565988"><ele>1309.0</ele><time>2026-05-03T14:13:17.485Z</time></trkpt><trkpt lat="44.2684836" lon="10.6567193"><ele>1309.0</ele><time>2026-05-03T14:13:18.48Z</time></trkpt><trkpt lat="44.2684849" lon="10.6568522"><ele>1309.0</ele><time>2026-05-03T14:13:19.485Z</time></trkpt><trkpt lat="44.2684871" lon="10.6569781"><ele>1309.0</ele><time>2026-05-03T14:13:20.477Z</time></trkpt><trkpt lat="44.268495" lon="10.6570832"><ele>1309.6</ele><time>2026-05-03T14:13:21.476Z</time></trkpt><trkpt lat="44.2685049" lon="10.6572294"><ele>1310.2</ele><time>2026-05-03T14:13:23.479Z</time></trkpt><trkpt lat="44.2685092" lon="10.6573537"><ele>1310.8</ele><time>2026-05-03T14:13:25.476Z</time></trkpt><trkpt lat="44.2684673" lon="10.6574941"><ele>1311.3999999999999</ele><time>2026-05-03T14:13:27.48Z</time></trkpt><trkpt lat="44.2684255" lon="10.6575794"><ele>1312.0</ele><time>2026-05-03T14:13:28.479Z</time></trkpt><trkpt lat="44.2683755" lon="10.6576692"><ele>1312.0</ele><time>2026-05-03T14:13:29.48Z</time></trkpt><trkpt lat="44.2683251" lon="10.6577612"><ele>1312.0</ele><time>2026-05-03T14:13:30.48Z</time></trkpt><trkpt lat="44.2682843" lon="10.6578567"><ele>1312.0</ele><time>2026-05-03T14:13:31.481Z</time></trkpt><trkpt lat="44.268249" lon="10.6579357"><ele>1312.0</ele><time>2026-05-03T14:13:32.478Z</time></trkpt><trkpt lat="44.2682389" lon="10.6581003"><ele>1312.0</ele><time>2026-05-03T14:13:34.481Z</time></trkpt><trkpt lat="44.2682473" lon="10.6582068"><ele>1312.0</ele><time>2026-05-03T14:13:35.481Z</time></trkpt><trkpt lat="44.2682618" lon="10.6583333"><ele>1312.6666666666665</ele><time>2026-05-03T14:13:36.484Z</time></trkpt><trkpt lat="44.2682719" lon="10.6584677"><ele>1313.3333333333333</ele><time>2026-05-03T14:13:37.487Z</time></trkpt><trkpt lat="44.2682771" lon="10.6586038"><ele>1314.0</ele><time>2026-05-03T14:13:38.491Z</time></trkpt><trkpt lat="44.2682741" lon="10.6587241"><ele>1314.6666666666667</ele><time>2026-05-03T14:13:39.492Z</time></trkpt><trkpt lat="44.2682697" lon="10.6588407"><ele>1315.3333333333335</ele><time>2026-05-03T14:13:40.489Z</time></trkpt><trkpt lat="44.268272" lon="10.658957"><ele>1316.0</ele><time>2026-05-03T14:13:41.491Z</time></trkpt><trkpt lat="44.268275" lon="10.65907"><ele>1314.6666666666667</ele><time>2026-05-03T14:13:42.486Z</time></trkpt><trkpt lat="44.2682607" lon="10.6591769"><ele>1313.3333333333335</ele><time>2026-05-03T14:13:43.49Z</time></trkpt><trkpt lat="44.2682459" lon="10.6592753"><ele>1312.0</ele><time>2026-05-03T14:13:44.494Z</time></trkpt><trkpt lat="44.2682462" lon="10.6594045"><ele>1310.6666666666667</ele><time>2026-05-03T14:13:46.491Z</time></trkpt><trkpt lat="44.2683036" lon="10.6595165"><ele>1309.3333333333333</ele><time>2026-05-03T14:13:48.493Z</time></trkpt><trkpt lat="44.2683551" lon="10.6595757"><ele>1308.0</ele><time>2026-05-03T14:13:49.494Z</time></trkpt><trkpt lat="44.2684185" lon="10.6596365"><ele>1306.0</ele><time>2026-05-03T14:13:50.487Z</time></trkpt><trkpt lat="44.2684785" lon="10.659676"><ele>1304.0</ele><time>2026-05-03T14:13:51.487Z</time></trkpt><trkpt lat="44.2685709" lon="10.6597112"><ele>1302.0</ele><time>2026-05-03T14:13:53.483Z</time></trkpt><trkpt lat="44.2686181" lon="10.6598072"><ele>1300.0</ele><time>2026-05-03T14:13:55.48Z</time></trkpt><trkpt lat="44.2686241" lon="10.6599917"><ele>1298.0</ele><time>2026-05-03T14:13:57.488Z</time></trkpt><trkpt lat="44.2685943" lon="10.6600858"><ele>1298.0</ele><time>2026-05-03T14:13:58.482Z</time></trkpt><trkpt lat="44.2685358" lon="10.6602096"><ele>1298.0</ele><time>2026-05-03T14:14:00.472Z</time></trkpt><trkpt lat="44.2685231" lon="10.6603245"><ele>1298.0</ele><time>2026-05-03T14:14:02.477Z</time></trkpt><trkpt lat="44.2685473" lon="10.6604175"><ele>1298.0</ele><time>2026-05-03T14:14:03.473Z</time></trkpt><trkpt lat="44.2685925" lon="10.6605192"><ele>1298.0</ele><time>2026-05-03T14:14:04.474Z</time></trkpt><trkpt lat="44.2686255" lon="10.6606429"><ele>1298.0</ele><time>2026-05-03T14:14:05.472Z</time></trkpt><trkpt lat="44.2686535" lon="10.6607544"><ele>1297.3333333333335</ele><time>2026-05-03T14:14:06.476Z</time></trkpt><trkpt lat="44.2686657" lon="10.6608607"><ele>1296.6666666666667</ele><time>2026-05-03T14:14:07.472Z</time></trkpt><trkpt lat="44.2686747" lon="10.6609686"><ele>1296.0</ele><time>2026-05-03T14:14:09.479Z</time></trkpt><trkpt lat="44.2686623" lon="10.6611019"><ele>1295.3333333333333</ele><time>2026-05-03T14:14:15.477Z</time></trkpt><trkpt lat="44.2686637" lon="10.66119"><ele>1294.6666666666665</ele><time>2026-05-03T14:14:16.477Z</time></trkpt><trkpt lat="44.2686701" lon="10.6612971"><ele>1294.0</ele><time>2026-05-03T14:14:17.476Z</time></trkpt><trkpt lat="44.2686766" lon="10.6613987"><ele>1293.5714285714284</ele><time>2026-05-03T14:14:18.474Z</time></trkpt><trkpt lat="44.2686787" lon="10.6614959"><ele>1293.142857142857</ele><time>2026-05-03T14:14:19.481Z</time></trkpt><trkpt lat="44.2686812" lon="10.6615884"><ele>1292.7142857142858</ele><time>2026-05-03T14:14:20.476Z</time></trkpt><trkpt lat="44.2686866" lon="10.6616927"><ele>1292.2857142857142</ele><time>2026-05-03T14:14:21.477Z</time></trkpt><trkpt lat="44.2686936" lon="10.6617934"><ele>1291.857142857143</ele><time>2026-05-03T14:14:22.478Z</time></trkpt><trkpt lat="44.2686996" lon="10.6618896"><ele>1291.4285714285713</ele><time>2026-05-03T14:14:23.485Z</time></trkpt><trkpt lat="44.2687143" lon="10.6619902"><ele>1291.0</ele><time>2026-05-03T14:14:24.482Z</time></trkpt><trkpt lat="44.2687424" lon="10.6620803"><ele>1288.0</ele><time>2026-05-03T14:14:25.484Z</time></trkpt><trkpt lat="44.2687765" lon="10.6621548"><ele>1285.0</ele><time>2026-05-03T14:14:26.487Z</time></trkpt><trkpt lat="44.2688106" lon="10.6622415"><ele>1282.0</ele><time>2026-05-03T14:14:27.486Z</time></trkpt><trkpt lat="44.2688435" lon="10.6623281"><ele>1279.0</ele><time>2026-05-03T14:14:28.48Z</time></trkpt><trkpt lat="44.2688517" lon="10.6624948"><ele>1276.0</ele><time>2026-05-03T14:14:30.481Z</time></trkpt><trkpt lat="44.268814" lon="10.6626428"><ele>1273.0</ele><time>2026-05-03T14:14:32.485Z</time></trkpt><trkpt lat="44.2687879" lon="10.6627475"><ele>1269.8333333333333</ele><time>2026-05-03T14:14:34.48Z</time></trkpt><trkpt lat="44.2687711" lon="10.6628557"><ele>1266.6666666666665</ele><time>2026-05-03T14:14:36.479Z</time></trkpt><trkpt lat="44.2688185" lon="10.662922"><ele>1263.5</ele><time>2026-05-03T14:14:38.484Z</time></trkpt><trkpt lat="44.2688426" lon="10.6630676"><ele>1260.3333333333333</ele><time>2026-05-03T14:14:40.481Z</time></trkpt><trkpt lat="44.2688633" lon="10.6631959"><ele>1257.1666666666667</ele><time>2026-05-03T14:14:42.484Z</time></trkpt><trkpt lat="44.2688981" lon="10.6632891"><ele>1254.0</ele><time>2026-05-03T14:14:44.492Z</time></trkpt><trkpt lat="44.2689582" lon="10.6633271"><ele>1254.0</ele><time>2026-05-03T14:14:47.487Z</time></trkpt><trkpt lat="44.2690321" lon="10.6633069"><ele>1254.0</ele><time>2026-05-03T14:14:49.487Z</time></trkpt><trkpt lat="44.2691226" lon="10.6632407"><ele>1254.0</ele><time>2026-05-03T14:14:51.485Z</time></trkpt><trkpt lat="44.2692115" lon="10.6631421"><ele>1254.0</ele><time>2026-05-03T14:14:53.49Z</time></trkpt><trkpt lat="44.2693033" lon="10.6630453"><ele>1254.0</ele><time>2026-05-03T14:14:55.493Z</time></trkpt><trkpt lat="44.2693672" lon="10.6629415"><ele>1254.0</ele><time>2026-05-03T14:14:57.488Z</time></trkpt><trkpt lat="44.269436" lon="10.6628103"><ele>1254.0</ele><time>2026-05-03T14:14:59.489Z</time></trkpt><trkpt lat="44.2694876" lon="10.6627514"><ele>1254.0</ele><time>2026-05-03T14:15:00.475Z</time></trkpt><trkpt lat="44.2695379" lon="10.6626935"><ele>1254.0</ele><time>2026-05-03T14:15:01.484Z</time></trkpt><trkpt lat="44.2695905" lon="10.6626277"><ele>1254.0</ele><time>2026-05-03T14:15:02.474Z</time></trkpt><trkpt lat="44.2696423" lon="10.6625612"><ele>1254.0</ele><time>2026-05-03T14:15:03.48Z</time></trkpt><trkpt lat="44.269691" lon="10.6625047"><ele>1253.2</ele><time>2026-05-03T14:15:04.473Z</time></trkpt><trkpt lat="44.2697679" lon="10.6624707"><ele>1252.4</ele><time>2026-05-03T14:15:06.48Z</time></trkpt><trkpt lat="44.2698489" lon="10.6625583"><ele>1251.6</ele><time>2026-05-03T14:15:08.477Z</time></trkpt><trkpt lat="44.2699412" lon="10.6626759"><ele>1250.8</ele><time>2026-05-03T14:15:10.474Z</time></trkpt><trkpt lat="44.2700322" lon="10.6627919"><ele>1250.0</ele><time>2026-05-03T14:15:12.48Z</time></trkpt><trkpt lat="44.2700753" lon="10.6628763"><ele>1247.857142857143</ele><time>2026-05-03T14:15:13.483Z</time></trkpt><trkpt lat="44.2701031" lon="10.6629849"><ele>1245.7142857142858</ele><time>2026-05-03T14:15:14.481Z</time></trkpt><trkpt lat="44.2701318" lon="10.663099"><ele>1243.5714285714284</ele><time>2026-05-03T14:15:15.484Z</time></trkpt><trkpt lat="44.2701631" lon="10.6632012"><ele>1241.4285714285716</ele><time>2026-05-03T14:15:16.467Z</time></trkpt><trkpt lat="44.2701924" lon="10.6632821"><ele>1239.2857142857142</ele><time>2026-05-03T14:15:17.49Z</time></trkpt><trkpt lat="44.2702066" lon="10.6633688"><ele>1237.142857142857</ele><time>2026-05-03T14:15:18.477Z</time></trkpt><trkpt lat="44.2702271" lon="10.6634548"><ele>1235.0</ele><time>2026-05-03T14:15:19.479Z</time></trkpt><trkpt lat="44.2702647" lon="10.6635441"><ele>1232.6666666666667</ele><time>2026-05-03T14:15:20.479Z</time></trkpt><trkpt lat="44.270304" lon="10.6636363"><ele>1230.3333333333335</ele><time>2026-05-03T14:15:21.486Z</time></trkpt><trkpt lat="44.270335" lon="10.6637476"><ele>1228.0</ele><time>2026-05-03T14:15:22.481Z</time></trkpt><trkpt lat="44.2703629" lon="10.6638503"><ele>1225.6666666666667</ele><time>2026-05-03T14:15:23.481Z</time></trkpt><trkpt lat="44.2703943" lon="10.6639557"><ele>1223.3333333333333</ele><time>2026-05-03T14:15:24.481Z</time></trkpt><trkpt lat="44.2704264" lon="10.6640635"><ele>1221.0</ele><time>2026-05-03T14:15:25.476Z</time></trkpt><trkpt lat="44.2704565" lon="10.6641587"><ele>1221.0</ele><time>2026-05-03T14:15:26.479Z</time></trkpt><trkpt lat="44.2704809" lon="10.6643046"><ele>1221.0</ele><time>2026-05-03T14:15:28.471Z</time></trkpt><trkpt lat="44.2704416" lon="10.664465"><ele>1221.0</ele><time>2026-05-03T14:15:30.48Z</time></trkpt><trkpt lat="44.2704632" lon="10.6645804"><ele>1221.0</ele><time>2026-05-03T14:15:32.479Z</time></trkpt><trkpt lat="44.2705301" lon="10.6645797"><ele>1221.0</ele><time>2026-05-03T14:15:35.481Z</time></trkpt><trkpt lat="44.270594" lon="10.6644543"><ele>1220.1666666666667</ele><time>2026-05-03T14:15:37.471Z</time></trkpt><trkpt lat="44.2706771" lon="10.6643741"><ele>1219.3333333333333</ele><time>2026-05-03T14:15:39.474Z</time></trkpt><trkpt lat="44.2707648" lon="10.6644182"><ele>1218.5</ele><time>2026-05-03T14:15:41.469Z</time></trkpt><trkpt lat="44.2708072" lon="10.664498"><ele>1217.6666666666665</ele><time>2026-05-03T14:15:42.479Z</time></trkpt><trkpt lat="44.2708489" lon="10.6645911"><ele>1216.8333333333333</ele><time>2026-05-03T14:15:43.465Z</time></trkpt><trkpt lat="44.2708885" lon="10.6646998"><ele>1216.0</ele><time>2026-05-03T14:15:44.475Z</time></trkpt><trkpt lat="44.2709239" lon="10.6648155"><ele>1216.0</ele><time>2026-05-03T14:15:45.483Z</time></trkpt><trkpt lat="44.270949" lon="10.6649464"><ele>1216.0</ele><time>2026-05-03T14:15:46.473Z</time></trkpt><trkpt lat="44.2709783" lon="10.6650882"><ele>1216.0</ele><time>2026-05-03T14:15:47.479Z</time></trkpt><trkpt lat="44.2710126" lon="10.6652266"><ele>1216.0</ele><time>2026-05-03T14:15:48.479Z</time></trkpt><trkpt lat="44.2710358" lon="10.6653584"><ele>1216.0</ele><time>2026-05-03T14:15:49.485Z</time></trkpt><trkpt lat="44.2710552" lon="10.6654845"><ele>1213.6666666666665</ele><time>2026-05-03T14:15:50.482Z</time></trkpt><trkpt lat="44.2710686" lon="10.6655936"><ele>1211.3333333333333</ele><time>2026-05-03T14:15:51.479Z</time></trkpt><trkpt lat="44.2710784" lon="10.6656907"><ele>1209.0</ele><time>2026-05-03T14:15:52.478Z</time></trkpt><trkpt lat="44.2710894" lon="10.6657786"><ele>1206.6666666666667</ele><time>2026-05-03T14:15:53.479Z</time></trkpt><trkpt lat="44.2711127" lon="10.6659682"><ele>1204.3333333333335</ele><time>2026-05-03T14:15:55.481Z</time></trkpt><trkpt lat="44.2711342" lon="10.6660737"><ele>1202.0</ele><time>2026-05-03T14:15:56.483Z</time></trkpt><trkpt lat="44.2711555" lon="10.6661717"><ele>1199.5</ele><time>2026-05-03T14:15:57.474Z</time></trkpt><trkpt lat="44.271172" lon="10.6662679"><ele>1197.0</ele><time>2026-05-03T14:15:58.48Z</time></trkpt><trkpt lat="44.2712423" lon="10.6663668"><ele>1194.5</ele><time>2026-05-03T14:16:00.48Z</time></trkpt><trkpt lat="44.2712925" lon="10.6664556"><ele>1192.0</ele><time>2026-05-03T14:16:04.472Z</time></trkpt><trkpt lat="44.2713262" lon="10.6665507"><ele>1189.5</ele><time>2026-05-03T14:16:06.475Z</time></trkpt><trkpt lat="44.2713674" lon="10.6666704"><ele>1187.0</ele><time>2026-05-03T14:16:08.474Z</time></trkpt><trkpt lat="44.2713866" lon="10.6668226"><ele>1187.0</ele><time>2026-05-03T14:16:10.473Z</time></trkpt><trkpt lat="44.2713454" lon="10.6669"><ele>1187.0</ele><time>2026-05-03T14:16:11.471Z</time></trkpt><trkpt lat="44.2713073" lon="10.6669727"><ele>1187.0</ele><time>2026-05-03T14:16:12.476Z</time></trkpt><trkpt lat="44.2712737" lon="10.6670559"><ele>1187.0</ele><time>2026-05-03T14:16:13.469Z</time></trkpt><trkpt lat="44.2712525" lon="10.6672054"><ele>1187.0</ele><time>2026-05-03T14:16:15.48Z</time></trkpt><trkpt lat="44.2713096" lon="10.6673579"><ele>1187.0</ele><time>2026-05-03T14:16:17.479Z</time></trkpt><trkpt lat="44.2713645" lon="10.6674162"><ele>1186.4</ele><time>2026-05-03T14:16:18.476Z</time></trkpt><trkpt lat="44.2714735" lon="10.667517"><ele>1185.8000000000002</ele><time>2026-05-03T14:16:20.472Z</time></trkpt><trkpt lat="44.2715345" lon="10.6675886"><ele>1185.2</ele><time>2026-05-03T14:16:21.472Z</time></trkpt><trkpt lat="44.2715945" lon="10.6676724"><ele>1184.6000000000001</ele><time>2026-05-03T14:16:22.474Z</time></trkpt><trkpt lat="44.271652" lon="10.6677611"><ele>1184.0</ele><time>2026-05-03T14:16:23.479Z</time></trkpt><trkpt lat="44.2717132" lon="10.6678515"><ele>1182.2</ele><time>2026-05-03T14:16:24.478Z</time></trkpt><trkpt lat="44.2717785" lon="10.6679504"><ele>1180.4</ele><time>2026-05-03T14:16:25.473Z</time></trkpt><trkpt lat="44.2718497" lon="10.66805"><ele>1178.6</ele><time>2026-05-03T14:16:26.481Z</time></trkpt><trkpt lat="44.2719096" lon="10.6681604"><ele>1176.8</ele><time>2026-05-03T14:16:27.475Z</time></trkpt><trkpt lat="44.2719682" lon="10.6682854"><ele>1175.0</ele><time>2026-05-03T14:16:28.477Z</time></trkpt><trkpt lat="44.27202" lon="10.6684025"><ele>1175.0</ele><time>2026-05-03T14:16:29.481Z</time></trkpt><trkpt lat="44.272069" lon="10.6685376"><ele>1175.0</ele><time>2026-05-03T14:16:30.473Z</time></trkpt><trkpt lat="44.2721156" lon="10.6686795"><ele>1175.0</ele><time>2026-05-03T14:16:31.475Z</time></trkpt><trkpt lat="44.2721576" lon="10.6687958"><ele>1175.0</ele><time>2026-05-03T14:16:32.473Z</time></trkpt><trkpt lat="44.2721893" lon="10.6688952"><ele>1175.0</ele><time>2026-05-03T14:16:33.472Z</time></trkpt><trkpt lat="44.2722105" lon="10.6689877"><ele>1175.4</ele><time>2026-05-03T14:16:34.463Z</time></trkpt><trkpt lat="44.2722351" lon="10.6691305"><ele>1175.8</ele><time>2026-05-03T14:16:36.467Z</time></trkpt><trkpt lat="44.272249" lon="10.669268"><ele>1176.2</ele><time>2026-05-03T14:16:39.475Z</time></trkpt><trkpt lat="44.2723266" lon="10.6694042"><ele>1176.6</ele><time>2026-05-03T14:16:41.48Z</time></trkpt><trkpt lat="44.2724003" lon="10.6694963"><ele>1177.0</ele><time>2026-05-03T14:16:42.477Z</time></trkpt><trkpt lat="44.2724876" lon="10.6695963"><ele>1177.0</ele><time>2026-05-03T14:16:43.48Z</time></trkpt><trkpt lat="44.2725749" lon="10.6697002"><ele>1177.0</ele><time>2026-05-03T14:16:44.479Z</time></trkpt><trkpt lat="44.2726587" lon="10.6698132"><ele>1177.0</ele><time>2026-05-03T14:16:45.47Z</time></trkpt><trkpt lat="44.272721" lon="10.6699477"><ele>1177.0</ele><time>2026-05-03T14:16:46.476Z</time></trkpt><trkpt lat="44.2727546" lon="10.6701107"><ele>1177.5</ele><time>2026-05-03T14:16:47.478Z</time></trkpt><trkpt lat="44.272759" lon="10.6702939"><ele>1178.0</ele><time>2026-05-03T14:16:48.47Z</time></trkpt><trkpt lat="44.2727583" lon="10.6704859"><ele>1178.5</ele><time>2026-05-03T14:16:49.471Z</time></trkpt><trkpt lat="44.2727477" lon="10.670691"><ele>1179.0</ele><time>2026-05-03T14:16:50.474Z</time></trkpt><trkpt lat="44.272738" lon="10.6708953"><ele>1179.0</ele><time>2026-05-03T14:16:51.474Z</time></trkpt><trkpt lat="44.2727344" lon="10.6710943"><ele>1179.0</ele><time>2026-05-03T14:16:52.473Z</time></trkpt><trkpt lat="44.2727291" lon="10.671299"><ele>1179.0</ele><time>2026-05-03T14:16:53.481Z</time></trkpt><trkpt lat="44.2727401" lon="10.6714831"><ele>1179.0</ele><time>2026-05-03T14:16:54.481Z</time></trkpt><trkpt lat="44.2727684" lon="10.6716358"><ele>1179.4</ele><time>2026-05-03T14:16:55.483Z</time></trkpt><trkpt lat="44.2728213" lon="10.6717649"><ele>1179.8000000000002</ele><time>2026-05-03T14:16:56.481Z</time></trkpt><trkpt lat="44.2728997" lon="10.6718389"><ele>1180.1999999999998</ele><time>2026-05-03T14:16:57.477Z</time></trkpt><trkpt lat="44.2729825" lon="10.6718471"><ele>1180.6</ele><time>2026-05-03T14:16:58.482Z</time></trkpt><trkpt lat="44.2730509" lon="10.671789"><ele>1181.0</ele><time>2026-05-03T14:16:59.479Z</time></trkpt><trkpt lat="44.2731025" lon="10.6716767"><ele>1189.25</ele><time>2026-05-03T14:17:00.475Z</time></trkpt><trkpt lat="44.2731235" lon="10.6715282"><ele>1197.5</ele><time>2026-05-03T14:17:01.47Z</time></trkpt><trkpt lat="44.2731249" lon="10.6713672"><ele>1205.75</ele><time>2026-05-03T14:17:02.475Z</time></trkpt><trkpt lat="44.2731103" lon="10.671195"><ele>1214.0</ele><time>2026-05-03T14:17:03.476Z</time></trkpt><trkpt lat="44.2731234" lon="10.6710173"><ele>1214.0</ele><time>2026-05-03T14:17:04.479Z</time></trkpt><trkpt lat="44.2731615" lon="10.6708273"><ele>1214.0</ele><time>2026-05-03T14:17:05.478Z</time></trkpt><trkpt lat="44.2732052" lon="10.670638"><ele>1214.0</ele><time>2026-05-03T14:17:06.468Z</time></trkpt><trkpt lat="44.2732461" lon="10.6704503"><ele>1214.0</ele><time>2026-05-03T14:17:07.475Z</time></trkpt><trkpt lat="44.2732648" lon="10.670245"><ele>1213.3333333333335</ele><time>2026-05-03T14:17:08.473Z</time></trkpt><trkpt lat="44.2732678" lon="10.6700346"><ele>1212.6666666666667</ele><time>2026-05-03T14:17:09.472Z</time></trkpt><trkpt lat="44.2732738" lon="10.6698143"><ele>1212.0</ele><time>2026-05-03T14:17:10.47Z</time></trkpt><trkpt lat="44.2732712" lon="10.6696015"><ele>1214.3333333333333</ele><time>2026-05-03T14:17:11.466Z</time></trkpt><trkpt lat="44.2732587" lon="10.6693762"><ele>1216.6666666666665</ele><time>2026-05-03T14:17:12.469Z</time></trkpt><trkpt lat="44.273252" lon="10.669164"><ele>1219.0</ele><time>2026-05-03T14:17:13.466Z</time></trkpt><trkpt lat="44.2732209" lon="10.6689573"><ele>1219.0</ele><time>2026-05-03T14:17:14.475Z</time></trkpt><trkpt lat="44.2731704" lon="10.668771"><ele>1219.0</ele><time>2026-05-03T14:17:15.469Z</time></trkpt><trkpt lat="44.2730994" lon="10.6686029"><ele>1219.0</ele><time>2026-05-03T14:17:16.465Z</time></trkpt><trkpt lat="44.2730252" lon="10.668465"><ele>1219.0</ele><time>2026-05-03T14:17:17.472Z</time></trkpt><trkpt lat="44.2729614" lon="10.6683344"><ele>1221.4</ele><time>2026-05-03T14:17:18.475Z</time></trkpt><trkpt lat="44.272912" lon="10.6682106"><ele>1223.8000000000002</ele><time>2026-05-03T14:17:19.471Z</time></trkpt><trkpt lat="44.2729208" lon="10.6680972"><ele>1226.1999999999998</ele><time>2026-05-03T14:17:20.476Z</time></trkpt><trkpt lat="44.2729776" lon="10.6680147"><ele>1228.6</ele><time>2026-05-03T14:17:21.472Z</time></trkpt><trkpt lat="44.2730689" lon="10.6680184"><ele>1231.0</ele><time>2026-05-03T14:17:22.476Z</time></trkpt><trkpt lat="44.2731607" lon="10.6680637"><ele>1231.0</ele><time>2026-05-03T14:17:23.469Z</time></trkpt><trkpt lat="44.2732496" lon="10.6681403"><ele>1231.0</ele><time>2026-05-03T14:17:24.468Z</time></trkpt><trkpt lat="44.2733456" lon="10.6682441"><ele>1231.0</ele><time>2026-05-03T14:17:25.474Z</time></trkpt><trkpt lat="44.2734315" lon="10.6684047"><ele>1231.0</ele><time>2026-05-03T14:17:26.465Z</time></trkpt><trkpt lat="44.2734959" lon="10.668592"><ele>1228.0</ele><time>2026-05-03T14:17:27.464Z</time></trkpt><trkpt lat="44.2735388" lon="10.6687924"><ele>1225.0</ele><time>2026-05-03T14:17:28.464Z</time></trkpt><trkpt lat="44.2735811" lon="10.6689829"><ele>1222.0</ele><time>2026-05-03T14:17:29.469Z</time></trkpt><trkpt lat="44.2736338" lon="10.6691405"><ele>1219.0</ele><time>2026-05-03T14:17:30.473Z</time></trkpt><trkpt lat="44.2737004" lon="10.6692681"><ele>1219.0</ele><time>2026-05-03T14:17:31.469Z</time></trkpt><trkpt lat="44.273789" lon="10.6693808"><ele>1219.0</ele><time>2026-05-03T14:17:32.466Z</time></trkpt><trkpt lat="44.2738943" lon="10.6695115"><ele>1219.0</ele><time>2026-05-03T14:17:33.472Z</time></trkpt><trkpt lat="44.2739998" lon="10.6696596"><ele>1219.0</ele><time>2026-05-03T14:17:34.467Z</time></trkpt><trkpt lat="44.2740917" lon="10.6698478"><ele>1226.3333333333333</ele><time>2026-05-03T14:17:35.468Z</time></trkpt><trkpt lat="44.2741671" lon="10.6700418"><ele>1233.6666666666667</ele><time>2026-05-03T14:17:36.474Z</time></trkpt><trkpt lat="44.2742385" lon="10.6702489"><ele>1241.0</ele><time>2026-05-03T14:17:37.469Z</time></trkpt><trkpt lat="44.274319" lon="10.670429"><ele>1241.0</ele><time>2026-05-03T14:17:38.473Z</time></trkpt><trkpt lat="44.2744167" lon="10.6705865"><ele>1241.0</ele><time>2026-05-03T14:17:39.475Z</time></trkpt><trkpt lat="44.2745234" lon="10.6707331"><ele>1241.0</ele><time>2026-05-03T14:17:40.473Z</time></trkpt><trkpt lat="44.274638" lon="10.670869"><ele>1241.0</ele><time>2026-05-03T14:17:41.474Z</time></trkpt><trkpt lat="44.274762" lon="10.6709849"><ele>1242.5</ele><time>2026-05-03T14:17:42.473Z</time></trkpt><trkpt lat="44.2748745" lon="10.6711069"><ele>1244.0</ele><time>2026-05-03T14:17:43.476Z</time></trkpt><trkpt lat="44.2749682" lon="10.671247"><ele>1245.5</ele><time>2026-05-03T14:17:44.468Z</time></trkpt><trkpt lat="44.2750748" lon="10.6713718"><ele>1247.0</ele><time>2026-05-03T14:17:45.464Z</time></trkpt><trkpt lat="44.2751839" lon="10.6714532"><ele>1247.0</ele><time>2026-05-03T14:17:46.469Z</time></trkpt><trkpt lat="44.275315" lon="10.6715075"><ele>1247.0</ele><time>2026-05-03T14:17:47.474Z</time></trkpt><trkpt lat="44.2754457" lon="10.6716037"><ele>1247.0</ele><time>2026-05-03T14:17:48.477Z</time></trkpt><trkpt lat="44.2755664" lon="10.6716934"><ele>1247.0</ele><time>2026-05-03T14:17:49.474Z</time></trkpt><trkpt lat="44.2756844" lon="10.6718008"><ele>1249.0</ele><time>2026-05-03T14:17:50.484Z</time></trkpt><trkpt lat="44.2758123" lon="10.6719086"><ele>1251.0</ele><time>2026-05-03T14:17:51.477Z</time></trkpt><trkpt lat="44.2759299" lon="10.6720379"><ele>1253.0</ele><time>2026-05-03T14:17:52.469Z</time></trkpt><trkpt lat="44.2760339" lon="10.6721723"><ele>1255.0</ele><time>2026-05-03T14:17:53.472Z</time></trkpt><trkpt lat="44.2761265" lon="10.6723012"><ele>1255.0</ele><time>2026-05-03T14:17:54.472Z</time></trkpt><trkpt lat="44.2761769" lon="10.6724747"><ele>1255.0</ele><time>2026-05-03T14:17:55.475Z</time></trkpt><trkpt lat="44.2762128" lon="10.6726769"><ele>1255.0</ele><time>2026-05-03T14:17:56.474Z</time></trkpt><trkpt lat="44.2762233" lon="10.6728882"><ele>1255.0</ele><time>2026-05-03T14:17:57.471Z</time></trkpt><trkpt lat="44.2762468" lon="10.6731034"><ele>1254.25</ele><time>2026-05-03T14:17:58.477Z</time></trkpt><trkpt lat="44.2762811" lon="10.6732956"><ele>1253.5</ele><time>2026-05-03T14:17:59.476Z</time></trkpt><trkpt lat="44.2763279" lon="10.673462"><ele>1252.75</ele><time>2026-05-03T14:18:00.477Z</time></trkpt><trkpt lat="44.2763795" lon="10.6735964"><ele>1252.0</ele><time>2026-05-03T14:18:01.474Z</time></trkpt><trkpt lat="44.2764353" lon="10.6737003"><ele>1257.25</ele><time>2026-05-03T14:18:02.477Z</time></trkpt><trkpt lat="44.2765168" lon="10.6737674"><ele>1262.5</ele><time>2026-05-03T14:18:03.48Z</time></trkpt><trkpt lat="44.2766422" lon="10.6737704"><ele>1267.75</ele><time>2026-05-03T14:18:04.472Z</time></trkpt><trkpt lat="44.2767879" lon="10.673741"><ele>1273.0</ele><time>2026-05-03T14:18:05.474Z</time></trkpt><trkpt lat="44.2769464" lon="10.6737"><ele>1273.0</ele><time>2026-05-03T14:18:06.471Z</time></trkpt><trkpt lat="44.277115" lon="10.6736646"><ele>1273.0</ele><time>2026-05-03T14:18:07.467Z</time></trkpt><trkpt lat="44.2772815" lon="10.6736403"><ele>1273.0</ele><time>2026-05-03T14:18:08.471Z</time></trkpt><trkpt lat="44.2774505" lon="10.6736191"><ele>1271.0</ele><time>2026-05-03T14:18:09.469Z</time></trkpt><trkpt lat="44.2776007" lon="10.6736146"><ele>1269.0</ele><time>2026-05-03T14:18:10.469Z</time></trkpt><trkpt lat="44.2777376" lon="10.6736189"><ele>1267.0</ele><time>2026-05-03T14:18:11.471Z</time></trkpt><trkpt lat="44.2778518" lon="10.6736169"><ele>1265.0</ele><time>2026-05-03T14:18:12.469Z</time></trkpt><trkpt lat="44.2779573" lon="10.6735646"><ele>1266.0</ele><time>2026-05-03T14:18:13.466Z</time></trkpt><trkpt lat="44.2780508" lon="10.6734056"><ele>1267.0</ele><time>2026-05-03T14:18:14.474Z</time></trkpt><trkpt lat="44.2781348" lon="10.6732352"><ele>1268.0</ele><time>2026-05-03T14:18:15.472Z</time></trkpt><trkpt lat="44.2781992" lon="10.6730853"><ele>1269.0</ele><time>2026-05-03T14:18:16.468Z</time></trkpt><trkpt lat="44.278238" lon="10.6729237"><ele>1269.75</ele><time>2026-05-03T14:18:17.469Z</time></trkpt><trkpt lat="44.2782553" lon="10.6727496"><ele>1270.5</ele><time>2026-05-03T14:18:18.467Z</time></trkpt><trkpt lat="44.2782596" lon="10.6725673"><ele>1271.25</ele><time>2026-05-03T14:18:19.471Z</time></trkpt><trkpt lat="44.2782666" lon="10.672356"><ele>1272.0</ele><time>2026-05-03T14:18:20.466Z</time></trkpt><trkpt lat="44.2782978" lon="10.6721434"><ele>1273.6666666666667</ele><time>2026-05-03T14:18:21.474Z</time></trkpt><trkpt lat="44.2783582" lon="10.671929"><ele>1275.3333333333335</ele><time>2026-05-03T14:18:22.471Z</time></trkpt><trkpt lat="44.2784138" lon="10.6717216"><ele>1277.0</ele><time>2026-05-03T14:18:23.47Z</time></trkpt><trkpt lat="44.2784625" lon="10.6715346"><ele>1277.0</ele><time>2026-05-03T14:18:24.472Z</time></trkpt><trkpt lat="44.2784871" lon="10.671356"><ele>1277.0</ele><time>2026-05-03T14:18:25.47Z</time></trkpt><trkpt lat="44.2785099" lon="10.6711714"><ele>1277.0</ele><time>2026-05-03T14:18:26.466Z</time></trkpt><trkpt lat="44.2785373" lon="10.6710311"><ele>1277.0</ele><time>2026-05-03T14:18:27.47Z</time></trkpt><trkpt lat="44.2785959" lon="10.6709245"><ele>1278.0</ele><time>2026-05-03T14:18:28.468Z</time></trkpt><trkpt lat="44.278705" lon="10.6708541"><ele>1279.0</ele><time>2026-05-03T14:18:29.466Z</time></trkpt><trkpt lat="44.2787849" lon="10.6707771"><ele>1280.0</ele><time>2026-05-03T14:18:30.469Z</time></trkpt><trkpt lat="44.2788619" lon="10.6706478"><ele>1281.0</ele><time>2026-05-03T14:18:31.472Z</time></trkpt><trkpt lat="44.2789299" lon="10.6704997"><ele>1281.0</ele><time>2026-05-03T14:18:32.477Z</time></trkpt><trkpt lat="44.2790019" lon="10.6703444"><ele>1281.0</ele><time>2026-05-03T14:18:33.476Z</time></trkpt><trkpt lat="44.2790813" lon="10.6701934"><ele>1281.0</ele><time>2026-05-03T14:18:34.476Z</time></trkpt><trkpt lat="44.2791563" lon="10.6700228"><ele>1281.0</ele><time>2026-05-03T14:18:35.471Z</time></trkpt><trkpt lat="44.2792178" lon="10.6698511"><ele>1281.0</ele><time>2026-05-03T14:18:36.476Z</time></trkpt><trkpt lat="44.2792767" lon="10.6696734"><ele>1281.0</ele><time>2026-05-03T14:18:37.473Z</time></trkpt><trkpt lat="44.2793239" lon="10.6694902"><ele>1281.0</ele><time>2026-05-03T14:18:38.469Z</time></trkpt><trkpt lat="44.2793579" lon="10.6692983"><ele>1281.0</ele><time>2026-05-03T14:18:39.473Z</time></trkpt><trkpt lat="44.2793822" lon="10.6690885"><ele>1282.5</ele><time>2026-05-03T14:18:40.473Z</time></trkpt><trkpt lat="44.2793853" lon="10.6688732"><ele>1284.0</ele><time>2026-05-03T14:18:41.478Z</time></trkpt><trkpt lat="44.2793975" lon="10.6686779"><ele>1285.5</ele><time>2026-05-03T14:18:42.474Z</time></trkpt><trkpt lat="44.2794383" lon="10.6684885"><ele>1287.0</ele><time>2026-05-03T14:18:43.475Z</time></trkpt><trkpt lat="44.2795088" lon="10.6683408"><ele>1289.5</ele><time>2026-05-03T14:18:44.475Z</time></trkpt><trkpt lat="44.2795776" lon="10.6681992"><ele>1292.0</ele><time>2026-05-03T14:18:45.477Z</time></trkpt><trkpt lat="44.279642" lon="10.6680603"><ele>1294.5</ele><time>2026-05-03T14:18:46.475Z</time></trkpt><trkpt lat="44.2796967" lon="10.6679066"><ele>1297.0</ele><time>2026-05-03T14:18:47.473Z</time></trkpt><trkpt lat="44.2797602" lon="10.6677331"><ele>1298.1999999999998</ele><time>2026-05-03T14:18:48.476Z</time></trkpt><trkpt lat="44.2798298" lon="10.6675721"><ele>1299.4</ele><time>2026-05-03T14:18:49.476Z</time></trkpt><trkpt lat="44.2798949" lon="10.6674304"><ele>1300.6</ele><time>2026-05-03T14:18:50.475Z</time></trkpt><trkpt lat="44.2799507" lon="10.6673178"><ele>1301.8000000000002</ele><time>2026-05-03T14:18:51.473Z</time></trkpt><trkpt lat="44.2800098" lon="10.6672468"><ele>1303.0</ele><time>2026-05-03T14:18:52.47Z</time></trkpt><trkpt lat="44.2800847" lon="10.6672269"><ele>1303.0</ele><time>2026-05-03T14:18:53.474Z</time></trkpt><trkpt lat="44.2801812" lon="10.6672837"><ele>1303.0</ele><time>2026-05-03T14:18:54.472Z</time></trkpt><trkpt lat="44.2802955" lon="10.6673928"><ele>1303.0</ele><time>2026-05-03T14:18:55.468Z</time></trkpt><trkpt lat="44.2804144" lon="10.6675224"><ele>1303.0</ele><time>2026-05-03T14:18:56.465Z</time></trkpt><trkpt lat="44.2805424" lon="10.6676461"><ele>1299.6666666666665</ele><time>2026-05-03T14:18:57.465Z</time></trkpt><trkpt lat="44.2806581" lon="10.667777"><ele>1296.3333333333333</ele><time>2026-05-03T14:18:58.469Z</time></trkpt><trkpt lat="44.2807959" lon="10.6678491"><ele>1293.0</ele><time>2026-05-03T14:18:59.467Z</time></trkpt><trkpt lat="44.2809435" lon="10.6679234"><ele>1293.0</ele><time>2026-05-03T14:19:00.472Z</time></trkpt><trkpt lat="44.2810889" lon="10.6679623"><ele>1293.0</ele><time>2026-05-03T14:19:01.473Z</time></trkpt><trkpt lat="44.2812257" lon="10.6679788"><ele>1293.0</ele><time>2026-05-03T14:19:02.472Z</time></trkpt><trkpt lat="44.2813787" lon="10.6679081"><ele>1293.0</ele><time>2026-05-03T14:19:03.47Z</time></trkpt><trkpt lat="44.2815123" lon="10.6678639"><ele>1293.0</ele><time>2026-05-03T14:19:04.471Z</time></trkpt><trkpt lat="44.2816453" lon="10.6678547"><ele>1293.0</ele><time>2026-05-03T14:19:05.469Z</time></trkpt><trkpt lat="44.2817649" lon="10.6678763"><ele>1293.0</ele><time>2026-05-03T14:19:06.475Z</time></trkpt><trkpt lat="44.2818598" lon="10.6678759"><ele>1293.0</ele><time>2026-05-03T14:19:07.47Z</time></trkpt><trkpt lat="44.2819732" lon="10.667839"><ele>1293.5</ele><time>2026-05-03T14:19:08.468Z</time></trkpt><trkpt lat="44.2820897" lon="10.6677646"><ele>1294.0</ele><time>2026-05-03T14:19:09.477Z</time></trkpt><trkpt lat="44.28219" lon="10.6676362"><ele>1294.5</ele><time>2026-05-03T14:19:10.473Z</time></trkpt><trkpt lat="44.2823083" lon="10.6674454"><ele>1295.0</ele><time>2026-05-03T14:19:11.47Z</time></trkpt><trkpt lat="44.2824042" lon="10.6672457"><ele>1295.0</ele><time>2026-05-03T14:19:12.472Z</time></trkpt><trkpt lat="44.2825198" lon="10.6670699"><ele>1295.0</ele><time>2026-05-03T14:19:13.471Z</time></trkpt><trkpt lat="44.2826276" lon="10.6669134"><ele>1295.0</ele><time>2026-05-03T14:19:14.466Z</time></trkpt><trkpt lat="44.2827088" lon="10.6668243"><ele>1295.0</ele><time>2026-05-03T14:19:15.469Z</time></trkpt><trkpt lat="44.2827827" lon="10.6666972"><ele>1298.5</ele><time>2026-05-03T14:19:16.474Z</time></trkpt><trkpt lat="44.2828439" lon="10.6665353"><ele>1302.0</ele><time>2026-05-03T14:19:17.476Z</time></trkpt><trkpt lat="44.2828535" lon="10.6663256"><ele>1305.5</ele><time>2026-05-03T14:19:18.476Z</time></trkpt><trkpt lat="44.282899" lon="10.6661412"><ele>1309.0</ele><time>2026-05-03T14:19:19.475Z</time></trkpt><trkpt lat="44.2829653" lon="10.6659709"><ele>1311.25</ele><time>2026-05-03T14:19:20.474Z</time></trkpt><trkpt lat="44.2830062" lon="10.6657906"><ele>1313.5</ele><time>2026-05-03T14:19:21.47Z</time></trkpt><trkpt lat="44.2830382" lon="10.6656249"><ele>1315.75</ele><time>2026-05-03T14:19:22.474Z</time></trkpt><trkpt lat="44.2830366" lon="10.6654364"><ele>1318.0</ele><time>2026-05-03T14:19:23.472Z</time></trkpt><trkpt lat="44.2830158" lon="10.6652466"><ele>1318.6000000000001</ele><time>2026-05-03T14:19:24.473Z</time></trkpt><trkpt lat="44.2829882" lon="10.6650952"><ele>1319.2</ele><time>2026-05-03T14:19:25.47Z</time></trkpt><trkpt lat="44.2829797" lon="10.6649498"><ele>1319.8</ele><time>2026-05-03T14:19:26.471Z</time></trkpt><trkpt lat="44.2829771" lon="10.6648083"><ele>1320.4</ele><time>2026-05-03T14:19:27.471Z</time></trkpt><trkpt lat="44.2829777" lon="10.6646718"><ele>1321.0</ele><time>2026-05-03T14:19:28.475Z</time></trkpt><trkpt lat="44.2829773" lon="10.6645459"><ele>1319.1999999999998</ele><time>2026-05-03T14:19:29.472Z</time></trkpt><trkpt lat="44.2829837" lon="10.6644327"><ele>1317.3999999999999</ele><time>2026-05-03T14:19:30.472Z</time></trkpt><trkpt lat="44.2829972" lon="10.6643246"><ele>1315.6</ele><time>2026-05-03T14:19:31.474Z</time></trkpt><trkpt lat="44.2830619" lon="10.6642255"><ele>1313.8</ele><time>2026-05-03T14:19:33.47Z</time></trkpt><trkpt lat="44.2831699" lon="10.6643644"><ele>1312.0</ele><time>2026-05-03T14:19:35.47Z</time></trkpt><trkpt lat="44.2832354" lon="10.6645022"><ele>1310.25</ele><time>2026-05-03T14:19:36.472Z</time></trkpt><trkpt lat="44.2832951" lon="10.6646431"><ele>1308.5</ele><time>2026-05-03T14:19:37.471Z</time></trkpt><trkpt lat="44.2833572" lon="10.6647722"><ele>1306.75</ele><time>2026-05-03T14:19:38.473Z</time></trkpt><trkpt lat="44.2834146" lon="10.6649134"><ele>1305.0</ele><time>2026-05-03T14:19:39.47Z</time></trkpt><trkpt lat="44.2834845" lon="10.6650716"><ele>1305.0</ele><time>2026-05-03T14:19:40.481Z</time></trkpt><trkpt lat="44.2835621" lon="10.665231"><ele>1305.0</ele><time>2026-05-03T14:19:41.479Z</time></trkpt><trkpt lat="44.283652" lon="10.6653846"><ele>1305.0</ele><time>2026-05-03T14:19:42.479Z</time></trkpt><trkpt lat="44.2837458" lon="10.665547"><ele>1305.0</ele><time>2026-05-03T14:19:43.465Z</time></trkpt><trkpt lat="44.283837" lon="10.6657119"><ele>1303.0</ele><time>2026-05-03T14:19:44.479Z</time></trkpt><trkpt lat="44.2839222" lon="10.6658708"><ele>1301.0</ele><time>2026-05-03T14:19:45.467Z</time></trkpt><trkpt lat="44.2840081" lon="10.6660234"><ele>1299.0</ele><time>2026-05-03T14:19:46.468Z</time></trkpt><trkpt lat="44.2840923" lon="10.6661707"><ele>1297.0</ele><time>2026-05-03T14:19:47.472Z</time></trkpt><trkpt lat="44.2841726" lon="10.6663073"><ele>1297.0</ele><time>2026-05-03T14:19:48.471Z</time></trkpt><trkpt lat="44.2842529" lon="10.666424"><ele>1297.0</ele><time>2026-05-03T14:19:49.472Z</time></trkpt><trkpt lat="44.2843357" lon="10.6665169"><ele>1297.0</ele><time>2026-05-03T14:19:50.471Z</time></trkpt><trkpt lat="44.2844257" lon="10.6665855"><ele>1297.0</ele><time>2026-05-03T14:19:51.474Z</time></trkpt><trkpt lat="44.2845214" lon="10.6666115"><ele>1297.0</ele><time>2026-05-03T14:19:52.472Z</time></trkpt><trkpt lat="44.2846275" lon="10.6666266"><ele>1297.0</ele><time>2026-05-03T14:19:53.47Z</time></trkpt><trkpt lat="44.2847546" lon="10.6666175"><ele>1297.0</ele><time>2026-05-03T14:19:54.473Z</time></trkpt><trkpt lat="44.2848893" lon="10.6666098"><ele>1297.0</ele><time>2026-05-03T14:19:55.468Z</time></trkpt><trkpt lat="44.2850283" lon="10.6666036"><ele>1297.0</ele><time>2026-05-03T14:19:56.465Z</time></trkpt><trkpt lat="44.2851687" lon="10.6665875"><ele>1299.1999999999998</ele><time>2026-05-03T14:19:57.47Z</time></trkpt><trkpt lat="44.2852959" lon="10.6665763"><ele>1301.4</ele><time>2026-05-03T14:19:58.468Z</time></trkpt><trkpt lat="44.2854101" lon="10.6665675"><ele>1303.6</ele><time>2026-05-03T14:19:59.47Z</time></trkpt><trkpt lat="44.2855198" lon="10.6665674"><ele>1305.8000000000002</ele><time>2026-05-03T14:20:00.471Z</time></trkpt><trkpt lat="44.2856166" lon="10.666565"><ele>1308.0</ele><time>2026-05-03T14:20:01.475Z</time></trkpt><trkpt lat="44.2857064" lon="10.6665692"><ele>1308.8333333333333</ele><time>2026-05-03T14:20:02.471Z</time></trkpt><trkpt lat="44.2857961" lon="10.6665735"><ele>1309.6666666666667</ele><time>2026-05-03T14:20:03.481Z</time></trkpt><trkpt lat="44.2858863" lon="10.6665689"><ele>1310.5</ele><time>2026-05-03T14:20:04.48Z</time></trkpt><trkpt lat="44.2859743" lon="10.6665699"><ele>1311.3333333333335</ele><time>2026-05-03T14:20:05.475Z</time></trkpt><trkpt lat="44.2860575" lon="10.666581"><ele>1312.1666666666667</ele><time>2026-05-03T14:20:06.474Z</time></trkpt><trkpt lat="44.2861437" lon="10.6665817"><ele>1313.0</ele><time>2026-05-03T14:20:07.476Z</time></trkpt><trkpt lat="44.2862187" lon="10.6665884"><ele>1313.0000000000002</ele><time>2026-05-03T14:20:08.481Z</time></trkpt><trkpt lat="44.2862901" lon="10.6665706"><ele>1313.0</ele><time>2026-05-03T14:20:09.472Z</time></trkpt><trkpt lat="44.2863673" lon="10.6665628"><ele>1313.0</ele><time>2026-05-03T14:20:10.471Z</time></trkpt><trkpt lat="44.2864418" lon="10.6665665"><ele>1313.0</ele><time>2026-05-03T14:20:11.473Z</time></trkpt><trkpt lat="44.2865081" lon="10.6665696"><ele>1313.0</ele><time>2026-05-03T14:20:12.475Z</time></trkpt><trkpt lat="44.2865731" lon="10.6665695"><ele>1313.0000000000002</ele><time>2026-05-03T14:20:13.472Z</time></trkpt><trkpt lat="44.2866521" lon="10.666516"><ele>1313.0</ele><time>2026-05-03T14:20:15.479Z</time></trkpt><trkpt lat="44.2867054" lon="10.6664069"><ele>1311.2</ele><time>2026-05-03T14:20:17.474Z</time></trkpt><trkpt lat="44.286756" lon="10.6662926"><ele>1309.4</ele><time>2026-05-03T14:20:19.482Z</time></trkpt><trkpt lat="44.2867987" lon="10.6661737"><ele>1307.6000000000001</ele><time>2026-05-03T14:20:21.476Z</time></trkpt><trkpt lat="44.2868301" lon="10.6660215"><ele>1305.8000000000002</ele><time>2026-05-03T14:20:23.476Z</time></trkpt><trkpt lat="44.2868617" lon="10.6659091"><ele>1304.0</ele><time>2026-05-03T14:20:25.472Z</time></trkpt><trkpt lat="44.2868957" lon="10.6658177"><ele>1303.0</ele><time>2026-05-03T14:20:27.473Z</time></trkpt><trkpt lat="44.2869517" lon="10.665772"><ele>1303.0</ele><time>2026-05-03T14:20:30.483Z</time></trkpt><trkpt lat="44.2870181" lon="10.6657447"><ele>1303.0</ele><time>2026-05-03T14:20:33.477Z</time></trkpt></trkseg></trk></gpx>